﻿<?xml version="1.0" encoding="utf-8" standalone="yes"?>
<gpx version="1.0" creator="CanWay - http://www.canwaygps.com" xmlns:xsi="http://www.w3.org/2001/XMLSchema-instance" xmlns="http://www.topografix.com/GPX/1/0" xsi:schemaLocation="http://www.topografix.com/GPX/1/0 http://www.topografix.com/GPX/1/0/gpx.xsd">
<time>2019-03-20T17:58:13Z</time>
<bounds minlat="54.883920" minlon="11.911392" maxlat="55.864865" maxlon="12.533607" />
<trk>
<name>2018-05-27 09-40</name>
<trkseg>
<trkpt lat="54.883920" lon="11.911392">
<ele>-4.4</ele>
<time>2018-05-27T07:40:28Z</time>
<speed>22.2</speed>
</trkpt>
<trkpt lat="54.884086" lon="11.911575">
<ele>-7.6</ele>
<time>2018-05-27T07:40:29Z</time>
<speed>22.2</speed>
</trkpt>
<trkpt lat="54.884274" lon="11.911751">
<ele>-3.9</ele>
<time>2018-05-27T07:40:30Z</time>
<speed>22.5</speed>
</trkpt>
<trkpt lat="54.884456" lon="11.911928">
<ele>-1.1</ele>
<time>2018-05-27T07:40:31Z</time>
<speed>22.5</speed>
</trkpt>
<trkpt lat="54.884639" lon="11.912123">
<ele>0.5</ele>
<time>2018-05-27T07:40:32Z</time>
<speed>23.1</speed>
</trkpt>
<trkpt lat="54.884824" lon="11.912303">
<ele>2.0</ele>
<time>2018-05-27T07:40:33Z</time>
<speed>23.1</speed>
</trkpt>
<trkpt lat="54.885022" lon="11.912480">
<ele>7.2</ele>
<time>2018-05-27T07:40:34Z</time>
<speed>23.3</speed>
</trkpt>
<trkpt lat="54.885222" lon="11.912678">
<ele>9.9</ele>
<time>2018-05-27T07:40:35Z</time>
<speed>23.6</speed>
</trkpt>
<trkpt lat="54.885412" lon="11.912858">
<ele>12.2</ele>
<time>2018-05-27T07:40:36Z</time>
<speed>23.6</speed>
</trkpt>
<trkpt lat="54.885600" lon="11.913053">
<ele>14.5</ele>
<time>2018-05-27T07:40:37Z</time>
<speed>23.6</speed>
</trkpt>
<trkpt lat="54.885790" lon="11.913251">
<ele>15.6</ele>
<time>2018-05-27T07:40:38Z</time>
<speed>23.6</speed>
</trkpt>
<trkpt lat="54.885973" lon="11.913446">
<ele>17.1</ele>
<time>2018-05-27T07:40:39Z</time>
<speed>23.6</speed>
</trkpt>
<trkpt lat="54.886165" lon="11.913630">
<ele>18.0</ele>
<time>2018-05-27T07:40:40Z</time>
<speed>23.6</speed>
</trkpt>
<trkpt lat="54.886355" lon="11.913828">
<ele>19.0</ele>
<time>2018-05-27T07:40:41Z</time>
<speed>23.6</speed>
</trkpt>
<trkpt lat="54.886539" lon="11.914008">
<ele>20.5</ele>
<time>2018-05-27T07:40:42Z</time>
<speed>23.3</speed>
</trkpt>
<trkpt lat="54.886726" lon="11.914191">
<ele>20.6</ele>
<time>2018-05-27T07:40:43Z</time>
<speed>23.1</speed>
</trkpt>
<trkpt lat="54.886905" lon="11.914371">
<ele>21.2</ele>
<time>2018-05-27T07:40:44Z</time>
<speed>22.8</speed>
</trkpt>
<trkpt lat="54.887093" lon="11.914539">
<ele>21.1</ele>
<time>2018-05-27T07:40:45Z</time>
<speed>22.8</speed>
</trkpt>
<trkpt lat="54.887272" lon="11.914718">
<ele>21.8</ele>
<time>2018-05-27T07:40:46Z</time>
<speed>22.8</speed>
</trkpt>
<trkpt lat="54.887453" lon="11.914902">
<ele>21.0</ele>
<time>2018-05-27T07:40:47Z</time>
<speed>22.8</speed>
</trkpt>
<trkpt lat="54.887634" lon="11.915066">
<ele>21.6</ele>
<time>2018-05-27T07:40:48Z</time>
<speed>23.1</speed>
</trkpt>
<trkpt lat="54.887821" lon="11.915249">
<ele>21.6</ele>
<time>2018-05-27T07:40:49Z</time>
<speed>23.3</speed>
</trkpt>
<trkpt lat="54.888009" lon="11.915417">
<ele>21.6</ele>
<time>2018-05-27T07:40:50Z</time>
<speed>23.3</speed>
</trkpt>
<trkpt lat="54.888197" lon="11.915585">
<ele>21.5</ele>
<time>2018-05-27T07:40:51Z</time>
<speed>23.3</speed>
</trkpt>
<trkpt lat="54.888385" lon="11.915753">
<ele>21.5</ele>
<time>2018-05-27T07:40:52Z</time>
<speed>23.3</speed>
</trkpt>
<trkpt lat="54.888573" lon="11.915921">
<ele>21.4</ele>
<time>2018-05-27T07:40:53Z</time>
<speed>23.3</speed>
</trkpt>
<trkpt lat="54.888766" lon="11.916089">
<ele>22.2</ele>
<time>2018-05-27T07:40:54Z</time>
<speed>23.3</speed>
</trkpt>
<trkpt lat="54.888955" lon="11.916241">
<ele>22.1</ele>
<time>2018-05-27T07:40:55Z</time>
<speed>23.3</speed>
</trkpt>
<trkpt lat="54.889141" lon="11.916406">
<ele>23.4</ele>
<time>2018-05-27T07:40:56Z</time>
<speed>23.3</speed>
</trkpt>
<trkpt lat="54.889331" lon="11.916559">
<ele>23.2</ele>
<time>2018-05-27T07:40:57Z</time>
<speed>22.8</speed>
</trkpt>
<trkpt lat="54.889515" lon="11.916693">
<ele>23.5</ele>
<time>2018-05-27T07:40:58Z</time>
<speed>22.2</speed>
</trkpt>
<trkpt lat="54.889697" lon="11.916842">
<ele>23.9</ele>
<time>2018-05-27T07:40:59Z</time>
<speed>21.9</speed>
</trkpt>
<trkpt lat="54.889870" lon="11.916976">
<ele>22.6</ele>
<time>2018-05-27T07:41:00Z</time>
<speed>21.7</speed>
</trkpt>
<trkpt lat="54.890048" lon="11.917126">
<ele>22.1</ele>
<time>2018-05-27T07:41:01Z</time>
<speed>21.7</speed>
</trkpt>
<trkpt lat="54.890226" lon="11.917260">
<ele>21.6</ele>
<time>2018-05-27T07:41:02Z</time>
<speed>21.9</speed>
</trkpt>
<trkpt lat="54.890405" lon="11.917394">
<ele>21.1</ele>
<time>2018-05-27T07:41:03Z</time>
<speed>21.9</speed>
</trkpt>
<trkpt lat="54.890584" lon="11.917528">
<ele>20.5</ele>
<time>2018-05-27T07:41:04Z</time>
<speed>21.9</speed>
</trkpt>
<trkpt lat="54.890767" lon="11.917662">
<ele>20.8</ele>
<time>2018-05-27T07:41:05Z</time>
<speed>22.2</speed>
</trkpt>
<trkpt lat="54.890951" lon="11.917797">
<ele>21.1</ele>
<time>2018-05-27T07:41:06Z</time>
<speed>22.2</speed>
</trkpt>
<trkpt lat="54.891131" lon="11.917915">
<ele>20.4</ele>
<time>2018-05-27T07:41:07Z</time>
<speed>22.2</speed>
</trkpt>
<trkpt lat="54.891315" lon="11.918050">
<ele>20.7</ele>
<time>2018-05-27T07:41:08Z</time>
<speed>22.2</speed>
</trkpt>
<trkpt lat="54.891508" lon="11.918172">
<ele>20.3</ele>
<time>2018-05-27T07:41:09Z</time>
<speed>22.5</speed>
</trkpt>
<trkpt lat="54.891692" lon="11.918306">
<ele>20.6</ele>
<time>2018-05-27T07:41:10Z</time>
<speed>22.5</speed>
</trkpt>
<trkpt lat="54.891884" lon="11.918428">
<ele>20.2</ele>
<time>2018-05-27T07:41:11Z</time>
<speed>22.5</speed>
</trkpt>
<trkpt lat="54.892070" lon="11.918547">
<ele>20.4</ele>
<time>2018-05-27T07:41:12Z</time>
<speed>22.8</speed>
</trkpt>
<trkpt lat="54.892267" lon="11.918669">
<ele>20.8</ele>
<time>2018-05-27T07:41:13Z</time>
<speed>22.8</speed>
</trkpt>
<trkpt lat="54.892460" lon="11.918791">
<ele>20.4</ele>
<time>2018-05-27T07:41:14Z</time>
<speed>23.1</speed>
</trkpt>
<trkpt lat="54.892651" lon="11.918929">
<ele>20.1</ele>
<time>2018-05-27T07:41:15Z</time>
<speed>23.1</speed>
</trkpt>
<trkpt lat="54.892849" lon="11.919051">
<ele>20.5</ele>
<time>2018-05-27T07:41:16Z</time>
<speed>23.1</speed>
</trkpt>
<trkpt lat="54.893041" lon="11.919173">
<ele>20.1</ele>
<time>2018-05-27T07:41:17Z</time>
<speed>23.1</speed>
</trkpt>
<trkpt lat="54.893240" lon="11.919280">
<ele>20.4</ele>
<time>2018-05-27T07:41:18Z</time>
<speed>22.8</speed>
</trkpt>
<trkpt lat="54.893433" lon="11.919402">
<ele>20.0</ele>
<time>2018-05-27T07:41:19Z</time>
<speed>22.8</speed>
</trkpt>
<trkpt lat="54.893625" lon="11.919524">
<ele>19.6</ele>
<time>2018-05-27T07:41:20Z</time>
<speed>23.1</speed>
</trkpt>
<trkpt lat="54.893823" lon="11.919646">
<ele>20.0</ele>
<time>2018-05-27T07:41:21Z</time>
<speed>23.1</speed>
</trkpt>
<trkpt lat="54.894024" lon="11.919756">
<ele>19.0</ele>
<time>2018-05-27T07:41:22Z</time>
<speed>23.3</speed>
</trkpt>
<trkpt lat="54.894222" lon="11.919879">
<ele>19.4</ele>
<time>2018-05-27T07:41:23Z</time>
<speed>23.3</speed>
</trkpt>
<trkpt lat="54.894428" lon="11.919989">
<ele>19.1</ele>
<time>2018-05-27T07:41:24Z</time>
<speed>23.3</speed>
</trkpt>
<trkpt lat="54.894626" lon="11.920111">
<ele>19.5</ele>
<time>2018-05-27T07:41:25Z</time>
<speed>23.6</speed>
</trkpt>
<trkpt lat="54.894831" lon="11.920236">
<ele>19.4</ele>
<time>2018-05-27T07:41:26Z</time>
<speed>23.6</speed>
</trkpt>
<trkpt lat="54.895032" lon="11.920346">
<ele>18.3</ele>
<time>2018-05-27T07:41:27Z</time>
<speed>23.6</speed>
</trkpt>
<trkpt lat="54.895230" lon="11.920469">
<ele>18.7</ele>
<time>2018-05-27T07:41:28Z</time>
<speed>23.6</speed>
</trkpt>
<trkpt lat="54.895436" lon="11.920579">
<ele>18.5</ele>
<time>2018-05-27T07:41:29Z</time>
<speed>23.9</speed>
</trkpt>
<trkpt lat="54.895643" lon="11.920689">
<ele>18.2</ele>
<time>2018-05-27T07:41:30Z</time>
<speed>23.9</speed>
</trkpt>
<trkpt lat="54.895848" lon="11.920814">
<ele>18.1</ele>
<time>2018-05-27T07:41:31Z</time>
<speed>23.9</speed>
</trkpt>
<trkpt lat="54.896047" lon="11.920921">
<ele>18.4</ele>
<time>2018-05-27T07:41:32Z</time>
<speed>23.6</speed>
</trkpt>
<trkpt lat="54.896252" lon="11.921047">
<ele>18.2</ele>
<time>2018-05-27T07:41:33Z</time>
<speed>23.9</speed>
</trkpt>
<trkpt lat="54.896458" lon="11.921157">
<ele>18.0</ele>
<time>2018-05-27T07:41:34Z</time>
<speed>23.9</speed>
</trkpt>
<trkpt lat="54.896663" lon="11.921282">
<ele>17.8</ele>
<time>2018-05-27T07:41:35Z</time>
<speed>23.6</speed>
</trkpt>
<trkpt lat="54.896862" lon="11.921389">
<ele>18.1</ele>
<time>2018-05-27T07:41:36Z</time>
<speed>23.6</speed>
</trkpt>
<trkpt lat="54.897067" lon="11.921514">
<ele>18.0</ele>
<time>2018-05-27T07:41:37Z</time>
<speed>23.3</speed>
</trkpt>
<trkpt lat="54.897261" lon="11.921621">
<ele>17.5</ele>
<time>2018-05-27T07:41:38Z</time>
<speed>23.1</speed>
</trkpt>
<trkpt lat="54.897459" lon="11.921744">
<ele>17.9</ele>
<time>2018-05-27T07:41:39Z</time>
<speed>23.1</speed>
</trkpt>
<trkpt lat="54.897658" lon="11.921850">
<ele>18.2</ele>
<time>2018-05-27T07:41:40Z</time>
<speed>22.8</speed>
</trkpt>
<trkpt lat="54.897852" lon="11.921957">
<ele>17.7</ele>
<time>2018-05-27T07:41:41Z</time>
<speed>22.8</speed>
</trkpt>
<trkpt lat="54.898052" lon="11.922064">
<ele>18.0</ele>
<time>2018-05-27T07:41:42Z</time>
<speed>23.1</speed>
</trkpt>
<trkpt lat="54.898246" lon="11.922171">
<ele>17.5</ele>
<time>2018-05-27T07:41:43Z</time>
<speed>22.8</speed>
</trkpt>
<trkpt lat="54.898440" lon="11.922278">
<ele>16.9</ele>
<time>2018-05-27T07:41:44Z</time>
<speed>22.8</speed>
</trkpt>
<trkpt lat="54.898639" lon="11.922385">
<ele>17.2</ele>
<time>2018-05-27T07:41:45Z</time>
<speed>22.5</speed>
</trkpt>
<trkpt lat="54.898833" lon="11.922492">
<ele>16.7</ele>
<time>2018-05-27T07:41:46Z</time>
<speed>22.5</speed>
</trkpt>
<trkpt lat="54.899025" lon="11.922596">
<ele>17.6</ele>
<time>2018-05-27T07:41:47Z</time>
<speed>22.5</speed>
</trkpt>
<trkpt lat="54.899226" lon="11.922706">
<ele>16.5</ele>
<time>2018-05-27T07:41:48Z</time>
<speed>22.5</speed>
</trkpt>
<trkpt lat="54.899415" lon="11.922813">
<ele>15.2</ele>
<time>2018-05-27T07:41:49Z</time>
<speed>22.5</speed>
</trkpt>
<trkpt lat="54.899609" lon="11.922920">
<ele>14.7</ele>
<time>2018-05-27T07:41:50Z</time>
<speed>22.8</speed>
</trkpt>
<trkpt lat="54.899808" lon="11.923027">
<ele>15.0</ele>
<time>2018-05-27T07:41:51Z</time>
<speed>22.8</speed>
</trkpt>
<trkpt lat="54.900010" lon="11.923137">
<ele>13.9</ele>
<time>2018-05-27T07:41:52Z</time>
<speed>23.1</speed>
</trkpt>
<trkpt lat="54.900202" lon="11.923259">
<ele>13.5</ele>
<time>2018-05-27T07:41:53Z</time>
<speed>23.1</speed>
</trkpt>
<trkpt lat="54.900403" lon="11.923369">
<ele>12.4</ele>
<time>2018-05-27T07:41:54Z</time>
<speed>23.1</speed>
</trkpt>
<trkpt lat="54.900603" lon="11.923476">
<ele>12.7</ele>
<time>2018-05-27T07:41:55Z</time>
<speed>23.1</speed>
</trkpt>
<trkpt lat="54.900804" lon="11.923586">
<ele>11.6</ele>
<time>2018-05-27T07:41:56Z</time>
<speed>23.1</speed>
</trkpt>
<trkpt lat="54.901003" lon="11.923693">
<ele>11.9</ele>
<time>2018-05-27T07:41:57Z</time>
<speed>23.1</speed>
</trkpt>
<trkpt lat="54.901204" lon="11.923804">
<ele>10.9</ele>
<time>2018-05-27T07:41:58Z</time>
<speed>23.3</speed>
</trkpt>
<trkpt lat="54.901404" lon="11.923910">
<ele>11.2</ele>
<time>2018-05-27T07:41:59Z</time>
<speed>23.3</speed>
</trkpt>
<trkpt lat="54.901603" lon="11.924036">
<ele>10.2</ele>
<time>2018-05-27T07:42:00Z</time>
<speed>23.3</speed>
</trkpt>
<trkpt lat="54.901810" lon="11.924146">
<ele>10.0</ele>
<time>2018-05-27T07:42:01Z</time>
<speed>23.3</speed>
</trkpt>
<trkpt lat="54.902009" lon="11.924253">
<ele>10.3</ele>
<time>2018-05-27T07:42:02Z</time>
<speed>23.6</speed>
</trkpt>
<trkpt lat="54.902214" lon="11.924378">
<ele>10.1</ele>
<time>2018-05-27T07:42:03Z</time>
<speed>23.6</speed>
</trkpt>
<trkpt lat="54.902420" lon="11.924489">
<ele>9.9</ele>
<time>2018-05-27T07:42:04Z</time>
<speed>23.6</speed>
</trkpt>
<trkpt lat="54.902618" lon="11.924611">
<ele>10.3</ele>
<time>2018-05-27T07:42:05Z</time>
<speed>23.9</speed>
</trkpt>
<trkpt lat="54.902824" lon="11.924721">
<ele>10.0</ele>
<time>2018-05-27T07:42:06Z</time>
<speed>23.9</speed>
</trkpt>
<trkpt lat="54.903031" lon="11.924831">
<ele>9.8</ele>
<time>2018-05-27T07:42:07Z</time>
<speed>23.6</speed>
</trkpt>
<trkpt lat="54.903232" lon="11.924941">
<ele>8.7</ele>
<time>2018-05-27T07:42:08Z</time>
<speed>23.9</speed>
</trkpt>
<trkpt lat="54.903437" lon="11.925067">
<ele>8.5</ele>
<time>2018-05-27T07:42:09Z</time>
<speed>23.9</speed>
</trkpt>
<trkpt lat="54.903648" lon="11.925177">
<ele>9.1</ele>
<time>2018-05-27T07:42:10Z</time>
<speed>24.2</speed>
</trkpt>
<trkpt lat="54.903853" lon="11.925302">
<ele>9.0</ele>
<time>2018-05-27T07:42:11Z</time>
<speed>24.2</speed>
</trkpt>
<trkpt lat="54.904060" lon="11.925413">
<ele>8.7</ele>
<time>2018-05-27T07:42:12Z</time>
<speed>23.9</speed>
</trkpt>
<trkpt lat="54.904265" lon="11.925538">
<ele>8.6</ele>
<time>2018-05-27T07:42:13Z</time>
<speed>23.9</speed>
</trkpt>
<trkpt lat="54.904471" lon="11.925648">
<ele>8.3</ele>
<time>2018-05-27T07:42:14Z</time>
<speed>23.9</speed>
</trkpt>
<trkpt lat="54.904672" lon="11.925758">
<ele>7.2</ele>
<time>2018-05-27T07:42:15Z</time>
<speed>23.6</speed>
</trkpt>
<trkpt lat="54.904877" lon="11.925884">
<ele>7.1</ele>
<time>2018-05-27T07:42:16Z</time>
<speed>23.6</speed>
</trkpt>
<trkpt lat="54.905076" lon="11.925991">
<ele>7.4</ele>
<time>2018-05-27T07:42:17Z</time>
<speed>23.3</speed>
</trkpt>
<trkpt lat="54.905276" lon="11.926098">
<ele>7.7</ele>
<time>2018-05-27T07:42:18Z</time>
<speed>22.8</speed>
</trkpt>
<trkpt lat="54.905470" lon="11.926205">
<ele>7.2</ele>
<time>2018-05-27T07:42:19Z</time>
<speed>22.8</speed>
</trkpt>
<trkpt lat="54.905667" lon="11.926327">
<ele>7.6</ele>
<time>2018-05-27T07:42:20Z</time>
<speed>22.5</speed>
</trkpt>
<trkpt lat="54.905861" lon="11.926434">
<ele>7.1</ele>
<time>2018-05-27T07:42:21Z</time>
<speed>22.5</speed>
</trkpt>
<trkpt lat="54.906055" lon="11.926541">
<ele>6.6</ele>
<time>2018-05-27T07:42:22Z</time>
<speed>22.8</speed>
</trkpt>
<trkpt lat="54.906255" lon="11.926648">
<ele>6.9</ele>
<time>2018-05-27T07:42:23Z</time>
<speed>22.8</speed>
</trkpt>
<trkpt lat="54.906447" lon="11.926770">
<ele>6.5</ele>
<time>2018-05-27T07:42:24Z</time>
<speed>22.8</speed>
</trkpt>
<trkpt lat="54.906641" lon="11.926877">
<ele>6.0</ele>
<time>2018-05-27T07:42:25Z</time>
<speed>22.8</speed>
</trkpt>
<trkpt lat="54.906840" lon="11.926984">
<ele>6.3</ele>
<time>2018-05-27T07:42:26Z</time>
<speed>22.8</speed>
</trkpt>
<trkpt lat="54.907034" lon="11.927091">
<ele>5.8</ele>
<time>2018-05-27T07:42:27Z</time>
<speed>23.1</speed>
</trkpt>
<trkpt lat="54.907234" lon="11.927198">
<ele>6.1</ele>
<time>2018-05-27T07:42:28Z</time>
<speed>23.1</speed>
</trkpt>
<trkpt lat="54.907440" lon="11.927308">
<ele>5.8</ele>
<time>2018-05-27T07:42:29Z</time>
<speed>23.1</speed>
</trkpt>
<trkpt lat="54.907633" lon="11.927430">
<ele>5.4</ele>
<time>2018-05-27T07:42:30Z</time>
<speed>23.1</speed>
</trkpt>
<trkpt lat="54.907832" lon="11.927537">
<ele>5.7</ele>
<time>2018-05-27T07:42:31Z</time>
<speed>23.1</speed>
</trkpt>
<trkpt lat="54.908026" lon="11.927644">
<ele>5.2</ele>
<time>2018-05-27T07:42:32Z</time>
<speed>23.1</speed>
</trkpt>
<trkpt lat="54.908225" lon="11.927751">
<ele>5.5</ele>
<time>2018-05-27T07:42:33Z</time>
<speed>23.1</speed>
</trkpt>
<trkpt lat="54.908426" lon="11.927862">
<ele>4.5</ele>
<time>2018-05-27T07:42:34Z</time>
<speed>23.1</speed>
</trkpt>
<trkpt lat="54.908624" lon="11.927984">
<ele>4.9</ele>
<time>2018-05-27T07:42:35Z</time>
<speed>22.8</speed>
</trkpt>
<trkpt lat="54.908818" lon="11.928091">
<ele>4.4</ele>
<time>2018-05-27T07:42:36Z</time>
<speed>22.8</speed>
</trkpt>
<trkpt lat="54.909017" lon="11.928198">
<ele>4.7</ele>
<time>2018-05-27T07:42:37Z</time>
<speed>22.8</speed>
</trkpt>
<trkpt lat="54.909217" lon="11.928305">
<ele>5.0</ele>
<time>2018-05-27T07:42:38Z</time>
<speed>23.1</speed>
</trkpt>
<trkpt lat="54.909409" lon="11.928427">
<ele>4.6</ele>
<time>2018-05-27T07:42:39Z</time>
<speed>23.3</speed>
</trkpt>
<trkpt lat="54.909615" lon="11.928537">
<ele>4.3</ele>
<time>2018-05-27T07:42:40Z</time>
<speed>23.1</speed>
</trkpt>
<trkpt lat="54.909815" lon="11.928644">
<ele>4.7</ele>
<time>2018-05-27T07:42:41Z</time>
<speed>23.1</speed>
</trkpt>
<trkpt lat="54.910007" lon="11.928767">
<ele>4.3</ele>
<time>2018-05-27T07:42:42Z</time>
<speed>23.1</speed>
</trkpt>
<trkpt lat="54.910206" lon="11.928874">
<ele>4.6</ele>
<time>2018-05-27T07:42:43Z</time>
<speed>23.1</speed>
</trkpt>
<trkpt lat="54.910406" lon="11.928981">
<ele>4.9</ele>
<time>2018-05-27T07:42:44Z</time>
<speed>23.1</speed>
</trkpt>
<trkpt lat="54.910600" lon="11.929088">
<ele>4.4</ele>
<time>2018-05-27T07:42:45Z</time>
<speed>23.1</speed>
</trkpt>
<trkpt lat="54.910805" lon="11.929213">
<ele>4.2</ele>
<time>2018-05-27T07:42:46Z</time>
<speed>23.1</speed>
</trkpt>
<trkpt lat="54.910999" lon="11.929320">
<ele>3.7</ele>
<time>2018-05-27T07:42:47Z</time>
<speed>23.1</speed>
</trkpt>
<trkpt lat="54.911198" lon="11.929427">
<ele>4.0</ele>
<time>2018-05-27T07:42:48Z</time>
<speed>23.1</speed>
</trkpt>
<trkpt lat="54.911396" lon="11.929549">
<ele>4.5</ele>
<time>2018-05-27T07:42:49Z</time>
<speed>23.1</speed>
</trkpt>
<trkpt lat="54.911590" lon="11.929656">
<ele>3.9</ele>
<time>2018-05-27T07:42:50Z</time>
<speed>23.1</speed>
</trkpt>
<trkpt lat="54.911787" lon="11.929779">
<ele>4.4</ele>
<time>2018-05-27T07:42:51Z</time>
<speed>23.1</speed>
</trkpt>
<trkpt lat="54.911985" lon="11.929901">
<ele>4.8</ele>
<time>2018-05-27T07:42:52Z</time>
<speed>22.8</speed>
</trkpt>
<trkpt lat="54.912179" lon="11.930008">
<ele>4.3</ele>
<time>2018-05-27T07:42:53Z</time>
<speed>22.8</speed>
</trkpt>
<trkpt lat="54.912377" lon="11.930130">
<ele>4.7</ele>
<time>2018-05-27T07:42:54Z</time>
<speed>22.8</speed>
</trkpt>
<trkpt lat="54.912562" lon="11.930249">
<ele>4.9</ele>
<time>2018-05-27T07:42:55Z</time>
<speed>22.5</speed>
</trkpt>
<trkpt lat="54.912761" lon="11.930356">
<ele>5.2</ele>
<time>2018-05-27T07:42:56Z</time>
<speed>22.5</speed>
</trkpt>
<trkpt lat="54.912954" lon="11.930478">
<ele>4.8</ele>
<time>2018-05-27T07:42:57Z</time>
<speed>22.2</speed>
</trkpt>
<trkpt lat="54.913139" lon="11.930597">
<ele>5.0</ele>
<time>2018-05-27T07:42:58Z</time>
<speed>22.2</speed>
</trkpt>
<trkpt lat="54.913330" lon="11.930716">
<ele>6.0</ele>
<time>2018-05-27T07:42:59Z</time>
<speed>22.2</speed>
</trkpt>
<trkpt lat="54.913513" lon="11.930851">
<ele>6.3</ele>
<time>2018-05-27T07:43:00Z</time>
<speed>21.9</speed>
</trkpt>
<trkpt lat="54.913699" lon="11.930970">
<ele>6.4</ele>
<time>2018-05-27T07:43:01Z</time>
<speed>21.9</speed>
</trkpt>
<trkpt lat="54.913884" lon="11.931089">
<ele>6.6</ele>
<time>2018-05-27T07:43:02Z</time>
<speed>21.7</speed>
</trkpt>
<trkpt lat="54.914069" lon="11.931208">
<ele>6.8</ele>
<time>2018-05-27T07:43:03Z</time>
<speed>21.7</speed>
</trkpt>
<trkpt lat="54.914253" lon="11.931342">
<ele>7.1</ele>
<time>2018-05-27T07:43:04Z</time>
<speed>21.7</speed>
</trkpt>
<trkpt lat="54.914431" lon="11.931458">
<ele>7.8</ele>
<time>2018-05-27T07:43:05Z</time>
<speed>21.7</speed>
</trkpt>
<trkpt lat="54.914615" lon="11.931592">
<ele>8.1</ele>
<time>2018-05-27T07:43:06Z</time>
<speed>21.7</speed>
</trkpt>
<trkpt lat="54.914799" lon="11.931727">
<ele>8.4</ele>
<time>2018-05-27T07:43:07Z</time>
<speed>21.7</speed>
</trkpt>
<trkpt lat="54.914983" lon="11.931861">
<ele>8.7</ele>
<time>2018-05-27T07:43:08Z</time>
<speed>21.7</speed>
</trkpt>
<trkpt lat="54.915161" lon="11.931977">
<ele>9.4</ele>
<time>2018-05-27T07:43:09Z</time>
<speed>21.4</speed>
</trkpt>
<trkpt lat="54.915345" lon="11.932111">
<ele>9.7</ele>
<time>2018-05-27T07:43:10Z</time>
<speed>21.4</speed>
</trkpt>
<trkpt lat="54.915516" lon="11.932242">
<ele>9.7</ele>
<time>2018-05-27T07:43:11Z</time>
<speed>21.4</speed>
</trkpt>
<trkpt lat="54.915699" lon="11.932392">
<ele>10.1</ele>
<time>2018-05-27T07:43:12Z</time>
<speed>21.7</speed>
</trkpt>
<trkpt lat="54.915875" lon="11.932523">
<ele>11.0</ele>
<time>2018-05-27T07:43:13Z</time>
<speed>21.4</speed>
</trkpt>
<trkpt lat="54.916054" lon="11.932657">
<ele>10.5</ele>
<time>2018-05-27T07:43:14Z</time>
<speed>21.7</speed>
</trkpt>
<trkpt lat="54.916229" lon="11.932804">
<ele>11.4</ele>
<time>2018-05-27T07:43:15Z</time>
<speed>21.7</speed>
</trkpt>
<trkpt lat="54.916406" lon="11.932953">
<ele>11.0</ele>
<time>2018-05-27T07:43:16Z</time>
<speed>21.7</speed>
</trkpt>
<trkpt lat="54.916590" lon="11.933088">
<ele>11.3</ele>
<time>2018-05-27T07:43:17Z</time>
<speed>21.7</speed>
</trkpt>
<trkpt lat="54.916760" lon="11.933234">
<ele>11.5</ele>
<time>2018-05-27T07:43:18Z</time>
<speed>21.7</speed>
</trkpt>
<trkpt lat="54.916942" lon="11.933383">
<ele>11.9</ele>
<time>2018-05-27T07:43:19Z</time>
<speed>21.7</speed>
</trkpt>
<trkpt lat="54.917116" lon="11.933545">
<ele>13.0</ele>
<time>2018-05-27T07:43:20Z</time>
<speed>21.7</speed>
</trkpt>
<trkpt lat="54.917293" lon="11.933695">
<ele>12.6</ele>
<time>2018-05-27T07:43:21Z</time>
<speed>21.7</speed>
</trkpt>
<trkpt lat="54.917470" lon="11.933844">
<ele>12.2</ele>
<time>2018-05-27T07:43:22Z</time>
<speed>21.7</speed>
</trkpt>
<trkpt lat="54.917644" lon="11.934006">
<ele>13.3</ele>
<time>2018-05-27T07:43:23Z</time>
<speed>21.7</speed>
</trkpt>
<trkpt lat="54.917813" lon="11.934152">
<ele>13.4</ele>
<time>2018-05-27T07:43:24Z</time>
<speed>21.7</speed>
</trkpt>
<trkpt lat="54.917989" lon="11.934317">
<ele>13.1</ele>
<time>2018-05-27T07:43:25Z</time>
<speed>21.7</speed>
</trkpt>
<trkpt lat="54.918157" lon="11.934479">
<ele>13.4</ele>
<time>2018-05-27T07:43:26Z</time>
<speed>21.7</speed>
</trkpt>
<trkpt lat="54.918327" lon="11.934625">
<ele>13.6</ele>
<time>2018-05-27T07:43:27Z</time>
<speed>21.4</speed>
</trkpt>
<trkpt lat="54.918508" lon="11.934790">
<ele>14.1</ele>
<time>2018-05-27T07:43:28Z</time>
<speed>21.9</speed>
</trkpt>
<trkpt lat="54.918677" lon="11.934952">
<ele>14.4</ele>
<time>2018-05-27T07:43:29Z</time>
<speed>21.9</speed>
</trkpt>
<trkpt lat="54.918852" lon="11.935116">
<ele>14.1</ele>
<time>2018-05-27T07:43:30Z</time>
<speed>22.2</speed>
</trkpt>
<trkpt lat="54.919026" lon="11.935297">
<ele>13.9</ele>
<time>2018-05-27T07:43:31Z</time>
<speed>22.2</speed>
</trkpt>
<trkpt lat="54.919206" lon="11.935477">
<ele>14.6</ele>
<time>2018-05-27T07:43:32Z</time>
<speed>22.5</speed>
</trkpt>
<trkpt lat="54.919381" lon="11.935641">
<ele>14.3</ele>
<time>2018-05-27T07:43:33Z</time>
<speed>22.5</speed>
</trkpt>
<trkpt lat="54.919555" lon="11.935822">
<ele>14.1</ele>
<time>2018-05-27T07:43:34Z</time>
<speed>22.8</speed>
</trkpt>
<trkpt lat="54.919735" lon="11.936002">
<ele>14.7</ele>
<time>2018-05-27T07:43:35Z</time>
<speed>22.8</speed>
</trkpt>
<trkpt lat="54.919907" lon="11.936197">
<ele>14.7</ele>
<time>2018-05-27T07:43:36Z</time>
<speed>22.8</speed>
</trkpt>
<trkpt lat="54.920081" lon="11.936377">
<ele>14.5</ele>
<time>2018-05-27T07:43:37Z</time>
<speed>22.8</speed>
</trkpt>
<trkpt lat="54.920262" lon="11.936561">
<ele>13.8</ele>
<time>2018-05-27T07:43:38Z</time>
<speed>23.1</speed>
</trkpt>
<trkpt lat="54.920440" lon="11.936756">
<ele>14.6</ele>
<time>2018-05-27T07:43:39Z</time>
<speed>23.3</speed>
</trkpt>
<trkpt lat="54.920613" lon="11.936951">
<ele>14.5</ele>
<time>2018-05-27T07:43:40Z</time>
<speed>23.3</speed>
</trkpt>
<trkpt lat="54.920792" lon="11.937150">
<ele>13.9</ele>
<time>2018-05-27T07:43:41Z</time>
<speed>23.3</speed>
</trkpt>
<trkpt lat="54.920970" lon="11.937345">
<ele>14.7</ele>
<time>2018-05-27T07:43:42Z</time>
<speed>23.3</speed>
</trkpt>
<trkpt lat="54.921141" lon="11.937556">
<ele>14.7</ele>
<time>2018-05-27T07:43:43Z</time>
<speed>23.3</speed>
</trkpt>
<trkpt lat="54.921319" lon="11.937751">
<ele>15.5</ele>
<time>2018-05-27T07:43:44Z</time>
<speed>23.6</speed>
</trkpt>
<trkpt lat="54.921502" lon="11.937965">
<ele>15.8</ele>
<time>2018-05-27T07:43:45Z</time>
<speed>23.6</speed>
</trkpt>
<trkpt lat="54.921673" lon="11.938176">
<ele>15.9</ele>
<time>2018-05-27T07:43:46Z</time>
<speed>23.6</speed>
</trkpt>
<trkpt lat="54.921850" lon="11.938387">
<ele>16.8</ele>
<time>2018-05-27T07:43:47Z</time>
<speed>23.6</speed>
</trkpt>
<trkpt lat="54.922028" lon="11.938600">
<ele>16.3</ele>
<time>2018-05-27T07:43:48Z</time>
<speed>24.2</speed>
</trkpt>
<trkpt lat="54.922205" lon="11.938830">
<ele>15.9</ele>
<time>2018-05-27T07:43:49Z</time>
<speed>24.2</speed>
</trkpt>
<trkpt lat="54.922379" lon="11.939056">
<ele>16.9</ele>
<time>2018-05-27T07:43:50Z</time>
<speed>24.2</speed>
</trkpt>
<trkpt lat="54.922557" lon="11.939269">
<ele>16.4</ele>
<time>2018-05-27T07:43:51Z</time>
<speed>24.2</speed>
</trkpt>
<trkpt lat="54.922739" lon="11.939499">
<ele>16.9</ele>
<time>2018-05-27T07:43:52Z</time>
<speed>24.2</speed>
</trkpt>
<trkpt lat="54.922916" lon="11.939728">
<ele>16.5</ele>
<time>2018-05-27T07:43:53Z</time>
<speed>24.4</speed>
</trkpt>
<trkpt lat="54.923086" lon="11.939954">
<ele>16.7</ele>
<time>2018-05-27T07:43:54Z</time>
<speed>24.2</speed>
</trkpt>
<trkpt lat="54.923262" lon="11.940183">
<ele>16.3</ele>
<time>2018-05-27T07:43:55Z</time>
<speed>23.9</speed>
</trkpt>
<trkpt lat="54.923430" lon="11.940424">
<ele>16.6</ele>
<time>2018-05-27T07:43:56Z</time>
<speed>23.9</speed>
</trkpt>
<trkpt lat="54.923595" lon="11.940650">
<ele>16.0</ele>
<time>2018-05-27T07:43:57Z</time>
<speed>23.3</speed>
</trkpt>
<trkpt lat="54.923764" lon="11.940876">
<ele>16.2</ele>
<time>2018-05-27T07:43:58Z</time>
<speed>23.3</speed>
</trkpt>
<trkpt lat="54.923929" lon="11.941102">
<ele>15.6</ele>
<time>2018-05-27T07:43:59Z</time>
<speed>23.3</speed>
</trkpt>
<trkpt lat="54.924093" lon="11.941328">
<ele>14.9</ele>
<time>2018-05-27T07:44:00Z</time>
<speed>23.3</speed>
</trkpt>
<trkpt lat="54.924254" lon="11.941566">
<ele>15.8</ele>
<time>2018-05-27T07:44:01Z</time>
<speed>23.3</speed>
</trkpt>
<trkpt lat="54.924423" lon="11.941792">
<ele>16.0</ele>
<time>2018-05-27T07:44:02Z</time>
<speed>23.3</speed>
</trkpt>
<trkpt lat="54.924586" lon="11.942033">
<ele>15.5</ele>
<time>2018-05-27T07:44:03Z</time>
<speed>23.3</speed>
</trkpt>
<trkpt lat="54.924742" lon="11.942271">
<ele>15.6</ele>
<time>2018-05-27T07:44:04Z</time>
<speed>23.3</speed>
</trkpt>
<trkpt lat="54.924902" lon="11.942509">
<ele>16.4</ele>
<time>2018-05-27T07:44:05Z</time>
<speed>23.6</speed>
</trkpt>
<trkpt lat="54.925065" lon="11.942750">
<ele>15.9</ele>
<time>2018-05-27T07:44:06Z</time>
<speed>23.6</speed>
</trkpt>
<trkpt lat="54.925219" lon="11.943003">
<ele>16.1</ele>
<time>2018-05-27T07:44:07Z</time>
<speed>23.6</speed>
</trkpt>
<trkpt lat="54.925382" lon="11.943245">
<ele>15.6</ele>
<time>2018-05-27T07:44:08Z</time>
<speed>23.6</speed>
</trkpt>
<trkpt lat="54.925538" lon="11.943501">
<ele>14.4</ele>
<time>2018-05-27T07:44:09Z</time>
<speed>23.9</speed>
</trkpt>
<trkpt lat="54.925693" lon="11.943754">
<ele>14.5</ele>
<time>2018-05-27T07:44:10Z</time>
<speed>23.9</speed>
</trkpt>
<trkpt lat="54.925854" lon="11.944011">
<ele>14.2</ele>
<time>2018-05-27T07:44:11Z</time>
<speed>23.9</speed>
</trkpt>
<trkpt lat="54.926015" lon="11.944267">
<ele>13.8</ele>
<time>2018-05-27T07:44:12Z</time>
<speed>24.2</speed>
</trkpt>
<trkpt lat="54.926170" lon="11.944539">
<ele>12.7</ele>
<time>2018-05-27T07:44:13Z</time>
<speed>24.2</speed>
</trkpt>
<trkpt lat="54.926331" lon="11.944796">
<ele>12.3</ele>
<time>2018-05-27T07:44:14Z</time>
<speed>24.2</speed>
</trkpt>
<trkpt lat="54.926485" lon="11.945049">
<ele>12.5</ele>
<time>2018-05-27T07:44:15Z</time>
<speed>24.2</speed>
</trkpt>
<trkpt lat="54.926645" lon="11.945321">
<ele>12.2</ele>
<time>2018-05-27T07:44:16Z</time>
<speed>24.2</speed>
</trkpt>
<trkpt lat="54.926792" lon="11.945589">
<ele>11.7</ele>
<time>2018-05-27T07:44:17Z</time>
<speed>23.9</speed>
</trkpt>
<trkpt lat="54.926941" lon="11.945842">
<ele>11.0</ele>
<time>2018-05-27T07:44:18Z</time>
<speed>23.6</speed>
</trkpt>
<trkpt lat="54.927089" lon="11.946111">
<ele>10.5</ele>
<time>2018-05-27T07:44:19Z</time>
<speed>23.3</speed>
</trkpt>
<trkpt lat="54.927236" lon="11.946379">
<ele>10.0</ele>
<time>2018-05-27T07:44:20Z</time>
<speed>23.1</speed>
</trkpt>
<trkpt lat="54.927385" lon="11.946633">
<ele>9.3</ele>
<time>2018-05-27T07:44:21Z</time>
<speed>23.1</speed>
</trkpt>
<trkpt lat="54.927520" lon="11.946898">
<ele>8.5</ele>
<time>2018-05-27T07:44:22Z</time>
<speed>22.5</speed>
</trkpt>
<trkpt lat="54.927657" lon="11.947148">
<ele>7.6</ele>
<time>2018-05-27T07:44:23Z</time>
<speed>22.5</speed>
</trkpt>
<trkpt lat="54.927804" lon="11.947417">
<ele>7.1</ele>
<time>2018-05-27T07:44:24Z</time>
<speed>22.5</speed>
</trkpt>
<trkpt lat="54.927934" lon="11.947663">
<ele>6.8</ele>
<time>2018-05-27T07:44:25Z</time>
<speed>22.5</speed>
</trkpt>
<trkpt lat="54.928069" lon="11.947929">
<ele>6.0</ele>
<time>2018-05-27T07:44:26Z</time>
<speed>22.5</speed>
</trkpt>
<trkpt lat="54.928209" lon="11.948194">
<ele>6.0</ele>
<time>2018-05-27T07:44:27Z</time>
<speed>22.5</speed>
</trkpt>
<trkpt lat="54.928345" lon="11.948444">
<ele>5.1</ele>
<time>2018-05-27T07:44:28Z</time>
<speed>22.8</speed>
</trkpt>
<trkpt lat="54.928484" lon="11.948725">
<ele>5.3</ele>
<time>2018-05-27T07:44:29Z</time>
<speed>22.8</speed>
</trkpt>
<trkpt lat="54.928624" lon="11.948990">
<ele>5.3</ele>
<time>2018-05-27T07:44:30Z</time>
<speed>23.1</speed>
</trkpt>
<trkpt lat="54.928758" lon="11.949271">
<ele>4.7</ele>
<time>2018-05-27T07:44:31Z</time>
<speed>23.1</speed>
</trkpt>
<trkpt lat="54.928893" lon="11.949536">
<ele>3.9</ele>
<time>2018-05-27T07:44:32Z</time>
<speed>23.3</speed>
</trkpt>
<trkpt lat="54.929032" lon="11.949816">
<ele>4.0</ele>
<time>2018-05-27T07:44:33Z</time>
<speed>23.3</speed>
</trkpt>
<trkpt lat="54.929165" lon="11.950097">
<ele>3.4</ele>
<time>2018-05-27T07:44:34Z</time>
<speed>23.6</speed>
</trkpt>
<trkpt lat="54.929302" lon="11.950393">
<ele>3.7</ele>
<time>2018-05-27T07:44:35Z</time>
<speed>23.6</speed>
</trkpt>
<trkpt lat="54.929436" lon="11.950674">
<ele>3.0</ele>
<time>2018-05-27T07:44:36Z</time>
<speed>23.6</speed>
</trkpt>
<trkpt lat="54.929575" lon="11.950954">
<ele>3.1</ele>
<time>2018-05-27T07:44:37Z</time>
<speed>23.6</speed>
</trkpt>
<trkpt lat="54.929707" lon="11.951250">
<ele>2.6</ele>
<time>2018-05-27T07:44:38Z</time>
<speed>23.9</speed>
</trkpt>
<trkpt lat="54.929839" lon="11.951546">
<ele>2.1</ele>
<time>2018-05-27T07:44:39Z</time>
<speed>23.6</speed>
</trkpt>
<trkpt lat="54.929977" lon="11.951826">
<ele>2.2</ele>
<time>2018-05-27T07:44:40Z</time>
<speed>23.6</speed>
</trkpt>
<trkpt lat="54.930102" lon="11.952119">
<ele>2.2</ele>
<time>2018-05-27T07:44:41Z</time>
<speed>23.6</speed>
</trkpt>
<trkpt lat="54.930236" lon="11.952400">
<ele>1.6</ele>
<time>2018-05-27T07:44:42Z</time>
<speed>23.1</speed>
</trkpt>
<trkpt lat="54.930373" lon="11.952696">
<ele>1.9</ele>
<time>2018-05-27T07:44:43Z</time>
<speed>23.3</speed>
</trkpt>
<trkpt lat="54.930499" lon="11.952973">
<ele>1.8</ele>
<time>2018-05-27T07:44:44Z</time>
<speed>23.1</speed>
</trkpt>
<trkpt lat="54.930626" lon="11.953250">
<ele>1.7</ele>
<time>2018-05-27T07:44:45Z</time>
<speed>23.1</speed>
</trkpt>
<trkpt lat="54.930763" lon="11.953546">
<ele>1.9</ele>
<time>2018-05-27T07:44:46Z</time>
<speed>23.1</speed>
</trkpt>
<trkpt lat="54.930889" lon="11.953824">
<ele>1.8</ele>
<time>2018-05-27T07:44:47Z</time>
<speed>22.8</speed>
</trkpt>
<trkpt lat="54.931021" lon="11.954101">
<ele>2.6</ele>
<time>2018-05-27T07:44:48Z</time>
<speed>22.2</speed>
</trkpt>
<trkpt lat="54.931148" lon="11.954363">
<ele>2.3</ele>
<time>2018-05-27T07:44:49Z</time>
<speed>21.9</speed>
</trkpt>
<trkpt lat="54.931276" lon="11.954625">
<ele>2.1</ele>
<time>2018-05-27T07:44:50Z</time>
<speed>21.7</speed>
</trkpt>
<trkpt lat="54.931403" lon="11.954903">
<ele>2.0</ele>
<time>2018-05-27T07:44:51Z</time>
<speed>21.7</speed>
</trkpt>
<trkpt lat="54.931518" lon="11.955162">
<ele>1.5</ele>
<time>2018-05-27T07:44:52Z</time>
<speed>21.4</speed>
</trkpt>
<trkpt lat="54.931646" lon="11.955424">
<ele>1.3</ele>
<time>2018-05-27T07:44:53Z</time>
<speed>21.1</speed>
</trkpt>
<trkpt lat="54.931768" lon="11.955667">
<ele>1.6</ele>
<time>2018-05-27T07:44:54Z</time>
<speed>21.1</speed>
</trkpt>
<trkpt lat="54.931884" lon="11.955926">
<ele>1.1</ele>
<time>2018-05-27T07:44:55Z</time>
<speed>21.1</speed>
</trkpt>
<trkpt lat="54.932012" lon="11.956188">
<ele>0.9</ele>
<time>2018-05-27T07:44:56Z</time>
<speed>21.1</speed>
</trkpt>
<trkpt lat="54.932132" lon="11.956447">
<ele>1.2</ele>
<time>2018-05-27T07:44:57Z</time>
<speed>21.4</speed>
</trkpt>
<trkpt lat="54.932253" lon="11.956706">
<ele>1.6</ele>
<time>2018-05-27T07:44:58Z</time>
<speed>21.4</speed>
</trkpt>
<trkpt lat="54.932381" lon="11.956968">
<ele>1.3</ele>
<time>2018-05-27T07:44:59Z</time>
<speed>21.4</speed>
</trkpt>
<trkpt lat="54.932501" lon="11.957227">
<ele>1.7</ele>
<time>2018-05-27T07:45:00Z</time>
<speed>21.4</speed>
</trkpt>
<trkpt lat="54.932629" lon="11.957489">
<ele>1.5</ele>
<time>2018-05-27T07:45:01Z</time>
<speed>21.4</speed>
</trkpt>
<trkpt lat="54.932759" lon="11.957736">
<ele>1.1</ele>
<time>2018-05-27T07:45:02Z</time>
<speed>21.7</speed>
</trkpt>
<trkpt lat="54.932881" lon="11.957998">
<ele>0.1</ele>
<time>2018-05-27T07:45:03Z</time>
<speed>21.9</speed>
</trkpt>
<trkpt lat="54.933022" lon="11.958264">
<ele>0.1</ele>
<time>2018-05-27T07:45:04Z</time>
<speed>22.2</speed>
</trkpt>
<trkpt lat="54.933157" lon="11.958529">
<ele>-0.6</ele>
<time>2018-05-27T07:45:05Z</time>
<speed>22.2</speed>
</trkpt>
<trkpt lat="54.933286" lon="11.958776">
<ele>-1.0</ele>
<time>2018-05-27T07:45:06Z</time>
<speed>22.2</speed>
</trkpt>
<trkpt lat="54.933421" lon="11.959041">
<ele>-1.8</ele>
<time>2018-05-27T07:45:07Z</time>
<speed>22.8</speed>
</trkpt>
<trkpt lat="54.933561" lon="11.959307">
<ele>-1.7</ele>
<time>2018-05-27T07:45:08Z</time>
<speed>22.8</speed>
</trkpt>
<trkpt lat="54.933701" lon="11.959572">
<ele>-1.7</ele>
<time>2018-05-27T07:45:09Z</time>
<speed>22.8</speed>
</trkpt>
<trkpt lat="54.933843" lon="11.959822">
<ele>-1.8</ele>
<time>2018-05-27T07:45:10Z</time>
<speed>22.8</speed>
</trkpt>
<trkpt lat="54.933983" lon="11.960088">
<ele>-1.7</ele>
<time>2018-05-27T07:45:11Z</time>
<speed>22.8</speed>
</trkpt>
<trkpt lat="54.934131" lon="11.960356">
<ele>-2.2</ele>
<time>2018-05-27T07:45:12Z</time>
<speed>23.1</speed>
</trkpt>
<trkpt lat="54.934272" lon="11.960607">
<ele>-2.3</ele>
<time>2018-05-27T07:45:13Z</time>
<speed>23.1</speed>
</trkpt>
<trkpt lat="54.934420" lon="11.960875">
<ele>-2.8</ele>
<time>2018-05-27T07:45:14Z</time>
<speed>23.1</speed>
</trkpt>
<trkpt lat="54.934567" lon="11.961125">
<ele>-2.1</ele>
<time>2018-05-27T07:45:15Z</time>
<speed>23.1</speed>
</trkpt>
<trkpt lat="54.934714" lon="11.961394">
<ele>-2.6</ele>
<time>2018-05-27T07:45:16Z</time>
<speed>23.1</speed>
</trkpt>
<trkpt lat="54.934861" lon="11.961644">
<ele>-1.9</ele>
<time>2018-05-27T07:45:17Z</time>
<speed>23.1</speed>
</trkpt>
<trkpt lat="54.935015" lon="11.961897">
<ele>-1.7</ele>
<time>2018-05-27T07:45:18Z</time>
<speed>23.3</speed>
</trkpt>
<trkpt lat="54.935157" lon="11.962148">
<ele>-1.8</ele>
<time>2018-05-27T07:45:19Z</time>
<speed>23.3</speed>
</trkpt>
<trkpt lat="54.935311" lon="11.962401">
<ele>-1.6</ele>
<time>2018-05-27T07:45:20Z</time>
<speed>23.3</speed>
</trkpt>
<trkpt lat="54.935465" lon="11.962654">
<ele>-1.4</ele>
<time>2018-05-27T07:45:21Z</time>
<speed>23.3</speed>
</trkpt>
<trkpt lat="54.935621" lon="11.962893">
<ele>-1.4</ele>
<time>2018-05-27T07:45:22Z</time>
<speed>23.1</speed>
</trkpt>
<trkpt lat="54.935762" lon="11.963143">
<ele>-1.4</ele>
<time>2018-05-27T07:45:23Z</time>
<speed>22.8</speed>
</trkpt>
<trkpt lat="54.935911" lon="11.963378">
<ele>-0.8</ele>
<time>2018-05-27T07:45:24Z</time>
<speed>22.2</speed>
</trkpt>
<trkpt lat="54.936061" lon="11.963616">
<ele>-1.6</ele>
<time>2018-05-27T07:45:25Z</time>
<speed>22.2</speed>
</trkpt>
<trkpt lat="54.936210" lon="11.963851">
<ele>-1.0</ele>
<time>2018-05-27T07:45:26Z</time>
<speed>22.2</speed>
</trkpt>
<trkpt lat="54.936353" lon="11.964086">
<ele>-1.2</ele>
<time>2018-05-27T07:45:27Z</time>
<speed>22.2</speed>
</trkpt>
<trkpt lat="54.936501" lon="11.964320">
<ele>-0.5</ele>
<time>2018-05-27T07:45:28Z</time>
<speed>22.2</speed>
</trkpt>
<trkpt lat="54.936650" lon="11.964555">
<ele>0.1</ele>
<time>2018-05-27T07:45:29Z</time>
<speed>22.2</speed>
</trkpt>
<trkpt lat="54.936800" lon="11.964775">
<ele>0.6</ele>
<time>2018-05-27T07:45:30Z</time>
<speed>22.2</speed>
</trkpt>
<trkpt lat="54.936948" lon="11.965010">
<ele>1.2</ele>
<time>2018-05-27T07:45:31Z</time>
<speed>22.2</speed>
</trkpt>
<trkpt lat="54.937098" lon="11.965248">
<ele>0.5</ele>
<time>2018-05-27T07:45:32Z</time>
<speed>22.5</speed>
</trkpt>
<trkpt lat="54.937252" lon="11.965483">
<ele>1.9</ele>
<time>2018-05-27T07:45:33Z</time>
<speed>22.5</speed>
</trkpt>
<trkpt lat="54.937408" lon="11.965721">
<ele>2.0</ele>
<time>2018-05-27T07:45:34Z</time>
<speed>22.5</speed>
</trkpt>
<trkpt lat="54.937565" lon="11.965944">
<ele>1.9</ele>
<time>2018-05-27T07:45:35Z</time>
<speed>22.5</speed>
</trkpt>
<trkpt lat="54.937713" lon="11.966179">
<ele>2.5</ele>
<time>2018-05-27T07:45:36Z</time>
<speed>22.5</speed>
</trkpt>
<trkpt lat="54.937874" lon="11.966417">
<ele>3.4</ele>
<time>2018-05-27T07:45:37Z</time>
<speed>22.5</speed>
</trkpt>
<trkpt lat="54.938029" lon="11.966655">
<ele>3.5</ele>
<time>2018-05-27T07:45:38Z</time>
<speed>22.5</speed>
</trkpt>
<trkpt lat="54.938179" lon="11.966875">
<ele>4.0</ele>
<time>2018-05-27T07:45:39Z</time>
<speed>22.5</speed>
</trkpt>
<trkpt lat="54.938333" lon="11.967110">
<ele>5.4</ele>
<time>2018-05-27T07:45:40Z</time>
<speed>22.5</speed>
</trkpt>
<trkpt lat="54.938488" lon="11.967348">
<ele>5.5</ele>
<time>2018-05-27T07:45:41Z</time>
<speed>22.5</speed>
</trkpt>
<trkpt lat="54.938642" lon="11.967583">
<ele>6.9</ele>
<time>2018-05-27T07:45:42Z</time>
<speed>22.5</speed>
</trkpt>
<trkpt lat="54.938803" lon="11.967821">
<ele>7.8</ele>
<time>2018-05-27T07:45:43Z</time>
<speed>22.5</speed>
</trkpt>
<trkpt lat="54.938953" lon="11.968041">
<ele>8.3</ele>
<time>2018-05-27T07:45:44Z</time>
<speed>22.2</speed>
</trkpt>
<trkpt lat="54.939106" lon="11.968276">
<ele>9.7</ele>
<time>2018-05-27T07:45:45Z</time>
<speed>22.2</speed>
</trkpt>
<trkpt lat="54.939256" lon="11.968495">
<ele>10.2</ele>
<time>2018-05-27T07:45:46Z</time>
<speed>22.2</speed>
</trkpt>
<trkpt lat="54.939405" lon="11.968730">
<ele>10.9</ele>
<time>2018-05-27T07:45:47Z</time>
<speed>21.9</speed>
</trkpt>
<trkpt lat="54.939554" lon="11.968950">
<ele>11.4</ele>
<time>2018-05-27T07:45:48Z</time>
<speed>21.7</speed>
</trkpt>
<trkpt lat="54.939703" lon="11.969185">
<ele>12.0</ele>
<time>2018-05-27T07:45:49Z</time>
<speed>21.7</speed>
</trkpt>
<trkpt lat="54.939853" lon="11.969404">
<ele>12.5</ele>
<time>2018-05-27T07:45:50Z</time>
<speed>21.7</speed>
</trkpt>
<trkpt lat="54.940003" lon="11.969624">
<ele>13.0</ele>
<time>2018-05-27T07:45:51Z</time>
<speed>21.7</speed>
</trkpt>
<trkpt lat="54.940145" lon="11.969841">
<ele>14.1</ele>
<time>2018-05-27T07:45:52Z</time>
<speed>21.4</speed>
</trkpt>
<trkpt lat="54.940294" lon="11.970076">
<ele>14.7</ele>
<time>2018-05-27T07:45:53Z</time>
<speed>21.4</speed>
</trkpt>
<trkpt lat="54.940444" lon="11.970295">
<ele>15.2</ele>
<time>2018-05-27T07:45:54Z</time>
<speed>21.4</speed>
</trkpt>
<trkpt lat="54.940586" lon="11.970512">
<ele>16.3</ele>
<time>2018-05-27T07:45:55Z</time>
<speed>21.4</speed>
</trkpt>
<trkpt lat="54.940731" lon="11.970731">
<ele>16.0</ele>
<time>2018-05-27T07:45:56Z</time>
<speed>21.4</speed>
</trkpt>
<trkpt lat="54.940874" lon="11.970948">
<ele>17.0</ele>
<time>2018-05-27T07:45:57Z</time>
<speed>21.1</speed>
</trkpt>
<trkpt lat="54.941024" lon="11.971168">
<ele>17.5</ele>
<time>2018-05-27T07:45:58Z</time>
<speed>21.1</speed>
</trkpt>
<trkpt lat="54.941167" lon="11.971384">
<ele>18.6</ele>
<time>2018-05-27T07:45:59Z</time>
<speed>21.1</speed>
</trkpt>
<trkpt lat="54.941311" lon="11.971604">
<ele>18.3</ele>
<time>2018-05-27T07:46:00Z</time>
<speed>21.1</speed>
</trkpt>
<trkpt lat="54.941454" lon="11.971820">
<ele>19.4</ele>
<time>2018-05-27T07:46:01Z</time>
<speed>21.1</speed>
</trkpt>
<trkpt lat="54.941595" lon="11.972052">
<ele>20.5</ele>
<time>2018-05-27T07:46:02Z</time>
<speed>21.1</speed>
</trkpt>
<trkpt lat="54.941740" lon="11.972272">
<ele>20.2</ele>
<time>2018-05-27T07:46:03Z</time>
<speed>21.1</speed>
</trkpt>
<trkpt lat="54.941877" lon="11.972488">
<ele>20.5</ele>
<time>2018-05-27T07:46:04Z</time>
<speed>21.1</speed>
</trkpt>
<trkpt lat="54.942029" lon="11.972692">
<ele>20.9</ele>
<time>2018-05-27T07:46:05Z</time>
<speed>21.1</speed>
</trkpt>
<trkpt lat="54.942166" lon="11.972909">
<ele>21.1</ele>
<time>2018-05-27T07:46:06Z</time>
<speed>21.1</speed>
</trkpt>
<trkpt lat="54.942316" lon="11.973129">
<ele>21.6</ele>
<time>2018-05-27T07:46:07Z</time>
<speed>21.1</speed>
</trkpt>
<trkpt lat="54.942454" lon="11.973345">
<ele>21.9</ele>
<time>2018-05-27T07:46:08Z</time>
<speed>21.1</speed>
</trkpt>
<trkpt lat="54.942597" lon="11.973562">
<ele>22.9</ele>
<time>2018-05-27T07:46:09Z</time>
<speed>21.1</speed>
</trkpt>
<trkpt lat="54.942740" lon="11.973797">
<ele>22.7</ele>
<time>2018-05-27T07:46:10Z</time>
<speed>21.1</speed>
</trkpt>
<trkpt lat="54.942877" lon="11.974013">
<ele>23.0</ele>
<time>2018-05-27T07:46:11Z</time>
<speed>21.1</speed>
</trkpt>
<trkpt lat="54.943027" lon="11.974233">
<ele>23.5</ele>
<time>2018-05-27T07:46:12Z</time>
<speed>21.4</speed>
</trkpt>
<trkpt lat="54.943172" lon="11.974452">
<ele>23.2</ele>
<time>2018-05-27T07:46:13Z</time>
<speed>21.4</speed>
</trkpt>
<trkpt lat="54.943324" lon="11.974675">
<ele>22.3</ele>
<time>2018-05-27T07:46:14Z</time>
<speed>21.4</speed>
</trkpt>
<trkpt lat="54.943469" lon="11.974895">
<ele>22.0</ele>
<time>2018-05-27T07:46:15Z</time>
<speed>21.7</speed>
</trkpt>
<trkpt lat="54.943614" lon="11.975115">
<ele>21.7</ele>
<time>2018-05-27T07:46:16Z</time>
<speed>21.7</speed>
</trkpt>
<trkpt lat="54.943764" lon="11.975353">
<ele>20.9</ele>
<time>2018-05-27T07:46:17Z</time>
<speed>22.2</speed>
</trkpt>
<trkpt lat="54.943916" lon="11.975576">
<ele>20.1</ele>
<time>2018-05-27T07:46:18Z</time>
<speed>22.2</speed>
</trkpt>
<trkpt lat="54.944064" lon="11.975811">
<ele>20.7</ele>
<time>2018-05-27T07:46:19Z</time>
<speed>22.5</speed>
</trkpt>
<trkpt lat="54.944215" lon="11.976049">
<ele>19.9</ele>
<time>2018-05-27T07:46:20Z</time>
<speed>22.8</speed>
</trkpt>
<trkpt lat="54.944372" lon="11.976272">
<ele>19.9</ele>
<time>2018-05-27T07:46:21Z</time>
<speed>22.8</speed>
</trkpt>
<trkpt lat="54.944527" lon="11.976510">
<ele>19.9</ele>
<time>2018-05-27T07:46:22Z</time>
<speed>22.8</speed>
</trkpt>
<trkpt lat="54.944683" lon="11.976749">
<ele>20.0</ele>
<time>2018-05-27T07:46:23Z</time>
<speed>23.1</speed>
</trkpt>
<trkpt lat="54.944838" lon="11.976987">
<ele>20.1</ele>
<time>2018-05-27T07:46:24Z</time>
<speed>23.1</speed>
</trkpt>
<trkpt lat="54.945001" lon="11.977228">
<ele>19.6</ele>
<time>2018-05-27T07:46:25Z</time>
<speed>23.1</speed>
</trkpt>
<trkpt lat="54.945157" lon="11.977467">
<ele>19.6</ele>
<time>2018-05-27T07:46:26Z</time>
<speed>23.1</speed>
</trkpt>
<trkpt lat="54.945306" lon="11.977720">
<ele>19.0</ele>
<time>2018-05-27T07:46:27Z</time>
<speed>23.1</speed>
</trkpt>
<trkpt lat="54.945470" lon="11.977946">
<ele>18.4</ele>
<time>2018-05-27T07:46:28Z</time>
<speed>22.8</speed>
</trkpt>
<trkpt lat="54.945620" lon="11.978185">
<ele>17.6</ele>
<time>2018-05-27T07:46:29Z</time>
<speed>22.8</speed>
</trkpt>
<trkpt lat="54.945771" lon="11.978423">
<ele>16.9</ele>
<time>2018-05-27T07:46:30Z</time>
<speed>22.8</speed>
</trkpt>
<trkpt lat="54.945926" lon="11.978661">
<ele>16.9</ele>
<time>2018-05-27T07:46:31Z</time>
<speed>22.8</speed>
</trkpt>
<trkpt lat="54.946077" lon="11.978899">
<ele>16.2</ele>
<time>2018-05-27T07:46:32Z</time>
<speed>22.5</speed>
</trkpt>
<trkpt lat="54.946234" lon="11.979122">
<ele>16.1</ele>
<time>2018-05-27T07:46:33Z</time>
<speed>22.5</speed>
</trkpt>
<trkpt lat="54.946384" lon="11.979360">
<ele>15.4</ele>
<time>2018-05-27T07:46:34Z</time>
<speed>22.8</speed>
</trkpt>
<trkpt lat="54.946535" lon="11.979599">
<ele>14.6</ele>
<time>2018-05-27T07:46:35Z</time>
<speed>22.8</speed>
</trkpt>
<trkpt lat="54.946690" lon="11.979837">
<ele>14.7</ele>
<time>2018-05-27T07:46:36Z</time>
<speed>22.8</speed>
</trkpt>
<trkpt lat="54.946848" lon="11.980079">
<ele>13.4</ele>
<time>2018-05-27T07:46:37Z</time>
<speed>23.1</speed>
</trkpt>
<trkpt lat="54.947003" lon="11.980317">
<ele>13.4</ele>
<time>2018-05-27T07:46:38Z</time>
<speed>23.1</speed>
</trkpt>
<trkpt lat="54.947161" lon="11.980558">
<ele>12.1</ele>
<time>2018-05-27T07:46:39Z</time>
<speed>23.3</speed>
</trkpt>
<trkpt lat="54.947317" lon="11.980797">
<ele>12.2</ele>
<time>2018-05-27T07:46:40Z</time>
<speed>23.3</speed>
</trkpt>
<trkpt lat="54.947479" lon="11.981038">
<ele>11.7</ele>
<time>2018-05-27T07:46:41Z</time>
<speed>23.3</speed>
</trkpt>
<trkpt lat="54.947642" lon="11.981280">
<ele>11.2</ele>
<time>2018-05-27T07:46:42Z</time>
<speed>23.3</speed>
</trkpt>
<trkpt lat="54.947798" lon="11.981518">
<ele>11.3</ele>
<time>2018-05-27T07:46:43Z</time>
<speed>23.6</speed>
</trkpt>
<trkpt lat="54.947955" lon="11.981759">
<ele>10.0</ele>
<time>2018-05-27T07:46:44Z</time>
<speed>23.6</speed>
</trkpt>
<trkpt lat="54.948118" lon="11.982001">
<ele>9.5</ele>
<time>2018-05-27T07:46:45Z</time>
<speed>23.9</speed>
</trkpt>
<trkpt lat="54.948286" lon="11.982261">
<ele>8.5</ele>
<time>2018-05-27T07:46:46Z</time>
<speed>23.9</speed>
</trkpt>
<trkpt lat="54.948449" lon="11.982502">
<ele>8.0</ele>
<time>2018-05-27T07:46:47Z</time>
<speed>23.9</speed>
</trkpt>
<trkpt lat="54.948612" lon="11.982744">
<ele>7.5</ele>
<time>2018-05-27T07:46:48Z</time>
<speed>24.2</speed>
</trkpt>
<trkpt lat="54.948778" lon="11.983001">
<ele>8.0</ele>
<time>2018-05-27T07:46:49Z</time>
<speed>24.2</speed>
</trkpt>
<trkpt lat="54.948948" lon="11.983245">
<ele>6.9</ele>
<time>2018-05-27T07:46:50Z</time>
<speed>24.2</speed>
</trkpt>
<trkpt lat="54.949109" lon="11.983502">
<ele>6.5</ele>
<time>2018-05-27T07:46:51Z</time>
<speed>24.2</speed>
</trkpt>
<trkpt lat="54.949272" lon="11.983744">
<ele>6.1</ele>
<time>2018-05-27T07:46:52Z</time>
<speed>24.4</speed>
</trkpt>
<trkpt lat="54.949441" lon="11.984004">
<ele>5.1</ele>
<time>2018-05-27T07:46:53Z</time>
<speed>24.4</speed>
</trkpt>
<trkpt lat="54.949611" lon="11.984249">
<ele>4.1</ele>
<time>2018-05-27T07:46:54Z</time>
<speed>24.4</speed>
</trkpt>
<trkpt lat="54.949777" lon="11.984505">
<ele>4.5</ele>
<time>2018-05-27T07:46:55Z</time>
<speed>24.7</speed>
</trkpt>
<trkpt lat="54.949947" lon="11.984750">
<ele>3.4</ele>
<time>2018-05-27T07:46:56Z</time>
<speed>24.7</speed>
</trkpt>
<trkpt lat="54.950120" lon="11.985010">
<ele>3.3</ele>
<time>2018-05-27T07:46:57Z</time>
<speed>25.6</speed>
</trkpt>
<trkpt lat="54.950292" lon="11.985286">
<ele>3.3</ele>
<time>2018-05-27T07:46:58Z</time>
<speed>25.8</speed>
</trkpt>
<trkpt lat="54.950473" lon="11.985549">
<ele>2.6</ele>
<time>2018-05-27T07:46:59Z</time>
<speed>26.1</speed>
</trkpt>
<trkpt lat="54.950654" lon="11.985812">
<ele>2.0</ele>
<time>2018-05-27T07:47:00Z</time>
<speed>26.1</speed>
</trkpt>
<trkpt lat="54.950826" lon="11.986087">
<ele>2.0</ele>
<time>2018-05-27T07:47:01Z</time>
<speed>26.1</speed>
</trkpt>
<trkpt lat="54.951007" lon="11.986351">
<ele>1.3</ele>
<time>2018-05-27T07:47:02Z</time>
<speed>25.8</speed>
</trkpt>
<trkpt lat="54.951180" lon="11.986611">
<ele>1.2</ele>
<time>2018-05-27T07:47:03Z</time>
<speed>25.6</speed>
</trkpt>
<trkpt lat="54.951350" lon="11.986856">
<ele>0.1</ele>
<time>2018-05-27T07:47:04Z</time>
<speed>24.7</speed>
</trkpt>
<trkpt lat="54.951525" lon="11.987100">
<ele>-0.1</ele>
<time>2018-05-27T07:47:05Z</time>
<speed>24.4</speed>
</trkpt>
<trkpt lat="54.951695" lon="11.987345">
<ele>-1.2</ele>
<time>2018-05-27T07:47:06Z</time>
<speed>24.4</speed>
</trkpt>
<trkpt lat="54.951863" lon="11.987587">
<ele>-0.9</ele>
<time>2018-05-27T07:47:07Z</time>
<speed>23.9</speed>
</trkpt>
<trkpt lat="54.952028" lon="11.987813">
<ele>-1.5</ele>
<time>2018-05-27T07:47:08Z</time>
<speed>23.9</speed>
</trkpt>
<trkpt lat="54.952197" lon="11.988039">
<ele>-1.3</ele>
<time>2018-05-27T07:47:09Z</time>
<speed>23.6</speed>
</trkpt>
<trkpt lat="54.952366" lon="11.988266">
<ele>-1.1</ele>
<time>2018-05-27T07:47:10Z</time>
<speed>23.3</speed>
</trkpt>
<trkpt lat="54.952531" lon="11.988492">
<ele>-1.7</ele>
<time>2018-05-27T07:47:11Z</time>
<speed>23.3</speed>
</trkpt>
<trkpt lat="54.952702" lon="11.988703">
<ele>-1.6</ele>
<time>2018-05-27T07:47:12Z</time>
<speed>23.1</speed>
</trkpt>
<trkpt lat="54.952867" lon="11.988914">
<ele>-2.3</ele>
<time>2018-05-27T07:47:13Z</time>
<speed>23.1</speed>
</trkpt>
<trkpt lat="54.953038" lon="11.989125">
<ele>-2.2</ele>
<time>2018-05-27T07:47:14Z</time>
<speed>22.8</speed>
</trkpt>
<trkpt lat="54.953204" lon="11.989336">
<ele>-3.0</ele>
<time>2018-05-27T07:47:15Z</time>
<speed>22.5</speed>
</trkpt>
<trkpt lat="54.953363" lon="11.989544">
<ele>-3.1</ele>
<time>2018-05-27T07:47:16Z</time>
<speed>22.5</speed>
</trkpt>
<trkpt lat="54.953535" lon="11.989740">
<ele>-3.2</ele>
<time>2018-05-27T07:47:17Z</time>
<speed>22.5</speed>
</trkpt>
<trkpt lat="54.953694" lon="11.989947">
<ele>-3.3</ele>
<time>2018-05-27T07:47:18Z</time>
<speed>22.5</speed>
</trkpt>
<trkpt lat="54.953866" lon="11.990143">
<ele>-3.4</ele>
<time>2018-05-27T07:47:19Z</time>
<speed>22.5</speed>
</trkpt>
<trkpt lat="54.954039" lon="11.990339">
<ele>-3.4</ele>
<time>2018-05-27T07:47:20Z</time>
<speed>22.8</speed>
</trkpt>
<trkpt lat="54.954210" lon="11.990550">
<ele>-3.3</ele>
<time>2018-05-27T07:47:21Z</time>
<speed>22.8</speed>
</trkpt>
<trkpt lat="54.954382" lon="11.990746">
<ele>-3.3</ele>
<time>2018-05-27T07:47:22Z</time>
<speed>23.1</speed>
</trkpt>
<trkpt lat="54.954556" lon="11.990926">
<ele>-3.5</ele>
<time>2018-05-27T07:47:23Z</time>
<speed>23.3</speed>
</trkpt>
<trkpt lat="54.954741" lon="11.991125">
<ele>-3.3</ele>
<time>2018-05-27T07:47:24Z</time>
<speed>23.3</speed>
</trkpt>
<trkpt lat="54.954914" lon="11.991321">
<ele>-3.3</ele>
<time>2018-05-27T07:47:25Z</time>
<speed>23.6</speed>
</trkpt>
<trkpt lat="54.955098" lon="11.991520">
<ele>-3.1</ele>
<time>2018-05-27T07:47:26Z</time>
<speed>23.6</speed>
</trkpt>
<trkpt lat="54.955283" lon="11.991719">
<ele>-2.8</ele>
<time>2018-05-27T07:47:27Z</time>
<speed>23.9</speed>
</trkpt>
<trkpt lat="54.955472" lon="11.991906">
<ele>-4.1</ele>
<time>2018-05-27T07:47:28Z</time>
<speed>24.2</speed>
</trkpt>
<trkpt lat="54.955656" lon="11.992105">
<ele>-3.9</ele>
<time>2018-05-27T07:47:29Z</time>
<speed>24.2</speed>
</trkpt>
<trkpt lat="54.955848" lon="11.992289">
<ele>-3.0</ele>
<time>2018-05-27T07:47:30Z</time>
<speed>24.2</speed>
</trkpt>
<trkpt lat="54.956040" lon="11.992491">
<ele>-3.3</ele>
<time>2018-05-27T07:47:31Z</time>
<speed>24.2</speed>
</trkpt>
<trkpt lat="54.956226" lon="11.992675">
<ele>-3.2</ele>
<time>2018-05-27T07:47:32Z</time>
<speed>23.9</speed>
</trkpt>
<trkpt lat="54.956413" lon="11.992859">
<ele>-3.1</ele>
<time>2018-05-27T07:47:33Z</time>
<speed>23.6</speed>
</trkpt>
<trkpt lat="54.956599" lon="11.993043">
<ele>-3.0</ele>
<time>2018-05-27T07:47:34Z</time>
<speed>23.1</speed>
</trkpt>
<trkpt lat="54.956775" lon="11.993208">
<ele>-3.2</ele>
<time>2018-05-27T07:47:35Z</time>
<speed>22.8</speed>
</trkpt>
<trkpt lat="54.956954" lon="11.993388">
<ele>-2.6</ele>
<time>2018-05-27T07:47:36Z</time>
<speed>22.8</speed>
</trkpt>
<trkpt lat="54.957134" lon="11.993554">
<ele>-2.0</ele>
<time>2018-05-27T07:47:37Z</time>
<speed>22.8</speed>
</trkpt>
<trkpt lat="54.957319" lon="11.993734">
<ele>-0.5</ele>
<time>2018-05-27T07:47:38Z</time>
<speed>22.8</speed>
</trkpt>
<trkpt lat="54.957499" lon="11.993900">
<ele>0.0</ele>
<time>2018-05-27T07:47:39Z</time>
<speed>22.8</speed>
</trkpt>
<trkpt lat="54.957680" lon="11.994065">
<ele>0.6</ele>
<time>2018-05-27T07:47:40Z</time>
<speed>22.5</speed>
</trkpt>
<trkpt lat="54.957859" lon="11.994245">
<ele>1.2</ele>
<time>2018-05-27T07:47:41Z</time>
<speed>22.5</speed>
</trkpt>
<trkpt lat="54.958040" lon="11.994411">
<ele>1.8</ele>
<time>2018-05-27T07:47:42Z</time>
<speed>22.2</speed>
</trkpt>
<trkpt lat="54.958210" lon="11.994557">
<ele>2.0</ele>
<time>2018-05-27T07:47:43Z</time>
<speed>21.9</speed>
</trkpt>
<trkpt lat="54.958390" lon="11.994723">
<ele>2.5</ele>
<time>2018-05-27T07:47:44Z</time>
<speed>21.4</speed>
</trkpt>
<trkpt lat="54.958560" lon="11.994869">
<ele>2.7</ele>
<time>2018-05-27T07:47:45Z</time>
<speed>21.4</speed>
</trkpt>
<trkpt lat="54.958743" lon="11.995019">
<ele>3.1</ele>
<time>2018-05-27T07:47:46Z</time>
<speed>21.4</speed>
</trkpt>
<trkpt lat="54.958911" lon="11.995181">
<ele>3.4</ele>
<time>2018-05-27T07:47:47Z</time>
<speed>21.4</speed>
</trkpt>
<trkpt lat="54.959086" lon="11.995328">
<ele>4.4</ele>
<time>2018-05-27T07:47:48Z</time>
<speed>21.4</speed>
</trkpt>
<trkpt lat="54.959261" lon="11.995475">
<ele>5.4</ele>
<time>2018-05-27T07:47:49Z</time>
<speed>21.4</speed>
</trkpt>
<trkpt lat="54.959436" lon="11.995622">
<ele>6.4</ele>
<time>2018-05-27T07:47:50Z</time>
<speed>21.7</speed>
</trkpt>
<trkpt lat="54.959609" lon="11.995784">
<ele>7.5</ele>
<time>2018-05-27T07:47:51Z</time>
<speed>21.7</speed>
</trkpt>
<trkpt lat="54.959777" lon="11.995927">
<ele>9.1</ele>
<time>2018-05-27T07:47:52Z</time>
<speed>21.7</speed>
</trkpt>
<trkpt lat="54.959957" lon="11.996074">
<ele>10.9</ele>
<time>2018-05-27T07:47:53Z</time>
<speed>21.7</speed>
</trkpt>
<trkpt lat="54.960131" lon="11.996236">
<ele>12.0</ele>
<time>2018-05-27T07:47:54Z</time>
<speed>21.9</speed>
</trkpt>
<trkpt lat="54.960306" lon="11.996383">
<ele>13.0</ele>
<time>2018-05-27T07:47:55Z</time>
<speed>21.9</speed>
</trkpt>
<trkpt lat="54.960486" lon="11.996530">
<ele>14.8</ele>
<time>2018-05-27T07:47:56Z</time>
<speed>21.9</speed>
</trkpt>
<trkpt lat="54.960666" lon="11.996677">
<ele>16.6</ele>
<time>2018-05-27T07:47:57Z</time>
<speed>22.2</speed>
</trkpt>
<trkpt lat="54.960841" lon="11.996823">
<ele>17.6</ele>
<time>2018-05-27T07:47:58Z</time>
<speed>21.9</speed>
</trkpt>
<trkpt lat="54.961029" lon="11.996973">
<ele>18.9</ele>
<time>2018-05-27T07:47:59Z</time>
<speed>22.2</speed>
</trkpt>
<trkpt lat="54.961211" lon="11.997123">
<ele>19.3</ele>
<time>2018-05-27T07:48:00Z</time>
<speed>22.2</speed>
</trkpt>
<trkpt lat="54.961386" lon="11.997270">
<ele>20.3</ele>
<time>2018-05-27T07:48:01Z</time>
<speed>22.2</speed>
</trkpt>
<trkpt lat="54.961573" lon="11.997420">
<ele>21.5</ele>
<time>2018-05-27T07:48:02Z</time>
<speed>22.2</speed>
</trkpt>
<trkpt lat="54.961757" lon="11.997555">
<ele>21.8</ele>
<time>2018-05-27T07:48:03Z</time>
<speed>22.2</speed>
</trkpt>
<trkpt lat="54.961939" lon="11.997705">
<ele>22.3</ele>
<time>2018-05-27T07:48:04Z</time>
<speed>21.9</speed>
</trkpt>
<trkpt lat="54.962123" lon="11.997840">
<ele>22.6</ele>
<time>2018-05-27T07:48:05Z</time>
<speed>22.2</speed>
</trkpt>
<trkpt lat="54.962305" lon="11.997990">
<ele>23.0</ele>
<time>2018-05-27T07:48:06Z</time>
<speed>22.2</speed>
</trkpt>
<trkpt lat="54.962494" lon="11.998125">
<ele>24.2</ele>
<time>2018-05-27T07:48:07Z</time>
<speed>22.2</speed>
</trkpt>
<trkpt lat="54.962685" lon="11.998263">
<ele>23.9</ele>
<time>2018-05-27T07:48:08Z</time>
<speed>22.2</speed>
</trkpt>
<trkpt lat="54.962867" lon="11.998413">
<ele>24.3</ele>
<time>2018-05-27T07:48:09Z</time>
<speed>22.2</speed>
</trkpt>
<trkpt lat="54.963051" lon="11.998547">
<ele>24.7</ele>
<time>2018-05-27T07:48:10Z</time>
<speed>22.2</speed>
</trkpt>
<trkpt lat="54.963235" lon="11.998682">
<ele>25.0</ele>
<time>2018-05-27T07:48:11Z</time>
<speed>22.2</speed>
</trkpt>
<trkpt lat="54.963418" lon="11.998817">
<ele>25.3</ele>
<time>2018-05-27T07:48:12Z</time>
<speed>22.2</speed>
</trkpt>
<trkpt lat="54.963614" lon="11.998955">
<ele>25.9</ele>
<time>2018-05-27T07:48:13Z</time>
<speed>22.2</speed>
</trkpt>
<trkpt lat="54.963798" lon="11.999090">
<ele>26.2</ele>
<time>2018-05-27T07:48:14Z</time>
<speed>22.2</speed>
</trkpt>
<trkpt lat="54.963983" lon="11.999209">
<ele>26.4</ele>
<time>2018-05-27T07:48:15Z</time>
<speed>22.5</speed>
</trkpt>
<trkpt lat="54.964180" lon="11.999347">
<ele>26.9</ele>
<time>2018-05-27T07:48:16Z</time>
<speed>22.5</speed>
</trkpt>
<trkpt lat="54.964363" lon="11.999482">
<ele>27.3</ele>
<time>2018-05-27T07:48:17Z</time>
<speed>22.5</speed>
</trkpt>
<trkpt lat="54.964549" lon="11.999602">
<ele>27.4</ele>
<time>2018-05-27T07:48:18Z</time>
<speed>22.5</speed>
</trkpt>
<trkpt lat="54.964745" lon="11.999740">
<ele>28.0</ele>
<time>2018-05-27T07:48:19Z</time>
<speed>22.5</speed>
</trkpt>
<trkpt lat="54.964937" lon="11.999862">
<ele>27.7</ele>
<time>2018-05-27T07:48:20Z</time>
<speed>22.5</speed>
</trkpt>
<trkpt lat="54.965121" lon="11.999997">
<ele>28.0</ele>
<time>2018-05-27T07:48:21Z</time>
<speed>22.5</speed>
</trkpt>
<trkpt lat="54.965318" lon="12.000120">
<ele>28.4</ele>
<time>2018-05-27T07:48:22Z</time>
<speed>22.5</speed>
</trkpt>
<trkpt lat="54.965511" lon="12.000243">
<ele>28.1</ele>
<time>2018-05-27T07:48:23Z</time>
<speed>22.8</speed>
</trkpt>
<trkpt lat="54.965696" lon="12.000362">
<ele>28.3</ele>
<time>2018-05-27T07:48:24Z</time>
<speed>22.5</speed>
</trkpt>
<trkpt lat="54.965892" lon="12.000500">
<ele>28.8</ele>
<time>2018-05-27T07:48:25Z</time>
<speed>22.8</speed>
</trkpt>
<trkpt lat="54.966085" lon="12.000623">
<ele>28.5</ele>
<time>2018-05-27T07:48:26Z</time>
<speed>22.8</speed>
</trkpt>
<trkpt lat="54.966282" lon="12.000746">
<ele>28.9</ele>
<time>2018-05-27T07:48:27Z</time>
<speed>23.1</speed>
</trkpt>
<trkpt lat="54.966475" lon="12.000869">
<ele>28.5</ele>
<time>2018-05-27T07:48:28Z</time>
<speed>23.1</speed>
</trkpt>
<trkpt lat="54.966672" lon="12.000991">
<ele>29.0</ele>
<time>2018-05-27T07:48:29Z</time>
<speed>23.1</speed>
</trkpt>
<trkpt lat="54.966866" lon="12.001099">
<ele>28.5</ele>
<time>2018-05-27T07:48:30Z</time>
<speed>22.8</speed>
</trkpt>
<trkpt lat="54.967064" lon="12.001222">
<ele>29.0</ele>
<time>2018-05-27T07:48:31Z</time>
<speed>22.8</speed>
</trkpt>
<trkpt lat="54.967257" lon="12.001344">
<ele>28.6</ele>
<time>2018-05-27T07:48:32Z</time>
<speed>22.8</speed>
</trkpt>
<trkpt lat="54.967456" lon="12.001452">
<ele>28.9</ele>
<time>2018-05-27T07:48:33Z</time>
<speed>22.8</speed>
</trkpt>
<trkpt lat="54.967648" lon="12.001575">
<ele>28.6</ele>
<time>2018-05-27T07:48:34Z</time>
<speed>22.8</speed>
</trkpt>
<trkpt lat="54.967847" lon="12.001682">
<ele>28.9</ele>
<time>2018-05-27T07:48:35Z</time>
<speed>22.8</speed>
</trkpt>
<trkpt lat="54.968045" lon="12.001805">
<ele>29.4</ele>
<time>2018-05-27T07:48:36Z</time>
<speed>22.8</speed>
</trkpt>
<trkpt lat="54.968244" lon="12.001912">
<ele>29.7</ele>
<time>2018-05-27T07:48:37Z</time>
<speed>23.1</speed>
</trkpt>
<trkpt lat="54.968448" lon="12.002020">
<ele>30.8</ele>
<time>2018-05-27T07:48:38Z</time>
<speed>23.1</speed>
</trkpt>
<trkpt lat="54.968646" lon="12.002143">
<ele>31.3</ele>
<time>2018-05-27T07:48:39Z</time>
<speed>23.1</speed>
</trkpt>
<trkpt lat="54.968847" lon="12.002235">
<ele>31.5</ele>
<time>2018-05-27T07:48:40Z</time>
<speed>22.5</speed>
</trkpt>
<trkpt lat="54.969041" lon="12.002343">
<ele>31.0</ele>
<time>2018-05-27T07:48:41Z</time>
<speed>22.5</speed>
</trkpt>
<trkpt lat="54.969233" lon="12.002447">
<ele>31.9</ele>
<time>2018-05-27T07:48:42Z</time>
<speed>22.2</speed>
</trkpt>
<trkpt lat="54.969427" lon="12.002554">
<ele>31.4</ele>
<time>2018-05-27T07:48:43Z</time>
<speed>22.2</speed>
</trkpt>
<trkpt lat="54.969626" lon="12.002662">
<ele>31.8</ele>
<time>2018-05-27T07:48:44Z</time>
<speed>22.5</speed>
</trkpt>
<trkpt lat="54.969814" lon="12.002751">
<ele>31.7</ele>
<time>2018-05-27T07:48:45Z</time>
<speed>22.5</speed>
</trkpt>
<trkpt lat="54.970013" lon="12.002858">
<ele>32.1</ele>
<time>2018-05-27T07:48:46Z</time>
<speed>22.5</speed>
</trkpt>
<trkpt lat="54.970209" lon="12.002951">
<ele>31.5</ele>
<time>2018-05-27T07:48:47Z</time>
<speed>22.8</speed>
</trkpt>
<trkpt lat="54.970408" lon="12.003058">
<ele>31.8</ele>
<time>2018-05-27T07:48:48Z</time>
<speed>22.5</speed>
</trkpt>
<trkpt lat="54.970603" lon="12.003150">
<ele>31.2</ele>
<time>2018-05-27T07:48:49Z</time>
<speed>22.5</speed>
</trkpt>
<trkpt lat="54.970804" lon="12.003243">
<ele>31.4</ele>
<time>2018-05-27T07:48:50Z</time>
<speed>22.5</speed>
</trkpt>
<trkpt lat="54.970999" lon="12.003335">
<ele>30.8</ele>
<time>2018-05-27T07:48:51Z</time>
<speed>22.5</speed>
</trkpt>
<trkpt lat="54.971200" lon="12.003427">
<ele>31.0</ele>
<time>2018-05-27T07:48:52Z</time>
<speed>22.5</speed>
</trkpt>
<trkpt lat="54.971388" lon="12.003516">
<ele>31.0</ele>
<time>2018-05-27T07:48:53Z</time>
<speed>22.5</speed>
</trkpt>
<trkpt lat="54.971589" lon="12.003608">
<ele>31.2</ele>
<time>2018-05-27T07:48:54Z</time>
<speed>22.8</speed>
</trkpt>
<trkpt lat="54.971797" lon="12.003704">
<ele>30.9</ele>
<time>2018-05-27T07:48:55Z</time>
<speed>22.8</speed>
</trkpt>
<trkpt lat="54.971994" lon="12.003781">
<ele>30.1</ele>
<time>2018-05-27T07:48:56Z</time>
<speed>22.8</speed>
</trkpt>
<trkpt lat="54.972195" lon="12.003873">
<ele>30.4</ele>
<time>2018-05-27T07:48:57Z</time>
<speed>23.1</speed>
</trkpt>
<trkpt lat="54.972404" lon="12.003953">
<ele>29.9</ele>
<time>2018-05-27T07:48:58Z</time>
<speed>23.3</speed>
</trkpt>
<trkpt lat="54.972606" lon="12.004030">
<ele>30.0</ele>
<time>2018-05-27T07:48:59Z</time>
<speed>23.3</speed>
</trkpt>
<trkpt lat="54.972816" lon="12.004111">
<ele>29.5</ele>
<time>2018-05-27T07:49:00Z</time>
<speed>23.6</speed>
</trkpt>
<trkpt lat="54.973025" lon="12.004191">
<ele>29.1</ele>
<time>2018-05-27T07:49:01Z</time>
<speed>23.6</speed>
</trkpt>
<trkpt lat="54.973241" lon="12.004256">
<ele>29.3</ele>
<time>2018-05-27T07:49:02Z</time>
<speed>23.6</speed>
</trkpt>
<trkpt lat="54.973451" lon="12.004336">
<ele>28.8</ele>
<time>2018-05-27T07:49:03Z</time>
<speed>23.9</speed>
</trkpt>
<trkpt lat="54.973662" lon="12.004401">
<ele>28.3</ele>
<time>2018-05-27T07:49:04Z</time>
<speed>23.9</speed>
</trkpt>
<trkpt lat="54.973872" lon="12.004466">
<ele>27.7</ele>
<time>2018-05-27T07:49:05Z</time>
<speed>24.2</speed>
</trkpt>
<trkpt lat="54.974083" lon="12.004531">
<ele>27.1</ele>
<time>2018-05-27T07:49:06Z</time>
<speed>24.2</speed>
</trkpt>
<trkpt lat="54.974296" lon="12.004580">
<ele>26.4</ele>
<time>2018-05-27T07:49:07Z</time>
<speed>23.9</speed>
</trkpt>
<trkpt lat="54.974512" lon="12.004645">
<ele>26.6</ele>
<time>2018-05-27T07:49:08Z</time>
<speed>23.9</speed>
</trkpt>
<trkpt lat="54.974724" lon="12.004695">
<ele>25.9</ele>
<time>2018-05-27T07:49:09Z</time>
<speed>23.9</speed>
</trkpt>
<trkpt lat="54.974937" lon="12.004745">
<ele>25.2</ele>
<time>2018-05-27T07:49:10Z</time>
<speed>23.9</speed>
</trkpt>
<trkpt lat="54.975151" lon="12.004779">
<ele>24.4</ele>
<time>2018-05-27T07:49:11Z</time>
<speed>23.9</speed>
</trkpt>
<trkpt lat="54.975363" lon="12.004829">
<ele>23.7</ele>
<time>2018-05-27T07:49:12Z</time>
<speed>23.9</speed>
</trkpt>
<trkpt lat="54.975582" lon="12.004863">
<ele>23.7</ele>
<time>2018-05-27T07:49:13Z</time>
<speed>23.9</speed>
</trkpt>
<trkpt lat="54.975796" lon="12.004898">
<ele>22.9</ele>
<time>2018-05-27T07:49:14Z</time>
<speed>23.9</speed>
</trkpt>
<trkpt lat="54.976016" lon="12.004932">
<ele>22.9</ele>
<time>2018-05-27T07:49:15Z</time>
<speed>23.9</speed>
</trkpt>
<trkpt lat="54.976230" lon="12.004967">
<ele>22.1</ele>
<time>2018-05-27T07:49:16Z</time>
<speed>23.9</speed>
</trkpt>
<trkpt lat="54.976445" lon="12.004986">
<ele>21.1</ele>
<time>2018-05-27T07:49:17Z</time>
<speed>23.9</speed>
</trkpt>
<trkpt lat="54.976666" lon="12.005005">
<ele>21.0</ele>
<time>2018-05-27T07:49:18Z</time>
<speed>24.2</speed>
</trkpt>
<trkpt lat="54.976874" lon="12.005021">
<ele>20.6</ele>
<time>2018-05-27T07:49:19Z</time>
<speed>23.9</speed>
</trkpt>
<trkpt lat="54.977095" lon="12.005040">
<ele>20.5</ele>
<time>2018-05-27T07:49:20Z</time>
<speed>23.9</speed>
</trkpt>
<trkpt lat="54.977303" lon="12.005056">
<ele>20.1</ele>
<time>2018-05-27T07:49:21Z</time>
<speed>23.9</speed>
</trkpt>
<trkpt lat="54.977525" lon="12.005060">
<ele>19.9</ele>
<time>2018-05-27T07:49:22Z</time>
<speed>23.9</speed>
</trkpt>
<trkpt lat="54.977734" lon="12.005076">
<ele>19.5</ele>
<time>2018-05-27T07:49:23Z</time>
<speed>23.9</speed>
</trkpt>
<trkpt lat="54.977949" lon="12.005076">
<ele>19.8</ele>
<time>2018-05-27T07:49:24Z</time>
<speed>23.9</speed>
</trkpt>
<trkpt lat="54.978164" lon="12.005077">
<ele>20.2</ele>
<time>2018-05-27T07:49:25Z</time>
<speed>23.9</speed>
</trkpt>
<trkpt lat="54.978379" lon="12.005077">
<ele>20.5</ele>
<time>2018-05-27T07:49:26Z</time>
<speed>23.9</speed>
</trkpt>
<trkpt lat="54.978590" lon="12.005063">
<ele>19.9</ele>
<time>2018-05-27T07:49:27Z</time>
<speed>23.9</speed>
</trkpt>
<trkpt lat="54.978798" lon="12.005060">
<ele>20.7</ele>
<time>2018-05-27T07:49:28Z</time>
<speed>23.9</speed>
</trkpt>
<trkpt lat="54.979014" lon="12.005045">
<ele>21.0</ele>
<time>2018-05-27T07:49:29Z</time>
<speed>24.2</speed>
</trkpt>
<trkpt lat="54.979238" lon="12.005034">
<ele>20.6</ele>
<time>2018-05-27T07:49:30Z</time>
<speed>24.4</speed>
</trkpt>
<trkpt lat="54.979456" lon="12.005004">
<ele>20.7</ele>
<time>2018-05-27T07:49:31Z</time>
<speed>24.4</speed>
</trkpt>
<trkpt lat="54.979681" lon="12.004977">
<ele>20.2</ele>
<time>2018-05-27T07:49:32Z</time>
<speed>24.4</speed>
</trkpt>
<trkpt lat="54.979899" lon="12.004947">
<ele>20.3</ele>
<time>2018-05-27T07:49:33Z</time>
<speed>24.4</speed>
</trkpt>
<trkpt lat="54.980116" lon="12.004933">
<ele>20.5</ele>
<time>2018-05-27T07:49:34Z</time>
<speed>24.7</speed>
</trkpt>
<trkpt lat="54.980346" lon="12.004906">
<ele>20.8</ele>
<time>2018-05-27T07:49:35Z</time>
<speed>24.7</speed>
</trkpt>
<trkpt lat="54.980566" lon="12.004861">
<ele>20.8</ele>
<time>2018-05-27T07:49:36Z</time>
<speed>24.7</speed>
</trkpt>
<trkpt lat="54.980791" lon="12.004816">
<ele>21.6</ele>
<time>2018-05-27T07:49:37Z</time>
<speed>24.7</speed>
</trkpt>
<trkpt lat="54.981014" lon="12.004786">
<ele>22.5</ele>
<time>2018-05-27T07:49:38Z</time>
<speed>24.7</speed>
</trkpt>
<trkpt lat="54.981239" lon="12.004741">
<ele>23.3</ele>
<time>2018-05-27T07:49:39Z</time>
<speed>24.7</speed>
</trkpt>
<trkpt lat="54.981456" lon="12.004692">
<ele>24.6</ele>
<time>2018-05-27T07:49:40Z</time>
<speed>24.7</speed>
</trkpt>
<trkpt lat="54.981683" lon="12.004650">
<ele>24.0</ele>
<time>2018-05-27T07:49:41Z</time>
<speed>24.7</speed>
</trkpt>
<trkpt lat="54.981902" lon="12.004586">
<ele>25.2</ele>
<time>2018-05-27T07:49:42Z</time>
<speed>24.7</speed>
</trkpt>
<trkpt lat="54.982123" lon="12.004526">
<ele>25.1</ele>
<time>2018-05-27T07:49:43Z</time>
<speed>25.0</speed>
</trkpt>
<trkpt lat="54.982344" lon="12.004465">
<ele>24.9</ele>
<time>2018-05-27T07:49:44Z</time>
<speed>25.0</speed>
</trkpt>
<trkpt lat="54.982567" lon="12.004390">
<ele>24.7</ele>
<time>2018-05-27T07:49:45Z</time>
<speed>24.7</speed>
</trkpt>
<trkpt lat="54.982781" lon="12.004326">
<ele>25.1</ele>
<time>2018-05-27T07:49:46Z</time>
<speed>24.7</speed>
</trkpt>
<trkpt lat="54.983004" lon="12.004250">
<ele>24.8</ele>
<time>2018-05-27T07:49:47Z</time>
<speed>24.7</speed>
</trkpt>
<trkpt lat="54.983219" lon="12.004171">
<ele>25.1</ele>
<time>2018-05-27T07:49:48Z</time>
<speed>24.7</speed>
</trkpt>
<trkpt lat="54.983435" lon="12.004092">
<ele>25.4</ele>
<time>2018-05-27T07:49:49Z</time>
<speed>24.7</speed>
</trkpt>
<trkpt lat="54.983657" lon="12.004016">
<ele>25.1</ele>
<time>2018-05-27T07:49:50Z</time>
<speed>24.7</speed>
</trkpt>
<trkpt lat="54.983873" lon="12.003937">
<ele>25.4</ele>
<time>2018-05-27T07:49:51Z</time>
<speed>24.7</speed>
</trkpt>
<trkpt lat="54.984093" lon="12.003858">
<ele>26.5</ele>
<time>2018-05-27T07:49:52Z</time>
<speed>24.7</speed>
</trkpt>
<trkpt lat="54.984317" lon="12.003767">
<ele>26.1</ele>
<time>2018-05-27T07:49:53Z</time>
<speed>25.0</speed>
</trkpt>
<trkpt lat="54.984534" lon="12.003673">
<ele>26.3</ele>
<time>2018-05-27T07:49:54Z</time>
<speed>25.0</speed>
</trkpt>
<trkpt lat="54.984750" lon="12.003594">
<ele>26.6</ele>
<time>2018-05-27T07:49:55Z</time>
<speed>25.0</speed>
</trkpt>
<trkpt lat="54.984974" lon="12.003484">
<ele>27.4</ele>
<time>2018-05-27T07:49:56Z</time>
<speed>25.0</speed>
</trkpt>
<trkpt lat="54.985191" lon="12.003390">
<ele>27.6</ele>
<time>2018-05-27T07:49:57Z</time>
<speed>25.0</speed>
</trkpt>
<trkpt lat="54.985414" lon="12.003280">
<ele>28.5</ele>
<time>2018-05-27T07:49:58Z</time>
<speed>25.0</speed>
</trkpt>
<trkpt lat="54.985626" lon="12.003167">
<ele>29.1</ele>
<time>2018-05-27T07:49:59Z</time>
<speed>25.0</speed>
</trkpt>
<trkpt lat="54.985848" lon="12.003073">
<ele>30.1</ele>
<time>2018-05-27T07:50:00Z</time>
<speed>24.7</speed>
</trkpt>
<trkpt lat="54.986059" lon="12.002960">
<ele>30.7</ele>
<time>2018-05-27T07:50:01Z</time>
<speed>24.7</speed>
</trkpt>
<trkpt lat="54.986272" lon="12.002832">
<ele>31.2</ele>
<time>2018-05-27T07:50:02Z</time>
<speed>24.7</speed>
</trkpt>
<trkpt lat="54.986483" lon="12.002719">
<ele>31.8</ele>
<time>2018-05-27T07:50:03Z</time>
<speed>24.7</speed>
</trkpt>
<trkpt lat="54.986696" lon="12.002591">
<ele>32.3</ele>
<time>2018-05-27T07:50:04Z</time>
<speed>24.7</speed>
</trkpt>
<trkpt lat="54.986909" lon="12.002463">
<ele>32.8</ele>
<time>2018-05-27T07:50:05Z</time>
<speed>24.7</speed>
</trkpt>
<trkpt lat="54.987122" lon="12.002335">
<ele>33.3</ele>
<time>2018-05-27T07:50:06Z</time>
<speed>24.7</speed>
</trkpt>
<trkpt lat="54.987335" lon="12.002207">
<ele>33.8</ele>
<time>2018-05-27T07:50:07Z</time>
<speed>24.7</speed>
</trkpt>
<trkpt lat="54.987547" lon="12.002079">
<ele>34.3</ele>
<time>2018-05-27T07:50:08Z</time>
<speed>24.7</speed>
</trkpt>
<trkpt lat="54.987760" lon="12.001950">
<ele>34.8</ele>
<time>2018-05-27T07:50:09Z</time>
<speed>24.7</speed>
</trkpt>
<trkpt lat="54.987966" lon="12.001819">
<ele>35.8</ele>
<time>2018-05-27T07:50:10Z</time>
<speed>24.7</speed>
</trkpt>
<trkpt lat="54.988173" lon="12.001672">
<ele>36.8</ele>
<time>2018-05-27T07:50:11Z</time>
<speed>24.7</speed>
</trkpt>
<trkpt lat="54.988380" lon="12.001526">
<ele>37.7</ele>
<time>2018-05-27T07:50:12Z</time>
<speed>24.4</speed>
</trkpt>
<trkpt lat="54.988581" lon="12.001394">
<ele>37.9</ele>
<time>2018-05-27T07:50:13Z</time>
<speed>23.6</speed>
</trkpt>
<trkpt lat="54.988783" lon="12.001248">
<ele>38.0</ele>
<time>2018-05-27T07:50:14Z</time>
<speed>23.1</speed>
</trkpt>
<trkpt lat="54.988962" lon="12.001125">
<ele>38.7</ele>
<time>2018-05-27T07:50:15Z</time>
<speed>22.5</speed>
</trkpt>
<trkpt lat="54.989156" lon="12.000990">
<ele>39.5</ele>
<time>2018-05-27T07:50:16Z</time>
<speed>22.5</speed>
</trkpt>
<trkpt lat="54.989344" lon="12.000856">
<ele>39.5</ele>
<time>2018-05-27T07:50:17Z</time>
<speed>22.2</speed>
</trkpt>
<trkpt lat="54.989530" lon="12.000736">
<ele>39.6</ele>
<time>2018-05-27T07:50:18Z</time>
<speed>21.9</speed>
</trkpt>
<trkpt lat="54.989711" lon="12.000598">
<ele>40.1</ele>
<time>2018-05-27T07:50:19Z</time>
<speed>21.9</speed>
</trkpt>
<trkpt lat="54.989891" lon="12.000476">
<ele>40.8</ele>
<time>2018-05-27T07:50:20Z</time>
<speed>21.7</speed>
</trkpt>
<trkpt lat="54.990079" lon="12.000341">
<ele>40.8</ele>
<time>2018-05-27T07:50:21Z</time>
<speed>21.7</speed>
</trkpt>
<trkpt lat="54.990258" lon="12.000219">
<ele>41.4</ele>
<time>2018-05-27T07:50:22Z</time>
<speed>21.4</speed>
</trkpt>
<trkpt lat="54.990438" lon="12.000096">
<ele>42.1</ele>
<time>2018-05-27T07:50:23Z</time>
<speed>21.4</speed>
</trkpt>
<trkpt lat="54.990612" lon="11.999973">
<ele>41.9</ele>
<time>2018-05-27T07:50:24Z</time>
<speed>21.4</speed>
</trkpt>
<trkpt lat="54.990791" lon="11.999851">
<ele>42.6</ele>
<time>2018-05-27T07:50:25Z</time>
<speed>21.4</speed>
</trkpt>
<trkpt lat="54.990972" lon="11.999713">
<ele>43.1</ele>
<time>2018-05-27T07:50:26Z</time>
<speed>21.4</speed>
</trkpt>
<trkpt lat="54.991152" lon="11.999590">
<ele>43.8</ele>
<time>2018-05-27T07:50:27Z</time>
<speed>21.7</speed>
</trkpt>
<trkpt lat="54.991340" lon="11.999456">
<ele>43.8</ele>
<time>2018-05-27T07:50:28Z</time>
<speed>21.7</speed>
</trkpt>
<trkpt lat="54.991519" lon="11.999333">
<ele>44.4</ele>
<time>2018-05-27T07:50:29Z</time>
<speed>21.7</speed>
</trkpt>
<trkpt lat="54.991707" lon="11.999198">
<ele>44.4</ele>
<time>2018-05-27T07:50:30Z</time>
<speed>21.7</speed>
</trkpt>
<trkpt lat="54.991887" lon="11.999076">
<ele>45.1</ele>
<time>2018-05-27T07:50:31Z</time>
<speed>21.7</speed>
</trkpt>
<trkpt lat="54.992068" lon="11.998938">
<ele>45.6</ele>
<time>2018-05-27T07:50:32Z</time>
<speed>21.9</speed>
</trkpt>
<trkpt lat="54.992254" lon="11.998818">
<ele>45.7</ele>
<time>2018-05-27T07:50:33Z</time>
<speed>21.9</speed>
</trkpt>
<trkpt lat="54.992443" lon="11.998684">
<ele>45.7</ele>
<time>2018-05-27T07:50:34Z</time>
<speed>22.2</speed>
</trkpt>
<trkpt lat="54.992624" lon="11.998546">
<ele>46.2</ele>
<time>2018-05-27T07:50:35Z</time>
<speed>22.2</speed>
</trkpt>
<trkpt lat="54.992815" lon="11.998426">
<ele>47.1</ele>
<time>2018-05-27T07:50:36Z</time>
<speed>22.2</speed>
</trkpt>
<trkpt lat="54.993003" lon="11.998292">
<ele>47.1</ele>
<time>2018-05-27T07:50:37Z</time>
<speed>22.2</speed>
</trkpt>
<trkpt lat="54.993184" lon="11.998154">
<ele>47.7</ele>
<time>2018-05-27T07:50:38Z</time>
<speed>22.5</speed>
</trkpt>
<trkpt lat="54.993373" lon="11.998019">
<ele>47.7</ele>
<time>2018-05-27T07:50:39Z</time>
<speed>22.2</speed>
</trkpt>
<trkpt lat="54.993566" lon="11.997884">
<ele>48.5</ele>
<time>2018-05-27T07:50:40Z</time>
<speed>22.2</speed>
</trkpt>
<trkpt lat="54.993753" lon="11.997765">
<ele>48.6</ele>
<time>2018-05-27T07:50:41Z</time>
<speed>22.2</speed>
</trkpt>
<trkpt lat="54.993933" lon="11.997627">
<ele>49.1</ele>
<time>2018-05-27T07:50:42Z</time>
<speed>22.5</speed>
</trkpt>
<trkpt lat="54.994127" lon="11.997492">
<ele>49.9</ele>
<time>2018-05-27T07:50:43Z</time>
<speed>22.2</speed>
</trkpt>
<trkpt lat="54.994308" lon="11.997355">
<ele>50.4</ele>
<time>2018-05-27T07:50:44Z</time>
<speed>22.2</speed>
</trkpt>
<trkpt lat="54.994496" lon="11.997220">
<ele>50.4</ele>
<time>2018-05-27T07:50:45Z</time>
<speed>22.2</speed>
</trkpt>
<trkpt lat="54.994684" lon="11.997085">
<ele>50.4</ele>
<time>2018-05-27T07:50:46Z</time>
<speed>22.2</speed>
</trkpt>
<trkpt lat="54.994869" lon="11.996963">
<ele>51.9</ele>
<time>2018-05-27T07:50:47Z</time>
<speed>22.2</speed>
</trkpt>
<trkpt lat="54.995057" lon="11.996828">
<ele>51.9</ele>
<time>2018-05-27T07:50:48Z</time>
<speed>22.2</speed>
</trkpt>
<trkpt lat="54.995245" lon="11.996693">
<ele>51.8</ele>
<time>2018-05-27T07:50:49Z</time>
<speed>22.2</speed>
</trkpt>
<trkpt lat="54.995433" lon="11.996558">
<ele>51.8</ele>
<time>2018-05-27T07:50:50Z</time>
<speed>22.2</speed>
</trkpt>
<trkpt lat="54.995612" lon="11.996436">
<ele>52.5</ele>
<time>2018-05-27T07:50:51Z</time>
<speed>22.2</speed>
</trkpt>
<trkpt lat="54.995801" lon="11.996301">
<ele>52.5</ele>
<time>2018-05-27T07:50:52Z</time>
<speed>21.9</speed>
</trkpt>
<trkpt lat="54.995987" lon="11.996182">
<ele>52.6</ele>
<time>2018-05-27T07:50:53Z</time>
<speed>21.9</speed>
</trkpt>
<trkpt lat="54.996168" lon="11.996044">
<ele>53.1</ele>
<time>2018-05-27T07:50:54Z</time>
<speed>21.9</speed>
</trkpt>
<trkpt lat="54.996355" lon="11.995924">
<ele>53.2</ele>
<time>2018-05-27T07:50:55Z</time>
<speed>21.9</speed>
</trkpt>
<trkpt lat="54.996543" lon="11.995790">
<ele>53.2</ele>
<time>2018-05-27T07:50:56Z</time>
<speed>21.9</speed>
</trkpt>
<trkpt lat="54.996722" lon="11.995667">
<ele>53.9</ele>
<time>2018-05-27T07:50:57Z</time>
<speed>21.9</speed>
</trkpt>
<trkpt lat="54.996910" lon="11.995532">
<ele>53.8</ele>
<time>2018-05-27T07:50:58Z</time>
<speed>21.9</speed>
</trkpt>
<trkpt lat="54.997097" lon="11.995413">
<ele>53.9</ele>
<time>2018-05-27T07:50:59Z</time>
<speed>22.2</speed>
</trkpt>
<trkpt lat="54.997278" lon="11.995275">
<ele>54.5</ele>
<time>2018-05-27T07:51:00Z</time>
<speed>22.2</speed>
</trkpt>
<trkpt lat="54.997466" lon="11.995140">
<ele>54.5</ele>
<time>2018-05-27T07:51:01Z</time>
<speed>22.2</speed>
</trkpt>
<trkpt lat="54.997654" lon="11.995006">
<ele>54.5</ele>
<time>2018-05-27T07:51:02Z</time>
<speed>22.2</speed>
</trkpt>
<trkpt lat="54.997841" lon="11.994886">
<ele>54.6</ele>
<time>2018-05-27T07:51:03Z</time>
<speed>22.2</speed>
</trkpt>
<trkpt lat="54.998022" lon="11.994748">
<ele>55.1</ele>
<time>2018-05-27T07:51:04Z</time>
<speed>22.2</speed>
</trkpt>
<trkpt lat="54.998210" lon="11.994614">
<ele>55.1</ele>
<time>2018-05-27T07:51:05Z</time>
<speed>22.5</speed>
</trkpt>
<trkpt lat="54.998403" lon="11.994479">
<ele>55.9</ele>
<time>2018-05-27T07:51:06Z</time>
<speed>22.5</speed>
</trkpt>
<trkpt lat="54.998590" lon="11.994359">
<ele>56.0</ele>
<time>2018-05-27T07:51:07Z</time>
<speed>22.5</speed>
</trkpt>
<trkpt lat="54.998778" lon="11.994225">
<ele>56.0</ele>
<time>2018-05-27T07:51:08Z</time>
<speed>22.5</speed>
</trkpt>
<trkpt lat="54.998966" lon="11.994090">
<ele>56.0</ele>
<time>2018-05-27T07:51:09Z</time>
<speed>22.5</speed>
</trkpt>
<trkpt lat="54.999154" lon="11.993955">
<ele>55.9</ele>
<time>2018-05-27T07:51:10Z</time>
<speed>22.5</speed>
</trkpt>
<trkpt lat="54.999346" lon="11.993836">
<ele>56.9</ele>
<time>2018-05-27T07:51:11Z</time>
<speed>22.5</speed>
</trkpt>
<trkpt lat="54.999534" lon="11.993701">
<ele>56.8</ele>
<time>2018-05-27T07:51:12Z</time>
<speed>22.5</speed>
</trkpt>
<trkpt lat="54.999722" lon="11.993566">
<ele>56.8</ele>
<time>2018-05-27T07:51:13Z</time>
<speed>22.5</speed>
</trkpt>
<trkpt lat="54.999910" lon="11.993432">
<ele>56.8</ele>
<time>2018-05-27T07:51:14Z</time>
<speed>22.2</speed>
</trkpt>
<trkpt lat="55.000099" lon="11.993297">
<ele>56.8</ele>
<time>2018-05-27T07:51:15Z</time>
<speed>22.5</speed>
</trkpt>
<trkpt lat="55.000278" lon="11.993174">
<ele>57.5</ele>
<time>2018-05-27T07:51:16Z</time>
<speed>22.5</speed>
</trkpt>
<trkpt lat="55.000466" lon="11.993040">
<ele>57.4</ele>
<time>2018-05-27T07:51:17Z</time>
<speed>22.5</speed>
</trkpt>
<trkpt lat="55.000658" lon="11.992920">
<ele>58.4</ele>
<time>2018-05-27T07:51:18Z</time>
<speed>22.5</speed>
</trkpt>
<trkpt lat="55.000846" lon="11.992785">
<ele>58.3</ele>
<time>2018-05-27T07:51:19Z</time>
<speed>22.5</speed>
</trkpt>
<trkpt lat="55.001034" lon="11.992651">
<ele>58.3</ele>
<time>2018-05-27T07:51:20Z</time>
<speed>22.8</speed>
</trkpt>
<trkpt lat="55.001228" lon="11.992516">
<ele>59.1</ele>
<time>2018-05-27T07:51:21Z</time>
<speed>22.8</speed>
</trkpt>
<trkpt lat="55.001416" lon="11.992381">
<ele>59.1</ele>
<time>2018-05-27T07:51:22Z</time>
<speed>22.8</speed>
</trkpt>
<trkpt lat="55.001609" lon="11.992247">
<ele>59.9</ele>
<time>2018-05-27T07:51:23Z</time>
<speed>23.1</speed>
</trkpt>
<trkpt lat="55.001804" lon="11.992115">
<ele>59.3</ele>
<time>2018-05-27T07:51:24Z</time>
<speed>23.1</speed>
</trkpt>
<trkpt lat="55.001999" lon="11.991965">
<ele>60.0</ele>
<time>2018-05-27T07:51:25Z</time>
<speed>23.1</speed>
</trkpt>
<trkpt lat="55.002187" lon="11.991830">
<ele>60.0</ele>
<time>2018-05-27T07:51:26Z</time>
<speed>23.1</speed>
</trkpt>
<trkpt lat="55.002388" lon="11.991699">
<ele>60.3</ele>
<time>2018-05-27T07:51:27Z</time>
<speed>23.1</speed>
</trkpt>
<trkpt lat="55.002576" lon="11.991564">
<ele>60.2</ele>
<time>2018-05-27T07:51:28Z</time>
<speed>23.1</speed>
</trkpt>
<trkpt lat="55.002776" lon="11.991433">
<ele>60.5</ele>
<time>2018-05-27T07:51:29Z</time>
<speed>23.1</speed>
</trkpt>
<trkpt lat="55.002964" lon="11.991298">
<ele>60.5</ele>
<time>2018-05-27T07:51:30Z</time>
<speed>23.1</speed>
</trkpt>
<trkpt lat="55.003165" lon="11.991166">
<ele>60.7</ele>
<time>2018-05-27T07:51:31Z</time>
<speed>23.1</speed>
</trkpt>
<trkpt lat="55.003353" lon="11.991032">
<ele>60.7</ele>
<time>2018-05-27T07:51:32Z</time>
<speed>22.8</speed>
</trkpt>
<trkpt lat="55.003548" lon="11.990900">
<ele>60.1</ele>
<time>2018-05-27T07:51:33Z</time>
<speed>22.8</speed>
</trkpt>
<trkpt lat="55.003747" lon="11.990784">
<ele>60.5</ele>
<time>2018-05-27T07:51:34Z</time>
<speed>22.8</speed>
</trkpt>
<trkpt lat="55.003936" lon="11.990649">
<ele>60.5</ele>
<time>2018-05-27T07:51:35Z</time>
<speed>22.8</speed>
</trkpt>
<trkpt lat="55.004129" lon="11.990533">
<ele>60.0</ele>
<time>2018-05-27T07:51:36Z</time>
<speed>22.8</speed>
</trkpt>
<trkpt lat="55.004330" lon="11.990402">
<ele>60.3</ele>
<time>2018-05-27T07:51:37Z</time>
<speed>23.1</speed>
</trkpt>
<trkpt lat="55.004516" lon="11.990282">
<ele>60.4</ele>
<time>2018-05-27T07:51:38Z</time>
<speed>23.1</speed>
</trkpt>
<trkpt lat="55.004715" lon="11.990166">
<ele>60.7</ele>
<time>2018-05-27T07:51:39Z</time>
<speed>23.1</speed>
</trkpt>
<trkpt lat="55.004911" lon="11.990034">
<ele>60.1</ele>
<time>2018-05-27T07:51:40Z</time>
<speed>22.8</speed>
</trkpt>
<trkpt lat="55.005110" lon="11.989918">
<ele>60.5</ele>
<time>2018-05-27T07:51:41Z</time>
<speed>22.8</speed>
</trkpt>
<trkpt lat="55.005296" lon="11.989799">
<ele>60.6</ele>
<time>2018-05-27T07:51:42Z</time>
<speed>23.1</speed>
</trkpt>
<trkpt lat="55.005495" lon="11.989682">
<ele>61.0</ele>
<time>2018-05-27T07:51:43Z</time>
<speed>23.1</speed>
</trkpt>
<trkpt lat="55.005688" lon="11.989582">
<ele>60.6</ele>
<time>2018-05-27T07:51:44Z</time>
<speed>23.1</speed>
</trkpt>
<trkpt lat="55.005879" lon="11.989462">
<ele>61.6</ele>
<time>2018-05-27T07:51:45Z</time>
<speed>23.1</speed>
</trkpt>
<trkpt lat="55.006075" lon="11.989331">
<ele>61.0</ele>
<time>2018-05-27T07:51:46Z</time>
<speed>23.1</speed>
</trkpt>
<trkpt lat="55.006266" lon="11.989211">
<ele>61.9</ele>
<time>2018-05-27T07:51:47Z</time>
<speed>23.1</speed>
</trkpt>
<trkpt lat="55.006465" lon="11.989095">
<ele>62.3</ele>
<time>2018-05-27T07:51:48Z</time>
<speed>23.1</speed>
</trkpt>
<trkpt lat="55.006664" lon="11.988979">
<ele>62.6</ele>
<time>2018-05-27T07:51:49Z</time>
<speed>23.1</speed>
</trkpt>
<trkpt lat="55.006857" lon="11.988878">
<ele>62.3</ele>
<time>2018-05-27T07:51:50Z</time>
<speed>23.1</speed>
</trkpt>
<trkpt lat="55.007056" lon="11.988761">
<ele>62.7</ele>
<time>2018-05-27T07:51:51Z</time>
<speed>23.1</speed>
</trkpt>
<trkpt lat="55.007253" lon="11.988661">
<ele>63.2</ele>
<time>2018-05-27T07:51:52Z</time>
<speed>23.1</speed>
</trkpt>
<trkpt lat="55.007454" lon="11.988548">
<ele>62.1</ele>
<time>2018-05-27T07:51:53Z</time>
<speed>23.1</speed>
</trkpt>
<trkpt lat="55.007651" lon="11.988447">
<ele>62.6</ele>
<time>2018-05-27T07:51:54Z</time>
<speed>23.1</speed>
</trkpt>
<trkpt lat="55.007850" lon="11.988330">
<ele>63.0</ele>
<time>2018-05-27T07:51:55Z</time>
<speed>23.3</speed>
</trkpt>
<trkpt lat="55.008055" lon="11.988233">
<ele>62.9</ele>
<time>2018-05-27T07:51:56Z</time>
<speed>23.3</speed>
</trkpt>
<trkpt lat="55.008252" lon="11.988132">
<ele>63.4</ele>
<time>2018-05-27T07:51:57Z</time>
<speed>23.1</speed>
</trkpt>
<trkpt lat="55.008452" lon="11.988034">
<ele>62.5</ele>
<time>2018-05-27T07:51:58Z</time>
<speed>23.1</speed>
</trkpt>
<trkpt lat="55.008649" lon="11.987933">
<ele>63.0</ele>
<time>2018-05-27T07:51:59Z</time>
<speed>23.3</speed>
</trkpt>
<trkpt lat="55.008854" lon="11.987835">
<ele>62.9</ele>
<time>2018-05-27T07:52:00Z</time>
<speed>23.1</speed>
</trkpt>
<trkpt lat="55.009059" lon="11.987738">
<ele>62.8</ele>
<time>2018-05-27T07:52:01Z</time>
<speed>23.1</speed>
</trkpt>
<trkpt lat="55.009256" lon="11.987637">
<ele>63.3</ele>
<time>2018-05-27T07:52:02Z</time>
<speed>23.1</speed>
</trkpt>
<trkpt lat="55.009461" lon="11.987539">
<ele>63.2</ele>
<time>2018-05-27T07:52:03Z</time>
<speed>23.1</speed>
</trkpt>
<trkpt lat="55.009658" lon="11.987438">
<ele>63.7</ele>
<time>2018-05-27T07:52:04Z</time>
<speed>23.1</speed>
</trkpt>
<trkpt lat="55.009863" lon="11.987340">
<ele>63.6</ele>
<time>2018-05-27T07:52:05Z</time>
<speed>23.1</speed>
</trkpt>
<trkpt lat="55.010059" lon="11.987255">
<ele>64.2</ele>
<time>2018-05-27T07:52:06Z</time>
<speed>23.1</speed>
</trkpt>
<trkpt lat="55.010263" lon="11.987157">
<ele>64.2</ele>
<time>2018-05-27T07:52:07Z</time>
<speed>23.1</speed>
</trkpt>
<trkpt lat="55.010471" lon="11.987075">
<ele>65.0</ele>
<time>2018-05-27T07:52:08Z</time>
<speed>23.1</speed>
</trkpt>
<trkpt lat="55.010676" lon="11.986977">
<ele>65.0</ele>
<time>2018-05-27T07:52:09Z</time>
<speed>23.1</speed>
</trkpt>
<trkpt lat="55.010879" lon="11.986894">
<ele>65.0</ele>
<time>2018-05-27T07:52:10Z</time>
<speed>23.1</speed>
</trkpt>
<trkpt lat="55.011084" lon="11.986797">
<ele>64.9</ele>
<time>2018-05-27T07:52:11Z</time>
<speed>23.1</speed>
</trkpt>
<trkpt lat="55.011282" lon="11.986714">
<ele>64.1</ele>
<time>2018-05-27T07:52:12Z</time>
<speed>23.1</speed>
</trkpt>
<trkpt lat="55.011485" lon="11.986632">
<ele>64.2</ele>
<time>2018-05-27T07:52:13Z</time>
<speed>23.1</speed>
</trkpt>
<trkpt lat="55.011688" lon="11.986550">
<ele>64.2</ele>
<time>2018-05-27T07:52:14Z</time>
<speed>23.1</speed>
</trkpt>
<trkpt lat="55.011891" lon="11.986467">
<ele>64.3</ele>
<time>2018-05-27T07:52:15Z</time>
<speed>23.1</speed>
</trkpt>
<trkpt lat="55.012094" lon="11.986385">
<ele>64.3</ele>
<time>2018-05-27T07:52:16Z</time>
<speed>23.1</speed>
</trkpt>
<trkpt lat="55.012297" lon="11.986302">
<ele>64.4</ele>
<time>2018-05-27T07:52:17Z</time>
<speed>23.1</speed>
</trkpt>
<trkpt lat="55.012500" lon="11.986220">
<ele>64.4</ele>
<time>2018-05-27T07:52:18Z</time>
<speed>23.1</speed>
</trkpt>
<trkpt lat="55.012703" lon="11.986137">
<ele>64.5</ele>
<time>2018-05-27T07:52:19Z</time>
<speed>23.1</speed>
</trkpt>
<trkpt lat="55.012906" lon="11.986055">
<ele>64.5</ele>
<time>2018-05-27T07:52:20Z</time>
<speed>23.1</speed>
</trkpt>
<trkpt lat="55.013108" lon="11.985988">
<ele>64.7</ele>
<time>2018-05-27T07:52:21Z</time>
<speed>23.1</speed>
</trkpt>
<trkpt lat="55.013311" lon="11.985905">
<ele>64.7</ele>
<time>2018-05-27T07:52:22Z</time>
<speed>23.1</speed>
</trkpt>
<trkpt lat="55.013514" lon="11.985823">
<ele>64.7</ele>
<time>2018-05-27T07:52:23Z</time>
<speed>23.1</speed>
</trkpt>
<trkpt lat="55.013716" lon="11.985756">
<ele>64.9</ele>
<time>2018-05-27T07:52:24Z</time>
<speed>23.1</speed>
</trkpt>
<trkpt lat="55.013919" lon="11.985673">
<ele>65.0</ele>
<time>2018-05-27T07:52:25Z</time>
<speed>23.1</speed>
</trkpt>
<trkpt lat="55.014120" lon="11.985606">
<ele>65.1</ele>
<time>2018-05-27T07:52:26Z</time>
<speed>23.1</speed>
</trkpt>
<trkpt lat="55.014329" lon="11.985542">
<ele>64.7</ele>
<time>2018-05-27T07:52:27Z</time>
<speed>22.8</speed>
</trkpt>
<trkpt lat="55.014531" lon="11.985475">
<ele>64.9</ele>
<time>2018-05-27T07:52:28Z</time>
<speed>22.8</speed>
</trkpt>
<trkpt lat="55.014740" lon="11.985411">
<ele>64.5</ele>
<time>2018-05-27T07:52:29Z</time>
<speed>23.1</speed>
</trkpt>
<trkpt lat="55.014948" lon="11.985347">
<ele>64.1</ele>
<time>2018-05-27T07:52:30Z</time>
<speed>23.1</speed>
</trkpt>
<trkpt lat="55.015150" lon="11.985280">
<ele>64.3</ele>
<time>2018-05-27T07:52:31Z</time>
<speed>23.1</speed>
</trkpt>
<trkpt lat="55.015359" lon="11.985216">
<ele>63.9</ele>
<time>2018-05-27T07:52:32Z</time>
<speed>23.1</speed>
</trkpt>
<trkpt lat="55.015567" lon="11.985152">
<ele>63.5</ele>
<time>2018-05-27T07:52:33Z</time>
<speed>23.1</speed>
</trkpt>
<trkpt lat="55.015769" lon="11.985085">
<ele>63.6</ele>
<time>2018-05-27T07:52:34Z</time>
<speed>23.1</speed>
</trkpt>
<trkpt lat="55.015976" lon="11.985037">
<ele>63.3</ele>
<time>2018-05-27T07:52:35Z</time>
<speed>23.1</speed>
</trkpt>
<trkpt lat="55.016192" lon="11.984976">
<ele>62.4</ele>
<time>2018-05-27T07:52:36Z</time>
<speed>23.1</speed>
</trkpt>
<trkpt lat="55.016396" lon="11.984912">
<ele>61.2</ele>
<time>2018-05-27T07:52:37Z</time>
<speed>23.1</speed>
</trkpt>
<trkpt lat="55.016612" lon="11.984851">
<ele>60.2</ele>
<time>2018-05-27T07:52:38Z</time>
<speed>23.1</speed>
</trkpt>
<trkpt lat="55.016830" lon="11.984794">
<ele>57.9</ele>
<time>2018-05-27T07:52:39Z</time>
<speed>23.1</speed>
</trkpt>
<trkpt lat="55.017044" lon="11.984749">
<ele>57.0</ele>
<time>2018-05-27T07:52:40Z</time>
<speed>23.1</speed>
</trkpt>
<trkpt lat="55.017253" lon="11.984703">
<ele>55.4</ele>
<time>2018-05-27T07:52:41Z</time>
<speed>23.1</speed>
</trkpt>
<trkpt lat="55.017466" lon="11.984655">
<ele>55.9</ele>
<time>2018-05-27T07:52:42Z</time>
<speed>23.1</speed>
</trkpt>
<trkpt lat="55.017680" lon="11.984609">
<ele>55.1</ele>
<time>2018-05-27T07:52:43Z</time>
<speed>23.1</speed>
</trkpt>
<trkpt lat="55.017886" lon="11.984576">
<ele>54.9</ele>
<time>2018-05-27T07:52:44Z</time>
<speed>23.1</speed>
</trkpt>
<trkpt lat="55.018092" lon="11.984543">
<ele>54.8</ele>
<time>2018-05-27T07:52:45Z</time>
<speed>23.1</speed>
</trkpt>
<trkpt lat="55.018305" lon="11.984513">
<ele>54.1</ele>
<time>2018-05-27T07:52:46Z</time>
<speed>23.1</speed>
</trkpt>
<trkpt lat="55.018515" lon="11.984479">
<ele>54.7</ele>
<time>2018-05-27T07:52:47Z</time>
<speed>23.1</speed>
</trkpt>
<trkpt lat="55.018720" lon="11.984461">
<ele>54.7</ele>
<time>2018-05-27T07:52:48Z</time>
<speed>23.3</speed>
</trkpt>
<trkpt lat="55.018933" lon="11.984431">
<ele>54.0</ele>
<time>2018-05-27T07:52:49Z</time>
<speed>23.3</speed>
</trkpt>
<trkpt lat="55.019149" lon="11.984416">
<ele>54.2</ele>
<time>2018-05-27T07:52:50Z</time>
<speed>23.1</speed>
</trkpt>
<trkpt lat="55.019352" lon="11.984414">
<ele>54.3</ele>
<time>2018-05-27T07:52:51Z</time>
<speed>23.1</speed>
</trkpt>
<trkpt lat="55.019556" lon="11.984396">
<ele>54.2</ele>
<time>2018-05-27T07:52:52Z</time>
<speed>23.1</speed>
</trkpt>
<trkpt lat="55.019766" lon="11.984396">
<ele>53.7</ele>
<time>2018-05-27T07:52:53Z</time>
<speed>23.1</speed>
</trkpt>
<trkpt lat="55.019974" lon="11.984393">
<ele>54.6</ele>
<time>2018-05-27T07:52:54Z</time>
<speed>23.1</speed>
</trkpt>
<trkpt lat="55.020183" lon="11.984394">
<ele>54.2</ele>
<time>2018-05-27T07:52:55Z</time>
<speed>23.1</speed>
</trkpt>
<trkpt lat="55.020385" lon="11.984406">
<ele>54.4</ele>
<time>2018-05-27T07:52:56Z</time>
<speed>23.1</speed>
</trkpt>
<trkpt lat="55.020600" lon="11.984407">
<ele>54.7</ele>
<time>2018-05-27T07:52:57Z</time>
<speed>23.1</speed>
</trkpt>
<trkpt lat="55.020801" lon="11.984420">
<ele>54.9</ele>
<time>2018-05-27T07:52:58Z</time>
<speed>23.1</speed>
</trkpt>
<trkpt lat="55.021009" lon="11.984435">
<ele>54.5</ele>
<time>2018-05-27T07:52:59Z</time>
<speed>23.1</speed>
</trkpt>
<trkpt lat="55.021222" lon="11.984451">
<ele>55.0</ele>
<time>2018-05-27T07:53:00Z</time>
<speed>23.1</speed>
</trkpt>
<trkpt lat="55.021431" lon="11.984467">
<ele>54.6</ele>
<time>2018-05-27T07:53:01Z</time>
<speed>23.1</speed>
</trkpt>
<trkpt lat="55.021645" lon="11.984501">
<ele>53.8</ele>
<time>2018-05-27T07:53:02Z</time>
<speed>23.3</speed>
</trkpt>
<trkpt lat="55.021853" lon="11.984517">
<ele>53.5</ele>
<time>2018-05-27T07:53:03Z</time>
<speed>23.3</speed>
</trkpt>
<trkpt lat="55.022060" lon="11.984548">
<ele>53.2</ele>
<time>2018-05-27T07:53:04Z</time>
<speed>23.3</speed>
</trkpt>
<trkpt lat="55.022274" lon="11.984583">
<ele>52.4</ele>
<time>2018-05-27T07:53:05Z</time>
<speed>23.3</speed>
</trkpt>
<trkpt lat="55.022476" lon="11.984614">
<ele>51.4</ele>
<time>2018-05-27T07:53:06Z</time>
<speed>23.3</speed>
</trkpt>
<trkpt lat="55.022683" lon="11.984663">
<ele>49.9</ele>
<time>2018-05-27T07:53:07Z</time>
<speed>23.1</speed>
</trkpt>
<trkpt lat="55.022890" lon="11.984694">
<ele>49.6</ele>
<time>2018-05-27T07:53:08Z</time>
<speed>23.1</speed>
</trkpt>
<trkpt lat="55.023088" lon="11.984756">
<ele>48.8</ele>
<time>2018-05-27T07:53:09Z</time>
<speed>23.1</speed>
</trkpt>
<trkpt lat="55.023288" lon="11.984802">
<ele>47.9</ele>
<time>2018-05-27T07:53:10Z</time>
<speed>23.1</speed>
</trkpt>
<trkpt lat="55.023494" lon="11.984849">
<ele>47.7</ele>
<time>2018-05-27T07:53:11Z</time>
<speed>23.1</speed>
</trkpt>
<trkpt lat="55.023694" lon="11.984895">
<ele>46.8</ele>
<time>2018-05-27T07:53:12Z</time>
<speed>23.1</speed>
</trkpt>
<trkpt lat="55.023905" lon="11.984960">
<ele>46.2</ele>
<time>2018-05-27T07:53:13Z</time>
<speed>23.3</speed>
</trkpt>
<trkpt lat="55.024110" lon="11.985007">
<ele>46.1</ele>
<time>2018-05-27T07:53:14Z</time>
<speed>23.3</speed>
</trkpt>
<trkpt lat="55.024314" lon="11.985068">
<ele>46.1</ele>
<time>2018-05-27T07:53:15Z</time>
<speed>23.3</speed>
</trkpt>
<trkpt lat="55.024523" lon="11.985130">
<ele>46.9</ele>
<time>2018-05-27T07:53:16Z</time>
<speed>23.3</speed>
</trkpt>
<trkpt lat="55.024734" lon="11.985195">
<ele>46.4</ele>
<time>2018-05-27T07:53:17Z</time>
<speed>23.3</speed>
</trkpt>
<trkpt lat="55.024941" lon="11.985263">
<ele>43.6</ele>
<time>2018-05-27T07:53:18Z</time>
<speed>23.3</speed>
</trkpt>
<trkpt lat="55.025153" lon="11.985347">
<ele>41.8</ele>
<time>2018-05-27T07:53:19Z</time>
<speed>23.3</speed>
</trkpt>
<trkpt lat="55.025364" lon="11.985411">
<ele>41.2</ele>
<time>2018-05-27T07:53:20Z</time>
<speed>23.3</speed>
</trkpt>
<trkpt lat="55.025567" lon="11.985507">
<ele>40.1</ele>
<time>2018-05-27T07:53:21Z</time>
<speed>23.3</speed>
</trkpt>
<trkpt lat="55.025778" lon="11.985590">
<ele>38.3</ele>
<time>2018-05-27T07:53:22Z</time>
<speed>23.3</speed>
</trkpt>
<trkpt lat="55.025980" lon="11.985667">
<ele>38.4</ele>
<time>2018-05-27T07:53:23Z</time>
<speed>23.3</speed>
</trkpt>
<trkpt lat="55.026183" lon="11.985763">
<ele>37.2</ele>
<time>2018-05-27T07:53:24Z</time>
<speed>23.3</speed>
</trkpt>
<trkpt lat="55.026386" lon="11.985859">
<ele>36.1</ele>
<time>2018-05-27T07:53:25Z</time>
<speed>23.3</speed>
</trkpt>
<trkpt lat="55.026601" lon="11.985957">
<ele>35.2</ele>
<time>2018-05-27T07:53:26Z</time>
<speed>23.3</speed>
</trkpt>
<trkpt lat="55.026803" lon="11.986053">
<ele>34.1</ele>
<time>2018-05-27T07:53:27Z</time>
<speed>23.3</speed>
</trkpt>
<trkpt lat="55.027006" lon="11.986148">
<ele>32.9</ele>
<time>2018-05-27T07:53:28Z</time>
<speed>23.6</speed>
</trkpt>
<trkpt lat="55.027209" lon="11.986244">
<ele>31.8</ele>
<time>2018-05-27T07:53:29Z</time>
<speed>23.6</speed>
</trkpt>
<trkpt lat="55.027410" lon="11.986355">
<ele>30.8</ele>
<time>2018-05-27T07:53:30Z</time>
<speed>23.6</speed>
</trkpt>
<trkpt lat="55.027618" lon="11.986450">
<ele>30.4</ele>
<time>2018-05-27T07:53:31Z</time>
<speed>23.6</speed>
</trkpt>
<trkpt lat="55.027819" lon="11.986561">
<ele>29.4</ele>
<time>2018-05-27T07:53:32Z</time>
<speed>23.6</speed>
</trkpt>
<trkpt lat="55.028022" lon="11.986657">
<ele>28.3</ele>
<time>2018-05-27T07:53:33Z</time>
<speed>23.3</speed>
</trkpt>
<trkpt lat="55.028230" lon="11.986752">
<ele>27.9</ele>
<time>2018-05-27T07:53:34Z</time>
<speed>23.6</speed>
</trkpt>
<trkpt lat="55.028431" lon="11.986863">
<ele>26.9</ele>
<time>2018-05-27T07:53:35Z</time>
<speed>23.6</speed>
</trkpt>
<trkpt lat="55.028639" lon="11.986959">
<ele>26.6</ele>
<time>2018-05-27T07:53:36Z</time>
<speed>23.6</speed>
</trkpt>
<trkpt lat="55.028845" lon="11.987069">
<ele>26.4</ele>
<time>2018-05-27T07:53:37Z</time>
<speed>23.3</speed>
</trkpt>
<trkpt lat="55.029053" lon="11.987165">
<ele>26.1</ele>
<time>2018-05-27T07:53:38Z</time>
<speed>23.3</speed>
</trkpt>
<trkpt lat="55.029252" lon="11.987273">
<ele>26.4</ele>
<time>2018-05-27T07:53:39Z</time>
<speed>23.3</speed>
</trkpt>
<trkpt lat="55.029459" lon="11.987383">
<ele>26.2</ele>
<time>2018-05-27T07:53:40Z</time>
<speed>23.3</speed>
</trkpt>
<trkpt lat="55.029661" lon="11.987479">
<ele>25.1</ele>
<time>2018-05-27T07:53:41Z</time>
<speed>23.3</speed>
</trkpt>
<trkpt lat="55.029868" lon="11.987590">
<ele>24.9</ele>
<time>2018-05-27T07:53:42Z</time>
<speed>23.3</speed>
</trkpt>
<trkpt lat="55.030076" lon="11.987685">
<ele>24.6</ele>
<time>2018-05-27T07:53:43Z</time>
<speed>23.6</speed>
</trkpt>
<trkpt lat="55.030278" lon="11.987781">
<ele>23.4</ele>
<time>2018-05-27T07:53:44Z</time>
<speed>23.6</speed>
</trkpt>
<trkpt lat="55.030486" lon="11.987877">
<ele>23.1</ele>
<time>2018-05-27T07:53:45Z</time>
<speed>23.3</speed>
</trkpt>
<trkpt lat="55.030688" lon="11.987954">
<ele>23.2</ele>
<time>2018-05-27T07:53:46Z</time>
<speed>23.3</speed>
</trkpt>
<trkpt lat="55.030894" lon="11.988046">
<ele>24.3</ele>
<time>2018-05-27T07:53:47Z</time>
<speed>23.3</speed>
</trkpt>
<trkpt lat="55.031102" lon="11.988141">
<ele>24.0</ele>
<time>2018-05-27T07:53:48Z</time>
<speed>23.3</speed>
</trkpt>
<trkpt lat="55.031309" lon="11.988218">
<ele>24.9</ele>
<time>2018-05-27T07:53:49Z</time>
<speed>23.3</speed>
</trkpt>
<trkpt lat="55.031512" lon="11.988295">
<ele>25.0</ele>
<time>2018-05-27T07:53:50Z</time>
<speed>23.1</speed>
</trkpt>
<trkpt lat="55.031714" lon="11.988372">
<ele>25.1</ele>
<time>2018-05-27T07:53:51Z</time>
<speed>23.1</speed>
</trkpt>
<trkpt lat="55.031928" lon="11.988453">
<ele>25.5</ele>
<time>2018-05-27T07:53:52Z</time>
<speed>23.3</speed>
</trkpt>
<trkpt lat="55.032131" lon="11.988530">
<ele>25.6</ele>
<time>2018-05-27T07:53:53Z</time>
<speed>23.1</speed>
</trkpt>
<trkpt lat="55.032340" lon="11.988591">
<ele>26.5</ele>
<time>2018-05-27T07:53:54Z</time>
<speed>23.3</speed>
</trkpt>
<trkpt lat="55.032543" lon="11.988653">
<ele>26.5</ele>
<time>2018-05-27T07:53:55Z</time>
<speed>23.1</speed>
</trkpt>
<trkpt lat="55.032747" lon="11.988715">
<ele>26.5</ele>
<time>2018-05-27T07:53:56Z</time>
<speed>23.1</speed>
</trkpt>
<trkpt lat="55.032958" lon="11.988780">
<ele>25.9</ele>
<time>2018-05-27T07:53:57Z</time>
<speed>23.1</speed>
</trkpt>
<trkpt lat="55.033163" lon="11.988826">
<ele>25.8</ele>
<time>2018-05-27T07:53:58Z</time>
<speed>23.1</speed>
</trkpt>
<trkpt lat="55.033368" lon="11.988873">
<ele>25.7</ele>
<time>2018-05-27T07:53:59Z</time>
<speed>23.3</speed>
</trkpt>
<trkpt lat="55.033574" lon="11.988919">
<ele>25.6</ele>
<time>2018-05-27T07:54:00Z</time>
<speed>23.1</speed>
</trkpt>
<trkpt lat="55.033786" lon="11.988969">
<ele>24.9</ele>
<time>2018-05-27T07:54:01Z</time>
<speed>23.1</speed>
</trkpt>
<trkpt lat="55.033988" lon="11.989000">
<ele>23.8</ele>
<time>2018-05-27T07:54:02Z</time>
<speed>23.3</speed>
</trkpt>
<trkpt lat="55.034195" lon="11.989031">
<ele>23.6</ele>
<time>2018-05-27T07:54:03Z</time>
<speed>23.3</speed>
</trkpt>
<trkpt lat="55.034400" lon="11.989078">
<ele>23.5</ele>
<time>2018-05-27T07:54:04Z</time>
<speed>23.3</speed>
</trkpt>
<trkpt lat="55.034607" lon="11.989109">
<ele>23.2</ele>
<time>2018-05-27T07:54:05Z</time>
<speed>23.3</speed>
</trkpt>
<trkpt lat="55.034815" lon="11.989125">
<ele>22.9</ele>
<time>2018-05-27T07:54:06Z</time>
<speed>23.3</speed>
</trkpt>
<trkpt lat="55.035029" lon="11.989159">
<ele>22.1</ele>
<time>2018-05-27T07:54:07Z</time>
<speed>23.3</speed>
</trkpt>
<trkpt lat="55.035232" lon="11.989175">
<ele>20.9</ele>
<time>2018-05-27T07:54:08Z</time>
<speed>23.1</speed>
</trkpt>
<trkpt lat="55.035441" lon="11.989191">
<ele>20.6</ele>
<time>2018-05-27T07:54:09Z</time>
<speed>23.1</speed>
</trkpt>
<trkpt lat="55.035649" lon="11.989206">
<ele>20.2</ele>
<time>2018-05-27T07:54:10Z</time>
<speed>23.1</speed>
</trkpt>
<trkpt lat="55.035850" lon="11.989219">
<ele>20.4</ele>
<time>2018-05-27T07:54:11Z</time>
<speed>23.1</speed>
</trkpt>
<trkpt lat="55.036060" lon="11.989219">
<ele>19.9</ele>
<time>2018-05-27T07:54:12Z</time>
<speed>23.1</speed>
</trkpt>
<trkpt lat="55.036268" lon="11.989235">
<ele>19.6</ele>
<time>2018-05-27T07:54:13Z</time>
<speed>23.1</speed>
</trkpt>
<trkpt lat="55.036476" lon="11.989233">
<ele>20.5</ele>
<time>2018-05-27T07:54:14Z</time>
<speed>23.1</speed>
</trkpt>
<trkpt lat="55.036686" lon="11.989233">
<ele>20.0</ele>
<time>2018-05-27T07:54:15Z</time>
<speed>23.1</speed>
</trkpt>
<trkpt lat="55.036894" lon="11.989230">
<ele>20.9</ele>
<time>2018-05-27T07:54:16Z</time>
<speed>23.1</speed>
</trkpt>
<trkpt lat="55.037109" lon="11.989231">
<ele>21.3</ele>
<time>2018-05-27T07:54:17Z</time>
<speed>23.3</speed>
</trkpt>
<trkpt lat="55.037316" lon="11.989228">
<ele>22.2</ele>
<time>2018-05-27T07:54:18Z</time>
<speed>23.3</speed>
</trkpt>
<trkpt lat="55.037526" lon="11.989210">
<ele>23.0</ele>
<time>2018-05-27T07:54:19Z</time>
<speed>23.3</speed>
</trkpt>
<trkpt lat="55.037740" lon="11.989192">
<ele>24.6</ele>
<time>2018-05-27T07:54:20Z</time>
<speed>23.1</speed>
</trkpt>
<trkpt lat="55.037951" lon="11.989159">
<ele>25.2</ele>
<time>2018-05-27T07:54:21Z</time>
<speed>23.1</speed>
</trkpt>
<trkpt lat="55.038160" lon="11.989141">
<ele>26.0</ele>
<time>2018-05-27T07:54:22Z</time>
<speed>23.3</speed>
</trkpt>
<trkpt lat="55.038375" lon="11.989123">
<ele>27.6</ele>
<time>2018-05-27T07:54:23Z</time>
<speed>23.6</speed>
</trkpt>
<trkpt lat="55.038586" lon="11.989090">
<ele>28.3</ele>
<time>2018-05-27T07:54:24Z</time>
<speed>23.9</speed>
</trkpt>
<trkpt lat="55.038804" lon="11.989059">
<ele>28.4</ele>
<time>2018-05-27T07:54:25Z</time>
<speed>23.6</speed>
</trkpt>
<trkpt lat="55.039016" lon="11.989011">
<ele>29.0</ele>
<time>2018-05-27T07:54:26Z</time>
<speed>23.6</speed>
</trkpt>
<trkpt lat="55.039234" lon="11.988981">
<ele>29.1</ele>
<time>2018-05-27T07:54:27Z</time>
<speed>23.6</speed>
</trkpt>
<trkpt lat="55.039445" lon="11.988947">
<ele>29.7</ele>
<time>2018-05-27T07:54:28Z</time>
<speed>23.9</speed>
</trkpt>
<trkpt lat="55.039663" lon="11.988899">
<ele>31.1</ele>
<time>2018-05-27T07:54:29Z</time>
<speed>23.6</speed>
</trkpt>
<trkpt lat="55.039875" lon="11.988850">
<ele>31.7</ele>
<time>2018-05-27T07:54:30Z</time>
<speed>23.9</speed>
</trkpt>
<trkpt lat="55.040087" lon="11.988802">
<ele>32.2</ele>
<time>2018-05-27T07:54:31Z</time>
<speed>23.9</speed>
</trkpt>
<trkpt lat="55.040306" lon="11.988738">
<ele>33.5</ele>
<time>2018-05-27T07:54:32Z</time>
<speed>23.6</speed>
</trkpt>
<trkpt lat="55.040517" lon="11.988686">
<ele>35.4</ele>
<time>2018-05-27T07:54:33Z</time>
<speed>23.6</speed>
</trkpt>
<trkpt lat="55.040731" lon="11.988622">
<ele>35.8</ele>
<time>2018-05-27T07:54:34Z</time>
<speed>23.6</speed>
</trkpt>
<trkpt lat="55.040950" lon="11.988558">
<ele>37.1</ele>
<time>2018-05-27T07:54:35Z</time>
<speed>23.6</speed>
</trkpt>
<trkpt lat="55.041157" lon="11.988491">
<ele>38.1</ele>
<time>2018-05-27T07:54:36Z</time>
<speed>23.6</speed>
</trkpt>
<trkpt lat="55.041370" lon="11.988427">
<ele>38.5</ele>
<time>2018-05-27T07:54:37Z</time>
<speed>23.3</speed>
</trkpt>
<trkpt lat="55.041577" lon="11.988360">
<ele>39.5</ele>
<time>2018-05-27T07:54:38Z</time>
<speed>23.3</speed>
</trkpt>
<trkpt lat="55.041793" lon="11.988280">
<ele>39.8</ele>
<time>2018-05-27T07:54:39Z</time>
<speed>23.3</speed>
</trkpt>
<trkpt lat="55.041999" lon="11.988213">
<ele>40.8</ele>
<time>2018-05-27T07:54:40Z</time>
<speed>23.3</speed>
</trkpt>
<trkpt lat="55.042202" lon="11.988131">
<ele>40.9</ele>
<time>2018-05-27T07:54:41Z</time>
<speed>23.3</speed>
</trkpt>
<trkpt lat="55.042418" lon="11.988052">
<ele>41.2</ele>
<time>2018-05-27T07:54:42Z</time>
<speed>23.1</speed>
</trkpt>
<trkpt lat="55.042616" lon="11.987969">
<ele>40.4</ele>
<time>2018-05-27T07:54:43Z</time>
<speed>23.3</speed>
</trkpt>
<trkpt lat="55.042820" lon="11.987871">
<ele>40.4</ele>
<time>2018-05-27T07:54:44Z</time>
<speed>23.3</speed>
</trkpt>
<trkpt lat="55.043016" lon="11.987786">
<ele>41.0</ele>
<time>2018-05-27T07:54:45Z</time>
<speed>23.1</speed>
</trkpt>
<trkpt lat="55.043221" lon="11.987688">
<ele>40.9</ele>
<time>2018-05-27T07:54:46Z</time>
<speed>23.1</speed>
</trkpt>
<trkpt lat="55.043413" lon="11.987587">
<ele>40.6</ele>
<time>2018-05-27T07:54:47Z</time>
<speed>23.1</speed>
</trkpt>
<trkpt lat="55.043604" lon="11.987501">
<ele>40.4</ele>
<time>2018-05-27T07:54:48Z</time>
<speed>22.8</speed>
</trkpt>
<trkpt lat="55.043796" lon="11.987400">
<ele>40.1</ele>
<time>2018-05-27T07:54:49Z</time>
<speed>22.8</speed>
</trkpt>
<trkpt lat="55.044001" lon="11.987302">
<ele>40.0</ele>
<time>2018-05-27T07:54:50Z</time>
<speed>22.8</speed>
</trkpt>
<trkpt lat="55.044195" lon="11.987186">
<ele>39.6</ele>
<time>2018-05-27T07:54:51Z</time>
<speed>22.8</speed>
</trkpt>
<trkpt lat="55.044392" lon="11.987085">
<ele>40.1</ele>
<time>2018-05-27T07:54:52Z</time>
<speed>22.8</speed>
</trkpt>
<trkpt lat="55.044591" lon="11.986968">
<ele>40.4</ele>
<time>2018-05-27T07:54:53Z</time>
<speed>22.8</speed>
</trkpt>
<trkpt lat="55.044776" lon="11.986864">
<ele>40.7</ele>
<time>2018-05-27T07:54:54Z</time>
<speed>22.8</speed>
</trkpt>
<trkpt lat="55.044975" lon="11.986748">
<ele>41.1</ele>
<time>2018-05-27T07:54:55Z</time>
<speed>22.8</speed>
</trkpt>
<trkpt lat="55.045174" lon="11.986632">
<ele>41.4</ele>
<time>2018-05-27T07:54:56Z</time>
<speed>22.8</speed>
</trkpt>
<trkpt lat="55.045373" lon="11.986515">
<ele>41.8</ele>
<time>2018-05-27T07:54:57Z</time>
<speed>22.8</speed>
</trkpt>
<trkpt lat="55.045565" lon="11.986396">
<ele>42.7</ele>
<time>2018-05-27T07:54:58Z</time>
<speed>22.8</speed>
</trkpt>
<trkpt lat="55.045759" lon="11.986279">
<ele>42.3</ele>
<time>2018-05-27T07:54:59Z</time>
<speed>23.1</speed>
</trkpt>
<trkpt lat="55.045957" lon="11.986163">
<ele>42.7</ele>
<time>2018-05-27T07:55:00Z</time>
<speed>23.1</speed>
</trkpt>
<trkpt lat="55.046149" lon="11.986043">
<ele>43.6</ele>
<time>2018-05-27T07:55:01Z</time>
<speed>23.1</speed>
</trkpt>
<trkpt lat="55.046345" lon="11.985912">
<ele>43.1</ele>
<time>2018-05-27T07:55:02Z</time>
<speed>23.1</speed>
</trkpt>
<trkpt lat="55.046545" lon="11.985780">
<ele>43.3</ele>
<time>2018-05-27T07:55:03Z</time>
<speed>23.1</speed>
</trkpt>
<trkpt lat="55.046732" lon="11.985660">
<ele>43.4</ele>
<time>2018-05-27T07:55:04Z</time>
<speed>23.1</speed>
</trkpt>
<trkpt lat="55.046932" lon="11.985529">
<ele>43.7</ele>
<time>2018-05-27T07:55:05Z</time>
<speed>23.1</speed>
</trkpt>
<trkpt lat="55.047120" lon="11.985394">
<ele>43.7</ele>
<time>2018-05-27T07:55:06Z</time>
<speed>23.1</speed>
</trkpt>
<trkpt lat="55.047308" lon="11.985259">
<ele>43.7</ele>
<time>2018-05-27T07:55:07Z</time>
<speed>23.1</speed>
</trkpt>
<trkpt lat="55.047502" lon="11.985124">
<ele>44.5</ele>
<time>2018-05-27T07:55:08Z</time>
<speed>23.1</speed>
</trkpt>
<trkpt lat="55.047697" lon="11.984992">
<ele>44.0</ele>
<time>2018-05-27T07:55:09Z</time>
<speed>22.8</speed>
</trkpt>
<trkpt lat="55.047887" lon="11.984842">
<ele>43.9</ele>
<time>2018-05-27T07:55:10Z</time>
<speed>23.1</speed>
</trkpt>
<trkpt lat="55.048075" lon="11.984707">
<ele>43.9</ele>
<time>2018-05-27T07:55:11Z</time>
<speed>23.1</speed>
</trkpt>
<trkpt lat="55.048264" lon="11.984557">
<ele>43.7</ele>
<time>2018-05-27T07:55:12Z</time>
<speed>23.1</speed>
</trkpt>
<trkpt lat="55.048453" lon="11.984422">
<ele>43.7</ele>
<time>2018-05-27T07:55:13Z</time>
<speed>23.1</speed>
</trkpt>
<trkpt lat="55.048642" lon="11.984272">
<ele>43.6</ele>
<time>2018-05-27T07:55:14Z</time>
<speed>23.1</speed>
</trkpt>
<trkpt lat="55.048826" lon="11.984103">
<ele>44.0</ele>
<time>2018-05-27T07:55:15Z</time>
<speed>22.8</speed>
</trkpt>
<trkpt lat="55.049011" lon="11.983953">
<ele>43.0</ele>
<time>2018-05-27T07:55:16Z</time>
<speed>22.8</speed>
</trkpt>
<trkpt lat="55.049200" lon="11.983803">
<ele>42.9</ele>
<time>2018-05-27T07:55:17Z</time>
<speed>22.8</speed>
</trkpt>
<trkpt lat="55.049385" lon="11.983652">
<ele>42.0</ele>
<time>2018-05-27T07:55:18Z</time>
<speed>23.1</speed>
</trkpt>
<trkpt lat="55.049576" lon="11.983487">
<ele>41.7</ele>
<time>2018-05-27T07:55:19Z</time>
<speed>23.1</speed>
</trkpt>
<trkpt lat="55.049759" lon="11.983333">
<ele>42.2</ele>
<time>2018-05-27T07:55:20Z</time>
<speed>23.1</speed>
</trkpt>
<trkpt lat="55.049948" lon="11.983183">
<ele>42.1</ele>
<time>2018-05-27T07:55:21Z</time>
<speed>23.1</speed>
</trkpt>
<trkpt lat="55.050132" lon="11.983014">
<ele>42.4</ele>
<time>2018-05-27T07:55:22Z</time>
<speed>23.1</speed>
</trkpt>
<trkpt lat="55.050322" lon="11.982864">
<ele>42.3</ele>
<time>2018-05-27T07:55:23Z</time>
<speed>23.1</speed>
</trkpt>
<trkpt lat="55.050511" lon="11.982695">
<ele>43.4</ele>
<time>2018-05-27T07:55:24Z</time>
<speed>23.1</speed>
</trkpt>
<trkpt lat="55.050693" lon="11.982542">
<ele>43.9</ele>
<time>2018-05-27T07:55:25Z</time>
<speed>23.1</speed>
</trkpt>
<trkpt lat="55.050877" lon="11.982373">
<ele>44.2</ele>
<time>2018-05-27T07:55:26Z</time>
<speed>23.1</speed>
</trkpt>
<trkpt lat="55.051061" lon="11.982204">
<ele>44.5</ele>
<time>2018-05-27T07:55:27Z</time>
<speed>23.1</speed>
</trkpt>
<trkpt lat="55.051247" lon="11.982020">
<ele>44.7</ele>
<time>2018-05-27T07:55:28Z</time>
<speed>23.1</speed>
</trkpt>
<trkpt lat="55.051431" lon="11.981851">
<ele>45.0</ele>
<time>2018-05-27T07:55:29Z</time>
<speed>23.3</speed>
</trkpt>
<trkpt lat="55.051616" lon="11.981667">
<ele>45.2</ele>
<time>2018-05-27T07:55:30Z</time>
<speed>23.3</speed>
</trkpt>
<trkpt lat="55.051800" lon="11.981498">
<ele>45.6</ele>
<time>2018-05-27T07:55:31Z</time>
<speed>23.3</speed>
</trkpt>
<trkpt lat="55.051979" lon="11.981311">
<ele>46.3</ele>
<time>2018-05-27T07:55:32Z</time>
<speed>23.1</speed>
</trkpt>
<trkpt lat="55.052164" lon="11.981127">
<ele>46.5</ele>
<time>2018-05-27T07:55:33Z</time>
<speed>23.1</speed>
</trkpt>
<trkpt lat="55.052343" lon="11.980958">
<ele>46.1</ele>
<time>2018-05-27T07:55:34Z</time>
<speed>23.1</speed>
</trkpt>
<trkpt lat="55.052521" lon="11.980771">
<ele>46.8</ele>
<time>2018-05-27T07:55:35Z</time>
<speed>23.1</speed>
</trkpt>
<trkpt lat="55.052700" lon="11.980583">
<ele>47.6</ele>
<time>2018-05-27T07:55:36Z</time>
<speed>23.1</speed>
</trkpt>
<trkpt lat="55.052880" lon="11.980399">
<ele>47.0</ele>
<time>2018-05-27T07:55:37Z</time>
<speed>23.1</speed>
</trkpt>
<trkpt lat="55.053058" lon="11.980212">
<ele>47.7</ele>
<time>2018-05-27T07:55:38Z</time>
<speed>23.1</speed>
</trkpt>
<trkpt lat="55.053238" lon="11.980009">
<ele>48.4</ele>
<time>2018-05-27T07:55:39Z</time>
<speed>23.1</speed>
</trkpt>
<trkpt lat="55.053411" lon="11.979822">
<ele>48.3</ele>
<time>2018-05-27T07:55:40Z</time>
<speed>23.1</speed>
</trkpt>
<trkpt lat="55.053590" lon="11.979634">
<ele>49.1</ele>
<time>2018-05-27T07:55:41Z</time>
<speed>23.1</speed>
</trkpt>
<trkpt lat="55.053764" lon="11.979432">
<ele>48.9</ele>
<time>2018-05-27T07:55:42Z</time>
<speed>23.1</speed>
</trkpt>
<trkpt lat="55.053944" lon="11.979229">
<ele>49.6</ele>
<time>2018-05-27T07:55:43Z</time>
<speed>22.8</speed>
</trkpt>
<trkpt lat="55.054117" lon="11.979042">
<ele>49.5</ele>
<time>2018-05-27T07:55:44Z</time>
<speed>23.1</speed>
</trkpt>
<trkpt lat="55.054292" lon="11.978839">
<ele>49.4</ele>
<time>2018-05-27T07:55:45Z</time>
<speed>23.1</speed>
</trkpt>
<trkpt lat="55.054459" lon="11.978633">
<ele>49.8</ele>
<time>2018-05-27T07:55:46Z</time>
<speed>23.1</speed>
</trkpt>
<trkpt lat="55.054634" lon="11.978430">
<ele>49.6</ele>
<time>2018-05-27T07:55:47Z</time>
<speed>23.1</speed>
</trkpt>
<trkpt lat="55.054814" lon="11.978228">
<ele>50.2</ele>
<time>2018-05-27T07:55:48Z</time>
<speed>23.1</speed>
</trkpt>
<trkpt lat="55.054981" lon="11.978022">
<ele>50.6</ele>
<time>2018-05-27T07:55:49Z</time>
<speed>23.1</speed>
</trkpt>
<trkpt lat="55.055149" lon="11.977816">
<ele>51.0</ele>
<time>2018-05-27T07:55:50Z</time>
<speed>23.1</speed>
</trkpt>
<trkpt lat="55.055324" lon="11.977613">
<ele>50.9</ele>
<time>2018-05-27T07:55:51Z</time>
<speed>23.1</speed>
</trkpt>
<trkpt lat="55.055493" lon="11.977392">
<ele>51.1</ele>
<time>2018-05-27T07:55:52Z</time>
<speed>23.1</speed>
</trkpt>
<trkpt lat="55.055660" lon="11.977186">
<ele>51.5</ele>
<time>2018-05-27T07:55:53Z</time>
<speed>23.1</speed>
</trkpt>
<trkpt lat="55.055828" lon="11.976980">
<ele>51.9</ele>
<time>2018-05-27T07:55:54Z</time>
<speed>23.1</speed>
</trkpt>
<trkpt lat="55.055997" lon="11.976759">
<ele>52.2</ele>
<time>2018-05-27T07:55:55Z</time>
<speed>23.1</speed>
</trkpt>
<trkpt lat="55.056164" lon="11.976553">
<ele>52.6</ele>
<time>2018-05-27T07:55:56Z</time>
<speed>23.1</speed>
</trkpt>
<trkpt lat="55.056328" lon="11.976331">
<ele>52.0</ele>
<time>2018-05-27T07:55:57Z</time>
<speed>23.1</speed>
</trkpt>
<trkpt lat="55.056497" lon="11.976110">
<ele>52.3</ele>
<time>2018-05-27T07:55:58Z</time>
<speed>23.1</speed>
</trkpt>
<trkpt lat="55.056664" lon="11.975904">
<ele>52.7</ele>
<time>2018-05-27T07:55:59Z</time>
<speed>23.1</speed>
</trkpt>
<trkpt lat="55.056833" lon="11.975683">
<ele>53.0</ele>
<time>2018-05-27T07:56:00Z</time>
<speed>23.3</speed>
</trkpt>
<trkpt lat="55.057002" lon="11.975462">
<ele>53.2</ele>
<time>2018-05-27T07:56:01Z</time>
<speed>23.3</speed>
</trkpt>
<trkpt lat="55.057177" lon="11.975240">
<ele>54.3</ele>
<time>2018-05-27T07:56:02Z</time>
<speed>23.1</speed>
</trkpt>
<trkpt lat="55.057339" lon="11.975034">
<ele>53.9</ele>
<time>2018-05-27T07:56:03Z</time>
<speed>23.1</speed>
</trkpt>
<trkpt lat="55.057508" lon="11.974813">
<ele>54.2</ele>
<time>2018-05-27T07:56:04Z</time>
<speed>23.1</speed>
</trkpt>
<trkpt lat="55.057677" lon="11.974592">
<ele>54.5</ele>
<time>2018-05-27T07:56:05Z</time>
<speed>23.1</speed>
</trkpt>
<trkpt lat="55.057844" lon="11.974386">
<ele>54.8</ele>
<time>2018-05-27T07:56:06Z</time>
<speed>23.1</speed>
</trkpt>
<trkpt lat="55.058006" lon="11.974161">
<ele>55.7</ele>
<time>2018-05-27T07:56:07Z</time>
<speed>23.1</speed>
</trkpt>
<trkpt lat="55.058174" lon="11.973955">
<ele>56.1</ele>
<time>2018-05-27T07:56:08Z</time>
<speed>22.8</speed>
</trkpt>
<trkpt lat="55.058337" lon="11.973734">
<ele>55.5</ele>
<time>2018-05-27T07:56:09Z</time>
<speed>22.8</speed>
</trkpt>
<trkpt lat="55.058505" lon="11.973528">
<ele>55.9</ele>
<time>2018-05-27T07:56:10Z</time>
<speed>22.8</speed>
</trkpt>
<trkpt lat="55.058672" lon="11.973322">
<ele>56.3</ele>
<time>2018-05-27T07:56:11Z</time>
<speed>22.8</speed>
</trkpt>
<trkpt lat="55.058840" lon="11.973116">
<ele>56.7</ele>
<time>2018-05-27T07:56:12Z</time>
<speed>22.8</speed>
</trkpt>
<trkpt lat="55.059009" lon="11.972895">
<ele>57.0</ele>
<time>2018-05-27T07:56:13Z</time>
<speed>22.8</speed>
</trkpt>
<trkpt lat="55.059171" lon="11.972689">
<ele>56.5</ele>
<time>2018-05-27T07:56:14Z</time>
<speed>22.8</speed>
</trkpt>
<trkpt lat="55.059339" lon="11.972483">
<ele>56.9</ele>
<time>2018-05-27T07:56:15Z</time>
<speed>22.8</speed>
</trkpt>
<trkpt lat="55.059513" lon="11.972280">
<ele>56.8</ele>
<time>2018-05-27T07:56:16Z</time>
<speed>22.8</speed>
</trkpt>
<trkpt lat="55.059681" lon="11.972074">
<ele>57.2</ele>
<time>2018-05-27T07:56:17Z</time>
<speed>22.8</speed>
</trkpt>
<trkpt lat="55.059848" lon="11.971868">
<ele>57.6</ele>
<time>2018-05-27T07:56:18Z</time>
<speed>22.5</speed>
</trkpt>
<trkpt lat="55.060021" lon="11.971681">
<ele>57.5</ele>
<time>2018-05-27T07:56:19Z</time>
<speed>22.5</speed>
</trkpt>
<trkpt lat="55.060184" lon="11.971475">
<ele>57.1</ele>
<time>2018-05-27T07:56:20Z</time>
<speed>22.5</speed>
</trkpt>
<trkpt lat="55.060357" lon="11.971287">
<ele>57.0</ele>
<time>2018-05-27T07:56:21Z</time>
<speed>22.5</speed>
</trkpt>
<trkpt lat="55.060532" lon="11.971085">
<ele>56.9</ele>
<time>2018-05-27T07:56:22Z</time>
<speed>22.8</speed>
</trkpt>
<trkpt lat="55.060705" lon="11.970897">
<ele>56.8</ele>
<time>2018-05-27T07:56:23Z</time>
<speed>22.8</speed>
</trkpt>
<trkpt lat="55.060878" lon="11.970710">
<ele>56.8</ele>
<time>2018-05-27T07:56:24Z</time>
<speed>22.8</speed>
</trkpt>
<trkpt lat="55.061051" lon="11.970522">
<ele>56.7</ele>
<time>2018-05-27T07:56:25Z</time>
<speed>22.8</speed>
</trkpt>
<trkpt lat="55.061224" lon="11.970335">
<ele>56.7</ele>
<time>2018-05-27T07:56:26Z</time>
<speed>22.8</speed>
</trkpt>
<trkpt lat="55.061397" lon="11.970147">
<ele>56.6</ele>
<time>2018-05-27T07:56:27Z</time>
<speed>22.8</speed>
</trkpt>
<trkpt lat="55.061578" lon="11.969963">
<ele>56.0</ele>
<time>2018-05-27T07:56:28Z</time>
<speed>22.8</speed>
</trkpt>
<trkpt lat="55.061751" lon="11.969776">
<ele>56.0</ele>
<time>2018-05-27T07:56:29Z</time>
<speed>22.8</speed>
</trkpt>
<trkpt lat="55.061929" lon="11.969588">
<ele>56.8</ele>
<time>2018-05-27T07:56:30Z</time>
<speed>22.8</speed>
</trkpt>
<trkpt lat="55.062109" lon="11.969404">
<ele>56.1</ele>
<time>2018-05-27T07:56:31Z</time>
<speed>22.8</speed>
</trkpt>
<trkpt lat="55.062288" lon="11.969235">
<ele>55.7</ele>
<time>2018-05-27T07:56:32Z</time>
<speed>22.8</speed>
</trkpt>
<trkpt lat="55.062460" lon="11.969063">
<ele>55.7</ele>
<time>2018-05-27T07:56:33Z</time>
<speed>22.5</speed>
</trkpt>
<trkpt lat="55.062640" lon="11.968879">
<ele>55.1</ele>
<time>2018-05-27T07:56:34Z</time>
<speed>23.1</speed>
</trkpt>
<trkpt lat="55.062817" lon="11.968707">
<ele>56.0</ele>
<time>2018-05-27T07:56:35Z</time>
<speed>22.5</speed>
</trkpt>
<trkpt lat="55.062989" lon="11.968534">
<ele>56.1</ele>
<time>2018-05-27T07:56:36Z</time>
<speed>22.5</speed>
</trkpt>
<trkpt lat="55.063165" lon="11.968362">
<ele>57.0</ele>
<time>2018-05-27T07:56:37Z</time>
<speed>22.5</speed>
</trkpt>
<trkpt lat="55.063343" lon="11.968209">
<ele>56.6</ele>
<time>2018-05-27T07:56:38Z</time>
<speed>22.2</speed>
</trkpt>
<trkpt lat="55.063527" lon="11.968040">
<ele>56.9</ele>
<time>2018-05-27T07:56:39Z</time>
<speed>22.2</speed>
</trkpt>
<trkpt lat="55.063698" lon="11.967868">
<ele>57.0</ele>
<time>2018-05-27T07:56:40Z</time>
<speed>22.2</speed>
</trkpt>
<trkpt lat="55.063888" lon="11.967717">
<ele>56.9</ele>
<time>2018-05-27T07:56:41Z</time>
<speed>22.2</speed>
</trkpt>
<trkpt lat="55.064067" lon="11.967548">
<ele>56.4</ele>
<time>2018-05-27T07:56:42Z</time>
<speed>22.2</speed>
</trkpt>
<trkpt lat="55.064245" lon="11.967379">
<ele>55.9</ele>
<time>2018-05-27T07:56:43Z</time>
<speed>22.2</speed>
</trkpt>
<trkpt lat="55.064428" lon="11.967226">
<ele>56.4</ele>
<time>2018-05-27T07:56:44Z</time>
<speed>22.2</speed>
</trkpt>
<trkpt lat="55.064612" lon="11.967075">
<ele>55.4</ele>
<time>2018-05-27T07:56:45Z</time>
<speed>22.2</speed>
</trkpt>
<trkpt lat="55.064795" lon="11.966922">
<ele>55.9</ele>
<time>2018-05-27T07:56:46Z</time>
<speed>22.2</speed>
</trkpt>
<trkpt lat="55.064979" lon="11.966771">
<ele>55.0</ele>
<time>2018-05-27T07:56:47Z</time>
<speed>22.5</speed>
</trkpt>
<trkpt lat="55.065162" lon="11.966618">
<ele>55.4</ele>
<time>2018-05-27T07:56:48Z</time>
<speed>22.5</speed>
</trkpt>
<trkpt lat="55.065339" lon="11.966464">
<ele>55.1</ele>
<time>2018-05-27T07:56:49Z</time>
<speed>22.5</speed>
</trkpt>
<trkpt lat="55.065529" lon="11.966314">
<ele>54.9</ele>
<time>2018-05-27T07:56:50Z</time>
<speed>22.8</speed>
</trkpt>
<trkpt lat="55.065711" lon="11.966160">
<ele>55.4</ele>
<time>2018-05-27T07:56:51Z</time>
<speed>22.8</speed>
</trkpt>
<trkpt lat="55.065896" lon="11.966010">
<ele>54.5</ele>
<time>2018-05-27T07:56:52Z</time>
<speed>22.8</speed>
</trkpt>
<trkpt lat="55.066078" lon="11.965856">
<ele>54.9</ele>
<time>2018-05-27T07:56:53Z</time>
<speed>22.8</speed>
</trkpt>
<trkpt lat="55.066268" lon="11.965706">
<ele>54.8</ele>
<time>2018-05-27T07:56:54Z</time>
<speed>22.8</speed>
</trkpt>
<trkpt lat="55.066451" lon="11.965571">
<ele>54.0</ele>
<time>2018-05-27T07:56:55Z</time>
<speed>22.5</speed>
</trkpt>
<trkpt lat="55.066633" lon="11.965417">
<ele>54.5</ele>
<time>2018-05-27T07:56:56Z</time>
<speed>22.5</speed>
</trkpt>
<trkpt lat="55.066821" lon="11.965282">
<ele>54.5</ele>
<time>2018-05-27T07:56:57Z</time>
<speed>22.5</speed>
</trkpt>
<trkpt lat="55.067009" lon="11.965147">
<ele>54.5</ele>
<time>2018-05-27T07:56:58Z</time>
<speed>22.5</speed>
</trkpt>
<trkpt lat="55.067190" lon="11.965009">
<ele>55.0</ele>
<time>2018-05-27T07:56:59Z</time>
<speed>22.5</speed>
</trkpt>
<trkpt lat="55.067383" lon="11.964874">
<ele>55.9</ele>
<time>2018-05-27T07:57:00Z</time>
<speed>22.5</speed>
</trkpt>
<trkpt lat="55.067564" lon="11.964735">
<ele>56.4</ele>
<time>2018-05-27T07:57:01Z</time>
<speed>22.5</speed>
</trkpt>
<trkpt lat="55.067756" lon="11.964616">
<ele>57.4</ele>
<time>2018-05-27T07:57:02Z</time>
<speed>22.5</speed>
</trkpt>
<trkpt lat="55.067941" lon="11.964492">
<ele>58.9</ele>
<time>2018-05-27T07:57:03Z</time>
<speed>22.5</speed>
</trkpt>
<trkpt lat="55.068129" lon="11.964357">
<ele>58.9</ele>
<time>2018-05-27T07:57:04Z</time>
<speed>22.5</speed>
</trkpt>
<trkpt lat="55.068315" lon="11.964238">
<ele>59.0</ele>
<time>2018-05-27T07:57:05Z</time>
<speed>22.2</speed>
</trkpt>
<trkpt lat="55.068507" lon="11.964118">
<ele>60.0</ele>
<time>2018-05-27T07:57:06Z</time>
<speed>22.2</speed>
</trkpt>
<trkpt lat="55.068694" lon="11.963998">
<ele>60.1</ele>
<time>2018-05-27T07:57:07Z</time>
<speed>22.5</speed>
</trkpt>
<trkpt lat="55.068880" lon="11.963878">
<ele>60.3</ele>
<time>2018-05-27T07:57:08Z</time>
<speed>22.2</speed>
</trkpt>
<trkpt lat="55.069079" lon="11.963762">
<ele>60.6</ele>
<time>2018-05-27T07:57:09Z</time>
<speed>22.2</speed>
</trkpt>
<trkpt lat="55.069260" lon="11.963642">
<ele>60.0</ele>
<time>2018-05-27T07:57:10Z</time>
<speed>22.2</speed>
</trkpt>
<trkpt lat="55.069447" lon="11.963522">
<ele>60.1</ele>
<time>2018-05-27T07:57:11Z</time>
<speed>22.2</speed>
</trkpt>
<trkpt lat="55.069646" lon="11.963406">
<ele>60.5</ele>
<time>2018-05-27T07:57:12Z</time>
<speed>22.2</speed>
</trkpt>
<trkpt lat="55.069833" lon="11.963286">
<ele>60.6</ele>
<time>2018-05-27T07:57:13Z</time>
<speed>22.2</speed>
</trkpt>
<trkpt lat="55.070026" lon="11.963169">
<ele>60.2</ele>
<time>2018-05-27T07:57:14Z</time>
<speed>22.2</speed>
</trkpt>
<trkpt lat="55.070206" lon="11.963065">
<ele>59.6</ele>
<time>2018-05-27T07:57:15Z</time>
<speed>22.2</speed>
</trkpt>
<trkpt lat="55.070400" lon="11.962948">
<ele>59.2</ele>
<time>2018-05-27T07:57:16Z</time>
<speed>22.2</speed>
</trkpt>
<trkpt lat="55.070587" lon="11.962829">
<ele>59.3</ele>
<time>2018-05-27T07:57:17Z</time>
<speed>22.2</speed>
</trkpt>
<trkpt lat="55.070780" lon="11.962712">
<ele>58.9</ele>
<time>2018-05-27T07:57:18Z</time>
<speed>22.2</speed>
</trkpt>
<trkpt lat="55.070968" lon="11.962577">
<ele>58.9</ele>
<time>2018-05-27T07:57:19Z</time>
<speed>22.2</speed>
</trkpt>
<trkpt lat="55.071162" lon="11.962460">
<ele>58.5</ele>
<time>2018-05-27T07:57:20Z</time>
<speed>22.2</speed>
</trkpt>
<trkpt lat="55.071349" lon="11.962341">
<ele>58.6</ele>
<time>2018-05-27T07:57:21Z</time>
<speed>22.2</speed>
</trkpt>
<trkpt lat="55.071543" lon="11.962224">
<ele>58.2</ele>
<time>2018-05-27T07:57:22Z</time>
<speed>22.5</speed>
</trkpt>
<trkpt lat="55.071736" lon="11.962108">
<ele>57.7</ele>
<time>2018-05-27T07:57:23Z</time>
<speed>22.5</speed>
</trkpt>
<trkpt lat="55.071923" lon="11.961988">
<ele>57.9</ele>
<time>2018-05-27T07:57:24Z</time>
<speed>22.5</speed>
</trkpt>
<trkpt lat="55.072117" lon="11.961871">
<ele>57.4</ele>
<time>2018-05-27T07:57:25Z</time>
<speed>22.5</speed>
</trkpt>
<trkpt lat="55.072312" lon="11.961739">
<ele>56.9</ele>
<time>2018-05-27T07:57:26Z</time>
<speed>22.5</speed>
</trkpt>
<trkpt lat="55.072499" lon="11.961620">
<ele>57.0</ele>
<time>2018-05-27T07:57:27Z</time>
<speed>22.5</speed>
</trkpt>
<trkpt lat="55.072694" lon="11.961488">
<ele>56.5</ele>
<time>2018-05-27T07:57:28Z</time>
<speed>22.5</speed>
</trkpt>
<trkpt lat="55.072881" lon="11.961368">
<ele>56.6</ele>
<time>2018-05-27T07:57:29Z</time>
<speed>22.8</speed>
</trkpt>
<trkpt lat="55.073069" lon="11.961233">
<ele>56.6</ele>
<time>2018-05-27T07:57:30Z</time>
<speed>22.8</speed>
</trkpt>
<trkpt lat="55.073264" lon="11.961101">
<ele>56.1</ele>
<time>2018-05-27T07:57:31Z</time>
<speed>22.8</speed>
</trkpt>
<trkpt lat="55.073452" lon="11.960966">
<ele>56.1</ele>
<time>2018-05-27T07:57:32Z</time>
<speed>22.8</speed>
</trkpt>
<trkpt lat="55.073640" lon="11.960831">
<ele>56.1</ele>
<time>2018-05-27T07:57:33Z</time>
<speed>22.8</speed>
</trkpt>
<trkpt lat="55.073833" lon="11.960696">
<ele>56.9</ele>
<time>2018-05-27T07:57:34Z</time>
<speed>22.8</speed>
</trkpt>
<trkpt lat="55.074021" lon="11.960561">
<ele>56.9</ele>
<time>2018-05-27T07:57:35Z</time>
<speed>22.8</speed>
</trkpt>
<trkpt lat="55.074211" lon="11.960410">
<ele>56.8</ele>
<time>2018-05-27T07:57:36Z</time>
<speed>22.8</speed>
</trkpt>
<trkpt lat="55.074399" lon="11.960275">
<ele>56.9</ele>
<time>2018-05-27T07:57:37Z</time>
<speed>22.8</speed>
</trkpt>
<trkpt lat="55.074584" lon="11.960125">
<ele>55.9</ele>
<time>2018-05-27T07:57:38Z</time>
<speed>22.8</speed>
</trkpt>
<trkpt lat="55.074781" lon="11.959977">
<ele>55.3</ele>
<time>2018-05-27T07:57:39Z</time>
<speed>22.8</speed>
</trkpt>
<trkpt lat="55.074961" lon="11.959839">
<ele>55.8</ele>
<time>2018-05-27T07:57:40Z</time>
<speed>22.8</speed>
</trkpt>
<trkpt lat="55.075151" lon="11.959689">
<ele>55.7</ele>
<time>2018-05-27T07:57:41Z</time>
<speed>22.8</speed>
</trkpt>
<trkpt lat="55.075336" lon="11.959538">
<ele>54.8</ele>
<time>2018-05-27T07:57:42Z</time>
<speed>22.8</speed>
</trkpt>
<trkpt lat="55.075525" lon="11.959388">
<ele>54.7</ele>
<time>2018-05-27T07:57:43Z</time>
<speed>22.8</speed>
</trkpt>
<trkpt lat="55.075710" lon="11.959237">
<ele>53.8</ele>
<time>2018-05-27T07:57:44Z</time>
<speed>22.5</speed>
</trkpt>
<trkpt lat="55.075892" lon="11.959083">
<ele>54.2</ele>
<time>2018-05-27T07:57:45Z</time>
<speed>22.5</speed>
</trkpt>
<trkpt lat="55.076069" lon="11.958930">
<ele>53.9</ele>
<time>2018-05-27T07:57:46Z</time>
<speed>22.5</speed>
</trkpt>
<trkpt lat="55.076260" lon="11.958764">
<ele>53.7</ele>
<time>2018-05-27T07:57:47Z</time>
<speed>22.8</speed>
</trkpt>
<trkpt lat="55.076438" lon="11.958610">
<ele>53.3</ele>
<time>2018-05-27T07:57:48Z</time>
<speed>22.8</speed>
</trkpt>
<trkpt lat="55.076624" lon="11.958445">
<ele>52.2</ele>
<time>2018-05-27T07:57:49Z</time>
<speed>22.8</speed>
</trkpt>
<trkpt lat="55.076808" lon="11.958276">
<ele>52.6</ele>
<time>2018-05-27T07:57:50Z</time>
<speed>22.5</speed>
</trkpt>
<trkpt lat="55.076994" lon="11.958110">
<ele>51.5</ele>
<time>2018-05-27T07:57:51Z</time>
<speed>22.5</speed>
</trkpt>
<trkpt lat="55.077173" lon="11.957941">
<ele>51.1</ele>
<time>2018-05-27T07:57:52Z</time>
<speed>22.8</speed>
</trkpt>
<trkpt lat="55.077351" lon="11.957772">
<ele>50.6</ele>
<time>2018-05-27T07:57:53Z</time>
<speed>22.8</speed>
</trkpt>
<trkpt lat="55.077530" lon="11.957603">
<ele>50.1</ele>
<time>2018-05-27T07:57:54Z</time>
<speed>22.8</speed>
</trkpt>
<trkpt lat="55.077714" lon="11.957434">
<ele>50.4</ele>
<time>2018-05-27T07:57:55Z</time>
<speed>22.8</speed>
</trkpt>
<trkpt lat="55.077900" lon="11.957268">
<ele>49.4</ele>
<time>2018-05-27T07:57:56Z</time>
<speed>22.8</speed>
</trkpt>
<trkpt lat="55.078079" lon="11.957099">
<ele>48.9</ele>
<time>2018-05-27T07:57:57Z</time>
<speed>22.8</speed>
</trkpt>
<trkpt lat="55.078264" lon="11.956915">
<ele>49.1</ele>
<time>2018-05-27T07:57:58Z</time>
<speed>22.8</speed>
</trkpt>
<trkpt lat="55.078436" lon="11.956742">
<ele>49.2</ele>
<time>2018-05-27T07:57:59Z</time>
<speed>22.8</speed>
</trkpt>
<trkpt lat="55.078616" lon="11.956558">
<ele>48.6</ele>
<time>2018-05-27T07:58:00Z</time>
<speed>23.1</speed>
</trkpt>
<trkpt lat="55.078793" lon="11.956386">
<ele>49.5</ele>
<time>2018-05-27T07:58:01Z</time>
<speed>23.1</speed>
</trkpt>
<trkpt lat="55.078978" lon="11.956201">
<ele>49.7</ele>
<time>2018-05-27T07:58:02Z</time>
<speed>23.1</speed>
</trkpt>
<trkpt lat="55.079152" lon="11.956014">
<ele>49.7</ele>
<time>2018-05-27T07:58:03Z</time>
<speed>22.8</speed>
</trkpt>
<trkpt lat="55.079330" lon="11.955826">
<ele>50.5</ele>
<time>2018-05-27T07:58:04Z</time>
<speed>22.8</speed>
</trkpt>
<trkpt lat="55.079510" lon="11.955623">
<ele>51.1</ele>
<time>2018-05-27T07:58:05Z</time>
<speed>23.1</speed>
</trkpt>
<trkpt lat="55.079683" lon="11.955436">
<ele>51.1</ele>
<time>2018-05-27T07:58:06Z</time>
<speed>23.1</speed>
</trkpt>
<trkpt lat="55.079861" lon="11.955248">
<ele>51.9</ele>
<time>2018-05-27T07:58:07Z</time>
<speed>22.8</speed>
</trkpt>
<trkpt lat="55.080027" lon="11.955057">
<ele>52.4</ele>
<time>2018-05-27T07:58:08Z</time>
<speed>23.1</speed>
</trkpt>
<trkpt lat="55.080207" lon="11.954854">
<ele>53.1</ele>
<time>2018-05-27T07:58:09Z</time>
<speed>23.1</speed>
</trkpt>
<trkpt lat="55.080387" lon="11.954651">
<ele>53.7</ele>
<time>2018-05-27T07:58:10Z</time>
<speed>23.1</speed>
</trkpt>
<trkpt lat="55.080552" lon="11.954460">
<ele>54.2</ele>
<time>2018-05-27T07:58:11Z</time>
<speed>23.1</speed>
</trkpt>
<trkpt lat="55.080727" lon="11.954258">
<ele>54.1</ele>
<time>2018-05-27T07:58:12Z</time>
<speed>23.1</speed>
</trkpt>
<trkpt lat="55.080900" lon="11.954051">
<ele>55.3</ele>
<time>2018-05-27T07:58:13Z</time>
<speed>23.1</speed>
</trkpt>
<trkpt lat="55.081074" lon="11.953848">
<ele>55.1</ele>
<time>2018-05-27T07:58:14Z</time>
<speed>22.8</speed>
</trkpt>
<trkpt lat="55.081247" lon="11.953642">
<ele>56.4</ele>
<time>2018-05-27T07:58:15Z</time>
<speed>23.1</speed>
</trkpt>
<trkpt lat="55.081421" lon="11.953421">
<ele>57.5</ele>
<time>2018-05-27T07:58:16Z</time>
<speed>23.1</speed>
</trkpt>
<trkpt lat="55.081588" lon="11.953215">
<ele>57.9</ele>
<time>2018-05-27T07:58:17Z</time>
<speed>23.1</speed>
</trkpt>
<trkpt lat="55.081763" lon="11.953012">
<ele>57.7</ele>
<time>2018-05-27T07:58:18Z</time>
<speed>23.1</speed>
</trkpt>
<trkpt lat="55.081932" lon="11.952790">
<ele>58.0</ele>
<time>2018-05-27T07:58:19Z</time>
<speed>22.8</speed>
</trkpt>
<trkpt lat="55.082099" lon="11.952584">
<ele>58.4</ele>
<time>2018-05-27T07:58:20Z</time>
<speed>22.8</speed>
</trkpt>
<trkpt lat="55.082268" lon="11.952362">
<ele>58.7</ele>
<time>2018-05-27T07:58:21Z</time>
<speed>22.8</speed>
</trkpt>
<trkpt lat="55.082431" lon="11.952156">
<ele>58.3</ele>
<time>2018-05-27T07:58:22Z</time>
<speed>22.8</speed>
</trkpt>
<trkpt lat="55.082600" lon="11.951935">
<ele>58.6</ele>
<time>2018-05-27T07:58:23Z</time>
<speed>21.9</speed>
</trkpt>
<trkpt lat="55.082755" lon="11.951725">
<ele>58.7</ele>
<time>2018-05-27T07:58:24Z</time>
<speed>22.5</speed>
</trkpt>
<trkpt lat="55.082919" lon="11.951504">
<ele>58.2</ele>
<time>2018-05-27T07:58:25Z</time>
<speed>23.1</speed>
</trkpt>
<trkpt lat="55.083088" lon="11.951282">
<ele>58.4</ele>
<time>2018-05-27T07:58:26Z</time>
<speed>23.1</speed>
</trkpt>
<trkpt lat="55.083251" lon="11.951061">
<ele>57.9</ele>
<time>2018-05-27T07:58:27Z</time>
<speed>22.8</speed>
</trkpt>
<trkpt lat="55.083413" lon="11.950836">
<ele>58.8</ele>
<time>2018-05-27T07:58:28Z</time>
<speed>22.8</speed>
</trkpt>
<trkpt lat="55.083577" lon="11.950614">
<ele>58.2</ele>
<time>2018-05-27T07:58:29Z</time>
<speed>22.5</speed>
</trkpt>
<trkpt lat="55.083741" lon="11.950393">
<ele>57.7</ele>
<time>2018-05-27T07:58:30Z</time>
<speed>22.8</speed>
</trkpt>
<trkpt lat="55.083897" lon="11.950168">
<ele>57.7</ele>
<time>2018-05-27T07:58:31Z</time>
<speed>22.8</speed>
</trkpt>
<trkpt lat="55.084066" lon="11.949947">
<ele>58.0</ele>
<time>2018-05-27T07:58:32Z</time>
<speed>22.8</speed>
</trkpt>
<trkpt lat="55.084230" lon="11.949725">
<ele>57.5</ele>
<time>2018-05-27T07:58:33Z</time>
<speed>22.8</speed>
</trkpt>
<trkpt lat="55.084394" lon="11.949504">
<ele>56.9</ele>
<time>2018-05-27T07:58:34Z</time>
<speed>22.8</speed>
</trkpt>
<trkpt lat="55.084558" lon="11.949282">
<ele>56.4</ele>
<time>2018-05-27T07:58:35Z</time>
<speed>22.8</speed>
</trkpt>
<trkpt lat="55.084718" lon="11.949073">
<ele>57.4</ele>
<time>2018-05-27T07:58:36Z</time>
<speed>22.8</speed>
</trkpt>
<trkpt lat="55.084882" lon="11.948851">
<ele>56.8</ele>
<time>2018-05-27T07:58:37Z</time>
<speed>22.8</speed>
</trkpt>
<trkpt lat="55.085046" lon="11.948630">
<ele>56.3</ele>
<time>2018-05-27T07:58:38Z</time>
<speed>22.8</speed>
</trkpt>
<trkpt lat="55.085215" lon="11.948408">
<ele>56.6</ele>
<time>2018-05-27T07:58:39Z</time>
<speed>22.8</speed>
</trkpt>
<trkpt lat="55.085378" lon="11.948186">
<ele>56.0</ele>
<time>2018-05-27T07:58:40Z</time>
<speed>22.8</speed>
</trkpt>
<trkpt lat="55.085546" lon="11.947980">
<ele>56.4</ele>
<time>2018-05-27T07:58:41Z</time>
<speed>22.8</speed>
</trkpt>
<trkpt lat="55.085710" lon="11.947759">
<ele>55.9</ele>
<time>2018-05-27T07:58:42Z</time>
<speed>22.8</speed>
</trkpt>
<trkpt lat="55.085872" lon="11.947552">
<ele>55.5</ele>
<time>2018-05-27T07:58:43Z</time>
<speed>22.8</speed>
</trkpt>
<trkpt lat="55.086041" lon="11.947331">
<ele>55.8</ele>
<time>2018-05-27T07:58:44Z</time>
<speed>22.5</speed>
</trkpt>
<trkpt lat="55.086203" lon="11.947125">
<ele>55.4</ele>
<time>2018-05-27T07:58:45Z</time>
<speed>22.8</speed>
</trkpt>
<trkpt lat="55.086378" lon="11.946922">
<ele>55.2</ele>
<time>2018-05-27T07:58:46Z</time>
<speed>22.8</speed>
</trkpt>
<trkpt lat="55.086545" lon="11.946715">
<ele>55.6</ele>
<time>2018-05-27T07:58:47Z</time>
<speed>22.8</speed>
</trkpt>
<trkpt lat="55.086713" lon="11.946528">
<ele>54.8</ele>
<time>2018-05-27T07:58:48Z</time>
<speed>22.8</speed>
</trkpt>
<trkpt lat="55.086888" lon="11.946325">
<ele>54.6</ele>
<time>2018-05-27T07:58:49Z</time>
<speed>23.1</speed>
</trkpt>
<trkpt lat="55.087062" lon="11.946122">
<ele>54.5</ele>
<time>2018-05-27T07:58:50Z</time>
<speed>23.1</speed>
</trkpt>
<trkpt lat="55.087238" lon="11.945937">
<ele>53.0</ele>
<time>2018-05-27T07:58:51Z</time>
<speed>23.1</speed>
</trkpt>
<trkpt lat="55.087412" lon="11.945734">
<ele>52.9</ele>
<time>2018-05-27T07:58:52Z</time>
<speed>23.3</speed>
</trkpt>
<trkpt lat="55.087592" lon="11.945550">
<ele>52.3</ele>
<time>2018-05-27T07:58:53Z</time>
<speed>23.3</speed>
</trkpt>
<trkpt lat="55.087768" lon="11.945365">
<ele>50.9</ele>
<time>2018-05-27T07:58:54Z</time>
<speed>23.1</speed>
</trkpt>
<trkpt lat="55.087948" lon="11.945181">
<ele>50.3</ele>
<time>2018-05-27T07:58:55Z</time>
<speed>23.3</speed>
</trkpt>
<trkpt lat="55.088128" lon="11.944997">
<ele>49.7</ele>
<time>2018-05-27T07:58:56Z</time>
<speed>23.3</speed>
</trkpt>
<trkpt lat="55.088314" lon="11.944812">
<ele>49.9</ele>
<time>2018-05-27T07:58:57Z</time>
<speed>23.1</speed>
</trkpt>
<trkpt lat="55.088493" lon="11.944643">
<ele>49.4</ele>
<time>2018-05-27T07:58:58Z</time>
<speed>23.1</speed>
</trkpt>
<trkpt lat="55.088673" lon="11.944459">
<ele>48.8</ele>
<time>2018-05-27T07:58:59Z</time>
<speed>23.1</speed>
</trkpt>
<trkpt lat="55.088852" lon="11.944289">
<ele>48.4</ele>
<time>2018-05-27T07:59:00Z</time>
<speed>23.1</speed>
</trkpt>
<trkpt lat="55.089032" lon="11.944105">
<ele>47.8</ele>
<time>2018-05-27T07:59:01Z</time>
<speed>23.1</speed>
</trkpt>
<trkpt lat="55.089209" lon="11.943933">
<ele>48.7</ele>
<time>2018-05-27T07:59:02Z</time>
<speed>23.1</speed>
</trkpt>
<trkpt lat="55.089394" lon="11.943748">
<ele>48.9</ele>
<time>2018-05-27T07:59:03Z</time>
<speed>23.3</speed>
</trkpt>
<trkpt lat="55.089585" lon="11.943582">
<ele>48.7</ele>
<time>2018-05-27T07:59:04Z</time>
<speed>23.3</speed>
</trkpt>
<trkpt lat="55.089769" lon="11.943413">
<ele>49.0</ele>
<time>2018-05-27T07:59:05Z</time>
<speed>23.1</speed>
</trkpt>
<trkpt lat="55.089953" lon="11.943244">
<ele>49.4</ele>
<time>2018-05-27T07:59:06Z</time>
<speed>23.1</speed>
</trkpt>
<trkpt lat="55.090144" lon="11.943078">
<ele>49.2</ele>
<time>2018-05-27T07:59:07Z</time>
<speed>23.3</speed>
</trkpt>
<trkpt lat="55.090333" lon="11.942909">
<ele>50.3</ele>
<time>2018-05-27T07:59:08Z</time>
<speed>23.1</speed>
</trkpt>
<trkpt lat="55.090516" lon="11.942755">
<ele>50.8</ele>
<time>2018-05-27T07:59:09Z</time>
<speed>23.3</speed>
</trkpt>
<trkpt lat="55.090712" lon="11.942589">
<ele>51.4</ele>
<time>2018-05-27T07:59:10Z</time>
<speed>23.1</speed>
</trkpt>
<trkpt lat="55.090894" lon="11.942435">
<ele>51.8</ele>
<time>2018-05-27T07:59:11Z</time>
<speed>23.1</speed>
</trkpt>
<trkpt lat="55.091084" lon="11.942285">
<ele>51.7</ele>
<time>2018-05-27T07:59:12Z</time>
<speed>23.1</speed>
</trkpt>
<trkpt lat="55.091271" lon="11.942131">
<ele>53.0</ele>
<time>2018-05-27T07:59:13Z</time>
<speed>23.1</speed>
</trkpt>
<trkpt lat="55.091468" lon="11.941965">
<ele>53.6</ele>
<time>2018-05-27T07:59:14Z</time>
<speed>23.1</speed>
</trkpt>
<trkpt lat="55.091660" lon="11.941811">
<ele>55.7</ele>
<time>2018-05-27T07:59:15Z</time>
<speed>23.1</speed>
</trkpt>
<trkpt lat="55.091848" lon="11.941657">
<ele>57.0</ele>
<time>2018-05-27T07:59:16Z</time>
<speed>23.1</speed>
</trkpt>
<trkpt lat="55.092043" lon="11.941507">
<ele>57.7</ele>
<time>2018-05-27T07:59:17Z</time>
<speed>22.8</speed>
</trkpt>
<trkpt lat="55.092229" lon="11.941368">
<ele>59.1</ele>
<time>2018-05-27T07:59:18Z</time>
<speed>22.8</speed>
</trkpt>
<trkpt lat="55.092416" lon="11.941215">
<ele>60.4</ele>
<time>2018-05-27T07:59:19Z</time>
<speed>23.1</speed>
</trkpt>
<trkpt lat="55.092607" lon="11.941076">
<ele>62.7</ele>
<time>2018-05-27T07:59:20Z</time>
<speed>22.8</speed>
</trkpt>
<trkpt lat="55.092793" lon="11.940937">
<ele>64.1</ele>
<time>2018-05-27T07:59:21Z</time>
<speed>22.8</speed>
</trkpt>
<trkpt lat="55.092978" lon="11.940814">
<ele>65.6</ele>
<time>2018-05-27T07:59:22Z</time>
<speed>22.8</speed>
</trkpt>
<trkpt lat="55.093159" lon="11.940676">
<ele>66.2</ele>
<time>2018-05-27T07:59:23Z</time>
<speed>22.8</speed>
</trkpt>
<trkpt lat="55.093350" lon="11.940556">
<ele>67.1</ele>
<time>2018-05-27T07:59:24Z</time>
<speed>22.8</speed>
</trkpt>
<trkpt lat="55.093536" lon="11.940417">
<ele>68.5</ele>
<time>2018-05-27T07:59:25Z</time>
<speed>22.8</speed>
</trkpt>
<trkpt lat="55.093728" lon="11.940297">
<ele>69.5</ele>
<time>2018-05-27T07:59:26Z</time>
<speed>22.8</speed>
</trkpt>
<trkpt lat="55.093915" lon="11.940177">
<ele>69.6</ele>
<time>2018-05-27T07:59:27Z</time>
<speed>22.8</speed>
</trkpt>
<trkpt lat="55.094106" lon="11.940057">
<ele>70.6</ele>
<time>2018-05-27T07:59:28Z</time>
<speed>22.8</speed>
</trkpt>
<trkpt lat="55.094300" lon="11.939941">
<ele>70.2</ele>
<time>2018-05-27T07:59:29Z</time>
<speed>22.8</speed>
</trkpt>
<trkpt lat="55.094494" lon="11.939824">
<ele>69.7</ele>
<time>2018-05-27T07:59:30Z</time>
<speed>22.8</speed>
</trkpt>
<trkpt lat="55.094695" lon="11.939711">
<ele>68.8</ele>
<time>2018-05-27T07:59:31Z</time>
<speed>22.8</speed>
</trkpt>
<trkpt lat="55.094887" lon="11.939609">
<ele>68.5</ele>
<time>2018-05-27T07:59:32Z</time>
<speed>22.8</speed>
</trkpt>
<trkpt lat="55.095093" lon="11.939496">
<ele>68.3</ele>
<time>2018-05-27T07:59:33Z</time>
<speed>22.8</speed>
</trkpt>
<trkpt lat="55.095286" lon="11.939394">
<ele>68.0</ele>
<time>2018-05-27T07:59:34Z</time>
<speed>22.8</speed>
</trkpt>
<trkpt lat="55.095486" lon="11.939281">
<ele>67.0</ele>
<time>2018-05-27T07:59:35Z</time>
<speed>23.1</speed>
</trkpt>
<trkpt lat="55.095686" lon="11.939183">
<ele>66.2</ele>
<time>2018-05-27T07:59:36Z</time>
<speed>23.1</speed>
</trkpt>
<trkpt lat="55.095885" lon="11.939084">
<ele>65.3</ele>
<time>2018-05-27T07:59:37Z</time>
<speed>23.3</speed>
</trkpt>
<trkpt lat="55.096090" lon="11.938986">
<ele>65.3</ele>
<time>2018-05-27T07:59:38Z</time>
<speed>23.1</speed>
</trkpt>
<trkpt lat="55.096289" lon="11.938888">
<ele>64.4</ele>
<time>2018-05-27T07:59:39Z</time>
<speed>23.1</speed>
</trkpt>
<trkpt lat="55.096496" lon="11.938793">
<ele>63.0</ele>
<time>2018-05-27T07:59:40Z</time>
<speed>23.6</speed>
</trkpt>
<trkpt lat="55.096708" lon="11.938698">
<ele>62.4</ele>
<time>2018-05-27T07:59:41Z</time>
<speed>23.6</speed>
</trkpt>
<trkpt lat="55.096927" lon="11.938607">
<ele>61.2</ele>
<time>2018-05-27T07:59:42Z</time>
<speed>24.7</speed>
</trkpt>
<trkpt lat="55.097146" lon="11.938515">
<ele>60.1</ele>
<time>2018-05-27T07:59:43Z</time>
<speed>24.7</speed>
</trkpt>
<trkpt lat="55.097365" lon="11.938423">
<ele>58.9</ele>
<time>2018-05-27T07:59:44Z</time>
<speed>24.7</speed>
</trkpt>
<trkpt lat="55.097586" lon="11.938335">
<ele>56.4</ele>
<time>2018-05-27T07:59:45Z</time>
<speed>25.0</speed>
</trkpt>
<trkpt lat="55.097817" lon="11.938246">
<ele>55.5</ele>
<time>2018-05-27T07:59:46Z</time>
<speed>25.0</speed>
</trkpt>
<trkpt lat="55.098043" lon="11.938158">
<ele>53.8</ele>
<time>2018-05-27T07:59:47Z</time>
<speed>26.1</speed>
</trkpt>
<trkpt lat="55.098275" lon="11.938069">
<ele>52.9</ele>
<time>2018-05-27T07:59:48Z</time>
<speed>26.1</speed>
</trkpt>
<trkpt lat="55.098510" lon="11.937969">
<ele>50.5</ele>
<time>2018-05-27T07:59:49Z</time>
<speed>26.1</speed>
</trkpt>
<trkpt lat="55.098741" lon="11.937880">
<ele>49.6</ele>
<time>2018-05-27T07:59:50Z</time>
<speed>26.4</speed>
</trkpt>
<trkpt lat="55.098980" lon="11.937795">
<ele>48.1</ele>
<time>2018-05-27T07:59:51Z</time>
<speed>26.4</speed>
</trkpt>
<trkpt lat="55.099223" lon="11.937710">
<ele>47.5</ele>
<time>2018-05-27T07:59:52Z</time>
<speed>27.2</speed>
</trkpt>
<trkpt lat="55.099462" lon="11.937625">
<ele>46.0</ele>
<time>2018-05-27T07:59:53Z</time>
<speed>27.2</speed>
</trkpt>
<trkpt lat="55.099706" lon="11.937540">
<ele>45.4</ele>
<time>2018-05-27T07:59:54Z</time>
<speed>27.2</speed>
</trkpt>
<trkpt lat="55.099951" lon="11.937458">
<ele>43.4</ele>
<time>2018-05-27T07:59:55Z</time>
<speed>26.9</speed>
</trkpt>
<trkpt lat="55.100193" lon="11.937388">
<ele>42.9</ele>
<time>2018-05-27T07:59:56Z</time>
<speed>26.9</speed>
</trkpt>
<trkpt lat="55.100437" lon="11.937302">
<ele>42.2</ele>
<time>2018-05-27T07:59:57Z</time>
<speed>26.9</speed>
</trkpt>
<trkpt lat="55.100679" lon="11.937233">
<ele>41.7</ele>
<time>2018-05-27T07:59:58Z</time>
<speed>26.9</speed>
</trkpt>
<trkpt lat="55.100929" lon="11.937166">
<ele>40.6</ele>
<time>2018-05-27T07:59:59Z</time>
<speed>27.2</speed>
</trkpt>
<trkpt lat="55.101172" lon="11.937081">
<ele>40.0</ele>
<time>2018-05-27T08:00:00Z</time>
<speed>27.5</speed>
</trkpt>
<trkpt lat="55.101415" lon="11.937011">
<ele>39.5</ele>
<time>2018-05-27T08:00:01Z</time>
<speed>27.5</speed>
</trkpt>
<trkpt lat="55.101665" lon="11.936929">
<ele>38.3</ele>
<time>2018-05-27T08:00:02Z</time>
<speed>28.1</speed>
</trkpt>
<trkpt lat="55.101920" lon="11.936862">
<ele>38.0</ele>
<time>2018-05-27T08:00:03Z</time>
<speed>27.8</speed>
</trkpt>
<trkpt lat="55.102169" lon="11.936795">
<ele>36.9</ele>
<time>2018-05-27T08:00:04Z</time>
<speed>27.8</speed>
</trkpt>
<trkpt lat="55.102419" lon="11.936729">
<ele>35.9</ele>
<time>2018-05-27T08:00:05Z</time>
<speed>27.2</speed>
</trkpt>
<trkpt lat="55.102659" lon="11.936674">
<ele>35.5</ele>
<time>2018-05-27T08:00:06Z</time>
<speed>27.2</speed>
</trkpt>
<trkpt lat="55.102907" lon="11.936604">
<ele>35.8</ele>
<time>2018-05-27T08:00:07Z</time>
<speed>26.9</speed>
</trkpt>
<trkpt lat="55.103141" lon="11.936565">
<ele>34.7</ele>
<time>2018-05-27T08:00:08Z</time>
<speed>26.7</speed>
</trkpt>
<trkpt lat="55.103381" lon="11.936511">
<ele>34.3</ele>
<time>2018-05-27T08:00:09Z</time>
<speed>26.4</speed>
</trkpt>
<trkpt lat="55.103618" lon="11.936468">
<ele>35.4</ele>
<time>2018-05-27T08:00:10Z</time>
<speed>26.4</speed>
</trkpt>
<trkpt lat="55.103858" lon="11.936429">
<ele>35.1</ele>
<time>2018-05-27T08:00:11Z</time>
<speed>26.4</speed>
</trkpt>
<trkpt lat="55.104097" lon="11.936390">
<ele>34.8</ele>
<time>2018-05-27T08:00:12Z</time>
<speed>26.4</speed>
</trkpt>
<trkpt lat="55.104348" lon="11.936354">
<ele>34.8</ele>
<time>2018-05-27T08:00:13Z</time>
<speed>26.7</speed>
</trkpt>
<trkpt lat="55.104587" lon="11.936314">
<ele>34.5</ele>
<time>2018-05-27T08:00:14Z</time>
<speed>26.7</speed>
</trkpt>
<trkpt lat="55.104825" lon="11.936290">
<ele>34.4</ele>
<time>2018-05-27T08:00:15Z</time>
<speed>26.7</speed>
</trkpt>
<trkpt lat="55.105062" lon="11.936266">
<ele>34.2</ele>
<time>2018-05-27T08:00:16Z</time>
<speed>26.7</speed>
</trkpt>
<trkpt lat="55.105293" lon="11.936239">
<ele>34.6</ele>
<time>2018-05-27T08:00:17Z</time>
<speed>25.3</speed>
</trkpt>
<trkpt lat="55.105518" lon="11.936212">
<ele>34.2</ele>
<time>2018-05-27T08:00:18Z</time>
<speed>24.7</speed>
</trkpt>
<trkpt lat="55.105743" lon="11.936185">
<ele>33.7</ele>
<time>2018-05-27T08:00:19Z</time>
<speed>24.7</speed>
</trkpt>
<trkpt lat="55.105960" lon="11.936170">
<ele>34.0</ele>
<time>2018-05-27T08:00:20Z</time>
<speed>24.4</speed>
</trkpt>
<trkpt lat="55.106178" lon="11.936139">
<ele>34.1</ele>
<time>2018-05-27T08:00:21Z</time>
<speed>24.4</speed>
</trkpt>
<trkpt lat="55.106388" lon="11.936140">
<ele>33.7</ele>
<time>2018-05-27T08:00:22Z</time>
<speed>23.3</speed>
</trkpt>
<trkpt lat="55.106599" lon="11.936125">
<ele>33.1</ele>
<time>2018-05-27T08:00:23Z</time>
<speed>23.1</speed>
</trkpt>
<trkpt lat="55.106803" lon="11.936106">
<ele>33.1</ele>
<time>2018-05-27T08:00:24Z</time>
<speed>23.1</speed>
</trkpt>
<trkpt lat="55.107007" lon="11.936088">
<ele>33.1</ele>
<time>2018-05-27T08:00:25Z</time>
<speed>22.8</speed>
</trkpt>
<trkpt lat="55.107219" lon="11.936073">
<ele>32.6</ele>
<time>2018-05-27T08:00:26Z</time>
<speed>22.8</speed>
</trkpt>
<trkpt lat="55.107414" lon="11.936067">
<ele>33.2</ele>
<time>2018-05-27T08:00:27Z</time>
<speed>22.5</speed>
</trkpt>
<trkpt lat="55.107626" lon="11.936052">
<ele>32.7</ele>
<time>2018-05-27T08:00:28Z</time>
<speed>22.8</speed>
</trkpt>
<trkpt lat="55.107828" lon="11.936049">
<ele>32.8</ele>
<time>2018-05-27T08:00:29Z</time>
<speed>22.8</speed>
</trkpt>
<trkpt lat="55.108031" lon="11.936046">
<ele>32.9</ele>
<time>2018-05-27T08:00:30Z</time>
<speed>22.8</speed>
</trkpt>
<trkpt lat="55.108230" lon="11.936027">
<ele>32.1</ele>
<time>2018-05-27T08:00:31Z</time>
<speed>22.8</speed>
</trkpt>
<trkpt lat="55.108433" lon="11.936024">
<ele>32.2</ele>
<time>2018-05-27T08:00:32Z</time>
<speed>22.8</speed>
</trkpt>
<trkpt lat="55.108648" lon="11.936025">
<ele>32.6</ele>
<time>2018-05-27T08:00:33Z</time>
<speed>23.1</speed>
</trkpt>
<trkpt lat="55.108845" lon="11.936022">
<ele>31.9</ele>
<time>2018-05-27T08:00:34Z</time>
<speed>22.8</speed>
</trkpt>
<trkpt lat="55.109048" lon="11.936019">
<ele>32.0</ele>
<time>2018-05-27T08:00:35Z</time>
<speed>22.8</speed>
</trkpt>
<trkpt lat="55.109250" lon="11.936016">
<ele>32.1</ele>
<time>2018-05-27T08:00:36Z</time>
<speed>22.8</speed>
</trkpt>
<trkpt lat="55.109455" lon="11.936016">
<ele>30.8</ele>
<time>2018-05-27T08:00:37Z</time>
<speed>23.1</speed>
</trkpt>
<trkpt lat="55.109658" lon="11.936013">
<ele>31.0</ele>
<time>2018-05-27T08:00:38Z</time>
<speed>23.1</speed>
</trkpt>
<trkpt lat="55.109868" lon="11.936013">
<ele>30.5</ele>
<time>2018-05-27T08:00:39Z</time>
<speed>23.1</speed>
</trkpt>
<trkpt lat="55.110070" lon="11.936010">
<ele>30.6</ele>
<time>2018-05-27T08:00:40Z</time>
<speed>23.1</speed>
</trkpt>
<trkpt lat="55.110280" lon="11.936010">
<ele>30.2</ele>
<time>2018-05-27T08:00:41Z</time>
<speed>23.1</speed>
</trkpt>
<trkpt lat="55.110483" lon="11.936007">
<ele>30.3</ele>
<time>2018-05-27T08:00:42Z</time>
<speed>23.1</speed>
</trkpt>
<trkpt lat="55.110687" lon="11.936008">
<ele>29.0</ele>
<time>2018-05-27T08:00:43Z</time>
<speed>23.1</speed>
</trkpt>
<trkpt lat="55.110897" lon="11.936008">
<ele>28.6</ele>
<time>2018-05-27T08:00:44Z</time>
<speed>23.1</speed>
</trkpt>
<trkpt lat="55.111098" lon="11.936020">
<ele>28.8</ele>
<time>2018-05-27T08:00:45Z</time>
<speed>23.1</speed>
</trkpt>
<trkpt lat="55.111308" lon="11.936020">
<ele>28.4</ele>
<time>2018-05-27T08:00:46Z</time>
<speed>23.1</speed>
</trkpt>
<trkpt lat="55.111509" lon="11.936033">
<ele>28.6</ele>
<time>2018-05-27T08:00:47Z</time>
<speed>23.1</speed>
</trkpt>
<trkpt lat="55.111719" lon="11.936033">
<ele>28.2</ele>
<time>2018-05-27T08:00:48Z</time>
<speed>23.1</speed>
</trkpt>
<trkpt lat="55.111929" lon="11.936033">
<ele>27.8</ele>
<time>2018-05-27T08:00:49Z</time>
<speed>23.1</speed>
</trkpt>
<trkpt lat="55.112132" lon="11.936030">
<ele>27.9</ele>
<time>2018-05-27T08:00:50Z</time>
<speed>23.1</speed>
</trkpt>
<trkpt lat="55.112342" lon="11.936031">
<ele>27.4</ele>
<time>2018-05-27T08:00:51Z</time>
<speed>23.1</speed>
</trkpt>
<trkpt lat="55.112548" lon="11.936043">
<ele>28.5</ele>
<time>2018-05-27T08:00:52Z</time>
<speed>23.1</speed>
</trkpt>
<trkpt lat="55.112758" lon="11.936043">
<ele>28.0</ele>
<time>2018-05-27T08:00:53Z</time>
<speed>23.1</speed>
</trkpt>
<trkpt lat="55.112966" lon="11.936040">
<ele>29.0</ele>
<time>2018-05-27T08:00:54Z</time>
<speed>23.1</speed>
</trkpt>
<trkpt lat="55.113175" lon="11.936040">
<ele>28.5</ele>
<time>2018-05-27T08:00:55Z</time>
<speed>23.3</speed>
</trkpt>
<trkpt lat="55.113390" lon="11.936041">
<ele>28.9</ele>
<time>2018-05-27T08:00:56Z</time>
<speed>23.3</speed>
</trkpt>
<trkpt lat="55.113600" lon="11.936041">
<ele>28.5</ele>
<time>2018-05-27T08:00:57Z</time>
<speed>23.3</speed>
</trkpt>
<trkpt lat="55.113804" lon="11.936023">
<ele>28.5</ele>
<time>2018-05-27T08:00:58Z</time>
<speed>23.3</speed>
</trkpt>
<trkpt lat="55.114019" lon="11.936023">
<ele>28.9</ele>
<time>2018-05-27T08:00:59Z</time>
<speed>23.3</speed>
</trkpt>
<trkpt lat="55.114229" lon="11.936023">
<ele>28.4</ele>
<time>2018-05-27T08:01:00Z</time>
<speed>23.1</speed>
</trkpt>
<trkpt lat="55.114441" lon="11.936008">
<ele>27.9</ele>
<time>2018-05-27T08:01:01Z</time>
<speed>23.1</speed>
</trkpt>
<trkpt lat="55.114645" lon="11.935990">
<ele>27.9</ele>
<time>2018-05-27T08:01:02Z</time>
<speed>23.3</speed>
</trkpt>
<trkpt lat="55.114855" lon="11.935990">
<ele>27.4</ele>
<time>2018-05-27T08:01:03Z</time>
<speed>23.3</speed>
</trkpt>
<trkpt lat="55.115066" lon="11.935975">
<ele>26.9</ele>
<time>2018-05-27T08:01:04Z</time>
<speed>23.1</speed>
</trkpt>
<trkpt lat="55.115274" lon="11.935972">
<ele>27.8</ele>
<time>2018-05-27T08:01:05Z</time>
<speed>23.1</speed>
</trkpt>
<trkpt lat="55.115485" lon="11.935957">
<ele>27.2</ele>
<time>2018-05-27T08:01:06Z</time>
<speed>23.1</speed>
</trkpt>
<trkpt lat="55.115689" lon="11.935938">
<ele>27.2</ele>
<time>2018-05-27T08:01:07Z</time>
<speed>23.1</speed>
</trkpt>
<trkpt lat="55.115901" lon="11.935923">
<ele>26.7</ele>
<time>2018-05-27T08:01:08Z</time>
<speed>23.3</speed>
</trkpt>
<trkpt lat="55.116106" lon="11.935890">
<ele>26.6</ele>
<time>2018-05-27T08:01:09Z</time>
<speed>22.8</speed>
</trkpt>
<trkpt lat="55.116311" lon="11.935871">
<ele>26.6</ele>
<time>2018-05-27T08:01:10Z</time>
<speed>23.1</speed>
</trkpt>
<trkpt lat="55.116516" lon="11.935838">
<ele>26.4</ele>
<time>2018-05-27T08:01:11Z</time>
<speed>23.1</speed>
</trkpt>
<trkpt lat="55.116722" lon="11.935804">
<ele>26.3</ele>
<time>2018-05-27T08:01:12Z</time>
<speed>23.1</speed>
</trkpt>
<trkpt lat="55.116935" lon="11.935774">
<ele>25.6</ele>
<time>2018-05-27T08:01:13Z</time>
<speed>22.8</speed>
</trkpt>
<trkpt lat="55.117141" lon="11.935740">
<ele>25.5</ele>
<time>2018-05-27T08:01:14Z</time>
<speed>23.1</speed>
</trkpt>
<trkpt lat="55.117341" lon="11.935706">
<ele>24.6</ele>
<time>2018-05-27T08:01:15Z</time>
<speed>23.1</speed>
</trkpt>
<trkpt lat="55.117548" lon="11.935657">
<ele>24.4</ele>
<time>2018-05-27T08:01:16Z</time>
<speed>23.1</speed>
</trkpt>
<trkpt lat="55.117756" lon="11.935608">
<ele>24.1</ele>
<time>2018-05-27T08:01:17Z</time>
<speed>23.1</speed>
</trkpt>
<trkpt lat="55.117963" lon="11.935559">
<ele>23.9</ele>
<time>2018-05-27T08:01:18Z</time>
<speed>23.1</speed>
</trkpt>
<trkpt lat="55.118163" lon="11.935526">
<ele>22.9</ele>
<time>2018-05-27T08:01:19Z</time>
<speed>23.1</speed>
</trkpt>
<trkpt lat="55.118371" lon="11.935477">
<ele>22.7</ele>
<time>2018-05-27T08:01:20Z</time>
<speed>23.1</speed>
</trkpt>
<trkpt lat="55.118587" lon="11.935416">
<ele>21.8</ele>
<time>2018-05-27T08:01:21Z</time>
<speed>23.1</speed>
</trkpt>
<trkpt lat="55.118787" lon="11.935363">
<ele>22.1</ele>
<time>2018-05-27T08:01:22Z</time>
<speed>23.3</speed>
</trkpt>
<trkpt lat="55.119001" lon="11.935318">
<ele>21.3</ele>
<time>2018-05-27T08:01:23Z</time>
<speed>23.1</speed>
</trkpt>
<trkpt lat="55.119210" lon="11.935253">
<ele>21.0</ele>
<time>2018-05-27T08:01:24Z</time>
<speed>23.1</speed>
</trkpt>
<trkpt lat="55.119412" lon="11.935204">
<ele>19.9</ele>
<time>2018-05-27T08:01:25Z</time>
<speed>23.1</speed>
</trkpt>
<trkpt lat="55.119619" lon="11.935155">
<ele>19.7</ele>
<time>2018-05-27T08:01:26Z</time>
<speed>23.1</speed>
</trkpt>
<trkpt lat="55.119828" lon="11.935091">
<ele>19.3</ele>
<time>2018-05-27T08:01:27Z</time>
<speed>23.1</speed>
</trkpt>
<trkpt lat="55.120037" lon="11.935027">
<ele>19.0</ele>
<time>2018-05-27T08:01:28Z</time>
<speed>23.1</speed>
</trkpt>
<trkpt lat="55.120244" lon="11.934978">
<ele>18.7</ele>
<time>2018-05-27T08:01:29Z</time>
<speed>23.1</speed>
</trkpt>
<trkpt lat="55.120453" lon="11.934913">
<ele>18.4</ele>
<time>2018-05-27T08:01:30Z</time>
<speed>23.1</speed>
</trkpt>
<trkpt lat="55.120656" lon="11.934849">
<ele>17.2</ele>
<time>2018-05-27T08:01:31Z</time>
<speed>23.1</speed>
</trkpt>
<trkpt lat="55.120863" lon="11.934800">
<ele>17.0</ele>
<time>2018-05-27T08:01:32Z</time>
<speed>23.1</speed>
</trkpt>
<trkpt lat="55.121063" lon="11.934748">
<ele>17.3</ele>
<time>2018-05-27T08:01:33Z</time>
<speed>22.8</speed>
</trkpt>
<trkpt lat="55.121272" lon="11.934683">
<ele>17.0</ele>
<time>2018-05-27T08:01:34Z</time>
<speed>23.1</speed>
</trkpt>
<trkpt lat="55.121479" lon="11.934634">
<ele>16.7</ele>
<time>2018-05-27T08:01:35Z</time>
<speed>23.1</speed>
</trkpt>
<trkpt lat="55.121688" lon="11.934570">
<ele>16.4</ele>
<time>2018-05-27T08:01:36Z</time>
<speed>23.1</speed>
</trkpt>
<trkpt lat="55.121895" lon="11.934521">
<ele>16.1</ele>
<time>2018-05-27T08:01:37Z</time>
<speed>23.1</speed>
</trkpt>
<trkpt lat="55.122104" lon="11.934457">
<ele>15.8</ele>
<time>2018-05-27T08:01:38Z</time>
<speed>23.1</speed>
</trkpt>
<trkpt lat="55.122299" lon="11.934405">
<ele>15.3</ele>
<time>2018-05-27T08:01:39Z</time>
<speed>23.1</speed>
</trkpt>
<trkpt lat="55.122506" lon="11.934356">
<ele>15.1</ele>
<time>2018-05-27T08:01:40Z</time>
<speed>22.8</speed>
</trkpt>
<trkpt lat="55.122713" lon="11.934307">
<ele>14.8</ele>
<time>2018-05-27T08:01:41Z</time>
<speed>22.8</speed>
</trkpt>
<trkpt lat="55.122921" lon="11.934258">
<ele>14.6</ele>
<time>2018-05-27T08:01:42Z</time>
<speed>23.1</speed>
</trkpt>
<trkpt lat="55.123126" lon="11.934224">
<ele>14.5</ele>
<time>2018-05-27T08:01:43Z</time>
<speed>22.8</speed>
</trkpt>
<trkpt lat="55.123332" lon="11.934190">
<ele>14.4</ele>
<time>2018-05-27T08:01:44Z</time>
<speed>22.8</speed>
</trkpt>
<trkpt lat="55.123546" lon="11.934144">
<ele>13.6</ele>
<time>2018-05-27T08:01:45Z</time>
<speed>22.8</speed>
</trkpt>
<trkpt lat="55.123751" lon="11.934126">
<ele>13.6</ele>
<time>2018-05-27T08:01:46Z</time>
<speed>22.8</speed>
</trkpt>
<trkpt lat="55.123956" lon="11.934092">
<ele>13.5</ele>
<time>2018-05-27T08:01:47Z</time>
<speed>22.8</speed>
</trkpt>
<trkpt lat="55.124160" lon="11.934074">
<ele>13.5</ele>
<time>2018-05-27T08:01:48Z</time>
<speed>22.8</speed>
</trkpt>
<trkpt lat="55.124361" lon="11.934040">
<ele>12.5</ele>
<time>2018-05-27T08:01:49Z</time>
<speed>22.8</speed>
</trkpt>
<trkpt lat="55.124572" lon="11.934025">
<ele>12.0</ele>
<time>2018-05-27T08:01:50Z</time>
<speed>23.1</speed>
</trkpt>
<trkpt lat="55.124775" lon="11.934022">
<ele>12.1</ele>
<time>2018-05-27T08:01:51Z</time>
<speed>23.1</speed>
</trkpt>
<trkpt lat="55.124992" lon="11.934007">
<ele>12.4</ele>
<time>2018-05-27T08:01:52Z</time>
<speed>23.1</speed>
</trkpt>
<trkpt lat="55.125196" lon="11.933989">
<ele>12.4</ele>
<time>2018-05-27T08:01:53Z</time>
<speed>23.1</speed>
</trkpt>
<trkpt lat="55.125406" lon="11.933989">
<ele>11.9</ele>
<time>2018-05-27T08:01:54Z</time>
<speed>23.1</speed>
</trkpt>
<trkpt lat="55.125617" lon="11.933974">
<ele>11.4</ele>
<time>2018-05-27T08:01:55Z</time>
<speed>23.1</speed>
</trkpt>
<trkpt lat="55.125827" lon="11.933974">
<ele>10.9</ele>
<time>2018-05-27T08:01:56Z</time>
<speed>23.1</speed>
</trkpt>
<trkpt lat="55.126040" lon="11.933990">
<ele>11.4</ele>
<time>2018-05-27T08:01:57Z</time>
<speed>23.3</speed>
</trkpt>
<trkpt lat="55.126250" lon="11.933990">
<ele>11.0</ele>
<time>2018-05-27T08:01:58Z</time>
<speed>23.3</speed>
</trkpt>
<trkpt lat="55.126460" lon="11.933990">
<ele>10.6</ele>
<time>2018-05-27T08:01:59Z</time>
<speed>23.3</speed>
</trkpt>
<trkpt lat="55.126668" lon="11.934006">
<ele>10.3</ele>
<time>2018-05-27T08:02:00Z</time>
<speed>23.1</speed>
</trkpt>
<trkpt lat="55.126877" lon="11.934021">
<ele>9.9</ele>
<time>2018-05-27T08:02:01Z</time>
<speed>23.1</speed>
</trkpt>
<trkpt lat="55.127086" lon="11.934022">
<ele>9.5</ele>
<time>2018-05-27T08:02:02Z</time>
<speed>23.1</speed>
</trkpt>
<trkpt lat="55.127291" lon="11.934049">
<ele>10.7</ele>
<time>2018-05-27T08:02:03Z</time>
<speed>23.1</speed>
</trkpt>
<trkpt lat="55.127500" lon="11.934065">
<ele>10.4</ele>
<time>2018-05-27T08:02:04Z</time>
<speed>22.8</speed>
</trkpt>
<trkpt lat="55.127708" lon="11.934081">
<ele>10.0</ele>
<time>2018-05-27T08:02:05Z</time>
<speed>23.1</speed>
</trkpt>
<trkpt lat="55.127916" lon="11.934096">
<ele>9.7</ele>
<time>2018-05-27T08:02:06Z</time>
<speed>23.1</speed>
</trkpt>
<trkpt lat="55.128123" lon="11.934127">
<ele>9.5</ele>
<time>2018-05-27T08:02:07Z</time>
<speed>22.8</speed>
</trkpt>
<trkpt lat="55.128324" lon="11.934139">
<ele>9.8</ele>
<time>2018-05-27T08:02:08Z</time>
<speed>22.8</speed>
</trkpt>
<trkpt lat="55.128531" lon="11.934170">
<ele>9.6</ele>
<time>2018-05-27T08:02:09Z</time>
<speed>23.1</speed>
</trkpt>
<trkpt lat="55.128739" lon="11.934186">
<ele>9.3</ele>
<time>2018-05-27T08:02:10Z</time>
<speed>23.1</speed>
</trkpt>
<trkpt lat="55.128946" lon="11.934217">
<ele>9.1</ele>
<time>2018-05-27T08:02:11Z</time>
<speed>23.1</speed>
</trkpt>
<trkpt lat="55.129154" lon="11.934232">
<ele>8.7</ele>
<time>2018-05-27T08:02:12Z</time>
<speed>23.1</speed>
</trkpt>
<trkpt lat="55.129361" lon="11.934263">
<ele>8.5</ele>
<time>2018-05-27T08:02:13Z</time>
<speed>23.1</speed>
</trkpt>
<trkpt lat="55.129575" lon="11.934297">
<ele>7.8</ele>
<time>2018-05-27T08:02:14Z</time>
<speed>23.1</speed>
</trkpt>
<trkpt lat="55.129782" lon="11.934328">
<ele>7.6</ele>
<time>2018-05-27T08:02:15Z</time>
<speed>23.1</speed>
</trkpt>
<trkpt lat="55.129990" lon="11.934344">
<ele>7.3</ele>
<time>2018-05-27T08:02:16Z</time>
<speed>23.1</speed>
</trkpt>
<trkpt lat="55.130197" lon="11.934375">
<ele>7.1</ele>
<time>2018-05-27T08:02:17Z</time>
<speed>23.1</speed>
</trkpt>
<trkpt lat="55.130410" lon="11.934424">
<ele>6.4</ele>
<time>2018-05-27T08:02:18Z</time>
<speed>23.1</speed>
</trkpt>
<trkpt lat="55.130617" lon="11.934455">
<ele>6.2</ele>
<time>2018-05-27T08:02:19Z</time>
<speed>22.8</speed>
</trkpt>
<trkpt lat="55.130828" lon="11.934486">
<ele>6.9</ele>
<time>2018-05-27T08:02:20Z</time>
<speed>23.1</speed>
</trkpt>
<trkpt lat="55.131034" lon="11.934532">
<ele>6.8</ele>
<time>2018-05-27T08:02:21Z</time>
<speed>23.1</speed>
</trkpt>
<trkpt lat="55.131241" lon="11.934563">
<ele>6.6</ele>
<time>2018-05-27T08:02:22Z</time>
<speed>22.8</speed>
</trkpt>
<trkpt lat="55.131447" lon="11.934594">
<ele>6.4</ele>
<time>2018-05-27T08:02:23Z</time>
<speed>23.1</speed>
</trkpt>
<trkpt lat="55.131653" lon="11.934641">
<ele>6.3</ele>
<time>2018-05-27T08:02:24Z</time>
<speed>23.1</speed>
</trkpt>
<trkpt lat="55.131858" lon="11.934687">
<ele>6.2</ele>
<time>2018-05-27T08:02:25Z</time>
<speed>23.1</speed>
</trkpt>
<trkpt lat="55.132061" lon="11.934730">
<ele>7.5</ele>
<time>2018-05-27T08:02:26Z</time>
<speed>23.1</speed>
</trkpt>
<trkpt lat="55.132266" lon="11.934776">
<ele>7.4</ele>
<time>2018-05-27T08:02:27Z</time>
<speed>23.1</speed>
</trkpt>
<trkpt lat="55.132477" lon="11.934822">
<ele>8.2</ele>
<time>2018-05-27T08:02:28Z</time>
<speed>23.1</speed>
</trkpt>
<trkpt lat="55.132682" lon="11.934869">
<ele>8.1</ele>
<time>2018-05-27T08:02:29Z</time>
<speed>23.1</speed>
</trkpt>
<trkpt lat="55.132886" lon="11.934930">
<ele>8.1</ele>
<time>2018-05-27T08:02:30Z</time>
<speed>23.1</speed>
</trkpt>
<trkpt lat="55.133096" lon="11.934976">
<ele>8.9</ele>
<time>2018-05-27T08:02:31Z</time>
<speed>23.1</speed>
</trkpt>
<trkpt lat="55.133302" lon="11.935023">
<ele>8.8</ele>
<time>2018-05-27T08:02:32Z</time>
<speed>23.1</speed>
</trkpt>
<trkpt lat="55.133505" lon="11.935084">
<ele>8.8</ele>
<time>2018-05-27T08:02:33Z</time>
<speed>22.8</speed>
</trkpt>
<trkpt lat="55.133711" lon="11.935131">
<ele>8.8</ele>
<time>2018-05-27T08:02:34Z</time>
<speed>22.8</speed>
</trkpt>
<trkpt lat="55.133916" lon="11.935177">
<ele>8.7</ele>
<time>2018-05-27T08:02:35Z</time>
<speed>22.8</speed>
</trkpt>
<trkpt lat="55.134125" lon="11.935239">
<ele>9.5</ele>
<time>2018-05-27T08:02:36Z</time>
<speed>22.8</speed>
</trkpt>
<trkpt lat="55.134330" lon="11.935285">
<ele>9.5</ele>
<time>2018-05-27T08:02:37Z</time>
<speed>23.1</speed>
</trkpt>
<trkpt lat="55.134534" lon="11.935346">
<ele>9.5</ele>
<time>2018-05-27T08:02:38Z</time>
<speed>22.8</speed>
</trkpt>
<trkpt lat="55.134738" lon="11.935408">
<ele>9.5</ele>
<time>2018-05-27T08:02:39Z</time>
<speed>22.8</speed>
</trkpt>
<trkpt lat="55.134939" lon="11.935466">
<ele>11.0</ele>
<time>2018-05-27T08:02:40Z</time>
<speed>22.8</speed>
</trkpt>
<trkpt lat="55.135143" lon="11.935528">
<ele>11.0</ele>
<time>2018-05-27T08:02:41Z</time>
<speed>22.8</speed>
</trkpt>
<trkpt lat="55.135352" lon="11.935590">
<ele>11.9</ele>
<time>2018-05-27T08:02:42Z</time>
<speed>23.1</speed>
</trkpt>
<trkpt lat="55.135554" lon="11.935648">
<ele>13.3</ele>
<time>2018-05-27T08:02:43Z</time>
<speed>22.8</speed>
</trkpt>
<trkpt lat="55.135757" lon="11.935710">
<ele>13.3</ele>
<time>2018-05-27T08:02:44Z</time>
<speed>23.1</speed>
</trkpt>
<trkpt lat="55.135968" lon="11.935774">
<ele>12.8</ele>
<time>2018-05-27T08:02:45Z</time>
<speed>23.1</speed>
</trkpt>
<trkpt lat="55.136177" lon="11.935836">
<ele>13.7</ele>
<time>2018-05-27T08:02:46Z</time>
<speed>23.1</speed>
</trkpt>
<trkpt lat="55.136386" lon="11.935898">
<ele>14.5</ele>
<time>2018-05-27T08:02:47Z</time>
<speed>23.3</speed>
</trkpt>
<trkpt lat="55.136594" lon="11.935975">
<ele>15.5</ele>
<time>2018-05-27T08:02:48Z</time>
<speed>23.3</speed>
</trkpt>
<trkpt lat="55.136808" lon="11.936036">
<ele>17.2</ele>
<time>2018-05-27T08:02:49Z</time>
<speed>23.1</speed>
</trkpt>
<trkpt lat="55.137011" lon="11.936098">
<ele>17.2</ele>
<time>2018-05-27T08:02:50Z</time>
<speed>23.1</speed>
</trkpt>
<trkpt lat="55.137220" lon="11.936159">
<ele>18.1</ele>
<time>2018-05-27T08:02:51Z</time>
<speed>23.1</speed>
</trkpt>
<trkpt lat="55.137429" lon="11.936221">
<ele>19.0</ele>
<time>2018-05-27T08:02:52Z</time>
<speed>22.8</speed>
</trkpt>
<trkpt lat="55.137624" lon="11.936295">
<ele>19.7</ele>
<time>2018-05-27T08:02:53Z</time>
<speed>22.8</speed>
</trkpt>
<trkpt lat="55.137826" lon="11.936372">
<ele>19.8</ele>
<time>2018-05-27T08:02:54Z</time>
<speed>22.8</speed>
</trkpt>
<trkpt lat="55.138035" lon="11.936433">
<ele>20.7</ele>
<time>2018-05-27T08:02:55Z</time>
<speed>22.8</speed>
</trkpt>
<trkpt lat="55.138238" lon="11.936510">
<ele>20.9</ele>
<time>2018-05-27T08:02:56Z</time>
<speed>22.8</speed>
</trkpt>
<trkpt lat="55.138445" lon="11.936587">
<ele>21.8</ele>
<time>2018-05-27T08:02:57Z</time>
<speed>23.1</speed>
</trkpt>
<trkpt lat="55.138640" lon="11.936661">
<ele>22.6</ele>
<time>2018-05-27T08:02:58Z</time>
<speed>23.1</speed>
</trkpt>
<trkpt lat="55.138847" lon="11.936738">
<ele>23.5</ele>
<time>2018-05-27T08:02:59Z</time>
<speed>22.8</speed>
</trkpt>
<trkpt lat="55.139050" lon="11.936815">
<ele>23.7</ele>
<time>2018-05-27T08:03:00Z</time>
<speed>23.1</speed>
</trkpt>
<trkpt lat="55.139257" lon="11.936892">
<ele>24.7</ele>
<time>2018-05-27T08:03:01Z</time>
<speed>23.1</speed>
</trkpt>
<trkpt lat="55.139458" lon="11.936984">
<ele>25.0</ele>
<time>2018-05-27T08:03:02Z</time>
<speed>23.1</speed>
</trkpt>
<trkpt lat="55.139665" lon="11.937061">
<ele>25.9</ele>
<time>2018-05-27T08:03:03Z</time>
<speed>23.1</speed>
</trkpt>
<trkpt lat="55.139872" lon="11.937138">
<ele>26.9</ele>
<time>2018-05-27T08:03:04Z</time>
<speed>23.1</speed>
</trkpt>
<trkpt lat="55.140066" lon="11.937227">
<ele>27.8</ele>
<time>2018-05-27T08:03:05Z</time>
<speed>22.8</speed>
</trkpt>
<trkpt lat="55.140267" lon="11.937319">
<ele>28.0</ele>
<time>2018-05-27T08:03:06Z</time>
<speed>22.8</speed>
</trkpt>
<trkpt lat="55.140469" lon="11.937396">
<ele>28.2</ele>
<time>2018-05-27T08:03:07Z</time>
<speed>22.8</speed>
</trkpt>
<trkpt lat="55.140667" lon="11.937486">
<ele>29.9</ele>
<time>2018-05-27T08:03:08Z</time>
<speed>22.8</speed>
</trkpt>
<trkpt lat="55.140873" lon="11.937578">
<ele>31.0</ele>
<time>2018-05-27T08:03:09Z</time>
<speed>22.8</speed>
</trkpt>
<trkpt lat="55.141074" lon="11.937670">
<ele>31.2</ele>
<time>2018-05-27T08:03:10Z</time>
<speed>23.1</speed>
</trkpt>
<trkpt lat="55.141275" lon="11.937762">
<ele>31.5</ele>
<time>2018-05-27T08:03:11Z</time>
<speed>23.1</speed>
</trkpt>
<trkpt lat="55.141468" lon="11.937852">
<ele>32.3</ele>
<time>2018-05-27T08:03:12Z</time>
<speed>23.1</speed>
</trkpt>
<trkpt lat="55.141674" lon="11.937944">
<ele>33.4</ele>
<time>2018-05-27T08:03:13Z</time>
<speed>23.1</speed>
</trkpt>
<trkpt lat="55.141873" lon="11.938052">
<ele>33.8</ele>
<time>2018-05-27T08:03:14Z</time>
<speed>23.1</speed>
</trkpt>
<trkpt lat="55.142069" lon="11.938144">
<ele>33.3</ele>
<time>2018-05-27T08:03:15Z</time>
<speed>23.3</speed>
</trkpt>
<trkpt lat="55.142275" lon="11.938255">
<ele>33.1</ele>
<time>2018-05-27T08:03:16Z</time>
<speed>23.3</speed>
</trkpt>
<trkpt lat="55.142474" lon="11.938362">
<ele>33.5</ele>
<time>2018-05-27T08:03:17Z</time>
<speed>23.3</speed>
</trkpt>
<trkpt lat="55.142674" lon="11.938470">
<ele>33.9</ele>
<time>2018-05-27T08:03:18Z</time>
<speed>23.3</speed>
</trkpt>
<trkpt lat="55.142866" lon="11.938593">
<ele>33.6</ele>
<time>2018-05-27T08:03:19Z</time>
<speed>23.3</speed>
</trkpt>
<trkpt lat="55.143072" lon="11.938704">
<ele>33.5</ele>
<time>2018-05-27T08:03:20Z</time>
<speed>23.3</speed>
</trkpt>
<trkpt lat="55.143267" lon="11.938812">
<ele>33.1</ele>
<time>2018-05-27T08:03:21Z</time>
<speed>23.3</speed>
</trkpt>
<trkpt lat="55.143464" lon="11.938935">
<ele>33.6</ele>
<time>2018-05-27T08:03:22Z</time>
<speed>23.3</speed>
</trkpt>
<trkpt lat="55.143664" lon="11.939061">
<ele>32.7</ele>
<time>2018-05-27T08:03:23Z</time>
<speed>23.3</speed>
</trkpt>
<trkpt lat="55.143858" lon="11.939169">
<ele>32.3</ele>
<time>2018-05-27T08:03:24Z</time>
<speed>23.3</speed>
</trkpt>
<trkpt lat="55.144050" lon="11.939292">
<ele>32.0</ele>
<time>2018-05-27T08:03:25Z</time>
<speed>23.1</speed>
</trkpt>
<trkpt lat="55.144241" lon="11.939430">
<ele>31.8</ele>
<time>2018-05-27T08:03:26Z</time>
<speed>23.1</speed>
</trkpt>
<trkpt lat="55.144439" lon="11.939553">
<ele>32.3</ele>
<time>2018-05-27T08:03:27Z</time>
<speed>23.1</speed>
</trkpt>
<trkpt lat="55.144632" lon="11.939676">
<ele>32.0</ele>
<time>2018-05-27T08:03:28Z</time>
<speed>23.1</speed>
</trkpt>
<trkpt lat="55.144828" lon="11.939814">
<ele>32.6</ele>
<time>2018-05-27T08:03:29Z</time>
<speed>23.3</speed>
</trkpt>
<trkpt lat="55.145012" lon="11.939949">
<ele>33.0</ele>
<time>2018-05-27T08:03:30Z</time>
<speed>23.1</speed>
</trkpt>
<trkpt lat="55.145203" lon="11.940088">
<ele>32.8</ele>
<time>2018-05-27T08:03:31Z</time>
<speed>23.1</speed>
</trkpt>
<trkpt lat="55.145391" lon="11.940223">
<ele>34.0</ele>
<time>2018-05-27T08:03:32Z</time>
<speed>23.1</speed>
</trkpt>
<trkpt lat="55.145575" lon="11.940358">
<ele>34.4</ele>
<time>2018-05-27T08:03:33Z</time>
<speed>22.8</speed>
</trkpt>
<trkpt lat="55.145758" lon="11.940509">
<ele>34.9</ele>
<time>2018-05-27T08:03:34Z</time>
<speed>22.8</speed>
</trkpt>
<trkpt lat="55.145945" lon="11.940659">
<ele>36.2</ele>
<time>2018-05-27T08:03:35Z</time>
<speed>23.1</speed>
</trkpt>
<trkpt lat="55.146127" lon="11.940810">
<ele>36.7</ele>
<time>2018-05-27T08:03:36Z</time>
<speed>23.1</speed>
</trkpt>
<trkpt lat="55.146316" lon="11.940945">
<ele>37.9</ele>
<time>2018-05-27T08:03:37Z</time>
<speed>22.8</speed>
</trkpt>
<trkpt lat="55.146502" lon="11.941110">
<ele>39.3</ele>
<time>2018-05-27T08:03:38Z</time>
<speed>22.8</speed>
</trkpt>
<trkpt lat="55.146683" lon="11.941276">
<ele>39.9</ele>
<time>2018-05-27T08:03:39Z</time>
<speed>23.1</speed>
</trkpt>
<trkpt lat="55.146858" lon="11.941424">
<ele>41.0</ele>
<time>2018-05-27T08:03:40Z</time>
<speed>23.1</speed>
</trkpt>
<trkpt lat="55.147051" lon="11.941593">
<ele>41.9</ele>
<time>2018-05-27T08:03:41Z</time>
<speed>23.1</speed>
</trkpt>
<trkpt lat="55.147238" lon="11.941743">
<ele>43.2</ele>
<time>2018-05-27T08:03:42Z</time>
<speed>23.1</speed>
</trkpt>
<trkpt lat="55.147425" lon="11.941927">
<ele>43.3</ele>
<time>2018-05-27T08:03:43Z</time>
<speed>23.1</speed>
</trkpt>
<trkpt lat="55.147605" lon="11.942093">
<ele>44.0</ele>
<time>2018-05-27T08:03:44Z</time>
<speed>23.1</speed>
</trkpt>
<trkpt lat="55.147786" lon="11.942259">
<ele>44.6</ele>
<time>2018-05-27T08:03:45Z</time>
<speed>23.1</speed>
</trkpt>
<trkpt lat="55.147974" lon="11.942428">
<ele>44.6</ele>
<time>2018-05-27T08:03:46Z</time>
<speed>23.1</speed>
</trkpt>
<trkpt lat="55.148153" lon="11.942609">
<ele>45.3</ele>
<time>2018-05-27T08:03:47Z</time>
<speed>23.1</speed>
</trkpt>
<trkpt lat="55.148334" lon="11.942775">
<ele>46.0</ele>
<time>2018-05-27T08:03:48Z</time>
<speed>23.1</speed>
</trkpt>
<trkpt lat="55.148520" lon="11.942960">
<ele>46.1</ele>
<time>2018-05-27T08:03:49Z</time>
<speed>23.1</speed>
</trkpt>
<trkpt lat="55.148700" lon="11.943141">
<ele>46.9</ele>
<time>2018-05-27T08:03:50Z</time>
<speed>23.1</speed>
</trkpt>
<trkpt lat="55.148880" lon="11.943307">
<ele>47.5</ele>
<time>2018-05-27T08:03:51Z</time>
<speed>23.1</speed>
</trkpt>
<trkpt lat="55.149058" lon="11.943503">
<ele>48.3</ele>
<time>2018-05-27T08:03:52Z</time>
<speed>23.1</speed>
</trkpt>
<trkpt lat="55.149237" lon="11.943684">
<ele>49.1</ele>
<time>2018-05-27T08:03:53Z</time>
<speed>23.1</speed>
</trkpt>
<trkpt lat="55.149419" lon="11.943869">
<ele>48.4</ele>
<time>2018-05-27T08:03:54Z</time>
<speed>23.3</speed>
</trkpt>
<trkpt lat="55.149590" lon="11.944081">
<ele>48.6</ele>
<time>2018-05-27T08:03:55Z</time>
<speed>23.3</speed>
</trkpt>
<trkpt lat="55.149767" lon="11.944277">
<ele>49.4</ele>
<time>2018-05-27T08:03:56Z</time>
<speed>23.3</speed>
</trkpt>
<trkpt lat="55.149947" lon="11.944477">
<ele>48.9</ele>
<time>2018-05-27T08:03:57Z</time>
<speed>23.1</speed>
</trkpt>
<trkpt lat="55.150125" lon="11.944674">
<ele>49.7</ele>
<time>2018-05-27T08:03:58Z</time>
<speed>23.1</speed>
</trkpt>
<trkpt lat="55.150296" lon="11.944885">
<ele>49.9</ele>
<time>2018-05-27T08:03:59Z</time>
<speed>23.1</speed>
</trkpt>
<trkpt lat="55.150468" lon="11.945082">
<ele>49.9</ele>
<time>2018-05-27T08:04:00Z</time>
<speed>23.3</speed>
</trkpt>
<trkpt lat="55.150646" lon="11.945297">
<ele>49.5</ele>
<time>2018-05-27T08:04:01Z</time>
<speed>23.3</speed>
</trkpt>
<trkpt lat="55.150817" lon="11.945509">
<ele>49.6</ele>
<time>2018-05-27T08:04:02Z</time>
<speed>23.1</speed>
</trkpt>
<trkpt lat="55.150989" lon="11.945721">
<ele>49.8</ele>
<time>2018-05-27T08:04:03Z</time>
<speed>23.1</speed>
</trkpt>
<trkpt lat="55.151160" lon="11.945933">
<ele>49.9</ele>
<time>2018-05-27T08:04:04Z</time>
<speed>22.8</speed>
</trkpt>
<trkpt lat="55.151327" lon="11.946129">
<ele>49.1</ele>
<time>2018-05-27T08:04:05Z</time>
<speed>22.8</speed>
</trkpt>
<trkpt lat="55.151498" lon="11.946341">
<ele>49.3</ele>
<time>2018-05-27T08:04:06Z</time>
<speed>22.8</speed>
</trkpt>
<trkpt lat="55.151657" lon="11.946550">
<ele>49.2</ele>
<time>2018-05-27T08:04:07Z</time>
<speed>22.8</speed>
</trkpt>
<trkpt lat="55.151828" lon="11.946762">
<ele>49.3</ele>
<time>2018-05-27T08:04:08Z</time>
<speed>22.8</speed>
</trkpt>
<trkpt lat="55.151999" lon="11.946974">
<ele>49.5</ele>
<time>2018-05-27T08:04:09Z</time>
<speed>22.8</speed>
</trkpt>
<trkpt lat="55.152157" lon="11.947182">
<ele>49.3</ele>
<time>2018-05-27T08:04:10Z</time>
<speed>22.8</speed>
</trkpt>
<trkpt lat="55.152327" lon="11.947410">
<ele>49.6</ele>
<time>2018-05-27T08:04:11Z</time>
<speed>22.8</speed>
</trkpt>
<trkpt lat="55.152485" lon="11.947618">
<ele>49.5</ele>
<time>2018-05-27T08:04:12Z</time>
<speed>22.8</speed>
</trkpt>
<trkpt lat="55.152656" lon="11.947830">
<ele>49.6</ele>
<time>2018-05-27T08:04:13Z</time>
<speed>22.8</speed>
</trkpt>
<trkpt lat="55.152820" lon="11.948039">
<ele>50.4</ele>
<time>2018-05-27T08:04:14Z</time>
<speed>22.8</speed>
</trkpt>
<trkpt lat="55.152986" lon="11.948251">
<ele>49.7</ele>
<time>2018-05-27T08:04:15Z</time>
<speed>22.8</speed>
</trkpt>
<trkpt lat="55.153150" lon="11.948459">
<ele>50.4</ele>
<time>2018-05-27T08:04:16Z</time>
<speed>22.8</speed>
</trkpt>
<trkpt lat="55.153321" lon="11.948671">
<ele>50.5</ele>
<time>2018-05-27T08:04:17Z</time>
<speed>22.8</speed>
</trkpt>
<trkpt lat="55.153480" lon="11.948880">
<ele>50.4</ele>
<time>2018-05-27T08:04:18Z</time>
<speed>22.8</speed>
</trkpt>
<trkpt lat="55.153651" lon="11.949092">
<ele>50.6</ele>
<time>2018-05-27T08:04:19Z</time>
<speed>22.8</speed>
</trkpt>
<trkpt lat="55.153822" lon="11.949304">
<ele>50.7</ele>
<time>2018-05-27T08:04:20Z</time>
<speed>22.8</speed>
</trkpt>
<trkpt lat="55.153994" lon="11.949500">
<ele>50.8</ele>
<time>2018-05-27T08:04:21Z</time>
<speed>22.8</speed>
</trkpt>
<trkpt lat="55.154162" lon="11.949697">
<ele>50.0</ele>
<time>2018-05-27T08:04:22Z</time>
<speed>22.8</speed>
</trkpt>
<trkpt lat="55.154333" lon="11.949909">
<ele>50.1</ele>
<time>2018-05-27T08:04:23Z</time>
<speed>22.8</speed>
</trkpt>
<trkpt lat="55.154505" lon="11.950106">
<ele>50.1</ele>
<time>2018-05-27T08:04:24Z</time>
<speed>22.8</speed>
</trkpt>
<trkpt lat="55.154679" lon="11.950287">
<ele>50.1</ele>
<time>2018-05-27T08:04:25Z</time>
<speed>22.8</speed>
</trkpt>
<trkpt lat="55.154847" lon="11.950483">
<ele>49.3</ele>
<time>2018-05-27T08:04:26Z</time>
<speed>22.8</speed>
</trkpt>
<trkpt lat="55.155019" lon="11.950680">
<ele>49.3</ele>
<time>2018-05-27T08:04:27Z</time>
<speed>22.5</speed>
</trkpt>
<trkpt lat="55.155193" lon="11.950861">
<ele>49.2</ele>
<time>2018-05-27T08:04:28Z</time>
<speed>22.5</speed>
</trkpt>
<trkpt lat="55.155375" lon="11.951046">
<ele>48.6</ele>
<time>2018-05-27T08:04:29Z</time>
<speed>22.5</speed>
</trkpt>
<trkpt lat="55.155549" lon="11.951227">
<ele>48.5</ele>
<time>2018-05-27T08:04:30Z</time>
<speed>22.5</speed>
</trkpt>
<trkpt lat="55.155723" lon="11.951408">
<ele>48.4</ele>
<time>2018-05-27T08:04:31Z</time>
<speed>22.5</speed>
</trkpt>
<trkpt lat="55.155897" lon="11.951589">
<ele>48.3</ele>
<time>2018-05-27T08:04:32Z</time>
<speed>22.5</speed>
</trkpt>
<trkpt lat="55.156083" lon="11.951774">
<ele>48.5</ele>
<time>2018-05-27T08:04:33Z</time>
<speed>22.5</speed>
</trkpt>
<trkpt lat="55.156259" lon="11.951940">
<ele>48.3</ele>
<time>2018-05-27T08:04:34Z</time>
<speed>22.5</speed>
</trkpt>
<trkpt lat="55.156433" lon="11.952121">
<ele>48.2</ele>
<time>2018-05-27T08:04:35Z</time>
<speed>22.8</speed>
</trkpt>
<trkpt lat="55.156621" lon="11.952290">
<ele>48.2</ele>
<time>2018-05-27T08:04:36Z</time>
<speed>22.8</speed>
</trkpt>
<trkpt lat="55.156801" lon="11.952456">
<ele>48.9</ele>
<time>2018-05-27T08:04:37Z</time>
<speed>22.8</speed>
</trkpt>
<trkpt lat="55.156989" lon="11.952625">
<ele>48.9</ele>
<time>2018-05-27T08:04:38Z</time>
<speed>22.8</speed>
</trkpt>
<trkpt lat="55.157174" lon="11.952779">
<ele>48.0</ele>
<time>2018-05-27T08:04:39Z</time>
<speed>22.8</speed>
</trkpt>
<trkpt lat="55.157354" lon="11.952945">
<ele>48.6</ele>
<time>2018-05-27T08:04:40Z</time>
<speed>22.8</speed>
</trkpt>
<trkpt lat="55.157544" lon="11.953099">
<ele>48.6</ele>
<time>2018-05-27T08:04:41Z</time>
<speed>22.8</speed>
</trkpt>
<trkpt lat="55.157733" lon="11.953253">
<ele>48.5</ele>
<time>2018-05-27T08:04:42Z</time>
<speed>22.8</speed>
</trkpt>
<trkpt lat="55.157916" lon="11.953403">
<ele>49.0</ele>
<time>2018-05-27T08:04:43Z</time>
<speed>22.8</speed>
</trkpt>
<trkpt lat="55.158105" lon="11.953557">
<ele>49.0</ele>
<time>2018-05-27T08:04:44Z</time>
<speed>22.8</speed>
</trkpt>
<trkpt lat="55.158287" lon="11.953708">
<ele>49.5</ele>
<time>2018-05-27T08:04:45Z</time>
<speed>22.8</speed>
</trkpt>
<trkpt lat="55.158478" lon="11.953846">
<ele>49.3</ele>
<time>2018-05-27T08:04:46Z</time>
<speed>22.8</speed>
</trkpt>
<trkpt lat="55.158668" lon="11.954000">
<ele>49.2</ele>
<time>2018-05-27T08:04:47Z</time>
<speed>22.8</speed>
</trkpt>
<trkpt lat="55.158851" lon="11.954135">
<ele>49.6</ele>
<time>2018-05-27T08:04:48Z</time>
<speed>22.5</speed>
</trkpt>
<trkpt lat="55.159042" lon="11.954274">
<ele>49.4</ele>
<time>2018-05-27T08:04:49Z</time>
<speed>22.5</speed>
</trkpt>
<trkpt lat="55.159231" lon="11.954409">
<ele>50.6</ele>
<time>2018-05-27T08:04:50Z</time>
<speed>22.8</speed>
</trkpt>
<trkpt lat="55.159424" lon="11.954532">
<ele>50.3</ele>
<time>2018-05-27T08:04:51Z</time>
<speed>22.8</speed>
</trkpt>
<trkpt lat="55.159608" lon="11.954667">
<ele>50.7</ele>
<time>2018-05-27T08:04:52Z</time>
<speed>22.8</speed>
</trkpt>
<trkpt lat="55.159805" lon="11.954790">
<ele>51.2</ele>
<time>2018-05-27T08:04:53Z</time>
<speed>22.5</speed>
</trkpt>
<trkpt lat="55.159991" lon="11.954910">
<ele>51.5</ele>
<time>2018-05-27T08:04:54Z</time>
<speed>22.8</speed>
</trkpt>
<trkpt lat="55.160188" lon="11.955034">
<ele>52.0</ele>
<time>2018-05-27T08:04:55Z</time>
<speed>22.8</speed>
</trkpt>
<trkpt lat="55.160381" lon="11.955157">
<ele>51.7</ele>
<time>2018-05-27T08:04:56Z</time>
<speed>22.8</speed>
</trkpt>
<trkpt lat="55.160571" lon="11.955277">
<ele>52.8</ele>
<time>2018-05-27T08:04:57Z</time>
<speed>22.8</speed>
</trkpt>
<trkpt lat="55.160764" lon="11.955400">
<ele>52.5</ele>
<time>2018-05-27T08:04:58Z</time>
<speed>22.8</speed>
</trkpt>
<trkpt lat="55.160963" lon="11.955507">
<ele>52.9</ele>
<time>2018-05-27T08:04:59Z</time>
<speed>22.8</speed>
</trkpt>
<trkpt lat="55.161155" lon="11.955631">
<ele>52.6</ele>
<time>2018-05-27T08:05:00Z</time>
<speed>22.8</speed>
</trkpt>
<trkpt lat="55.161349" lon="11.955738">
<ele>52.2</ele>
<time>2018-05-27T08:05:01Z</time>
<speed>22.8</speed>
</trkpt>
<trkpt lat="55.161548" lon="11.955846">
<ele>52.6</ele>
<time>2018-05-27T08:05:02Z</time>
<speed>22.8</speed>
</trkpt>
<trkpt lat="55.161744" lon="11.955939">
<ele>52.1</ele>
<time>2018-05-27T08:05:03Z</time>
<speed>22.8</speed>
</trkpt>
<trkpt lat="55.161938" lon="11.956046">
<ele>51.7</ele>
<time>2018-05-27T08:05:04Z</time>
<speed>23.1</speed>
</trkpt>
<trkpt lat="55.162144" lon="11.956158">
<ele>51.5</ele>
<time>2018-05-27T08:05:05Z</time>
<speed>23.1</speed>
</trkpt>
<trkpt lat="55.162345" lon="11.956250">
<ele>51.8</ele>
<time>2018-05-27T08:05:06Z</time>
<speed>23.1</speed>
</trkpt>
<trkpt lat="55.162548" lon="11.956346">
<ele>50.7</ele>
<time>2018-05-27T08:05:07Z</time>
<speed>23.1</speed>
</trkpt>
<trkpt lat="55.162749" lon="11.956438">
<ele>51.0</ele>
<time>2018-05-27T08:05:08Z</time>
<speed>23.1</speed>
</trkpt>
<trkpt lat="55.162951" lon="11.956534">
<ele>49.9</ele>
<time>2018-05-27T08:05:09Z</time>
<speed>23.1</speed>
</trkpt>
<trkpt lat="55.163152" lon="11.956626">
<ele>50.2</ele>
<time>2018-05-27T08:05:10Z</time>
<speed>22.8</speed>
</trkpt>
<trkpt lat="55.163349" lon="11.956703">
<ele>49.5</ele>
<time>2018-05-27T08:05:11Z</time>
<speed>22.8</speed>
</trkpt>
<trkpt lat="55.163559" lon="11.956784">
<ele>49.2</ele>
<time>2018-05-27T08:05:12Z</time>
<speed>22.8</speed>
</trkpt>
<trkpt lat="55.163761" lon="11.956861">
<ele>49.3</ele>
<time>2018-05-27T08:05:13Z</time>
<speed>22.8</speed>
</trkpt>
<trkpt lat="55.163958" lon="11.956938">
<ele>48.7</ele>
<time>2018-05-27T08:05:14Z</time>
<speed>22.8</speed>
</trkpt>
<trkpt lat="55.164167" lon="11.957018">
<ele>48.3</ele>
<time>2018-05-27T08:05:15Z</time>
<speed>22.8</speed>
</trkpt>
<trkpt lat="55.164366" lon="11.957080">
<ele>47.5</ele>
<time>2018-05-27T08:05:16Z</time>
<speed>22.8</speed>
</trkpt>
<trkpt lat="55.164568" lon="11.957157">
<ele>47.7</ele>
<time>2018-05-27T08:05:17Z</time>
<speed>22.8</speed>
</trkpt>
<trkpt lat="55.164765" lon="11.957234">
<ele>47.0</ele>
<time>2018-05-27T08:05:18Z</time>
<speed>22.8</speed>
</trkpt>
<trkpt lat="55.164969" lon="11.957296">
<ele>47.1</ele>
<time>2018-05-27T08:05:19Z</time>
<speed>22.8</speed>
</trkpt>
<trkpt lat="55.165173" lon="11.957358">
<ele>47.1</ele>
<time>2018-05-27T08:05:20Z</time>
<speed>22.8</speed>
</trkpt>
<trkpt lat="55.165379" lon="11.957423">
<ele>45.8</ele>
<time>2018-05-27T08:05:21Z</time>
<speed>22.8</speed>
</trkpt>
<trkpt lat="55.165582" lon="11.957485">
<ele>45.9</ele>
<time>2018-05-27T08:05:22Z</time>
<speed>23.1</speed>
</trkpt>
<trkpt lat="55.165788" lon="11.957531">
<ele>45.8</ele>
<time>2018-05-27T08:05:23Z</time>
<speed>23.1</speed>
</trkpt>
<trkpt lat="55.165988" lon="11.957578">
<ele>44.9</ele>
<time>2018-05-27T08:05:24Z</time>
<speed>23.1</speed>
</trkpt>
<trkpt lat="55.166186" lon="11.957639">
<ele>44.2</ele>
<time>2018-05-27T08:05:25Z</time>
<speed>23.1</speed>
</trkpt>
<trkpt lat="55.166399" lon="11.957689">
<ele>43.5</ele>
<time>2018-05-27T08:05:26Z</time>
<speed>23.1</speed>
</trkpt>
<trkpt lat="55.166599" lon="11.957735">
<ele>42.6</ele>
<time>2018-05-27T08:05:27Z</time>
<speed>23.1</speed>
</trkpt>
<trkpt lat="55.166804" lon="11.957782">
<ele>42.6</ele>
<time>2018-05-27T08:05:28Z</time>
<speed>23.1</speed>
</trkpt>
<trkpt lat="55.167011" lon="11.957813">
<ele>42.4</ele>
<time>2018-05-27T08:05:29Z</time>
<speed>23.1</speed>
</trkpt>
<trkpt lat="55.167211" lon="11.957859">
<ele>41.5</ele>
<time>2018-05-27T08:05:30Z</time>
<speed>22.8</speed>
</trkpt>
<trkpt lat="55.167418" lon="11.957890">
<ele>41.3</ele>
<time>2018-05-27T08:05:31Z</time>
<speed>22.8</speed>
</trkpt>
<trkpt lat="55.167618" lon="11.957937">
<ele>40.4</ele>
<time>2018-05-27T08:05:32Z</time>
<speed>22.8</speed>
</trkpt>
<trkpt lat="55.167825" lon="11.957968">
<ele>40.3</ele>
<time>2018-05-27T08:05:33Z</time>
<speed>22.8</speed>
</trkpt>
<trkpt lat="55.168027" lon="11.957999">
<ele>39.3</ele>
<time>2018-05-27T08:05:34Z</time>
<speed>22.8</speed>
</trkpt>
<trkpt lat="55.168233" lon="11.958030">
<ele>39.1</ele>
<time>2018-05-27T08:05:35Z</time>
<speed>22.8</speed>
</trkpt>
<trkpt lat="55.168440" lon="11.958061">
<ele>38.9</ele>
<time>2018-05-27T08:05:36Z</time>
<speed>22.8</speed>
</trkpt>
<trkpt lat="55.168647" lon="11.958092">
<ele>38.7</ele>
<time>2018-05-27T08:05:37Z</time>
<speed>22.8</speed>
</trkpt>
<trkpt lat="55.168849" lon="11.958123">
<ele>37.7</ele>
<time>2018-05-27T08:05:38Z</time>
<speed>22.8</speed>
</trkpt>
<trkpt lat="55.169048" lon="11.958151">
<ele>38.1</ele>
<time>2018-05-27T08:05:39Z</time>
<speed>22.8</speed>
</trkpt>
<trkpt lat="55.169256" lon="11.958201">
<ele>36.6</ele>
<time>2018-05-27T08:05:40Z</time>
<speed>22.8</speed>
</trkpt>
<trkpt lat="55.169457" lon="11.958232">
<ele>35.6</ele>
<time>2018-05-27T08:05:41Z</time>
<speed>22.8</speed>
</trkpt>
<trkpt lat="55.169664" lon="11.958263">
<ele>35.5</ele>
<time>2018-05-27T08:05:42Z</time>
<speed>22.8</speed>
</trkpt>
<trkpt lat="55.169871" lon="11.958294">
<ele>35.3</ele>
<time>2018-05-27T08:05:43Z</time>
<speed>22.5</speed>
</trkpt>
<trkpt lat="55.170065" lon="11.958322">
<ele>34.8</ele>
<time>2018-05-27T08:05:44Z</time>
<speed>22.5</speed>
</trkpt>
<trkpt lat="55.170272" lon="11.958353">
<ele>34.6</ele>
<time>2018-05-27T08:05:45Z</time>
<speed>22.5</speed>
</trkpt>
<trkpt lat="55.170479" lon="11.958384">
<ele>34.5</ele>
<time>2018-05-27T08:05:46Z</time>
<speed>22.5</speed>
</trkpt>
<trkpt lat="55.170681" lon="11.958415">
<ele>33.5</ele>
<time>2018-05-27T08:05:47Z</time>
<speed>22.5</speed>
</trkpt>
<trkpt lat="55.170880" lon="11.958443">
<ele>33.8</ele>
<time>2018-05-27T08:05:48Z</time>
<speed>22.5</speed>
</trkpt>
<trkpt lat="55.171087" lon="11.958474">
<ele>33.7</ele>
<time>2018-05-27T08:05:49Z</time>
<speed>22.5</speed>
</trkpt>
<trkpt lat="55.171287" lon="11.958520">
<ele>32.8</ele>
<time>2018-05-27T08:05:50Z</time>
<speed>22.5</speed>
</trkpt>
<trkpt lat="55.171487" lon="11.958548">
<ele>33.1</ele>
<time>2018-05-27T08:05:51Z</time>
<speed>22.5</speed>
</trkpt>
<trkpt lat="55.171692" lon="11.958595">
<ele>33.1</ele>
<time>2018-05-27T08:05:52Z</time>
<speed>22.5</speed>
</trkpt>
<trkpt lat="55.171897" lon="11.958641">
<ele>33.0</ele>
<time>2018-05-27T08:05:53Z</time>
<speed>22.5</speed>
</trkpt>
<trkpt lat="55.172097" lon="11.958669">
<ele>33.4</ele>
<time>2018-05-27T08:05:54Z</time>
<speed>22.5</speed>
</trkpt>
<trkpt lat="55.172302" lon="11.958715">
<ele>33.3</ele>
<time>2018-05-27T08:05:55Z</time>
<speed>22.5</speed>
</trkpt>
<trkpt lat="55.172507" lon="11.958762">
<ele>33.3</ele>
<time>2018-05-27T08:05:56Z</time>
<speed>22.5</speed>
</trkpt>
<trkpt lat="55.172706" lon="11.958805">
<ele>33.8</ele>
<time>2018-05-27T08:05:57Z</time>
<speed>22.5</speed>
</trkpt>
<trkpt lat="55.172911" lon="11.958851">
<ele>33.7</ele>
<time>2018-05-27T08:05:58Z</time>
<speed>22.5</speed>
</trkpt>
<trkpt lat="55.173109" lon="11.958894">
<ele>34.2</ele>
<time>2018-05-27T08:05:59Z</time>
<speed>22.5</speed>
</trkpt>
<trkpt lat="55.173314" lon="11.958941">
<ele>34.1</ele>
<time>2018-05-27T08:06:00Z</time>
<speed>22.5</speed>
</trkpt>
<trkpt lat="55.173518" lon="11.959003">
<ele>34.2</ele>
<time>2018-05-27T08:06:01Z</time>
<speed>22.5</speed>
</trkpt>
<trkpt lat="55.173723" lon="11.959049">
<ele>34.1</ele>
<time>2018-05-27T08:06:02Z</time>
<speed>22.8</speed>
</trkpt>
<trkpt lat="55.173921" lon="11.959092">
<ele>34.6</ele>
<time>2018-05-27T08:06:03Z</time>
<speed>22.8</speed>
</trkpt>
<trkpt lat="55.174125" lon="11.959154">
<ele>34.7</ele>
<time>2018-05-27T08:06:04Z</time>
<speed>22.5</speed>
</trkpt>
<trkpt lat="55.174329" lon="11.959216">
<ele>34.7</ele>
<time>2018-05-27T08:06:05Z</time>
<speed>22.8</speed>
</trkpt>
<trkpt lat="55.174527" lon="11.959259">
<ele>35.2</ele>
<time>2018-05-27T08:06:06Z</time>
<speed>22.8</speed>
</trkpt>
<trkpt lat="55.174731" lon="11.959321">
<ele>35.3</ele>
<time>2018-05-27T08:06:07Z</time>
<speed>22.5</speed>
</trkpt>
<trkpt lat="55.174934" lon="11.959383">
<ele>35.4</ele>
<time>2018-05-27T08:06:08Z</time>
<speed>22.5</speed>
</trkpt>
<trkpt lat="55.175131" lon="11.959441">
<ele>36.0</ele>
<time>2018-05-27T08:06:09Z</time>
<speed>22.5</speed>
</trkpt>
<trkpt lat="55.175335" lon="11.959503">
<ele>36.0</ele>
<time>2018-05-27T08:06:10Z</time>
<speed>22.5</speed>
</trkpt>
<trkpt lat="55.175543" lon="11.959565">
<ele>36.9</ele>
<time>2018-05-27T08:06:11Z</time>
<speed>22.5</speed>
</trkpt>
<trkpt lat="55.175740" lon="11.959623">
<ele>37.5</ele>
<time>2018-05-27T08:06:12Z</time>
<speed>22.8</speed>
</trkpt>
<trkpt lat="55.175942" lon="11.959701">
<ele>37.7</ele>
<time>2018-05-27T08:06:13Z</time>
<speed>22.8</speed>
</trkpt>
<trkpt lat="55.176146" lon="11.959762">
<ele>37.8</ele>
<time>2018-05-27T08:06:14Z</time>
<speed>22.8</speed>
</trkpt>
<trkpt lat="55.176342" lon="11.959821">
<ele>38.4</ele>
<time>2018-05-27T08:06:15Z</time>
<speed>22.8</speed>
</trkpt>
<trkpt lat="55.176550" lon="11.959898">
<ele>39.4</ele>
<time>2018-05-27T08:06:16Z</time>
<speed>22.8</speed>
</trkpt>
<trkpt lat="55.176752" lon="11.959975">
<ele>39.5</ele>
<time>2018-05-27T08:06:17Z</time>
<speed>23.1</speed>
</trkpt>
<trkpt lat="55.176961" lon="11.960037">
<ele>40.4</ele>
<time>2018-05-27T08:06:18Z</time>
<speed>23.1</speed>
</trkpt>
<trkpt lat="55.177156" lon="11.960111">
<ele>41.2</ele>
<time>2018-05-27T08:06:19Z</time>
<speed>23.1</speed>
</trkpt>
<trkpt lat="55.177363" lon="11.960188">
<ele>42.2</ele>
<time>2018-05-27T08:06:20Z</time>
<speed>23.1</speed>
</trkpt>
<trkpt lat="55.177565" lon="11.960265">
<ele>42.3</ele>
<time>2018-05-27T08:06:21Z</time>
<speed>23.1</speed>
</trkpt>
<trkpt lat="55.177768" lon="11.960342">
<ele>42.5</ele>
<time>2018-05-27T08:06:22Z</time>
<speed>23.1</speed>
</trkpt>
<trkpt lat="55.177975" lon="11.960419">
<ele>43.5</ele>
<time>2018-05-27T08:06:23Z</time>
<speed>22.8</speed>
</trkpt>
<trkpt lat="55.178176" lon="11.960512">
<ele>43.8</ele>
<time>2018-05-27T08:06:24Z</time>
<speed>22.8</speed>
</trkpt>
<trkpt lat="55.178378" lon="11.960589">
<ele>44.0</ele>
<time>2018-05-27T08:06:25Z</time>
<speed>22.8</speed>
</trkpt>
<trkpt lat="55.178571" lon="11.960678">
<ele>44.8</ele>
<time>2018-05-27T08:06:26Z</time>
<speed>22.8</speed>
</trkpt>
<trkpt lat="55.178769" lon="11.960756">
<ele>44.2</ele>
<time>2018-05-27T08:06:27Z</time>
<speed>22.8</speed>
</trkpt>
<trkpt lat="55.178964" lon="11.960848">
<ele>43.7</ele>
<time>2018-05-27T08:06:28Z</time>
<speed>22.5</speed>
</trkpt>
<trkpt lat="55.179165" lon="11.960941">
<ele>44.0</ele>
<time>2018-05-27T08:06:29Z</time>
<speed>22.8</speed>
</trkpt>
<trkpt lat="55.179362" lon="11.961018">
<ele>43.3</ele>
<time>2018-05-27T08:06:30Z</time>
<speed>22.8</speed>
</trkpt>
<trkpt lat="55.179563" lon="11.961110">
<ele>43.6</ele>
<time>2018-05-27T08:06:31Z</time>
<speed>22.8</speed>
</trkpt>
<trkpt lat="55.179758" lon="11.961203">
<ele>43.1</ele>
<time>2018-05-27T08:06:32Z</time>
<speed>22.8</speed>
</trkpt>
<trkpt lat="55.179959" lon="11.961295">
<ele>43.4</ele>
<time>2018-05-27T08:06:33Z</time>
<speed>22.8</speed>
</trkpt>
<trkpt lat="55.180153" lon="11.961403">
<ele>43.0</ele>
<time>2018-05-27T08:06:34Z</time>
<speed>22.8</speed>
</trkpt>
<trkpt lat="55.180346" lon="11.961492">
<ele>43.8</ele>
<time>2018-05-27T08:06:35Z</time>
<speed>22.8</speed>
</trkpt>
<trkpt lat="55.180542" lon="11.961585">
<ele>43.3</ele>
<time>2018-05-27T08:06:36Z</time>
<speed>22.8</speed>
</trkpt>
<trkpt lat="55.180741" lon="11.961693">
<ele>43.7</ele>
<time>2018-05-27T08:06:37Z</time>
<speed>22.8</speed>
</trkpt>
<trkpt lat="55.180935" lon="11.961801">
<ele>43.3</ele>
<time>2018-05-27T08:06:38Z</time>
<speed>22.8</speed>
</trkpt>
<trkpt lat="55.181131" lon="11.961893">
<ele>42.8</ele>
<time>2018-05-27T08:06:39Z</time>
<speed>22.8</speed>
</trkpt>
<trkpt lat="55.181325" lon="11.962001">
<ele>42.4</ele>
<time>2018-05-27T08:06:40Z</time>
<speed>22.8</speed>
</trkpt>
<trkpt lat="55.181524" lon="11.962109">
<ele>42.8</ele>
<time>2018-05-27T08:06:41Z</time>
<speed>22.8</speed>
</trkpt>
<trkpt lat="55.181716" lon="11.962232">
<ele>42.5</ele>
<time>2018-05-27T08:06:42Z</time>
<speed>22.8</speed>
</trkpt>
<trkpt lat="55.181915" lon="11.962340">
<ele>42.9</ele>
<time>2018-05-27T08:06:43Z</time>
<speed>22.8</speed>
</trkpt>
<trkpt lat="55.182108" lon="11.962463">
<ele>42.6</ele>
<time>2018-05-27T08:06:44Z</time>
<speed>22.8</speed>
</trkpt>
<trkpt lat="55.182293" lon="11.962583">
<ele>42.9</ele>
<time>2018-05-27T08:06:45Z</time>
<speed>22.8</speed>
</trkpt>
<trkpt lat="55.182492" lon="11.962691">
<ele>43.3</ele>
<time>2018-05-27T08:06:46Z</time>
<speed>22.8</speed>
</trkpt>
<trkpt lat="55.182683" lon="11.962811">
<ele>44.4</ele>
<time>2018-05-27T08:06:47Z</time>
<speed>22.8</speed>
</trkpt>
<trkpt lat="55.182867" lon="11.962947">
<ele>44.8</ele>
<time>2018-05-27T08:06:48Z</time>
<speed>22.8</speed>
</trkpt>
<trkpt lat="55.183057" lon="11.963067">
<ele>45.9</ele>
<time>2018-05-27T08:06:49Z</time>
<speed>22.8</speed>
</trkpt>
<trkpt lat="55.183247" lon="11.963187">
<ele>47.0</ele>
<time>2018-05-27T08:06:50Z</time>
<speed>22.8</speed>
</trkpt>
<trkpt lat="55.183431" lon="11.963322">
<ele>47.4</ele>
<time>2018-05-27T08:06:51Z</time>
<speed>22.8</speed>
</trkpt>
<trkpt lat="55.183620" lon="11.963457">
<ele>48.6</ele>
<time>2018-05-27T08:06:52Z</time>
<speed>22.8</speed>
</trkpt>
<trkpt lat="55.183811" lon="11.963596">
<ele>48.4</ele>
<time>2018-05-27T08:06:53Z</time>
<speed>22.8</speed>
</trkpt>
<trkpt lat="55.184000" lon="11.963731">
<ele>49.6</ele>
<time>2018-05-27T08:06:54Z</time>
<speed>22.8</speed>
</trkpt>
<trkpt lat="55.184184" lon="11.963867">
<ele>50.0</ele>
<time>2018-05-27T08:06:55Z</time>
<speed>22.8</speed>
</trkpt>
<trkpt lat="55.184373" lon="11.964021">
<ele>50.0</ele>
<time>2018-05-27T08:06:56Z</time>
<speed>22.8</speed>
</trkpt>
<trkpt lat="55.184555" lon="11.964171">
<ele>50.5</ele>
<time>2018-05-27T08:06:57Z</time>
<speed>22.8</speed>
</trkpt>
<trkpt lat="55.184738" lon="11.964322">
<ele>51.0</ele>
<time>2018-05-27T08:06:58Z</time>
<speed>22.5</speed>
</trkpt>
<trkpt lat="55.184920" lon="11.964473">
<ele>51.5</ele>
<time>2018-05-27T08:06:59Z</time>
<speed>22.5</speed>
</trkpt>
<trkpt lat="55.185102" lon="11.964624">
<ele>52.0</ele>
<time>2018-05-27T08:07:00Z</time>
<speed>22.5</speed>
</trkpt>
<trkpt lat="55.185283" lon="11.964790">
<ele>52.6</ele>
<time>2018-05-27T08:07:01Z</time>
<speed>22.5</speed>
</trkpt>
<trkpt lat="55.185463" lon="11.964956">
<ele>53.3</ele>
<time>2018-05-27T08:07:02Z</time>
<speed>22.5</speed>
</trkpt>
<trkpt lat="55.185639" lon="11.965122">
<ele>53.1</ele>
<time>2018-05-27T08:07:03Z</time>
<speed>22.5</speed>
</trkpt>
<trkpt lat="55.185820" lon="11.965288">
<ele>53.7</ele>
<time>2018-05-27T08:07:04Z</time>
<speed>22.8</speed>
</trkpt>
<trkpt lat="55.186000" lon="11.965454">
<ele>54.3</ele>
<time>2018-05-27T08:07:05Z</time>
<speed>22.8</speed>
</trkpt>
<trkpt lat="55.186180" lon="11.965635">
<ele>55.1</ele>
<time>2018-05-27T08:07:06Z</time>
<speed>22.8</speed>
</trkpt>
<trkpt lat="55.186359" lon="11.965817">
<ele>55.8</ele>
<time>2018-05-27T08:07:07Z</time>
<speed>22.8</speed>
</trkpt>
<trkpt lat="55.186538" lon="11.965998">
<ele>56.6</ele>
<time>2018-05-27T08:07:08Z</time>
<speed>22.8</speed>
</trkpt>
<trkpt lat="55.186705" lon="11.966177">
<ele>57.0</ele>
<time>2018-05-27T08:07:09Z</time>
<speed>22.5</speed>
</trkpt>
<trkpt lat="55.186884" lon="11.966358">
<ele>57.8</ele>
<time>2018-05-27T08:07:10Z</time>
<speed>22.8</speed>
</trkpt>
<trkpt lat="55.187058" lon="11.966539">
<ele>57.7</ele>
<time>2018-05-27T08:07:11Z</time>
<speed>22.8</speed>
</trkpt>
<trkpt lat="55.187236" lon="11.966736">
<ele>58.6</ele>
<time>2018-05-27T08:07:12Z</time>
<speed>22.8</speed>
</trkpt>
<trkpt lat="55.187410" lon="11.966918">
<ele>58.5</ele>
<time>2018-05-27T08:07:13Z</time>
<speed>23.1</speed>
</trkpt>
<trkpt lat="55.187580" lon="11.967111">
<ele>59.9</ele>
<time>2018-05-27T08:07:14Z</time>
<speed>22.8</speed>
</trkpt>
<trkpt lat="55.187754" lon="11.967293">
<ele>59.8</ele>
<time>2018-05-27T08:07:15Z</time>
<speed>23.1</speed>
</trkpt>
<trkpt lat="55.187932" lon="11.967490">
<ele>60.7</ele>
<time>2018-05-27T08:07:16Z</time>
<speed>23.1</speed>
</trkpt>
<trkpt lat="55.188104" lon="11.967686">
<ele>60.8</ele>
<time>2018-05-27T08:07:17Z</time>
<speed>23.1</speed>
</trkpt>
<trkpt lat="55.188275" lon="11.967880">
<ele>62.2</ele>
<time>2018-05-27T08:07:18Z</time>
<speed>23.1</speed>
</trkpt>
<trkpt lat="55.188447" lon="11.968077">
<ele>62.2</ele>
<time>2018-05-27T08:07:19Z</time>
<speed>23.1</speed>
</trkpt>
<trkpt lat="55.188632" lon="11.968277">
<ele>62.5</ele>
<time>2018-05-27T08:07:20Z</time>
<speed>23.1</speed>
</trkpt>
<trkpt lat="55.188797" lon="11.968470">
<ele>63.1</ele>
<time>2018-05-27T08:07:21Z</time>
<speed>23.1</speed>
</trkpt>
<trkpt lat="55.188982" lon="11.968671">
<ele>63.4</ele>
<time>2018-05-27T08:07:22Z</time>
<speed>23.1</speed>
</trkpt>
<trkpt lat="55.189161" lon="11.968852">
<ele>64.2</ele>
<time>2018-05-27T08:07:23Z</time>
<speed>23.1</speed>
</trkpt>
<trkpt lat="55.189334" lon="11.969049">
<ele>64.2</ele>
<time>2018-05-27T08:07:24Z</time>
<speed>23.1</speed>
</trkpt>
<trkpt lat="55.189511" lon="11.969246">
<ele>65.1</ele>
<time>2018-05-27T08:07:25Z</time>
<speed>23.1</speed>
</trkpt>
<trkpt lat="55.189684" lon="11.969443">
<ele>65.1</ele>
<time>2018-05-27T08:07:26Z</time>
<speed>23.1</speed>
</trkpt>
<trkpt lat="55.189861" lon="11.969639">
<ele>66.0</ele>
<time>2018-05-27T08:07:27Z</time>
<speed>23.1</speed>
</trkpt>
<trkpt lat="55.190039" lon="11.969836">
<ele>66.9</ele>
<time>2018-05-27T08:07:28Z</time>
<speed>23.1</speed>
</trkpt>
<trkpt lat="55.190213" lon="11.970018">
<ele>66.8</ele>
<time>2018-05-27T08:07:29Z</time>
<speed>22.8</speed>
</trkpt>
<trkpt lat="55.190391" lon="11.970215">
<ele>67.7</ele>
<time>2018-05-27T08:07:30Z</time>
<speed>22.8</speed>
</trkpt>
<trkpt lat="55.190570" lon="11.970396">
<ele>68.4</ele>
<time>2018-05-27T08:07:31Z</time>
<speed>22.8</speed>
</trkpt>
<trkpt lat="55.190744" lon="11.970578">
<ele>68.3</ele>
<time>2018-05-27T08:07:32Z</time>
<speed>22.8</speed>
</trkpt>
<trkpt lat="55.190923" lon="11.970759">
<ele>69.1</ele>
<time>2018-05-27T08:07:33Z</time>
<speed>22.8</speed>
</trkpt>
<trkpt lat="55.191096" lon="11.970956">
<ele>69.1</ele>
<time>2018-05-27T08:07:34Z</time>
<speed>22.8</speed>
</trkpt>
<trkpt lat="55.191276" lon="11.971122">
<ele>69.8</ele>
<time>2018-05-27T08:07:35Z</time>
<speed>23.1</speed>
</trkpt>
<trkpt lat="55.191455" lon="11.971304">
<ele>70.5</ele>
<time>2018-05-27T08:07:36Z</time>
<speed>23.1</speed>
</trkpt>
<trkpt lat="55.191642" lon="11.971488">
<ele>70.7</ele>
<time>2018-05-27T08:07:37Z</time>
<speed>23.1</speed>
</trkpt>
<trkpt lat="55.191821" lon="11.971670">
<ele>71.5</ele>
<time>2018-05-27T08:07:38Z</time>
<speed>23.1</speed>
</trkpt>
<trkpt lat="55.192009" lon="11.971839">
<ele>71.5</ele>
<time>2018-05-27T08:07:39Z</time>
<speed>23.1</speed>
</trkpt>
<trkpt lat="55.192197" lon="11.972009">
<ele>71.6</ele>
<time>2018-05-27T08:07:40Z</time>
<speed>23.1</speed>
</trkpt>
<trkpt lat="55.192385" lon="11.972178">
<ele>71.7</ele>
<time>2018-05-27T08:07:41Z</time>
<speed>23.1</speed>
</trkpt>
<trkpt lat="55.192578" lon="11.972347">
<ele>72.6</ele>
<time>2018-05-27T08:07:42Z</time>
<speed>23.1</speed>
</trkpt>
<trkpt lat="55.192766" lon="11.972517">
<ele>72.6</ele>
<time>2018-05-27T08:07:43Z</time>
<speed>23.1</speed>
</trkpt>
<trkpt lat="55.192955" lon="11.972671">
<ele>72.6</ele>
<time>2018-05-27T08:07:44Z</time>
<speed>23.1</speed>
</trkpt>
<trkpt lat="55.193136" lon="11.972837">
<ele>73.2</ele>
<time>2018-05-27T08:07:45Z</time>
<speed>23.1</speed>
</trkpt>
<trkpt lat="55.193330" lon="11.972991">
<ele>74.0</ele>
<time>2018-05-27T08:07:46Z</time>
<speed>23.1</speed>
</trkpt>
<trkpt lat="55.193521" lon="11.973130">
<ele>73.8</ele>
<time>2018-05-27T08:07:47Z</time>
<speed>23.1</speed>
</trkpt>
<trkpt lat="55.193709" lon="11.973281">
<ele>75.2</ele>
<time>2018-05-27T08:07:48Z</time>
<speed>23.1</speed>
</trkpt>
<trkpt lat="55.193903" lon="11.973435">
<ele>75.9</ele>
<time>2018-05-27T08:07:49Z</time>
<speed>22.8</speed>
</trkpt>
<trkpt lat="55.194094" lon="11.973573">
<ele>75.8</ele>
<time>2018-05-27T08:07:50Z</time>
<speed>22.8</speed>
</trkpt>
<trkpt lat="55.194283" lon="11.973709">
<ele>77.0</ele>
<time>2018-05-27T08:07:51Z</time>
<speed>22.8</speed>
</trkpt>
<trkpt lat="55.194474" lon="11.973847">
<ele>76.8</ele>
<time>2018-05-27T08:07:52Z</time>
<speed>23.1</speed>
</trkpt>
<trkpt lat="55.194663" lon="11.973983">
<ele>78.0</ele>
<time>2018-05-27T08:07:53Z</time>
<speed>23.1</speed>
</trkpt>
<trkpt lat="55.194859" lon="11.974122">
<ele>78.7</ele>
<time>2018-05-27T08:07:54Z</time>
<speed>23.1</speed>
</trkpt>
<trkpt lat="55.195057" lon="11.974245">
<ele>79.2</ele>
<time>2018-05-27T08:07:55Z</time>
<speed>22.8</speed>
</trkpt>
<trkpt lat="55.195242" lon="11.974365">
<ele>79.5</ele>
<time>2018-05-27T08:07:56Z</time>
<speed>22.8</speed>
</trkpt>
<trkpt lat="55.195439" lon="11.974488">
<ele>80.1</ele>
<time>2018-05-27T08:07:57Z</time>
<speed>23.1</speed>
</trkpt>
<trkpt lat="55.195637" lon="11.974612">
<ele>80.6</ele>
<time>2018-05-27T08:07:58Z</time>
<speed>23.1</speed>
</trkpt>
<trkpt lat="55.195835" lon="11.974735">
<ele>81.1</ele>
<time>2018-05-27T08:07:59Z</time>
<speed>23.1</speed>
</trkpt>
<trkpt lat="55.196032" lon="11.974858">
<ele>81.7</ele>
<time>2018-05-27T08:08:00Z</time>
<speed>23.1</speed>
</trkpt>
<trkpt lat="55.196231" lon="11.974966">
<ele>82.1</ele>
<time>2018-05-27T08:08:01Z</time>
<speed>23.1</speed>
</trkpt>
<trkpt lat="55.196431" lon="11.975074">
<ele>82.5</ele>
<time>2018-05-27T08:08:02Z</time>
<speed>23.1</speed>
</trkpt>
<trkpt lat="55.196630" lon="11.975182">
<ele>82.9</ele>
<time>2018-05-27T08:08:03Z</time>
<speed>23.1</speed>
</trkpt>
<trkpt lat="55.196829" lon="11.975290">
<ele>83.4</ele>
<time>2018-05-27T08:08:04Z</time>
<speed>23.1</speed>
</trkpt>
<trkpt lat="55.197030" lon="11.975383">
<ele>83.7</ele>
<time>2018-05-27T08:08:05Z</time>
<speed>23.1</speed>
</trkpt>
<trkpt lat="55.197231" lon="11.975494">
<ele>82.7</ele>
<time>2018-05-27T08:08:06Z</time>
<speed>23.1</speed>
</trkpt>
<trkpt lat="55.197431" lon="11.975587">
<ele>83.0</ele>
<time>2018-05-27T08:08:07Z</time>
<speed>23.1</speed>
</trkpt>
<trkpt lat="55.197634" lon="11.975664">
<ele>83.2</ele>
<time>2018-05-27T08:08:08Z</time>
<speed>23.1</speed>
</trkpt>
<trkpt lat="55.197834" lon="11.975757">
<ele>83.5</ele>
<time>2018-05-27T08:08:09Z</time>
<speed>23.1</speed>
</trkpt>
<trkpt lat="55.198044" lon="11.975837">
<ele>83.1</ele>
<time>2018-05-27T08:08:10Z</time>
<speed>23.1</speed>
</trkpt>
<trkpt lat="55.198244" lon="11.975930">
<ele>83.4</ele>
<time>2018-05-27T08:08:11Z</time>
<speed>23.1</speed>
</trkpt>
<trkpt lat="55.198448" lon="11.975992">
<ele>83.5</ele>
<time>2018-05-27T08:08:12Z</time>
<speed>23.1</speed>
</trkpt>
<trkpt lat="55.198658" lon="11.976072">
<ele>83.1</ele>
<time>2018-05-27T08:08:13Z</time>
<speed>23.1</speed>
</trkpt>
<trkpt lat="55.198860" lon="11.976150">
<ele>83.3</ele>
<time>2018-05-27T08:08:14Z</time>
<speed>23.1</speed>
</trkpt>
<trkpt lat="55.199063" lon="11.976212">
<ele>83.4</ele>
<time>2018-05-27T08:08:15Z</time>
<speed>23.1</speed>
</trkpt>
<trkpt lat="55.199278" lon="11.976292">
<ele>83.8</ele>
<time>2018-05-27T08:08:16Z</time>
<speed>23.1</speed>
</trkpt>
<trkpt lat="55.199482" lon="11.976354">
<ele>83.9</ele>
<time>2018-05-27T08:08:17Z</time>
<speed>23.1</speed>
</trkpt>
<trkpt lat="55.199686" lon="11.976416">
<ele>84.0</ele>
<time>2018-05-27T08:08:18Z</time>
<speed>23.1</speed>
</trkpt>
<trkpt lat="55.199891" lon="11.976463">
<ele>83.9</ele>
<time>2018-05-27T08:08:19Z</time>
<speed>23.1</speed>
</trkpt>
<trkpt lat="55.200100" lon="11.976524">
<ele>84.8</ele>
<time>2018-05-27T08:08:20Z</time>
<speed>23.1</speed>
</trkpt>
<trkpt lat="55.200310" lon="11.976571">
<ele>85.6</ele>
<time>2018-05-27T08:08:21Z</time>
<speed>23.1</speed>
</trkpt>
<trkpt lat="55.200514" lon="11.976633">
<ele>85.6</ele>
<time>2018-05-27T08:08:22Z</time>
<speed>22.8</speed>
</trkpt>
<trkpt lat="55.200717" lon="11.976676">
<ele>87.0</ele>
<time>2018-05-27T08:08:23Z</time>
<speed>23.1</speed>
</trkpt>
<trkpt lat="55.200927" lon="11.976723">
<ele>87.7</ele>
<time>2018-05-27T08:08:24Z</time>
<speed>23.1</speed>
</trkpt>
<trkpt lat="55.201138" lon="11.976769">
<ele>88.5</ele>
<time>2018-05-27T08:08:25Z</time>
<speed>23.1</speed>
</trkpt>
<trkpt lat="55.201342" lon="11.976797">
<ele>89.7</ele>
<time>2018-05-27T08:08:26Z</time>
<speed>23.1</speed>
</trkpt>
<trkpt lat="55.201553" lon="11.976844">
<ele>90.5</ele>
<time>2018-05-27T08:08:27Z</time>
<speed>23.1</speed>
</trkpt>
<trkpt lat="55.201752" lon="11.976872">
<ele>90.9</ele>
<time>2018-05-27T08:08:28Z</time>
<speed>23.1</speed>
</trkpt>
<trkpt lat="55.201957" lon="11.976900">
<ele>92.1</ele>
<time>2018-05-27T08:08:29Z</time>
<speed>23.1</speed>
</trkpt>
<trkpt lat="55.202169" lon="11.976931">
<ele>92.7</ele>
<time>2018-05-27T08:08:30Z</time>
<speed>23.1</speed>
</trkpt>
<trkpt lat="55.202380" lon="11.976943">
<ele>94.6</ele>
<time>2018-05-27T08:08:31Z</time>
<speed>23.1</speed>
</trkpt>
<trkpt lat="55.202585" lon="11.976971">
<ele>95.9</ele>
<time>2018-05-27T08:08:32Z</time>
<speed>22.8</speed>
</trkpt>
<trkpt lat="55.202791" lon="11.976984">
<ele>96.9</ele>
<time>2018-05-27T08:08:33Z</time>
<speed>22.8</speed>
</trkpt>
<trkpt lat="55.202998" lon="11.976997">
<ele>98.0</ele>
<time>2018-05-27T08:08:34Z</time>
<speed>22.8</speed>
</trkpt>
<trkpt lat="55.203211" lon="11.977012">
<ele>98.6</ele>
<time>2018-05-27T08:08:35Z</time>
<speed>22.8</speed>
</trkpt>
<trkpt lat="55.203412" lon="11.977025">
<ele>98.8</ele>
<time>2018-05-27T08:08:36Z</time>
<speed>22.8</speed>
</trkpt>
<trkpt lat="55.203620" lon="11.977022">
<ele>99.8</ele>
<time>2018-05-27T08:08:37Z</time>
<speed>23.1</speed>
</trkpt>
<trkpt lat="55.203828" lon="11.977019">
<ele>100.8</ele>
<time>2018-05-27T08:08:38Z</time>
<speed>22.8</speed>
</trkpt>
<trkpt lat="55.204036" lon="11.977035">
<ele>100.5</ele>
<time>2018-05-27T08:08:39Z</time>
<speed>23.1</speed>
</trkpt>
<trkpt lat="55.204245" lon="11.977017">
<ele>101.4</ele>
<time>2018-05-27T08:08:40Z</time>
<speed>23.1</speed>
</trkpt>
<trkpt lat="55.204448" lon="11.977014">
<ele>101.5</ele>
<time>2018-05-27T08:08:41Z</time>
<speed>23.1</speed>
</trkpt>
<trkpt lat="55.204657" lon="11.976996">
<ele>102.4</ele>
<time>2018-05-27T08:08:42Z</time>
<speed>23.1</speed>
</trkpt>
<trkpt lat="55.204860" lon="11.976993">
<ele>102.5</ele>
<time>2018-05-27T08:08:43Z</time>
<speed>23.1</speed>
</trkpt>
<trkpt lat="55.205076" lon="11.976978">
<ele>102.8</ele>
<time>2018-05-27T08:08:44Z</time>
<speed>23.1</speed>
</trkpt>
<trkpt lat="55.205281" lon="11.976960">
<ele>102.9</ele>
<time>2018-05-27T08:08:45Z</time>
<speed>23.1</speed>
</trkpt>
<trkpt lat="55.205490" lon="11.976942">
<ele>103.7</ele>
<time>2018-05-27T08:08:46Z</time>
<speed>23.1</speed>
</trkpt>
<trkpt lat="55.205696" lon="11.976909">
<ele>103.6</ele>
<time>2018-05-27T08:08:47Z</time>
<speed>23.1</speed>
</trkpt>
<trkpt lat="55.205900" lon="11.976890">
<ele>103.7</ele>
<time>2018-05-27T08:08:48Z</time>
<speed>23.1</speed>
</trkpt>
<trkpt lat="55.206111" lon="11.976857">
<ele>104.4</ele>
<time>2018-05-27T08:08:49Z</time>
<speed>23.1</speed>
</trkpt>
<trkpt lat="55.206322" lon="11.976842">
<ele>103.9</ele>
<time>2018-05-27T08:08:50Z</time>
<speed>23.1</speed>
</trkpt>
<trkpt lat="55.206533" lon="11.976809">
<ele>104.6</ele>
<time>2018-05-27T08:08:51Z</time>
<speed>23.1</speed>
</trkpt>
<trkpt lat="55.206738" lon="11.976775">
<ele>104.5</ele>
<time>2018-05-27T08:08:52Z</time>
<speed>23.1</speed>
</trkpt>
<trkpt lat="55.206958" lon="11.976729">
<ele>104.6</ele>
<time>2018-05-27T08:08:53Z</time>
<speed>23.3</speed>
</trkpt>
<trkpt lat="55.207164" lon="11.976696">
<ele>104.5</ele>
<time>2018-05-27T08:08:54Z</time>
<speed>23.1</speed>
</trkpt>
<trkpt lat="55.207375" lon="11.976662">
<ele>105.3</ele>
<time>2018-05-27T08:08:55Z</time>
<speed>23.1</speed>
</trkpt>
<trkpt lat="55.207582" lon="11.976613">
<ele>105.1</ele>
<time>2018-05-27T08:08:56Z</time>
<speed>23.1</speed>
</trkpt>
<trkpt lat="55.207793" lon="11.976580">
<ele>105.8</ele>
<time>2018-05-27T08:08:57Z</time>
<speed>23.1</speed>
</trkpt>
<trkpt lat="55.207991" lon="11.976543">
<ele>106.3</ele>
<time>2018-05-27T08:08:58Z</time>
<speed>23.1</speed>
</trkpt>
<trkpt lat="55.208198" lon="11.976494">
<ele>106.1</ele>
<time>2018-05-27T08:08:59Z</time>
<speed>23.1</speed>
</trkpt>
<trkpt lat="55.208406" lon="11.976445">
<ele>105.9</ele>
<time>2018-05-27T08:09:00Z</time>
<speed>23.1</speed>
</trkpt>
<trkpt lat="55.208613" lon="11.976396">
<ele>105.7</ele>
<time>2018-05-27T08:09:01Z</time>
<speed>23.1</speed>
</trkpt>
<trkpt lat="55.208825" lon="11.976348">
<ele>106.3</ele>
<time>2018-05-27T08:09:02Z</time>
<speed>23.1</speed>
</trkpt>
<trkpt lat="55.209032" lon="11.976299">
<ele>106.1</ele>
<time>2018-05-27T08:09:03Z</time>
<speed>23.1</speed>
</trkpt>
<trkpt lat="55.209231" lon="11.976262">
<ele>106.6</ele>
<time>2018-05-27T08:09:04Z</time>
<speed>23.1</speed>
</trkpt>
<trkpt lat="55.209443" lon="11.976213">
<ele>107.2</ele>
<time>2018-05-27T08:09:05Z</time>
<speed>23.1</speed>
</trkpt>
<trkpt lat="55.209650" lon="11.976164">
<ele>107.0</ele>
<time>2018-05-27T08:09:06Z</time>
<speed>23.1</speed>
</trkpt>
<trkpt lat="55.209861" lon="11.976131">
<ele>107.7</ele>
<time>2018-05-27T08:09:07Z</time>
<speed>23.1</speed>
</trkpt>
<trkpt lat="55.210069" lon="11.976082">
<ele>107.5</ele>
<time>2018-05-27T08:09:08Z</time>
<speed>23.1</speed>
</trkpt>
<trkpt lat="55.210274" lon="11.976030">
<ele>108.7</ele>
<time>2018-05-27T08:09:09Z</time>
<speed>23.1</speed>
</trkpt>
<trkpt lat="55.210479" lon="11.975996">
<ele>108.6</ele>
<time>2018-05-27T08:09:10Z</time>
<speed>23.1</speed>
</trkpt>
<trkpt lat="55.210692" lon="11.975947">
<ele>109.3</ele>
<time>2018-05-27T08:09:11Z</time>
<speed>23.1</speed>
</trkpt>
<trkpt lat="55.210899" lon="11.975898">
<ele>109.1</ele>
<time>2018-05-27T08:09:12Z</time>
<speed>23.1</speed>
</trkpt>
<trkpt lat="55.211097" lon="11.975861">
<ele>109.5</ele>
<time>2018-05-27T08:09:13Z</time>
<speed>23.1</speed>
</trkpt>
<trkpt lat="55.211310" lon="11.975813">
<ele>110.2</ele>
<time>2018-05-27T08:09:14Z</time>
<speed>23.1</speed>
</trkpt>
<trkpt lat="55.211516" lon="11.975779">
<ele>110.1</ele>
<time>2018-05-27T08:09:15Z</time>
<speed>23.1</speed>
</trkpt>
<trkpt lat="55.211721" lon="11.975745">
<ele>110.0</ele>
<time>2018-05-27T08:09:16Z</time>
<speed>23.1</speed>
</trkpt>
<trkpt lat="55.211934" lon="11.975715">
<ele>109.4</ele>
<time>2018-05-27T08:09:17Z</time>
<speed>22.8</speed>
</trkpt>
<trkpt lat="55.212140" lon="11.975682">
<ele>109.3</ele>
<time>2018-05-27T08:09:18Z</time>
<speed>22.8</speed>
</trkpt>
<trkpt lat="55.212338" lon="11.975645">
<ele>109.8</ele>
<time>2018-05-27T08:09:19Z</time>
<speed>22.8</speed>
</trkpt>
<trkpt lat="55.212544" lon="11.975611">
<ele>109.7</ele>
<time>2018-05-27T08:09:20Z</time>
<speed>22.8</speed>
</trkpt>
<trkpt lat="55.212755" lon="11.975578">
<ele>110.4</ele>
<time>2018-05-27T08:09:21Z</time>
<speed>22.8</speed>
</trkpt>
<trkpt lat="55.212952" lon="11.975556">
<ele>111.0</ele>
<time>2018-05-27T08:09:22Z</time>
<speed>22.8</speed>
</trkpt>
<trkpt lat="55.213161" lon="11.975538">
<ele>111.9</ele>
<time>2018-05-27T08:09:23Z</time>
<speed>23.1</speed>
</trkpt>
<trkpt lat="55.213374" lon="11.975508">
<ele>111.2</ele>
<time>2018-05-27T08:09:24Z</time>
<speed>23.1</speed>
</trkpt>
<trkpt lat="55.213577" lon="11.975505">
<ele>111.4</ele>
<time>2018-05-27T08:09:25Z</time>
<speed>23.1</speed>
</trkpt>
<trkpt lat="55.213788" lon="11.975490">
<ele>110.9</ele>
<time>2018-05-27T08:09:26Z</time>
<speed>23.1</speed>
</trkpt>
<trkpt lat="55.213997" lon="11.975472">
<ele>111.7</ele>
<time>2018-05-27T08:09:27Z</time>
<speed>23.1</speed>
</trkpt>
<trkpt lat="55.214200" lon="11.975469">
<ele>111.9</ele>
<time>2018-05-27T08:09:28Z</time>
<speed>23.1</speed>
</trkpt>
<trkpt lat="55.214408" lon="11.975466">
<ele>112.9</ele>
<time>2018-05-27T08:09:29Z</time>
<speed>23.1</speed>
</trkpt>
<trkpt lat="55.214618" lon="11.975467">
<ele>112.5</ele>
<time>2018-05-27T08:09:30Z</time>
<speed>23.1</speed>
</trkpt>
<trkpt lat="55.214820" lon="11.975464">
<ele>112.6</ele>
<time>2018-05-27T08:09:31Z</time>
<speed>23.1</speed>
</trkpt>
<trkpt lat="55.215028" lon="11.975461">
<ele>113.6</ele>
<time>2018-05-27T08:09:32Z</time>
<speed>23.1</speed>
</trkpt>
<trkpt lat="55.215236" lon="11.975477">
<ele>113.3</ele>
<time>2018-05-27T08:09:33Z</time>
<speed>23.1</speed>
</trkpt>
<trkpt lat="55.215451" lon="11.975478">
<ele>113.8</ele>
<time>2018-05-27T08:09:34Z</time>
<speed>23.1</speed>
</trkpt>
<trkpt lat="55.215652" lon="11.975490">
<ele>114.0</ele>
<time>2018-05-27T08:09:35Z</time>
<speed>23.1</speed>
</trkpt>
<trkpt lat="55.215866" lon="11.975506">
<ele>114.6</ele>
<time>2018-05-27T08:09:36Z</time>
<speed>23.1</speed>
</trkpt>
<trkpt lat="55.216067" lon="11.975519">
<ele>114.9</ele>
<time>2018-05-27T08:09:37Z</time>
<speed>23.1</speed>
</trkpt>
<trkpt lat="55.216275" lon="11.975534">
<ele>114.6</ele>
<time>2018-05-27T08:09:38Z</time>
<speed>23.1</speed>
</trkpt>
<trkpt lat="55.216484" lon="11.975550">
<ele>114.3</ele>
<time>2018-05-27T08:09:39Z</time>
<speed>23.1</speed>
</trkpt>
<trkpt lat="55.216690" lon="11.975581">
<ele>114.1</ele>
<time>2018-05-27T08:09:40Z</time>
<speed>23.1</speed>
</trkpt>
<trkpt lat="55.216897" lon="11.975613">
<ele>114.0</ele>
<time>2018-05-27T08:09:41Z</time>
<speed>23.1</speed>
</trkpt>
<trkpt lat="55.217111" lon="11.975647">
<ele>113.2</ele>
<time>2018-05-27T08:09:42Z</time>
<speed>23.1</speed>
</trkpt>
<trkpt lat="55.217316" lon="11.975694">
<ele>113.2</ele>
<time>2018-05-27T08:09:43Z</time>
<speed>23.1</speed>
</trkpt>
<trkpt lat="55.217523" lon="11.975725">
<ele>113.0</ele>
<time>2018-05-27T08:09:44Z</time>
<speed>23.1</speed>
</trkpt>
<trkpt lat="55.217729" lon="11.975771">
<ele>113.0</ele>
<time>2018-05-27T08:09:45Z</time>
<speed>23.1</speed>
</trkpt>
<trkpt lat="55.217941" lon="11.975821">
<ele>112.4</ele>
<time>2018-05-27T08:09:46Z</time>
<speed>23.1</speed>
</trkpt>
<trkpt lat="55.218154" lon="11.975871">
<ele>111.8</ele>
<time>2018-05-27T08:09:47Z</time>
<speed>23.1</speed>
</trkpt>
<trkpt lat="55.218359" lon="11.975918">
<ele>111.7</ele>
<time>2018-05-27T08:09:48Z</time>
<speed>23.1</speed>
</trkpt>
<trkpt lat="55.218564" lon="11.975964">
<ele>111.7</ele>
<time>2018-05-27T08:09:49Z</time>
<speed>23.1</speed>
</trkpt>
<trkpt lat="55.218775" lon="11.976030">
<ele>111.2</ele>
<time>2018-05-27T08:09:50Z</time>
<speed>23.1</speed>
</trkpt>
<trkpt lat="55.218979" lon="11.976091">
<ele>111.3</ele>
<time>2018-05-27T08:09:51Z</time>
<speed>23.1</speed>
</trkpt>
<trkpt lat="55.219185" lon="11.976157">
<ele>110.0</ele>
<time>2018-05-27T08:09:52Z</time>
<speed>23.1</speed>
</trkpt>
<trkpt lat="55.219388" lon="11.976219">
<ele>110.1</ele>
<time>2018-05-27T08:09:53Z</time>
<speed>23.1</speed>
</trkpt>
<trkpt lat="55.219590" lon="11.976296">
<ele>110.3</ele>
<time>2018-05-27T08:09:54Z</time>
<speed>23.1</speed>
</trkpt>
<trkpt lat="55.219807" lon="11.976361">
<ele>110.6</ele>
<time>2018-05-27T08:09:55Z</time>
<speed>22.8</speed>
</trkpt>
<trkpt lat="55.220004" lon="11.976438">
<ele>110.0</ele>
<time>2018-05-27T08:09:56Z</time>
<speed>22.8</speed>
</trkpt>
<trkpt lat="55.220206" lon="11.976516">
<ele>110.2</ele>
<time>2018-05-27T08:09:57Z</time>
<speed>22.8</speed>
</trkpt>
<trkpt lat="55.220408" lon="11.976593">
<ele>110.4</ele>
<time>2018-05-27T08:09:58Z</time>
<speed>22.8</speed>
</trkpt>
<trkpt lat="55.220610" lon="11.976670">
<ele>110.5</ele>
<time>2018-05-27T08:09:59Z</time>
<speed>22.8</speed>
</trkpt>
<trkpt lat="55.220811" lon="11.976763">
<ele>110.9</ele>
<time>2018-05-27T08:10:00Z</time>
<speed>22.8</speed>
</trkpt>
<trkpt lat="55.221012" lon="11.976856">
<ele>111.2</ele>
<time>2018-05-27T08:10:01Z</time>
<speed>22.8</speed>
</trkpt>
<trkpt lat="55.221212" lon="11.976948">
<ele>111.5</ele>
<time>2018-05-27T08:10:02Z</time>
<speed>23.1</speed>
</trkpt>
<trkpt lat="55.221413" lon="11.977041">
<ele>111.8</ele>
<time>2018-05-27T08:10:03Z</time>
<speed>23.1</speed>
</trkpt>
<trkpt lat="55.221614" lon="11.977134">
<ele>112.1</ele>
<time>2018-05-27T08:10:04Z</time>
<speed>23.1</speed>
</trkpt>
<trkpt lat="55.221820" lon="11.977245">
<ele>112.0</ele>
<time>2018-05-27T08:10:05Z</time>
<speed>23.3</speed>
</trkpt>
<trkpt lat="55.222019" lon="11.977353">
<ele>112.4</ele>
<time>2018-05-27T08:10:06Z</time>
<speed>23.3</speed>
</trkpt>
<trkpt lat="55.222220" lon="11.977446">
<ele>112.7</ele>
<time>2018-05-27T08:10:07Z</time>
<speed>23.1</speed>
</trkpt>
<trkpt lat="55.222412" lon="11.977569">
<ele>112.5</ele>
<time>2018-05-27T08:10:08Z</time>
<speed>23.1</speed>
</trkpt>
<trkpt lat="55.222619" lon="11.977681">
<ele>112.3</ele>
<time>2018-05-27T08:10:09Z</time>
<speed>23.1</speed>
</trkpt>
<trkpt lat="55.222813" lon="11.977789">
<ele>111.9</ele>
<time>2018-05-27T08:10:10Z</time>
<speed>23.1</speed>
</trkpt>
<trkpt lat="55.223010" lon="11.977912">
<ele>112.5</ele>
<time>2018-05-27T08:10:11Z</time>
<speed>23.1</speed>
</trkpt>
<trkpt lat="55.223210" lon="11.978039">
<ele>111.7</ele>
<time>2018-05-27T08:10:12Z</time>
<speed>23.1</speed>
</trkpt>
<trkpt lat="55.223402" lon="11.978162">
<ele>111.4</ele>
<time>2018-05-27T08:10:13Z</time>
<speed>23.1</speed>
</trkpt>
<trkpt lat="55.223607" lon="11.978289">
<ele>111.4</ele>
<time>2018-05-27T08:10:14Z</time>
<speed>23.1</speed>
</trkpt>
<trkpt lat="55.223798" lon="11.978428">
<ele>111.2</ele>
<time>2018-05-27T08:10:15Z</time>
<speed>23.1</speed>
</trkpt>
<trkpt lat="55.223991" lon="11.978551">
<ele>111.0</ele>
<time>2018-05-27T08:10:16Z</time>
<speed>23.1</speed>
</trkpt>
<trkpt lat="55.224183" lon="11.978675">
<ele>110.7</ele>
<time>2018-05-27T08:10:17Z</time>
<speed>23.1</speed>
</trkpt>
<trkpt lat="55.224381" lon="11.978798">
<ele>111.2</ele>
<time>2018-05-27T08:10:18Z</time>
<speed>23.1</speed>
</trkpt>
<trkpt lat="55.224573" lon="11.978922">
<ele>111.0</ele>
<time>2018-05-27T08:10:19Z</time>
<speed>23.1</speed>
</trkpt>
<trkpt lat="55.224764" lon="11.979061">
<ele>110.8</ele>
<time>2018-05-27T08:10:20Z</time>
<speed>23.1</speed>
</trkpt>
<trkpt lat="55.224962" lon="11.979184">
<ele>111.4</ele>
<time>2018-05-27T08:10:21Z</time>
<speed>23.1</speed>
</trkpt>
<trkpt lat="55.225146" lon="11.979320">
<ele>111.8</ele>
<time>2018-05-27T08:10:22Z</time>
<speed>23.1</speed>
</trkpt>
<trkpt lat="55.225343" lon="11.979443">
<ele>112.3</ele>
<time>2018-05-27T08:10:23Z</time>
<speed>23.1</speed>
</trkpt>
<trkpt lat="55.225534" lon="11.979582">
<ele>112.2</ele>
<time>2018-05-27T08:10:24Z</time>
<speed>23.1</speed>
</trkpt>
<trkpt lat="55.225727" lon="11.979705">
<ele>111.9</ele>
<time>2018-05-27T08:10:25Z</time>
<speed>23.1</speed>
</trkpt>
<trkpt lat="55.225919" lon="11.979829">
<ele>111.6</ele>
<time>2018-05-27T08:10:26Z</time>
<speed>23.1</speed>
</trkpt>
<trkpt lat="55.226115" lon="11.979968">
<ele>112.3</ele>
<time>2018-05-27T08:10:27Z</time>
<speed>23.1</speed>
</trkpt>
<trkpt lat="55.226300" lon="11.980088">
<ele>112.6</ele>
<time>2018-05-27T08:10:28Z</time>
<speed>23.1</speed>
</trkpt>
<trkpt lat="55.226493" lon="11.980211">
<ele>112.3</ele>
<time>2018-05-27T08:10:29Z</time>
<speed>23.1</speed>
</trkpt>
<trkpt lat="55.226690" lon="11.980335">
<ele>112.9</ele>
<time>2018-05-27T08:10:30Z</time>
<speed>23.1</speed>
</trkpt>
<trkpt lat="55.226883" lon="11.980458">
<ele>112.6</ele>
<time>2018-05-27T08:10:31Z</time>
<speed>23.1</speed>
</trkpt>
<trkpt lat="55.227083" lon="11.980585">
<ele>111.8</ele>
<time>2018-05-27T08:10:32Z</time>
<speed>23.1</speed>
</trkpt>
<trkpt lat="55.227272" lon="11.980721">
<ele>113.0</ele>
<time>2018-05-27T08:10:33Z</time>
<speed>23.1</speed>
</trkpt>
<trkpt lat="55.227464" lon="11.980844">
<ele>112.7</ele>
<time>2018-05-27T08:10:34Z</time>
<speed>23.1</speed>
</trkpt>
<trkpt lat="55.227669" lon="11.980971">
<ele>112.7</ele>
<time>2018-05-27T08:10:35Z</time>
<speed>23.1</speed>
</trkpt>
<trkpt lat="55.227861" lon="11.981094">
<ele>112.5</ele>
<time>2018-05-27T08:10:36Z</time>
<speed>23.1</speed>
</trkpt>
<trkpt lat="55.228055" lon="11.981202">
<ele>112.1</ele>
<time>2018-05-27T08:10:37Z</time>
<speed>23.1</speed>
</trkpt>
<trkpt lat="55.228254" lon="11.981310">
<ele>112.5</ele>
<time>2018-05-27T08:10:38Z</time>
<speed>23.1</speed>
</trkpt>
<trkpt lat="55.228448" lon="11.981419">
<ele>112.1</ele>
<time>2018-05-27T08:10:39Z</time>
<speed>23.1</speed>
</trkpt>
<trkpt lat="55.228640" lon="11.981523">
<ele>113.1</ele>
<time>2018-05-27T08:10:40Z</time>
<speed>23.1</speed>
</trkpt>
<trkpt lat="55.228836" lon="11.981616">
<ele>112.6</ele>
<time>2018-05-27T08:10:41Z</time>
<speed>23.1</speed>
</trkpt>
<trkpt lat="55.229037" lon="11.981728">
<ele>111.7</ele>
<time>2018-05-27T08:10:42Z</time>
<speed>23.1</speed>
</trkpt>
<trkpt lat="55.229231" lon="11.981836">
<ele>111.3</ele>
<time>2018-05-27T08:10:43Z</time>
<speed>23.1</speed>
</trkpt>
<trkpt lat="55.229432" lon="11.981928">
<ele>111.6</ele>
<time>2018-05-27T08:10:44Z</time>
<speed>23.1</speed>
</trkpt>
<trkpt lat="55.229635" lon="11.982024">
<ele>110.5</ele>
<time>2018-05-27T08:10:45Z</time>
<speed>23.1</speed>
</trkpt>
<trkpt lat="55.229830" lon="11.982117">
<ele>110.0</ele>
<time>2018-05-27T08:10:46Z</time>
<speed>23.1</speed>
</trkpt>
<trkpt lat="55.230033" lon="11.982213">
<ele>109.0</ele>
<time>2018-05-27T08:10:47Z</time>
<speed>23.1</speed>
</trkpt>
<trkpt lat="55.230234" lon="11.982306">
<ele>109.3</ele>
<time>2018-05-27T08:10:48Z</time>
<speed>23.1</speed>
</trkpt>
<trkpt lat="55.230429" lon="11.982399">
<ele>108.8</ele>
<time>2018-05-27T08:10:49Z</time>
<speed>23.1</speed>
</trkpt>
<trkpt lat="55.230637" lon="11.982495">
<ele>108.5</ele>
<time>2018-05-27T08:10:50Z</time>
<speed>23.1</speed>
</trkpt>
<trkpt lat="55.230839" lon="11.982572">
<ele>108.7</ele>
<time>2018-05-27T08:10:51Z</time>
<speed>23.1</speed>
</trkpt>
<trkpt lat="55.231035" lon="11.982665">
<ele>108.2</ele>
<time>2018-05-27T08:10:52Z</time>
<speed>23.1</speed>
</trkpt>
<trkpt lat="55.231232" lon="11.982742">
<ele>107.6</ele>
<time>2018-05-27T08:10:53Z</time>
<speed>23.1</speed>
</trkpt>
<trkpt lat="55.231440" lon="11.982838">
<ele>107.4</ele>
<time>2018-05-27T08:10:54Z</time>
<speed>23.1</speed>
</trkpt>
<trkpt lat="55.231637" lon="11.982916">
<ele>106.7</ele>
<time>2018-05-27T08:10:55Z</time>
<speed>23.1</speed>
</trkpt>
<trkpt lat="55.231846" lon="11.982996">
<ele>106.4</ele>
<time>2018-05-27T08:10:56Z</time>
<speed>23.1</speed>
</trkpt>
<trkpt lat="55.232052" lon="11.983061">
<ele>105.1</ele>
<time>2018-05-27T08:10:57Z</time>
<speed>23.1</speed>
</trkpt>
<trkpt lat="55.232254" lon="11.983139">
<ele>105.3</ele>
<time>2018-05-27T08:10:58Z</time>
<speed>23.1</speed>
</trkpt>
<trkpt lat="55.232460" lon="11.983204">
<ele>104.0</ele>
<time>2018-05-27T08:10:59Z</time>
<speed>23.1</speed>
</trkpt>
<trkpt lat="55.232669" lon="11.983285">
<ele>103.6</ele>
<time>2018-05-27T08:11:00Z</time>
<speed>23.1</speed>
</trkpt>
<trkpt lat="55.232873" lon="11.983347">
<ele>103.7</ele>
<time>2018-05-27T08:11:01Z</time>
<speed>23.1</speed>
</trkpt>
<trkpt lat="55.233079" lon="11.983412">
<ele>102.4</ele>
<time>2018-05-27T08:11:02Z</time>
<speed>23.1</speed>
</trkpt>
<trkpt lat="55.233283" lon="11.983474">
<ele>102.5</ele>
<time>2018-05-27T08:11:03Z</time>
<speed>23.1</speed>
</trkpt>
<trkpt lat="55.233489" lon="11.983539">
<ele>101.2</ele>
<time>2018-05-27T08:11:04Z</time>
<speed>23.1</speed>
</trkpt>
<trkpt lat="55.233692" lon="11.983601">
<ele>101.3</ele>
<time>2018-05-27T08:11:05Z</time>
<speed>23.1</speed>
</trkpt>
<trkpt lat="55.233903" lon="11.983667">
<ele>100.8</ele>
<time>2018-05-27T08:11:06Z</time>
<speed>23.1</speed>
</trkpt>
<trkpt lat="55.234111" lon="11.983716">
<ele>99.4</ele>
<time>2018-05-27T08:11:07Z</time>
<speed>23.1</speed>
</trkpt>
<trkpt lat="55.234314" lon="11.983778">
<ele>99.4</ele>
<time>2018-05-27T08:11:08Z</time>
<speed>23.1</speed>
</trkpt>
<trkpt lat="55.234520" lon="11.983825">
<ele>99.4</ele>
<time>2018-05-27T08:11:09Z</time>
<speed>23.1</speed>
</trkpt>
<trkpt lat="55.234720" lon="11.983872">
<ele>98.6</ele>
<time>2018-05-27T08:11:10Z</time>
<speed>23.1</speed>
</trkpt>
<trkpt lat="55.234923" lon="11.983934">
<ele>98.6</ele>
<time>2018-05-27T08:11:11Z</time>
<speed>23.1</speed>
</trkpt>
<trkpt lat="55.235137" lon="11.983968">
<ele>97.9</ele>
<time>2018-05-27T08:11:12Z</time>
<speed>23.1</speed>
</trkpt>
<trkpt lat="55.235343" lon="11.984015">
<ele>97.9</ele>
<time>2018-05-27T08:11:13Z</time>
<speed>23.1</speed>
</trkpt>
<trkpt lat="55.235543" lon="11.984061">
<ele>97.0</ele>
<time>2018-05-27T08:11:14Z</time>
<speed>23.1</speed>
</trkpt>
<trkpt lat="55.235748" lon="11.984108">
<ele>97.0</ele>
<time>2018-05-27T08:11:15Z</time>
<speed>23.1</speed>
</trkpt>
<trkpt lat="55.235953" lon="11.984155">
<ele>97.0</ele>
<time>2018-05-27T08:11:16Z</time>
<speed>23.1</speed>
</trkpt>
<trkpt lat="55.236167" lon="11.984189">
<ele>96.2</ele>
<time>2018-05-27T08:11:17Z</time>
<speed>23.1</speed>
</trkpt>
<trkpt lat="55.236368" lon="11.984236">
<ele>95.4</ele>
<time>2018-05-27T08:11:18Z</time>
<speed>23.1</speed>
</trkpt>
<trkpt lat="55.236574" lon="11.984267">
<ele>95.2</ele>
<time>2018-05-27T08:11:19Z</time>
<speed>23.1</speed>
</trkpt>
<trkpt lat="55.236780" lon="11.984314">
<ele>95.2</ele>
<time>2018-05-27T08:11:20Z</time>
<speed>22.8</speed>
</trkpt>
<trkpt lat="55.236988" lon="11.984348">
<ele>93.7</ele>
<time>2018-05-27T08:11:21Z</time>
<speed>22.8</speed>
</trkpt>
<trkpt lat="55.237194" lon="11.984395">
<ele>93.6</ele>
<time>2018-05-27T08:11:22Z</time>
<speed>23.1</speed>
</trkpt>
<trkpt lat="55.237401" lon="11.984426">
<ele>93.5</ele>
<time>2018-05-27T08:11:23Z</time>
<speed>23.1</speed>
</trkpt>
<trkpt lat="55.237601" lon="11.984473">
<ele>92.6</ele>
<time>2018-05-27T08:11:24Z</time>
<speed>23.1</speed>
</trkpt>
<trkpt lat="55.237813" lon="11.984523">
<ele>92.0</ele>
<time>2018-05-27T08:11:25Z</time>
<speed>23.1</speed>
</trkpt>
<trkpt lat="55.238015" lon="11.984554">
<ele>91.0</ele>
<time>2018-05-27T08:11:26Z</time>
<speed>23.1</speed>
</trkpt>
<trkpt lat="55.238220" lon="11.984601">
<ele>91.0</ele>
<time>2018-05-27T08:11:27Z</time>
<speed>22.8</speed>
</trkpt>
<trkpt lat="55.238434" lon="11.984635">
<ele>90.3</ele>
<time>2018-05-27T08:11:28Z</time>
<speed>22.8</speed>
</trkpt>
<trkpt lat="55.238634" lon="11.984682">
<ele>89.4</ele>
<time>2018-05-27T08:11:29Z</time>
<speed>22.8</speed>
</trkpt>
<trkpt lat="55.238839" lon="11.984729">
<ele>89.4</ele>
<time>2018-05-27T08:11:30Z</time>
<speed>23.1</speed>
</trkpt>
<trkpt lat="55.239053" lon="11.984763">
<ele>88.7</ele>
<time>2018-05-27T08:11:31Z</time>
<speed>23.1</speed>
</trkpt>
<trkpt lat="55.239259" lon="11.984810">
<ele>88.7</ele>
<time>2018-05-27T08:11:32Z</time>
<speed>23.1</speed>
</trkpt>
<trkpt lat="55.239464" lon="11.984856">
<ele>88.6</ele>
<time>2018-05-27T08:11:33Z</time>
<speed>23.1</speed>
</trkpt>
<trkpt lat="55.239664" lon="11.984903">
<ele>87.8</ele>
<time>2018-05-27T08:11:34Z</time>
<speed>23.1</speed>
</trkpt>
<trkpt lat="55.239871" lon="11.984934">
<ele>87.6</ele>
<time>2018-05-27T08:11:35Z</time>
<speed>23.1</speed>
</trkpt>
<trkpt lat="55.240083" lon="11.984984">
<ele>87.0</ele>
<time>2018-05-27T08:11:36Z</time>
<speed>23.1</speed>
</trkpt>
<trkpt lat="55.240284" lon="11.985031">
<ele>86.2</ele>
<time>2018-05-27T08:11:37Z</time>
<speed>23.1</speed>
</trkpt>
<trkpt lat="55.240496" lon="11.985081">
<ele>85.6</ele>
<time>2018-05-27T08:11:38Z</time>
<speed>23.1</speed>
</trkpt>
<trkpt lat="55.240701" lon="11.985127">
<ele>85.5</ele>
<time>2018-05-27T08:11:39Z</time>
<speed>23.1</speed>
</trkpt>
<trkpt lat="55.240901" lon="11.985174">
<ele>84.7</ele>
<time>2018-05-27T08:11:40Z</time>
<speed>23.1</speed>
</trkpt>
<trkpt lat="55.241114" lon="11.985224">
<ele>84.1</ele>
<time>2018-05-27T08:11:41Z</time>
<speed>23.1</speed>
</trkpt>
<trkpt lat="55.241319" lon="11.985271">
<ele>84.1</ele>
<time>2018-05-27T08:11:42Z</time>
<speed>23.1</speed>
</trkpt>
<trkpt lat="55.241519" lon="11.985317">
<ele>83.2</ele>
<time>2018-05-27T08:11:43Z</time>
<speed>23.1</speed>
</trkpt>
<trkpt lat="55.241732" lon="11.985367">
<ele>82.6</ele>
<time>2018-05-27T08:11:44Z</time>
<speed>23.1</speed>
</trkpt>
<trkpt lat="55.241936" lon="11.985429">
<ele>82.7</ele>
<time>2018-05-27T08:11:45Z</time>
<speed>23.1</speed>
</trkpt>
<trkpt lat="55.242139" lon="11.985491">
<ele>82.8</ele>
<time>2018-05-27T08:11:46Z</time>
<speed>23.1</speed>
</trkpt>
<trkpt lat="55.242343" lon="11.985553">
<ele>82.9</ele>
<time>2018-05-27T08:11:47Z</time>
<speed>23.1</speed>
</trkpt>
<trkpt lat="55.242547" lon="11.985615">
<ele>82.9</ele>
<time>2018-05-27T08:11:48Z</time>
<speed>23.1</speed>
</trkpt>
<trkpt lat="55.242750" lon="11.985677">
<ele>83.0</ele>
<time>2018-05-27T08:11:49Z</time>
<speed>23.1</speed>
</trkpt>
<trkpt lat="55.242949" lon="11.985739">
<ele>82.3</ele>
<time>2018-05-27T08:11:50Z</time>
<speed>23.1</speed>
</trkpt>
<trkpt lat="55.243162" lon="11.985789">
<ele>81.7</ele>
<time>2018-05-27T08:11:51Z</time>
<speed>23.1</speed>
</trkpt>
<trkpt lat="55.243365" lon="11.985851">
<ele>81.8</ele>
<time>2018-05-27T08:11:52Z</time>
<speed>22.8</speed>
</trkpt>
<trkpt lat="55.243564" lon="11.985913">
<ele>81.0</ele>
<time>2018-05-27T08:11:53Z</time>
<speed>22.8</speed>
</trkpt>
<trkpt lat="55.243768" lon="11.985975">
<ele>81.1</ele>
<time>2018-05-27T08:11:54Z</time>
<speed>23.1</speed>
</trkpt>
<trkpt lat="55.243979" lon="11.986041">
<ele>80.7</ele>
<time>2018-05-27T08:11:55Z</time>
<speed>23.1</speed>
</trkpt>
<trkpt lat="55.244177" lon="11.986103">
<ele>79.9</ele>
<time>2018-05-27T08:11:56Z</time>
<speed>23.1</speed>
</trkpt>
<trkpt lat="55.244387" lon="11.986183">
<ele>79.6</ele>
<time>2018-05-27T08:11:57Z</time>
<speed>23.1</speed>
</trkpt>
<trkpt lat="55.244590" lon="11.986245">
<ele>79.7</ele>
<time>2018-05-27T08:11:58Z</time>
<speed>23.1</speed>
</trkpt>
<trkpt lat="55.244795" lon="11.986326">
<ele>78.5</ele>
<time>2018-05-27T08:11:59Z</time>
<speed>23.1</speed>
</trkpt>
<trkpt lat="55.244998" lon="11.986388">
<ele>78.6</ele>
<time>2018-05-27T08:12:00Z</time>
<speed>23.1</speed>
</trkpt>
<trkpt lat="55.245209" lon="11.986453">
<ele>78.1</ele>
<time>2018-05-27T08:12:01Z</time>
<speed>23.1</speed>
</trkpt>
<trkpt lat="55.245406" lon="11.986531">
<ele>77.5</ele>
<time>2018-05-27T08:12:02Z</time>
<speed>23.3</speed>
</trkpt>
<trkpt lat="55.245617" lon="11.986596">
<ele>77.0</ele>
<time>2018-05-27T08:12:03Z</time>
<speed>23.3</speed>
</trkpt>
<trkpt lat="55.245827" lon="11.986677">
<ele>76.7</ele>
<time>2018-05-27T08:12:04Z</time>
<speed>23.3</speed>
</trkpt>
<trkpt lat="55.246030" lon="11.986739">
<ele>76.7</ele>
<time>2018-05-27T08:12:05Z</time>
<speed>23.3</speed>
</trkpt>
<trkpt lat="55.246235" lon="11.986820">
<ele>75.6</ele>
<time>2018-05-27T08:12:06Z</time>
<speed>23.3</speed>
</trkpt>
<trkpt lat="55.246444" lon="11.986900">
<ele>75.2</ele>
<time>2018-05-27T08:12:07Z</time>
<speed>23.1</speed>
</trkpt>
<trkpt lat="55.246648" lon="11.986962">
<ele>75.3</ele>
<time>2018-05-27T08:12:08Z</time>
<speed>23.1</speed>
</trkpt>
<trkpt lat="55.246852" lon="11.987043">
<ele>74.1</ele>
<time>2018-05-27T08:12:09Z</time>
<speed>23.1</speed>
</trkpt>
<trkpt lat="55.247054" lon="11.987120">
<ele>74.3</ele>
<time>2018-05-27T08:12:10Z</time>
<speed>23.1</speed>
</trkpt>
<trkpt lat="55.247257" lon="11.987198">
<ele>74.5</ele>
<time>2018-05-27T08:12:11Z</time>
<speed>23.1</speed>
</trkpt>
<trkpt lat="55.247461" lon="11.987279">
<ele>73.4</ele>
<time>2018-05-27T08:12:12Z</time>
<speed>23.1</speed>
</trkpt>
<trkpt lat="55.247663" lon="11.987356">
<ele>73.6</ele>
<time>2018-05-27T08:12:13Z</time>
<speed>23.1</speed>
</trkpt>
<trkpt lat="55.247872" lon="11.987437">
<ele>73.2</ele>
<time>2018-05-27T08:12:14Z</time>
<speed>23.1</speed>
</trkpt>
<trkpt lat="55.248073" lon="11.987529">
<ele>73.5</ele>
<time>2018-05-27T08:12:15Z</time>
<speed>23.1</speed>
</trkpt>
<trkpt lat="55.248277" lon="11.987610">
<ele>72.4</ele>
<time>2018-05-27T08:12:16Z</time>
<speed>23.1</speed>
</trkpt>
<trkpt lat="55.248480" lon="11.987688">
<ele>72.6</ele>
<time>2018-05-27T08:12:17Z</time>
<speed>23.1</speed>
</trkpt>
<trkpt lat="55.248682" lon="11.987784">
<ele>71.5</ele>
<time>2018-05-27T08:12:18Z</time>
<speed>23.1</speed>
</trkpt>
<trkpt lat="55.248887" lon="11.987864">
<ele>70.3</ele>
<time>2018-05-27T08:12:19Z</time>
<speed>23.1</speed>
</trkpt>
<trkpt lat="55.249087" lon="11.987957">
<ele>70.7</ele>
<time>2018-05-27T08:12:20Z</time>
<speed>23.1</speed>
</trkpt>
<trkpt lat="55.249290" lon="11.988053">
<ele>69.6</ele>
<time>2018-05-27T08:12:21Z</time>
<speed>23.1</speed>
</trkpt>
<trkpt lat="55.249494" lon="11.988134">
<ele>68.4</ele>
<time>2018-05-27T08:12:22Z</time>
<speed>23.1</speed>
</trkpt>
<trkpt lat="55.249707" lon="11.988230">
<ele>69.0</ele>
<time>2018-05-27T08:12:23Z</time>
<speed>23.1</speed>
</trkpt>
<trkpt lat="55.249903" lon="11.988323">
<ele>68.5</ele>
<time>2018-05-27T08:12:24Z</time>
<speed>23.1</speed>
</trkpt>
<trkpt lat="55.250107" lon="11.988404">
<ele>67.3</ele>
<time>2018-05-27T08:12:25Z</time>
<speed>23.1</speed>
</trkpt>
<trkpt lat="55.250308" lon="11.988496">
<ele>67.7</ele>
<time>2018-05-27T08:12:26Z</time>
<speed>23.1</speed>
</trkpt>
<trkpt lat="55.250511" lon="11.988592">
<ele>66.6</ele>
<time>2018-05-27T08:12:27Z</time>
<speed>23.1</speed>
</trkpt>
<trkpt lat="55.250713" lon="11.988689">
<ele>65.6</ele>
<time>2018-05-27T08:12:28Z</time>
<speed>23.1</speed>
</trkpt>
<trkpt lat="55.250915" lon="11.988800">
<ele>64.6</ele>
<time>2018-05-27T08:12:29Z</time>
<speed>23.1</speed>
</trkpt>
<trkpt lat="55.251110" lon="11.988893">
<ele>64.1</ele>
<time>2018-05-27T08:12:30Z</time>
<speed>23.1</speed>
</trkpt>
<trkpt lat="55.251316" lon="11.989004">
<ele>64.0</ele>
<time>2018-05-27T08:12:31Z</time>
<speed>23.1</speed>
</trkpt>
<trkpt lat="55.251510" lon="11.989113">
<ele>63.6</ele>
<time>2018-05-27T08:12:32Z</time>
<speed>23.1</speed>
</trkpt>
<trkpt lat="55.251710" lon="11.989221">
<ele>64.1</ele>
<time>2018-05-27T08:12:33Z</time>
<speed>23.1</speed>
</trkpt>
<trkpt lat="55.251911" lon="11.989332">
<ele>63.1</ele>
<time>2018-05-27T08:12:34Z</time>
<speed>23.3</speed>
</trkpt>
<trkpt lat="55.252110" lon="11.989440">
<ele>63.6</ele>
<time>2018-05-27T08:12:35Z</time>
<speed>23.3</speed>
</trkpt>
<trkpt lat="55.252302" lon="11.989564">
<ele>63.3</ele>
<time>2018-05-27T08:12:36Z</time>
<speed>23.3</speed>
</trkpt>
<trkpt lat="55.252509" lon="11.989675">
<ele>63.2</ele>
<time>2018-05-27T08:12:37Z</time>
<speed>23.1</speed>
</trkpt>
<trkpt lat="55.252706" lon="11.989799">
<ele>63.8</ele>
<time>2018-05-27T08:12:38Z</time>
<speed>23.1</speed>
</trkpt>
<trkpt lat="55.252904" lon="11.989923">
<ele>64.3</ele>
<time>2018-05-27T08:12:39Z</time>
<speed>23.1</speed>
</trkpt>
<trkpt lat="55.253102" lon="11.990046">
<ele>64.9</ele>
<time>2018-05-27T08:12:40Z</time>
<speed>23.1</speed>
</trkpt>
<trkpt lat="55.253294" lon="11.990170">
<ele>64.6</ele>
<time>2018-05-27T08:12:41Z</time>
<speed>23.1</speed>
</trkpt>
<trkpt lat="55.253492" lon="11.990293">
<ele>65.2</ele>
<time>2018-05-27T08:12:42Z</time>
<speed>23.1</speed>
</trkpt>
<trkpt lat="55.253690" lon="11.990436">
<ele>64.5</ele>
<time>2018-05-27T08:12:43Z</time>
<speed>23.1</speed>
</trkpt>
<trkpt lat="55.253882" lon="11.990559">
<ele>64.3</ele>
<time>2018-05-27T08:12:44Z</time>
<speed>23.1</speed>
</trkpt>
<trkpt lat="55.254073" lon="11.990698">
<ele>64.1</ele>
<time>2018-05-27T08:12:45Z</time>
<speed>23.1</speed>
</trkpt>
<trkpt lat="55.254269" lon="11.990837">
<ele>64.8</ele>
<time>2018-05-27T08:12:46Z</time>
<speed>23.1</speed>
</trkpt>
<trkpt lat="55.254459" lon="11.990992">
<ele>64.8</ele>
<time>2018-05-27T08:12:47Z</time>
<speed>23.3</speed>
</trkpt>
<trkpt lat="55.254648" lon="11.991146">
<ele>64.8</ele>
<time>2018-05-27T08:12:48Z</time>
<speed>23.1</speed>
</trkpt>
<trkpt lat="55.254840" lon="11.991304">
<ele>63.3</ele>
<time>2018-05-27T08:12:49Z</time>
<speed>23.1</speed>
</trkpt>
<trkpt lat="55.255029" lon="11.991458">
<ele>63.3</ele>
<time>2018-05-27T08:12:50Z</time>
<speed>23.1</speed>
</trkpt>
<trkpt lat="55.255213" lon="11.991612">
<ele>62.5</ele>
<time>2018-05-27T08:12:51Z</time>
<speed>23.1</speed>
</trkpt>
<trkpt lat="55.255401" lon="11.991782">
<ele>62.6</ele>
<time>2018-05-27T08:12:52Z</time>
<speed>23.1</speed>
</trkpt>
<trkpt lat="55.255584" lon="11.991952">
<ele>61.9</ele>
<time>2018-05-27T08:12:53Z</time>
<speed>23.1</speed>
</trkpt>
<trkpt lat="55.255767" lon="11.992122">
<ele>61.1</ele>
<time>2018-05-27T08:12:54Z</time>
<speed>23.1</speed>
</trkpt>
<trkpt lat="55.255949" lon="11.992292">
<ele>60.4</ele>
<time>2018-05-27T08:12:55Z</time>
<speed>23.1</speed>
</trkpt>
<trkpt lat="55.256123" lon="11.992473">
<ele>60.4</ele>
<time>2018-05-27T08:12:56Z</time>
<speed>23.1</speed>
</trkpt>
<trkpt lat="55.256305" lon="11.992659">
<ele>59.8</ele>
<time>2018-05-27T08:12:57Z</time>
<speed>23.1</speed>
</trkpt>
<trkpt lat="55.256479" lon="11.992859">
<ele>58.4</ele>
<time>2018-05-27T08:12:58Z</time>
<speed>23.1</speed>
</trkpt>
<trkpt lat="55.256659" lon="11.993060">
<ele>58.0</ele>
<time>2018-05-27T08:12:59Z</time>
<speed>23.1</speed>
</trkpt>
<trkpt lat="55.256831" lon="11.993257">
<ele>58.0</ele>
<time>2018-05-27T08:13:00Z</time>
<speed>23.1</speed>
</trkpt>
<trkpt lat="55.257011" lon="11.993457">
<ele>57.5</ele>
<time>2018-05-27T08:13:01Z</time>
<speed>23.1</speed>
</trkpt>
<trkpt lat="55.257177" lon="11.993670">
<ele>56.9</ele>
<time>2018-05-27T08:13:02Z</time>
<speed>23.1</speed>
</trkpt>
<trkpt lat="55.257356" lon="11.993871">
<ele>56.4</ele>
<time>2018-05-27T08:13:03Z</time>
<speed>23.1</speed>
</trkpt>
<trkpt lat="55.257529" lon="11.994068">
<ele>56.5</ele>
<time>2018-05-27T08:13:04Z</time>
<speed>23.1</speed>
</trkpt>
<trkpt lat="55.257696" lon="11.994265">
<ele>55.7</ele>
<time>2018-05-27T08:13:05Z</time>
<speed>22.8</speed>
</trkpt>
<trkpt lat="55.257876" lon="11.994466">
<ele>55.3</ele>
<time>2018-05-27T08:13:06Z</time>
<speed>22.8</speed>
</trkpt>
<trkpt lat="55.258042" lon="11.994678">
<ele>54.6</ele>
<time>2018-05-27T08:13:07Z</time>
<speed>22.8</speed>
</trkpt>
<trkpt lat="55.258213" lon="11.994891">
<ele>54.8</ele>
<time>2018-05-27T08:13:08Z</time>
<speed>22.8</speed>
</trkpt>
<trkpt lat="55.258380" lon="11.995088">
<ele>54.1</ele>
<time>2018-05-27T08:13:09Z</time>
<speed>22.8</speed>
</trkpt>
<trkpt lat="55.258546" lon="11.995301">
<ele>53.4</ele>
<time>2018-05-27T08:13:10Z</time>
<speed>22.8</speed>
</trkpt>
<trkpt lat="55.258712" lon="11.995514">
<ele>52.8</ele>
<time>2018-05-27T08:13:11Z</time>
<speed>22.8</speed>
</trkpt>
<trkpt lat="55.258876" lon="11.995742">
<ele>52.3</ele>
<time>2018-05-27T08:13:12Z</time>
<speed>23.1</speed>
</trkpt>
<trkpt lat="55.259047" lon="11.995955">
<ele>52.5</ele>
<time>2018-05-27T08:13:13Z</time>
<speed>22.8</speed>
</trkpt>
<trkpt lat="55.259211" lon="11.996183">
<ele>52.0</ele>
<time>2018-05-27T08:13:14Z</time>
<speed>22.8</speed>
</trkpt>
<trkpt lat="55.259375" lon="11.996411">
<ele>51.4</ele>
<time>2018-05-27T08:13:15Z</time>
<speed>22.8</speed>
</trkpt>
<trkpt lat="55.259540" lon="11.996639">
<ele>50.9</ele>
<time>2018-05-27T08:13:16Z</time>
<speed>22.8</speed>
</trkpt>
<trkpt lat="55.259695" lon="11.996879">
<ele>51.1</ele>
<time>2018-05-27T08:13:17Z</time>
<speed>23.1</speed>
</trkpt>
<trkpt lat="55.259859" lon="11.997107">
<ele>50.6</ele>
<time>2018-05-27T08:13:18Z</time>
<speed>23.1</speed>
</trkpt>
<trkpt lat="55.260010" lon="11.997347">
<ele>49.9</ele>
<time>2018-05-27T08:13:19Z</time>
<speed>23.1</speed>
</trkpt>
<trkpt lat="55.260165" lon="11.997587">
<ele>50.1</ele>
<time>2018-05-27T08:13:20Z</time>
<speed>23.1</speed>
</trkpt>
<trkpt lat="55.260328" lon="11.997831">
<ele>49.7</ele>
<time>2018-05-27T08:13:21Z</time>
<speed>23.1</speed>
</trkpt>
<trkpt lat="55.260484" lon="11.998071">
<ele>49.9</ele>
<time>2018-05-27T08:13:22Z</time>
<speed>22.8</speed>
</trkpt>
<trkpt lat="55.260639" lon="11.998311">
<ele>50.0</ele>
<time>2018-05-27T08:13:23Z</time>
<speed>22.8</speed>
</trkpt>
<trkpt lat="55.260795" lon="11.998551">
<ele>50.2</ele>
<time>2018-05-27T08:13:24Z</time>
<speed>22.8</speed>
</trkpt>
<trkpt lat="55.260950" lon="11.998792">
<ele>50.3</ele>
<time>2018-05-27T08:13:25Z</time>
<speed>22.8</speed>
</trkpt>
<trkpt lat="55.261106" lon="11.999032">
<ele>50.5</ele>
<time>2018-05-27T08:13:26Z</time>
<speed>22.8</speed>
</trkpt>
<trkpt lat="55.261252" lon="11.999284">
<ele>51.4</ele>
<time>2018-05-27T08:13:27Z</time>
<speed>22.8</speed>
</trkpt>
<trkpt lat="55.261408" lon="11.999524">
<ele>51.5</ele>
<time>2018-05-27T08:13:28Z</time>
<speed>22.8</speed>
</trkpt>
<trkpt lat="55.261563" lon="11.999765">
<ele>51.7</ele>
<time>2018-05-27T08:13:29Z</time>
<speed>23.1</speed>
</trkpt>
<trkpt lat="55.261719" lon="12.000005">
<ele>51.8</ele>
<time>2018-05-27T08:13:30Z</time>
<speed>23.1</speed>
</trkpt>
<trkpt lat="55.261874" lon="12.000245">
<ele>52.0</ele>
<time>2018-05-27T08:13:31Z</time>
<speed>23.1</speed>
</trkpt>
<trkpt lat="55.262030" lon="12.000485">
<ele>52.2</ele>
<time>2018-05-27T08:13:32Z</time>
<speed>23.1</speed>
</trkpt>
<trkpt lat="55.262189" lon="12.000741">
<ele>53.3</ele>
<time>2018-05-27T08:13:33Z</time>
<speed>23.3</speed>
</trkpt>
<trkpt lat="55.262345" lon="12.000981">
<ele>53.4</ele>
<time>2018-05-27T08:13:34Z</time>
<speed>23.3</speed>
</trkpt>
<trkpt lat="55.262509" lon="12.001209">
<ele>52.9</ele>
<time>2018-05-27T08:13:35Z</time>
<speed>23.1</speed>
</trkpt>
<trkpt lat="55.262669" lon="12.001449">
<ele>53.9</ele>
<time>2018-05-27T08:13:36Z</time>
<speed>23.1</speed>
</trkpt>
<trkpt lat="55.262834" lon="12.001678">
<ele>53.4</ele>
<time>2018-05-27T08:13:37Z</time>
<speed>23.1</speed>
</trkpt>
<trkpt lat="55.262996" lon="12.001902">
<ele>54.3</ele>
<time>2018-05-27T08:13:38Z</time>
<speed>23.1</speed>
</trkpt>
<trkpt lat="55.263160" lon="12.002131">
<ele>53.8</ele>
<time>2018-05-27T08:13:39Z</time>
<speed>23.1</speed>
</trkpt>
<trkpt lat="55.263331" lon="12.002343">
<ele>54.0</ele>
<time>2018-05-27T08:13:40Z</time>
<speed>23.1</speed>
</trkpt>
<trkpt lat="55.263495" lon="12.002571">
<ele>53.4</ele>
<time>2018-05-27T08:13:41Z</time>
<speed>23.1</speed>
</trkpt>
<trkpt lat="55.263666" lon="12.002784">
<ele>53.6</ele>
<time>2018-05-27T08:13:42Z</time>
<speed>23.3</speed>
</trkpt>
<trkpt lat="55.263837" lon="12.002997">
<ele>53.8</ele>
<time>2018-05-27T08:13:43Z</time>
<speed>23.3</speed>
</trkpt>
<trkpt lat="55.264008" lon="12.003210">
<ele>54.0</ele>
<time>2018-05-27T08:13:44Z</time>
<speed>23.3</speed>
</trkpt>
<trkpt lat="55.264193" lon="12.003410">
<ele>54.4</ele>
<time>2018-05-27T08:13:45Z</time>
<speed>23.3</speed>
</trkpt>
<trkpt lat="55.264365" lon="12.003608">
<ele>54.4</ele>
<time>2018-05-27T08:13:46Z</time>
<speed>23.3</speed>
</trkpt>
<trkpt lat="55.264546" lon="12.003793">
<ele>53.8</ele>
<time>2018-05-27T08:13:47Z</time>
<speed>23.3</speed>
</trkpt>
<trkpt lat="55.264726" lon="12.003993">
<ele>53.3</ele>
<time>2018-05-27T08:13:48Z</time>
<speed>23.1</speed>
</trkpt>
<trkpt lat="55.264907" lon="12.004179">
<ele>52.7</ele>
<time>2018-05-27T08:13:49Z</time>
<speed>23.1</speed>
</trkpt>
<trkpt lat="55.265081" lon="12.004361">
<ele>52.7</ele>
<time>2018-05-27T08:13:50Z</time>
<speed>23.1</speed>
</trkpt>
<trkpt lat="55.265269" lon="12.004531">
<ele>52.8</ele>
<time>2018-05-27T08:13:51Z</time>
<speed>23.1</speed>
</trkpt>
<trkpt lat="55.265455" lon="12.004716">
<ele>53.0</ele>
<time>2018-05-27T08:13:52Z</time>
<speed>23.1</speed>
</trkpt>
<trkpt lat="55.265631" lon="12.004882">
<ele>52.9</ele>
<time>2018-05-27T08:13:53Z</time>
<speed>23.1</speed>
</trkpt>
<trkpt lat="55.265819" lon="12.005052">
<ele>53.0</ele>
<time>2018-05-27T08:13:54Z</time>
<speed>23.1</speed>
</trkpt>
<trkpt lat="55.266008" lon="12.005207">
<ele>52.9</ele>
<time>2018-05-27T08:13:55Z</time>
<speed>23.1</speed>
</trkpt>
<trkpt lat="55.266193" lon="12.005361">
<ele>52.1</ele>
<time>2018-05-27T08:13:56Z</time>
<speed>23.1</speed>
</trkpt>
<trkpt lat="55.266383" lon="12.005500">
<ele>52.0</ele>
<time>2018-05-27T08:13:57Z</time>
<speed>22.8</speed>
</trkpt>
<trkpt lat="55.266574" lon="12.005639">
<ele>51.8</ele>
<time>2018-05-27T08:13:58Z</time>
<speed>22.8</speed>
</trkpt>
<trkpt lat="55.266763" lon="12.005775">
<ele>53.1</ele>
<time>2018-05-27T08:13:59Z</time>
<speed>23.1</speed>
</trkpt>
<trkpt lat="55.266956" lon="12.005899">
<ele>52.8</ele>
<time>2018-05-27T08:14:00Z</time>
<speed>22.8</speed>
</trkpt>
<trkpt lat="55.267148" lon="12.006023">
<ele>52.6</ele>
<time>2018-05-27T08:14:01Z</time>
<speed>22.8</speed>
</trkpt>
<trkpt lat="55.267346" lon="12.006146">
<ele>53.1</ele>
<time>2018-05-27T08:14:02Z</time>
<speed>23.1</speed>
</trkpt>
<trkpt lat="55.267538" lon="12.006270">
<ele>52.9</ele>
<time>2018-05-27T08:14:03Z</time>
<speed>23.1</speed>
</trkpt>
<trkpt lat="55.267732" lon="12.006378">
<ele>52.5</ele>
<time>2018-05-27T08:14:04Z</time>
<speed>23.1</speed>
</trkpt>
<trkpt lat="55.267926" lon="12.006487">
<ele>52.2</ele>
<time>2018-05-27T08:14:05Z</time>
<speed>23.1</speed>
</trkpt>
<trkpt lat="55.268125" lon="12.006595">
<ele>52.6</ele>
<time>2018-05-27T08:14:06Z</time>
<speed>23.1</speed>
</trkpt>
<trkpt lat="55.268314" lon="12.006703">
<ele>51.4</ele>
<time>2018-05-27T08:14:07Z</time>
<speed>23.1</speed>
</trkpt>
<trkpt lat="55.268510" lon="12.006796">
<ele>50.9</ele>
<time>2018-05-27T08:14:08Z</time>
<speed>23.1</speed>
</trkpt>
<trkpt lat="55.268705" lon="12.006889">
<ele>50.4</ele>
<time>2018-05-27T08:14:09Z</time>
<speed>23.1</speed>
</trkpt>
<trkpt lat="55.268902" lon="12.006967">
<ele>49.8</ele>
<time>2018-05-27T08:14:10Z</time>
<speed>23.1</speed>
</trkpt>
<trkpt lat="55.269098" lon="12.007060">
<ele>49.3</ele>
<time>2018-05-27T08:14:11Z</time>
<speed>23.1</speed>
</trkpt>
<trkpt lat="55.269295" lon="12.007137">
<ele>48.7</ele>
<time>2018-05-27T08:14:12Z</time>
<speed>23.1</speed>
</trkpt>
<trkpt lat="55.269499" lon="12.007200">
<ele>48.8</ele>
<time>2018-05-27T08:14:13Z</time>
<speed>23.1</speed>
</trkpt>
<trkpt lat="55.269702" lon="12.007262">
<ele>48.9</ele>
<time>2018-05-27T08:14:14Z</time>
<speed>23.1</speed>
</trkpt>
<trkpt lat="55.269908" lon="12.007327">
<ele>47.6</ele>
<time>2018-05-27T08:14:15Z</time>
<speed>23.1</speed>
</trkpt>
<trkpt lat="55.270112" lon="12.007390">
<ele>47.7</ele>
<time>2018-05-27T08:14:16Z</time>
<speed>23.1</speed>
</trkpt>
<trkpt lat="55.270318" lon="12.007455">
<ele>46.5</ele>
<time>2018-05-27T08:14:17Z</time>
<speed>23.1</speed>
</trkpt>
<trkpt lat="55.270518" lon="12.007502">
<ele>45.6</ele>
<time>2018-05-27T08:14:18Z</time>
<speed>23.1</speed>
</trkpt>
<trkpt lat="55.270718" lon="12.007549">
<ele>44.8</ele>
<time>2018-05-27T08:14:19Z</time>
<speed>23.1</speed>
</trkpt>
<trkpt lat="55.270925" lon="12.007599">
<ele>43.4</ele>
<time>2018-05-27T08:14:20Z</time>
<speed>23.1</speed>
</trkpt>
<trkpt lat="55.271130" lon="12.007645">
<ele>43.3</ele>
<time>2018-05-27T08:14:21Z</time>
<speed>23.1</speed>
</trkpt>
<trkpt lat="55.271331" lon="12.007692">
<ele>42.5</ele>
<time>2018-05-27T08:14:22Z</time>
<speed>23.1</speed>
</trkpt>
<trkpt lat="55.271536" lon="12.007739">
<ele>42.5</ele>
<time>2018-05-27T08:14:23Z</time>
<speed>23.1</speed>
</trkpt>
<trkpt lat="55.271743" lon="12.007770">
<ele>42.3</ele>
<time>2018-05-27T08:14:24Z</time>
<speed>23.1</speed>
</trkpt>
<trkpt lat="55.271943" lon="12.007817">
<ele>41.5</ele>
<time>2018-05-27T08:14:25Z</time>
<speed>23.1</speed>
</trkpt>
<trkpt lat="55.272148" lon="12.007864">
<ele>41.5</ele>
<time>2018-05-27T08:14:26Z</time>
<speed>23.1</speed>
</trkpt>
<trkpt lat="55.272355" lon="12.007895">
<ele>41.3</ele>
<time>2018-05-27T08:14:27Z</time>
<speed>23.1</speed>
</trkpt>
<trkpt lat="55.272560" lon="12.007942">
<ele>41.3</ele>
<time>2018-05-27T08:14:28Z</time>
<speed>22.8</speed>
</trkpt>
<trkpt lat="55.272767" lon="12.007974">
<ele>41.2</ele>
<time>2018-05-27T08:14:29Z</time>
<speed>22.8</speed>
</trkpt>
<trkpt lat="55.272960" lon="12.008017">
<ele>40.9</ele>
<time>2018-05-27T08:14:30Z</time>
<speed>22.8</speed>
</trkpt>
<trkpt lat="55.273165" lon="12.008064">
<ele>40.9</ele>
<time>2018-05-27T08:14:31Z</time>
<speed>22.8</speed>
</trkpt>
<trkpt lat="55.273372" lon="12.008095">
<ele>40.7</ele>
<time>2018-05-27T08:14:32Z</time>
<speed>22.8</speed>
</trkpt>
<trkpt lat="55.273576" lon="12.008158">
<ele>40.8</ele>
<time>2018-05-27T08:14:33Z</time>
<speed>22.5</speed>
</trkpt>
<trkpt lat="55.273774" lon="12.008201">
<ele>41.4</ele>
<time>2018-05-27T08:14:34Z</time>
<speed>22.8</speed>
</trkpt>
<trkpt lat="55.273977" lon="12.008263">
<ele>41.5</ele>
<time>2018-05-27T08:14:35Z</time>
<speed>22.8</speed>
</trkpt>
<trkpt lat="55.274174" lon="12.008322">
<ele>42.1</ele>
<time>2018-05-27T08:14:36Z</time>
<speed>22.8</speed>
</trkpt>
<trkpt lat="55.274378" lon="12.008384">
<ele>42.2</ele>
<time>2018-05-27T08:14:37Z</time>
<speed>22.8</speed>
</trkpt>
<trkpt lat="55.274581" lon="12.008447">
<ele>42.3</ele>
<time>2018-05-27T08:14:38Z</time>
<speed>22.8</speed>
</trkpt>
<trkpt lat="55.274785" lon="12.008509">
<ele>42.4</ele>
<time>2018-05-27T08:14:39Z</time>
<speed>23.1</speed>
</trkpt>
<trkpt lat="55.274989" lon="12.008571">
<ele>42.5</ele>
<time>2018-05-27T08:14:40Z</time>
<speed>23.1</speed>
</trkpt>
<trkpt lat="55.275191" lon="12.008649">
<ele>42.7</ele>
<time>2018-05-27T08:14:41Z</time>
<speed>23.1</speed>
</trkpt>
<trkpt lat="55.275388" lon="12.008726">
<ele>42.1</ele>
<time>2018-05-27T08:14:42Z</time>
<speed>23.1</speed>
</trkpt>
<trkpt lat="55.275592" lon="12.008807">
<ele>41.0</ele>
<time>2018-05-27T08:14:43Z</time>
<speed>23.1</speed>
</trkpt>
<trkpt lat="55.275791" lon="12.008888">
<ele>39.0</ele>
<time>2018-05-27T08:14:44Z</time>
<speed>23.1</speed>
</trkpt>
<trkpt lat="55.275996" lon="12.008969">
<ele>37.8</ele>
<time>2018-05-27T08:14:45Z</time>
<speed>23.1</speed>
</trkpt>
<trkpt lat="55.276198" lon="12.009065">
<ele>36.8</ele>
<time>2018-05-27T08:14:46Z</time>
<speed>23.1</speed>
</trkpt>
<trkpt lat="55.276394" lon="12.009158">
<ele>36.3</ele>
<time>2018-05-27T08:14:47Z</time>
<speed>23.1</speed>
</trkpt>
<trkpt lat="55.276591" lon="12.009236">
<ele>35.7</ele>
<time>2018-05-27T08:14:48Z</time>
<speed>23.1</speed>
</trkpt>
<trkpt lat="55.276794" lon="12.009332">
<ele>34.6</ele>
<time>2018-05-27T08:14:49Z</time>
<speed>23.1</speed>
</trkpt>
<trkpt lat="55.276994" lon="12.009425">
<ele>35.0</ele>
<time>2018-05-27T08:14:50Z</time>
<speed>23.1</speed>
</trkpt>
<trkpt lat="55.277197" lon="12.009521">
<ele>33.9</ele>
<time>2018-05-27T08:14:51Z</time>
<speed>23.1</speed>
</trkpt>
<trkpt lat="55.277391" lon="12.009630">
<ele>33.6</ele>
<time>2018-05-27T08:14:52Z</time>
<speed>23.1</speed>
</trkpt>
<trkpt lat="55.277592" lon="12.009741">
<ele>32.6</ele>
<time>2018-05-27T08:14:53Z</time>
<speed>23.3</speed>
</trkpt>
<trkpt lat="55.277793" lon="12.009834">
<ele>33.0</ele>
<time>2018-05-27T08:14:54Z</time>
<speed>23.3</speed>
</trkpt>
<trkpt lat="55.277994" lon="12.009946">
<ele>32.1</ele>
<time>2018-05-27T08:14:55Z</time>
<speed>23.3</speed>
</trkpt>
<trkpt lat="55.278193" lon="12.010054">
<ele>32.5</ele>
<time>2018-05-27T08:14:56Z</time>
<speed>23.3</speed>
</trkpt>
<trkpt lat="55.278393" lon="12.010181">
<ele>31.7</ele>
<time>2018-05-27T08:14:57Z</time>
<speed>23.3</speed>
</trkpt>
<trkpt lat="55.278587" lon="12.010290">
<ele>31.3</ele>
<time>2018-05-27T08:14:58Z</time>
<speed>23.3</speed>
</trkpt>
<trkpt lat="55.278792" lon="12.010417">
<ele>31.4</ele>
<time>2018-05-27T08:14:59Z</time>
<speed>23.3</speed>
</trkpt>
<trkpt lat="55.278991" lon="12.010544">
<ele>30.5</ele>
<time>2018-05-27T08:15:00Z</time>
<speed>23.3</speed>
</trkpt>
<trkpt lat="55.279189" lon="12.010668">
<ele>31.1</ele>
<time>2018-05-27T08:15:01Z</time>
<speed>23.3</speed>
</trkpt>
<trkpt lat="55.279394" lon="12.010795">
<ele>31.1</ele>
<time>2018-05-27T08:15:02Z</time>
<speed>23.1</speed>
</trkpt>
<trkpt lat="55.279586" lon="12.010918">
<ele>30.9</ele>
<time>2018-05-27T08:15:03Z</time>
<speed>23.1</speed>
</trkpt>
<trkpt lat="55.279782" lon="12.011058">
<ele>31.6</ele>
<time>2018-05-27T08:15:04Z</time>
<speed>23.1</speed>
</trkpt>
<trkpt lat="55.279982" lon="12.011185">
<ele>30.8</ele>
<time>2018-05-27T08:15:05Z</time>
<speed>23.1</speed>
</trkpt>
<trkpt lat="55.280178" lon="12.011324">
<ele>31.5</ele>
<time>2018-05-27T08:15:06Z</time>
<speed>23.1</speed>
</trkpt>
<trkpt lat="55.280370" lon="12.011448">
<ele>31.2</ele>
<time>2018-05-27T08:15:07Z</time>
<speed>23.1</speed>
</trkpt>
<trkpt lat="55.280561" lon="12.011587">
<ele>31.1</ele>
<time>2018-05-27T08:15:08Z</time>
<speed>23.1</speed>
</trkpt>
<trkpt lat="55.280757" lon="12.011726">
<ele>31.8</ele>
<time>2018-05-27T08:15:09Z</time>
<speed>23.1</speed>
</trkpt>
<trkpt lat="55.280948" lon="12.011865">
<ele>31.7</ele>
<time>2018-05-27T08:15:10Z</time>
<speed>23.1</speed>
</trkpt>
<trkpt lat="55.281138" lon="12.012020">
<ele>31.6</ele>
<time>2018-05-27T08:15:11Z</time>
<speed>23.1</speed>
</trkpt>
<trkpt lat="55.281321" lon="12.012156">
<ele>32.1</ele>
<time>2018-05-27T08:15:12Z</time>
<speed>23.1</speed>
</trkpt>
<trkpt lat="55.281517" lon="12.012295">
<ele>32.8</ele>
<time>2018-05-27T08:15:13Z</time>
<speed>23.1</speed>
</trkpt>
<trkpt lat="55.281707" lon="12.012449">
<ele>32.8</ele>
<time>2018-05-27T08:15:14Z</time>
<speed>23.1</speed>
</trkpt>
<trkpt lat="55.281896" lon="12.012604">
<ele>32.8</ele>
<time>2018-05-27T08:15:15Z</time>
<speed>23.1</speed>
</trkpt>
<trkpt lat="55.282086" lon="12.012759">
<ele>32.7</ele>
<time>2018-05-27T08:15:16Z</time>
<speed>23.1</speed>
</trkpt>
<trkpt lat="55.282276" lon="12.012898">
<ele>32.6</ele>
<time>2018-05-27T08:15:17Z</time>
<speed>23.1</speed>
</trkpt>
<trkpt lat="55.282466" lon="12.013052">
<ele>32.6</ele>
<time>2018-05-27T08:15:18Z</time>
<speed>23.1</speed>
</trkpt>
<trkpt lat="55.282655" lon="12.013207">
<ele>32.6</ele>
<time>2018-05-27T08:15:19Z</time>
<speed>23.1</speed>
</trkpt>
<trkpt lat="55.282845" lon="12.013362">
<ele>32.6</ele>
<time>2018-05-27T08:15:20Z</time>
<speed>23.1</speed>
</trkpt>
<trkpt lat="55.283032" lon="12.013532">
<ele>32.7</ele>
<time>2018-05-27T08:15:21Z</time>
<speed>23.1</speed>
</trkpt>
<trkpt lat="55.283215" lon="12.013683">
<ele>33.2</ele>
<time>2018-05-27T08:15:22Z</time>
<speed>23.1</speed>
</trkpt>
<trkpt lat="55.283402" lon="12.013834">
<ele>34.6</ele>
<time>2018-05-27T08:15:23Z</time>
<speed>23.1</speed>
</trkpt>
<trkpt lat="55.283590" lon="12.014004">
<ele>34.7</ele>
<time>2018-05-27T08:15:24Z</time>
<speed>23.1</speed>
</trkpt>
<trkpt lat="55.283772" lon="12.014155">
<ele>35.3</ele>
<time>2018-05-27T08:15:25Z</time>
<speed>23.1</speed>
</trkpt>
<trkpt lat="55.283960" lon="12.014325">
<ele>35.4</ele>
<time>2018-05-27T08:15:26Z</time>
<speed>23.1</speed>
</trkpt>
<trkpt lat="55.284142" lon="12.014477">
<ele>35.9</ele>
<time>2018-05-27T08:15:27Z</time>
<speed>23.1</speed>
</trkpt>
<trkpt lat="55.284335" lon="12.014647">
<ele>36.9</ele>
<time>2018-05-27T08:15:28Z</time>
<speed>23.1</speed>
</trkpt>
<trkpt lat="55.284524" lon="12.014801">
<ele>36.9</ele>
<time>2018-05-27T08:15:29Z</time>
<speed>23.1</speed>
</trkpt>
<trkpt lat="55.284705" lon="12.014968">
<ele>37.5</ele>
<time>2018-05-27T08:15:30Z</time>
<speed>23.1</speed>
</trkpt>
<trkpt lat="55.284885" lon="12.015135">
<ele>38.2</ele>
<time>2018-05-27T08:15:31Z</time>
<speed>23.1</speed>
</trkpt>
<trkpt lat="55.285075" lon="12.015289">
<ele>38.2</ele>
<time>2018-05-27T08:15:32Z</time>
<speed>23.1</speed>
</trkpt>
<trkpt lat="55.285250" lon="12.015456">
<ele>38.0</ele>
<time>2018-05-27T08:15:33Z</time>
<speed>22.8</speed>
</trkpt>
<trkpt lat="55.285438" lon="12.015626">
<ele>38.1</ele>
<time>2018-05-27T08:15:34Z</time>
<speed>22.8</speed>
</trkpt>
<trkpt lat="55.285620" lon="12.015778">
<ele>38.7</ele>
<time>2018-05-27T08:15:35Z</time>
<speed>22.8</speed>
</trkpt>
<trkpt lat="55.285808" lon="12.015948">
<ele>38.8</ele>
<time>2018-05-27T08:15:36Z</time>
<speed>22.8</speed>
</trkpt>
<trkpt lat="55.285990" lon="12.016099">
<ele>39.3</ele>
<time>2018-05-27T08:15:37Z</time>
<speed>22.8</speed>
</trkpt>
<trkpt lat="55.286180" lon="12.016253">
<ele>39.3</ele>
<time>2018-05-27T08:15:38Z</time>
<speed>22.8</speed>
</trkpt>
<trkpt lat="55.286360" lon="12.016420">
<ele>40.0</ele>
<time>2018-05-27T08:15:39Z</time>
<speed>23.1</speed>
</trkpt>
<trkpt lat="55.286550" lon="12.016575">
<ele>40.0</ele>
<time>2018-05-27T08:15:40Z</time>
<speed>23.1</speed>
</trkpt>
<trkpt lat="55.286735" lon="12.016742">
<ele>41.5</ele>
<time>2018-05-27T08:15:41Z</time>
<speed>23.1</speed>
</trkpt>
<trkpt lat="55.286925" lon="12.016896">
<ele>41.5</ele>
<time>2018-05-27T08:15:42Z</time>
<speed>22.8</speed>
</trkpt>
<trkpt lat="55.287105" lon="12.017063">
<ele>42.2</ele>
<time>2018-05-27T08:15:43Z</time>
<speed>23.1</speed>
</trkpt>
<trkpt lat="55.287295" lon="12.017218">
<ele>42.1</ele>
<time>2018-05-27T08:15:44Z</time>
<speed>22.8</speed>
</trkpt>
<trkpt lat="55.287475" lon="12.017384">
<ele>42.8</ele>
<time>2018-05-27T08:15:45Z</time>
<speed>23.3</speed>
</trkpt>
<trkpt lat="55.287663" lon="12.017554">
<ele>42.9</ele>
<time>2018-05-27T08:15:46Z</time>
<speed>23.3</speed>
</trkpt>
<trkpt lat="55.287858" lon="12.017709">
<ele>43.7</ele>
<time>2018-05-27T08:15:47Z</time>
<speed>23.1</speed>
</trkpt>
<trkpt lat="55.288040" lon="12.017860">
<ele>44.3</ele>
<time>2018-05-27T08:15:48Z</time>
<speed>23.1</speed>
</trkpt>
<trkpt lat="55.288228" lon="12.018030">
<ele>44.4</ele>
<time>2018-05-27T08:15:49Z</time>
<speed>23.1</speed>
</trkpt>
<trkpt lat="55.288417" lon="12.018185">
<ele>44.4</ele>
<time>2018-05-27T08:15:50Z</time>
<speed>23.1</speed>
</trkpt>
<trkpt lat="55.288598" lon="12.018352">
<ele>45.1</ele>
<time>2018-05-27T08:15:51Z</time>
<speed>23.1</speed>
</trkpt>
<trkpt lat="55.288785" lon="12.018522">
<ele>45.2</ele>
<time>2018-05-27T08:15:52Z</time>
<speed>22.8</speed>
</trkpt>
<trkpt lat="55.288973" lon="12.018673">
<ele>46.6</ele>
<time>2018-05-27T08:15:53Z</time>
<speed>22.8</speed>
</trkpt>
<trkpt lat="55.289162" lon="12.018828">
<ele>46.5</ele>
<time>2018-05-27T08:15:54Z</time>
<speed>23.1</speed>
</trkpt>
<trkpt lat="55.289355" lon="12.018998">
<ele>47.5</ele>
<time>2018-05-27T08:15:55Z</time>
<speed>23.1</speed>
</trkpt>
<trkpt lat="55.289553" lon="12.019168">
<ele>49.2</ele>
<time>2018-05-27T08:15:56Z</time>
<speed>23.1</speed>
</trkpt>
<trkpt lat="55.289746" lon="12.019338">
<ele>50.2</ele>
<time>2018-05-27T08:15:57Z</time>
<speed>23.1</speed>
</trkpt>
<trkpt lat="55.289941" lon="12.019493">
<ele>51.0</ele>
<time>2018-05-27T08:15:58Z</time>
<speed>23.1</speed>
</trkpt>
<trkpt lat="55.290133" lon="12.019663">
<ele>51.9</ele>
<time>2018-05-27T08:15:59Z</time>
<speed>23.1</speed>
</trkpt>
<trkpt lat="55.290328" lon="12.019817">
<ele>52.7</ele>
<time>2018-05-27T08:16:00Z</time>
<speed>23.1</speed>
</trkpt>
<trkpt lat="55.290521" lon="12.019987">
<ele>53.7</ele>
<time>2018-05-27T08:16:01Z</time>
<speed>23.1</speed>
</trkpt>
<trkpt lat="55.290710" lon="12.020142">
<ele>53.7</ele>
<time>2018-05-27T08:16:02Z</time>
<speed>23.1</speed>
</trkpt>
<trkpt lat="55.290905" lon="12.020297">
<ele>54.5</ele>
<time>2018-05-27T08:16:03Z</time>
<speed>23.1</speed>
</trkpt>
<trkpt lat="55.291098" lon="12.020467">
<ele>55.4</ele>
<time>2018-05-27T08:16:04Z</time>
<speed>23.1</speed>
</trkpt>
<trkpt lat="55.291287" lon="12.020621">
<ele>55.4</ele>
<time>2018-05-27T08:16:05Z</time>
<speed>23.1</speed>
</trkpt>
<trkpt lat="55.291482" lon="12.020776">
<ele>56.2</ele>
<time>2018-05-27T08:16:06Z</time>
<speed>23.1</speed>
</trkpt>
<trkpt lat="55.291669" lon="12.020946">
<ele>56.3</ele>
<time>2018-05-27T08:16:07Z</time>
<speed>23.3</speed>
</trkpt>
<trkpt lat="55.291864" lon="12.021101">
<ele>57.2</ele>
<time>2018-05-27T08:16:08Z</time>
<speed>23.1</speed>
</trkpt>
<trkpt lat="55.292053" lon="12.021255">
<ele>57.2</ele>
<time>2018-05-27T08:16:09Z</time>
<speed>23.3</speed>
</trkpt>
<trkpt lat="55.292243" lon="12.021410">
<ele>57.2</ele>
<time>2018-05-27T08:16:10Z</time>
<speed>23.3</speed>
</trkpt>
<trkpt lat="55.292437" lon="12.021565">
<ele>58.0</ele>
<time>2018-05-27T08:16:11Z</time>
<speed>23.3</speed>
</trkpt>
<trkpt lat="55.292635" lon="12.021707">
<ele>57.3</ele>
<time>2018-05-27T08:16:12Z</time>
<speed>23.1</speed>
</trkpt>
<trkpt lat="55.292817" lon="12.021859">
<ele>57.8</ele>
<time>2018-05-27T08:16:13Z</time>
<speed>23.1</speed>
</trkpt>
<trkpt lat="55.293013" lon="12.021998">
<ele>58.5</ele>
<time>2018-05-27T08:16:14Z</time>
<speed>23.1</speed>
</trkpt>
<trkpt lat="55.293203" lon="12.022153">
<ele>58.5</ele>
<time>2018-05-27T08:16:15Z</time>
<speed>23.1</speed>
</trkpt>
<trkpt lat="55.293394" lon="12.022292">
<ele>58.4</ele>
<time>2018-05-27T08:16:16Z</time>
<speed>23.1</speed>
</trkpt>
<trkpt lat="55.293585" lon="12.022431">
<ele>58.3</ele>
<time>2018-05-27T08:16:17Z</time>
<speed>23.1</speed>
</trkpt>
<trkpt lat="55.293781" lon="12.022570">
<ele>59.0</ele>
<time>2018-05-27T08:16:18Z</time>
<speed>23.1</speed>
</trkpt>
<trkpt lat="55.293971" lon="12.022710">
<ele>58.9</ele>
<time>2018-05-27T08:16:19Z</time>
<speed>23.1</speed>
</trkpt>
<trkpt lat="55.294155" lon="12.022846">
<ele>59.3</ele>
<time>2018-05-27T08:16:20Z</time>
<speed>23.3</speed>
</trkpt>
<trkpt lat="55.294346" lon="12.022985">
<ele>59.2</ele>
<time>2018-05-27T08:16:21Z</time>
<speed>23.3</speed>
</trkpt>
<trkpt lat="55.294538" lon="12.023109">
<ele>58.9</ele>
<time>2018-05-27T08:16:22Z</time>
<speed>23.1</speed>
</trkpt>
<trkpt lat="55.294729" lon="12.023248">
<ele>58.8</ele>
<time>2018-05-27T08:16:23Z</time>
<speed>23.1</speed>
</trkpt>
<trkpt lat="55.294920" lon="12.023387">
<ele>58.7</ele>
<time>2018-05-27T08:16:24Z</time>
<speed>23.1</speed>
</trkpt>
<trkpt lat="55.295113" lon="12.023511">
<ele>58.5</ele>
<time>2018-05-27T08:16:25Z</time>
<speed>23.3</speed>
</trkpt>
<trkpt lat="55.295301" lon="12.023647">
<ele>59.7</ele>
<time>2018-05-27T08:16:26Z</time>
<speed>23.3</speed>
</trkpt>
<trkpt lat="55.295494" lon="12.023771">
<ele>59.5</ele>
<time>2018-05-27T08:16:27Z</time>
<speed>23.1</speed>
</trkpt>
<trkpt lat="55.295685" lon="12.023910">
<ele>59.3</ele>
<time>2018-05-27T08:16:28Z</time>
<speed>23.1</speed>
</trkpt>
<trkpt lat="55.295870" lon="12.024031">
<ele>59.7</ele>
<time>2018-05-27T08:16:29Z</time>
<speed>22.8</speed>
</trkpt>
<trkpt lat="55.296068" lon="12.024155">
<ele>60.2</ele>
<time>2018-05-27T08:16:30Z</time>
<speed>23.3</speed>
</trkpt>
<trkpt lat="55.296260" lon="12.024279">
<ele>60.0</ele>
<time>2018-05-27T08:16:31Z</time>
<speed>23.3</speed>
</trkpt>
<trkpt lat="55.296452" lon="12.024403">
<ele>59.8</ele>
<time>2018-05-27T08:16:32Z</time>
<speed>23.3</speed>
</trkpt>
<trkpt lat="55.296646" lon="12.024511">
<ele>59.4</ele>
<time>2018-05-27T08:16:33Z</time>
<speed>23.3</speed>
</trkpt>
<trkpt lat="55.296839" lon="12.024635">
<ele>59.2</ele>
<time>2018-05-27T08:16:34Z</time>
<speed>23.1</speed>
</trkpt>
<trkpt lat="55.297039" lon="12.024762">
<ele>58.4</ele>
<time>2018-05-27T08:16:35Z</time>
<speed>23.3</speed>
</trkpt>
<trkpt lat="55.297236" lon="12.024886">
<ele>58.9</ele>
<time>2018-05-27T08:16:36Z</time>
<speed>23.3</speed>
</trkpt>
<trkpt lat="55.297423" lon="12.025010">
<ele>57.9</ele>
<time>2018-05-27T08:16:37Z</time>
<speed>23.1</speed>
</trkpt>
<trkpt lat="55.297617" lon="12.025119">
<ele>57.5</ele>
<time>2018-05-27T08:16:38Z</time>
<speed>23.3</speed>
</trkpt>
<trkpt lat="55.297817" lon="12.025246">
<ele>56.7</ele>
<time>2018-05-27T08:16:39Z</time>
<speed>23.1</speed>
</trkpt>
<trkpt lat="55.298018" lon="12.025358">
<ele>55.8</ele>
<time>2018-05-27T08:16:40Z</time>
<speed>23.9</speed>
</trkpt>
<trkpt lat="55.298219" lon="12.025469">
<ele>54.9</ele>
<time>2018-05-27T08:16:41Z</time>
<speed>23.9</speed>
</trkpt>
<trkpt lat="55.298426" lon="12.025581">
<ele>54.8</ele>
<time>2018-05-27T08:16:42Z</time>
<speed>23.9</speed>
</trkpt>
<trkpt lat="55.298629" lon="12.025678">
<ele>53.8</ele>
<time>2018-05-27T08:16:43Z</time>
<speed>23.3</speed>
</trkpt>
<trkpt lat="55.298822" lon="12.025786">
<ele>53.4</ele>
<time>2018-05-27T08:16:44Z</time>
<speed>23.1</speed>
</trkpt>
<trkpt lat="55.299022" lon="12.025913">
<ele>52.6</ele>
<time>2018-05-27T08:16:45Z</time>
<speed>23.1</speed>
</trkpt>
<trkpt lat="55.299218" lon="12.026025">
<ele>50.9</ele>
<time>2018-05-27T08:16:46Z</time>
<speed>23.1</speed>
</trkpt>
<trkpt lat="55.299414" lon="12.026118">
<ele>50.4</ele>
<time>2018-05-27T08:16:47Z</time>
<speed>23.3</speed>
</trkpt>
<trkpt lat="55.299615" lon="12.026230">
<ele>49.5</ele>
<time>2018-05-27T08:16:48Z</time>
<speed>22.8</speed>
</trkpt>
<trkpt lat="55.299809" lon="12.026339">
<ele>49.1</ele>
<time>2018-05-27T08:16:49Z</time>
<speed>22.8</speed>
</trkpt>
<trkpt lat="55.299999" lon="12.026432">
<ele>47.8</ele>
<time>2018-05-27T08:16:50Z</time>
<speed>22.8</speed>
</trkpt>
<trkpt lat="55.300202" lon="12.026528">
<ele>46.8</ele>
<time>2018-05-27T08:16:51Z</time>
<speed>22.8</speed>
</trkpt>
<trkpt lat="55.300398" lon="12.026621">
<ele>46.3</ele>
<time>2018-05-27T08:16:52Z</time>
<speed>22.8</speed>
</trkpt>
<trkpt lat="55.300600" lon="12.026718">
<ele>45.3</ele>
<time>2018-05-27T08:16:53Z</time>
<speed>22.8</speed>
</trkpt>
<trkpt lat="55.300801" lon="12.026811">
<ele>45.6</ele>
<time>2018-05-27T08:16:54Z</time>
<speed>22.8</speed>
</trkpt>
<trkpt lat="55.301002" lon="12.026904">
<ele>46.0</ele>
<time>2018-05-27T08:16:55Z</time>
<speed>22.8</speed>
</trkpt>
<trkpt lat="55.301197" lon="12.026997">
<ele>45.5</ele>
<time>2018-05-27T08:16:56Z</time>
<speed>22.8</speed>
</trkpt>
<trkpt lat="55.301398" lon="12.027090">
<ele>45.9</ele>
<time>2018-05-27T08:16:57Z</time>
<speed>22.8</speed>
</trkpt>
<trkpt lat="55.301606" lon="12.027187">
<ele>45.7</ele>
<time>2018-05-27T08:16:58Z</time>
<speed>22.8</speed>
</trkpt>
<trkpt lat="55.301806" lon="12.027280">
<ele>46.0</ele>
<time>2018-05-27T08:16:59Z</time>
<speed>23.1</speed>
</trkpt>
<trkpt lat="55.302007" lon="12.027373">
<ele>46.3</ele>
<time>2018-05-27T08:17:00Z</time>
<speed>23.1</speed>
</trkpt>
<trkpt lat="55.302209" lon="12.027451">
<ele>46.6</ele>
<time>2018-05-27T08:17:01Z</time>
<speed>23.1</speed>
</trkpt>
<trkpt lat="55.302417" lon="12.027547">
<ele>46.4</ele>
<time>2018-05-27T08:17:02Z</time>
<speed>22.8</speed>
</trkpt>
<trkpt lat="55.302617" lon="12.027640">
<ele>46.7</ele>
<time>2018-05-27T08:17:03Z</time>
<speed>22.8</speed>
</trkpt>
<trkpt lat="55.302820" lon="12.027718">
<ele>46.9</ele>
<time>2018-05-27T08:17:04Z</time>
<speed>22.8</speed>
</trkpt>
<trkpt lat="55.303017" lon="12.027796">
<ele>46.3</ele>
<time>2018-05-27T08:17:05Z</time>
<speed>22.8</speed>
</trkpt>
<trkpt lat="55.303217" lon="12.027889">
<ele>46.7</ele>
<time>2018-05-27T08:17:06Z</time>
<speed>22.8</speed>
</trkpt>
<trkpt lat="55.303419" lon="12.027967">
<ele>46.9</ele>
<time>2018-05-27T08:17:07Z</time>
<speed>23.1</speed>
</trkpt>
<trkpt lat="55.303629" lon="12.028048">
<ele>46.6</ele>
<time>2018-05-27T08:17:08Z</time>
<speed>22.8</speed>
</trkpt>
<trkpt lat="55.303831" lon="12.028125">
<ele>46.8</ele>
<time>2018-05-27T08:17:09Z</time>
<speed>22.8</speed>
</trkpt>
<trkpt lat="55.304033" lon="12.028203">
<ele>47.1</ele>
<time>2018-05-27T08:17:10Z</time>
<speed>23.1</speed>
</trkpt>
<trkpt lat="55.304237" lon="12.028265">
<ele>47.2</ele>
<time>2018-05-27T08:17:11Z</time>
<speed>23.1</speed>
</trkpt>
<trkpt lat="55.304439" lon="12.028343">
<ele>47.4</ele>
<time>2018-05-27T08:17:12Z</time>
<speed>22.8</speed>
</trkpt>
<trkpt lat="55.304641" lon="12.028421">
<ele>47.6</ele>
<time>2018-05-27T08:17:13Z</time>
<speed>22.8</speed>
</trkpt>
<trkpt lat="55.304845" lon="12.028483">
<ele>47.7</ele>
<time>2018-05-27T08:17:14Z</time>
<speed>23.1</speed>
</trkpt>
<trkpt lat="55.305049" lon="12.028546">
<ele>47.8</ele>
<time>2018-05-27T08:17:15Z</time>
<speed>22.8</speed>
</trkpt>
<trkpt lat="55.305251" lon="12.028623">
<ele>48.1</ele>
<time>2018-05-27T08:17:16Z</time>
<speed>22.8</speed>
</trkpt>
<trkpt lat="55.305455" lon="12.028686">
<ele>48.2</ele>
<time>2018-05-27T08:17:17Z</time>
<speed>23.1</speed>
</trkpt>
<trkpt lat="55.305658" lon="12.028748">
<ele>48.3</ele>
<time>2018-05-27T08:17:18Z</time>
<speed>23.1</speed>
</trkpt>
<trkpt lat="55.305867" lon="12.028810">
<ele>49.2</ele>
<time>2018-05-27T08:17:19Z</time>
<speed>23.1</speed>
</trkpt>
<trkpt lat="55.306072" lon="12.028857">
<ele>49.2</ele>
<time>2018-05-27T08:17:20Z</time>
<speed>23.3</speed>
</trkpt>
<trkpt lat="55.306276" lon="12.028920">
<ele>49.3</ele>
<time>2018-05-27T08:17:21Z</time>
<speed>23.3</speed>
</trkpt>
<trkpt lat="55.306487" lon="12.028985">
<ele>48.9</ele>
<time>2018-05-27T08:17:22Z</time>
<speed>23.1</speed>
</trkpt>
<trkpt lat="55.306697" lon="12.029032">
<ele>49.7</ele>
<time>2018-05-27T08:17:23Z</time>
<speed>23.1</speed>
</trkpt>
<trkpt lat="55.306903" lon="12.029079">
<ele>49.7</ele>
<time>2018-05-27T08:17:24Z</time>
<speed>23.1</speed>
</trkpt>
<trkpt lat="55.307106" lon="12.029142">
<ele>49.8</ele>
<time>2018-05-27T08:17:25Z</time>
<speed>23.1</speed>
</trkpt>
<trkpt lat="55.307317" lon="12.029189">
<ele>50.6</ele>
<time>2018-05-27T08:17:26Z</time>
<speed>23.1</speed>
</trkpt>
<trkpt lat="55.307527" lon="12.029254">
<ele>50.2</ele>
<time>2018-05-27T08:17:27Z</time>
<speed>23.3</speed>
</trkpt>
<trkpt lat="55.307733" lon="12.029301">
<ele>50.2</ele>
<time>2018-05-27T08:17:28Z</time>
<speed>23.3</speed>
</trkpt>
<trkpt lat="55.307938" lon="12.029348">
<ele>50.2</ele>
<time>2018-05-27T08:17:29Z</time>
<speed>23.3</speed>
</trkpt>
<trkpt lat="55.308156" lon="12.029398">
<ele>50.4</ele>
<time>2018-05-27T08:17:30Z</time>
<speed>23.1</speed>
</trkpt>
<trkpt lat="55.308361" lon="12.029445">
<ele>50.4</ele>
<time>2018-05-27T08:17:31Z</time>
<speed>23.1</speed>
</trkpt>
<trkpt lat="55.308566" lon="12.029492">
<ele>50.4</ele>
<time>2018-05-27T08:17:32Z</time>
<speed>23.1</speed>
</trkpt>
<trkpt lat="55.308771" lon="12.029539">
<ele>50.4</ele>
<time>2018-05-27T08:17:33Z</time>
<speed>23.1</speed>
</trkpt>
<trkpt lat="55.308989" lon="12.029589">
<ele>50.7</ele>
<time>2018-05-27T08:17:34Z</time>
<speed>23.3</speed>
</trkpt>
<trkpt lat="55.309196" lon="12.029621">
<ele>50.5</ele>
<time>2018-05-27T08:17:35Z</time>
<speed>23.3</speed>
</trkpt>
<trkpt lat="55.309408" lon="12.029671">
<ele>50.0</ele>
<time>2018-05-27T08:17:36Z</time>
<speed>23.3</speed>
</trkpt>
<trkpt lat="55.309618" lon="12.029718">
<ele>50.8</ele>
<time>2018-05-27T08:17:37Z</time>
<speed>23.3</speed>
</trkpt>
<trkpt lat="55.309832" lon="12.029753">
<ele>50.1</ele>
<time>2018-05-27T08:17:38Z</time>
<speed>23.3</speed>
</trkpt>
<trkpt lat="55.310038" lon="12.029800">
<ele>50.1</ele>
<time>2018-05-27T08:17:39Z</time>
<speed>23.3</speed>
</trkpt>
<trkpt lat="55.310243" lon="12.029847">
<ele>50.1</ele>
<time>2018-05-27T08:17:40Z</time>
<speed>23.3</speed>
</trkpt>
<trkpt lat="55.310457" lon="12.029882">
<ele>49.4</ele>
<time>2018-05-27T08:17:41Z</time>
<speed>23.3</speed>
</trkpt>
<trkpt lat="55.310662" lon="12.029929">
<ele>49.4</ele>
<time>2018-05-27T08:17:42Z</time>
<speed>23.6</speed>
</trkpt>
<trkpt lat="55.310875" lon="12.029979">
<ele>48.9</ele>
<time>2018-05-27T08:17:43Z</time>
<speed>23.3</speed>
</trkpt>
<trkpt lat="55.311080" lon="12.030026">
<ele>48.9</ele>
<time>2018-05-27T08:17:44Z</time>
<speed>23.3</speed>
</trkpt>
<trkpt lat="55.311285" lon="12.030073">
<ele>48.8</ele>
<time>2018-05-27T08:17:45Z</time>
<speed>23.6</speed>
</trkpt>
<trkpt lat="55.311504" lon="12.030108">
<ele>49.0</ele>
<time>2018-05-27T08:17:46Z</time>
<speed>23.6</speed>
</trkpt>
<trkpt lat="55.311704" lon="12.030155">
<ele>48.2</ele>
<time>2018-05-27T08:17:47Z</time>
<speed>22.8</speed>
</trkpt>
<trkpt lat="55.311910" lon="12.030202">
<ele>48.2</ele>
<time>2018-05-27T08:17:48Z</time>
<speed>23.1</speed>
</trkpt>
<trkpt lat="55.312115" lon="12.030249">
<ele>48.2</ele>
<time>2018-05-27T08:17:49Z</time>
<speed>23.1</speed>
</trkpt>
<trkpt lat="55.312329" lon="12.030283">
<ele>47.5</ele>
<time>2018-05-27T08:17:50Z</time>
<speed>23.1</speed>
</trkpt>
<trkpt lat="55.312534" lon="12.030330">
<ele>47.5</ele>
<time>2018-05-27T08:17:51Z</time>
<speed>23.1</speed>
</trkpt>
<trkpt lat="55.312739" lon="12.030377">
<ele>47.5</ele>
<time>2018-05-27T08:17:52Z</time>
<speed>23.1</speed>
</trkpt>
<trkpt lat="55.312946" lon="12.030409">
<ele>47.3</ele>
<time>2018-05-27T08:17:53Z</time>
<speed>23.1</speed>
</trkpt>
<trkpt lat="55.313159" lon="12.030459">
<ele>46.8</ele>
<time>2018-05-27T08:17:54Z</time>
<speed>23.1</speed>
</trkpt>
<trkpt lat="55.313364" lon="12.030506">
<ele>46.8</ele>
<time>2018-05-27T08:17:55Z</time>
<speed>23.1</speed>
</trkpt>
<trkpt lat="55.313569" lon="12.030553">
<ele>46.8</ele>
<time>2018-05-27T08:17:56Z</time>
<speed>23.1</speed>
</trkpt>
<trkpt lat="55.313776" lon="12.030603">
<ele>45.4</ele>
<time>2018-05-27T08:17:57Z</time>
<speed>23.1</speed>
</trkpt>
<trkpt lat="55.313982" lon="12.030650">
<ele>45.4</ele>
<time>2018-05-27T08:17:58Z</time>
<speed>23.1</speed>
</trkpt>
<trkpt lat="55.314187" lon="12.030697">
<ele>45.4</ele>
<time>2018-05-27T08:17:59Z</time>
<speed>23.1</speed>
</trkpt>
<trkpt lat="55.314394" lon="12.030748">
<ele>44.0</ele>
<time>2018-05-27T08:18:00Z</time>
<speed>23.1</speed>
</trkpt>
<trkpt lat="55.314600" lon="12.030795">
<ele>44.0</ele>
<time>2018-05-27T08:18:01Z</time>
<speed>23.1</speed>
</trkpt>
<trkpt lat="55.314805" lon="12.030842">
<ele>44.0</ele>
<time>2018-05-27T08:18:02Z</time>
<speed>22.8</speed>
</trkpt>
<trkpt lat="55.315005" lon="12.030889">
<ele>43.2</ele>
<time>2018-05-27T08:18:03Z</time>
<speed>22.8</speed>
</trkpt>
<trkpt lat="55.315216" lon="12.030954">
<ele>42.7</ele>
<time>2018-05-27T08:18:04Z</time>
<speed>22.8</speed>
</trkpt>
<trkpt lat="55.315416" lon="12.031001">
<ele>41.9</ele>
<time>2018-05-27T08:18:05Z</time>
<speed>22.8</speed>
</trkpt>
<trkpt lat="55.315621" lon="12.031048">
<ele>41.9</ele>
<time>2018-05-27T08:18:06Z</time>
<speed>22.8</speed>
</trkpt>
<trkpt lat="55.315820" lon="12.031111">
<ele>41.2</ele>
<time>2018-05-27T08:18:07Z</time>
<speed>22.5</speed>
</trkpt>
<trkpt lat="55.316032" lon="12.031161">
<ele>40.6</ele>
<time>2018-05-27T08:18:08Z</time>
<speed>23.1</speed>
</trkpt>
<trkpt lat="55.316232" lon="12.031208">
<ele>39.8</ele>
<time>2018-05-27T08:18:09Z</time>
<speed>23.1</speed>
</trkpt>
<trkpt lat="55.316443" lon="12.031273">
<ele>39.4</ele>
<time>2018-05-27T08:18:10Z</time>
<speed>23.1</speed>
</trkpt>
<trkpt lat="55.316647" lon="12.031336">
<ele>39.5</ele>
<time>2018-05-27T08:18:11Z</time>
<speed>23.1</speed>
</trkpt>
<trkpt lat="55.316853" lon="12.031401">
<ele>38.2</ele>
<time>2018-05-27T08:18:12Z</time>
<speed>23.3</speed>
</trkpt>
<trkpt lat="55.317057" lon="12.031464">
<ele>38.3</ele>
<time>2018-05-27T08:18:13Z</time>
<speed>23.3</speed>
</trkpt>
<trkpt lat="55.317267" lon="12.031529">
<ele>37.9</ele>
<time>2018-05-27T08:18:14Z</time>
<speed>23.3</speed>
</trkpt>
<trkpt lat="55.317466" lon="12.031592">
<ele>37.2</ele>
<time>2018-05-27T08:18:15Z</time>
<speed>23.1</speed>
</trkpt>
<trkpt lat="55.317681" lon="12.031673">
<ele>37.7</ele>
<time>2018-05-27T08:18:16Z</time>
<speed>23.1</speed>
</trkpt>
<trkpt lat="55.317884" lon="12.031735">
<ele>37.8</ele>
<time>2018-05-27T08:18:17Z</time>
<speed>23.6</speed>
</trkpt>
<trkpt lat="55.318094" lon="12.031816">
<ele>37.5</ele>
<time>2018-05-27T08:18:18Z</time>
<speed>23.3</speed>
</trkpt>
<trkpt lat="55.318292" lon="12.031879">
<ele>36.8</ele>
<time>2018-05-27T08:18:19Z</time>
<speed>23.1</speed>
</trkpt>
<trkpt lat="55.318494" lon="12.031957">
<ele>37.0</ele>
<time>2018-05-27T08:18:20Z</time>
<speed>23.3</speed>
</trkpt>
<trkpt lat="55.318704" lon="12.032038">
<ele>36.7</ele>
<time>2018-05-27T08:18:21Z</time>
<speed>23.3</speed>
</trkpt>
<trkpt lat="55.318902" lon="12.032100">
<ele>36.0</ele>
<time>2018-05-27T08:18:22Z</time>
<speed>23.1</speed>
</trkpt>
<trkpt lat="55.319103" lon="12.032193">
<ele>36.3</ele>
<time>2018-05-27T08:18:23Z</time>
<speed>22.8</speed>
</trkpt>
<trkpt lat="55.319299" lon="12.032286">
<ele>35.9</ele>
<time>2018-05-27T08:18:24Z</time>
<speed>22.8</speed>
</trkpt>
<trkpt lat="55.319501" lon="12.032383">
<ele>34.8</ele>
<time>2018-05-27T08:18:25Z</time>
<speed>22.8</speed>
</trkpt>
<trkpt lat="55.319704" lon="12.032479">
<ele>33.8</ele>
<time>2018-05-27T08:18:26Z</time>
<speed>22.8</speed>
</trkpt>
<trkpt lat="55.319898" lon="12.032588">
<ele>33.5</ele>
<time>2018-05-27T08:18:27Z</time>
<speed>23.1</speed>
</trkpt>
<trkpt lat="55.320093" lon="12.032681">
<ele>33.0</ele>
<time>2018-05-27T08:18:28Z</time>
<speed>23.1</speed>
</trkpt>
<trkpt lat="55.320295" lon="12.032793">
<ele>32.1</ele>
<time>2018-05-27T08:18:29Z</time>
<speed>23.3</speed>
</trkpt>
<trkpt lat="55.320494" lon="12.032902">
<ele>32.6</ele>
<time>2018-05-27T08:18:30Z</time>
<speed>23.3</speed>
</trkpt>
<trkpt lat="55.320695" lon="12.033014">
<ele>31.7</ele>
<time>2018-05-27T08:18:31Z</time>
<speed>23.3</speed>
</trkpt>
<trkpt lat="55.320887" lon="12.033138">
<ele>31.4</ele>
<time>2018-05-27T08:18:32Z</time>
<speed>22.8</speed>
</trkpt>
<trkpt lat="55.321081" lon="12.033246">
<ele>31.1</ele>
<time>2018-05-27T08:18:33Z</time>
<speed>23.1</speed>
</trkpt>
<trkpt lat="55.321286" lon="12.033374">
<ele>31.1</ele>
<time>2018-05-27T08:18:34Z</time>
<speed>23.3</speed>
</trkpt>
<trkpt lat="55.321480" lon="12.033482">
<ele>30.8</ele>
<time>2018-05-27T08:18:35Z</time>
<speed>23.1</speed>
</trkpt>
<trkpt lat="55.321673" lon="12.033606">
<ele>30.5</ele>
<time>2018-05-27T08:18:36Z</time>
<speed>23.1</speed>
</trkpt>
<trkpt lat="55.321865" lon="12.033730">
<ele>30.3</ele>
<time>2018-05-27T08:18:37Z</time>
<speed>23.1</speed>
</trkpt>
<trkpt lat="55.322057" lon="12.033854">
<ele>30.1</ele>
<time>2018-05-27T08:18:38Z</time>
<speed>23.1</speed>
</trkpt>
<trkpt lat="55.322257" lon="12.033982">
<ele>29.3</ele>
<time>2018-05-27T08:18:39Z</time>
<speed>23.1</speed>
</trkpt>
<trkpt lat="55.322448" lon="12.034121">
<ele>29.2</ele>
<time>2018-05-27T08:18:40Z</time>
<speed>23.1</speed>
</trkpt>
<trkpt lat="55.322645" lon="12.034245">
<ele>29.8</ele>
<time>2018-05-27T08:18:41Z</time>
<speed>23.1</speed>
</trkpt>
<trkpt lat="55.322836" lon="12.034384">
<ele>29.7</ele>
<time>2018-05-27T08:18:42Z</time>
<speed>23.3</speed>
</trkpt>
<trkpt lat="55.323027" lon="12.034524">
<ele>29.6</ele>
<time>2018-05-27T08:18:43Z</time>
<speed>23.3</speed>
</trkpt>
<trkpt lat="55.323218" lon="12.034663">
<ele>29.4</ele>
<time>2018-05-27T08:18:44Z</time>
<speed>22.8</speed>
</trkpt>
<trkpt lat="55.323409" lon="12.034803">
<ele>29.3</ele>
<time>2018-05-27T08:18:45Z</time>
<speed>23.1</speed>
</trkpt>
<trkpt lat="55.323600" lon="12.034942">
<ele>29.2</ele>
<time>2018-05-27T08:18:46Z</time>
<speed>23.1</speed>
</trkpt>
<trkpt lat="55.323791" lon="12.035082">
<ele>29.1</ele>
<time>2018-05-27T08:18:47Z</time>
<speed>23.6</speed>
</trkpt>
<trkpt lat="55.323990" lon="12.035209">
<ele>28.3</ele>
<time>2018-05-27T08:18:48Z</time>
<speed>23.1</speed>
</trkpt>
<trkpt lat="55.324173" lon="12.035361">
<ele>28.9</ele>
<time>2018-05-27T08:18:49Z</time>
<speed>23.1</speed>
</trkpt>
<trkpt lat="55.324371" lon="12.035503">
<ele>28.2</ele>
<time>2018-05-27T08:18:50Z</time>
<speed>23.1</speed>
</trkpt>
<trkpt lat="55.324549" lon="12.035639">
<ele>27.8</ele>
<time>2018-05-27T08:18:51Z</time>
<speed>23.1</speed>
</trkpt>
<trkpt lat="55.324740" lon="12.035779">
<ele>27.7</ele>
<time>2018-05-27T08:18:52Z</time>
<speed>23.3</speed>
</trkpt>
<trkpt lat="55.324931" lon="12.035918">
<ele>27.6</ele>
<time>2018-05-27T08:18:53Z</time>
<speed>22.8</speed>
</trkpt>
<trkpt lat="55.325122" lon="12.036058">
<ele>27.5</ele>
<time>2018-05-27T08:18:54Z</time>
<speed>22.8</speed>
</trkpt>
<trkpt lat="55.325322" lon="12.036185">
<ele>26.7</ele>
<time>2018-05-27T08:18:55Z</time>
<speed>23.3</speed>
</trkpt>
<trkpt lat="55.325512" lon="12.036325">
<ele>26.6</ele>
<time>2018-05-27T08:18:56Z</time>
<speed>23.3</speed>
</trkpt>
<trkpt lat="55.325696" lon="12.036461">
<ele>27.1</ele>
<time>2018-05-27T08:18:57Z</time>
<speed>23.1</speed>
</trkpt>
<trkpt lat="55.325893" lon="12.036619">
<ele>26.5</ele>
<time>2018-05-27T08:18:58Z</time>
<speed>22.8</speed>
</trkpt>
<trkpt lat="55.326078" lon="12.036740">
<ele>26.8</ele>
<time>2018-05-27T08:18:59Z</time>
<speed>22.8</speed>
</trkpt>
<trkpt lat="55.326269" lon="12.036879">
<ele>26.7</ele>
<time>2018-05-27T08:19:00Z</time>
<speed>22.8</speed>
</trkpt>
<trkpt lat="55.326461" lon="12.037003">
<ele>26.5</ele>
<time>2018-05-27T08:19:01Z</time>
<speed>22.8</speed>
</trkpt>
<trkpt lat="55.326654" lon="12.037127">
<ele>26.3</ele>
<time>2018-05-27T08:19:02Z</time>
<speed>23.3</speed>
</trkpt>
<trkpt lat="55.326857" lon="12.037270">
<ele>26.4</ele>
<time>2018-05-27T08:19:03Z</time>
<speed>23.3</speed>
</trkpt>
<trkpt lat="55.327051" lon="12.037379">
<ele>26.1</ele>
<time>2018-05-27T08:19:04Z</time>
<speed>22.8</speed>
</trkpt>
<trkpt lat="55.327241" lon="12.037499">
<ele>27.2</ele>
<time>2018-05-27T08:19:05Z</time>
<speed>23.1</speed>
</trkpt>
<trkpt lat="55.327439" lon="12.037624">
<ele>27.8</ele>
<time>2018-05-27T08:19:06Z</time>
<speed>23.1</speed>
</trkpt>
<trkpt lat="55.327639" lon="12.037717">
<ele>28.2</ele>
<time>2018-05-27T08:19:07Z</time>
<speed>23.1</speed>
</trkpt>
<trkpt lat="55.327838" lon="12.037825">
<ele>28.7</ele>
<time>2018-05-27T08:19:08Z</time>
<speed>23.1</speed>
</trkpt>
<trkpt lat="55.328037" lon="12.037934">
<ele>29.1</ele>
<time>2018-05-27T08:19:09Z</time>
<speed>23.3</speed>
</trkpt>
<trkpt lat="55.328245" lon="12.038031">
<ele>29.0</ele>
<time>2018-05-27T08:19:10Z</time>
<speed>23.3</speed>
</trkpt>
<trkpt lat="55.328452" lon="12.038143">
<ele>28.9</ele>
<time>2018-05-27T08:19:11Z</time>
<speed>23.3</speed>
</trkpt>
<trkpt lat="55.328665" lon="12.038239">
<ele>29.5</ele>
<time>2018-05-27T08:19:12Z</time>
<speed>23.3</speed>
</trkpt>
<trkpt lat="55.328872" lon="12.038336">
<ele>29.3</ele>
<time>2018-05-27T08:19:13Z</time>
<speed>23.3</speed>
</trkpt>
<trkpt lat="55.329078" lon="12.038429">
<ele>30.5</ele>
<time>2018-05-27T08:19:14Z</time>
<speed>23.6</speed>
</trkpt>
<trkpt lat="55.329293" lon="12.038510">
<ele>31.0</ele>
<time>2018-05-27T08:19:15Z</time>
<speed>23.3</speed>
</trkpt>
<trkpt lat="55.329495" lon="12.038588">
<ele>31.2</ele>
<time>2018-05-27T08:19:16Z</time>
<speed>23.3</speed>
</trkpt>
<trkpt lat="55.329700" lon="12.038681">
<ele>32.4</ele>
<time>2018-05-27T08:19:17Z</time>
<speed>23.1</speed>
</trkpt>
<trkpt lat="55.329903" lon="12.038759">
<ele>32.6</ele>
<time>2018-05-27T08:19:18Z</time>
<speed>22.8</speed>
</trkpt>
<trkpt lat="55.330105" lon="12.038837">
<ele>32.9</ele>
<time>2018-05-27T08:19:19Z</time>
<speed>23.3</speed>
</trkpt>
<trkpt lat="55.330308" lon="12.038899">
<ele>33.0</ele>
<time>2018-05-27T08:19:20Z</time>
<speed>23.1</speed>
</trkpt>
<trkpt lat="55.330511" lon="12.038977">
<ele>33.2</ele>
<time>2018-05-27T08:19:21Z</time>
<speed>23.1</speed>
</trkpt>
<trkpt lat="55.330720" lon="12.039058">
<ele>32.9</ele>
<time>2018-05-27T08:19:22Z</time>
<speed>23.1</speed>
</trkpt>
<trkpt lat="55.330919" lon="12.039121">
<ele>32.2</ele>
<time>2018-05-27T08:19:23Z</time>
<speed>23.1</speed>
</trkpt>
<trkpt lat="55.331130" lon="12.039186">
<ele>31.8</ele>
<time>2018-05-27T08:19:24Z</time>
<speed>23.3</speed>
</trkpt>
<trkpt lat="55.331340" lon="12.039252">
<ele>31.4</ele>
<time>2018-05-27T08:19:25Z</time>
<speed>23.3</speed>
</trkpt>
<trkpt lat="55.331541" lon="12.039299">
<ele>30.5</ele>
<time>2018-05-27T08:19:26Z</time>
<speed>23.3</speed>
</trkpt>
<trkpt lat="55.331752" lon="12.039365">
<ele>30.1</ele>
<time>2018-05-27T08:19:27Z</time>
<speed>23.3</speed>
</trkpt>
<trkpt lat="55.331957" lon="12.039431">
<ele>28.8</ele>
<time>2018-05-27T08:19:28Z</time>
<speed>23.6</speed>
</trkpt>
<trkpt lat="55.332161" lon="12.039493">
<ele>29.0</ele>
<time>2018-05-27T08:19:29Z</time>
<speed>23.3</speed>
</trkpt>
<trkpt lat="55.332367" lon="12.039559">
<ele>27.7</ele>
<time>2018-05-27T08:19:30Z</time>
<speed>23.3</speed>
</trkpt>
<trkpt lat="55.332579" lon="12.039609">
<ele>27.2</ele>
<time>2018-05-27T08:19:31Z</time>
<speed>23.3</speed>
</trkpt>
<trkpt lat="55.332778" lon="12.039672">
<ele>26.5</ele>
<time>2018-05-27T08:19:32Z</time>
<speed>23.1</speed>
</trkpt>
<trkpt lat="55.332989" lon="12.039737">
<ele>26.0</ele>
<time>2018-05-27T08:19:33Z</time>
<speed>23.3</speed>
</trkpt>
<trkpt lat="55.333193" lon="12.039800">
<ele>26.2</ele>
<time>2018-05-27T08:19:34Z</time>
<speed>23.3</speed>
</trkpt>
<trkpt lat="55.333403" lon="12.039866">
<ele>25.7</ele>
<time>2018-05-27T08:19:35Z</time>
<speed>23.1</speed>
</trkpt>
<trkpt lat="55.333606" lon="12.039943">
<ele>26.0</ele>
<time>2018-05-27T08:19:36Z</time>
<speed>23.1</speed>
</trkpt>
<trkpt lat="55.333810" lon="12.040025">
<ele>24.8</ele>
<time>2018-05-27T08:19:37Z</time>
<speed>23.6</speed>
</trkpt>
<trkpt lat="55.334012" lon="12.040102">
<ele>25.1</ele>
<time>2018-05-27T08:19:38Z</time>
<speed>23.3</speed>
</trkpt>
<trkpt lat="55.334209" lon="12.040180">
<ele>24.5</ele>
<time>2018-05-27T08:19:39Z</time>
<speed>23.1</speed>
</trkpt>
<trkpt lat="55.334410" lon="12.040274">
<ele>24.8</ele>
<time>2018-05-27T08:19:40Z</time>
<speed>23.6</speed>
</trkpt>
<trkpt lat="55.334610" lon="12.040367">
<ele>25.2</ele>
<time>2018-05-27T08:19:41Z</time>
<speed>23.6</speed>
</trkpt>
<trkpt lat="55.334811" lon="12.040460">
<ele>25.6</ele>
<time>2018-05-27T08:19:42Z</time>
<speed>23.3</speed>
</trkpt>
<trkpt lat="55.335019" lon="12.040557">
<ele>25.4</ele>
<time>2018-05-27T08:19:43Z</time>
<speed>23.1</speed>
</trkpt>
<trkpt lat="55.335214" lon="12.040650">
<ele>24.9</ele>
<time>2018-05-27T08:19:44Z</time>
<speed>23.3</speed>
</trkpt>
<trkpt lat="55.335408" lon="12.040759">
<ele>24.6</ele>
<time>2018-05-27T08:19:45Z</time>
<speed>23.3</speed>
</trkpt>
<trkpt lat="55.335607" lon="12.040867">
<ele>25.0</ele>
<time>2018-05-27T08:19:46Z</time>
<speed>23.3</speed>
</trkpt>
<trkpt lat="55.335807" lon="12.040995">
<ele>24.3</ele>
<time>2018-05-27T08:19:47Z</time>
<speed>23.3</speed>
</trkpt>
<trkpt lat="55.336001" lon="12.041103">
<ele>23.9</ele>
<time>2018-05-27T08:19:48Z</time>
<speed>23.1</speed>
</trkpt>
<trkpt lat="55.336195" lon="12.041212">
<ele>23.6</ele>
<time>2018-05-27T08:19:49Z</time>
<speed>22.8</speed>
</trkpt>
<trkpt lat="55.336387" lon="12.041336">
<ele>23.4</ele>
<time>2018-05-27T08:19:50Z</time>
<speed>22.8</speed>
</trkpt>
<trkpt lat="55.336580" lon="12.041460">
<ele>23.1</ele>
<time>2018-05-27T08:19:51Z</time>
<speed>22.8</speed>
</trkpt>
<trkpt lat="55.336772" lon="12.041584">
<ele>22.9</ele>
<time>2018-05-27T08:19:52Z</time>
<speed>23.1</speed>
</trkpt>
<trkpt lat="55.336963" lon="12.041724">
<ele>22.8</ele>
<time>2018-05-27T08:19:53Z</time>
<speed>23.1</speed>
</trkpt>
<trkpt lat="55.337161" lon="12.041848">
<ele>23.4</ele>
<time>2018-05-27T08:19:54Z</time>
<speed>23.1</speed>
</trkpt>
<trkpt lat="55.337351" lon="12.041988">
<ele>23.3</ele>
<time>2018-05-27T08:19:55Z</time>
<speed>22.8</speed>
</trkpt>
<trkpt lat="55.337542" lon="12.042127">
<ele>23.2</ele>
<time>2018-05-27T08:19:56Z</time>
<speed>22.8</speed>
</trkpt>
<trkpt lat="55.337739" lon="12.042285">
<ele>22.6</ele>
<time>2018-05-27T08:19:57Z</time>
<speed>23.1</speed>
</trkpt>
<trkpt lat="55.337930" lon="12.042425">
<ele>22.5</ele>
<time>2018-05-27T08:19:58Z</time>
<speed>23.1</speed>
</trkpt>
<trkpt lat="55.338123" lon="12.042595">
<ele>23.5</ele>
<time>2018-05-27T08:19:59Z</time>
<speed>23.3</speed>
</trkpt>
<trkpt lat="55.338319" lon="12.042754">
<ele>23.0</ele>
<time>2018-05-27T08:20:00Z</time>
<speed>23.1</speed>
</trkpt>
<trkpt lat="55.338514" lon="12.042908">
<ele>23.8</ele>
<time>2018-05-27T08:20:01Z</time>
<speed>23.1</speed>
</trkpt>
<trkpt lat="55.338701" lon="12.043079">
<ele>23.9</ele>
<time>2018-05-27T08:20:02Z</time>
<speed>23.1</speed>
</trkpt>
<trkpt lat="55.338897" lon="12.043252">
<ele>23.5</ele>
<time>2018-05-27T08:20:03Z</time>
<speed>23.1</speed>
</trkpt>
<trkpt lat="55.339083" lon="12.043438">
<ele>23.8</ele>
<time>2018-05-27T08:20:04Z</time>
<speed>23.1</speed>
</trkpt>
<trkpt lat="55.339269" lon="12.043624">
<ele>24.0</ele>
<time>2018-05-27T08:20:05Z</time>
<speed>23.1</speed>
</trkpt>
<trkpt lat="55.339462" lon="12.043813">
<ele>23.7</ele>
<time>2018-05-27T08:20:06Z</time>
<speed>23.1</speed>
</trkpt>
<trkpt lat="55.339635" lon="12.044011">
<ele>23.8</ele>
<time>2018-05-27T08:20:07Z</time>
<speed>23.1</speed>
</trkpt>
<trkpt lat="55.339823" lon="12.044200">
<ele>22.7</ele>
<time>2018-05-27T08:20:08Z</time>
<speed>23.1</speed>
</trkpt>
<trkpt lat="55.340003" lon="12.044401">
<ele>22.2</ele>
<time>2018-05-27T08:20:09Z</time>
<speed>23.1</speed>
</trkpt>
<trkpt lat="55.340182" lon="12.044602">
<ele>21.8</ele>
<time>2018-05-27T08:20:10Z</time>
<speed>23.1</speed>
</trkpt>
<trkpt lat="55.340362" lon="12.044804">
<ele>21.3</ele>
<time>2018-05-27T08:20:11Z</time>
<speed>23.1</speed>
</trkpt>
<trkpt lat="55.340533" lon="12.045017">
<ele>21.5</ele>
<time>2018-05-27T08:20:12Z</time>
<speed>23.1</speed>
</trkpt>
<trkpt lat="55.340699" lon="12.045230">
<ele>20.9</ele>
<time>2018-05-27T08:20:13Z</time>
<speed>23.1</speed>
</trkpt>
<trkpt lat="55.340869" lon="12.045444">
<ele>21.2</ele>
<time>2018-05-27T08:20:14Z</time>
<speed>23.1</speed>
</trkpt>
<trkpt lat="55.341040" lon="12.045657">
<ele>21.4</ele>
<time>2018-05-27T08:20:15Z</time>
<speed>23.1</speed>
</trkpt>
<trkpt lat="55.341211" lon="12.045870">
<ele>21.6</ele>
<time>2018-05-27T08:20:16Z</time>
<speed>23.1</speed>
</trkpt>
<trkpt lat="55.341380" lon="12.046099">
<ele>22.0</ele>
<time>2018-05-27T08:20:17Z</time>
<speed>23.3</speed>
</trkpt>
<trkpt lat="55.341537" lon="12.046325">
<ele>22.0</ele>
<time>2018-05-27T08:20:18Z</time>
<speed>23.1</speed>
</trkpt>
<trkpt lat="55.341702" lon="12.046553">
<ele>21.6</ele>
<time>2018-05-27T08:20:19Z</time>
<speed>23.1</speed>
</trkpt>
<trkpt lat="55.341869" lon="12.046798">
<ele>22.0</ele>
<time>2018-05-27T08:20:20Z</time>
<speed>23.1</speed>
</trkpt>
<trkpt lat="55.342026" lon="12.047023">
<ele>22.1</ele>
<time>2018-05-27T08:20:21Z</time>
<speed>23.1</speed>
</trkpt>
<trkpt lat="55.342182" lon="12.047264">
<ele>22.3</ele>
<time>2018-05-27T08:20:22Z</time>
<speed>22.8</speed>
</trkpt>
<trkpt lat="55.342337" lon="12.047505">
<ele>22.5</ele>
<time>2018-05-27T08:20:23Z</time>
<speed>23.3</speed>
</trkpt>
<trkpt lat="55.342498" lon="12.047764">
<ele>22.2</ele>
<time>2018-05-27T08:20:24Z</time>
<speed>23.3</speed>
</trkpt>
<trkpt lat="55.342647" lon="12.048021">
<ele>21.7</ele>
<time>2018-05-27T08:20:25Z</time>
<speed>23.1</speed>
</trkpt>
<trkpt lat="55.342794" lon="12.048274">
<ele>22.6</ele>
<time>2018-05-27T08:20:26Z</time>
<speed>23.1</speed>
</trkpt>
<trkpt lat="55.342942" lon="12.048530">
<ele>22.1</ele>
<time>2018-05-27T08:20:27Z</time>
<speed>23.1</speed>
</trkpt>
<trkpt lat="55.343091" lon="12.048786">
<ele>21.6</ele>
<time>2018-05-27T08:20:28Z</time>
<speed>23.1</speed>
</trkpt>
<trkpt lat="55.343231" lon="12.049055">
<ele>21.8</ele>
<time>2018-05-27T08:20:29Z</time>
<speed>23.1</speed>
</trkpt>
<trkpt lat="55.343380" lon="12.049311">
<ele>21.3</ele>
<time>2018-05-27T08:20:30Z</time>
<speed>23.1</speed>
</trkpt>
<trkpt lat="55.343520" lon="12.049579">
<ele>21.4</ele>
<time>2018-05-27T08:20:31Z</time>
<speed>23.1</speed>
</trkpt>
<trkpt lat="55.343655" lon="12.049848">
<ele>20.8</ele>
<time>2018-05-27T08:20:32Z</time>
<speed>23.1</speed>
</trkpt>
<trkpt lat="55.343795" lon="12.050116">
<ele>20.9</ele>
<time>2018-05-27T08:20:33Z</time>
<speed>23.1</speed>
</trkpt>
<trkpt lat="55.343933" lon="12.050400">
<ele>21.2</ele>
<time>2018-05-27T08:20:34Z</time>
<speed>23.1</speed>
</trkpt>
<trkpt lat="55.344059" lon="12.050681">
<ele>21.2</ele>
<time>2018-05-27T08:20:35Z</time>
<speed>23.1</speed>
</trkpt>
<trkpt lat="55.344193" lon="12.050965">
<ele>20.7</ele>
<time>2018-05-27T08:20:36Z</time>
<speed>23.1</speed>
</trkpt>
<trkpt lat="55.344319" lon="12.051245">
<ele>20.7</ele>
<time>2018-05-27T08:20:37Z</time>
<speed>23.1</speed>
</trkpt>
<trkpt lat="55.344452" lon="12.051529">
<ele>20.2</ele>
<time>2018-05-27T08:20:38Z</time>
<speed>23.1</speed>
</trkpt>
<trkpt lat="55.344577" lon="12.051825">
<ele>20.3</ele>
<time>2018-05-27T08:20:39Z</time>
<speed>22.8</speed>
</trkpt>
<trkpt lat="55.344698" lon="12.052106">
<ele>19.5</ele>
<time>2018-05-27T08:20:40Z</time>
<speed>23.1</speed>
</trkpt>
<trkpt lat="55.344822" lon="12.052402">
<ele>19.7</ele>
<time>2018-05-27T08:20:41Z</time>
<speed>23.1</speed>
</trkpt>
<trkpt lat="55.344940" lon="12.052713">
<ele>19.1</ele>
<time>2018-05-27T08:20:42Z</time>
<speed>23.1</speed>
</trkpt>
<trkpt lat="55.345057" lon="12.053006">
<ele>19.8</ele>
<time>2018-05-27T08:20:43Z</time>
<speed>22.8</speed>
</trkpt>
<trkpt lat="55.345177" lon="12.053302">
<ele>19.1</ele>
<time>2018-05-27T08:20:44Z</time>
<speed>23.1</speed>
</trkpt>
<trkpt lat="55.345288" lon="12.053610">
<ele>19.1</ele>
<time>2018-05-27T08:20:45Z</time>
<speed>23.1</speed>
</trkpt>
<trkpt lat="55.345403" lon="12.053918">
<ele>19.9</ele>
<time>2018-05-27T08:20:46Z</time>
<speed>23.1</speed>
</trkpt>
<trkpt lat="55.345514" lon="12.054226">
<ele>19.9</ele>
<time>2018-05-27T08:20:47Z</time>
<speed>23.1</speed>
</trkpt>
<trkpt lat="55.345625" lon="12.054534">
<ele>19.9</ele>
<time>2018-05-27T08:20:48Z</time>
<speed>23.1</speed>
</trkpt>
<trkpt lat="55.345729" lon="12.054858">
<ele>19.2</ele>
<time>2018-05-27T08:20:49Z</time>
<speed>23.1</speed>
</trkpt>
<trkpt lat="55.345831" lon="12.055178">
<ele>19.9</ele>
<time>2018-05-27T08:20:50Z</time>
<speed>23.1</speed>
</trkpt>
<trkpt lat="55.345941" lon="12.055486">
<ele>19.8</ele>
<time>2018-05-27T08:20:51Z</time>
<speed>23.1</speed>
</trkpt>
<trkpt lat="55.346038" lon="12.055807">
<ele>19.7</ele>
<time>2018-05-27T08:20:52Z</time>
<speed>23.1</speed>
</trkpt>
<trkpt lat="55.346142" lon="12.056130">
<ele>19.0</ele>
<time>2018-05-27T08:20:53Z</time>
<speed>23.3</speed>
</trkpt>
<trkpt lat="55.346239" lon="12.056450">
<ele>18.8</ele>
<time>2018-05-27T08:20:54Z</time>
<speed>23.1</speed>
</trkpt>
<trkpt lat="55.346327" lon="12.056783">
<ele>19.3</ele>
<time>2018-05-27T08:20:55Z</time>
<speed>23.1</speed>
</trkpt>
<trkpt lat="55.346417" lon="12.057118">
<ele>18.5</ele>
<time>2018-05-27T08:20:56Z</time>
<speed>23.1</speed>
</trkpt>
<trkpt lat="55.346514" lon="12.057439">
<ele>18.3</ele>
<time>2018-05-27T08:20:57Z</time>
<speed>23.3</speed>
</trkpt>
<trkpt lat="55.346597" lon="12.057771">
<ele>18.0</ele>
<time>2018-05-27T08:20:58Z</time>
<speed>23.1</speed>
</trkpt>
<trkpt lat="55.346685" lon="12.058103">
<ele>18.5</ele>
<time>2018-05-27T08:20:59Z</time>
<speed>23.1</speed>
</trkpt>
<trkpt lat="55.346775" lon="12.058439">
<ele>17.7</ele>
<time>2018-05-27T08:21:00Z</time>
<speed>23.3</speed>
</trkpt>
<trkpt lat="55.346865" lon="12.058775">
<ele>16.8</ele>
<time>2018-05-27T08:21:01Z</time>
<speed>23.3</speed>
</trkpt>
<trkpt lat="55.346955" lon="12.059092">
<ele>17.2</ele>
<time>2018-05-27T08:21:02Z</time>
<speed>23.3</speed>
</trkpt>
<trkpt lat="55.347045" lon="12.059428">
<ele>16.4</ele>
<time>2018-05-27T08:21:03Z</time>
<speed>23.1</speed>
</trkpt>
<trkpt lat="55.347133" lon="12.059760">
<ele>16.9</ele>
<time>2018-05-27T08:21:04Z</time>
<speed>23.1</speed>
</trkpt>
<trkpt lat="55.347225" lon="12.060080">
<ele>15.9</ele>
<time>2018-05-27T08:21:05Z</time>
<speed>23.3</speed>
</trkpt>
<trkpt lat="55.347320" lon="12.060416">
<ele>15.9</ele>
<time>2018-05-27T08:21:06Z</time>
<speed>23.3</speed>
</trkpt>
<trkpt lat="55.347417" lon="12.060736">
<ele>15.7</ele>
<time>2018-05-27T08:21:07Z</time>
<speed>22.8</speed>
</trkpt>
<trkpt lat="55.347513" lon="12.061056">
<ele>15.6</ele>
<time>2018-05-27T08:21:08Z</time>
<speed>23.1</speed>
</trkpt>
<trkpt lat="55.347604" lon="12.061392">
<ele>14.7</ele>
<time>2018-05-27T08:21:09Z</time>
<speed>23.1</speed>
</trkpt>
<trkpt lat="55.347705" lon="12.061712">
<ele>15.4</ele>
<time>2018-05-27T08:21:10Z</time>
<speed>23.3</speed>
</trkpt>
<trkpt lat="55.347811" lon="12.062021">
<ele>14.5</ele>
<time>2018-05-27T08:21:11Z</time>
<speed>23.3</speed>
</trkpt>
<trkpt lat="55.347920" lon="12.062344">
<ele>14.7</ele>
<time>2018-05-27T08:21:12Z</time>
<speed>23.1</speed>
</trkpt>
<trkpt lat="55.348033" lon="12.062656">
<ele>13.3</ele>
<time>2018-05-27T08:21:13Z</time>
<speed>23.1</speed>
</trkpt>
<trkpt lat="55.348144" lon="12.062964">
<ele>13.3</ele>
<time>2018-05-27T08:21:14Z</time>
<speed>23.3</speed>
</trkpt>
<trkpt lat="55.348254" lon="12.063272">
<ele>13.3</ele>
<time>2018-05-27T08:21:15Z</time>
<speed>23.1</speed>
</trkpt>
<trkpt lat="55.348372" lon="12.063584">
<ele>12.7</ele>
<time>2018-05-27T08:21:16Z</time>
<speed>23.1</speed>
</trkpt>
<trkpt lat="55.348497" lon="12.063880">
<ele>12.8</ele>
<time>2018-05-27T08:21:17Z</time>
<speed>23.3</speed>
</trkpt>
<trkpt lat="55.348616" lon="12.064176">
<ele>12.2</ele>
<time>2018-05-27T08:21:18Z</time>
<speed>23.1</speed>
</trkpt>
<trkpt lat="55.348741" lon="12.064472">
<ele>12.3</ele>
<time>2018-05-27T08:21:19Z</time>
<speed>23.1</speed>
</trkpt>
<trkpt lat="55.348865" lon="12.064768">
<ele>12.4</ele>
<time>2018-05-27T08:21:20Z</time>
<speed>23.1</speed>
</trkpt>
<trkpt lat="55.348993" lon="12.065052">
<ele>11.1</ele>
<time>2018-05-27T08:21:21Z</time>
<speed>23.1</speed>
</trkpt>
<trkpt lat="55.349125" lon="12.065351">
<ele>10.7</ele>
<time>2018-05-27T08:21:22Z</time>
<speed>23.1</speed>
</trkpt>
<trkpt lat="55.349265" lon="12.065620">
<ele>10.8</ele>
<time>2018-05-27T08:21:23Z</time>
<speed>23.1</speed>
</trkpt>
<trkpt lat="55.349391" lon="12.065900">
<ele>10.9</ele>
<time>2018-05-27T08:21:24Z</time>
<speed>23.1</speed>
</trkpt>
<trkpt lat="55.349530" lon="12.066184">
<ele>11.2</ele>
<time>2018-05-27T08:21:25Z</time>
<speed>23.3</speed>
</trkpt>
<trkpt lat="55.349661" lon="12.066465">
<ele>12.0</ele>
<time>2018-05-27T08:21:26Z</time>
<speed>23.3</speed>
</trkpt>
<trkpt lat="55.349799" lon="12.066749">
<ele>12.3</ele>
<time>2018-05-27T08:21:27Z</time>
<speed>23.1</speed>
</trkpt>
<trkpt lat="55.349946" lon="12.067002">
<ele>13.2</ele>
<time>2018-05-27T08:21:28Z</time>
<speed>23.1</speed>
</trkpt>
<trkpt lat="55.350086" lon="12.067271">
<ele>13.3</ele>
<time>2018-05-27T08:21:29Z</time>
<speed>23.1</speed>
</trkpt>
<trkpt lat="55.350227" lon="12.067524">
<ele>13.4</ele>
<time>2018-05-27T08:21:30Z</time>
<speed>23.1</speed>
</trkpt>
<trkpt lat="55.350381" lon="12.067780">
<ele>13.7</ele>
<time>2018-05-27T08:21:31Z</time>
<speed>23.1</speed>
</trkpt>
<trkpt lat="55.350535" lon="12.068037">
<ele>14.0</ele>
<time>2018-05-27T08:21:32Z</time>
<speed>23.3</speed>
</trkpt>
<trkpt lat="55.350685" lon="12.068278">
<ele>13.4</ele>
<time>2018-05-27T08:21:33Z</time>
<speed>23.1</speed>
</trkpt>
<trkpt lat="55.350840" lon="12.068519">
<ele>13.6</ele>
<time>2018-05-27T08:21:34Z</time>
<speed>23.1</speed>
</trkpt>
<trkpt lat="55.350996" lon="12.068760">
<ele>13.8</ele>
<time>2018-05-27T08:21:35Z</time>
<speed>22.8</speed>
</trkpt>
<trkpt lat="55.351156" lon="12.069001">
<ele>14.8</ele>
<time>2018-05-27T08:21:36Z</time>
<speed>22.8</speed>
</trkpt>
<trkpt lat="55.351313" lon="12.069226">
<ele>14.9</ele>
<time>2018-05-27T08:21:37Z</time>
<speed>23.1</speed>
</trkpt>
<trkpt lat="55.351483" lon="12.069455">
<ele>15.3</ele>
<time>2018-05-27T08:21:38Z</time>
<speed>23.1</speed>
</trkpt>
<trkpt lat="55.351639" lon="12.069681">
<ele>15.4</ele>
<time>2018-05-27T08:21:39Z</time>
<speed>23.1</speed>
</trkpt>
<trkpt lat="55.351810" lon="12.069894">
<ele>15.6</ele>
<time>2018-05-27T08:21:40Z</time>
<speed>23.1</speed>
</trkpt>
<trkpt lat="55.351979" lon="12.070123">
<ele>15.9</ele>
<time>2018-05-27T08:21:41Z</time>
<speed>23.1</speed>
</trkpt>
<trkpt lat="55.352150" lon="12.070337">
<ele>16.2</ele>
<time>2018-05-27T08:21:42Z</time>
<speed>23.1</speed>
</trkpt>
<trkpt lat="55.352328" lon="12.070535">
<ele>17.1</ele>
<time>2018-05-27T08:21:43Z</time>
<speed>23.1</speed>
</trkpt>
<trkpt lat="55.352500" lon="12.070733">
<ele>17.2</ele>
<time>2018-05-27T08:21:44Z</time>
<speed>23.1</speed>
</trkpt>
<trkpt lat="55.352676" lon="12.070946">
<ele>18.3</ele>
<time>2018-05-27T08:21:45Z</time>
<speed>23.3</speed>
</trkpt>
<trkpt lat="55.352855" lon="12.071129">
<ele>19.1</ele>
<time>2018-05-27T08:21:46Z</time>
<speed>23.3</speed>
</trkpt>
<trkpt lat="55.353041" lon="12.071315">
<ele>19.3</ele>
<time>2018-05-27T08:21:47Z</time>
<speed>23.3</speed>
</trkpt>
<trkpt lat="55.353215" lon="12.071498">
<ele>19.3</ele>
<time>2018-05-27T08:21:48Z</time>
<speed>23.1</speed>
</trkpt>
<trkpt lat="55.353394" lon="12.071680">
<ele>20.2</ele>
<time>2018-05-27T08:21:49Z</time>
<speed>23.1</speed>
</trkpt>
<trkpt lat="55.353573" lon="12.071863">
<ele>21.0</ele>
<time>2018-05-27T08:21:50Z</time>
<speed>23.1</speed>
</trkpt>
<trkpt lat="55.353753" lon="12.072030">
<ele>21.7</ele>
<time>2018-05-27T08:21:51Z</time>
<speed>23.1</speed>
</trkpt>
<trkpt lat="55.353932" lon="12.072213">
<ele>22.5</ele>
<time>2018-05-27T08:21:52Z</time>
<speed>23.1</speed>
</trkpt>
<trkpt lat="55.354127" lon="12.072368">
<ele>23.3</ele>
<time>2018-05-27T08:21:53Z</time>
<speed>22.8</speed>
</trkpt>
<trkpt lat="55.354305" lon="12.072532">
<ele>25.4</ele>
<time>2018-05-27T08:21:54Z</time>
<speed>22.8</speed>
</trkpt>
<trkpt lat="55.354487" lon="12.072684">
<ele>26.0</ele>
<time>2018-05-27T08:21:55Z</time>
<speed>22.8</speed>
</trkpt>
<trkpt lat="55.354675" lon="12.072836">
<ele>27.4</ele>
<time>2018-05-27T08:21:56Z</time>
<speed>22.8</speed>
</trkpt>
<trkpt lat="55.354862" lon="12.072988">
<ele>28.8</ele>
<time>2018-05-27T08:21:57Z</time>
<speed>22.5</speed>
</trkpt>
<trkpt lat="55.355053" lon="12.073127">
<ele>28.7</ele>
<time>2018-05-27T08:21:58Z</time>
<speed>22.8</speed>
</trkpt>
<trkpt lat="55.355241" lon="12.073264">
<ele>30.0</ele>
<time>2018-05-27T08:21:59Z</time>
<speed>22.8</speed>
</trkpt>
<trkpt lat="55.355430" lon="12.073400">
<ele>31.3</ele>
<time>2018-05-27T08:22:00Z</time>
<speed>22.5</speed>
</trkpt>
<trkpt lat="55.355628" lon="12.073525">
<ele>31.9</ele>
<time>2018-05-27T08:22:01Z</time>
<speed>22.5</speed>
</trkpt>
<trkpt lat="55.355813" lon="12.073646">
<ele>32.2</ele>
<time>2018-05-27T08:22:02Z</time>
<speed>22.5</speed>
</trkpt>
<trkpt lat="55.356005" lon="12.073770">
<ele>32.0</ele>
<time>2018-05-27T08:22:03Z</time>
<speed>22.8</speed>
</trkpt>
<trkpt lat="55.356197" lon="12.073894">
<ele>31.8</ele>
<time>2018-05-27T08:22:04Z</time>
<speed>23.1</speed>
</trkpt>
<trkpt lat="55.356397" lon="12.074003">
<ele>32.3</ele>
<time>2018-05-27T08:22:05Z</time>
<speed>23.1</speed>
</trkpt>
<trkpt lat="55.356596" lon="12.074112">
<ele>32.8</ele>
<time>2018-05-27T08:22:06Z</time>
<speed>23.1</speed>
</trkpt>
<trkpt lat="55.356791" lon="12.074206">
<ele>32.3</ele>
<time>2018-05-27T08:22:07Z</time>
<speed>23.1</speed>
</trkpt>
<trkpt lat="55.356994" lon="12.074302">
<ele>31.3</ele>
<time>2018-05-27T08:22:08Z</time>
<speed>22.8</speed>
</trkpt>
<trkpt lat="55.357194" lon="12.074396">
<ele>31.7</ele>
<time>2018-05-27T08:22:09Z</time>
<speed>22.8</speed>
</trkpt>
<trkpt lat="55.357397" lon="12.074493">
<ele>30.7</ele>
<time>2018-05-27T08:22:10Z</time>
<speed>23.1</speed>
</trkpt>
<trkpt lat="55.357594" lon="12.074571">
<ele>30.1</ele>
<time>2018-05-27T08:22:11Z</time>
<speed>23.1</speed>
</trkpt>
<trkpt lat="55.357803" lon="12.074652">
<ele>29.8</ele>
<time>2018-05-27T08:22:12Z</time>
<speed>23.1</speed>
</trkpt>
<trkpt lat="55.357999" lon="12.074746">
<ele>29.3</ele>
<time>2018-05-27T08:22:13Z</time>
<speed>23.1</speed>
</trkpt>
<trkpt lat="55.358208" lon="12.074827">
<ele>29.0</ele>
<time>2018-05-27T08:22:14Z</time>
<speed>23.1</speed>
</trkpt>
<trkpt lat="55.358404" lon="12.074921">
<ele>28.6</ele>
<time>2018-05-27T08:22:15Z</time>
<speed>23.1</speed>
</trkpt>
<trkpt lat="55.358606" lon="12.074999">
<ele>28.8</ele>
<time>2018-05-27T08:22:16Z</time>
<speed>23.1</speed>
</trkpt>
<trkpt lat="55.358806" lon="12.075092">
<ele>29.2</ele>
<time>2018-05-27T08:22:17Z</time>
<speed>23.1</speed>
</trkpt>
<trkpt lat="55.359016" lon="12.075174">
<ele>28.9</ele>
<time>2018-05-27T08:22:18Z</time>
<speed>23.1</speed>
</trkpt>
<trkpt lat="55.359213" lon="12.075252">
<ele>28.3</ele>
<time>2018-05-27T08:22:19Z</time>
<speed>23.1</speed>
</trkpt>
<trkpt lat="55.359413" lon="12.075345">
<ele>28.7</ele>
<time>2018-05-27T08:22:20Z</time>
<speed>23.1</speed>
</trkpt>
<trkpt lat="55.359616" lon="12.075423">
<ele>29.0</ele>
<time>2018-05-27T08:22:21Z</time>
<speed>23.1</speed>
</trkpt>
<trkpt lat="55.359816" lon="12.075517">
<ele>29.3</ele>
<time>2018-05-27T08:22:22Z</time>
<speed>23.3</speed>
</trkpt>
<trkpt lat="55.360026" lon="12.075598">
<ele>29.0</ele>
<time>2018-05-27T08:22:23Z</time>
<speed>23.3</speed>
</trkpt>
<trkpt lat="55.360221" lon="12.075692">
<ele>28.6</ele>
<time>2018-05-27T08:22:24Z</time>
<speed>22.8</speed>
</trkpt>
<trkpt lat="55.360423" lon="12.075770">
<ele>28.8</ele>
<time>2018-05-27T08:22:25Z</time>
<speed>23.1</speed>
</trkpt>
<trkpt lat="55.360624" lon="12.075863">
<ele>29.2</ele>
<time>2018-05-27T08:22:26Z</time>
<speed>23.1</speed>
</trkpt>
<trkpt lat="55.360821" lon="12.075941">
<ele>28.6</ele>
<time>2018-05-27T08:22:27Z</time>
<speed>23.1</speed>
</trkpt>
<trkpt lat="55.361029" lon="12.076038">
<ele>28.5</ele>
<time>2018-05-27T08:22:28Z</time>
<speed>23.1</speed>
</trkpt>
<trkpt lat="55.361226" lon="12.076116">
<ele>27.9</ele>
<time>2018-05-27T08:22:29Z</time>
<speed>23.1</speed>
</trkpt>
<trkpt lat="55.361426" lon="12.076210">
<ele>28.3</ele>
<time>2018-05-27T08:22:30Z</time>
<speed>23.1</speed>
</trkpt>
<trkpt lat="55.361627" lon="12.076303">
<ele>28.6</ele>
<time>2018-05-27T08:22:31Z</time>
<speed>23.1</speed>
</trkpt>
<trkpt lat="55.361831" lon="12.076385">
<ele>27.5</ele>
<time>2018-05-27T08:22:32Z</time>
<speed>23.1</speed>
</trkpt>
<trkpt lat="55.362032" lon="12.076478">
<ele>27.9</ele>
<time>2018-05-27T08:22:33Z</time>
<speed>23.1</speed>
</trkpt>
<trkpt lat="55.362234" lon="12.076556">
<ele>28.1</ele>
<time>2018-05-27T08:22:34Z</time>
<speed>22.8</speed>
</trkpt>
<trkpt lat="55.362429" lon="12.076650">
<ele>27.7</ele>
<time>2018-05-27T08:22:35Z</time>
<speed>23.1</speed>
</trkpt>
<trkpt lat="55.362639" lon="12.076731">
<ele>27.4</ele>
<time>2018-05-27T08:22:36Z</time>
<speed>23.1</speed>
</trkpt>
<trkpt lat="55.362839" lon="12.076825">
<ele>27.8</ele>
<time>2018-05-27T08:22:37Z</time>
<speed>23.1</speed>
</trkpt>
<trkpt lat="55.363041" lon="12.076903">
<ele>28.0</ele>
<time>2018-05-27T08:22:38Z</time>
<speed>23.1</speed>
</trkpt>
<trkpt lat="55.363244" lon="12.077000">
<ele>27.0</ele>
<time>2018-05-27T08:22:39Z</time>
<speed>23.1</speed>
</trkpt>
<trkpt lat="55.363446" lon="12.077078">
<ele>27.3</ele>
<time>2018-05-27T08:22:40Z</time>
<speed>23.1</speed>
</trkpt>
<trkpt lat="55.363647" lon="12.077171">
<ele>27.6</ele>
<time>2018-05-27T08:22:41Z</time>
<speed>23.1</speed>
</trkpt>
<trkpt lat="55.363847" lon="12.077265">
<ele>28.0</ele>
<time>2018-05-27T08:22:42Z</time>
<speed>23.1</speed>
</trkpt>
<trkpt lat="55.364052" lon="12.077346">
<ele>26.9</ele>
<time>2018-05-27T08:22:43Z</time>
<speed>23.1</speed>
</trkpt>
<trkpt lat="55.364252" lon="12.077440">
<ele>27.3</ele>
<time>2018-05-27T08:22:44Z</time>
<speed>23.1</speed>
</trkpt>
<trkpt lat="55.364451" lon="12.077549">
<ele>27.8</ele>
<time>2018-05-27T08:22:45Z</time>
<speed>23.1</speed>
</trkpt>
<trkpt lat="55.364647" lon="12.077642">
<ele>27.3</ele>
<time>2018-05-27T08:22:46Z</time>
<speed>23.1</speed>
</trkpt>
<trkpt lat="55.364854" lon="12.077739">
<ele>27.1</ele>
<time>2018-05-27T08:22:47Z</time>
<speed>23.1</speed>
</trkpt>
<trkpt lat="55.365048" lon="12.077848">
<ele>26.8</ele>
<time>2018-05-27T08:22:48Z</time>
<speed>23.1</speed>
</trkpt>
<trkpt lat="55.365247" lon="12.077957">
<ele>27.3</ele>
<time>2018-05-27T08:22:49Z</time>
<speed>23.1</speed>
</trkpt>
<trkpt lat="55.365449" lon="12.078069">
<ele>26.4</ele>
<time>2018-05-27T08:22:50Z</time>
<speed>23.1</speed>
</trkpt>
<trkpt lat="55.365648" lon="12.078178">
<ele>26.9</ele>
<time>2018-05-27T08:22:51Z</time>
<speed>23.1</speed>
</trkpt>
<trkpt lat="55.365840" lon="12.078303">
<ele>26.7</ele>
<time>2018-05-27T08:22:52Z</time>
<speed>23.1</speed>
</trkpt>
<trkpt lat="55.366032" lon="12.078427">
<ele>26.5</ele>
<time>2018-05-27T08:22:53Z</time>
<speed>23.1</speed>
</trkpt>
<trkpt lat="55.366237" lon="12.078555">
<ele>26.5</ele>
<time>2018-05-27T08:22:54Z</time>
<speed>23.1</speed>
</trkpt>
<trkpt lat="55.366429" lon="12.078679">
<ele>26.3</ele>
<time>2018-05-27T08:22:55Z</time>
<speed>23.1</speed>
</trkpt>
<trkpt lat="55.366620" lon="12.078819">
<ele>26.2</ele>
<time>2018-05-27T08:22:56Z</time>
<speed>23.1</speed>
</trkpt>
<trkpt lat="55.366813" lon="12.078943">
<ele>26.0</ele>
<time>2018-05-27T08:22:57Z</time>
<speed>22.8</speed>
</trkpt>
<trkpt lat="55.366996" lon="12.079080">
<ele>26.5</ele>
<time>2018-05-27T08:22:58Z</time>
<speed>22.8</speed>
</trkpt>
<trkpt lat="55.367194" lon="12.079223">
<ele>25.9</ele>
<time>2018-05-27T08:22:59Z</time>
<speed>23.1</speed>
</trkpt>
<trkpt lat="55.367392" lon="12.079366">
<ele>25.2</ele>
<time>2018-05-27T08:23:00Z</time>
<speed>23.1</speed>
</trkpt>
<trkpt lat="55.367583" lon="12.079506">
<ele>25.1</ele>
<time>2018-05-27T08:23:01Z</time>
<speed>23.1</speed>
</trkpt>
<trkpt lat="55.367781" lon="12.079649">
<ele>24.5</ele>
<time>2018-05-27T08:23:02Z</time>
<speed>23.1</speed>
</trkpt>
<trkpt lat="55.367974" lon="12.079792">
<ele>23.0</ele>
<time>2018-05-27T08:23:03Z</time>
<speed>23.1</speed>
</trkpt>
<trkpt lat="55.368157" lon="12.079963">
<ele>22.3</ele>
<time>2018-05-27T08:23:04Z</time>
<speed>23.1</speed>
</trkpt>
<trkpt lat="55.368341" lon="12.080118">
<ele>21.5</ele>
<time>2018-05-27T08:23:05Z</time>
<speed>22.8</speed>
</trkpt>
<trkpt lat="55.368524" lon="12.080289">
<ele>20.9</ele>
<time>2018-05-27T08:23:06Z</time>
<speed>22.8</speed>
</trkpt>
<trkpt lat="55.368704" lon="12.080456">
<ele>21.6</ele>
<time>2018-05-27T08:23:07Z</time>
<speed>22.5</speed>
</trkpt>
<trkpt lat="55.368887" lon="12.080627">
<ele>20.9</ele>
<time>2018-05-27T08:23:08Z</time>
<speed>22.8</speed>
</trkpt>
<trkpt lat="55.369060" lon="12.080791">
<ele>22.1</ele>
<time>2018-05-27T08:23:09Z</time>
<speed>22.8</speed>
</trkpt>
<trkpt lat="55.369234" lon="12.080974">
<ele>22.1</ele>
<time>2018-05-27T08:23:10Z</time>
<speed>22.8</speed>
</trkpt>
<trkpt lat="55.369413" lon="12.081156">
<ele>23.0</ele>
<time>2018-05-27T08:23:11Z</time>
<speed>22.8</speed>
</trkpt>
<trkpt lat="55.369592" lon="12.081339">
<ele>23.8</ele>
<time>2018-05-27T08:23:12Z</time>
<speed>22.8</speed>
</trkpt>
<trkpt lat="55.369766" lon="12.081522">
<ele>23.8</ele>
<time>2018-05-27T08:23:13Z</time>
<speed>22.8</speed>
</trkpt>
<trkpt lat="55.369945" lon="12.081705">
<ele>24.6</ele>
<time>2018-05-27T08:23:14Z</time>
<speed>22.8</speed>
</trkpt>
<trkpt lat="55.370117" lon="12.081903">
<ele>24.7</ele>
<time>2018-05-27T08:23:15Z</time>
<speed>22.5</speed>
</trkpt>
<trkpt lat="55.370289" lon="12.082083">
<ele>26.1</ele>
<time>2018-05-27T08:23:16Z</time>
<speed>22.5</speed>
</trkpt>
<trkpt lat="55.370468" lon="12.082284">
<ele>25.7</ele>
<time>2018-05-27T08:23:17Z</time>
<speed>22.8</speed>
</trkpt>
<trkpt lat="55.370647" lon="12.082467">
<ele>26.5</ele>
<time>2018-05-27T08:23:18Z</time>
<speed>22.8</speed>
</trkpt>
<trkpt lat="55.370820" lon="12.082665">
<ele>26.6</ele>
<time>2018-05-27T08:23:19Z</time>
<speed>22.5</speed>
</trkpt>
<trkpt lat="55.370996" lon="12.082879">
<ele>27.7</ele>
<time>2018-05-27T08:23:20Z</time>
<speed>22.8</speed>
</trkpt>
<trkpt lat="55.371161" lon="12.083074">
<ele>28.4</ele>
<time>2018-05-27T08:23:21Z</time>
<speed>22.8</speed>
</trkpt>
<trkpt lat="55.371338" lon="12.083272">
<ele>29.3</ele>
<time>2018-05-27T08:23:22Z</time>
<speed>22.8</speed>
</trkpt>
<trkpt lat="55.371509" lon="12.083486">
<ele>29.5</ele>
<time>2018-05-27T08:23:23Z</time>
<speed>22.8</speed>
</trkpt>
<trkpt lat="55.371681" lon="12.083684">
<ele>29.7</ele>
<time>2018-05-27T08:23:24Z</time>
<speed>22.8</speed>
</trkpt>
<trkpt lat="55.371853" lon="12.083882">
<ele>29.8</ele>
<time>2018-05-27T08:23:25Z</time>
<speed>22.8</speed>
</trkpt>
<trkpt lat="55.372029" lon="12.084096">
<ele>30.8</ele>
<time>2018-05-27T08:23:26Z</time>
<speed>22.8</speed>
</trkpt>
<trkpt lat="55.372202" lon="12.084294">
<ele>31.0</ele>
<time>2018-05-27T08:23:27Z</time>
<speed>22.8</speed>
</trkpt>
<trkpt lat="55.372367" lon="12.084489">
<ele>31.6</ele>
<time>2018-05-27T08:23:28Z</time>
<speed>22.8</speed>
</trkpt>
<trkpt lat="55.372539" lon="12.084687">
<ele>31.8</ele>
<time>2018-05-27T08:23:29Z</time>
<speed>22.8</speed>
</trkpt>
<trkpt lat="55.372710" lon="12.084901">
<ele>32.0</ele>
<time>2018-05-27T08:23:30Z</time>
<speed>22.8</speed>
</trkpt>
<trkpt lat="55.372880" lon="12.085096">
<ele>33.5</ele>
<time>2018-05-27T08:23:31Z</time>
<speed>22.8</speed>
</trkpt>
<trkpt lat="55.373052" lon="12.085294">
<ele>33.6</ele>
<time>2018-05-27T08:23:32Z</time>
<speed>22.8</speed>
</trkpt>
<trkpt lat="55.373225" lon="12.085492">
<ele>33.7</ele>
<time>2018-05-27T08:23:33Z</time>
<speed>22.8</speed>
</trkpt>
<trkpt lat="55.373397" lon="12.085691">
<ele>33.9</ele>
<time>2018-05-27T08:23:34Z</time>
<speed>22.8</speed>
</trkpt>
<trkpt lat="55.373568" lon="12.085904">
<ele>34.1</ele>
<time>2018-05-27T08:23:35Z</time>
<speed>22.8</speed>
</trkpt>
<trkpt lat="55.373745" lon="12.086102">
<ele>35.0</ele>
<time>2018-05-27T08:23:36Z</time>
<speed>22.8</speed>
</trkpt>
<trkpt lat="55.373910" lon="12.086297">
<ele>35.7</ele>
<time>2018-05-27T08:23:37Z</time>
<speed>22.8</speed>
</trkpt>
<trkpt lat="55.374081" lon="12.086511">
<ele>36.0</ele>
<time>2018-05-27T08:23:38Z</time>
<speed>22.8</speed>
</trkpt>
<trkpt lat="55.374253" lon="12.086709">
<ele>36.1</ele>
<time>2018-05-27T08:23:39Z</time>
<speed>22.8</speed>
</trkpt>
<trkpt lat="55.374431" lon="12.086908">
<ele>37.0</ele>
<time>2018-05-27T08:23:40Z</time>
<speed>22.8</speed>
</trkpt>
<trkpt lat="55.374596" lon="12.087103">
<ele>37.7</ele>
<time>2018-05-27T08:23:41Z</time>
<speed>22.8</speed>
</trkpt>
<trkpt lat="55.374768" lon="12.087301">
<ele>37.8</ele>
<time>2018-05-27T08:23:42Z</time>
<speed>22.8</speed>
</trkpt>
<trkpt lat="55.374940" lon="12.087499">
<ele>37.9</ele>
<time>2018-05-27T08:23:43Z</time>
<speed>22.8</speed>
</trkpt>
<trkpt lat="55.375114" lon="12.087682">
<ele>37.9</ele>
<time>2018-05-27T08:23:44Z</time>
<speed>22.8</speed>
</trkpt>
<trkpt lat="55.375292" lon="12.087880">
<ele>38.9</ele>
<time>2018-05-27T08:23:45Z</time>
<speed>22.8</speed>
</trkpt>
<trkpt lat="55.375465" lon="12.088063">
<ele>38.9</ele>
<time>2018-05-27T08:23:46Z</time>
<speed>22.8</speed>
</trkpt>
<trkpt lat="55.375650" lon="12.088265">
<ele>39.3</ele>
<time>2018-05-27T08:23:47Z</time>
<speed>22.8</speed>
</trkpt>
<trkpt lat="55.375824" lon="12.088448">
<ele>39.3</ele>
<time>2018-05-27T08:23:48Z</time>
<speed>22.8</speed>
</trkpt>
<trkpt lat="55.375998" lon="12.088630">
<ele>39.3</ele>
<time>2018-05-27T08:23:49Z</time>
<speed>22.8</speed>
</trkpt>
<trkpt lat="55.376179" lon="12.088817">
<ele>38.7</ele>
<time>2018-05-27T08:23:50Z</time>
<speed>22.8</speed>
</trkpt>
<trkpt lat="55.376353" lon="12.088999">
<ele>38.7</ele>
<time>2018-05-27T08:23:51Z</time>
<speed>22.8</speed>
</trkpt>
<trkpt lat="55.376533" lon="12.089167">
<ele>39.5</ele>
<time>2018-05-27T08:23:52Z</time>
<speed>22.8</speed>
</trkpt>
<trkpt lat="55.376709" lon="12.089334">
<ele>39.3</ele>
<time>2018-05-27T08:23:53Z</time>
<speed>22.8</speed>
</trkpt>
<trkpt lat="55.376889" lon="12.089502">
<ele>40.0</ele>
<time>2018-05-27T08:23:54Z</time>
<speed>22.8</speed>
</trkpt>
<trkpt lat="55.377072" lon="12.089673">
<ele>39.4</ele>
<time>2018-05-27T08:23:55Z</time>
<speed>22.8</speed>
</trkpt>
<trkpt lat="55.377254" lon="12.089825">
<ele>40.0</ele>
<time>2018-05-27T08:23:56Z</time>
<speed>22.8</speed>
</trkpt>
<trkpt lat="55.377434" lon="12.089992">
<ele>40.7</ele>
<time>2018-05-27T08:23:57Z</time>
<speed>22.8</speed>
</trkpt>
<trkpt lat="55.377615" lon="12.090159">
<ele>41.4</ele>
<time>2018-05-27T08:23:58Z</time>
<speed>22.8</speed>
</trkpt>
<trkpt lat="55.377792" lon="12.090311">
<ele>41.1</ele>
<time>2018-05-27T08:23:59Z</time>
<speed>22.8</speed>
</trkpt>
<trkpt lat="55.377979" lon="12.090482">
<ele>41.3</ele>
<time>2018-05-27T08:24:00Z</time>
<speed>22.8</speed>
</trkpt>
<trkpt lat="55.378162" lon="12.090634">
<ele>41.9</ele>
<time>2018-05-27T08:24:01Z</time>
<speed>22.8</speed>
</trkpt>
<trkpt lat="55.378351" lon="12.090790">
<ele>41.9</ele>
<time>2018-05-27T08:24:02Z</time>
<speed>22.8</speed>
</trkpt>
<trkpt lat="55.378540" lon="12.090945">
<ele>42.0</ele>
<time>2018-05-27T08:24:03Z</time>
<speed>22.8</speed>
</trkpt>
<trkpt lat="55.378726" lon="12.091085">
<ele>41.0</ele>
<time>2018-05-27T08:24:04Z</time>
<speed>22.8</speed>
</trkpt>
<trkpt lat="55.378908" lon="12.091237">
<ele>41.6</ele>
<time>2018-05-27T08:24:05Z</time>
<speed>22.8</speed>
</trkpt>
<trkpt lat="55.379097" lon="12.091392">
<ele>41.7</ele>
<time>2018-05-27T08:24:06Z</time>
<speed>22.8</speed>
</trkpt>
<trkpt lat="55.379288" lon="12.091532">
<ele>41.6</ele>
<time>2018-05-27T08:24:07Z</time>
<speed>22.8</speed>
</trkpt>
<trkpt lat="55.379486" lon="12.091675">
<ele>40.9</ele>
<time>2018-05-27T08:24:08Z</time>
<speed>22.8</speed>
</trkpt>
<trkpt lat="55.379677" lon="12.091815">
<ele>40.9</ele>
<time>2018-05-27T08:24:09Z</time>
<speed>22.8</speed>
</trkpt>
<trkpt lat="55.379860" lon="12.091952">
<ele>41.3</ele>
<time>2018-05-27T08:24:10Z</time>
<speed>22.2</speed>
</trkpt>
<trkpt lat="55.380064" lon="12.092095">
<ele>41.5</ele>
<time>2018-05-27T08:24:11Z</time>
<speed>22.2</speed>
</trkpt>
<trkpt lat="55.380256" lon="12.092220">
<ele>41.3</ele>
<time>2018-05-27T08:24:12Z</time>
<speed>23.1</speed>
</trkpt>
<trkpt lat="55.380453" lon="12.092344">
<ele>41.9</ele>
<time>2018-05-27T08:24:13Z</time>
<speed>22.8</speed>
</trkpt>
<trkpt lat="55.380651" lon="12.092469">
<ele>42.5</ele>
<time>2018-05-27T08:24:14Z</time>
<speed>22.8</speed>
</trkpt>
<trkpt lat="55.380853" lon="12.092593">
<ele>44.0</ele>
<time>2018-05-27T08:24:15Z</time>
<speed>22.8</speed>
</trkpt>
<trkpt lat="55.381045" lon="12.092699">
<ele>45.0</ele>
<time>2018-05-27T08:24:16Z</time>
<speed>22.8</speed>
</trkpt>
<trkpt lat="55.381243" lon="12.092823">
<ele>45.7</ele>
<time>2018-05-27T08:24:17Z</time>
<speed>22.5</speed>
</trkpt>
<trkpt lat="55.381433" lon="12.092945">
<ele>46.8</ele>
<time>2018-05-27T08:24:18Z</time>
<speed>22.5</speed>
</trkpt>
<trkpt lat="55.381632" lon="12.093054">
<ele>47.3</ele>
<time>2018-05-27T08:24:19Z</time>
<speed>22.5</speed>
</trkpt>
<trkpt lat="55.381824" lon="12.093159">
<ele>48.4</ele>
<time>2018-05-27T08:24:20Z</time>
<speed>22.2</speed>
</trkpt>
<trkpt lat="55.382014" lon="12.093281">
<ele>49.6</ele>
<time>2018-05-27T08:24:21Z</time>
<speed>22.2</speed>
</trkpt>
<trkpt lat="55.382215" lon="12.093374">
<ele>50.0</ele>
<time>2018-05-27T08:24:22Z</time>
<speed>22.8</speed>
</trkpt>
<trkpt lat="55.382406" lon="12.093480">
<ele>51.0</ele>
<time>2018-05-27T08:24:23Z</time>
<speed>22.5</speed>
</trkpt>
<trkpt lat="55.382609" lon="12.093558">
<ele>51.3</ele>
<time>2018-05-27T08:24:24Z</time>
<speed>22.8</speed>
</trkpt>
<trkpt lat="55.382797" lon="12.093649">
<ele>51.4</ele>
<time>2018-05-27T08:24:25Z</time>
<speed>22.5</speed>
</trkpt>
<trkpt lat="55.382994" lon="12.093727">
<ele>50.8</ele>
<time>2018-05-27T08:24:26Z</time>
<speed>22.5</speed>
</trkpt>
<trkpt lat="55.383200" lon="12.093812">
<ele>48.3</ele>
<time>2018-05-27T08:24:27Z</time>
<speed>22.5</speed>
</trkpt>
<trkpt lat="55.383403" lon="12.093881">
<ele>44.9</ele>
<time>2018-05-27T08:24:28Z</time>
<speed>22.5</speed>
</trkpt>
<trkpt lat="55.383597" lon="12.093963">
<ele>42.1</ele>
<time>2018-05-27T08:24:29Z</time>
<speed>22.5</speed>
</trkpt>
<trkpt lat="55.383798" lon="12.094029">
<ele>40.1</ele>
<time>2018-05-27T08:24:30Z</time>
<speed>22.5</speed>
</trkpt>
<trkpt lat="55.383997" lon="12.094110">
<ele>38.1</ele>
<time>2018-05-27T08:24:31Z</time>
<speed>22.5</speed>
</trkpt>
<trkpt lat="55.384184" lon="12.094188">
<ele>35.9</ele>
<time>2018-05-27T08:24:32Z</time>
<speed>22.8</speed>
</trkpt>
<trkpt lat="55.384389" lon="12.094255">
<ele>34.7</ele>
<time>2018-05-27T08:24:33Z</time>
<speed>22.8</speed>
</trkpt>
<trkpt lat="55.384588" lon="12.094317">
<ele>34.0</ele>
<time>2018-05-27T08:24:34Z</time>
<speed>22.8</speed>
</trkpt>
<trkpt lat="55.384789" lon="12.094384">
<ele>32.0</ele>
<time>2018-05-27T08:24:35Z</time>
<speed>22.8</speed>
</trkpt>
<trkpt lat="55.384994" lon="12.094450">
<ele>30.7</ele>
<time>2018-05-27T08:24:36Z</time>
<speed>22.8</speed>
</trkpt>
<trkpt lat="55.385193" lon="12.094512">
<ele>30.1</ele>
<time>2018-05-27T08:24:37Z</time>
<speed>23.1</speed>
</trkpt>
<trkpt lat="55.385394" lon="12.094579">
<ele>28.0</ele>
<time>2018-05-27T08:24:38Z</time>
<speed>23.1</speed>
</trkpt>
<trkpt lat="55.385606" lon="12.094629">
<ele>27.5</ele>
<time>2018-05-27T08:24:39Z</time>
<speed>23.1</speed>
</trkpt>
<trkpt lat="55.385808" lon="12.094680">
<ele>25.3</ele>
<time>2018-05-27T08:24:40Z</time>
<speed>23.1</speed>
</trkpt>
<trkpt lat="55.386021" lon="12.094731">
<ele>24.8</ele>
<time>2018-05-27T08:24:41Z</time>
<speed>23.1</speed>
</trkpt>
<trkpt lat="55.386226" lon="12.094778">
<ele>24.8</ele>
<time>2018-05-27T08:24:42Z</time>
<speed>23.1</speed>
</trkpt>
<trkpt lat="55.386442" lon="12.094817">
<ele>22.8</ele>
<time>2018-05-27T08:24:43Z</time>
<speed>23.1</speed>
</trkpt>
<trkpt lat="55.386647" lon="12.094864">
<ele>22.8</ele>
<time>2018-05-27T08:24:44Z</time>
<speed>23.1</speed>
</trkpt>
<trkpt lat="55.386861" lon="12.094899">
<ele>22.2</ele>
<time>2018-05-27T08:24:45Z</time>
<speed>23.1</speed>
</trkpt>
<trkpt lat="55.387068" lon="12.094931">
<ele>22.1</ele>
<time>2018-05-27T08:24:46Z</time>
<speed>23.1</speed>
</trkpt>
<trkpt lat="55.387281" lon="12.094982">
<ele>21.5</ele>
<time>2018-05-27T08:24:47Z</time>
<speed>23.1</speed>
</trkpt>
<trkpt lat="55.387487" lon="12.095014">
<ele>21.4</ele>
<time>2018-05-27T08:24:48Z</time>
<speed>23.1</speed>
</trkpt>
<trkpt lat="55.387696" lon="12.095030">
<ele>21.2</ele>
<time>2018-05-27T08:24:49Z</time>
<speed>22.8</speed>
</trkpt>
<trkpt lat="55.387902" lon="12.095062">
<ele>21.1</ele>
<time>2018-05-27T08:24:50Z</time>
<speed>23.1</speed>
</trkpt>
<trkpt lat="55.388102" lon="12.095091">
<ele>21.6</ele>
<time>2018-05-27T08:24:51Z</time>
<speed>23.1</speed>
</trkpt>
<trkpt lat="55.388315" lon="12.095108">
<ele>22.2</ele>
<time>2018-05-27T08:24:52Z</time>
<speed>23.1</speed>
</trkpt>
<trkpt lat="55.388522" lon="12.095139">
<ele>22.1</ele>
<time>2018-05-27T08:24:53Z</time>
<speed>23.1</speed>
</trkpt>
<trkpt lat="55.388730" lon="12.095156">
<ele>21.9</ele>
<time>2018-05-27T08:24:54Z</time>
<speed>23.1</speed>
</trkpt>
<trkpt lat="55.388939" lon="12.095173">
<ele>21.7</ele>
<time>2018-05-27T08:24:55Z</time>
<speed>22.8</speed>
</trkpt>
<trkpt lat="55.389149" lon="12.095174">
<ele>21.4</ele>
<time>2018-05-27T08:24:56Z</time>
<speed>22.8</speed>
</trkpt>
<trkpt lat="55.389350" lon="12.095187">
<ele>21.7</ele>
<time>2018-05-27T08:24:57Z</time>
<speed>22.8</speed>
</trkpt>
<trkpt lat="55.389558" lon="12.095203">
<ele>21.5</ele>
<time>2018-05-27T08:24:58Z</time>
<speed>23.1</speed>
</trkpt>
<trkpt lat="55.389768" lon="12.095205">
<ele>21.2</ele>
<time>2018-05-27T08:24:59Z</time>
<speed>23.1</speed>
</trkpt>
<trkpt lat="55.389976" lon="12.095221">
<ele>21.0</ele>
<time>2018-05-27T08:25:00Z</time>
<speed>22.8</speed>
</trkpt>
<trkpt lat="55.390186" lon="12.095222">
<ele>20.6</ele>
<time>2018-05-27T08:25:01Z</time>
<speed>22.8</speed>
</trkpt>
<trkpt lat="55.390394" lon="12.095239">
<ele>20.4</ele>
<time>2018-05-27T08:25:02Z</time>
<speed>23.1</speed>
</trkpt>
<trkpt lat="55.390604" lon="12.095240">
<ele>20.1</ele>
<time>2018-05-27T08:25:03Z</time>
<speed>23.1</speed>
</trkpt>
<trkpt lat="55.390813" lon="12.095256">
<ele>19.9</ele>
<time>2018-05-27T08:25:04Z</time>
<speed>23.1</speed>
</trkpt>
<trkpt lat="55.391028" lon="12.095257">
<ele>20.4</ele>
<time>2018-05-27T08:25:05Z</time>
<speed>23.3</speed>
</trkpt>
<trkpt lat="55.391237" lon="12.095259">
<ele>20.1</ele>
<time>2018-05-27T08:25:06Z</time>
<speed>23.3</speed>
</trkpt>
<trkpt lat="55.391440" lon="12.095256">
<ele>20.3</ele>
<time>2018-05-27T08:25:07Z</time>
<speed>23.6</speed>
</trkpt>
<trkpt lat="55.391648" lon="12.095273">
<ele>20.1</ele>
<time>2018-05-27T08:25:08Z</time>
<speed>23.3</speed>
</trkpt>
<trkpt lat="55.391851" lon="12.095271">
<ele>20.3</ele>
<time>2018-05-27T08:25:09Z</time>
<speed>23.1</speed>
</trkpt>
<trkpt lat="55.392057" lon="12.095284">
<ele>21.5</ele>
<time>2018-05-27T08:25:10Z</time>
<speed>23.1</speed>
</trkpt>
<trkpt lat="55.392267" lon="12.095285">
<ele>21.1</ele>
<time>2018-05-27T08:25:11Z</time>
<speed>23.1</speed>
</trkpt>
<trkpt lat="55.392470" lon="12.095283">
<ele>21.4</ele>
<time>2018-05-27T08:25:12Z</time>
<speed>23.1</speed>
</trkpt>
<trkpt lat="55.392683" lon="12.095299">
<ele>22.0</ele>
<time>2018-05-27T08:25:13Z</time>
<speed>23.1</speed>
</trkpt>
<trkpt lat="55.392886" lon="12.095297">
<ele>22.2</ele>
<time>2018-05-27T08:25:14Z</time>
<speed>23.1</speed>
</trkpt>
<trkpt lat="55.393087" lon="12.095310">
<ele>22.6</ele>
<time>2018-05-27T08:25:15Z</time>
<speed>23.1</speed>
</trkpt>
<trkpt lat="55.393297" lon="12.095311">
<ele>22.2</ele>
<time>2018-05-27T08:25:16Z</time>
<speed>23.1</speed>
</trkpt>
<trkpt lat="55.393499" lon="12.095309">
<ele>22.5</ele>
<time>2018-05-27T08:25:17Z</time>
<speed>22.8</speed>
</trkpt>
<trkpt lat="55.393702" lon="12.095307">
<ele>22.7</ele>
<time>2018-05-27T08:25:18Z</time>
<speed>22.8</speed>
</trkpt>
<trkpt lat="55.393903" lon="12.095320">
<ele>23.0</ele>
<time>2018-05-27T08:25:19Z</time>
<speed>22.8</speed>
</trkpt>
<trkpt lat="55.394113" lon="12.095321">
<ele>22.7</ele>
<time>2018-05-27T08:25:20Z</time>
<speed>22.8</speed>
</trkpt>
<trkpt lat="55.394321" lon="12.095319">
<ele>23.8</ele>
<time>2018-05-27T08:25:21Z</time>
<speed>22.8</speed>
</trkpt>
<trkpt lat="55.394530" lon="12.095320">
<ele>23.4</ele>
<time>2018-05-27T08:25:22Z</time>
<speed>23.1</speed>
</trkpt>
<trkpt lat="55.394732" lon="12.095334">
<ele>23.8</ele>
<time>2018-05-27T08:25:23Z</time>
<speed>23.1</speed>
</trkpt>
<trkpt lat="55.394941" lon="12.095335">
<ele>23.5</ele>
<time>2018-05-27T08:25:24Z</time>
<speed>23.1</speed>
</trkpt>
<trkpt lat="55.395144" lon="12.095332">
<ele>23.7</ele>
<time>2018-05-27T08:25:25Z</time>
<speed>23.1</speed>
</trkpt>
<trkpt lat="55.395359" lon="12.095334">
<ele>24.2</ele>
<time>2018-05-27T08:25:26Z</time>
<speed>23.1</speed>
</trkpt>
<trkpt lat="55.395560" lon="12.095347">
<ele>24.5</ele>
<time>2018-05-27T08:25:27Z</time>
<speed>23.1</speed>
</trkpt>
<trkpt lat="55.395770" lon="12.095348">
<ele>24.2</ele>
<time>2018-05-27T08:25:28Z</time>
<speed>23.1</speed>
</trkpt>
<trkpt lat="55.395971" lon="12.095361">
<ele>24.6</ele>
<time>2018-05-27T08:25:29Z</time>
<speed>23.1</speed>
</trkpt>
<trkpt lat="55.396186" lon="12.095362">
<ele>25.0</ele>
<time>2018-05-27T08:25:30Z</time>
<speed>23.1</speed>
</trkpt>
<trkpt lat="55.396394" lon="12.095379">
<ele>24.8</ele>
<time>2018-05-27T08:25:31Z</time>
<speed>23.1</speed>
</trkpt>
<trkpt lat="55.396603" lon="12.095395">
<ele>24.6</ele>
<time>2018-05-27T08:25:32Z</time>
<speed>23.1</speed>
</trkpt>
<trkpt lat="55.396809" lon="12.095427">
<ele>24.5</ele>
<time>2018-05-27T08:25:33Z</time>
<speed>23.1</speed>
</trkpt>
<trkpt lat="55.397018" lon="12.095444">
<ele>24.3</ele>
<time>2018-05-27T08:25:34Z</time>
<speed>23.1</speed>
</trkpt>
<trkpt lat="55.397224" lon="12.095476">
<ele>24.3</ele>
<time>2018-05-27T08:25:35Z</time>
<speed>23.1</speed>
</trkpt>
<trkpt lat="55.397435" lon="12.095523">
<ele>25.1</ele>
<time>2018-05-27T08:25:36Z</time>
<speed>23.1</speed>
</trkpt>
<trkpt lat="55.397635" lon="12.095571">
<ele>24.3</ele>
<time>2018-05-27T08:25:37Z</time>
<speed>23.1</speed>
</trkpt>
<trkpt lat="55.397840" lon="12.095618">
<ele>24.3</ele>
<time>2018-05-27T08:25:38Z</time>
<speed>23.1</speed>
</trkpt>
<trkpt lat="55.398045" lon="12.095665">
<ele>24.4</ele>
<time>2018-05-27T08:25:39Z</time>
<speed>23.1</speed>
</trkpt>
<trkpt lat="55.398256" lon="12.095732">
<ele>24.0</ele>
<time>2018-05-27T08:25:40Z</time>
<speed>23.1</speed>
</trkpt>
<trkpt lat="55.398460" lon="12.095794">
<ele>24.1</ele>
<time>2018-05-27T08:25:41Z</time>
<speed>23.1</speed>
</trkpt>
<trkpt lat="55.398664" lon="12.095857">
<ele>24.3</ele>
<time>2018-05-27T08:25:42Z</time>
<speed>23.1</speed>
</trkpt>
<trkpt lat="55.398866" lon="12.095935">
<ele>24.5</ele>
<time>2018-05-27T08:25:43Z</time>
<speed>23.1</speed>
</trkpt>
<trkpt lat="55.399068" lon="12.096014">
<ele>24.8</ele>
<time>2018-05-27T08:25:44Z</time>
<speed>23.1</speed>
</trkpt>
<trkpt lat="55.399277" lon="12.096095">
<ele>24.5</ele>
<time>2018-05-27T08:25:45Z</time>
<speed>23.1</speed>
</trkpt>
<trkpt lat="55.399478" lon="12.096189">
<ele>24.9</ele>
<time>2018-05-27T08:25:46Z</time>
<speed>23.1</speed>
</trkpt>
<trkpt lat="55.399678" lon="12.096283">
<ele>25.3</ele>
<time>2018-05-27T08:25:47Z</time>
<speed>23.1</speed>
</trkpt>
<trkpt lat="55.399877" lon="12.096392">
<ele>25.8</ele>
<time>2018-05-27T08:25:48Z</time>
<speed>23.3</speed>
</trkpt>
<trkpt lat="55.400076" lon="12.096501">
<ele>26.3</ele>
<time>2018-05-27T08:25:49Z</time>
<speed>23.1</speed>
</trkpt>
<trkpt lat="55.400275" lon="12.096610">
<ele>26.8</ele>
<time>2018-05-27T08:25:50Z</time>
<speed>23.1</speed>
</trkpt>
<trkpt lat="55.400468" lon="12.096735">
<ele>26.6</ele>
<time>2018-05-27T08:25:51Z</time>
<speed>23.1</speed>
</trkpt>
<trkpt lat="55.400665" lon="12.096859">
<ele>27.3</ele>
<time>2018-05-27T08:25:52Z</time>
<speed>23.1</speed>
</trkpt>
<trkpt lat="55.400858" lon="12.096984">
<ele>27.1</ele>
<time>2018-05-27T08:25:53Z</time>
<speed>22.8</speed>
</trkpt>
<trkpt lat="55.401050" lon="12.097109">
<ele>26.9</ele>
<time>2018-05-27T08:25:54Z</time>
<speed>22.8</speed>
</trkpt>
<trkpt lat="55.401246" lon="12.097249">
<ele>27.6</ele>
<time>2018-05-27T08:25:55Z</time>
<speed>23.1</speed>
</trkpt>
<trkpt lat="55.401438" lon="12.097373">
<ele>27.4</ele>
<time>2018-05-27T08:25:56Z</time>
<speed>23.1</speed>
</trkpt>
<trkpt lat="55.401636" lon="12.097516">
<ele>26.8</ele>
<time>2018-05-27T08:25:57Z</time>
<speed>23.1</speed>
</trkpt>
<trkpt lat="55.401827" lon="12.097656">
<ele>26.7</ele>
<time>2018-05-27T08:25:58Z</time>
<speed>23.1</speed>
</trkpt>
<trkpt lat="55.402025" lon="12.097781">
<ele>27.3</ele>
<time>2018-05-27T08:25:59Z</time>
<speed>23.1</speed>
</trkpt>
<trkpt lat="55.402215" lon="12.097921">
<ele>27.3</ele>
<time>2018-05-27T08:26:00Z</time>
<speed>23.1</speed>
</trkpt>
<trkpt lat="55.402413" lon="12.098046">
<ele>27.9</ele>
<time>2018-05-27T08:26:01Z</time>
<speed>23.1</speed>
</trkpt>
<trkpt lat="55.402605" lon="12.098170">
<ele>27.7</ele>
<time>2018-05-27T08:26:02Z</time>
<speed>23.1</speed>
</trkpt>
<trkpt lat="55.402810" lon="12.098298">
<ele>27.8</ele>
<time>2018-05-27T08:26:03Z</time>
<speed>23.1</speed>
</trkpt>
<trkpt lat="55.403002" lon="12.098423">
<ele>27.6</ele>
<time>2018-05-27T08:26:04Z</time>
<speed>23.1</speed>
</trkpt>
<trkpt lat="55.403195" lon="12.098547">
<ele>27.4</ele>
<time>2018-05-27T08:26:05Z</time>
<speed>23.1</speed>
</trkpt>
<trkpt lat="55.403392" lon="12.098672">
<ele>28.0</ele>
<time>2018-05-27T08:26:06Z</time>
<speed>23.1</speed>
</trkpt>
<trkpt lat="55.403593" lon="12.098784">
<ele>27.1</ele>
<time>2018-05-27T08:26:07Z</time>
<speed>23.1</speed>
</trkpt>
<trkpt lat="55.403786" lon="12.098909">
<ele>27.0</ele>
<time>2018-05-27T08:26:08Z</time>
<speed>23.1</speed>
</trkpt>
<trkpt lat="55.403987" lon="12.099022">
<ele>26.1</ele>
<time>2018-05-27T08:26:09Z</time>
<speed>23.1</speed>
</trkpt>
<trkpt lat="55.404194" lon="12.099119">
<ele>25.9</ele>
<time>2018-05-27T08:26:10Z</time>
<speed>23.1</speed>
</trkpt>
<trkpt lat="55.404396" lon="12.099231">
<ele>25.1</ele>
<time>2018-05-27T08:26:11Z</time>
<speed>23.1</speed>
</trkpt>
<trkpt lat="55.404596" lon="12.099325">
<ele>25.4</ele>
<time>2018-05-27T08:26:12Z</time>
<speed>23.1</speed>
</trkpt>
<trkpt lat="55.404804" lon="12.099422">
<ele>25.3</ele>
<time>2018-05-27T08:26:13Z</time>
<speed>23.1</speed>
</trkpt>
<trkpt lat="55.405007" lon="12.099519">
<ele>24.3</ele>
<time>2018-05-27T08:26:14Z</time>
<speed>23.1</speed>
</trkpt>
<trkpt lat="55.405207" lon="12.099613">
<ele>24.7</ele>
<time>2018-05-27T08:26:15Z</time>
<speed>23.1</speed>
</trkpt>
<trkpt lat="55.405415" lon="12.099710">
<ele>24.5</ele>
<time>2018-05-27T08:26:16Z</time>
<speed>23.1</speed>
</trkpt>
<trkpt lat="55.405617" lon="12.099788">
<ele>24.8</ele>
<time>2018-05-27T08:26:17Z</time>
<speed>23.1</speed>
</trkpt>
<trkpt lat="55.405825" lon="12.099885">
<ele>24.6</ele>
<time>2018-05-27T08:26:18Z</time>
<speed>23.1</speed>
</trkpt>
<trkpt lat="55.406027" lon="12.099963">
<ele>24.9</ele>
<time>2018-05-27T08:26:19Z</time>
<speed>23.1</speed>
</trkpt>
<trkpt lat="55.406238" lon="12.100030">
<ele>24.5</ele>
<time>2018-05-27T08:26:20Z</time>
<speed>23.1</speed>
</trkpt>
<trkpt lat="55.406440" lon="12.100108">
<ele>24.8</ele>
<time>2018-05-27T08:26:21Z</time>
<speed>23.1</speed>
</trkpt>
<trkpt lat="55.406642" lon="12.100186">
<ele>25.0</ele>
<time>2018-05-27T08:26:22Z</time>
<speed>23.1</speed>
</trkpt>
<trkpt lat="55.406853" lon="12.100252">
<ele>24.6</ele>
<time>2018-05-27T08:26:23Z</time>
<speed>23.1</speed>
</trkpt>
<trkpt lat="55.407057" lon="12.100315">
<ele>24.8</ele>
<time>2018-05-27T08:26:24Z</time>
<speed>23.1</speed>
</trkpt>
<trkpt lat="55.407266" lon="12.100378">
<ele>25.8</ele>
<time>2018-05-27T08:26:25Z</time>
<speed>23.1</speed>
</trkpt>
<trkpt lat="55.407469" lon="12.100441">
<ele>25.9</ele>
<time>2018-05-27T08:26:26Z</time>
<speed>23.1</speed>
</trkpt>
<trkpt lat="55.407673" lon="12.100504">
<ele>26.1</ele>
<time>2018-05-27T08:26:27Z</time>
<speed>23.1</speed>
</trkpt>
<trkpt lat="55.407884" lon="12.100570">
<ele>25.7</ele>
<time>2018-05-27T08:26:28Z</time>
<speed>23.1</speed>
</trkpt>
<trkpt lat="55.408089" lon="12.100617">
<ele>25.7</ele>
<time>2018-05-27T08:26:29Z</time>
<speed>23.1</speed>
</trkpt>
<trkpt lat="55.408294" lon="12.100665">
<ele>25.8</ele>
<time>2018-05-27T08:26:30Z</time>
<speed>23.1</speed>
</trkpt>
<trkpt lat="55.408505" lon="12.100731">
<ele>25.4</ele>
<time>2018-05-27T08:26:31Z</time>
<speed>23.1</speed>
</trkpt>
<trkpt lat="55.408712" lon="12.100763">
<ele>25.3</ele>
<time>2018-05-27T08:26:32Z</time>
<speed>23.1</speed>
</trkpt>
<trkpt lat="55.408917" lon="12.100811">
<ele>25.3</ele>
<time>2018-05-27T08:26:33Z</time>
<speed>23.1</speed>
</trkpt>
<trkpt lat="55.409124" lon="12.100843">
<ele>25.2</ele>
<time>2018-05-27T08:26:34Z</time>
<speed>23.1</speed>
</trkpt>
<trkpt lat="55.409331" lon="12.100875">
<ele>25.1</ele>
<time>2018-05-27T08:26:35Z</time>
<speed>23.1</speed>
</trkpt>
<trkpt lat="55.409542" lon="12.100907">
<ele>25.9</ele>
<time>2018-05-27T08:26:36Z</time>
<speed>23.1</speed>
</trkpt>
<trkpt lat="55.409751" lon="12.100923">
<ele>25.7</ele>
<time>2018-05-27T08:26:37Z</time>
<speed>23.1</speed>
</trkpt>
<trkpt lat="55.409957" lon="12.100955">
<ele>25.6</ele>
<time>2018-05-27T08:26:38Z</time>
<speed>23.1</speed>
</trkpt>
<trkpt lat="55.410166" lon="12.100972">
<ele>25.4</ele>
<time>2018-05-27T08:26:39Z</time>
<speed>23.1</speed>
</trkpt>
<trkpt lat="55.410379" lon="12.100988">
<ele>26.0</ele>
<time>2018-05-27T08:26:40Z</time>
<speed>23.1</speed>
</trkpt>
<trkpt lat="55.410588" lon="12.101005">
<ele>25.8</ele>
<time>2018-05-27T08:26:41Z</time>
<speed>23.1</speed>
</trkpt>
<trkpt lat="55.410796" lon="12.101021">
<ele>25.6</ele>
<time>2018-05-27T08:26:42Z</time>
<speed>23.1</speed>
</trkpt>
<trkpt lat="55.410997" lon="12.101035">
<ele>26.0</ele>
<time>2018-05-27T08:26:43Z</time>
<speed>23.1</speed>
</trkpt>
<trkpt lat="55.411205" lon="12.101051">
<ele>25.8</ele>
<time>2018-05-27T08:26:44Z</time>
<speed>23.1</speed>
</trkpt>
<trkpt lat="55.411419" lon="12.101068">
<ele>26.4</ele>
<time>2018-05-27T08:26:45Z</time>
<speed>23.1</speed>
</trkpt>
<trkpt lat="55.411627" lon="12.101084">
<ele>26.2</ele>
<time>2018-05-27T08:26:46Z</time>
<speed>23.1</speed>
</trkpt>
<trkpt lat="55.411828" lon="12.101098">
<ele>26.5</ele>
<time>2018-05-27T08:26:47Z</time>
<speed>23.1</speed>
</trkpt>
<trkpt lat="55.412036" lon="12.101114">
<ele>26.3</ele>
<time>2018-05-27T08:26:48Z</time>
<speed>22.8</speed>
</trkpt>
<trkpt lat="55.412245" lon="12.101131">
<ele>26.1</ele>
<time>2018-05-27T08:26:49Z</time>
<speed>22.8</speed>
</trkpt>
<trkpt lat="55.412446" lon="12.101144">
<ele>26.5</ele>
<time>2018-05-27T08:26:50Z</time>
<speed>22.8</speed>
</trkpt>
<trkpt lat="55.412654" lon="12.101161">
<ele>26.3</ele>
<time>2018-05-27T08:26:51Z</time>
<speed>22.8</speed>
</trkpt>
<trkpt lat="55.412862" lon="12.101177">
<ele>26.1</ele>
<time>2018-05-27T08:26:52Z</time>
<speed>22.8</speed>
</trkpt>
<trkpt lat="55.413069" lon="12.101209">
<ele>26.0</ele>
<time>2018-05-27T08:26:53Z</time>
<speed>22.8</speed>
</trkpt>
<trkpt lat="55.413270" lon="12.101223">
<ele>26.4</ele>
<time>2018-05-27T08:26:54Z</time>
<speed>22.8</speed>
</trkpt>
<trkpt lat="55.413477" lon="12.101255">
<ele>26.3</ele>
<time>2018-05-27T08:26:55Z</time>
<speed>22.8</speed>
</trkpt>
<trkpt lat="55.413676" lon="12.101283">
<ele>26.8</ele>
<time>2018-05-27T08:26:56Z</time>
<speed>22.8</speed>
</trkpt>
<trkpt lat="55.413888" lon="12.101315">
<ele>27.5</ele>
<time>2018-05-27T08:26:57Z</time>
<speed>23.1</speed>
</trkpt>
<trkpt lat="55.414088" lon="12.101344">
<ele>28.0</ele>
<time>2018-05-27T08:26:58Z</time>
<speed>23.1</speed>
</trkpt>
<trkpt lat="55.414293" lon="12.101373">
<ele>29.3</ele>
<time>2018-05-27T08:26:59Z</time>
<speed>23.1</speed>
</trkpt>
<trkpt lat="55.414496" lon="12.101417">
<ele>30.7</ele>
<time>2018-05-27T08:27:00Z</time>
<speed>23.1</speed>
</trkpt>
<trkpt lat="55.414701" lon="12.101464">
<ele>30.7</ele>
<time>2018-05-27T08:27:01Z</time>
<speed>23.1</speed>
</trkpt>
<trkpt lat="55.414906" lon="12.101512">
<ele>30.8</ele>
<time>2018-05-27T08:27:02Z</time>
<speed>23.1</speed>
</trkpt>
<trkpt lat="55.415116" lon="12.101559">
<ele>31.6</ele>
<time>2018-05-27T08:27:03Z</time>
<speed>23.3</speed>
</trkpt>
<trkpt lat="55.415320" lon="12.101622">
<ele>31.8</ele>
<time>2018-05-27T08:27:04Z</time>
<speed>23.1</speed>
</trkpt>
<trkpt lat="55.415522" lon="12.101700">
<ele>32.1</ele>
<time>2018-05-27T08:27:05Z</time>
<speed>23.1</speed>
</trkpt>
<trkpt lat="55.415733" lon="12.101767">
<ele>31.7</ele>
<time>2018-05-27T08:27:06Z</time>
<speed>23.1</speed>
</trkpt>
<trkpt lat="55.415937" lon="12.101830">
<ele>31.8</ele>
<time>2018-05-27T08:27:07Z</time>
<speed>23.1</speed>
</trkpt>
<trkpt lat="55.416141" lon="12.101911">
<ele>30.7</ele>
<time>2018-05-27T08:27:08Z</time>
<speed>23.1</speed>
</trkpt>
<trkpt lat="55.416343" lon="12.101990">
<ele>31.0</ele>
<time>2018-05-27T08:27:09Z</time>
<speed>23.1</speed>
</trkpt>
<trkpt lat="55.416551" lon="12.102087">
<ele>30.8</ele>
<time>2018-05-27T08:27:10Z</time>
<speed>23.1</speed>
</trkpt>
<trkpt lat="55.416751" lon="12.102180">
<ele>31.2</ele>
<time>2018-05-27T08:27:11Z</time>
<speed>23.1</speed>
</trkpt>
<trkpt lat="55.416952" lon="12.102274">
<ele>31.6</ele>
<time>2018-05-27T08:27:12Z</time>
<speed>22.8</speed>
</trkpt>
<trkpt lat="55.417146" lon="12.102383">
<ele>31.3</ele>
<time>2018-05-27T08:27:13Z</time>
<speed>22.2</speed>
</trkpt>
<trkpt lat="55.417325" lon="12.102486">
<ele>32.1</ele>
<time>2018-05-27T08:27:14Z</time>
<speed>21.1</speed>
</trkpt>
<trkpt lat="55.417507" lon="12.102592">
<ele>31.6</ele>
<time>2018-05-27T08:27:15Z</time>
<speed>20.8</speed>
</trkpt>
<trkpt lat="55.417686" lon="12.102694">
<ele>32.4</ele>
<time>2018-05-27T08:27:16Z</time>
<speed>20.8</speed>
</trkpt>
<trkpt lat="55.417861" lon="12.102797">
<ele>32.3</ele>
<time>2018-05-27T08:27:17Z</time>
<speed>20.0</speed>
</trkpt>
<trkpt lat="55.418030" lon="12.102900">
<ele>31.5</ele>
<time>2018-05-27T08:27:18Z</time>
<speed>19.7</speed>
</trkpt>
<trkpt lat="55.418195" lon="12.103014">
<ele>32.1</ele>
<time>2018-05-27T08:27:19Z</time>
<speed>19.7</speed>
</trkpt>
<trkpt lat="55.418365" lon="12.103117">
<ele>31.3</ele>
<time>2018-05-27T08:27:20Z</time>
<speed>19.4</speed>
</trkpt>
<trkpt lat="55.418525" lon="12.103232">
<ele>31.1</ele>
<time>2018-05-27T08:27:21Z</time>
<speed>19.4</speed>
</trkpt>
<trkpt lat="55.418681" lon="12.103347">
<ele>30.1</ele>
<time>2018-05-27T08:27:22Z</time>
<speed>18.6</speed>
</trkpt>
<trkpt lat="55.418841" lon="12.103461">
<ele>30.0</ele>
<time>2018-05-27T08:27:23Z</time>
<speed>18.1</speed>
</trkpt>
<trkpt lat="55.418989" lon="12.103573">
<ele>29.5</ele>
<time>2018-05-27T08:27:24Z</time>
<speed>17.8</speed>
</trkpt>
<trkpt lat="55.419136" lon="12.103700">
<ele>29.2</ele>
<time>2018-05-27T08:27:25Z</time>
<speed>18.1</speed>
</trkpt>
<trkpt lat="55.419291" lon="12.103814">
<ele>28.2</ele>
<time>2018-05-27T08:27:26Z</time>
<speed>18.1</speed>
</trkpt>
<trkpt lat="55.419443" lon="12.103941">
<ele>28.7</ele>
<time>2018-05-27T08:27:27Z</time>
<speed>18.6</speed>
</trkpt>
<trkpt lat="55.419597" lon="12.104071">
<ele>27.8</ele>
<time>2018-05-27T08:27:28Z</time>
<speed>18.9</speed>
</trkpt>
<trkpt lat="55.419756" lon="12.104202">
<ele>27.8</ele>
<time>2018-05-27T08:27:29Z</time>
<speed>19.2</speed>
</trkpt>
<trkpt lat="55.419915" lon="12.104332">
<ele>27.7</ele>
<time>2018-05-27T08:27:30Z</time>
<speed>19.4</speed>
</trkpt>
<trkpt lat="55.420072" lon="12.104477">
<ele>27.8</ele>
<time>2018-05-27T08:27:31Z</time>
<speed>19.4</speed>
</trkpt>
<trkpt lat="55.420236" lon="12.104626">
<ele>27.3</ele>
<time>2018-05-27T08:27:32Z</time>
<speed>20.0</speed>
</trkpt>
<trkpt lat="55.420401" lon="12.104775">
<ele>26.8</ele>
<time>2018-05-27T08:27:33Z</time>
<speed>20.6</speed>
</trkpt>
<trkpt lat="55.420569" lon="12.104940">
<ele>27.3</ele>
<time>2018-05-27T08:27:34Z</time>
<speed>20.8</speed>
</trkpt>
<trkpt lat="55.420732" lon="12.105104">
<ele>26.9</ele>
<time>2018-05-27T08:27:35Z</time>
<speed>21.1</speed>
</trkpt>
<trkpt lat="55.420894" lon="12.105284">
<ele>26.7</ele>
<time>2018-05-27T08:27:36Z</time>
<speed>21.1</speed>
</trkpt>
<trkpt lat="55.421062" lon="12.105448">
<ele>27.1</ele>
<time>2018-05-27T08:27:37Z</time>
<speed>21.4</speed>
</trkpt>
<trkpt lat="55.421229" lon="12.105628">
<ele>27.7</ele>
<time>2018-05-27T08:27:38Z</time>
<speed>21.7</speed>
</trkpt>
<trkpt lat="55.421396" lon="12.105827">
<ele>27.0</ele>
<time>2018-05-27T08:27:39Z</time>
<speed>21.9</speed>
</trkpt>
<trkpt lat="55.421561" lon="12.106022">
<ele>27.7</ele>
<time>2018-05-27T08:27:40Z</time>
<speed>22.2</speed>
</trkpt>
<trkpt lat="55.421728" lon="12.106220">
<ele>27.0</ele>
<time>2018-05-27T08:27:41Z</time>
<speed>22.2</speed>
</trkpt>
<trkpt lat="55.421900" lon="12.106419">
<ele>27.2</ele>
<time>2018-05-27T08:27:42Z</time>
<speed>22.8</speed>
</trkpt>
<trkpt lat="55.422071" lon="12.106633">
<ele>27.4</ele>
<time>2018-05-27T08:27:43Z</time>
<speed>22.8</speed>
</trkpt>
<trkpt lat="55.422237" lon="12.106847">
<ele>26.9</ele>
<time>2018-05-27T08:27:44Z</time>
<speed>23.1</speed>
</trkpt>
<trkpt lat="55.422407" lon="12.107061">
<ele>27.1</ele>
<time>2018-05-27T08:27:45Z</time>
<speed>23.3</speed>
</trkpt>
<trkpt lat="55.422576" lon="12.107291">
<ele>27.5</ele>
<time>2018-05-27T08:27:46Z</time>
<speed>23.3</speed>
</trkpt>
<trkpt lat="55.422740" lon="12.107520">
<ele>27.1</ele>
<time>2018-05-27T08:27:47Z</time>
<speed>23.3</speed>
</trkpt>
<trkpt lat="55.422908" lon="12.107765">
<ele>27.6</ele>
<time>2018-05-27T08:27:48Z</time>
<speed>23.6</speed>
</trkpt>
<trkpt lat="55.423072" lon="12.107995">
<ele>27.1</ele>
<time>2018-05-27T08:27:49Z</time>
<speed>23.6</speed>
</trkpt>
<trkpt lat="55.423240" lon="12.108239">
<ele>27.6</ele>
<time>2018-05-27T08:27:50Z</time>
<speed>23.9</speed>
</trkpt>
<trkpt lat="55.423410" lon="12.108488">
<ele>26.7</ele>
<time>2018-05-27T08:27:51Z</time>
<speed>23.9</speed>
</trkpt>
<trkpt lat="55.423572" lon="12.108733">
<ele>26.4</ele>
<time>2018-05-27T08:27:52Z</time>
<speed>23.6</speed>
</trkpt>
<trkpt lat="55.423740" lon="12.108978">
<ele>26.9</ele>
<time>2018-05-27T08:27:53Z</time>
<speed>23.3</speed>
</trkpt>
<trkpt lat="55.423895" lon="12.109219">
<ele>27.1</ele>
<time>2018-05-27T08:27:54Z</time>
<speed>23.1</speed>
</trkpt>
<trkpt lat="55.424057" lon="12.109464">
<ele>26.8</ele>
<time>2018-05-27T08:27:55Z</time>
<speed>23.1</speed>
</trkpt>
<trkpt lat="55.424213" lon="12.109706">
<ele>27.0</ele>
<time>2018-05-27T08:27:56Z</time>
<speed>23.1</speed>
</trkpt>
<trkpt lat="55.424368" lon="12.109947">
<ele>27.3</ele>
<time>2018-05-27T08:27:57Z</time>
<speed>23.1</speed>
</trkpt>
<trkpt lat="55.424531" lon="12.110192">
<ele>26.9</ele>
<time>2018-05-27T08:27:58Z</time>
<speed>23.1</speed>
</trkpt>
<trkpt lat="55.424686" lon="12.110434">
<ele>27.2</ele>
<time>2018-05-27T08:27:59Z</time>
<speed>23.1</speed>
</trkpt>
<trkpt lat="55.424841" lon="12.110676">
<ele>27.4</ele>
<time>2018-05-27T08:28:00Z</time>
<speed>23.1</speed>
</trkpt>
<trkpt lat="55.425002" lon="12.110917">
<ele>28.5</ele>
<time>2018-05-27T08:28:01Z</time>
<speed>23.1</speed>
</trkpt>
<trkpt lat="55.425157" lon="12.111159">
<ele>28.7</ele>
<time>2018-05-27T08:28:02Z</time>
<speed>23.3</speed>
</trkpt>
<trkpt lat="55.425319" lon="12.111404">
<ele>28.4</ele>
<time>2018-05-27T08:28:03Z</time>
<speed>23.3</speed>
</trkpt>
<trkpt lat="55.425480" lon="12.111645">
<ele>29.4</ele>
<time>2018-05-27T08:28:04Z</time>
<speed>23.3</speed>
</trkpt>
<trkpt lat="55.425642" lon="12.111890">
<ele>29.1</ele>
<time>2018-05-27T08:28:05Z</time>
<speed>23.3</speed>
</trkpt>
<trkpt lat="55.425803" lon="12.112132">
<ele>30.1</ele>
<time>2018-05-27T08:28:06Z</time>
<speed>23.3</speed>
</trkpt>
<trkpt lat="55.425965" lon="12.112377">
<ele>29.8</ele>
<time>2018-05-27T08:28:07Z</time>
<speed>23.3</speed>
</trkpt>
<trkpt lat="55.426127" lon="12.112603">
<ele>30.8</ele>
<time>2018-05-27T08:28:08Z</time>
<speed>23.3</speed>
</trkpt>
<trkpt lat="55.426296" lon="12.112833">
<ele>31.1</ele>
<time>2018-05-27T08:28:09Z</time>
<speed>23.3</speed>
</trkpt>
<trkpt lat="55.426463" lon="12.113059">
<ele>32.9</ele>
<time>2018-05-27T08:28:10Z</time>
<speed>23.3</speed>
</trkpt>
<trkpt lat="55.426625" lon="12.113285">
<ele>33.8</ele>
<time>2018-05-27T08:28:11Z</time>
<speed>23.3</speed>
</trkpt>
<trkpt lat="55.426796" lon="12.113499">
<ele>34.1</ele>
<time>2018-05-27T08:28:12Z</time>
<speed>23.3</speed>
</trkpt>
<trkpt lat="55.426967" lon="12.113713">
<ele>34.4</ele>
<time>2018-05-27T08:28:13Z</time>
<speed>23.3</speed>
</trkpt>
<trkpt lat="55.427144" lon="12.113931">
<ele>34.1</ele>
<time>2018-05-27T08:28:14Z</time>
<speed>23.6</speed>
</trkpt>
<trkpt lat="55.427317" lon="12.114129">
<ele>34.2</ele>
<time>2018-05-27T08:28:15Z</time>
<speed>23.6</speed>
</trkpt>
<trkpt lat="55.427493" lon="12.114344">
<ele>35.3</ele>
<time>2018-05-27T08:28:16Z</time>
<speed>23.6</speed>
</trkpt>
<trkpt lat="55.427665" lon="12.114542">
<ele>35.4</ele>
<time>2018-05-27T08:28:17Z</time>
<speed>23.3</speed>
</trkpt>
<trkpt lat="55.427844" lon="12.114725">
<ele>36.3</ele>
<time>2018-05-27T08:28:18Z</time>
<speed>23.6</speed>
</trkpt>
<trkpt lat="55.428030" lon="12.114912">
<ele>36.6</ele>
<time>2018-05-27T08:28:19Z</time>
<speed>23.6</speed>
</trkpt>
<trkpt lat="55.428204" lon="12.115095">
<ele>36.6</ele>
<time>2018-05-27T08:28:20Z</time>
<speed>23.6</speed>
</trkpt>
<trkpt lat="55.428383" lon="12.115278">
<ele>37.4</ele>
<time>2018-05-27T08:28:21Z</time>
<speed>23.6</speed>
</trkpt>
<trkpt lat="55.428569" lon="12.115465">
<ele>37.7</ele>
<time>2018-05-27T08:28:22Z</time>
<speed>23.6</speed>
</trkpt>
<trkpt lat="55.428749" lon="12.115633">
<ele>38.5</ele>
<time>2018-05-27T08:28:23Z</time>
<speed>23.6</speed>
</trkpt>
<trkpt lat="55.428942" lon="12.115804">
<ele>39.5</ele>
<time>2018-05-27T08:28:24Z</time>
<speed>23.6</speed>
</trkpt>
<trkpt lat="55.429130" lon="12.115975">
<ele>39.6</ele>
<time>2018-05-27T08:28:25Z</time>
<speed>23.6</speed>
</trkpt>
<trkpt lat="55.429317" lon="12.116127">
<ele>41.1</ele>
<time>2018-05-27T08:28:26Z</time>
<speed>23.6</speed>
</trkpt>
<trkpt lat="55.429511" lon="12.116283">
<ele>41.9</ele>
<time>2018-05-27T08:28:27Z</time>
<speed>23.3</speed>
</trkpt>
<trkpt lat="55.429700" lon="12.116438">
<ele>42.0</ele>
<time>2018-05-27T08:28:28Z</time>
<speed>23.3</speed>
</trkpt>
<trkpt lat="55.429895" lon="12.116594">
<ele>42.9</ele>
<time>2018-05-27T08:28:29Z</time>
<speed>23.3</speed>
</trkpt>
<trkpt lat="55.430096" lon="12.116753">
<ele>43.2</ele>
<time>2018-05-27T08:28:30Z</time>
<speed>23.3</speed>
</trkpt>
<trkpt lat="55.430292" lon="12.116893">
<ele>44.0</ele>
<time>2018-05-27T08:28:31Z</time>
<speed>23.3</speed>
</trkpt>
<trkpt lat="55.430495" lon="12.117037">
<ele>44.2</ele>
<time>2018-05-27T08:28:32Z</time>
<speed>23.6</speed>
</trkpt>
<trkpt lat="55.430684" lon="12.117193">
<ele>44.2</ele>
<time>2018-05-27T08:28:33Z</time>
<speed>23.1</speed>
</trkpt>
<trkpt lat="55.430873" lon="12.117329">
<ele>45.5</ele>
<time>2018-05-27T08:28:34Z</time>
<speed>22.5</speed>
</trkpt>
<trkpt lat="55.431064" lon="12.117470">
<ele>45.5</ele>
<time>2018-05-27T08:28:35Z</time>
<speed>23.3</speed>
</trkpt>
<trkpt lat="55.431260" lon="12.117610">
<ele>46.2</ele>
<time>2018-05-27T08:28:36Z</time>
<speed>23.3</speed>
</trkpt>
<trkpt lat="55.431452" lon="12.117735">
<ele>46.0</ele>
<time>2018-05-27T08:28:37Z</time>
<speed>23.1</speed>
</trkpt>
<trkpt lat="55.431651" lon="12.117844">
<ele>46.6</ele>
<time>2018-05-27T08:28:38Z</time>
<speed>23.1</speed>
</trkpt>
<trkpt lat="55.431856" lon="12.117972">
<ele>46.7</ele>
<time>2018-05-27T08:28:39Z</time>
<speed>23.6</speed>
</trkpt>
<trkpt lat="55.432055" lon="12.118081">
<ele>47.2</ele>
<time>2018-05-27T08:28:40Z</time>
<speed>23.3</speed>
</trkpt>
<trkpt lat="55.432255" lon="12.118175">
<ele>47.6</ele>
<time>2018-05-27T08:28:41Z</time>
<speed>23.3</speed>
</trkpt>
<trkpt lat="55.432453" lon="12.118300">
<ele>48.2</ele>
<time>2018-05-27T08:28:42Z</time>
<speed>23.1</speed>
</trkpt>
<trkpt lat="55.432659" lon="12.118413">
<ele>48.2</ele>
<time>2018-05-27T08:28:43Z</time>
<speed>23.3</speed>
</trkpt>
<trkpt lat="55.432868" lon="12.118495">
<ele>47.9</ele>
<time>2018-05-27T08:28:44Z</time>
<speed>23.9</speed>
</trkpt>
<trkpt lat="55.433069" lon="12.118588">
<ele>48.3</ele>
<time>2018-05-27T08:28:45Z</time>
<speed>23.3</speed>
</trkpt>
<trkpt lat="55.433285" lon="12.118674">
<ele>47.5</ele>
<time>2018-05-27T08:28:46Z</time>
<speed>23.3</speed>
</trkpt>
<trkpt lat="55.433496" lon="12.118740">
<ele>47.1</ele>
<time>2018-05-27T08:28:47Z</time>
<speed>23.6</speed>
</trkpt>
<trkpt lat="55.433693" lon="12.118818">
<ele>46.6</ele>
<time>2018-05-27T08:28:48Z</time>
<speed>23.6</speed>
</trkpt>
<trkpt lat="55.433904" lon="12.118885">
<ele>46.2</ele>
<time>2018-05-27T08:28:49Z</time>
<speed>23.3</speed>
</trkpt>
<trkpt lat="55.434115" lon="12.118951">
<ele>45.8</ele>
<time>2018-05-27T08:28:50Z</time>
<speed>23.3</speed>
</trkpt>
<trkpt lat="55.434326" lon="12.119017">
<ele>45.4</ele>
<time>2018-05-27T08:28:51Z</time>
<speed>23.3</speed>
</trkpt>
<trkpt lat="55.434537" lon="12.119084">
<ele>45.0</ele>
<time>2018-05-27T08:28:52Z</time>
<speed>23.3</speed>
</trkpt>
<trkpt lat="55.434749" lon="12.119135">
<ele>44.5</ele>
<time>2018-05-27T08:28:53Z</time>
<speed>23.3</speed>
</trkpt>
<trkpt lat="55.434960" lon="12.119201">
<ele>44.1</ele>
<time>2018-05-27T08:28:54Z</time>
<speed>23.6</speed>
</trkpt>
<trkpt lat="55.435173" lon="12.119252">
<ele>43.6</ele>
<time>2018-05-27T08:28:55Z</time>
<speed>23.6</speed>
</trkpt>
<trkpt lat="55.435378" lon="12.119318">
<ele>42.4</ele>
<time>2018-05-27T08:28:56Z</time>
<speed>23.6</speed>
</trkpt>
<trkpt lat="55.435598" lon="12.119372">
<ele>41.3</ele>
<time>2018-05-27T08:28:57Z</time>
<speed>23.6</speed>
</trkpt>
<trkpt lat="55.435811" lon="12.119423">
<ele>40.8</ele>
<time>2018-05-27T08:28:58Z</time>
<speed>23.6</speed>
</trkpt>
<trkpt lat="55.436023" lon="12.119474">
<ele>40.3</ele>
<time>2018-05-27T08:28:59Z</time>
<speed>23.6</speed>
</trkpt>
<trkpt lat="55.436235" lon="12.119525">
<ele>39.8</ele>
<time>2018-05-27T08:29:00Z</time>
<speed>23.6</speed>
</trkpt>
<trkpt lat="55.436455" lon="12.119579">
<ele>38.8</ele>
<time>2018-05-27T08:29:01Z</time>
<speed>23.6</speed>
</trkpt>
<trkpt lat="55.436662" lon="12.119630">
<ele>37.4</ele>
<time>2018-05-27T08:29:02Z</time>
<speed>23.6</speed>
</trkpt>
<trkpt lat="55.436875" lon="12.119681">
<ele>36.9</ele>
<time>2018-05-27T08:29:03Z</time>
<speed>23.6</speed>
</trkpt>
<trkpt lat="55.437087" lon="12.119732">
<ele>36.4</ele>
<time>2018-05-27T08:29:04Z</time>
<speed>23.6</speed>
</trkpt>
<trkpt lat="55.437300" lon="12.119783">
<ele>35.9</ele>
<time>2018-05-27T08:29:05Z</time>
<speed>23.6</speed>
</trkpt>
<trkpt lat="55.437512" lon="12.119834">
<ele>35.4</ele>
<time>2018-05-27T08:29:06Z</time>
<speed>23.6</speed>
</trkpt>
<trkpt lat="55.437725" lon="12.119885">
<ele>34.9</ele>
<time>2018-05-27T08:29:07Z</time>
<speed>23.3</speed>
</trkpt>
<trkpt lat="55.437930" lon="12.119932">
<ele>34.9</ele>
<time>2018-05-27T08:29:08Z</time>
<speed>23.3</speed>
</trkpt>
<trkpt lat="55.438137" lon="12.119983">
<ele>33.6</ele>
<time>2018-05-27T08:29:09Z</time>
<speed>23.3</speed>
</trkpt>
<trkpt lat="55.438342" lon="12.120031">
<ele>33.7</ele>
<time>2018-05-27T08:29:10Z</time>
<speed>23.1</speed>
</trkpt>
<trkpt lat="55.438555" lon="12.120081">
<ele>33.1</ele>
<time>2018-05-27T08:29:11Z</time>
<speed>23.1</speed>
</trkpt>
<trkpt lat="55.438760" lon="12.120129">
<ele>33.2</ele>
<time>2018-05-27T08:29:12Z</time>
<speed>23.1</speed>
</trkpt>
<trkpt lat="55.438971" lon="12.120195">
<ele>32.8</ele>
<time>2018-05-27T08:29:13Z</time>
<speed>23.3</speed>
</trkpt>
<trkpt lat="55.439176" lon="12.120243">
<ele>32.9</ele>
<time>2018-05-27T08:29:14Z</time>
<speed>23.1</speed>
</trkpt>
<trkpt lat="55.439383" lon="12.120294">
<ele>31.5</ele>
<time>2018-05-27T08:29:15Z</time>
<speed>23.1</speed>
</trkpt>
<trkpt lat="55.439589" lon="12.120341">
<ele>31.6</ele>
<time>2018-05-27T08:29:16Z</time>
<speed>23.1</speed>
</trkpt>
<trkpt lat="55.439801" lon="12.120392">
<ele>31.1</ele>
<time>2018-05-27T08:29:17Z</time>
<speed>23.1</speed>
</trkpt>
<trkpt lat="55.440001" lon="12.120440">
<ele>30.3</ele>
<time>2018-05-27T08:29:18Z</time>
<speed>23.1</speed>
</trkpt>
<trkpt lat="55.440214" lon="12.120491">
<ele>29.8</ele>
<time>2018-05-27T08:29:19Z</time>
<speed>23.1</speed>
</trkpt>
<trkpt lat="55.440417" lon="12.120554">
<ele>30.0</ele>
<time>2018-05-27T08:29:20Z</time>
<speed>23.1</speed>
</trkpt>
<trkpt lat="55.440630" lon="12.120605">
<ele>29.5</ele>
<time>2018-05-27T08:29:21Z</time>
<speed>23.1</speed>
</trkpt>
<trkpt lat="55.440837" lon="12.120656">
<ele>28.1</ele>
<time>2018-05-27T08:29:22Z</time>
<speed>23.1</speed>
</trkpt>
<trkpt lat="55.441042" lon="12.120703">
<ele>28.2</ele>
<time>2018-05-27T08:29:23Z</time>
<speed>23.1</speed>
</trkpt>
<trkpt lat="55.441255" lon="12.120754">
<ele>27.7</ele>
<time>2018-05-27T08:29:24Z</time>
<speed>22.8</speed>
</trkpt>
<trkpt lat="55.441455" lon="12.120802">
<ele>26.9</ele>
<time>2018-05-27T08:29:25Z</time>
<speed>22.8</speed>
</trkpt>
<trkpt lat="55.441660" lon="12.120849">
<ele>26.9</ele>
<time>2018-05-27T08:29:26Z</time>
<speed>22.8</speed>
</trkpt>
<trkpt lat="55.441867" lon="12.120900">
<ele>25.6</ele>
<time>2018-05-27T08:29:27Z</time>
<speed>22.8</speed>
</trkpt>
<trkpt lat="55.442073" lon="12.120948">
<ele>25.7</ele>
<time>2018-05-27T08:29:28Z</time>
<speed>22.8</speed>
</trkpt>
<trkpt lat="55.442278" lon="12.120995">
<ele>25.7</ele>
<time>2018-05-27T08:29:29Z</time>
<speed>22.8</speed>
</trkpt>
<trkpt lat="55.442478" lon="12.121043">
<ele>24.9</ele>
<time>2018-05-27T08:29:30Z</time>
<speed>22.8</speed>
</trkpt>
<trkpt lat="55.442685" lon="12.121075">
<ele>24.9</ele>
<time>2018-05-27T08:29:31Z</time>
<speed>22.8</speed>
</trkpt>
<trkpt lat="55.442897" lon="12.121126">
<ele>24.4</ele>
<time>2018-05-27T08:29:32Z</time>
<speed>22.8</speed>
</trkpt>
<trkpt lat="55.443097" lon="12.121174">
<ele>23.6</ele>
<time>2018-05-27T08:29:33Z</time>
<speed>23.1</speed>
</trkpt>
<trkpt lat="55.443302" lon="12.121221">
<ele>23.6</ele>
<time>2018-05-27T08:29:34Z</time>
<speed>23.1</speed>
</trkpt>
<trkpt lat="55.443515" lon="12.121272">
<ele>23.1</ele>
<time>2018-05-27T08:29:35Z</time>
<speed>23.1</speed>
</trkpt>
<trkpt lat="55.443718" lon="12.121335">
<ele>23.3</ele>
<time>2018-05-27T08:29:36Z</time>
<speed>23.1</speed>
</trkpt>
<trkpt lat="55.443919" lon="12.121383">
<ele>22.5</ele>
<time>2018-05-27T08:29:37Z</time>
<speed>23.1</speed>
</trkpt>
<trkpt lat="55.444124" lon="12.121430">
<ele>22.6</ele>
<time>2018-05-27T08:29:38Z</time>
<speed>23.1</speed>
</trkpt>
<trkpt lat="55.444329" lon="12.121478">
<ele>22.6</ele>
<time>2018-05-27T08:29:39Z</time>
<speed>23.1</speed>
</trkpt>
<trkpt lat="55.444541" lon="12.121529">
<ele>22.1</ele>
<time>2018-05-27T08:29:40Z</time>
<speed>23.1</speed>
</trkpt>
<trkpt lat="55.444745" lon="12.121592">
<ele>22.3</ele>
<time>2018-05-27T08:29:41Z</time>
<speed>23.1</speed>
</trkpt>
<trkpt lat="55.444950" lon="12.121640">
<ele>22.4</ele>
<time>2018-05-27T08:29:42Z</time>
<speed>23.1</speed>
</trkpt>
<trkpt lat="55.445155" lon="12.121687">
<ele>22.4</ele>
<time>2018-05-27T08:29:43Z</time>
<speed>23.1</speed>
</trkpt>
<trkpt lat="55.445368" lon="12.121738">
<ele>21.9</ele>
<time>2018-05-27T08:29:44Z</time>
<speed>23.1</speed>
</trkpt>
<trkpt lat="55.445568" lon="12.121786">
<ele>21.1</ele>
<time>2018-05-27T08:29:45Z</time>
<speed>23.1</speed>
</trkpt>
<trkpt lat="55.445773" lon="12.121833">
<ele>21.2</ele>
<time>2018-05-27T08:29:46Z</time>
<speed>23.1</speed>
</trkpt>
<trkpt lat="55.445978" lon="12.121881">
<ele>21.2</ele>
<time>2018-05-27T08:29:47Z</time>
<speed>23.1</speed>
</trkpt>
<trkpt lat="55.446184" lon="12.121928">
<ele>21.3</ele>
<time>2018-05-27T08:29:48Z</time>
<speed>23.1</speed>
</trkpt>
<trkpt lat="55.446396" lon="12.121979">
<ele>20.8</ele>
<time>2018-05-27T08:29:49Z</time>
<speed>23.1</speed>
</trkpt>
<trkpt lat="55.446601" lon="12.122027">
<ele>20.8</ele>
<time>2018-05-27T08:29:50Z</time>
<speed>23.1</speed>
</trkpt>
<trkpt lat="55.446806" lon="12.122075">
<ele>20.9</ele>
<time>2018-05-27T08:29:51Z</time>
<speed>23.1</speed>
</trkpt>
<trkpt lat="55.447019" lon="12.122125">
<ele>20.4</ele>
<time>2018-05-27T08:29:52Z</time>
<speed>23.1</speed>
</trkpt>
<trkpt lat="55.447224" lon="12.122173">
<ele>20.4</ele>
<time>2018-05-27T08:29:53Z</time>
<speed>23.1</speed>
</trkpt>
<trkpt lat="55.447424" lon="12.122221">
<ele>19.7</ele>
<time>2018-05-27T08:29:54Z</time>
<speed>23.1</speed>
</trkpt>
<trkpt lat="55.447634" lon="12.122268">
<ele>20.5</ele>
<time>2018-05-27T08:29:55Z</time>
<speed>23.1</speed>
</trkpt>
<trkpt lat="55.447840" lon="12.122316">
<ele>20.6</ele>
<time>2018-05-27T08:29:56Z</time>
<speed>23.1</speed>
</trkpt>
<trkpt lat="55.448052" lon="12.122367">
<ele>20.1</ele>
<time>2018-05-27T08:29:57Z</time>
<speed>23.1</speed>
</trkpt>
<trkpt lat="55.448259" lon="12.122399">
<ele>20.0</ele>
<time>2018-05-27T08:29:58Z</time>
<speed>23.1</speed>
</trkpt>
<trkpt lat="55.448464" lon="12.122447">
<ele>20.1</ele>
<time>2018-05-27T08:29:59Z</time>
<speed>23.1</speed>
</trkpt>
<trkpt lat="55.448672" lon="12.122463">
<ele>19.9</ele>
<time>2018-05-27T08:30:00Z</time>
<speed>23.1</speed>
</trkpt>
<trkpt lat="55.448879" lon="12.122495">
<ele>19.8</ele>
<time>2018-05-27T08:30:01Z</time>
<speed>23.1</speed>
</trkpt>
<trkpt lat="55.449087" lon="12.122512">
<ele>19.6</ele>
<time>2018-05-27T08:30:02Z</time>
<speed>23.1</speed>
</trkpt>
<trkpt lat="55.449294" lon="12.122544">
<ele>19.6</ele>
<time>2018-05-27T08:30:03Z</time>
<speed>23.1</speed>
</trkpt>
<trkpt lat="55.449502" lon="12.122561">
<ele>19.4</ele>
<time>2018-05-27T08:30:04Z</time>
<speed>23.1</speed>
</trkpt>
<trkpt lat="55.449704" lon="12.122574">
<ele>19.8</ele>
<time>2018-05-27T08:30:05Z</time>
<speed>23.1</speed>
</trkpt>
<trkpt lat="55.449913" lon="12.122576">
<ele>19.4</ele>
<time>2018-05-27T08:30:06Z</time>
<speed>23.1</speed>
</trkpt>
<trkpt lat="55.450122" lon="12.122592">
<ele>19.3</ele>
<time>2018-05-27T08:30:07Z</time>
<speed>23.1</speed>
</trkpt>
<trkpt lat="55.450332" lon="12.122594">
<ele>19.0</ele>
<time>2018-05-27T08:30:08Z</time>
<speed>23.3</speed>
</trkpt>
<trkpt lat="55.450543" lon="12.122579">
<ele>18.5</ele>
<time>2018-05-27T08:30:09Z</time>
<speed>23.1</speed>
</trkpt>
<trkpt lat="55.450753" lon="12.122581">
<ele>18.2</ele>
<time>2018-05-27T08:30:10Z</time>
<speed>23.1</speed>
</trkpt>
<trkpt lat="55.450964" lon="12.122566">
<ele>17.8</ele>
<time>2018-05-27T08:30:11Z</time>
<speed>23.1</speed>
</trkpt>
<trkpt lat="55.451167" lon="12.122564">
<ele>18.1</ele>
<time>2018-05-27T08:30:12Z</time>
<speed>23.1</speed>
</trkpt>
<trkpt lat="55.451371" lon="12.122547">
<ele>18.2</ele>
<time>2018-05-27T08:30:13Z</time>
<speed>23.1</speed>
</trkpt>
<trkpt lat="55.451584" lon="12.122517">
<ele>17.6</ele>
<time>2018-05-27T08:30:14Z</time>
<speed>23.1</speed>
</trkpt>
<trkpt lat="55.451793" lon="12.122500">
<ele>18.6</ele>
<time>2018-05-27T08:30:15Z</time>
<speed>23.1</speed>
</trkpt>
<trkpt lat="55.451999" lon="12.122467">
<ele>18.6</ele>
<time>2018-05-27T08:30:16Z</time>
<speed>23.1</speed>
</trkpt>
<trkpt lat="55.452203" lon="12.122449">
<ele>18.7</ele>
<time>2018-05-27T08:30:17Z</time>
<speed>22.8</speed>
</trkpt>
<trkpt lat="55.452416" lon="12.122420">
<ele>18.2</ele>
<time>2018-05-27T08:30:18Z</time>
<speed>22.8</speed>
</trkpt>
<trkpt lat="55.452624" lon="12.122371">
<ele>18.1</ele>
<time>2018-05-27T08:30:19Z</time>
<speed>23.1</speed>
</trkpt>
<trkpt lat="55.452838" lon="12.122326">
<ele>17.4</ele>
<time>2018-05-27T08:30:20Z</time>
<speed>23.1</speed>
</trkpt>
<trkpt lat="55.453050" lon="12.122278">
<ele>18.2</ele>
<time>2018-05-27T08:30:21Z</time>
<speed>23.1</speed>
</trkpt>
<trkpt lat="55.453258" lon="12.122229">
<ele>18.1</ele>
<time>2018-05-27T08:30:22Z</time>
<speed>22.8</speed>
</trkpt>
<trkpt lat="55.453463" lon="12.122196">
<ele>18.1</ele>
<time>2018-05-27T08:30:23Z</time>
<speed>23.1</speed>
</trkpt>
<trkpt lat="55.453669" lon="12.122144">
<ele>19.3</ele>
<time>2018-05-27T08:30:24Z</time>
<speed>23.1</speed>
</trkpt>
<trkpt lat="55.453869" lon="12.122093">
<ele>19.8</ele>
<time>2018-05-27T08:30:25Z</time>
<speed>23.1</speed>
</trkpt>
<trkpt lat="55.454080" lon="12.122060">
<ele>20.6</ele>
<time>2018-05-27T08:30:26Z</time>
<speed>23.1</speed>
</trkpt>
<trkpt lat="55.454287" lon="12.122011">
<ele>20.5</ele>
<time>2018-05-27T08:30:27Z</time>
<speed>23.1</speed>
</trkpt>
<trkpt lat="55.454492" lon="12.121960">
<ele>21.8</ele>
<time>2018-05-27T08:30:28Z</time>
<speed>23.1</speed>
</trkpt>
<trkpt lat="55.454699" lon="12.121911">
<ele>21.7</ele>
<time>2018-05-27T08:30:29Z</time>
<speed>23.1</speed>
</trkpt>
<trkpt lat="55.454910" lon="12.121878">
<ele>22.5</ele>
<time>2018-05-27T08:30:30Z</time>
<speed>23.1</speed>
</trkpt>
<trkpt lat="55.455117" lon="12.121830">
<ele>22.4</ele>
<time>2018-05-27T08:30:31Z</time>
<speed>23.1</speed>
</trkpt>
<trkpt lat="55.455328" lon="12.121797">
<ele>23.3</ele>
<time>2018-05-27T08:30:32Z</time>
<speed>23.1</speed>
</trkpt>
<trkpt lat="55.455534" lon="12.121764">
<ele>23.3</ele>
<time>2018-05-27T08:30:33Z</time>
<speed>23.1</speed>
</trkpt>
<trkpt lat="55.455747" lon="12.121734">
<ele>22.7</ele>
<time>2018-05-27T08:30:34Z</time>
<speed>23.1</speed>
</trkpt>
<trkpt lat="55.455958" lon="12.121701">
<ele>23.6</ele>
<time>2018-05-27T08:30:35Z</time>
<speed>23.1</speed>
</trkpt>
<trkpt lat="55.456169" lon="12.121668">
<ele>24.4</ele>
<time>2018-05-27T08:30:36Z</time>
<speed>23.1</speed>
</trkpt>
<trkpt lat="55.456380" lon="12.121654">
<ele>24.0</ele>
<time>2018-05-27T08:30:37Z</time>
<speed>23.1</speed>
</trkpt>
<trkpt lat="55.456586" lon="12.121621">
<ele>24.0</ele>
<time>2018-05-27T08:30:38Z</time>
<speed>23.1</speed>
</trkpt>
<trkpt lat="55.456804" lon="12.121591">
<ele>24.3</ele>
<time>2018-05-27T08:30:39Z</time>
<speed>23.1</speed>
</trkpt>
<trkpt lat="55.457015" lon="12.121577">
<ele>23.9</ele>
<time>2018-05-27T08:30:40Z</time>
<speed>23.1</speed>
</trkpt>
<trkpt lat="55.457228" lon="12.121547">
<ele>23.3</ele>
<time>2018-05-27T08:30:41Z</time>
<speed>23.1</speed>
</trkpt>
<trkpt lat="55.457445" lon="12.121533">
<ele>23.7</ele>
<time>2018-05-27T08:30:42Z</time>
<speed>23.3</speed>
</trkpt>
<trkpt lat="55.457656" lon="12.121519">
<ele>23.3</ele>
<time>2018-05-27T08:30:43Z</time>
<speed>23.3</speed>
</trkpt>
<trkpt lat="55.457860" lon="12.121501">
<ele>23.4</ele>
<time>2018-05-27T08:30:44Z</time>
<speed>23.1</speed>
</trkpt>
<trkpt lat="55.458072" lon="12.121487">
<ele>23.0</ele>
<time>2018-05-27T08:30:45Z</time>
<speed>23.1</speed>
</trkpt>
<trkpt lat="55.458269" lon="12.121485">
<ele>22.5</ele>
<time>2018-05-27T08:30:46Z</time>
<speed>23.1</speed>
</trkpt>
<trkpt lat="55.458479" lon="12.121486">
<ele>22.2</ele>
<time>2018-05-27T08:30:47Z</time>
<speed>23.1</speed>
</trkpt>
<trkpt lat="55.458677" lon="12.121484">
<ele>21.6</ele>
<time>2018-05-27T08:30:48Z</time>
<speed>23.1</speed>
</trkpt>
<trkpt lat="55.458888" lon="12.121470">
<ele>21.2</ele>
<time>2018-05-27T08:30:49Z</time>
<speed>23.1</speed>
</trkpt>
<trkpt lat="55.459098" lon="12.121471">
<ele>20.9</ele>
<time>2018-05-27T08:30:50Z</time>
<speed>23.1</speed>
</trkpt>
<trkpt lat="55.459301" lon="12.121488">
<ele>19.9</ele>
<time>2018-05-27T08:30:51Z</time>
<speed>23.1</speed>
</trkpt>
<trkpt lat="55.459511" lon="12.121489">
<ele>19.6</ele>
<time>2018-05-27T08:30:52Z</time>
<speed>23.1</speed>
</trkpt>
<trkpt lat="55.459721" lon="12.121491">
<ele>19.3</ele>
<time>2018-05-27T08:30:53Z</time>
<speed>23.1</speed>
</trkpt>
<trkpt lat="55.459924" lon="12.121507">
<ele>18.2</ele>
<time>2018-05-27T08:30:54Z</time>
<speed>23.1</speed>
</trkpt>
<trkpt lat="55.460140" lon="12.121527">
<ele>17.5</ele>
<time>2018-05-27T08:30:55Z</time>
<speed>23.1</speed>
</trkpt>
<trkpt lat="55.460348" lon="12.121544">
<ele>17.3</ele>
<time>2018-05-27T08:30:56Z</time>
<speed>23.1</speed>
</trkpt>
<trkpt lat="55.460558" lon="12.121564">
<ele>15.8</ele>
<time>2018-05-27T08:30:57Z</time>
<speed>23.1</speed>
</trkpt>
<trkpt lat="55.460767" lon="12.121581">
<ele>15.6</ele>
<time>2018-05-27T08:30:58Z</time>
<speed>23.1</speed>
</trkpt>
<trkpt lat="55.460973" lon="12.121613">
<ele>15.5</ele>
<time>2018-05-27T08:30:59Z</time>
<speed>23.1</speed>
</trkpt>
<trkpt lat="55.461182" lon="12.121648">
<ele>14.1</ele>
<time>2018-05-27T08:31:00Z</time>
<speed>23.1</speed>
</trkpt>
<trkpt lat="55.461391" lon="12.121665">
<ele>13.9</ele>
<time>2018-05-27T08:31:01Z</time>
<speed>23.1</speed>
</trkpt>
<trkpt lat="55.461596" lon="12.121713">
<ele>14.0</ele>
<time>2018-05-27T08:31:02Z</time>
<speed>22.8</speed>
</trkpt>
<trkpt lat="55.461805" lon="12.121748">
<ele>12.5</ele>
<time>2018-05-27T08:31:03Z</time>
<speed>22.8</speed>
</trkpt>
<trkpt lat="55.462012" lon="12.121780">
<ele>12.5</ele>
<time>2018-05-27T08:31:04Z</time>
<speed>22.8</speed>
</trkpt>
<trkpt lat="55.462213" lon="12.121813">
<ele>11.6</ele>
<time>2018-05-27T08:31:05Z</time>
<speed>22.5</speed>
</trkpt>
<trkpt lat="55.462413" lon="12.121860">
<ele>10.8</ele>
<time>2018-05-27T08:31:06Z</time>
<speed>22.5</speed>
</trkpt>
<trkpt lat="55.462618" lon="12.121908">
<ele>10.9</ele>
<time>2018-05-27T08:31:07Z</time>
<speed>22.5</speed>
</trkpt>
<trkpt lat="55.462819" lon="12.121955">
<ele>10.1</ele>
<time>2018-05-27T08:31:08Z</time>
<speed>22.5</speed>
</trkpt>
<trkpt lat="55.463011" lon="12.122000">
<ele>9.9</ele>
<time>2018-05-27T08:31:09Z</time>
<speed>22.5</speed>
</trkpt>
<trkpt lat="55.463217" lon="12.122047">
<ele>10.0</ele>
<time>2018-05-27T08:31:10Z</time>
<speed>22.5</speed>
</trkpt>
<trkpt lat="55.463417" lon="12.122095">
<ele>9.2</ele>
<time>2018-05-27T08:31:11Z</time>
<speed>22.5</speed>
</trkpt>
<trkpt lat="55.463629" lon="12.122146">
<ele>8.7</ele>
<time>2018-05-27T08:31:12Z</time>
<speed>23.1</speed>
</trkpt>
<trkpt lat="55.463822" lon="12.122190">
<ele>8.5</ele>
<time>2018-05-27T08:31:13Z</time>
<speed>22.5</speed>
</trkpt>
<trkpt lat="55.464021" lon="12.122253">
<ele>7.8</ele>
<time>2018-05-27T08:31:14Z</time>
<speed>22.8</speed>
</trkpt>
<trkpt lat="55.464224" lon="12.122316">
<ele>8.0</ele>
<time>2018-05-27T08:31:15Z</time>
<speed>22.8</speed>
</trkpt>
<trkpt lat="55.464421" lon="12.122395">
<ele>7.5</ele>
<time>2018-05-27T08:31:16Z</time>
<speed>22.8</speed>
</trkpt>
<trkpt lat="55.464625" lon="12.122458">
<ele>7.7</ele>
<time>2018-05-27T08:31:17Z</time>
<speed>22.8</speed>
</trkpt>
<trkpt lat="55.464822" lon="12.122536">
<ele>7.1</ele>
<time>2018-05-27T08:31:18Z</time>
<speed>22.8</speed>
</trkpt>
<trkpt lat="55.465019" lon="12.122615">
<ele>6.6</ele>
<time>2018-05-27T08:31:19Z</time>
<speed>22.8</speed>
</trkpt>
<trkpt lat="55.465223" lon="12.122678">
<ele>6.8</ele>
<time>2018-05-27T08:31:20Z</time>
<speed>22.8</speed>
</trkpt>
<trkpt lat="55.465420" lon="12.122757">
<ele>6.3</ele>
<time>2018-05-27T08:31:21Z</time>
<speed>22.8</speed>
</trkpt>
<trkpt lat="55.465609" lon="12.122832">
<ele>6.3</ele>
<time>2018-05-27T08:31:22Z</time>
<speed>22.5</speed>
</trkpt>
<trkpt lat="55.465811" lon="12.122910">
<ele>6.6</ele>
<time>2018-05-27T08:31:23Z</time>
<speed>22.8</speed>
</trkpt>
<trkpt lat="55.466001" lon="12.122986">
<ele>6.6</ele>
<time>2018-05-27T08:31:24Z</time>
<speed>22.5</speed>
</trkpt>
<trkpt lat="55.466197" lon="12.123080">
<ele>6.2</ele>
<time>2018-05-27T08:31:25Z</time>
<speed>22.5</speed>
</trkpt>
<trkpt lat="55.466399" lon="12.123158">
<ele>6.5</ele>
<time>2018-05-27T08:31:26Z</time>
<speed>22.5</speed>
</trkpt>
<trkpt lat="55.466589" lon="12.123233">
<ele>6.5</ele>
<time>2018-05-27T08:31:27Z</time>
<speed>22.5</speed>
</trkpt>
<trkpt lat="55.466784" lon="12.123327">
<ele>6.1</ele>
<time>2018-05-27T08:31:28Z</time>
<speed>22.8</speed>
</trkpt>
<trkpt lat="55.466985" lon="12.123421">
<ele>6.5</ele>
<time>2018-05-27T08:31:29Z</time>
<speed>22.8</speed>
</trkpt>
<trkpt lat="55.467180" lon="12.123515">
<ele>6.1</ele>
<time>2018-05-27T08:31:30Z</time>
<speed>22.8</speed>
</trkpt>
<trkpt lat="55.467381" lon="12.123609">
<ele>6.6</ele>
<time>2018-05-27T08:31:31Z</time>
<speed>22.8</speed>
</trkpt>
<trkpt lat="55.467576" lon="12.123703">
<ele>6.2</ele>
<time>2018-05-27T08:31:32Z</time>
<speed>22.8</speed>
</trkpt>
<trkpt lat="55.467775" lon="12.123813">
<ele>6.7</ele>
<time>2018-05-27T08:31:33Z</time>
<speed>22.8</speed>
</trkpt>
<trkpt lat="55.467970" lon="12.123907">
<ele>6.3</ele>
<time>2018-05-27T08:31:34Z</time>
<speed>22.8</speed>
</trkpt>
<trkpt lat="55.468169" lon="12.124016">
<ele>6.8</ele>
<time>2018-05-27T08:31:35Z</time>
<speed>22.8</speed>
</trkpt>
<trkpt lat="55.468362" lon="12.124141">
<ele>6.6</ele>
<time>2018-05-27T08:31:36Z</time>
<speed>22.8</speed>
</trkpt>
<trkpt lat="55.468561" lon="12.124251">
<ele>7.2</ele>
<time>2018-05-27T08:31:37Z</time>
<speed>22.8</speed>
</trkpt>
<trkpt lat="55.468755" lon="12.124360">
<ele>6.9</ele>
<time>2018-05-27T08:31:38Z</time>
<speed>22.8</speed>
</trkpt>
<trkpt lat="55.468941" lon="12.124466">
<ele>7.2</ele>
<time>2018-05-27T08:31:39Z</time>
<speed>22.8</speed>
</trkpt>
<trkpt lat="55.469139" lon="12.124591">
<ele>7.8</ele>
<time>2018-05-27T08:31:40Z</time>
<speed>22.8</speed>
</trkpt>
<trkpt lat="55.469331" lon="12.124716">
<ele>7.7</ele>
<time>2018-05-27T08:31:41Z</time>
<speed>22.8</speed>
</trkpt>
<trkpt lat="55.469516" lon="12.124838">
<ele>8.0</ele>
<time>2018-05-27T08:31:42Z</time>
<speed>22.8</speed>
</trkpt>
<trkpt lat="55.469708" lon="12.124963">
<ele>7.9</ele>
<time>2018-05-27T08:31:43Z</time>
<speed>22.8</speed>
</trkpt>
<trkpt lat="55.469906" lon="12.125088">
<ele>8.5</ele>
<time>2018-05-27T08:31:44Z</time>
<speed>22.8</speed>
</trkpt>
<trkpt lat="55.470091" lon="12.125209">
<ele>8.9</ele>
<time>2018-05-27T08:31:45Z</time>
<speed>22.8</speed>
</trkpt>
<trkpt lat="55.470282" lon="12.125350">
<ele>8.9</ele>
<time>2018-05-27T08:31:46Z</time>
<speed>22.8</speed>
</trkpt>
<trkpt lat="55.470473" lon="12.125490">
<ele>8.8</ele>
<time>2018-05-27T08:31:47Z</time>
<speed>22.8</speed>
</trkpt>
<trkpt lat="55.470661" lon="12.125627">
<ele>10.1</ele>
<time>2018-05-27T08:31:48Z</time>
<speed>22.8</speed>
</trkpt>
<trkpt lat="55.470854" lon="12.125752">
<ele>10.0</ele>
<time>2018-05-27T08:31:49Z</time>
<speed>22.8</speed>
</trkpt>
<trkpt lat="55.471037" lon="12.125889">
<ele>10.5</ele>
<time>2018-05-27T08:31:50Z</time>
<speed>22.8</speed>
</trkpt>
<trkpt lat="55.471228" lon="12.126030">
<ele>10.4</ele>
<time>2018-05-27T08:31:51Z</time>
<speed>22.8</speed>
</trkpt>
<trkpt lat="55.471417" lon="12.126186">
<ele>10.5</ele>
<time>2018-05-27T08:31:52Z</time>
<speed>22.8</speed>
</trkpt>
<trkpt lat="55.471601" lon="12.126323">
<ele>11.0</ele>
<time>2018-05-27T08:31:53Z</time>
<speed>22.8</speed>
</trkpt>
<trkpt lat="55.471790" lon="12.126479">
<ele>11.1</ele>
<time>2018-05-27T08:31:54Z</time>
<speed>22.8</speed>
</trkpt>
<trkpt lat="55.471979" lon="12.126634">
<ele>11.2</ele>
<time>2018-05-27T08:31:55Z</time>
<speed>22.8</speed>
</trkpt>
<trkpt lat="55.472161" lon="12.126787">
<ele>11.8</ele>
<time>2018-05-27T08:31:56Z</time>
<speed>22.8</speed>
</trkpt>
<trkpt lat="55.472350" lon="12.126943">
<ele>11.9</ele>
<time>2018-05-27T08:31:57Z</time>
<speed>22.8</speed>
</trkpt>
<trkpt lat="55.472532" lon="12.127095">
<ele>12.5</ele>
<time>2018-05-27T08:31:58Z</time>
<speed>22.8</speed>
</trkpt>
<trkpt lat="55.472720" lon="12.127267">
<ele>12.7</ele>
<time>2018-05-27T08:31:59Z</time>
<speed>22.8</speed>
</trkpt>
<trkpt lat="55.472909" lon="12.127423">
<ele>12.7</ele>
<time>2018-05-27T08:32:00Z</time>
<speed>22.8</speed>
</trkpt>
<trkpt lat="55.473085" lon="12.127591">
<ele>12.7</ele>
<time>2018-05-27T08:32:01Z</time>
<speed>22.8</speed>
</trkpt>
<trkpt lat="55.473272" lon="12.127762">
<ele>12.9</ele>
<time>2018-05-27T08:32:02Z</time>
<speed>22.8</speed>
</trkpt>
<trkpt lat="55.473448" lon="12.127930">
<ele>12.8</ele>
<time>2018-05-27T08:32:03Z</time>
<speed>22.8</speed>
</trkpt>
<trkpt lat="55.473635" lon="12.128101">
<ele>13.0</ele>
<time>2018-05-27T08:32:04Z</time>
<speed>22.8</speed>
</trkpt>
<trkpt lat="55.473811" lon="12.128269">
<ele>12.9</ele>
<time>2018-05-27T08:32:05Z</time>
<speed>22.8</speed>
</trkpt>
<trkpt lat="55.473998" lon="12.128441">
<ele>13.1</ele>
<time>2018-05-27T08:32:06Z</time>
<speed>22.8</speed>
</trkpt>
<trkpt lat="55.474174" lon="12.128609">
<ele>13.0</ele>
<time>2018-05-27T08:32:07Z</time>
<speed>22.8</speed>
</trkpt>
<trkpt lat="55.474355" lon="12.128796">
<ele>12.5</ele>
<time>2018-05-27T08:32:08Z</time>
<speed>22.8</speed>
</trkpt>
<trkpt lat="55.474535" lon="12.128964">
<ele>13.2</ele>
<time>2018-05-27T08:32:09Z</time>
<speed>22.8</speed>
</trkpt>
<trkpt lat="55.474709" lon="12.129147">
<ele>13.3</ele>
<time>2018-05-27T08:32:10Z</time>
<speed>22.8</speed>
</trkpt>
<trkpt lat="55.474890" lon="12.129334">
<ele>12.8</ele>
<time>2018-05-27T08:32:11Z</time>
<speed>22.8</speed>
</trkpt>
<trkpt lat="55.475064" lon="12.129517">
<ele>12.8</ele>
<time>2018-05-27T08:32:12Z</time>
<speed>22.8</speed>
</trkpt>
<trkpt lat="55.475236" lon="12.129716">
<ele>13.0</ele>
<time>2018-05-27T08:32:13Z</time>
<speed>22.8</speed>
</trkpt>
<trkpt lat="55.475403" lon="12.129915">
<ele>12.3</ele>
<time>2018-05-27T08:32:14Z</time>
<speed>22.8</speed>
</trkpt>
<trkpt lat="55.475574" lon="12.130130">
<ele>12.6</ele>
<time>2018-05-27T08:32:15Z</time>
<speed>22.8</speed>
</trkpt>
<trkpt lat="55.475744" lon="12.130344">
<ele>12.9</ele>
<time>2018-05-27T08:32:16Z</time>
<speed>22.8</speed>
</trkpt>
<trkpt lat="55.475910" lon="12.130559">
<ele>12.3</ele>
<time>2018-05-27T08:32:17Z</time>
<speed>22.8</speed>
</trkpt>
<trkpt lat="55.476074" lon="12.130788">
<ele>11.9</ele>
<time>2018-05-27T08:32:18Z</time>
<speed>22.8</speed>
</trkpt>
<trkpt lat="55.476231" lon="12.131015">
<ele>12.0</ele>
<time>2018-05-27T08:32:19Z</time>
<speed>22.8</speed>
</trkpt>
<trkpt lat="55.476388" lon="12.131242">
<ele>12.2</ele>
<time>2018-05-27T08:32:20Z</time>
<speed>22.8</speed>
</trkpt>
<trkpt lat="55.476543" lon="12.131484">
<ele>12.4</ele>
<time>2018-05-27T08:32:21Z</time>
<speed>22.8</speed>
</trkpt>
<trkpt lat="55.476691" lon="12.131741">
<ele>11.9</ele>
<time>2018-05-27T08:32:22Z</time>
<speed>22.8</speed>
</trkpt>
<trkpt lat="55.476833" lon="12.131995">
<ele>12.0</ele>
<time>2018-05-27T08:32:23Z</time>
<speed>22.8</speed>
</trkpt>
<trkpt lat="55.476980" lon="12.132268">
<ele>11.7</ele>
<time>2018-05-27T08:32:24Z</time>
<speed>22.8</speed>
</trkpt>
<trkpt lat="55.477120" lon="12.132538">
<ele>11.9</ele>
<time>2018-05-27T08:32:25Z</time>
<speed>22.8</speed>
</trkpt>
<trkpt lat="55.477254" lon="12.132808">
<ele>11.3</ele>
<time>2018-05-27T08:32:26Z</time>
<speed>22.8</speed>
</trkpt>
<trkpt lat="55.477393" lon="12.133093">
<ele>11.7</ele>
<time>2018-05-27T08:32:27Z</time>
<speed>22.8</speed>
</trkpt>
<trkpt lat="55.477521" lon="12.133378">
<ele>10.3</ele>
<time>2018-05-27T08:32:28Z</time>
<speed>22.8</speed>
</trkpt>
<trkpt lat="55.477645" lon="12.133675">
<ele>10.5</ele>
<time>2018-05-27T08:32:29Z</time>
<speed>23.1</speed>
</trkpt>
<trkpt lat="55.477769" lon="12.133972">
<ele>10.7</ele>
<time>2018-05-27T08:32:30Z</time>
<speed>23.1</speed>
</trkpt>
<trkpt lat="55.477881" lon="12.134266">
<ele>10.6</ele>
<time>2018-05-27T08:32:31Z</time>
<speed>23.1</speed>
</trkpt>
<trkpt lat="55.477999" lon="12.134579">
<ele>10.1</ele>
<time>2018-05-27T08:32:32Z</time>
<speed>22.8</speed>
</trkpt>
<trkpt lat="55.478110" lon="12.134888">
<ele>10.2</ele>
<time>2018-05-27T08:32:33Z</time>
<speed>22.8</speed>
</trkpt>
<trkpt lat="55.478215" lon="12.135198">
<ele>9.4</ele>
<time>2018-05-27T08:32:34Z</time>
<speed>22.8</speed>
</trkpt>
<trkpt lat="55.478317" lon="12.135519">
<ele>10.1</ele>
<time>2018-05-27T08:32:35Z</time>
<speed>22.8</speed>
</trkpt>
<trkpt lat="55.478413" lon="12.135841">
<ele>10.0</ele>
<time>2018-05-27T08:32:36Z</time>
<speed>22.8</speed>
</trkpt>
<trkpt lat="55.478505" lon="12.136162">
<ele>9.0</ele>
<time>2018-05-27T08:32:37Z</time>
<speed>23.1</speed>
</trkpt>
<trkpt lat="55.478600" lon="12.136499">
<ele>9.0</ele>
<time>2018-05-27T08:32:38Z</time>
<speed>23.1</speed>
</trkpt>
<trkpt lat="55.478683" lon="12.136833">
<ele>8.8</ele>
<time>2018-05-27T08:32:39Z</time>
<speed>23.1</speed>
</trkpt>
<trkpt lat="55.478765" lon="12.137167">
<ele>8.5</ele>
<time>2018-05-27T08:32:40Z</time>
<speed>23.1</speed>
</trkpt>
<trkpt lat="55.478839" lon="12.137512">
<ele>8.9</ele>
<time>2018-05-27T08:32:41Z</time>
<speed>23.1</speed>
</trkpt>
<trkpt lat="55.478910" lon="12.137843">
<ele>8.4</ele>
<time>2018-05-27T08:32:42Z</time>
<speed>23.1</speed>
</trkpt>
<trkpt lat="55.478982" lon="12.138204">
<ele>8.9</ele>
<time>2018-05-27T08:32:43Z</time>
<speed>23.1</speed>
</trkpt>
<trkpt lat="55.479036" lon="12.138543">
<ele>9.6</ele>
<time>2018-05-27T08:32:44Z</time>
<speed>23.1</speed>
</trkpt>
<trkpt lat="55.479089" lon="12.138898">
<ele>10.4</ele>
<time>2018-05-27T08:32:45Z</time>
<speed>23.1</speed>
</trkpt>
<trkpt lat="55.479140" lon="12.139268">
<ele>11.3</ele>
<time>2018-05-27T08:32:46Z</time>
<speed>23.1</speed>
</trkpt>
<trkpt lat="55.479188" lon="12.139623">
<ele>11.3</ele>
<time>2018-05-27T08:32:47Z</time>
<speed>23.1</speed>
</trkpt>
<trkpt lat="55.479228" lon="12.139974">
<ele>11.9</ele>
<time>2018-05-27T08:32:48Z</time>
<speed>23.1</speed>
</trkpt>
<trkpt lat="55.479267" lon="12.140341">
<ele>12.5</ele>
<time>2018-05-27T08:32:49Z</time>
<speed>23.1</speed>
</trkpt>
<trkpt lat="55.479303" lon="12.140692">
<ele>12.2</ele>
<time>2018-05-27T08:32:50Z</time>
<speed>23.1</speed>
</trkpt>
<trkpt lat="55.479329" lon="12.141055">
<ele>12.6</ele>
<time>2018-05-27T08:32:51Z</time>
<speed>23.1</speed>
</trkpt>
<trkpt lat="55.479349" lon="12.141416">
<ele>13.6</ele>
<time>2018-05-27T08:32:52Z</time>
<speed>23.6</speed>
</trkpt>
<trkpt lat="55.479366" lon="12.141791">
<ele>14.6</ele>
<time>2018-05-27T08:32:53Z</time>
<speed>24.2</speed>
</trkpt>
<trkpt lat="55.479383" lon="12.142182">
<ele>15.8</ele>
<time>2018-05-27T08:32:54Z</time>
<speed>24.2</speed>
</trkpt>
<trkpt lat="55.479408" lon="12.142561">
<ele>16.3</ele>
<time>2018-05-27T08:32:55Z</time>
<speed>24.7</speed>
</trkpt>
<trkpt lat="55.479424" lon="12.142952">
<ele>17.5</ele>
<time>2018-05-27T08:32:56Z</time>
<speed>24.7</speed>
</trkpt>
<trkpt lat="55.479449" lon="12.143331">
<ele>18.0</ele>
<time>2018-05-27T08:32:57Z</time>
<speed>24.2</speed>
</trkpt>
<trkpt lat="55.479469" lon="12.143710">
<ele>17.7</ele>
<time>2018-05-27T08:32:58Z</time>
<speed>23.9</speed>
</trkpt>
<trkpt lat="55.479494" lon="12.144089">
<ele>18.2</ele>
<time>2018-05-27T08:32:59Z</time>
<speed>23.6</speed>
</trkpt>
<trkpt lat="55.479519" lon="12.144468">
<ele>18.7</ele>
<time>2018-05-27T08:33:00Z</time>
<speed>23.6</speed>
</trkpt>
<trkpt lat="55.479551" lon="12.144831">
<ele>20.0</ele>
<time>2018-05-27T08:33:01Z</time>
<speed>23.6</speed>
</trkpt>
<trkpt lat="55.479577" lon="12.145195">
<ele>20.4</ele>
<time>2018-05-27T08:33:02Z</time>
<speed>23.3</speed>
</trkpt>
<trkpt lat="55.479616" lon="12.145561">
<ele>21.0</ele>
<time>2018-05-27T08:33:03Z</time>
<speed>23.3</speed>
</trkpt>
<trkpt lat="55.479650" lon="12.145928">
<ele>20.9</ele>
<time>2018-05-27T08:33:04Z</time>
<speed>23.1</speed>
</trkpt>
<trkpt lat="55.479690" lon="12.146279">
<ele>21.4</ele>
<time>2018-05-27T08:33:05Z</time>
<speed>23.3</speed>
</trkpt>
<trkpt lat="55.479731" lon="12.146631">
<ele>21.9</ele>
<time>2018-05-27T08:33:06Z</time>
<speed>23.3</speed>
</trkpt>
<trkpt lat="55.479782" lon="12.147001">
<ele>22.9</ele>
<time>2018-05-27T08:33:07Z</time>
<speed>23.3</speed>
</trkpt>
<trkpt lat="55.479830" lon="12.147356">
<ele>22.9</ele>
<time>2018-05-27T08:33:08Z</time>
<speed>23.3</speed>
</trkpt>
<trkpt lat="55.479877" lon="12.147710">
<ele>22.9</ele>
<time>2018-05-27T08:33:09Z</time>
<speed>23.3</speed>
</trkpt>
<trkpt lat="55.479932" lon="12.148068">
<ele>22.3</ele>
<time>2018-05-27T08:33:10Z</time>
<speed>23.6</speed>
</trkpt>
<trkpt lat="55.479985" lon="12.148423">
<ele>23.1</ele>
<time>2018-05-27T08:33:11Z</time>
<speed>23.6</speed>
</trkpt>
<trkpt lat="55.480045" lon="12.148781">
<ele>23.4</ele>
<time>2018-05-27T08:33:12Z</time>
<speed>23.9</speed>
</trkpt>
<trkpt lat="55.480103" lon="12.149154">
<ele>23.7</ele>
<time>2018-05-27T08:33:13Z</time>
<speed>24.2</speed>
</trkpt>
<trkpt lat="55.480162" lon="12.149528">
<ele>24.1</ele>
<time>2018-05-27T08:33:14Z</time>
<speed>24.4</speed>
</trkpt>
<trkpt lat="55.480224" lon="12.149889">
<ele>23.0</ele>
<time>2018-05-27T08:33:15Z</time>
<speed>24.4</speed>
</trkpt>
<trkpt lat="55.480288" lon="12.150262">
<ele>24.2</ele>
<time>2018-05-27T08:33:16Z</time>
<speed>24.4</speed>
</trkpt>
<trkpt lat="55.480355" lon="12.150624">
<ele>23.9</ele>
<time>2018-05-27T08:33:17Z</time>
<speed>24.2</speed>
</trkpt>
<trkpt lat="55.480434" lon="12.150988">
<ele>23.9</ele>
<time>2018-05-27T08:33:18Z</time>
<speed>24.2</speed>
</trkpt>
<trkpt lat="55.480507" lon="12.151350">
<ele>24.4</ele>
<time>2018-05-27T08:33:19Z</time>
<speed>24.2</speed>
</trkpt>
<trkpt lat="55.480591" lon="12.151714">
<ele>25.2</ele>
<time>2018-05-27T08:33:20Z</time>
<speed>24.2</speed>
</trkpt>
<trkpt lat="55.480672" lon="12.152063">
<ele>25.1</ele>
<time>2018-05-27T08:33:21Z</time>
<speed>24.2</speed>
</trkpt>
<trkpt lat="55.480754" lon="12.152413">
<ele>24.9</ele>
<time>2018-05-27T08:33:22Z</time>
<speed>23.9</speed>
</trkpt>
<trkpt lat="55.480842" lon="12.152765">
<ele>24.2</ele>
<time>2018-05-27T08:33:23Z</time>
<speed>23.6</speed>
</trkpt>
<trkpt lat="55.480930" lon="12.153099">
<ele>24.8</ele>
<time>2018-05-27T08:33:24Z</time>
<speed>23.6</speed>
</trkpt>
<trkpt lat="55.481020" lon="12.153436">
<ele>24.0</ele>
<time>2018-05-27T08:33:25Z</time>
<speed>23.3</speed>
</trkpt>
<trkpt lat="55.481107" lon="12.153770">
<ele>24.6</ele>
<time>2018-05-27T08:33:26Z</time>
<speed>23.3</speed>
</trkpt>
<trkpt lat="55.481204" lon="12.154091">
<ele>24.4</ele>
<time>2018-05-27T08:33:27Z</time>
<speed>23.1</speed>
</trkpt>
<trkpt lat="55.481293" lon="12.154410">
<ele>24.9</ele>
<time>2018-05-27T08:33:28Z</time>
<speed>23.1</speed>
</trkpt>
<trkpt lat="55.481397" lon="12.154735">
<ele>24.2</ele>
<time>2018-05-27T08:33:29Z</time>
<speed>22.8</speed>
</trkpt>
<trkpt lat="55.481493" lon="12.155056">
<ele>24.1</ele>
<time>2018-05-27T08:33:30Z</time>
<speed>22.8</speed>
</trkpt>
<trkpt lat="55.481590" lon="12.155378">
<ele>24.0</ele>
<time>2018-05-27T08:33:31Z</time>
<speed>22.8</speed>
</trkpt>
<trkpt lat="55.481693" lon="12.155684">
<ele>24.6</ele>
<time>2018-05-27T08:33:32Z</time>
<speed>22.8</speed>
</trkpt>
<trkpt lat="55.481790" lon="12.156005">
<ele>24.5</ele>
<time>2018-05-27T08:33:33Z</time>
<speed>22.8</speed>
</trkpt>
<trkpt lat="55.481893" lon="12.156312">
<ele>25.1</ele>
<time>2018-05-27T08:33:34Z</time>
<speed>22.8</speed>
</trkpt>
<trkpt lat="55.481998" lon="12.156621">
<ele>24.3</ele>
<time>2018-05-27T08:33:35Z</time>
<speed>22.8</speed>
</trkpt>
<trkpt lat="55.482101" lon="12.156927">
<ele>24.9</ele>
<time>2018-05-27T08:33:36Z</time>
<speed>22.8</speed>
</trkpt>
<trkpt lat="55.482213" lon="12.157221">
<ele>24.8</ele>
<time>2018-05-27T08:33:37Z</time>
<speed>22.8</speed>
</trkpt>
<trkpt lat="55.482324" lon="12.157531">
<ele>24.9</ele>
<time>2018-05-27T08:33:38Z</time>
<speed>22.8</speed>
</trkpt>
<trkpt lat="55.482436" lon="12.157825">
<ele>24.8</ele>
<time>2018-05-27T08:33:39Z</time>
<speed>22.8</speed>
</trkpt>
<trkpt lat="55.482551" lon="12.158134">
<ele>25.6</ele>
<time>2018-05-27T08:33:40Z</time>
<speed>22.8</speed>
</trkpt>
<trkpt lat="55.482671" lon="12.158432">
<ele>25.0</ele>
<time>2018-05-27T08:33:41Z</time>
<speed>22.8</speed>
</trkpt>
<trkpt lat="55.482788" lon="12.158726">
<ele>25.8</ele>
<time>2018-05-27T08:33:42Z</time>
<speed>23.1</speed>
</trkpt>
<trkpt lat="55.482907" lon="12.159023">
<ele>25.1</ele>
<time>2018-05-27T08:33:43Z</time>
<speed>23.3</speed>
</trkpt>
<trkpt lat="55.483031" lon="12.159320">
<ele>25.3</ele>
<time>2018-05-27T08:33:44Z</time>
<speed>23.3</speed>
</trkpt>
<trkpt lat="55.483163" lon="12.159621">
<ele>25.0</ele>
<time>2018-05-27T08:33:45Z</time>
<speed>23.3</speed>
</trkpt>
<trkpt lat="55.483289" lon="12.159903">
<ele>25.0</ele>
<time>2018-05-27T08:33:46Z</time>
<speed>23.3</speed>
</trkpt>
<trkpt lat="55.483425" lon="12.160204">
<ele>25.5</ele>
<time>2018-05-27T08:33:47Z</time>
<speed>23.3</speed>
</trkpt>
<trkpt lat="55.483563" lon="12.160489">
<ele>25.8</ele>
<time>2018-05-27T08:33:48Z</time>
<speed>23.3</speed>
</trkpt>
<trkpt lat="55.483709" lon="12.160778">
<ele>25.6</ele>
<time>2018-05-27T08:33:49Z</time>
<speed>23.3</speed>
</trkpt>
<trkpt lat="55.483843" lon="12.161047">
<ele>25.0</ele>
<time>2018-05-27T08:33:50Z</time>
<speed>23.3</speed>
</trkpt>
<trkpt lat="55.483982" lon="12.161333">
<ele>25.4</ele>
<time>2018-05-27T08:33:51Z</time>
<speed>23.3</speed>
</trkpt>
<trkpt lat="55.484121" lon="12.161602">
<ele>25.6</ele>
<time>2018-05-27T08:33:52Z</time>
<speed>23.1</speed>
</trkpt>
<trkpt lat="55.484263" lon="12.161875">
<ele>24.4</ele>
<time>2018-05-27T08:33:53Z</time>
<speed>23.1</speed>
</trkpt>
<trkpt lat="55.484404" lon="12.162130">
<ele>24.5</ele>
<time>2018-05-27T08:33:54Z</time>
<speed>23.1</speed>
</trkpt>
<trkpt lat="55.484553" lon="12.162387">
<ele>24.1</ele>
<time>2018-05-27T08:33:55Z</time>
<speed>23.1</speed>
</trkpt>
<trkpt lat="55.484700" lon="12.162661">
<ele>23.8</ele>
<time>2018-05-27T08:33:56Z</time>
<speed>23.1</speed>
</trkpt>
<trkpt lat="55.484841" lon="12.162915">
<ele>23.9</ele>
<time>2018-05-27T08:33:57Z</time>
<speed>23.1</speed>
</trkpt>
<trkpt lat="55.484996" lon="12.163157">
<ele>24.1</ele>
<time>2018-05-27T08:33:58Z</time>
<speed>23.1</speed>
</trkpt>
<trkpt lat="55.485145" lon="12.163415">
<ele>23.7</ele>
<time>2018-05-27T08:33:59Z</time>
<speed>23.1</speed>
</trkpt>
<trkpt lat="55.485307" lon="12.163660">
<ele>23.4</ele>
<time>2018-05-27T08:34:00Z</time>
<speed>23.1</speed>
</trkpt>
<trkpt lat="55.485457" lon="12.163903">
<ele>22.8</ele>
<time>2018-05-27T08:34:01Z</time>
<speed>23.1</speed>
</trkpt>
<trkpt lat="55.485625" lon="12.164148">
<ele>23.3</ele>
<time>2018-05-27T08:34:02Z</time>
<speed>22.8</speed>
</trkpt>
<trkpt lat="55.485780" lon="12.164390">
<ele>23.6</ele>
<time>2018-05-27T08:34:03Z</time>
<speed>22.8</speed>
</trkpt>
<trkpt lat="55.485944" lon="12.164620">
<ele>23.2</ele>
<time>2018-05-27T08:34:04Z</time>
<speed>23.3</speed>
</trkpt>
<trkpt lat="55.486113" lon="12.164851">
<ele>23.6</ele>
<time>2018-05-27T08:34:05Z</time>
<speed>23.1</speed>
</trkpt>
<trkpt lat="55.486276" lon="12.165096">
<ele>23.3</ele>
<time>2018-05-27T08:34:06Z</time>
<speed>23.1</speed>
</trkpt>
<trkpt lat="55.486440" lon="12.165326">
<ele>22.9</ele>
<time>2018-05-27T08:34:07Z</time>
<speed>23.1</speed>
</trkpt>
<trkpt lat="55.486603" lon="12.165537">
<ele>23.7</ele>
<time>2018-05-27T08:34:08Z</time>
<speed>23.1</speed>
</trkpt>
<trkpt lat="55.486768" lon="12.165752">
<ele>23.2</ele>
<time>2018-05-27T08:34:09Z</time>
<speed>22.8</speed>
</trkpt>
<trkpt lat="55.486939" lon="12.165967">
<ele>23.5</ele>
<time>2018-05-27T08:34:10Z</time>
<speed>22.8</speed>
</trkpt>
<trkpt lat="55.487110" lon="12.166181">
<ele>23.8</ele>
<time>2018-05-27T08:34:11Z</time>
<speed>22.8</speed>
</trkpt>
<trkpt lat="55.487289" lon="12.166384">
<ele>23.4</ele>
<time>2018-05-27T08:34:12Z</time>
<speed>22.8</speed>
</trkpt>
<trkpt lat="55.487456" lon="12.166583">
<ele>22.7</ele>
<time>2018-05-27T08:34:13Z</time>
<speed>22.8</speed>
</trkpt>
<trkpt lat="55.487628" lon="12.166782">
<ele>22.9</ele>
<time>2018-05-27T08:34:14Z</time>
<speed>22.8</speed>
</trkpt>
<trkpt lat="55.487800" lon="12.166981">
<ele>23.1</ele>
<time>2018-05-27T08:34:15Z</time>
<speed>22.8</speed>
</trkpt>
<trkpt lat="55.487974" lon="12.167165">
<ele>23.1</ele>
<time>2018-05-27T08:34:16Z</time>
<speed>22.8</speed>
</trkpt>
<trkpt lat="55.488154" lon="12.167368">
<ele>22.7</ele>
<time>2018-05-27T08:34:17Z</time>
<speed>22.8</speed>
</trkpt>
<trkpt lat="55.488327" lon="12.167551">
<ele>22.8</ele>
<time>2018-05-27T08:34:18Z</time>
<speed>22.8</speed>
</trkpt>
<trkpt lat="55.488515" lon="12.167723">
<ele>23.0</ele>
<time>2018-05-27T08:34:19Z</time>
<speed>22.8</speed>
</trkpt>
<trkpt lat="55.488689" lon="12.167907">
<ele>23.0</ele>
<time>2018-05-27T08:34:20Z</time>
<speed>22.8</speed>
</trkpt>
<trkpt lat="55.488876" lon="12.168078">
<ele>23.2</ele>
<time>2018-05-27T08:34:21Z</time>
<speed>22.8</speed>
</trkpt>
<trkpt lat="55.489064" lon="12.168250">
<ele>23.4</ele>
<time>2018-05-27T08:34:22Z</time>
<speed>22.8</speed>
</trkpt>
<trkpt lat="55.489241" lon="12.168403">
<ele>23.2</ele>
<time>2018-05-27T08:34:23Z</time>
<speed>22.8</speed>
</trkpt>
<trkpt lat="55.489428" lon="12.168574">
<ele>23.4</ele>
<time>2018-05-27T08:34:24Z</time>
<speed>22.8</speed>
</trkpt>
<trkpt lat="55.489612" lon="12.168730">
<ele>22.7</ele>
<time>2018-05-27T08:34:25Z</time>
<speed>23.1</speed>
</trkpt>
<trkpt lat="55.489802" lon="12.168887">
<ele>22.8</ele>
<time>2018-05-27T08:34:26Z</time>
<speed>23.1</speed>
</trkpt>
<trkpt lat="55.489996" lon="12.169043">
<ele>23.7</ele>
<time>2018-05-27T08:34:27Z</time>
<speed>23.1</speed>
</trkpt>
<trkpt lat="55.490185" lon="12.169199">
<ele>23.8</ele>
<time>2018-05-27T08:34:28Z</time>
<speed>23.1</speed>
</trkpt>
<trkpt lat="55.490376" lon="12.169340">
<ele>23.7</ele>
<time>2018-05-27T08:34:29Z</time>
<speed>23.3</speed>
</trkpt>
<trkpt lat="55.490572" lon="12.169480">
<ele>24.5</ele>
<time>2018-05-27T08:34:30Z</time>
<speed>23.3</speed>
</trkpt>
<trkpt lat="55.490762" lon="12.169621">
<ele>24.5</ele>
<time>2018-05-27T08:34:31Z</time>
<speed>23.3</speed>
</trkpt>
<trkpt lat="55.490958" lon="12.169762">
<ele>25.3</ele>
<time>2018-05-27T08:34:32Z</time>
<speed>23.3</speed>
</trkpt>
<trkpt lat="55.491149" lon="12.169902">
<ele>25.2</ele>
<time>2018-05-27T08:34:33Z</time>
<speed>23.3</speed>
</trkpt>
<trkpt lat="55.491354" lon="12.170031">
<ele>25.3</ele>
<time>2018-05-27T08:34:34Z</time>
<speed>23.3</speed>
</trkpt>
<trkpt lat="55.491551" lon="12.170156">
<ele>26.0</ele>
<time>2018-05-27T08:34:35Z</time>
<speed>23.3</speed>
</trkpt>
<trkpt lat="55.491752" lon="12.170269">
<ele>25.2</ele>
<time>2018-05-27T08:34:36Z</time>
<speed>23.3</speed>
</trkpt>
<trkpt lat="55.491951" lon="12.170379">
<ele>25.7</ele>
<time>2018-05-27T08:34:37Z</time>
<speed>23.3</speed>
</trkpt>
<trkpt lat="55.492157" lon="12.170492">
<ele>25.7</ele>
<time>2018-05-27T08:34:38Z</time>
<speed>23.6</speed>
</trkpt>
<trkpt lat="55.492360" lon="12.170590">
<ele>24.8</ele>
<time>2018-05-27T08:34:39Z</time>
<speed>23.3</speed>
</trkpt>
<trkpt lat="55.492556" lon="12.170703">
<ele>23.1</ele>
<time>2018-05-27T08:34:40Z</time>
<speed>23.3</speed>
</trkpt>
<trkpt lat="55.492763" lon="12.170800">
<ele>23.0</ele>
<time>2018-05-27T08:34:41Z</time>
<speed>23.3</speed>
</trkpt>
<trkpt lat="55.492968" lon="12.170883">
<ele>21.9</ele>
<time>2018-05-27T08:34:42Z</time>
<speed>23.6</speed>
</trkpt>
<trkpt lat="55.493170" lon="12.170980">
<ele>21.0</ele>
<time>2018-05-27T08:34:43Z</time>
<speed>23.3</speed>
</trkpt>
<trkpt lat="55.493378" lon="12.171078">
<ele>20.9</ele>
<time>2018-05-27T08:34:44Z</time>
<speed>23.3</speed>
</trkpt>
<trkpt lat="55.493581" lon="12.171176">
<ele>19.9</ele>
<time>2018-05-27T08:34:45Z</time>
<speed>23.3</speed>
</trkpt>
<trkpt lat="55.493783" lon="12.171273">
<ele>19.0</ele>
<time>2018-05-27T08:34:46Z</time>
<speed>23.3</speed>
</trkpt>
<trkpt lat="55.493980" lon="12.171352">
<ele>18.5</ele>
<time>2018-05-27T08:34:47Z</time>
<speed>23.3</speed>
</trkpt>
<trkpt lat="55.494183" lon="12.171450">
<ele>17.5</ele>
<time>2018-05-27T08:34:48Z</time>
<speed>23.3</speed>
</trkpt>
<trkpt lat="55.494386" lon="12.171547">
<ele>16.6</ele>
<time>2018-05-27T08:34:49Z</time>
<speed>23.1</speed>
</trkpt>
<trkpt lat="55.494588" lon="12.171645">
<ele>15.6</ele>
<time>2018-05-27T08:34:50Z</time>
<speed>23.1</speed>
</trkpt>
<trkpt lat="55.494784" lon="12.171739">
<ele>15.2</ele>
<time>2018-05-27T08:34:51Z</time>
<speed>23.1</speed>
</trkpt>
<trkpt lat="55.494993" lon="12.171822">
<ele>15.0</ele>
<time>2018-05-27T08:34:52Z</time>
<speed>23.1</speed>
</trkpt>
<trkpt lat="55.495188" lon="12.171916">
<ele>14.6</ele>
<time>2018-05-27T08:34:53Z</time>
<speed>23.1</speed>
</trkpt>
<trkpt lat="55.495391" lon="12.172013">
<ele>13.6</ele>
<time>2018-05-27T08:34:54Z</time>
<speed>23.1</speed>
</trkpt>
<trkpt lat="55.495592" lon="12.172108">
<ele>14.1</ele>
<time>2018-05-27T08:34:55Z</time>
<speed>23.1</speed>
</trkpt>
<trkpt lat="55.495794" lon="12.172205">
<ele>13.1</ele>
<time>2018-05-27T08:34:56Z</time>
<speed>23.1</speed>
</trkpt>
<trkpt lat="55.495991" lon="12.172284">
<ele>12.6</ele>
<time>2018-05-27T08:34:57Z</time>
<speed>23.1</speed>
</trkpt>
<trkpt lat="55.496192" lon="12.172379">
<ele>13.0</ele>
<time>2018-05-27T08:34:58Z</time>
<speed>23.1</speed>
</trkpt>
<trkpt lat="55.496399" lon="12.172476">
<ele>12.9</ele>
<time>2018-05-27T08:34:59Z</time>
<speed>23.1</speed>
</trkpt>
<trkpt lat="55.496596" lon="12.172555">
<ele>12.4</ele>
<time>2018-05-27T08:35:00Z</time>
<speed>22.8</speed>
</trkpt>
<trkpt lat="55.496797" lon="12.172649">
<ele>12.8</ele>
<time>2018-05-27T08:35:01Z</time>
<speed>22.8</speed>
</trkpt>
<trkpt lat="55.496997" lon="12.172744">
<ele>13.3</ele>
<time>2018-05-27T08:35:02Z</time>
<speed>22.8</speed>
</trkpt>
<trkpt lat="55.497212" lon="12.172826">
<ele>13.9</ele>
<time>2018-05-27T08:35:03Z</time>
<speed>23.1</speed>
</trkpt>
<trkpt lat="55.497412" lon="12.172920">
<ele>14.3</ele>
<time>2018-05-27T08:35:04Z</time>
<speed>23.1</speed>
</trkpt>
<trkpt lat="55.497613" lon="12.173015">
<ele>14.7</ele>
<time>2018-05-27T08:35:05Z</time>
<speed>23.1</speed>
</trkpt>
<trkpt lat="55.497813" lon="12.173109">
<ele>15.2</ele>
<time>2018-05-27T08:35:06Z</time>
<speed>23.1</speed>
</trkpt>
<trkpt lat="55.498021" lon="12.173207">
<ele>15.0</ele>
<time>2018-05-27T08:35:07Z</time>
<speed>23.1</speed>
</trkpt>
<trkpt lat="55.498223" lon="12.173285">
<ele>15.3</ele>
<time>2018-05-27T08:35:08Z</time>
<speed>23.1</speed>
</trkpt>
<trkpt lat="55.498431" lon="12.173383">
<ele>15.2</ele>
<time>2018-05-27T08:35:09Z</time>
<speed>23.1</speed>
</trkpt>
<trkpt lat="55.498636" lon="12.173477">
<ele>16.5</ele>
<time>2018-05-27T08:35:10Z</time>
<speed>23.1</speed>
</trkpt>
<trkpt lat="55.498838" lon="12.173556">
<ele>16.8</ele>
<time>2018-05-27T08:35:11Z</time>
<speed>23.1</speed>
</trkpt>
<trkpt lat="55.499039" lon="12.173651">
<ele>17.2</ele>
<time>2018-05-27T08:35:12Z</time>
<speed>23.1</speed>
</trkpt>
<trkpt lat="55.499247" lon="12.173748">
<ele>17.1</ele>
<time>2018-05-27T08:35:13Z</time>
<speed>23.3</speed>
</trkpt>
<trkpt lat="55.499447" lon="12.173843">
<ele>17.5</ele>
<time>2018-05-27T08:35:14Z</time>
<speed>23.3</speed>
</trkpt>
<trkpt lat="55.499656" lon="12.173925">
<ele>17.3</ele>
<time>2018-05-27T08:35:15Z</time>
<speed>23.3</speed>
</trkpt>
<trkpt lat="55.499857" lon="12.174019">
<ele>17.7</ele>
<time>2018-05-27T08:35:16Z</time>
<speed>23.3</speed>
</trkpt>
<trkpt lat="55.500052" lon="12.174114">
<ele>17.3</ele>
<time>2018-05-27T08:35:17Z</time>
<speed>23.1</speed>
</trkpt>
<trkpt lat="55.500253" lon="12.174208">
<ele>17.8</ele>
<time>2018-05-27T08:35:18Z</time>
<speed>23.1</speed>
</trkpt>
<trkpt lat="55.500461" lon="12.174306">
<ele>17.6</ele>
<time>2018-05-27T08:35:19Z</time>
<speed>23.1</speed>
</trkpt>
<trkpt lat="55.500656" lon="12.174400">
<ele>17.3</ele>
<time>2018-05-27T08:35:20Z</time>
<speed>23.1</speed>
</trkpt>
<trkpt lat="55.500858" lon="12.174479">
<ele>17.6</ele>
<time>2018-05-27T08:35:21Z</time>
<speed>23.1</speed>
</trkpt>
<trkpt lat="55.501066" lon="12.174576">
<ele>17.4</ele>
<time>2018-05-27T08:35:22Z</time>
<speed>23.1</speed>
</trkpt>
<trkpt lat="55.501266" lon="12.174671">
<ele>17.9</ele>
<time>2018-05-27T08:35:23Z</time>
<speed>23.1</speed>
</trkpt>
<trkpt lat="55.501476" lon="12.174753">
<ele>17.6</ele>
<time>2018-05-27T08:35:24Z</time>
<speed>23.1</speed>
</trkpt>
<trkpt lat="55.501676" lon="12.174847">
<ele>18.1</ele>
<time>2018-05-27T08:35:25Z</time>
<speed>23.1</speed>
</trkpt>
<trkpt lat="55.501871" lon="12.174942">
<ele>17.7</ele>
<time>2018-05-27T08:35:26Z</time>
<speed>23.1</speed>
</trkpt>
<trkpt lat="55.502072" lon="12.175036">
<ele>18.1</ele>
<time>2018-05-27T08:35:27Z</time>
<speed>23.1</speed>
</trkpt>
<trkpt lat="55.502280" lon="12.175134">
<ele>18.0</ele>
<time>2018-05-27T08:35:28Z</time>
<speed>23.1</speed>
</trkpt>
<trkpt lat="55.502477" lon="12.175213">
<ele>17.5</ele>
<time>2018-05-27T08:35:29Z</time>
<speed>23.1</speed>
</trkpt>
<trkpt lat="55.502672" lon="12.175307">
<ele>17.1</ele>
<time>2018-05-27T08:35:30Z</time>
<speed>23.1</speed>
</trkpt>
<trkpt lat="55.502880" lon="12.175405">
<ele>17.0</ele>
<time>2018-05-27T08:35:31Z</time>
<speed>23.1</speed>
</trkpt>
<trkpt lat="55.503075" lon="12.175499">
<ele>16.6</ele>
<time>2018-05-27T08:35:32Z</time>
<speed>22.8</speed>
</trkpt>
<trkpt lat="55.503271" lon="12.175593">
<ele>16.2</ele>
<time>2018-05-27T08:35:33Z</time>
<speed>22.8</speed>
</trkpt>
<trkpt lat="55.503466" lon="12.175688">
<ele>15.8</ele>
<time>2018-05-27T08:35:34Z</time>
<speed>22.8</speed>
</trkpt>
<trkpt lat="55.503661" lon="12.175782">
<ele>15.4</ele>
<time>2018-05-27T08:35:35Z</time>
<speed>22.5</speed>
</trkpt>
<trkpt lat="55.503850" lon="12.175873">
<ele>15.6</ele>
<time>2018-05-27T08:35:36Z</time>
<speed>22.5</speed>
</trkpt>
<trkpt lat="55.504045" lon="12.175967">
<ele>15.2</ele>
<time>2018-05-27T08:35:37Z</time>
<speed>21.7</speed>
</trkpt>
<trkpt lat="55.504230" lon="12.176043">
<ele>14.4</ele>
<time>2018-05-27T08:35:38Z</time>
<speed>21.4</speed>
</trkpt>
<trkpt lat="55.504411" lon="12.176131">
<ele>15.1</ele>
<time>2018-05-27T08:35:39Z</time>
<speed>21.4</speed>
</trkpt>
<trkpt lat="55.504594" lon="12.176222">
<ele>14.5</ele>
<time>2018-05-27T08:35:40Z</time>
<speed>21.7</speed>
</trkpt>
<trkpt lat="55.504783" lon="12.176297">
<ele>14.5</ele>
<time>2018-05-27T08:35:41Z</time>
<speed>21.7</speed>
</trkpt>
<trkpt lat="55.504974" lon="12.176392">
<ele>13.3</ele>
<time>2018-05-27T08:35:42Z</time>
<speed>21.9</speed>
</trkpt>
<trkpt lat="55.505169" lon="12.176486">
<ele>12.9</ele>
<time>2018-05-27T08:35:43Z</time>
<speed>22.5</speed>
</trkpt>
<trkpt lat="55.505359" lon="12.176562">
<ele>13.0</ele>
<time>2018-05-27T08:35:44Z</time>
<speed>22.2</speed>
</trkpt>
<trkpt lat="55.505554" lon="12.176656">
<ele>12.6</ele>
<time>2018-05-27T08:35:45Z</time>
<speed>22.5</speed>
</trkpt>
<trkpt lat="55.505745" lon="12.176750">
<ele>11.4</ele>
<time>2018-05-27T08:35:46Z</time>
<speed>22.5</speed>
</trkpt>
<trkpt lat="55.505949" lon="12.176833">
<ele>10.3</ele>
<time>2018-05-27T08:35:47Z</time>
<speed>22.8</speed>
</trkpt>
<trkpt lat="55.506149" lon="12.176927">
<ele>10.7</ele>
<time>2018-05-27T08:35:48Z</time>
<speed>22.8</speed>
</trkpt>
<trkpt lat="55.506345" lon="12.177021">
<ele>10.3</ele>
<time>2018-05-27T08:35:49Z</time>
<speed>22.8</speed>
</trkpt>
<trkpt lat="55.506539" lon="12.177131">
<ele>10.1</ele>
<time>2018-05-27T08:35:50Z</time>
<speed>22.5</speed>
</trkpt>
<trkpt lat="55.506729" lon="12.177225">
<ele>8.9</ele>
<time>2018-05-27T08:35:51Z</time>
<speed>22.5</speed>
</trkpt>
<trkpt lat="55.506917" lon="12.177316">
<ele>9.0</ele>
<time>2018-05-27T08:35:52Z</time>
<speed>22.2</speed>
</trkpt>
<trkpt lat="55.507111" lon="12.177426">
<ele>8.8</ele>
<time>2018-05-27T08:35:53Z</time>
<speed>22.2</speed>
</trkpt>
<trkpt lat="55.507306" lon="12.177521">
<ele>8.4</ele>
<time>2018-05-27T08:35:54Z</time>
<speed>22.2</speed>
</trkpt>
<trkpt lat="55.507491" lon="12.177643">
<ele>8.8</ele>
<time>2018-05-27T08:35:55Z</time>
<speed>21.9</speed>
</trkpt>
<trkpt lat="55.507668" lon="12.177749">
<ele>7.4</ele>
<time>2018-05-27T08:35:56Z</time>
<speed>21.9</speed>
</trkpt>
<trkpt lat="55.507855" lon="12.177874">
<ele>6.4</ele>
<time>2018-05-27T08:35:57Z</time>
<speed>21.7</speed>
</trkpt>
<trkpt lat="55.508035" lon="12.177996">
<ele>6.0</ele>
<time>2018-05-27T08:35:58Z</time>
<speed>21.7</speed>
</trkpt>
<trkpt lat="55.508215" lon="12.178118">
<ele>5.6</ele>
<time>2018-05-27T08:35:59Z</time>
<speed>21.7</speed>
</trkpt>
<trkpt lat="55.508388" lon="12.178237">
<ele>5.7</ele>
<time>2018-05-27T08:36:00Z</time>
<speed>21.4</speed>
</trkpt>
<trkpt lat="55.508566" lon="12.178375">
<ele>5.4</ele>
<time>2018-05-27T08:36:01Z</time>
<speed>21.4</speed>
</trkpt>
<trkpt lat="55.508746" lon="12.178497">
<ele>5.0</ele>
<time>2018-05-27T08:36:02Z</time>
<speed>21.4</speed>
</trkpt>
<trkpt lat="55.508924" lon="12.178634">
<ele>4.7</ele>
<time>2018-05-27T08:36:03Z</time>
<speed>21.7</speed>
</trkpt>
<trkpt lat="55.509103" lon="12.178771">
<ele>4.4</ele>
<time>2018-05-27T08:36:04Z</time>
<speed>21.7</speed>
</trkpt>
<trkpt lat="55.509280" lon="12.178924">
<ele>4.2</ele>
<time>2018-05-27T08:36:05Z</time>
<speed>21.9</speed>
</trkpt>
<trkpt lat="55.509451" lon="12.179059">
<ele>4.5</ele>
<time>2018-05-27T08:36:06Z</time>
<speed>21.9</speed>
</trkpt>
<trkpt lat="55.509638" lon="12.179230">
<ele>4.7</ele>
<time>2018-05-27T08:36:07Z</time>
<speed>22.5</speed>
</trkpt>
<trkpt lat="55.509815" lon="12.179383">
<ele>4.5</ele>
<time>2018-05-27T08:36:08Z</time>
<speed>23.1</speed>
</trkpt>
<trkpt lat="55.510004" lon="12.179539">
<ele>4.6</ele>
<time>2018-05-27T08:36:09Z</time>
<speed>23.1</speed>
</trkpt>
<trkpt lat="55.510180" lon="12.179708">
<ele>4.5</ele>
<time>2018-05-27T08:36:10Z</time>
<speed>23.1</speed>
</trkpt>
<trkpt lat="55.510361" lon="12.179895">
<ele>4.0</ele>
<time>2018-05-27T08:36:11Z</time>
<speed>23.1</speed>
</trkpt>
<trkpt lat="55.510541" lon="12.180064">
<ele>4.8</ele>
<time>2018-05-27T08:36:12Z</time>
<speed>23.1</speed>
</trkpt>
<trkpt lat="55.510722" lon="12.180251">
<ele>4.3</ele>
<time>2018-05-27T08:36:13Z</time>
<speed>23.3</speed>
</trkpt>
<trkpt lat="55.510908" lon="12.180438">
<ele>4.6</ele>
<time>2018-05-27T08:36:14Z</time>
<speed>23.6</speed>
</trkpt>
<trkpt lat="55.511089" lon="12.180625">
<ele>4.2</ele>
<time>2018-05-27T08:36:15Z</time>
<speed>23.6</speed>
</trkpt>
<trkpt lat="55.511268" lon="12.180828">
<ele>3.8</ele>
<time>2018-05-27T08:36:16Z</time>
<speed>23.6</speed>
</trkpt>
<trkpt lat="55.511453" lon="12.181031">
<ele>4.2</ele>
<time>2018-05-27T08:36:17Z</time>
<speed>23.9</speed>
</trkpt>
<trkpt lat="55.511632" lon="12.181233">
<ele>3.9</ele>
<time>2018-05-27T08:36:18Z</time>
<speed>23.9</speed>
</trkpt>
<trkpt lat="55.511810" lon="12.181451">
<ele>3.6</ele>
<time>2018-05-27T08:36:19Z</time>
<speed>24.2</speed>
</trkpt>
<trkpt lat="55.511993" lon="12.181670">
<ele>4.2</ele>
<time>2018-05-27T08:36:20Z</time>
<speed>24.4</speed>
</trkpt>
<trkpt lat="55.512178" lon="12.181891">
<ele>3.4</ele>
<time>2018-05-27T08:36:21Z</time>
<speed>24.4</speed>
</trkpt>
<trkpt lat="55.512354" lon="12.182125">
<ele>3.2</ele>
<time>2018-05-27T08:36:22Z</time>
<speed>24.7</speed>
</trkpt>
<trkpt lat="55.512536" lon="12.182358">
<ele>3.9</ele>
<time>2018-05-27T08:36:23Z</time>
<speed>24.7</speed>
</trkpt>
<trkpt lat="55.512724" lon="12.182595">
<ele>4.0</ele>
<time>2018-05-27T08:36:24Z</time>
<speed>24.4</speed>
</trkpt>
<trkpt lat="55.512893" lon="12.182826">
<ele>4.5</ele>
<time>2018-05-27T08:36:25Z</time>
<speed>23.9</speed>
</trkpt>
<trkpt lat="55.513061" lon="12.183072">
<ele>5.0</ele>
<time>2018-05-27T08:36:26Z</time>
<speed>23.9</speed>
</trkpt>
<trkpt lat="55.513225" lon="12.183302">
<ele>4.6</ele>
<time>2018-05-27T08:36:27Z</time>
<speed>23.3</speed>
</trkpt>
<trkpt lat="55.513387" lon="12.183548">
<ele>4.3</ele>
<time>2018-05-27T08:36:28Z</time>
<speed>22.8</speed>
</trkpt>
<trkpt lat="55.513542" lon="12.183790">
<ele>4.6</ele>
<time>2018-05-27T08:36:29Z</time>
<speed>22.5</speed>
</trkpt>
<trkpt lat="55.513697" lon="12.184033">
<ele>4.9</ele>
<time>2018-05-27T08:36:30Z</time>
<speed>22.2</speed>
</trkpt>
<trkpt lat="55.513845" lon="12.184272">
<ele>5.7</ele>
<time>2018-05-27T08:36:31Z</time>
<speed>22.2</speed>
</trkpt>
<trkpt lat="55.513988" lon="12.184511">
<ele>5.7</ele>
<time>2018-05-27T08:36:32Z</time>
<speed>21.9</speed>
</trkpt>
<trkpt lat="55.514138" lon="12.184753">
<ele>5.1</ele>
<time>2018-05-27T08:36:33Z</time>
<speed>21.7</speed>
</trkpt>
<trkpt lat="55.514273" lon="12.184989">
<ele>5.7</ele>
<time>2018-05-27T08:36:34Z</time>
<speed>21.4</speed>
</trkpt>
<trkpt lat="55.514411" lon="12.185228">
<ele>4.8</ele>
<time>2018-05-27T08:36:35Z</time>
<speed>21.4</speed>
</trkpt>
<trkpt lat="55.514554" lon="12.185467">
<ele>4.8</ele>
<time>2018-05-27T08:36:36Z</time>
<speed>21.4</speed>
</trkpt>
<trkpt lat="55.514683" lon="12.185719">
<ele>4.7</ele>
<time>2018-05-27T08:36:37Z</time>
<speed>21.4</speed>
</trkpt>
<trkpt lat="55.514819" lon="12.185955">
<ele>5.2</ele>
<time>2018-05-27T08:36:38Z</time>
<speed>21.1</speed>
</trkpt>
<trkpt lat="55.514955" lon="12.186209">
<ele>4.5</ele>
<time>2018-05-27T08:36:39Z</time>
<speed>21.4</speed>
</trkpt>
<trkpt lat="55.515090" lon="12.186445">
<ele>5.1</ele>
<time>2018-05-27T08:36:40Z</time>
<speed>21.7</speed>
</trkpt>
<trkpt lat="55.515226" lon="12.186700">
<ele>4.4</ele>
<time>2018-05-27T08:36:41Z</time>
<speed>21.7</speed>
</trkpt>
<trkpt lat="55.515360" lon="12.186951">
<ele>5.0</ele>
<time>2018-05-27T08:36:42Z</time>
<speed>22.2</speed>
</trkpt>
<trkpt lat="55.515502" lon="12.187205">
<ele>5.2</ele>
<time>2018-05-27T08:36:43Z</time>
<speed>22.5</speed>
</trkpt>
<trkpt lat="55.515650" lon="12.187463">
<ele>4.7</ele>
<time>2018-05-27T08:36:44Z</time>
<speed>22.8</speed>
</trkpt>
<trkpt lat="55.515804" lon="12.187721">
<ele>5.1</ele>
<time>2018-05-27T08:36:45Z</time>
<speed>23.1</speed>
</trkpt>
<trkpt lat="55.515957" lon="12.187979">
<ele>5.5</ele>
<time>2018-05-27T08:36:46Z</time>
<speed>23.1</speed>
</trkpt>
<trkpt lat="55.516111" lon="12.188237">
<ele>5.9</ele>
<time>2018-05-27T08:36:47Z</time>
<speed>23.6</speed>
</trkpt>
<trkpt lat="55.516272" lon="12.188499">
<ele>5.7</ele>
<time>2018-05-27T08:36:48Z</time>
<speed>23.9</speed>
</trkpt>
<trkpt lat="55.516439" lon="12.188744">
<ele>6.3</ele>
<time>2018-05-27T08:36:49Z</time>
<speed>24.2</speed>
</trkpt>
<trkpt lat="55.516600" lon="12.189006">
<ele>6.1</ele>
<time>2018-05-27T08:36:50Z</time>
<speed>24.4</speed>
</trkpt>
<trkpt lat="55.516780" lon="12.189255">
<ele>6.9</ele>
<time>2018-05-27T08:36:51Z</time>
<speed>24.4</speed>
</trkpt>
<trkpt lat="55.516953" lon="12.189520">
<ele>7.0</ele>
<time>2018-05-27T08:36:52Z</time>
<speed>24.7</speed>
</trkpt>
<trkpt lat="55.517127" lon="12.189769">
<ele>7.0</ele>
<time>2018-05-27T08:36:53Z</time>
<speed>24.7</speed>
</trkpt>
<trkpt lat="55.517304" lon="12.190003">
<ele>6.9</ele>
<time>2018-05-27T08:36:54Z</time>
<speed>24.7</speed>
</trkpt>
<trkpt lat="55.517485" lon="12.190236">
<ele>7.6</ele>
<time>2018-05-27T08:36:55Z</time>
<speed>24.7</speed>
</trkpt>
<trkpt lat="55.517660" lon="12.190486">
<ele>7.6</ele>
<time>2018-05-27T08:36:56Z</time>
<speed>24.7</speed>
</trkpt>
<trkpt lat="55.517850" lon="12.190707">
<ele>7.6</ele>
<time>2018-05-27T08:36:57Z</time>
<speed>24.7</speed>
</trkpt>
<trkpt lat="55.518031" lon="12.190941">
<ele>8.3</ele>
<time>2018-05-27T08:36:58Z</time>
<speed>25.0</speed>
</trkpt>
<trkpt lat="55.518221" lon="12.191162">
<ele>8.3</ele>
<time>2018-05-27T08:36:59Z</time>
<speed>24.7</speed>
</trkpt>
<trkpt lat="55.518404" lon="12.191381">
<ele>8.9</ele>
<time>2018-05-27T08:37:00Z</time>
<speed>24.7</speed>
</trkpt>
<trkpt lat="55.518596" lon="12.191587">
<ele>8.8</ele>
<time>2018-05-27T08:37:01Z</time>
<speed>24.7</speed>
</trkpt>
<trkpt lat="55.518782" lon="12.191793">
<ele>7.8</ele>
<time>2018-05-27T08:37:02Z</time>
<speed>24.2</speed>
</trkpt>
<trkpt lat="55.518967" lon="12.191996">
<ele>8.3</ele>
<time>2018-05-27T08:37:03Z</time>
<speed>23.9</speed>
</trkpt>
<trkpt lat="55.519153" lon="12.192183">
<ele>8.6</ele>
<time>2018-05-27T08:37:04Z</time>
<speed>23.6</speed>
</trkpt>
<trkpt lat="55.519339" lon="12.192370">
<ele>9.0</ele>
<time>2018-05-27T08:37:05Z</time>
<speed>23.3</speed>
</trkpt>
<trkpt lat="55.519520" lon="12.192558">
<ele>8.5</ele>
<time>2018-05-27T08:37:06Z</time>
<speed>23.3</speed>
</trkpt>
<trkpt lat="55.519707" lon="12.192730">
<ele>8.7</ele>
<time>2018-05-27T08:37:07Z</time>
<speed>23.3</speed>
</trkpt>
<trkpt lat="55.519888" lon="12.192898">
<ele>9.4</ele>
<time>2018-05-27T08:37:08Z</time>
<speed>23.1</speed>
</trkpt>
<trkpt lat="55.520075" lon="12.193070">
<ele>9.7</ele>
<time>2018-05-27T08:37:09Z</time>
<speed>23.1</speed>
</trkpt>
<trkpt lat="55.520264" lon="12.193226">
<ele>9.8</ele>
<time>2018-05-27T08:37:10Z</time>
<speed>23.1</speed>
</trkpt>
<trkpt lat="55.520440" lon="12.193395">
<ele>9.7</ele>
<time>2018-05-27T08:37:11Z</time>
<speed>23.1</speed>
</trkpt>
<trkpt lat="55.520629" lon="12.193551">
<ele>9.8</ele>
<time>2018-05-27T08:37:12Z</time>
<speed>23.1</speed>
</trkpt>
<trkpt lat="55.520818" lon="12.193708">
<ele>9.9</ele>
<time>2018-05-27T08:37:13Z</time>
<speed>23.1</speed>
</trkpt>
<trkpt lat="55.521007" lon="12.193864">
<ele>10.0</ele>
<time>2018-05-27T08:37:14Z</time>
<speed>23.1</speed>
</trkpt>
<trkpt lat="55.521198" lon="12.194005">
<ele>10.0</ele>
<time>2018-05-27T08:37:15Z</time>
<speed>23.3</speed>
</trkpt>
<trkpt lat="55.521389" lon="12.194146">
<ele>9.9</ele>
<time>2018-05-27T08:37:16Z</time>
<speed>23.3</speed>
</trkpt>
<trkpt lat="55.521570" lon="12.194299">
<ele>10.6</ele>
<time>2018-05-27T08:37:17Z</time>
<speed>23.1</speed>
</trkpt>
<trkpt lat="55.521775" lon="12.194428">
<ele>10.7</ele>
<time>2018-05-27T08:37:18Z</time>
<speed>23.6</speed>
</trkpt>
<trkpt lat="55.521971" lon="12.194569">
<ele>11.5</ele>
<time>2018-05-27T08:37:19Z</time>
<speed>23.6</speed>
</trkpt>
<trkpt lat="55.522182" lon="12.194682">
<ele>12.4</ele>
<time>2018-05-27T08:37:20Z</time>
<speed>23.6</speed>
</trkpt>
<trkpt lat="55.522387" lon="12.194811">
<ele>12.5</ele>
<time>2018-05-27T08:37:21Z</time>
<speed>23.6</speed>
</trkpt>
<trkpt lat="55.522584" lon="12.194936">
<ele>13.2</ele>
<time>2018-05-27T08:37:22Z</time>
<speed>23.6</speed>
</trkpt>
<trkpt lat="55.522795" lon="12.195049">
<ele>14.0</ele>
<time>2018-05-27T08:37:23Z</time>
<speed>23.6</speed>
</trkpt>
<trkpt lat="55.523001" lon="12.195163">
<ele>14.0</ele>
<time>2018-05-27T08:37:24Z</time>
<speed>23.3</speed>
</trkpt>
<trkpt lat="55.523197" lon="12.195257">
<ele>13.6</ele>
<time>2018-05-27T08:37:25Z</time>
<speed>23.3</speed>
</trkpt>
<trkpt lat="55.523403" lon="12.195371">
<ele>13.6</ele>
<time>2018-05-27T08:37:26Z</time>
<speed>23.3</speed>
</trkpt>
<trkpt lat="55.523612" lon="12.195453">
<ele>13.4</ele>
<time>2018-05-27T08:37:27Z</time>
<speed>23.3</speed>
</trkpt>
<trkpt lat="55.523813" lon="12.195547">
<ele>13.9</ele>
<time>2018-05-27T08:37:28Z</time>
<speed>23.1</speed>
</trkpt>
<trkpt lat="55.524015" lon="12.195626">
<ele>14.2</ele>
<time>2018-05-27T08:37:29Z</time>
<speed>22.8</speed>
</trkpt>
<trkpt lat="55.524217" lon="12.195706">
<ele>14.5</ele>
<time>2018-05-27T08:37:30Z</time>
<speed>22.8</speed>
</trkpt>
<trkpt lat="55.524421" lon="12.195788">
<ele>13.4</ele>
<time>2018-05-27T08:37:31Z</time>
<speed>22.8</speed>
</trkpt>
<trkpt lat="55.524623" lon="12.195867">
<ele>13.8</ele>
<time>2018-05-27T08:37:32Z</time>
<speed>22.8</speed>
</trkpt>
<trkpt lat="55.524825" lon="12.195946">
<ele>14.1</ele>
<time>2018-05-27T08:37:33Z</time>
<speed>22.5</speed>
</trkpt>
<trkpt lat="55.525021" lon="12.196006">
<ele>14.9</ele>
<time>2018-05-27T08:37:34Z</time>
<speed>22.5</speed>
</trkpt>
<trkpt lat="55.525220" lon="12.196070">
<ele>14.2</ele>
<time>2018-05-27T08:37:35Z</time>
<speed>22.2</speed>
</trkpt>
<trkpt lat="55.525416" lon="12.196130">
<ele>15.0</ele>
<time>2018-05-27T08:37:36Z</time>
<speed>22.2</speed>
</trkpt>
<trkpt lat="55.525616" lon="12.196178">
<ele>14.3</ele>
<time>2018-05-27T08:37:37Z</time>
<speed>21.9</speed>
</trkpt>
<trkpt lat="55.525813" lon="12.196238">
<ele>15.0</ele>
<time>2018-05-27T08:37:38Z</time>
<speed>21.9</speed>
</trkpt>
<trkpt lat="55.526006" lon="12.196283">
<ele>14.8</ele>
<time>2018-05-27T08:37:39Z</time>
<speed>21.9</speed>
</trkpt>
<trkpt lat="55.526204" lon="12.196328">
<ele>15.5</ele>
<time>2018-05-27T08:37:40Z</time>
<speed>21.7</speed>
</trkpt>
<trkpt lat="55.526398" lon="12.196357">
<ele>15.2</ele>
<time>2018-05-27T08:37:41Z</time>
<speed>21.7</speed>
</trkpt>
<trkpt lat="55.526584" lon="12.196398">
<ele>15.5</ele>
<time>2018-05-27T08:37:42Z</time>
<speed>21.1</speed>
</trkpt>
<trkpt lat="55.526771" lon="12.196424">
<ele>15.8</ele>
<time>2018-05-27T08:37:43Z</time>
<speed>20.8</speed>
</trkpt>
<trkpt lat="55.526960" lon="12.196454">
<ele>14.6</ele>
<time>2018-05-27T08:37:44Z</time>
<speed>20.8</speed>
</trkpt>
<trkpt lat="55.527147" lon="12.196479">
<ele>14.9</ele>
<time>2018-05-27T08:37:45Z</time>
<speed>20.8</speed>
</trkpt>
<trkpt lat="55.527334" lon="12.196505">
<ele>15.1</ele>
<time>2018-05-27T08:37:46Z</time>
<speed>20.8</speed>
</trkpt>
<trkpt lat="55.527522" lon="12.196531">
<ele>15.4</ele>
<time>2018-05-27T08:37:47Z</time>
<speed>20.8</speed>
</trkpt>
<trkpt lat="55.527704" lon="12.196557">
<ele>14.8</ele>
<time>2018-05-27T08:37:48Z</time>
<speed>20.8</speed>
</trkpt>
<trkpt lat="55.527892" lon="12.196568">
<ele>14.9</ele>
<time>2018-05-27T08:37:49Z</time>
<speed>21.1</speed>
</trkpt>
<trkpt lat="55.528081" lon="12.196578">
<ele>15.1</ele>
<time>2018-05-27T08:37:50Z</time>
<speed>21.4</speed>
</trkpt>
<trkpt lat="55.528281" lon="12.196607">
<ele>15.6</ele>
<time>2018-05-27T08:37:51Z</time>
<speed>21.4</speed>
</trkpt>
<trkpt lat="55.528477" lon="12.196621">
<ele>15.2</ele>
<time>2018-05-27T08:37:52Z</time>
<speed>21.9</speed>
</trkpt>
<trkpt lat="55.528678" lon="12.196635">
<ele>15.6</ele>
<time>2018-05-27T08:37:53Z</time>
<speed>22.5</speed>
</trkpt>
<trkpt lat="55.528879" lon="12.196667">
<ele>14.7</ele>
<time>2018-05-27T08:37:54Z</time>
<speed>22.8</speed>
</trkpt>
<trkpt lat="55.529086" lon="12.196700">
<ele>14.7</ele>
<time>2018-05-27T08:37:55Z</time>
<speed>23.1</speed>
</trkpt>
<trkpt lat="55.529298" lon="12.196733">
<ele>15.5</ele>
<time>2018-05-27T08:37:56Z</time>
<speed>23.1</speed>
</trkpt>
<trkpt lat="55.529512" lon="12.196769">
<ele>14.9</ele>
<time>2018-05-27T08:37:57Z</time>
<speed>23.9</speed>
</trkpt>
<trkpt lat="55.529729" lon="12.196820">
<ele>15.2</ele>
<time>2018-05-27T08:37:58Z</time>
<speed>24.2</speed>
</trkpt>
<trkpt lat="55.529943" lon="12.196856">
<ele>14.7</ele>
<time>2018-05-27T08:37:59Z</time>
<speed>24.4</speed>
</trkpt>
<trkpt lat="55.530167" lon="12.196926">
<ele>14.6</ele>
<time>2018-05-27T08:38:00Z</time>
<speed>25.0</speed>
</trkpt>
<trkpt lat="55.530391" lon="12.196981">
<ele>14.4</ele>
<time>2018-05-27T08:38:01Z</time>
<speed>25.0</speed>
</trkpt>
<trkpt lat="55.530614" lon="12.197051">
<ele>14.3</ele>
<time>2018-05-27T08:38:02Z</time>
<speed>25.3</speed>
</trkpt>
<trkpt lat="55.530838" lon="12.197122">
<ele>14.2</ele>
<time>2018-05-27T08:38:03Z</time>
<speed>25.0</speed>
</trkpt>
<trkpt lat="55.531059" lon="12.197207">
<ele>14.3</ele>
<time>2018-05-27T08:38:04Z</time>
<speed>24.7</speed>
</trkpt>
<trkpt lat="55.531275" lon="12.197274">
<ele>14.8</ele>
<time>2018-05-27T08:38:05Z</time>
<speed>24.4</speed>
</trkpt>
<trkpt lat="55.531492" lon="12.197360">
<ele>14.0</ele>
<time>2018-05-27T08:38:06Z</time>
<speed>24.4</speed>
</trkpt>
<trkpt lat="55.531699" lon="12.197458">
<ele>13.9</ele>
<time>2018-05-27T08:38:07Z</time>
<speed>23.9</speed>
</trkpt>
<trkpt lat="55.531914" lon="12.197540">
<ele>14.5</ele>
<time>2018-05-27T08:38:08Z</time>
<speed>23.9</speed>
</trkpt>
<trkpt lat="55.532116" lon="12.197638">
<ele>13.5</ele>
<time>2018-05-27T08:38:09Z</time>
<speed>23.6</speed>
</trkpt>
<trkpt lat="55.532324" lon="12.197736">
<ele>13.4</ele>
<time>2018-05-27T08:38:10Z</time>
<speed>23.3</speed>
</trkpt>
<trkpt lat="55.532530" lon="12.197849">
<ele>13.5</ele>
<time>2018-05-27T08:38:11Z</time>
<speed>23.3</speed>
</trkpt>
<trkpt lat="55.532726" lon="12.197944">
<ele>13.1</ele>
<time>2018-05-27T08:38:12Z</time>
<speed>23.3</speed>
</trkpt>
<trkpt lat="55.532932" lon="12.198057">
<ele>13.1</ele>
<time>2018-05-27T08:38:13Z</time>
<speed>23.3</speed>
</trkpt>
<trkpt lat="55.533124" lon="12.198183">
<ele>12.9</ele>
<time>2018-05-27T08:38:14Z</time>
<speed>23.3</speed>
</trkpt>
<trkpt lat="55.533330" lon="12.198296">
<ele>13.0</ele>
<time>2018-05-27T08:38:15Z</time>
<speed>23.3</speed>
</trkpt>
<trkpt lat="55.533530" lon="12.198425">
<ele>12.3</ele>
<time>2018-05-27T08:38:16Z</time>
<speed>23.3</speed>
</trkpt>
<trkpt lat="55.533727" lon="12.198551">
<ele>13.0</ele>
<time>2018-05-27T08:38:17Z</time>
<speed>23.6</speed>
</trkpt>
<trkpt lat="55.533926" lon="12.198679">
<ele>12.3</ele>
<time>2018-05-27T08:38:18Z</time>
<speed>23.6</speed>
</trkpt>
<trkpt lat="55.534129" lon="12.198824">
<ele>12.5</ele>
<time>2018-05-27T08:38:19Z</time>
<speed>23.9</speed>
</trkpt>
<trkpt lat="55.534327" lon="12.198968">
<ele>11.9</ele>
<time>2018-05-27T08:38:20Z</time>
<speed>23.9</speed>
</trkpt>
<trkpt lat="55.534530" lon="12.199112">
<ele>12.2</ele>
<time>2018-05-27T08:38:21Z</time>
<speed>23.9</speed>
</trkpt>
<trkpt lat="55.534720" lon="12.199269">
<ele>12.3</ele>
<time>2018-05-27T08:38:22Z</time>
<speed>23.6</speed>
</trkpt>
<trkpt lat="55.534915" lon="12.199410">
<ele>13.1</ele>
<time>2018-05-27T08:38:23Z</time>
<speed>23.6</speed>
</trkpt>
<trkpt lat="55.535104" lon="12.199566">
<ele>13.2</ele>
<time>2018-05-27T08:38:24Z</time>
<speed>23.3</speed>
</trkpt>
<trkpt lat="55.535294" lon="12.199723">
<ele>13.3</ele>
<time>2018-05-27T08:38:25Z</time>
<speed>23.3</speed>
</trkpt>
<trkpt lat="55.535481" lon="12.199895">
<ele>13.5</ele>
<time>2018-05-27T08:38:26Z</time>
<speed>23.3</speed>
</trkpt>
<trkpt lat="55.535669" lon="12.200067">
<ele>13.8</ele>
<time>2018-05-27T08:38:27Z</time>
<speed>23.6</speed>
</trkpt>
<trkpt lat="55.535856" lon="12.200239">
<ele>14.0</ele>
<time>2018-05-27T08:38:28Z</time>
<speed>23.3</speed>
</trkpt>
<trkpt lat="55.536039" lon="12.200411">
<ele>13.4</ele>
<time>2018-05-27T08:38:29Z</time>
<speed>23.1</speed>
</trkpt>
<trkpt lat="55.536220" lon="12.200598">
<ele>12.9</ele>
<time>2018-05-27T08:38:30Z</time>
<speed>23.3</speed>
</trkpt>
<trkpt lat="55.536406" lon="12.200785">
<ele>13.2</ele>
<time>2018-05-27T08:38:31Z</time>
<speed>23.3</speed>
</trkpt>
<trkpt lat="55.536584" lon="12.200970">
<ele>14.1</ele>
<time>2018-05-27T08:38:32Z</time>
<speed>23.1</speed>
</trkpt>
<trkpt lat="55.536758" lon="12.201154">
<ele>14.2</ele>
<time>2018-05-27T08:38:33Z</time>
<speed>22.8</speed>
</trkpt>
<trkpt lat="55.536939" lon="12.201341">
<ele>13.7</ele>
<time>2018-05-27T08:38:34Z</time>
<speed>22.8</speed>
</trkpt>
<trkpt lat="55.537116" lon="12.201541">
<ele>14.7</ele>
<time>2018-05-27T08:38:35Z</time>
<speed>22.8</speed>
</trkpt>
<trkpt lat="55.537283" lon="12.201740">
<ele>14.1</ele>
<time>2018-05-27T08:38:36Z</time>
<speed>22.8</speed>
</trkpt>
<trkpt lat="55.537455" lon="12.201940">
<ele>14.3</ele>
<time>2018-05-27T08:38:37Z</time>
<speed>22.5</speed>
</trkpt>
<trkpt lat="55.537622" lon="12.202139">
<ele>13.7</ele>
<time>2018-05-27T08:38:38Z</time>
<speed>22.5</speed>
</trkpt>
<trkpt lat="55.537781" lon="12.202351">
<ele>13.7</ele>
<time>2018-05-27T08:38:39Z</time>
<speed>22.5</speed>
</trkpt>
<trkpt lat="55.537946" lon="12.202566">
<ele>13.2</ele>
<time>2018-05-27T08:38:40Z</time>
<speed>22.5</speed>
</trkpt>
<trkpt lat="55.538104" lon="12.202778">
<ele>13.2</ele>
<time>2018-05-27T08:38:41Z</time>
<speed>22.5</speed>
</trkpt>
<trkpt lat="55.538263" lon="12.202990">
<ele>13.3</ele>
<time>2018-05-27T08:38:42Z</time>
<speed>22.2</speed>
</trkpt>
<trkpt lat="55.538421" lon="12.203201">
<ele>13.3</ele>
<time>2018-05-27T08:38:43Z</time>
<speed>22.2</speed>
</trkpt>
<trkpt lat="55.538572" lon="12.203429">
<ele>12.6</ele>
<time>2018-05-27T08:38:44Z</time>
<speed>21.9</speed>
</trkpt>
<trkpt lat="55.538731" lon="12.203640">
<ele>12.7</ele>
<time>2018-05-27T08:38:45Z</time>
<speed>21.9</speed>
</trkpt>
<trkpt lat="55.538882" lon="12.203868">
<ele>12.0</ele>
<time>2018-05-27T08:38:46Z</time>
<speed>21.9</speed>
</trkpt>
<trkpt lat="55.539027" lon="12.204091">
<ele>11.9</ele>
<time>2018-05-27T08:38:47Z</time>
<speed>21.9</speed>
</trkpt>
<trkpt lat="55.539182" lon="12.204334">
<ele>12.2</ele>
<time>2018-05-27T08:38:48Z</time>
<speed>22.2</speed>
</trkpt>
<trkpt lat="55.539333" lon="12.204561">
<ele>11.5</ele>
<time>2018-05-27T08:38:49Z</time>
<speed>22.2</speed>
</trkpt>
<trkpt lat="55.539483" lon="12.204804">
<ele>11.0</ele>
<time>2018-05-27T08:38:50Z</time>
<speed>22.2</speed>
</trkpt>
<trkpt lat="55.539632" lon="12.205062">
<ele>10.5</ele>
<time>2018-05-27T08:38:51Z</time>
<speed>22.2</speed>
</trkpt>
<trkpt lat="55.539774" lon="12.205302">
<ele>10.5</ele>
<time>2018-05-27T08:38:52Z</time>
<speed>22.5</speed>
</trkpt>
<trkpt lat="55.539921" lon="12.205556">
<ele>11.5</ele>
<time>2018-05-27T08:38:53Z</time>
<speed>22.5</speed>
</trkpt>
<trkpt lat="55.540069" lon="12.205815">
<ele>11.1</ele>
<time>2018-05-27T08:38:54Z</time>
<speed>22.8</speed>
</trkpt>
<trkpt lat="55.540218" lon="12.206073">
<ele>10.6</ele>
<time>2018-05-27T08:38:55Z</time>
<speed>22.8</speed>
</trkpt>
<trkpt lat="55.540357" lon="12.206343">
<ele>10.9</ele>
<time>2018-05-27T08:38:56Z</time>
<speed>22.8</speed>
</trkpt>
<trkpt lat="55.540509" lon="12.206617">
<ele>11.4</ele>
<time>2018-05-27T08:38:57Z</time>
<speed>23.3</speed>
</trkpt>
<trkpt lat="55.540649" lon="12.206887">
<ele>11.7</ele>
<time>2018-05-27T08:38:58Z</time>
<speed>23.6</speed>
</trkpt>
<trkpt lat="55.540801" lon="12.207161">
<ele>12.2</ele>
<time>2018-05-27T08:38:59Z</time>
<speed>23.6</speed>
</trkpt>
<trkpt lat="55.540946" lon="12.207450">
<ele>12.0</ele>
<time>2018-05-27T08:39:00Z</time>
<speed>23.9</speed>
</trkpt>
<trkpt lat="55.541084" lon="12.207736">
<ele>12.4</ele>
<time>2018-05-27T08:39:01Z</time>
<speed>23.9</speed>
</trkpt>
<trkpt lat="55.541222" lon="12.208022">
<ele>12.7</ele>
<time>2018-05-27T08:39:02Z</time>
<speed>23.3</speed>
</trkpt>
<trkpt lat="55.541353" lon="12.208304">
<ele>13.6</ele>
<time>2018-05-27T08:39:03Z</time>
<speed>23.3</speed>
</trkpt>
<trkpt lat="55.541479" lon="12.208587">
<ele>13.7</ele>
<time>2018-05-27T08:39:04Z</time>
<speed>23.1</speed>
</trkpt>
<trkpt lat="55.541608" lon="12.208885">
<ele>14.8</ele>
<time>2018-05-27T08:39:05Z</time>
<speed>23.1</speed>
</trkpt>
<trkpt lat="55.541734" lon="12.209167">
<ele>14.9</ele>
<time>2018-05-27T08:39:06Z</time>
<speed>23.1</speed>
</trkpt>
<trkpt lat="55.541858" lon="12.209465">
<ele>15.1</ele>
<time>2018-05-27T08:39:07Z</time>
<speed>22.8</speed>
</trkpt>
<trkpt lat="55.541976" lon="12.209744">
<ele>15.7</ele>
<time>2018-05-27T08:39:08Z</time>
<speed>22.5</speed>
</trkpt>
<trkpt lat="55.542101" lon="12.210042">
<ele>16.0</ele>
<time>2018-05-27T08:39:09Z</time>
<speed>22.5</speed>
</trkpt>
<trkpt lat="55.542212" lon="12.210337">
<ele>15.9</ele>
<time>2018-05-27T08:39:10Z</time>
<speed>22.5</speed>
</trkpt>
<trkpt lat="55.542329" lon="12.210631">
<ele>16.7</ele>
<time>2018-05-27T08:39:11Z</time>
<speed>22.5</speed>
</trkpt>
<trkpt lat="55.542441" lon="12.210926">
<ele>16.6</ele>
<time>2018-05-27T08:39:12Z</time>
<speed>22.2</speed>
</trkpt>
<trkpt lat="55.542546" lon="12.211217">
<ele>17.1</ele>
<time>2018-05-27T08:39:13Z</time>
<speed>21.9</speed>
</trkpt>
<trkpt lat="55.542659" lon="12.211496">
<ele>16.9</ele>
<time>2018-05-27T08:39:14Z</time>
<speed>21.9</speed>
</trkpt>
<trkpt lat="55.542771" lon="12.211791">
<ele>16.9</ele>
<time>2018-05-27T08:39:15Z</time>
<speed>21.9</speed>
</trkpt>
<trkpt lat="55.542881" lon="12.212082">
<ele>18.2</ele>
<time>2018-05-27T08:39:16Z</time>
<speed>21.9</speed>
</trkpt>
<trkpt lat="55.542993" lon="12.212377">
<ele>18.1</ele>
<time>2018-05-27T08:39:17Z</time>
<speed>21.9</speed>
</trkpt>
<trkpt lat="55.543106" lon="12.212656">
<ele>18.0</ele>
<time>2018-05-27T08:39:18Z</time>
<speed>21.9</speed>
</trkpt>
<trkpt lat="55.543218" lon="12.212951">
<ele>17.9</ele>
<time>2018-05-27T08:39:19Z</time>
<speed>21.9</speed>
</trkpt>
<trkpt lat="55.543331" lon="12.213230">
<ele>17.7</ele>
<time>2018-05-27T08:39:20Z</time>
<speed>21.9</speed>
</trkpt>
<trkpt lat="55.543443" lon="12.213525">
<ele>17.7</ele>
<time>2018-05-27T08:39:21Z</time>
<speed>21.9</speed>
</trkpt>
<trkpt lat="55.543557" lon="12.213804">
<ele>17.5</ele>
<time>2018-05-27T08:39:22Z</time>
<speed>21.9</speed>
</trkpt>
<trkpt lat="55.543675" lon="12.214083">
<ele>18.2</ele>
<time>2018-05-27T08:39:23Z</time>
<speed>22.2</speed>
</trkpt>
<trkpt lat="55.543801" lon="12.214365">
<ele>18.3</ele>
<time>2018-05-27T08:39:24Z</time>
<speed>22.2</speed>
</trkpt>
<trkpt lat="55.543921" lon="12.214648">
<ele>17.5</ele>
<time>2018-05-27T08:39:25Z</time>
<speed>22.5</speed>
</trkpt>
<trkpt lat="55.544047" lon="12.214930">
<ele>17.6</ele>
<time>2018-05-27T08:39:26Z</time>
<speed>22.5</speed>
</trkpt>
<trkpt lat="55.544173" lon="12.215213">
<ele>17.7</ele>
<time>2018-05-27T08:39:27Z</time>
<speed>22.8</speed>
</trkpt>
<trkpt lat="55.544307" lon="12.215483">
<ele>17.2</ele>
<time>2018-05-27T08:39:28Z</time>
<speed>22.8</speed>
</trkpt>
<trkpt lat="55.544440" lon="12.215769">
<ele>16.7</ele>
<time>2018-05-27T08:39:29Z</time>
<speed>23.1</speed>
</trkpt>
<trkpt lat="55.544578" lon="12.216055">
<ele>17.1</ele>
<time>2018-05-27T08:39:30Z</time>
<speed>23.3</speed>
</trkpt>
<trkpt lat="55.544713" lon="12.216326">
<ele>16.5</ele>
<time>2018-05-27T08:39:31Z</time>
<speed>23.3</speed>
</trkpt>
<trkpt lat="55.544860" lon="12.216599">
<ele>16.2</ele>
<time>2018-05-27T08:39:32Z</time>
<speed>23.6</speed>
</trkpt>
<trkpt lat="55.545005" lon="12.216889">
<ele>16.0</ele>
<time>2018-05-27T08:39:33Z</time>
<speed>23.9</speed>
</trkpt>
<trkpt lat="55.545152" lon="12.217162">
<ele>15.7</ele>
<time>2018-05-27T08:39:34Z</time>
<speed>24.2</speed>
</trkpt>
<trkpt lat="55.545299" lon="12.217436">
<ele>15.4</ele>
<time>2018-05-27T08:39:35Z</time>
<speed>24.2</speed>
</trkpt>
<trkpt lat="55.545454" lon="12.217698">
<ele>14.4</ele>
<time>2018-05-27T08:39:36Z</time>
<speed>24.2</speed>
</trkpt>
<trkpt lat="55.545614" lon="12.217975">
<ele>14.4</ele>
<time>2018-05-27T08:39:37Z</time>
<speed>24.4</speed>
</trkpt>
<trkpt lat="55.545768" lon="12.218252">
<ele>13.5</ele>
<time>2018-05-27T08:39:38Z</time>
<speed>24.2</speed>
</trkpt>
<trkpt lat="55.545928" lon="12.218514">
<ele>13.4</ele>
<time>2018-05-27T08:39:39Z</time>
<speed>24.2</speed>
</trkpt>
<trkpt lat="55.546077" lon="12.218772">
<ele>13.0</ele>
<time>2018-05-27T08:39:40Z</time>
<speed>24.2</speed>
</trkpt>
<trkpt lat="55.546238" lon="12.219033">
<ele>12.8</ele>
<time>2018-05-27T08:39:41Z</time>
<speed>24.2</speed>
</trkpt>
<trkpt lat="55.546398" lon="12.219295">
<ele>12.7</ele>
<time>2018-05-27T08:39:42Z</time>
<speed>24.2</speed>
</trkpt>
<trkpt lat="55.546561" lon="12.219541">
<ele>12.4</ele>
<time>2018-05-27T08:39:43Z</time>
<speed>23.9</speed>
</trkpt>
<trkpt lat="55.546735" lon="12.219791">
<ele>12.4</ele>
<time>2018-05-27T08:39:44Z</time>
<speed>23.9</speed>
</trkpt>
<trkpt lat="55.546899" lon="12.220021">
<ele>12.0</ele>
<time>2018-05-27T08:39:45Z</time>
<speed>23.6</speed>
</trkpt>
<trkpt lat="55.547063" lon="12.220252">
<ele>11.6</ele>
<time>2018-05-27T08:39:46Z</time>
<speed>23.6</speed>
</trkpt>
<trkpt lat="55.547232" lon="12.220483">
<ele>12.1</ele>
<time>2018-05-27T08:39:47Z</time>
<speed>23.6</speed>
</trkpt>
<trkpt lat="55.547403" lon="12.220717">
<ele>11.1</ele>
<time>2018-05-27T08:39:48Z</time>
<speed>23.9</speed>
</trkpt>
<trkpt lat="55.547572" lon="12.220948">
<ele>11.5</ele>
<time>2018-05-27T08:39:49Z</time>
<speed>23.9</speed>
</trkpt>
<trkpt lat="55.547750" lon="12.221166">
<ele>11.3</ele>
<time>2018-05-27T08:39:50Z</time>
<speed>24.2</speed>
</trkpt>
<trkpt lat="55.547927" lon="12.221385">
<ele>11.1</ele>
<time>2018-05-27T08:39:51Z</time>
<speed>24.2</speed>
</trkpt>
<trkpt lat="55.548117" lon="12.221607">
<ele>11.1</ele>
<time>2018-05-27T08:39:52Z</time>
<speed>24.2</speed>
</trkpt>
<trkpt lat="55.548297" lon="12.221810">
<ele>10.8</ele>
<time>2018-05-27T08:39:53Z</time>
<speed>24.2</speed>
</trkpt>
<trkpt lat="55.548488" lon="12.222016">
<ele>10.7</ele>
<time>2018-05-27T08:39:54Z</time>
<speed>24.2</speed>
</trkpt>
<trkpt lat="55.548668" lon="12.222219">
<ele>10.3</ele>
<time>2018-05-27T08:39:55Z</time>
<speed>23.9</speed>
</trkpt>
<trkpt lat="55.548852" lon="12.222422">
<ele>10.8</ele>
<time>2018-05-27T08:39:56Z</time>
<speed>23.9</speed>
</trkpt>
<trkpt lat="55.549033" lon="12.222610">
<ele>10.3</ele>
<time>2018-05-27T08:39:57Z</time>
<speed>23.6</speed>
</trkpt>
<trkpt lat="55.549226" lon="12.222801">
<ele>10.1</ele>
<time>2018-05-27T08:39:58Z</time>
<speed>23.6</speed>
</trkpt>
<trkpt lat="55.549412" lon="12.222988">
<ele>10.5</ele>
<time>2018-05-27T08:39:59Z</time>
<speed>23.6</speed>
</trkpt>
<trkpt lat="55.549595" lon="12.223161">
<ele>9.9</ele>
<time>2018-05-27T08:40:00Z</time>
<speed>23.3</speed>
</trkpt>
<trkpt lat="55.549781" lon="12.223348">
<ele>10.2</ele>
<time>2018-05-27T08:40:01Z</time>
<speed>23.3</speed>
</trkpt>
<trkpt lat="55.549970" lon="12.223505">
<ele>10.3</ele>
<time>2018-05-27T08:40:02Z</time>
<speed>23.1</speed>
</trkpt>
<trkpt lat="55.550152" lon="12.223677">
<ele>9.7</ele>
<time>2018-05-27T08:40:03Z</time>
<speed>23.1</speed>
</trkpt>
<trkpt lat="55.550336" lon="12.223834">
<ele>9.0</ele>
<time>2018-05-27T08:40:04Z</time>
<speed>23.1</speed>
</trkpt>
<trkpt lat="55.550525" lon="12.223990">
<ele>9.1</ele>
<time>2018-05-27T08:40:05Z</time>
<speed>23.1</speed>
</trkpt>
<trkpt lat="55.550709" lon="12.224147">
<ele>8.4</ele>
<time>2018-05-27T08:40:06Z</time>
<speed>23.1</speed>
</trkpt>
<trkpt lat="55.550900" lon="12.224288">
<ele>8.4</ele>
<time>2018-05-27T08:40:07Z</time>
<speed>23.1</speed>
</trkpt>
<trkpt lat="55.551091" lon="12.224429">
<ele>8.4</ele>
<time>2018-05-27T08:40:08Z</time>
<speed>23.1</speed>
</trkpt>
<trkpt lat="55.551276" lon="12.224570">
<ele>7.5</ele>
<time>2018-05-27T08:40:09Z</time>
<speed>22.8</speed>
</trkpt>
<trkpt lat="55.551474" lon="12.224715">
<ele>7.0</ele>
<time>2018-05-27T08:40:10Z</time>
<speed>22.8</speed>
</trkpt>
<trkpt lat="55.551659" lon="12.224837">
<ele>7.4</ele>
<time>2018-05-27T08:40:11Z</time>
<speed>22.8</speed>
</trkpt>
<trkpt lat="55.551851" lon="12.224963">
<ele>7.3</ele>
<time>2018-05-27T08:40:12Z</time>
<speed>22.5</speed>
</trkpt>
<trkpt lat="55.552036" lon="12.225085">
<ele>7.7</ele>
<time>2018-05-27T08:40:13Z</time>
<speed>22.5</speed>
</trkpt>
<trkpt lat="55.552234" lon="12.225211">
<ele>8.4</ele>
<time>2018-05-27T08:40:14Z</time>
<speed>22.2</speed>
</trkpt>
<trkpt lat="55.552427" lon="12.225321">
<ele>8.1</ele>
<time>2018-05-27T08:40:15Z</time>
<speed>22.2</speed>
</trkpt>
<trkpt lat="55.552614" lon="12.225428">
<ele>8.5</ele>
<time>2018-05-27T08:40:16Z</time>
<speed>22.2</speed>
</trkpt>
<trkpt lat="55.552808" lon="12.225538">
<ele>8.2</ele>
<time>2018-05-27T08:40:17Z</time>
<speed>22.5</speed>
</trkpt>
<trkpt lat="55.553008" lon="12.225633">
<ele>8.7</ele>
<time>2018-05-27T08:40:18Z</time>
<speed>22.2</speed>
</trkpt>
<trkpt lat="55.553195" lon="12.225740">
<ele>9.0</ele>
<time>2018-05-27T08:40:19Z</time>
<speed>22.2</speed>
</trkpt>
<trkpt lat="55.553395" lon="12.225835">
<ele>9.4</ele>
<time>2018-05-27T08:40:20Z</time>
<speed>21.9</speed>
</trkpt>
<trkpt lat="55.553583" lon="12.225926">
<ele>9.6</ele>
<time>2018-05-27T08:40:21Z</time>
<speed>21.9</speed>
</trkpt>
<trkpt lat="55.553784" lon="12.226021">
<ele>10.1</ele>
<time>2018-05-27T08:40:22Z</time>
<speed>21.9</speed>
</trkpt>
<trkpt lat="55.553972" lon="12.226112">
<ele>10.2</ele>
<time>2018-05-27T08:40:23Z</time>
<speed>21.9</speed>
</trkpt>
<trkpt lat="55.554167" lon="12.226207">
<ele>9.9</ele>
<time>2018-05-27T08:40:24Z</time>
<speed>21.9</speed>
</trkpt>
<trkpt lat="55.554356" lon="12.226298">
<ele>10.1</ele>
<time>2018-05-27T08:40:25Z</time>
<speed>21.9</speed>
</trkpt>
<trkpt lat="55.554547" lon="12.226405">
<ele>11.2</ele>
<time>2018-05-27T08:40:26Z</time>
<speed>21.9</speed>
</trkpt>
<trkpt lat="55.554741" lon="12.226515">
<ele>10.9</ele>
<time>2018-05-27T08:40:27Z</time>
<speed>22.2</speed>
</trkpt>
<trkpt lat="55.554929" lon="12.226607">
<ele>11.1</ele>
<time>2018-05-27T08:40:28Z</time>
<speed>22.2</speed>
</trkpt>
<trkpt lat="55.555123" lon="12.226717">
<ele>10.9</ele>
<time>2018-05-27T08:40:29Z</time>
<speed>22.2</speed>
</trkpt>
<trkpt lat="55.555316" lon="12.226808">
<ele>11.9</ele>
<time>2018-05-27T08:40:30Z</time>
<speed>21.9</speed>
</trkpt>
<trkpt lat="55.555505" lon="12.226918">
<ele>10.8</ele>
<time>2018-05-27T08:40:31Z</time>
<speed>21.9</speed>
</trkpt>
<trkpt lat="55.555691" lon="12.227025">
<ele>11.1</ele>
<time>2018-05-27T08:40:32Z</time>
<speed>21.9</speed>
</trkpt>
<trkpt lat="55.555878" lon="12.227132">
<ele>11.4</ele>
<time>2018-05-27T08:40:33Z</time>
<speed>21.9</speed>
</trkpt>
<trkpt lat="55.556072" lon="12.227242">
<ele>11.2</ele>
<time>2018-05-27T08:40:34Z</time>
<speed>21.9</speed>
</trkpt>
<trkpt lat="55.556263" lon="12.227349">
<ele>12.3</ele>
<time>2018-05-27T08:40:35Z</time>
<speed>22.2</speed>
</trkpt>
<trkpt lat="55.556448" lon="12.227472">
<ele>12.7</ele>
<time>2018-05-27T08:40:36Z</time>
<speed>22.2</speed>
</trkpt>
<trkpt lat="55.556642" lon="12.227582">
<ele>12.5</ele>
<time>2018-05-27T08:40:37Z</time>
<speed>22.2</speed>
</trkpt>
<trkpt lat="55.556827" lon="12.227704">
<ele>12.9</ele>
<time>2018-05-27T08:40:38Z</time>
<speed>22.5</speed>
</trkpt>
<trkpt lat="55.557026" lon="12.227814">
<ele>13.5</ele>
<time>2018-05-27T08:40:39Z</time>
<speed>22.5</speed>
</trkpt>
<trkpt lat="55.557216" lon="12.227937">
<ele>14.8</ele>
<time>2018-05-27T08:40:40Z</time>
<speed>22.8</speed>
</trkpt>
<trkpt lat="55.557413" lon="12.228062">
<ele>15.4</ele>
<time>2018-05-27T08:40:41Z</time>
<speed>22.8</speed>
</trkpt>
<trkpt lat="55.557606" lon="12.228188">
<ele>15.3</ele>
<time>2018-05-27T08:40:42Z</time>
<speed>22.5</speed>
</trkpt>
<trkpt lat="55.557803" lon="12.228314">
<ele>16.0</ele>
<time>2018-05-27T08:40:43Z</time>
<speed>22.5</speed>
</trkpt>
<trkpt lat="55.557988" lon="12.228436">
<ele>16.4</ele>
<time>2018-05-27T08:40:44Z</time>
<speed>22.5</speed>
</trkpt>
<trkpt lat="55.558184" lon="12.228577">
<ele>17.3</ele>
<time>2018-05-27T08:40:45Z</time>
<speed>22.5</speed>
</trkpt>
<trkpt lat="55.558369" lon="12.228700">
<ele>17.7</ele>
<time>2018-05-27T08:40:46Z</time>
<speed>22.5</speed>
</trkpt>
<trkpt lat="55.558559" lon="12.228841">
<ele>17.7</ele>
<time>2018-05-27T08:40:47Z</time>
<speed>22.5</speed>
</trkpt>
<trkpt lat="55.558743" lon="12.228979">
<ele>18.2</ele>
<time>2018-05-27T08:40:48Z</time>
<speed>22.5</speed>
</trkpt>
<trkpt lat="55.558935" lon="12.229105">
<ele>18.1</ele>
<time>2018-05-27T08:40:49Z</time>
<speed>22.5</speed>
</trkpt>
<trkpt lat="55.559112" lon="12.229258">
<ele>17.9</ele>
<time>2018-05-27T08:40:50Z</time>
<speed>22.5</speed>
</trkpt>
<trkpt lat="55.559290" lon="12.229396">
<ele>17.7</ele>
<time>2018-05-27T08:40:51Z</time>
<speed>22.5</speed>
</trkpt>
<trkpt lat="55.559474" lon="12.229534">
<ele>18.2</ele>
<time>2018-05-27T08:40:52Z</time>
<speed>22.5</speed>
</trkpt>
<trkpt lat="55.559650" lon="12.229687">
<ele>18.1</ele>
<time>2018-05-27T08:40:53Z</time>
<speed>22.5</speed>
</trkpt>
<trkpt lat="55.559829" lon="12.229825">
<ele>17.8</ele>
<time>2018-05-27T08:40:54Z</time>
<speed>22.2</speed>
</trkpt>
<trkpt lat="55.560013" lon="12.229982">
<ele>17.1</ele>
<time>2018-05-27T08:40:55Z</time>
<speed>22.5</speed>
</trkpt>
<trkpt lat="55.560191" lon="12.230120">
<ele>16.8</ele>
<time>2018-05-27T08:40:56Z</time>
<speed>22.5</speed>
</trkpt>
<trkpt lat="55.560373" lon="12.230273">
<ele>17.5</ele>
<time>2018-05-27T08:40:57Z</time>
<speed>22.8</speed>
</trkpt>
<trkpt lat="55.560550" lon="12.230426">
<ele>17.3</ele>
<time>2018-05-27T08:40:58Z</time>
<speed>23.1</speed>
</trkpt>
<trkpt lat="55.560739" lon="12.230583">
<ele>17.4</ele>
<time>2018-05-27T08:40:59Z</time>
<speed>23.3</speed>
</trkpt>
<trkpt lat="55.560926" lon="12.230755">
<ele>17.6</ele>
<time>2018-05-27T08:41:00Z</time>
<speed>23.3</speed>
</trkpt>
<trkpt lat="55.561110" lon="12.230912">
<ele>16.9</ele>
<time>2018-05-27T08:41:01Z</time>
<speed>23.3</speed>
</trkpt>
<trkpt lat="55.561298" lon="12.231084">
<ele>17.2</ele>
<time>2018-05-27T08:41:02Z</time>
<speed>23.3</speed>
</trkpt>
<trkpt lat="55.561487" lon="12.231241">
<ele>17.3</ele>
<time>2018-05-27T08:41:03Z</time>
<speed>23.3</speed>
</trkpt>
<trkpt lat="55.561674" lon="12.231413">
<ele>17.5</ele>
<time>2018-05-27T08:41:04Z</time>
<speed>23.6</speed>
</trkpt>
<trkpt lat="55.561857" lon="12.231585">
<ele>16.9</ele>
<time>2018-05-27T08:41:05Z</time>
<speed>23.6</speed>
</trkpt>
<trkpt lat="55.562044" lon="12.231758">
<ele>17.2</ele>
<time>2018-05-27T08:41:06Z</time>
<speed>23.6</speed>
</trkpt>
<trkpt lat="55.562232" lon="12.231930">
<ele>17.4</ele>
<time>2018-05-27T08:41:07Z</time>
<speed>23.6</speed>
</trkpt>
<trkpt lat="55.562419" lon="12.232102">
<ele>17.6</ele>
<time>2018-05-27T08:41:08Z</time>
<speed>23.9</speed>
</trkpt>
<trkpt lat="55.562605" lon="12.232290">
<ele>18.0</ele>
<time>2018-05-27T08:41:09Z</time>
<speed>23.9</speed>
</trkpt>
<trkpt lat="55.562800" lon="12.232465">
<ele>17.7</ele>
<time>2018-05-27T08:41:10Z</time>
<speed>23.9</speed>
</trkpt>
<trkpt lat="55.562986" lon="12.232653">
<ele>18.0</ele>
<time>2018-05-27T08:41:11Z</time>
<speed>23.9</speed>
</trkpt>
<trkpt lat="55.563181" lon="12.232829">
<ele>17.7</ele>
<time>2018-05-27T08:41:12Z</time>
<speed>23.9</speed>
</trkpt>
<trkpt lat="55.563369" lon="12.233020">
<ele>16.7</ele>
<time>2018-05-27T08:41:13Z</time>
<speed>24.2</speed>
</trkpt>
<trkpt lat="55.563560" lon="12.233207">
<ele>17.9</ele>
<time>2018-05-27T08:41:14Z</time>
<speed>24.2</speed>
</trkpt>
<trkpt lat="55.563755" lon="12.233383">
<ele>17.6</ele>
<time>2018-05-27T08:41:15Z</time>
<speed>24.2</speed>
</trkpt>
<trkpt lat="55.563948" lon="12.233574">
<ele>17.4</ele>
<time>2018-05-27T08:41:16Z</time>
<speed>24.2</speed>
</trkpt>
<trkpt lat="55.564147" lon="12.233784">
<ele>16.7</ele>
<time>2018-05-27T08:41:17Z</time>
<speed>24.4</speed>
</trkpt>
<trkpt lat="55.564335" lon="12.233975">
<ele>15.7</ele>
<time>2018-05-27T08:41:18Z</time>
<speed>24.2</speed>
</trkpt>
<trkpt lat="55.564533" lon="12.234166">
<ele>16.3</ele>
<time>2018-05-27T08:41:19Z</time>
<speed>24.2</speed>
</trkpt>
<trkpt lat="55.564726" lon="12.234357">
<ele>16.1</ele>
<time>2018-05-27T08:41:20Z</time>
<speed>23.9</speed>
</trkpt>
<trkpt lat="55.564906" lon="12.234560">
<ele>15.8</ele>
<time>2018-05-27T08:41:21Z</time>
<speed>23.9</speed>
</trkpt>
<trkpt lat="55.565092" lon="12.234748">
<ele>16.1</ele>
<time>2018-05-27T08:41:22Z</time>
<speed>23.6</speed>
</trkpt>
<trkpt lat="55.565276" lon="12.234951">
<ele>16.6</ele>
<time>2018-05-27T08:41:23Z</time>
<speed>23.3</speed>
</trkpt>
<trkpt lat="55.565457" lon="12.235139">
<ele>16.1</ele>
<time>2018-05-27T08:41:24Z</time>
<speed>23.3</speed>
</trkpt>
<trkpt lat="55.565641" lon="12.235342">
<ele>16.6</ele>
<time>2018-05-27T08:41:25Z</time>
<speed>23.6</speed>
</trkpt>
<trkpt lat="55.565821" lon="12.235546">
<ele>16.3</ele>
<time>2018-05-27T08:41:26Z</time>
<speed>23.6</speed>
</trkpt>
<trkpt lat="55.566005" lon="12.235749">
<ele>16.8</ele>
<time>2018-05-27T08:41:27Z</time>
<speed>23.6</speed>
</trkpt>
<trkpt lat="55.566189" lon="12.235952">
<ele>17.2</ele>
<time>2018-05-27T08:41:28Z</time>
<speed>23.6</speed>
</trkpt>
<trkpt lat="55.566369" lon="12.236155">
<ele>16.9</ele>
<time>2018-05-27T08:41:29Z</time>
<speed>23.9</speed>
</trkpt>
<trkpt lat="55.566544" lon="12.236371">
<ele>18.0</ele>
<time>2018-05-27T08:41:30Z</time>
<speed>23.9</speed>
</trkpt>
<trkpt lat="55.566723" lon="12.236574">
<ele>17.7</ele>
<time>2018-05-27T08:41:31Z</time>
<speed>23.9</speed>
</trkpt>
<trkpt lat="55.566901" lon="12.236793">
<ele>17.5</ele>
<time>2018-05-27T08:41:32Z</time>
<speed>23.3</speed>
</trkpt>
<trkpt lat="55.567072" lon="12.237008">
<ele>17.8</ele>
<time>2018-05-27T08:41:33Z</time>
<speed>23.1</speed>
</trkpt>
<trkpt lat="55.567242" lon="12.237223">
<ele>18.1</ele>
<time>2018-05-27T08:41:34Z</time>
<speed>22.8</speed>
</trkpt>
<trkpt lat="55.567409" lon="12.237423">
<ele>17.5</ele>
<time>2018-05-27T08:41:35Z</time>
<speed>22.8</speed>
</trkpt>
<trkpt lat="55.567580" lon="12.237639">
<ele>17.8</ele>
<time>2018-05-27T08:41:36Z</time>
<speed>22.8</speed>
</trkpt>
<trkpt lat="55.567739" lon="12.237835">
<ele>17.7</ele>
<time>2018-05-27T08:41:37Z</time>
<speed>22.5</speed>
</trkpt>
<trkpt lat="55.567910" lon="12.238051">
<ele>18.1</ele>
<time>2018-05-27T08:41:38Z</time>
<speed>22.5</speed>
</trkpt>
<trkpt lat="55.568075" lon="12.238266">
<ele>17.6</ele>
<time>2018-05-27T08:41:39Z</time>
<speed>22.5</speed>
</trkpt>
<trkpt lat="55.568240" lon="12.238463">
<ele>18.3</ele>
<time>2018-05-27T08:41:40Z</time>
<speed>22.5</speed>
</trkpt>
<trkpt lat="55.568404" lon="12.238693">
<ele>17.9</ele>
<time>2018-05-27T08:41:41Z</time>
<speed>22.5</speed>
</trkpt>
<trkpt lat="55.568574" lon="12.238909">
<ele>18.3</ele>
<time>2018-05-27T08:41:42Z</time>
<speed>22.8</speed>
</trkpt>
<trkpt lat="55.568732" lon="12.239121">
<ele>18.3</ele>
<time>2018-05-27T08:41:43Z</time>
<speed>23.1</speed>
</trkpt>
<trkpt lat="55.568901" lon="12.239352">
<ele>18.8</ele>
<time>2018-05-27T08:41:44Z</time>
<speed>23.1</speed>
</trkpt>
<trkpt lat="55.569065" lon="12.239583">
<ele>18.4</ele>
<time>2018-05-27T08:41:45Z</time>
<speed>23.1</speed>
</trkpt>
<trkpt lat="55.569229" lon="12.239814">
<ele>18.0</ele>
<time>2018-05-27T08:41:46Z</time>
<speed>23.1</speed>
</trkpt>
<trkpt lat="55.569398" lon="12.240044">
<ele>18.4</ele>
<time>2018-05-27T08:41:47Z</time>
<speed>23.1</speed>
</trkpt>
<trkpt lat="55.569562" lon="12.240275">
<ele>18.1</ele>
<time>2018-05-27T08:41:48Z</time>
<speed>23.1</speed>
</trkpt>
<trkpt lat="55.569718" lon="12.240503">
<ele>18.2</ele>
<time>2018-05-27T08:41:49Z</time>
<speed>23.1</speed>
</trkpt>
<trkpt lat="55.569887" lon="12.240734">
<ele>18.7</ele>
<time>2018-05-27T08:41:50Z</time>
<speed>23.1</speed>
</trkpt>
<trkpt lat="55.570051" lon="12.240965">
<ele>18.3</ele>
<time>2018-05-27T08:41:51Z</time>
<speed>23.1</speed>
</trkpt>
<trkpt lat="55.570213" lon="12.241211">
<ele>18.1</ele>
<time>2018-05-27T08:41:52Z</time>
<speed>23.1</speed>
</trkpt>
<trkpt lat="55.570370" lon="12.241439">
<ele>18.2</ele>
<time>2018-05-27T08:41:53Z</time>
<speed>22.8</speed>
</trkpt>
<trkpt lat="55.570532" lon="12.241685">
<ele>18.0</ele>
<time>2018-05-27T08:41:54Z</time>
<speed>22.8</speed>
</trkpt>
<trkpt lat="55.570687" lon="12.241928">
<ele>18.3</ele>
<time>2018-05-27T08:41:55Z</time>
<speed>22.8</speed>
</trkpt>
<trkpt lat="55.570851" lon="12.242159">
<ele>17.9</ele>
<time>2018-05-27T08:41:56Z</time>
<speed>22.8</speed>
</trkpt>
<trkpt lat="55.571008" lon="12.242405">
<ele>16.8</ele>
<time>2018-05-27T08:41:57Z</time>
<speed>22.8</speed>
</trkpt>
<trkpt lat="55.571163" lon="12.242648">
<ele>17.1</ele>
<time>2018-05-27T08:41:58Z</time>
<speed>22.8</speed>
</trkpt>
<trkpt lat="55.571318" lon="12.242892">
<ele>17.4</ele>
<time>2018-05-27T08:41:59Z</time>
<speed>22.8</speed>
</trkpt>
<trkpt lat="55.571468" lon="12.243135">
<ele>16.9</ele>
<time>2018-05-27T08:42:00Z</time>
<speed>22.8</speed>
</trkpt>
<trkpt lat="55.571623" lon="12.243378">
<ele>17.1</ele>
<time>2018-05-27T08:42:01Z</time>
<speed>22.8</speed>
</trkpt>
<trkpt lat="55.571777" lon="12.243636">
<ele>17.6</ele>
<time>2018-05-27T08:42:02Z</time>
<speed>22.8</speed>
</trkpt>
<trkpt lat="55.571927" lon="12.243879">
<ele>17.0</ele>
<time>2018-05-27T08:42:03Z</time>
<speed>23.1</speed>
</trkpt>
<trkpt lat="55.572087" lon="12.244141">
<ele>16.9</ele>
<time>2018-05-27T08:42:04Z</time>
<speed>23.1</speed>
</trkpt>
<trkpt lat="55.572237" lon="12.244384">
<ele>16.4</ele>
<time>2018-05-27T08:42:05Z</time>
<speed>23.1</speed>
</trkpt>
<trkpt lat="55.572391" lon="12.244643">
<ele>16.8</ele>
<time>2018-05-27T08:42:06Z</time>
<speed>23.1</speed>
</trkpt>
<trkpt lat="55.572540" lon="12.244886">
<ele>16.2</ele>
<time>2018-05-27T08:42:07Z</time>
<speed>22.8</speed>
</trkpt>
<trkpt lat="55.572687" lon="12.245141">
<ele>17.2</ele>
<time>2018-05-27T08:42:08Z</time>
<speed>22.8</speed>
</trkpt>
<trkpt lat="55.572837" lon="12.245384">
<ele>16.7</ele>
<time>2018-05-27T08:42:09Z</time>
<speed>22.8</speed>
</trkpt>
<trkpt lat="55.572990" lon="12.245643">
<ele>17.1</ele>
<time>2018-05-27T08:42:10Z</time>
<speed>22.8</speed>
</trkpt>
<trkpt lat="55.573133" lon="12.245901">
<ele>15.9</ele>
<time>2018-05-27T08:42:11Z</time>
<speed>22.8</speed>
</trkpt>
<trkpt lat="55.573288" lon="12.246144">
<ele>16.2</ele>
<time>2018-05-27T08:42:12Z</time>
<speed>22.8</speed>
</trkpt>
<trkpt lat="55.573429" lon="12.246400">
<ele>16.3</ele>
<time>2018-05-27T08:42:13Z</time>
<speed>22.8</speed>
</trkpt>
<trkpt lat="55.573576" lon="12.246655">
<ele>17.3</ele>
<time>2018-05-27T08:42:14Z</time>
<speed>22.8</speed>
</trkpt>
<trkpt lat="55.573717" lon="12.246910">
<ele>17.4</ele>
<time>2018-05-27T08:42:15Z</time>
<speed>22.8</speed>
</trkpt>
<trkpt lat="55.573853" lon="12.247165">
<ele>16.7</ele>
<time>2018-05-27T08:42:16Z</time>
<speed>22.8</speed>
</trkpt>
<trkpt lat="55.573994" lon="12.247420">
<ele>16.9</ele>
<time>2018-05-27T08:42:17Z</time>
<speed>22.8</speed>
</trkpt>
<trkpt lat="55.574135" lon="12.247676">
<ele>17.0</ele>
<time>2018-05-27T08:42:18Z</time>
<speed>22.8</speed>
</trkpt>
<trkpt lat="55.574275" lon="12.247946">
<ele>17.3</ele>
<time>2018-05-27T08:42:19Z</time>
<speed>22.8</speed>
</trkpt>
<trkpt lat="55.574416" lon="12.248201">
<ele>17.4</ele>
<time>2018-05-27T08:42:20Z</time>
<speed>22.8</speed>
</trkpt>
<trkpt lat="55.574555" lon="12.248472">
<ele>17.7</ele>
<time>2018-05-27T08:42:21Z</time>
<speed>22.8</speed>
</trkpt>
<trkpt lat="55.574704" lon="12.248731">
<ele>17.3</ele>
<time>2018-05-27T08:42:22Z</time>
<speed>23.1</speed>
</trkpt>
<trkpt lat="55.574845" lon="12.248986">
<ele>17.4</ele>
<time>2018-05-27T08:42:23Z</time>
<speed>23.1</speed>
</trkpt>
<trkpt lat="55.574986" lon="12.249241">
<ele>17.6</ele>
<time>2018-05-27T08:42:24Z</time>
<speed>23.1</speed>
</trkpt>
<trkpt lat="55.575134" lon="12.249500">
<ele>17.2</ele>
<time>2018-05-27T08:42:25Z</time>
<speed>23.1</speed>
</trkpt>
<trkpt lat="55.575288" lon="12.249758">
<ele>17.6</ele>
<time>2018-05-27T08:42:26Z</time>
<speed>23.1</speed>
</trkpt>
<trkpt lat="55.575429" lon="12.250014">
<ele>17.7</ele>
<time>2018-05-27T08:42:27Z</time>
<speed>22.5</speed>
</trkpt>
<trkpt lat="55.575573" lon="12.250257">
<ele>16.4</ele>
<time>2018-05-27T08:42:28Z</time>
<speed>22.2</speed>
</trkpt>
<trkpt lat="55.575715" lon="12.250512">
<ele>16.5</ele>
<time>2018-05-27T08:42:29Z</time>
<speed>22.2</speed>
</trkpt>
<trkpt lat="55.575857" lon="12.250752">
<ele>16.5</ele>
<time>2018-05-27T08:42:30Z</time>
<speed>21.9</speed>
</trkpt>
<trkpt lat="55.576000" lon="12.250991">
<ele>16.6</ele>
<time>2018-05-27T08:42:31Z</time>
<speed>21.9</speed>
</trkpt>
<trkpt lat="55.576143" lon="12.251231">
<ele>16.6</ele>
<time>2018-05-27T08:42:32Z</time>
<speed>21.7</speed>
</trkpt>
<trkpt lat="55.576285" lon="12.251471">
<ele>16.6</ele>
<time>2018-05-27T08:42:33Z</time>
<speed>21.7</speed>
</trkpt>
<trkpt lat="55.576430" lon="12.251695">
<ele>16.5</ele>
<time>2018-05-27T08:42:34Z</time>
<speed>21.7</speed>
</trkpt>
<trkpt lat="55.576572" lon="12.251935">
<ele>16.5</ele>
<time>2018-05-27T08:42:35Z</time>
<speed>21.4</speed>
</trkpt>
<trkpt lat="55.576709" lon="12.252156">
<ele>17.0</ele>
<time>2018-05-27T08:42:36Z</time>
<speed>21.4</speed>
</trkpt>
<trkpt lat="55.576857" lon="12.252396">
<ele>17.8</ele>
<time>2018-05-27T08:42:37Z</time>
<speed>21.4</speed>
</trkpt>
<trkpt lat="55.577001" lon="12.252620">
<ele>17.7</ele>
<time>2018-05-27T08:42:38Z</time>
<speed>21.4</speed>
</trkpt>
<trkpt lat="55.577151" lon="12.252844">
<ele>18.5</ele>
<time>2018-05-27T08:42:39Z</time>
<speed>21.4</speed>
</trkpt>
<trkpt lat="55.577288" lon="12.253065">
<ele>18.9</ele>
<time>2018-05-27T08:42:40Z</time>
<speed>21.4</speed>
</trkpt>
<trkpt lat="55.577444" lon="12.253293">
<ele>19.1</ele>
<time>2018-05-27T08:42:41Z</time>
<speed>21.4</speed>
</trkpt>
<trkpt lat="55.577593" lon="12.253517">
<ele>19.8</ele>
<time>2018-05-27T08:42:42Z</time>
<speed>21.7</speed>
</trkpt>
<trkpt lat="55.577743" lon="12.253741">
<ele>20.6</ele>
<time>2018-05-27T08:42:43Z</time>
<speed>21.9</speed>
</trkpt>
<trkpt lat="55.577894" lon="12.253969">
<ele>19.9</ele>
<time>2018-05-27T08:42:44Z</time>
<speed>21.9</speed>
</trkpt>
<trkpt lat="55.578045" lon="12.254178">
<ele>20.5</ele>
<time>2018-05-27T08:42:45Z</time>
<speed>21.9</speed>
</trkpt>
<trkpt lat="55.578202" lon="12.254405">
<ele>20.7</ele>
<time>2018-05-27T08:42:46Z</time>
<speed>21.9</speed>
</trkpt>
<trkpt lat="55.578358" lon="12.254633">
<ele>20.9</ele>
<time>2018-05-27T08:42:47Z</time>
<speed>22.2</speed>
</trkpt>
<trkpt lat="55.578516" lon="12.254845">
<ele>21.0</ele>
<time>2018-05-27T08:42:48Z</time>
<speed>22.2</speed>
</trkpt>
<trkpt lat="55.578680" lon="12.255076">
<ele>20.6</ele>
<time>2018-05-27T08:42:49Z</time>
<speed>22.5</speed>
</trkpt>
<trkpt lat="55.578837" lon="12.255304">
<ele>20.8</ele>
<time>2018-05-27T08:42:50Z</time>
<speed>22.5</speed>
</trkpt>
<trkpt lat="55.579001" lon="12.255535">
<ele>20.4</ele>
<time>2018-05-27T08:42:51Z</time>
<speed>22.5</speed>
</trkpt>
<trkpt lat="55.579159" lon="12.255747">
<ele>20.4</ele>
<time>2018-05-27T08:42:52Z</time>
<speed>22.8</speed>
</trkpt>
<trkpt lat="55.579322" lon="12.255978">
<ele>20.1</ele>
<time>2018-05-27T08:42:53Z</time>
<speed>23.1</speed>
</trkpt>
<trkpt lat="55.579491" lon="12.256209">
<ele>20.5</ele>
<time>2018-05-27T08:42:54Z</time>
<speed>23.1</speed>
</trkpt>
<trkpt lat="55.579662" lon="12.256425">
<ele>20.8</ele>
<time>2018-05-27T08:42:55Z</time>
<speed>23.1</speed>
</trkpt>
<trkpt lat="55.579826" lon="12.256656">
<ele>20.5</ele>
<time>2018-05-27T08:42:56Z</time>
<speed>23.1</speed>
</trkpt>
<trkpt lat="55.579991" lon="12.256871">
<ele>20.0</ele>
<time>2018-05-27T08:42:57Z</time>
<speed>23.3</speed>
</trkpt>
<trkpt lat="55.580160" lon="12.257102">
<ele>20.4</ele>
<time>2018-05-27T08:42:58Z</time>
<speed>23.1</speed>
</trkpt>
<trkpt lat="55.580324" lon="12.257333">
<ele>20.1</ele>
<time>2018-05-27T08:42:59Z</time>
<speed>23.1</speed>
</trkpt>
<trkpt lat="55.580496" lon="12.257552">
<ele>19.0</ele>
<time>2018-05-27T08:43:00Z</time>
<speed>23.3</speed>
</trkpt>
<trkpt lat="55.580667" lon="12.257768">
<ele>19.3</ele>
<time>2018-05-27T08:43:01Z</time>
<speed>23.3</speed>
</trkpt>
<trkpt lat="55.580838" lon="12.258002">
<ele>18.4</ele>
<time>2018-05-27T08:43:02Z</time>
<speed>23.6</speed>
</trkpt>
<trkpt lat="55.581008" lon="12.258218">
<ele>18.8</ele>
<time>2018-05-27T08:43:03Z</time>
<speed>23.6</speed>
</trkpt>
<trkpt lat="55.581191" lon="12.258436">
<ele>19.4</ele>
<time>2018-05-27T08:43:04Z</time>
<speed>23.9</speed>
</trkpt>
<trkpt lat="55.581370" lon="12.258640">
<ele>19.0</ele>
<time>2018-05-27T08:43:05Z</time>
<speed>23.9</speed>
</trkpt>
<trkpt lat="55.581548" lon="12.258859">
<ele>18.8</ele>
<time>2018-05-27T08:43:06Z</time>
<speed>23.9</speed>
</trkpt>
<trkpt lat="55.581731" lon="12.259078">
<ele>19.4</ele>
<time>2018-05-27T08:43:07Z</time>
<speed>24.2</speed>
</trkpt>
<trkpt lat="55.581908" lon="12.259297">
<ele>19.2</ele>
<time>2018-05-27T08:43:08Z</time>
<speed>24.4</speed>
</trkpt>
<trkpt lat="55.582086" lon="12.259516">
<ele>19.0</ele>
<time>2018-05-27T08:43:09Z</time>
<speed>24.2</speed>
</trkpt>
<trkpt lat="55.582278" lon="12.259722">
<ele>18.9</ele>
<time>2018-05-27T08:43:10Z</time>
<speed>24.7</speed>
</trkpt>
<trkpt lat="55.582460" lon="12.259941">
<ele>19.5</ele>
<time>2018-05-27T08:43:11Z</time>
<speed>24.7</speed>
</trkpt>
<trkpt lat="55.582645" lon="12.260164">
<ele>18.7</ele>
<time>2018-05-27T08:43:12Z</time>
<speed>25.0</speed>
</trkpt>
<trkpt lat="55.582835" lon="12.260386">
<ele>18.8</ele>
<time>2018-05-27T08:43:13Z</time>
<speed>25.0</speed>
</trkpt>
<trkpt lat="55.583025" lon="12.260608">
<ele>18.8</ele>
<time>2018-05-27T08:43:14Z</time>
<speed>24.7</speed>
</trkpt>
<trkpt lat="55.583217" lon="12.260815">
<ele>18.8</ele>
<time>2018-05-27T08:43:15Z</time>
<speed>24.7</speed>
</trkpt>
<trkpt lat="55.583400" lon="12.261053">
<ele>18.1</ele>
<time>2018-05-27T08:43:16Z</time>
<speed>24.7</speed>
</trkpt>
<trkpt lat="55.583578" lon="12.261272">
<ele>17.9</ele>
<time>2018-05-27T08:43:17Z</time>
<speed>24.4</speed>
</trkpt>
<trkpt lat="55.583754" lon="12.261506">
<ele>17.8</ele>
<time>2018-05-27T08:43:18Z</time>
<speed>24.2</speed>
</trkpt>
<trkpt lat="55.583944" lon="12.261729">
<ele>17.9</ele>
<time>2018-05-27T08:43:19Z</time>
<speed>24.2</speed>
</trkpt>
<trkpt lat="55.584120" lon="12.261963">
<ele>17.8</ele>
<time>2018-05-27T08:43:20Z</time>
<speed>24.2</speed>
</trkpt>
<trkpt lat="55.584298" lon="12.262182">
<ele>17.5</ele>
<time>2018-05-27T08:43:21Z</time>
<speed>24.2</speed>
</trkpt>
<trkpt lat="55.584467" lon="12.262413">
<ele>18.0</ele>
<time>2018-05-27T08:43:22Z</time>
<speed>23.6</speed>
</trkpt>
<trkpt lat="55.584638" lon="12.262647">
<ele>17.1</ele>
<time>2018-05-27T08:43:23Z</time>
<speed>23.3</speed>
</trkpt>
<trkpt lat="55.584808" lon="12.262863">
<ele>17.4</ele>
<time>2018-05-27T08:43:24Z</time>
<speed>23.3</speed>
</trkpt>
<trkpt lat="55.584972" lon="12.263094">
<ele>17.0</ele>
<time>2018-05-27T08:43:25Z</time>
<speed>23.1</speed>
</trkpt>
<trkpt lat="55.585136" lon="12.263325">
<ele>16.7</ele>
<time>2018-05-27T08:43:26Z</time>
<speed>23.1</speed>
</trkpt>
<trkpt lat="55.585299" lon="12.263537">
<ele>17.5</ele>
<time>2018-05-27T08:43:27Z</time>
<speed>22.8</speed>
</trkpt>
<trkpt lat="55.585463" lon="12.263768">
<ele>17.2</ele>
<time>2018-05-27T08:43:28Z</time>
<speed>22.5</speed>
</trkpt>
<trkpt lat="55.585619" lon="12.263996">
<ele>17.4</ele>
<time>2018-05-27T08:43:29Z</time>
<speed>22.5</speed>
</trkpt>
<trkpt lat="55.585771" lon="12.264224">
<ele>16.7</ele>
<time>2018-05-27T08:43:30Z</time>
<speed>22.5</speed>
</trkpt>
<trkpt lat="55.585927" lon="12.264452">
<ele>16.9</ele>
<time>2018-05-27T08:43:31Z</time>
<speed>22.5</speed>
</trkpt>
<trkpt lat="55.586084" lon="12.264679">
<ele>17.1</ele>
<time>2018-05-27T08:43:32Z</time>
<speed>22.2</speed>
</trkpt>
<trkpt lat="55.586240" lon="12.264907">
<ele>17.3</ele>
<time>2018-05-27T08:43:33Z</time>
<speed>22.2</speed>
</trkpt>
<trkpt lat="55.586397" lon="12.265135">
<ele>17.4</ele>
<time>2018-05-27T08:43:34Z</time>
<speed>22.2</speed>
</trkpt>
<trkpt lat="55.586548" lon="12.265363">
<ele>16.8</ele>
<time>2018-05-27T08:43:35Z</time>
<speed>22.2</speed>
</trkpt>
<trkpt lat="55.586698" lon="12.265587">
<ele>17.5</ele>
<time>2018-05-27T08:43:36Z</time>
<speed>22.2</speed>
</trkpt>
<trkpt lat="55.586854" lon="12.265815">
<ele>17.7</ele>
<time>2018-05-27T08:43:37Z</time>
<speed>22.5</speed>
</trkpt>
<trkpt lat="55.587009" lon="12.266058">
<ele>18.0</ele>
<time>2018-05-27T08:43:38Z</time>
<speed>22.8</speed>
</trkpt>
<trkpt lat="55.587159" lon="12.266301">
<ele>17.5</ele>
<time>2018-05-27T08:43:39Z</time>
<speed>22.8</speed>
</trkpt>
<trkpt lat="55.587314" lon="12.266544">
<ele>17.8</ele>
<time>2018-05-27T08:43:40Z</time>
<speed>23.1</speed>
</trkpt>
<trkpt lat="55.587469" lon="12.266788">
<ele>18.1</ele>
<time>2018-05-27T08:43:41Z</time>
<speed>23.1</speed>
</trkpt>
<trkpt lat="55.587631" lon="12.267034">
<ele>17.8</ele>
<time>2018-05-27T08:43:42Z</time>
<speed>23.1</speed>
</trkpt>
<trkpt lat="55.587786" lon="12.267278">
<ele>18.1</ele>
<time>2018-05-27T08:43:43Z</time>
<speed>23.1</speed>
</trkpt>
<trkpt lat="55.587934" lon="12.267536">
<ele>17.7</ele>
<time>2018-05-27T08:43:44Z</time>
<speed>23.1</speed>
</trkpt>
<trkpt lat="55.588089" lon="12.267780">
<ele>18.0</ele>
<time>2018-05-27T08:43:45Z</time>
<speed>23.1</speed>
</trkpt>
<trkpt lat="55.588238" lon="12.268038">
<ele>17.6</ele>
<time>2018-05-27T08:43:46Z</time>
<speed>23.1</speed>
</trkpt>
<trkpt lat="55.588400" lon="12.268285">
<ele>17.4</ele>
<time>2018-05-27T08:43:47Z</time>
<speed>23.3</speed>
</trkpt>
<trkpt lat="55.588553" lon="12.268544">
<ele>17.8</ele>
<time>2018-05-27T08:43:48Z</time>
<speed>23.3</speed>
</trkpt>
<trkpt lat="55.588702" lon="12.268802">
<ele>17.4</ele>
<time>2018-05-27T08:43:49Z</time>
<speed>23.6</speed>
</trkpt>
<trkpt lat="55.588855" lon="12.269061">
<ele>17.8</ele>
<time>2018-05-27T08:43:50Z</time>
<speed>23.6</speed>
</trkpt>
<trkpt lat="55.589014" lon="12.269339">
<ele>17.8</ele>
<time>2018-05-27T08:43:51Z</time>
<speed>23.6</speed>
</trkpt>
<trkpt lat="55.589162" lon="12.269598">
<ele>17.4</ele>
<time>2018-05-27T08:43:52Z</time>
<speed>23.9</speed>
</trkpt>
<trkpt lat="55.589314" lon="12.269872">
<ele>18.0</ele>
<time>2018-05-27T08:43:53Z</time>
<speed>23.9</speed>
</trkpt>
<trkpt lat="55.589470" lon="12.270134">
<ele>17.0</ele>
<time>2018-05-27T08:43:54Z</time>
<speed>23.6</speed>
</trkpt>
<trkpt lat="55.589614" lon="12.270405">
<ele>18.1</ele>
<time>2018-05-27T08:43:55Z</time>
<speed>23.6</speed>
</trkpt>
<trkpt lat="55.589761" lon="12.270679">
<ele>17.8</ele>
<time>2018-05-27T08:43:56Z</time>
<speed>23.6</speed>
</trkpt>
<trkpt lat="55.589913" lon="12.270953">
<ele>18.4</ele>
<time>2018-05-27T08:43:57Z</time>
<speed>23.3</speed>
</trkpt>
<trkpt lat="55.590054" lon="12.271209">
<ele>18.5</ele>
<time>2018-05-27T08:43:58Z</time>
<speed>23.3</speed>
</trkpt>
<trkpt lat="55.590200" lon="12.271483">
<ele>18.3</ele>
<time>2018-05-27T08:43:59Z</time>
<speed>23.3</speed>
</trkpt>
<trkpt lat="55.590335" lon="12.271754">
<ele>17.7</ele>
<time>2018-05-27T08:44:00Z</time>
<speed>23.1</speed>
</trkpt>
<trkpt lat="55.590469" lon="12.272025">
<ele>17.1</ele>
<time>2018-05-27T08:44:01Z</time>
<speed>23.1</speed>
</trkpt>
<trkpt lat="55.590604" lon="12.272296">
<ele>16.6</ele>
<time>2018-05-27T08:44:02Z</time>
<speed>22.8</speed>
</trkpt>
<trkpt lat="55.590737" lon="12.272582">
<ele>16.2</ele>
<time>2018-05-27T08:44:03Z</time>
<speed>22.8</speed>
</trkpt>
<trkpt lat="55.590871" lon="12.272853">
<ele>15.6</ele>
<time>2018-05-27T08:44:04Z</time>
<speed>22.8</speed>
</trkpt>
<trkpt lat="55.591003" lon="12.273121">
<ele>16.4</ele>
<time>2018-05-27T08:44:05Z</time>
<speed>22.5</speed>
</trkpt>
<trkpt lat="55.591138" lon="12.273392">
<ele>15.9</ele>
<time>2018-05-27T08:44:06Z</time>
<speed>22.5</speed>
</trkpt>
<trkpt lat="55.591270" lon="12.273659">
<ele>16.7</ele>
<time>2018-05-27T08:44:07Z</time>
<speed>22.5</speed>
</trkpt>
<trkpt lat="55.591408" lon="12.273945">
<ele>17.1</ele>
<time>2018-05-27T08:44:08Z</time>
<speed>22.5</speed>
</trkpt>
<trkpt lat="55.591535" lon="12.274213">
<ele>17.1</ele>
<time>2018-05-27T08:44:09Z</time>
<speed>22.8</speed>
</trkpt>
<trkpt lat="55.591669" lon="12.274484">
<ele>16.5</ele>
<time>2018-05-27T08:44:10Z</time>
<speed>22.8</speed>
</trkpt>
<trkpt lat="55.591800" lon="12.274767">
<ele>17.5</ele>
<time>2018-05-27T08:44:11Z</time>
<speed>22.8</speed>
</trkpt>
<trkpt lat="55.591934" lon="12.275038">
<ele>16.9</ele>
<time>2018-05-27T08:44:12Z</time>
<speed>22.8</speed>
</trkpt>
<trkpt lat="55.592065" lon="12.275321">
<ele>17.9</ele>
<time>2018-05-27T08:44:13Z</time>
<speed>23.1</speed>
</trkpt>
<trkpt lat="55.592198" lon="12.275607">
<ele>17.4</ele>
<time>2018-05-27T08:44:14Z</time>
<speed>23.3</speed>
</trkpt>
<trkpt lat="55.592331" lon="12.275894">
<ele>17.0</ele>
<time>2018-05-27T08:44:15Z</time>
<speed>22.8</speed>
</trkpt>
<trkpt lat="55.592458" lon="12.276161">
<ele>17.0</ele>
<time>2018-05-27T08:44:16Z</time>
<speed>22.8</speed>
</trkpt>
<trkpt lat="55.592591" lon="12.276448">
<ele>16.6</ele>
<time>2018-05-27T08:44:17Z</time>
<speed>22.8</speed>
</trkpt>
<trkpt lat="55.592711" lon="12.276731">
<ele>15.9</ele>
<time>2018-05-27T08:44:18Z</time>
<speed>22.5</speed>
</trkpt>
<trkpt lat="55.592833" lon="12.276998">
<ele>15.1</ele>
<time>2018-05-27T08:44:19Z</time>
<speed>22.5</speed>
</trkpt>
<trkpt lat="55.592961" lon="12.277285">
<ele>13.8</ele>
<time>2018-05-27T08:44:20Z</time>
<speed>22.5</speed>
</trkpt>
<trkpt lat="55.593087" lon="12.277568">
<ele>13.9</ele>
<time>2018-05-27T08:44:21Z</time>
<speed>22.5</speed>
</trkpt>
<trkpt lat="55.593209" lon="12.277836">
<ele>13.1</ele>
<time>2018-05-27T08:44:22Z</time>
<speed>22.2</speed>
</trkpt>
<trkpt lat="55.593329" lon="12.278119">
<ele>12.4</ele>
<time>2018-05-27T08:44:23Z</time>
<speed>22.2</speed>
</trkpt>
<trkpt lat="55.593451" lon="12.278386">
<ele>11.6</ele>
<time>2018-05-27T08:44:24Z</time>
<speed>22.2</speed>
</trkpt>
<trkpt lat="55.593577" lon="12.278669">
<ele>11.7</ele>
<time>2018-05-27T08:44:25Z</time>
<speed>21.9</speed>
</trkpt>
<trkpt lat="55.593697" lon="12.278952">
<ele>11.0</ele>
<time>2018-05-27T08:44:26Z</time>
<speed>21.9</speed>
</trkpt>
<trkpt lat="55.593811" lon="12.279232">
<ele>10.8</ele>
<time>2018-05-27T08:44:27Z</time>
<speed>21.9</speed>
</trkpt>
<trkpt lat="55.593924" lon="12.279512">
<ele>10.7</ele>
<time>2018-05-27T08:44:28Z</time>
<speed>21.9</speed>
</trkpt>
<trkpt lat="55.594049" lon="12.279795">
<ele>10.8</ele>
<time>2018-05-27T08:44:29Z</time>
<speed>21.9</speed>
</trkpt>
<trkpt lat="55.594163" lon="12.280075">
<ele>10.6</ele>
<time>2018-05-27T08:44:30Z</time>
<speed>21.9</speed>
</trkpt>
<trkpt lat="55.594282" lon="12.280373">
<ele>10.1</ele>
<time>2018-05-27T08:44:31Z</time>
<speed>21.9</speed>
</trkpt>
<trkpt lat="55.594395" lon="12.280653">
<ele>9.9</ele>
<time>2018-05-27T08:44:32Z</time>
<speed>22.2</speed>
</trkpt>
<trkpt lat="55.594507" lon="12.280948">
<ele>9.9</ele>
<time>2018-05-27T08:44:33Z</time>
<speed>22.5</speed>
</trkpt>
<trkpt lat="55.594626" lon="12.281247">
<ele>9.3</ele>
<time>2018-05-27T08:44:34Z</time>
<speed>22.5</speed>
</trkpt>
<trkpt lat="55.594742" lon="12.281542">
<ele>10.1</ele>
<time>2018-05-27T08:44:35Z</time>
<speed>22.8</speed>
</trkpt>
<trkpt lat="55.594861" lon="12.281840">
<ele>9.5</ele>
<time>2018-05-27T08:44:36Z</time>
<speed>22.8</speed>
</trkpt>
<trkpt lat="55.594973" lon="12.282136">
<ele>9.5</ele>
<time>2018-05-27T08:44:37Z</time>
<speed>22.8</speed>
</trkpt>
<trkpt lat="55.595083" lon="12.282446">
<ele>9.6</ele>
<time>2018-05-27T08:44:38Z</time>
<speed>23.1</speed>
</trkpt>
<trkpt lat="55.595193" lon="12.282757">
<ele>9.7</ele>
<time>2018-05-27T08:44:39Z</time>
<speed>23.1</speed>
</trkpt>
<trkpt lat="55.595310" lon="12.283071">
<ele>9.2</ele>
<time>2018-05-27T08:44:40Z</time>
<speed>23.1</speed>
</trkpt>
<trkpt lat="55.595420" lon="12.283382">
<ele>9.3</ele>
<time>2018-05-27T08:44:41Z</time>
<speed>23.1</speed>
</trkpt>
<trkpt lat="55.595531" lon="12.283693">
<ele>9.4</ele>
<time>2018-05-27T08:44:42Z</time>
<speed>23.3</speed>
</trkpt>
<trkpt lat="55.595648" lon="12.284007">
<ele>8.9</ele>
<time>2018-05-27T08:44:43Z</time>
<speed>23.3</speed>
</trkpt>
<trkpt lat="55.595756" lon="12.284333">
<ele>9.1</ele>
<time>2018-05-27T08:44:44Z</time>
<speed>23.6</speed>
</trkpt>
<trkpt lat="55.595867" lon="12.284644">
<ele>9.2</ele>
<time>2018-05-27T08:44:45Z</time>
<speed>23.6</speed>
</trkpt>
<trkpt lat="55.595982" lon="12.284973">
<ele>8.9</ele>
<time>2018-05-27T08:44:46Z</time>
<speed>23.6</speed>
</trkpt>
<trkpt lat="55.596091" lon="12.285300">
<ele>9.1</ele>
<time>2018-05-27T08:44:47Z</time>
<speed>23.9</speed>
</trkpt>
<trkpt lat="55.596207" lon="12.285629">
<ele>8.7</ele>
<time>2018-05-27T08:44:48Z</time>
<speed>23.9</speed>
</trkpt>
<trkpt lat="55.596315" lon="12.285955">
<ele>8.9</ele>
<time>2018-05-27T08:44:49Z</time>
<speed>23.9</speed>
</trkpt>
<trkpt lat="55.596427" lon="12.286270">
<ele>7.7</ele>
<time>2018-05-27T08:44:50Z</time>
<speed>23.9</speed>
</trkpt>
<trkpt lat="55.596536" lon="12.286596">
<ele>7.9</ele>
<time>2018-05-27T08:44:51Z</time>
<speed>23.9</speed>
</trkpt>
<trkpt lat="55.596643" lon="12.286938">
<ele>8.2</ele>
<time>2018-05-27T08:44:52Z</time>
<speed>23.9</speed>
</trkpt>
<trkpt lat="55.596746" lon="12.287264">
<ele>7.6</ele>
<time>2018-05-27T08:44:53Z</time>
<speed>23.6</speed>
</trkpt>
<trkpt lat="55.596855" lon="12.287590">
<ele>7.8</ele>
<time>2018-05-27T08:44:54Z</time>
<speed>23.6</speed>
</trkpt>
<trkpt lat="55.596958" lon="12.287916">
<ele>7.2</ele>
<time>2018-05-27T08:44:55Z</time>
<speed>23.6</speed>
</trkpt>
<trkpt lat="55.597054" lon="12.288239">
<ele>7.1</ele>
<time>2018-05-27T08:44:56Z</time>
<speed>23.6</speed>
</trkpt>
<trkpt lat="55.597156" lon="12.288581">
<ele>6.6</ele>
<time>2018-05-27T08:44:57Z</time>
<speed>23.6</speed>
</trkpt>
<trkpt lat="55.597252" lon="12.288904">
<ele>6.6</ele>
<time>2018-05-27T08:44:58Z</time>
<speed>23.3</speed>
</trkpt>
<trkpt lat="55.597354" lon="12.289246">
<ele>6.1</ele>
<time>2018-05-27T08:44:59Z</time>
<speed>23.1</speed>
</trkpt>
<trkpt lat="55.597450" lon="12.289568">
<ele>6.0</ele>
<time>2018-05-27T08:45:00Z</time>
<speed>23.1</speed>
</trkpt>
<trkpt lat="55.597552" lon="12.289891">
<ele>6.8</ele>
<time>2018-05-27T08:45:01Z</time>
<speed>23.1</speed>
</trkpt>
<trkpt lat="55.597648" lon="12.290214">
<ele>6.7</ele>
<time>2018-05-27T08:45:02Z</time>
<speed>23.3</speed>
</trkpt>
<trkpt lat="55.597751" lon="12.290541">
<ele>6.1</ele>
<time>2018-05-27T08:45:03Z</time>
<speed>23.3</speed>
</trkpt>
<trkpt lat="55.597846" lon="12.290879">
<ele>6.2</ele>
<time>2018-05-27T08:45:04Z</time>
<speed>23.3</speed>
</trkpt>
<trkpt lat="55.597942" lon="12.291202">
<ele>6.1</ele>
<time>2018-05-27T08:45:05Z</time>
<speed>23.3</speed>
</trkpt>
<trkpt lat="55.598051" lon="12.291528">
<ele>6.3</ele>
<time>2018-05-27T08:45:06Z</time>
<speed>23.3</speed>
</trkpt>
<trkpt lat="55.598147" lon="12.291851">
<ele>6.3</ele>
<time>2018-05-27T08:45:07Z</time>
<speed>23.3</speed>
</trkpt>
<trkpt lat="55.598255" lon="12.292177">
<ele>6.5</ele>
<time>2018-05-27T08:45:08Z</time>
<speed>23.3</speed>
</trkpt>
<trkpt lat="55.598364" lon="12.292504">
<ele>6.7</ele>
<time>2018-05-27T08:45:09Z</time>
<speed>23.3</speed>
</trkpt>
<trkpt lat="55.598462" lon="12.292811">
<ele>6.5</ele>
<time>2018-05-27T08:45:10Z</time>
<speed>23.3</speed>
</trkpt>
<trkpt lat="55.598570" lon="12.293137">
<ele>6.7</ele>
<time>2018-05-27T08:45:11Z</time>
<speed>23.3</speed>
</trkpt>
<trkpt lat="55.598673" lon="12.293463">
<ele>6.1</ele>
<time>2018-05-27T08:45:12Z</time>
<speed>23.1</speed>
</trkpt>
<trkpt lat="55.598782" lon="12.293790">
<ele>6.3</ele>
<time>2018-05-27T08:45:13Z</time>
<speed>23.1</speed>
</trkpt>
<trkpt lat="55.598887" lon="12.294101">
<ele>5.6</ele>
<time>2018-05-27T08:45:14Z</time>
<speed>23.3</speed>
</trkpt>
<trkpt lat="55.598995" lon="12.294427">
<ele>5.8</ele>
<time>2018-05-27T08:45:15Z</time>
<speed>23.3</speed>
</trkpt>
<trkpt lat="55.599106" lon="12.294738">
<ele>5.9</ele>
<time>2018-05-27T08:45:16Z</time>
<speed>23.3</speed>
</trkpt>
<trkpt lat="55.599216" lon="12.295048">
<ele>6.0</ele>
<time>2018-05-27T08:45:17Z</time>
<speed>23.1</speed>
</trkpt>
<trkpt lat="55.599321" lon="12.295359">
<ele>5.2</ele>
<time>2018-05-27T08:45:18Z</time>
<speed>23.1</speed>
</trkpt>
<trkpt lat="55.599431" lon="12.295670">
<ele>5.3</ele>
<time>2018-05-27T08:45:19Z</time>
<speed>22.8</speed>
</trkpt>
<trkpt lat="55.599536" lon="12.295981">
<ele>4.6</ele>
<time>2018-05-27T08:45:20Z</time>
<speed>22.5</speed>
</trkpt>
<trkpt lat="55.599640" lon="12.296273">
<ele>5.1</ele>
<time>2018-05-27T08:45:21Z</time>
<speed>22.5</speed>
</trkpt>
<trkpt lat="55.599752" lon="12.296568">
<ele>5.1</ele>
<time>2018-05-27T08:45:22Z</time>
<speed>22.5</speed>
</trkpt>
<trkpt lat="55.599862" lon="12.296879">
<ele>5.2</ele>
<time>2018-05-27T08:45:23Z</time>
<speed>22.2</speed>
</trkpt>
<trkpt lat="55.599973" lon="12.297174">
<ele>5.2</ele>
<time>2018-05-27T08:45:24Z</time>
<speed>22.2</speed>
</trkpt>
<trkpt lat="55.600085" lon="12.297469">
<ele>5.1</ele>
<time>2018-05-27T08:45:25Z</time>
<speed>22.5</speed>
</trkpt>
<trkpt lat="55.600197" lon="12.297765">
<ele>5.1</ele>
<time>2018-05-27T08:45:26Z</time>
<speed>22.5</speed>
</trkpt>
<trkpt lat="55.600315" lon="12.298045">
<ele>5.8</ele>
<time>2018-05-27T08:45:27Z</time>
<speed>22.2</speed>
</trkpt>
<trkpt lat="55.600427" lon="12.298340">
<ele>5.8</ele>
<time>2018-05-27T08:45:28Z</time>
<speed>22.2</speed>
</trkpt>
<trkpt lat="55.600552" lon="12.298623">
<ele>5.9</ele>
<time>2018-05-27T08:45:29Z</time>
<speed>22.2</speed>
</trkpt>
<trkpt lat="55.600664" lon="12.298918">
<ele>5.9</ele>
<time>2018-05-27T08:45:30Z</time>
<speed>22.2</speed>
</trkpt>
<trkpt lat="55.600782" lon="12.299198">
<ele>6.5</ele>
<time>2018-05-27T08:45:31Z</time>
<speed>22.2</speed>
</trkpt>
<trkpt lat="55.600899" lon="12.299493">
<ele>7.3</ele>
<time>2018-05-27T08:45:32Z</time>
<speed>22.2</speed>
</trkpt>
<trkpt lat="55.601024" lon="12.299777">
<ele>7.5</ele>
<time>2018-05-27T08:45:33Z</time>
<speed>21.9</speed>
</trkpt>
<trkpt lat="55.601138" lon="12.300057">
<ele>7.3</ele>
<time>2018-05-27T08:45:34Z</time>
<speed>21.9</speed>
</trkpt>
<trkpt lat="55.601263" lon="12.300340">
<ele>7.4</ele>
<time>2018-05-27T08:45:35Z</time>
<speed>21.9</speed>
</trkpt>
<trkpt lat="55.601381" lon="12.300620">
<ele>8.1</ele>
<time>2018-05-27T08:45:36Z</time>
<speed>21.9</speed>
</trkpt>
<trkpt lat="55.601500" lon="12.300899">
<ele>8.8</ele>
<time>2018-05-27T08:45:37Z</time>
<speed>21.9</speed>
</trkpt>
<trkpt lat="55.601625" lon="12.301183">
<ele>8.9</ele>
<time>2018-05-27T08:45:38Z</time>
<speed>21.9</speed>
</trkpt>
<trkpt lat="55.601751" lon="12.301466">
<ele>9.1</ele>
<time>2018-05-27T08:45:39Z</time>
<speed>22.2</speed>
</trkpt>
<trkpt lat="55.601873" lon="12.301733">
<ele>8.2</ele>
<time>2018-05-27T08:45:40Z</time>
<speed>22.8</speed>
</trkpt>
<trkpt lat="55.601998" lon="12.302017">
<ele>8.4</ele>
<time>2018-05-27T08:45:41Z</time>
<speed>22.8</speed>
</trkpt>
<trkpt lat="55.602129" lon="12.302319">
<ele>8.1</ele>
<time>2018-05-27T08:45:42Z</time>
<speed>23.3</speed>
</trkpt>
<trkpt lat="55.602262" lon="12.302605">
<ele>7.6</ele>
<time>2018-05-27T08:45:43Z</time>
<speed>23.6</speed>
</trkpt>
<trkpt lat="55.602393" lon="12.302907">
<ele>7.3</ele>
<time>2018-05-27T08:45:44Z</time>
<speed>23.9</speed>
</trkpt>
<trkpt lat="55.602530" lon="12.303210">
<ele>7.9</ele>
<time>2018-05-27T08:45:45Z</time>
<speed>23.6</speed>
</trkpt>
<trkpt lat="55.602662" lon="12.303496">
<ele>7.4</ele>
<time>2018-05-27T08:45:46Z</time>
<speed>23.6</speed>
</trkpt>
<trkpt lat="55.602790" lon="12.303783">
<ele>6.2</ele>
<time>2018-05-27T08:45:47Z</time>
<speed>23.3</speed>
</trkpt>
<trkpt lat="55.602917" lon="12.304050">
<ele>6.2</ele>
<time>2018-05-27T08:45:48Z</time>
<speed>23.1</speed>
</trkpt>
<trkpt lat="55.603050" lon="12.304337">
<ele>5.8</ele>
<time>2018-05-27T08:45:49Z</time>
<speed>22.8</speed>
</trkpt>
<trkpt lat="55.603183" lon="12.304624">
<ele>5.3</ele>
<time>2018-05-27T08:45:50Z</time>
<speed>22.5</speed>
</trkpt>
<trkpt lat="55.603310" lon="12.304891">
<ele>5.3</ele>
<time>2018-05-27T08:45:51Z</time>
<speed>22.5</speed>
</trkpt>
<trkpt lat="55.603444" lon="12.305163">
<ele>4.8</ele>
<time>2018-05-27T08:45:52Z</time>
<speed>21.9</speed>
</trkpt>
<trkpt lat="55.603573" lon="12.305415">
<ele>4.7</ele>
<time>2018-05-27T08:45:53Z</time>
<speed>21.9</speed>
</trkpt>
<trkpt lat="55.603702" lon="12.305667">
<ele>4.6</ele>
<time>2018-05-27T08:45:54Z</time>
<speed>21.7</speed>
</trkpt>
<trkpt lat="55.603837" lon="12.305923">
<ele>3.9</ele>
<time>2018-05-27T08:45:55Z</time>
<speed>21.7</speed>
</trkpt>
<trkpt lat="55.603971" lon="12.306175">
<ele>4.6</ele>
<time>2018-05-27T08:45:56Z</time>
<speed>21.7</speed>
</trkpt>
<trkpt lat="55.604098" lon="12.306443">
<ele>4.6</ele>
<time>2018-05-27T08:45:57Z</time>
<speed>21.7</speed>
</trkpt>
<trkpt lat="55.604227" lon="12.306695">
<ele>4.5</ele>
<time>2018-05-27T08:45:58Z</time>
<speed>21.9</speed>
</trkpt>
<trkpt lat="55.604354" lon="12.306963">
<ele>4.5</ele>
<time>2018-05-27T08:45:59Z</time>
<speed>22.2</speed>
</trkpt>
<trkpt lat="55.604493" lon="12.307234">
<ele>4.8</ele>
<time>2018-05-27T08:46:00Z</time>
<speed>22.5</speed>
</trkpt>
<trkpt lat="55.604633" lon="12.307505">
<ele>5.1</ele>
<time>2018-05-27T08:46:01Z</time>
<speed>22.5</speed>
</trkpt>
<trkpt lat="55.604760" lon="12.307773">
<ele>5.1</ele>
<time>2018-05-27T08:46:02Z</time>
<speed>23.1</speed>
</trkpt>
<trkpt lat="55.604898" lon="12.308059">
<ele>5.5</ele>
<time>2018-05-27T08:46:03Z</time>
<speed>23.1</speed>
</trkpt>
<trkpt lat="55.605037" lon="12.308330">
<ele>5.8</ele>
<time>2018-05-27T08:46:04Z</time>
<speed>23.3</speed>
</trkpt>
<trkpt lat="55.605182" lon="12.308620">
<ele>5.6</ele>
<time>2018-05-27T08:46:05Z</time>
<speed>23.6</speed>
</trkpt>
<trkpt lat="55.605320" lon="12.308907">
<ele>6.0</ele>
<time>2018-05-27T08:46:06Z</time>
<speed>23.6</speed>
</trkpt>
<trkpt lat="55.605465" lon="12.309197">
<ele>5.9</ele>
<time>2018-05-27T08:46:07Z</time>
<speed>24.2</speed>
</trkpt>
<trkpt lat="55.605615" lon="12.309487">
<ele>6.6</ele>
<time>2018-05-27T08:46:08Z</time>
<speed>24.7</speed>
</trkpt>
<trkpt lat="55.605760" lon="12.309777">
<ele>6.4</ele>
<time>2018-05-27T08:46:09Z</time>
<speed>25.0</speed>
</trkpt>
<trkpt lat="55.605909" lon="12.310083">
<ele>7.2</ele>
<time>2018-05-27T08:46:10Z</time>
<speed>25.0</speed>
</trkpt>
<trkpt lat="55.606065" lon="12.310392">
<ele>7.5</ele>
<time>2018-05-27T08:46:11Z</time>
<speed>25.0</speed>
</trkpt>
<trkpt lat="55.606208" lon="12.310697">
<ele>7.4</ele>
<time>2018-05-27T08:46:12Z</time>
<speed>25.6</speed>
</trkpt>
<trkpt lat="55.606364" lon="12.311006">
<ele>7.7</ele>
<time>2018-05-27T08:46:13Z</time>
<speed>25.6</speed>
</trkpt>
<trkpt lat="55.606515" lon="12.311315">
<ele>7.1</ele>
<time>2018-05-27T08:46:14Z</time>
<speed>25.8</speed>
</trkpt>
<trkpt lat="55.606670" lon="12.311624">
<ele>7.3</ele>
<time>2018-05-27T08:46:15Z</time>
<speed>26.1</speed>
</trkpt>
<trkpt lat="55.606826" lon="12.311933">
<ele>7.6</ele>
<time>2018-05-27T08:46:16Z</time>
<speed>26.1</speed>
</trkpt>
<trkpt lat="55.606982" lon="12.312242">
<ele>7.8</ele>
<time>2018-05-27T08:46:17Z</time>
<speed>25.6</speed>
</trkpt>
<trkpt lat="55.607131" lon="12.312547">
<ele>8.6</ele>
<time>2018-05-27T08:46:18Z</time>
<speed>25.3</speed>
</trkpt>
<trkpt lat="55.607286" lon="12.312856">
<ele>8.9</ele>
<time>2018-05-27T08:46:19Z</time>
<speed>25.3</speed>
</trkpt>
<trkpt lat="55.607430" lon="12.313162">
<ele>8.8</ele>
<time>2018-05-27T08:46:20Z</time>
<speed>25.0</speed>
</trkpt>
<trkpt lat="55.607575" lon="12.313452">
<ele>8.7</ele>
<time>2018-05-27T08:46:21Z</time>
<speed>25.0</speed>
</trkpt>
<trkpt lat="55.607723" lon="12.313757">
<ele>9.5</ele>
<time>2018-05-27T08:46:22Z</time>
<speed>24.2</speed>
</trkpt>
<trkpt lat="55.607869" lon="12.314047">
<ele>9.3</ele>
<time>2018-05-27T08:46:23Z</time>
<speed>23.9</speed>
</trkpt>
<trkpt lat="55.608008" lon="12.314319">
<ele>9.6</ele>
<time>2018-05-27T08:46:24Z</time>
<speed>23.6</speed>
</trkpt>
<trkpt lat="55.608153" lon="12.314609">
<ele>9.5</ele>
<time>2018-05-27T08:46:25Z</time>
<speed>23.3</speed>
</trkpt>
<trkpt lat="55.608292" lon="12.314880">
<ele>9.8</ele>
<time>2018-05-27T08:46:26Z</time>
<speed>23.3</speed>
</trkpt>
<trkpt lat="55.608425" lon="12.315167">
<ele>9.3</ele>
<time>2018-05-27T08:46:27Z</time>
<speed>22.8</speed>
</trkpt>
<trkpt lat="55.608564" lon="12.315438">
<ele>9.6</ele>
<time>2018-05-27T08:46:28Z</time>
<speed>22.8</speed>
</trkpt>
<trkpt lat="55.608704" lon="12.315709">
<ele>9.9</ele>
<time>2018-05-27T08:46:29Z</time>
<speed>22.8</speed>
</trkpt>
<trkpt lat="55.608843" lon="12.315980">
<ele>10.2</ele>
<time>2018-05-27T08:46:30Z</time>
<speed>22.8</speed>
</trkpt>
<trkpt lat="55.608978" lon="12.316251">
<ele>9.7</ele>
<time>2018-05-27T08:46:31Z</time>
<speed>22.8</speed>
</trkpt>
<trkpt lat="55.609110" lon="12.316519">
<ele>10.5</ele>
<time>2018-05-27T08:46:32Z</time>
<speed>22.8</speed>
</trkpt>
<trkpt lat="55.609248" lon="12.316806">
<ele>10.9</ele>
<time>2018-05-27T08:46:33Z</time>
<speed>22.8</speed>
</trkpt>
<trkpt lat="55.609382" lon="12.317077">
<ele>10.4</ele>
<time>2018-05-27T08:46:34Z</time>
<speed>23.1</speed>
</trkpt>
<trkpt lat="55.609521" lon="12.317348">
<ele>10.6</ele>
<time>2018-05-27T08:46:35Z</time>
<speed>23.3</speed>
</trkpt>
<trkpt lat="55.609666" lon="12.317619">
<ele>11.7</ele>
<time>2018-05-27T08:46:36Z</time>
<speed>23.3</speed>
</trkpt>
<trkpt lat="55.609812" lon="12.317894">
<ele>11.5</ele>
<time>2018-05-27T08:46:37Z</time>
<speed>24.2</speed>
</trkpt>
<trkpt lat="55.609962" lon="12.318184">
<ele>12.2</ele>
<time>2018-05-27T08:46:38Z</time>
<speed>24.4</speed>
</trkpt>
<trkpt lat="55.610109" lon="12.318459">
<ele>11.9</ele>
<time>2018-05-27T08:46:39Z</time>
<speed>25.0</speed>
</trkpt>
<trkpt lat="55.610265" lon="12.318768">
<ele>12.1</ele>
<time>2018-05-27T08:46:40Z</time>
<speed>25.3</speed>
</trkpt>
<trkpt lat="55.610421" lon="12.319077">
<ele>12.4</ele>
<time>2018-05-27T08:46:41Z</time>
<speed>25.3</speed>
</trkpt>
<trkpt lat="55.610571" lon="12.319386">
<ele>11.8</ele>
<time>2018-05-27T08:46:42Z</time>
<speed>25.8</speed>
</trkpt>
<trkpt lat="55.610729" lon="12.319679">
<ele>11.9</ele>
<time>2018-05-27T08:46:43Z</time>
<speed>25.6</speed>
</trkpt>
<trkpt lat="55.610879" lon="12.319988">
<ele>11.4</ele>
<time>2018-05-27T08:46:44Z</time>
<speed>25.8</speed>
</trkpt>
<trkpt lat="55.611035" lon="12.320297">
<ele>11.6</ele>
<time>2018-05-27T08:46:45Z</time>
<speed>26.1</speed>
</trkpt>
<trkpt lat="55.611198" lon="12.320609">
<ele>11.3</ele>
<time>2018-05-27T08:46:46Z</time>
<speed>26.1</speed>
</trkpt>
<trkpt lat="55.611352" lon="12.320934">
<ele>11.7</ele>
<time>2018-05-27T08:46:47Z</time>
<speed>26.7</speed>
</trkpt>
<trkpt lat="55.611514" lon="12.321262">
<ele>11.5</ele>
<time>2018-05-27T08:46:48Z</time>
<speed>26.9</speed>
</trkpt>
<trkpt lat="55.611669" lon="12.321571">
<ele>11.7</ele>
<time>2018-05-27T08:46:49Z</time>
<speed>26.9</speed>
</trkpt>
<trkpt lat="55.611826" lon="12.321899">
<ele>10.7</ele>
<time>2018-05-27T08:46:50Z</time>
<speed>26.7</speed>
</trkpt>
<trkpt lat="55.611980" lon="12.322223">
<ele>11.1</ele>
<time>2018-05-27T08:46:51Z</time>
<speed>26.7</speed>
</trkpt>
<trkpt lat="55.612141" lon="12.322551">
<ele>10.9</ele>
<time>2018-05-27T08:46:52Z</time>
<speed>26.1</speed>
</trkpt>
<trkpt lat="55.612283" lon="12.322872">
<ele>11.0</ele>
<time>2018-05-27T08:46:53Z</time>
<speed>25.6</speed>
</trkpt>
<trkpt lat="55.612434" lon="12.323181">
<ele>10.4</ele>
<time>2018-05-27T08:46:54Z</time>
<speed>25.3</speed>
</trkpt>
<trkpt lat="55.612577" lon="12.323487">
<ele>10.4</ele>
<time>2018-05-27T08:46:55Z</time>
<speed>24.7</speed>
</trkpt>
<trkpt lat="55.612714" lon="12.323789">
<ele>10.9</ele>
<time>2018-05-27T08:46:56Z</time>
<speed>24.7</speed>
</trkpt>
<trkpt lat="55.612845" lon="12.324091">
<ele>10.6</ele>
<time>2018-05-27T08:46:57Z</time>
<speed>23.9</speed>
</trkpt>
<trkpt lat="55.612983" lon="12.324378">
<ele>11.0</ele>
<time>2018-05-27T08:46:58Z</time>
<speed>23.6</speed>
</trkpt>
<trkpt lat="55.613106" lon="12.324677">
<ele>11.3</ele>
<time>2018-05-27T08:46:59Z</time>
<speed>23.3</speed>
</trkpt>
<trkpt lat="55.613244" lon="12.324964">
<ele>11.7</ele>
<time>2018-05-27T08:47:00Z</time>
<speed>23.3</speed>
</trkpt>
<trkpt lat="55.613365" lon="12.325247">
<ele>11.0</ele>
<time>2018-05-27T08:47:01Z</time>
<speed>23.3</speed>
</trkpt>
<trkpt lat="55.613489" lon="12.325546">
<ele>11.3</ele>
<time>2018-05-27T08:47:02Z</time>
<speed>23.1</speed>
</trkpt>
<trkpt lat="55.613614" lon="12.325829">
<ele>11.4</ele>
<time>2018-05-27T08:47:03Z</time>
<speed>23.3</speed>
</trkpt>
<trkpt lat="55.613742" lon="12.326116">
<ele>10.2</ele>
<time>2018-05-27T08:47:04Z</time>
<speed>23.1</speed>
</trkpt>
<trkpt lat="55.613873" lon="12.326418">
<ele>9.9</ele>
<time>2018-05-27T08:47:05Z</time>
<speed>23.1</speed>
</trkpt>
<trkpt lat="55.613993" lon="12.326702">
<ele>9.2</ele>
<time>2018-05-27T08:47:06Z</time>
<speed>23.1</speed>
</trkpt>
<trkpt lat="55.614121" lon="12.326989">
<ele>7.9</ele>
<time>2018-05-27T08:47:07Z</time>
<speed>23.1</speed>
</trkpt>
<trkpt lat="55.614243" lon="12.327275">
<ele>5.9</ele>
<time>2018-05-27T08:47:08Z</time>
<speed>23.1</speed>
</trkpt>
<trkpt lat="55.614367" lon="12.327574">
<ele>6.1</ele>
<time>2018-05-27T08:47:09Z</time>
<speed>23.1</speed>
</trkpt>
<trkpt lat="55.614505" lon="12.327861">
<ele>6.5</ele>
<time>2018-05-27T08:47:10Z</time>
<speed>23.3</speed>
</trkpt>
<trkpt lat="55.614624" lon="12.328160">
<ele>6.0</ele>
<time>2018-05-27T08:47:11Z</time>
<speed>23.3</speed>
</trkpt>
<trkpt lat="55.614748" lon="12.328459">
<ele>6.2</ele>
<time>2018-05-27T08:47:12Z</time>
<speed>23.1</speed>
</trkpt>
<trkpt lat="55.614872" lon="12.328758">
<ele>6.5</ele>
<time>2018-05-27T08:47:13Z</time>
<speed>23.1</speed>
</trkpt>
<trkpt lat="55.614995" lon="12.329057">
<ele>6.7</ele>
<time>2018-05-27T08:47:14Z</time>
<speed>23.1</speed>
</trkpt>
<trkpt lat="55.615119" lon="12.329355">
<ele>7.0</ele>
<time>2018-05-27T08:47:15Z</time>
<speed>22.8</speed>
</trkpt>
<trkpt lat="55.615236" lon="12.329651">
<ele>7.8</ele>
<time>2018-05-27T08:47:16Z</time>
<speed>22.8</speed>
</trkpt>
<trkpt lat="55.615348" lon="12.329946">
<ele>7.8</ele>
<time>2018-05-27T08:47:17Z</time>
<speed>22.5</speed>
</trkpt>
<trkpt lat="55.615459" lon="12.330242">
<ele>7.8</ele>
<time>2018-05-27T08:47:18Z</time>
<speed>22.2</speed>
</trkpt>
<trkpt lat="55.615571" lon="12.330537">
<ele>7.7</ele>
<time>2018-05-27T08:47:19Z</time>
<speed>22.2</speed>
</trkpt>
<trkpt lat="55.615681" lon="12.330848">
<ele>7.8</ele>
<time>2018-05-27T08:47:20Z</time>
<speed>22.2</speed>
</trkpt>
<trkpt lat="55.615787" lon="12.331144">
<ele>7.0</ele>
<time>2018-05-27T08:47:21Z</time>
<speed>22.2</speed>
</trkpt>
<trkpt lat="55.615891" lon="12.331436">
<ele>7.5</ele>
<time>2018-05-27T08:47:22Z</time>
<speed>22.5</speed>
</trkpt>
<trkpt lat="55.616001" lon="12.331747">
<ele>7.6</ele>
<time>2018-05-27T08:47:23Z</time>
<speed>22.5</speed>
</trkpt>
<trkpt lat="55.616108" lon="12.332043">
<ele>6.8</ele>
<time>2018-05-27T08:47:24Z</time>
<speed>22.8</speed>
</trkpt>
<trkpt lat="55.616218" lon="12.332354">
<ele>6.9</ele>
<time>2018-05-27T08:47:25Z</time>
<speed>22.5</speed>
</trkpt>
<trkpt lat="55.616328" lon="12.332665">
<ele>7.0</ele>
<time>2018-05-27T08:47:26Z</time>
<speed>22.5</speed>
</trkpt>
<trkpt lat="55.616427" lon="12.332957">
<ele>6.7</ele>
<time>2018-05-27T08:47:27Z</time>
<speed>22.5</speed>
</trkpt>
<trkpt lat="55.616532" lon="12.333268">
<ele>6.0</ele>
<time>2018-05-27T08:47:28Z</time>
<speed>22.5</speed>
</trkpt>
<trkpt lat="55.616642" lon="12.333579">
<ele>6.1</ele>
<time>2018-05-27T08:47:29Z</time>
<speed>22.8</speed>
</trkpt>
<trkpt lat="55.616740" lon="12.333887">
<ele>5.9</ele>
<time>2018-05-27T08:47:30Z</time>
<speed>22.8</speed>
</trkpt>
<trkpt lat="55.616845" lon="12.334198">
<ele>5.2</ele>
<time>2018-05-27T08:47:31Z</time>
<speed>22.8</speed>
</trkpt>
<trkpt lat="55.616946" lon="12.334521">
<ele>6.0</ele>
<time>2018-05-27T08:47:32Z</time>
<speed>22.8</speed>
</trkpt>
<trkpt lat="55.617051" lon="12.334832">
<ele>5.3</ele>
<time>2018-05-27T08:47:33Z</time>
<speed>22.8</speed>
</trkpt>
<trkpt lat="55.617148" lon="12.335139">
<ele>5.1</ele>
<time>2018-05-27T08:47:34Z</time>
<speed>22.5</speed>
</trkpt>
<trkpt lat="55.617251" lon="12.335447">
<ele>5.7</ele>
<time>2018-05-27T08:47:35Z</time>
<speed>22.5</speed>
</trkpt>
<trkpt lat="55.617349" lon="12.335755">
<ele>5.6</ele>
<time>2018-05-27T08:47:36Z</time>
<speed>22.5</speed>
</trkpt>
<trkpt lat="55.617445" lon="12.336078">
<ele>5.5</ele>
<time>2018-05-27T08:47:37Z</time>
<speed>22.5</speed>
</trkpt>
<trkpt lat="55.617542" lon="12.336386">
<ele>5.4</ele>
<time>2018-05-27T08:47:38Z</time>
<speed>22.5</speed>
</trkpt>
<trkpt lat="55.617638" lon="12.336709">
<ele>5.3</ele>
<time>2018-05-27T08:47:39Z</time>
<speed>22.8</speed>
</trkpt>
<trkpt lat="55.617734" lon="12.337032">
<ele>5.3</ele>
<time>2018-05-27T08:47:40Z</time>
<speed>22.8</speed>
</trkpt>
<trkpt lat="55.617832" lon="12.337340">
<ele>5.1</ele>
<time>2018-05-27T08:47:41Z</time>
<speed>22.8</speed>
</trkpt>
<trkpt lat="55.617933" lon="12.337663">
<ele>5.9</ele>
<time>2018-05-27T08:47:42Z</time>
<speed>22.8</speed>
</trkpt>
<trkpt lat="55.618029" lon="12.337986">
<ele>5.8</ele>
<time>2018-05-27T08:47:43Z</time>
<speed>22.8</speed>
</trkpt>
<trkpt lat="55.618125" lon="12.338309">
<ele>5.8</ele>
<time>2018-05-27T08:47:44Z</time>
<speed>22.8</speed>
</trkpt>
<trkpt lat="55.618221" lon="12.338632">
<ele>5.7</ele>
<time>2018-05-27T08:47:45Z</time>
<speed>22.8</speed>
</trkpt>
<trkpt lat="55.618312" lon="12.338955">
<ele>4.8</ele>
<time>2018-05-27T08:47:46Z</time>
<speed>22.8</speed>
</trkpt>
<trkpt lat="55.618401" lon="12.339275">
<ele>5.4</ele>
<time>2018-05-27T08:47:47Z</time>
<speed>22.8</speed>
</trkpt>
<trkpt lat="55.618497" lon="12.339598">
<ele>5.3</ele>
<time>2018-05-27T08:47:48Z</time>
<speed>22.8</speed>
</trkpt>
<trkpt lat="55.618593" lon="12.339922">
<ele>5.3</ele>
<time>2018-05-27T08:47:49Z</time>
<speed>22.8</speed>
</trkpt>
<trkpt lat="55.618689" lon="12.340245">
<ele>5.2</ele>
<time>2018-05-27T08:47:50Z</time>
<speed>22.8</speed>
</trkpt>
<trkpt lat="55.618778" lon="12.340565">
<ele>5.7</ele>
<time>2018-05-27T08:47:51Z</time>
<speed>22.8</speed>
</trkpt>
<trkpt lat="55.618874" lon="12.340888">
<ele>5.7</ele>
<time>2018-05-27T08:47:52Z</time>
<speed>22.8</speed>
</trkpt>
<trkpt lat="55.618970" lon="12.341211">
<ele>5.6</ele>
<time>2018-05-27T08:47:53Z</time>
<speed>23.1</speed>
</trkpt>
<trkpt lat="55.619066" lon="12.341534">
<ele>5.6</ele>
<time>2018-05-27T08:47:54Z</time>
<speed>23.1</speed>
</trkpt>
<trkpt lat="55.619161" lon="12.341873">
<ele>5.6</ele>
<time>2018-05-27T08:47:55Z</time>
<speed>23.3</speed>
</trkpt>
<trkpt lat="55.619264" lon="12.342199">
<ele>5.0</ele>
<time>2018-05-27T08:47:56Z</time>
<speed>23.3</speed>
</trkpt>
<trkpt lat="55.619359" lon="12.342538">
<ele>5.1</ele>
<time>2018-05-27T08:47:57Z</time>
<speed>23.6</speed>
</trkpt>
<trkpt lat="55.619453" lon="12.342877">
<ele>5.2</ele>
<time>2018-05-27T08:47:58Z</time>
<speed>23.9</speed>
</trkpt>
<trkpt lat="55.619556" lon="12.343203">
<ele>4.6</ele>
<time>2018-05-27T08:47:59Z</time>
<speed>23.9</speed>
</trkpt>
<trkpt lat="55.619656" lon="12.343542">
<ele>5.5</ele>
<time>2018-05-27T08:48:00Z</time>
<speed>23.9</speed>
</trkpt>
<trkpt lat="55.619758" lon="12.343884">
<ele>5.0</ele>
<time>2018-05-27T08:48:01Z</time>
<speed>23.9</speed>
</trkpt>
<trkpt lat="55.619852" lon="12.344223">
<ele>5.1</ele>
<time>2018-05-27T08:48:02Z</time>
<speed>23.6</speed>
</trkpt>
<trkpt lat="55.619946" lon="12.344562">
<ele>5.2</ele>
<time>2018-05-27T08:48:03Z</time>
<speed>23.3</speed>
</trkpt>
<trkpt lat="55.620048" lon="12.344885">
<ele>5.9</ele>
<time>2018-05-27T08:48:04Z</time>
<speed>23.1</speed>
</trkpt>
<trkpt lat="55.620142" lon="12.345224">
<ele>6.0</ele>
<time>2018-05-27T08:48:05Z</time>
<speed>22.8</speed>
</trkpt>
<trkpt lat="55.620231" lon="12.345543">
<ele>6.5</ele>
<time>2018-05-27T08:48:06Z</time>
<speed>22.8</speed>
</trkpt>
<trkpt lat="55.620332" lon="12.345867">
<ele>7.3</ele>
<time>2018-05-27T08:48:07Z</time>
<speed>22.5</speed>
</trkpt>
<trkpt lat="55.620422" lon="12.346171">
<ele>7.7</ele>
<time>2018-05-27T08:48:08Z</time>
<speed>22.5</speed>
</trkpt>
<trkpt lat="55.620523" lon="12.346494">
<ele>8.5</ele>
<time>2018-05-27T08:48:09Z</time>
<speed>22.8</speed>
</trkpt>
<trkpt lat="55.620612" lon="12.346814">
<ele>9.0</ele>
<time>2018-05-27T08:48:10Z</time>
<speed>23.1</speed>
</trkpt>
<trkpt lat="55.620714" lon="12.347156">
<ele>8.5</ele>
<time>2018-05-27T08:48:11Z</time>
<speed>23.1</speed>
</trkpt>
<trkpt lat="55.620815" lon="12.347479">
<ele>9.3</ele>
<time>2018-05-27T08:48:12Z</time>
<speed>23.6</speed>
</trkpt>
<trkpt lat="55.620910" lon="12.347818">
<ele>9.4</ele>
<time>2018-05-27T08:48:13Z</time>
<speed>23.9</speed>
</trkpt>
<trkpt lat="55.621011" lon="12.348160">
<ele>8.9</ele>
<time>2018-05-27T08:48:14Z</time>
<speed>24.2</speed>
</trkpt>
<trkpt lat="55.621106" lon="12.348499">
<ele>9.0</ele>
<time>2018-05-27T08:48:15Z</time>
<speed>24.4</speed>
</trkpt>
<trkpt lat="55.621207" lon="12.348841">
<ele>8.5</ele>
<time>2018-05-27T08:48:16Z</time>
<speed>24.4</speed>
</trkpt>
<trkpt lat="55.621305" lon="12.349195">
<ele>9.5</ele>
<time>2018-05-27T08:48:17Z</time>
<speed>24.2</speed>
</trkpt>
<trkpt lat="55.621407" lon="12.349537">
<ele>9.0</ele>
<time>2018-05-27T08:48:18Z</time>
<speed>23.9</speed>
</trkpt>
<trkpt lat="55.621501" lon="12.349876">
<ele>9.1</ele>
<time>2018-05-27T08:48:19Z</time>
<speed>23.9</speed>
</trkpt>
<trkpt lat="55.621596" lon="12.350215">
<ele>9.2</ele>
<time>2018-05-27T08:48:20Z</time>
<speed>23.6</speed>
</trkpt>
<trkpt lat="55.621692" lon="12.350538">
<ele>9.1</ele>
<time>2018-05-27T08:48:21Z</time>
<speed>23.6</speed>
</trkpt>
<trkpt lat="55.621786" lon="12.350877">
<ele>9.2</ele>
<time>2018-05-27T08:48:22Z</time>
<speed>23.1</speed>
</trkpt>
<trkpt lat="55.621882" lon="12.351200">
<ele>9.2</ele>
<time>2018-05-27T08:48:23Z</time>
<speed>22.8</speed>
</trkpt>
<trkpt lat="55.621978" lon="12.351523">
<ele>9.1</ele>
<time>2018-05-27T08:48:24Z</time>
<speed>22.8</speed>
</trkpt>
<trkpt lat="55.622067" lon="12.351843">
<ele>9.6</ele>
<time>2018-05-27T08:48:25Z</time>
<speed>22.5</speed>
</trkpt>
<trkpt lat="55.622165" lon="12.352151">
<ele>9.5</ele>
<time>2018-05-27T08:48:26Z</time>
<speed>22.5</speed>
</trkpt>
<trkpt lat="55.622254" lon="12.352471">
<ele>10.0</ele>
<time>2018-05-27T08:48:27Z</time>
<speed>22.2</speed>
</trkpt>
<trkpt lat="55.622344" lon="12.352775">
<ele>10.4</ele>
<time>2018-05-27T08:48:28Z</time>
<speed>21.9</speed>
</trkpt>
<trkpt lat="55.622440" lon="12.353098">
<ele>10.3</ele>
<time>2018-05-27T08:48:29Z</time>
<speed>21.9</speed>
</trkpt>
<trkpt lat="55.622529" lon="12.353418">
<ele>10.8</ele>
<time>2018-05-27T08:48:30Z</time>
<speed>22.2</speed>
</trkpt>
<trkpt lat="55.622614" lon="12.353722">
<ele>10.4</ele>
<time>2018-05-27T08:48:31Z</time>
<speed>22.2</speed>
</trkpt>
<trkpt lat="55.622705" lon="12.354046">
<ele>9.5</ele>
<time>2018-05-27T08:48:32Z</time>
<speed>22.2</speed>
</trkpt>
<trkpt lat="55.622796" lon="12.354369">
<ele>8.6</ele>
<time>2018-05-27T08:48:33Z</time>
<speed>22.5</speed>
</trkpt>
<trkpt lat="55.622886" lon="12.354673">
<ele>9.0</ele>
<time>2018-05-27T08:48:34Z</time>
<speed>22.5</speed>
</trkpt>
<trkpt lat="55.622971" lon="12.355012">
<ele>7.5</ele>
<time>2018-05-27T08:48:35Z</time>
<speed>22.8</speed>
</trkpt>
<trkpt lat="55.623062" lon="12.355335">
<ele>6.6</ele>
<time>2018-05-27T08:48:36Z</time>
<speed>22.8</speed>
</trkpt>
<trkpt lat="55.623158" lon="12.355659">
<ele>6.5</ele>
<time>2018-05-27T08:48:37Z</time>
<speed>23.1</speed>
</trkpt>
<trkpt lat="55.623251" lon="12.355978">
<ele>7.9</ele>
<time>2018-05-27T08:48:38Z</time>
<speed>23.1</speed>
</trkpt>
<trkpt lat="55.623346" lon="12.356317">
<ele>8.0</ele>
<time>2018-05-27T08:48:39Z</time>
<speed>23.1</speed>
</trkpt>
<trkpt lat="55.623442" lon="12.356641">
<ele>7.9</ele>
<time>2018-05-27T08:48:40Z</time>
<speed>23.1</speed>
</trkpt>
<trkpt lat="55.623538" lon="12.356964">
<ele>7.9</ele>
<time>2018-05-27T08:48:41Z</time>
<speed>23.1</speed>
</trkpt>
<trkpt lat="55.623632" lon="12.357303">
<ele>7.9</ele>
<time>2018-05-27T08:48:42Z</time>
<speed>23.1</speed>
</trkpt>
<trkpt lat="55.623721" lon="12.357622">
<ele>8.5</ele>
<time>2018-05-27T08:48:43Z</time>
<speed>23.1</speed>
</trkpt>
<trkpt lat="55.623817" lon="12.357946">
<ele>8.4</ele>
<time>2018-05-27T08:48:44Z</time>
<speed>23.1</speed>
</trkpt>
<trkpt lat="55.623913" lon="12.358269">
<ele>8.4</ele>
<time>2018-05-27T08:48:45Z</time>
<speed>23.1</speed>
</trkpt>
<trkpt lat="55.624000" lon="12.358604">
<ele>9.0</ele>
<time>2018-05-27T08:48:46Z</time>
<speed>23.1</speed>
</trkpt>
<trkpt lat="55.624101" lon="12.358928">
<ele>9.8</ele>
<time>2018-05-27T08:48:47Z</time>
<speed>23.1</speed>
</trkpt>
<trkpt lat="55.624197" lon="12.359251">
<ele>9.7</ele>
<time>2018-05-27T08:48:48Z</time>
<speed>23.1</speed>
</trkpt>
<trkpt lat="55.624284" lon="12.359586">
<ele>10.4</ele>
<time>2018-05-27T08:48:49Z</time>
<speed>23.1</speed>
</trkpt>
<trkpt lat="55.624386" lon="12.359910">
<ele>11.2</ele>
<time>2018-05-27T08:48:50Z</time>
<speed>23.1</speed>
</trkpt>
<trkpt lat="55.624474" lon="12.360229">
<ele>11.7</ele>
<time>2018-05-27T08:48:51Z</time>
<speed>23.1</speed>
</trkpt>
<trkpt lat="55.624569" lon="12.360568">
<ele>11.7</ele>
<time>2018-05-27T08:48:52Z</time>
<speed>22.8</speed>
</trkpt>
<trkpt lat="55.624657" lon="12.360888">
<ele>12.2</ele>
<time>2018-05-27T08:48:53Z</time>
<speed>23.1</speed>
</trkpt>
<trkpt lat="55.624740" lon="12.361223">
<ele>12.1</ele>
<time>2018-05-27T08:48:54Z</time>
<speed>23.1</speed>
</trkpt>
<trkpt lat="55.624834" lon="12.361562">
<ele>12.1</ele>
<time>2018-05-27T08:48:55Z</time>
<speed>23.1</speed>
</trkpt>
<trkpt lat="55.624916" lon="12.361898">
<ele>11.9</ele>
<time>2018-05-27T08:48:56Z</time>
<speed>23.1</speed>
</trkpt>
<trkpt lat="55.624993" lon="12.362233">
<ele>10.9</ele>
<time>2018-05-27T08:48:57Z</time>
<speed>23.1</speed>
</trkpt>
<trkpt lat="55.625074" lon="12.362584">
<ele>10.8</ele>
<time>2018-05-27T08:48:58Z</time>
<speed>22.8</speed>
</trkpt>
<trkpt lat="55.625148" lon="12.362916">
<ele>11.2</ele>
<time>2018-05-27T08:48:59Z</time>
<speed>22.5</speed>
</trkpt>
<trkpt lat="55.625231" lon="12.363251">
<ele>11.0</ele>
<time>2018-05-27T08:49:00Z</time>
<speed>22.5</speed>
</trkpt>
<trkpt lat="55.625307" lon="12.363568">
<ele>11.2</ele>
<time>2018-05-27T08:49:01Z</time>
<speed>22.5</speed>
</trkpt>
<trkpt lat="55.625389" lon="12.363903">
<ele>11.0</ele>
<time>2018-05-27T08:49:02Z</time>
<speed>22.2</speed>
</trkpt>
<trkpt lat="55.625466" lon="12.364220">
<ele>11.3</ele>
<time>2018-05-27T08:49:03Z</time>
<speed>21.9</speed>
</trkpt>
<trkpt lat="55.625535" lon="12.364552">
<ele>10.8</ele>
<time>2018-05-27T08:49:04Z</time>
<speed>21.9</speed>
</trkpt>
<trkpt lat="55.625598" lon="12.364880">
<ele>10.9</ele>
<time>2018-05-27T08:49:05Z</time>
<speed>21.9</speed>
</trkpt>
<trkpt lat="55.625668" lon="12.365212">
<ele>10.4</ele>
<time>2018-05-27T08:49:06Z</time>
<speed>21.9</speed>
</trkpt>
<trkpt lat="55.625737" lon="12.365544">
<ele>10.0</ele>
<time>2018-05-27T08:49:07Z</time>
<speed>21.9</speed>
</trkpt>
<trkpt lat="55.625807" lon="12.365858">
<ele>10.8</ele>
<time>2018-05-27T08:49:08Z</time>
<speed>21.9</speed>
</trkpt>
<trkpt lat="55.625881" lon="12.366190">
<ele>11.1</ele>
<time>2018-05-27T08:49:09Z</time>
<speed>21.9</speed>
</trkpt>
<trkpt lat="55.625944" lon="12.366518">
<ele>11.2</ele>
<time>2018-05-27T08:49:10Z</time>
<speed>21.9</speed>
</trkpt>
<trkpt lat="55.626014" lon="12.366850">
<ele>10.7</ele>
<time>2018-05-27T08:49:11Z</time>
<speed>21.9</speed>
</trkpt>
<trkpt lat="55.626081" lon="12.367179">
<ele>11.6</ele>
<time>2018-05-27T08:49:12Z</time>
<speed>21.7</speed>
</trkpt>
<trkpt lat="55.626144" lon="12.367507">
<ele>11.7</ele>
<time>2018-05-27T08:49:13Z</time>
<speed>21.9</speed>
</trkpt>
<trkpt lat="55.626220" lon="12.367824">
<ele>12.0</ele>
<time>2018-05-27T08:49:14Z</time>
<speed>21.9</speed>
</trkpt>
<trkpt lat="55.626283" lon="12.368153">
<ele>12.0</ele>
<time>2018-05-27T08:49:15Z</time>
<speed>21.9</speed>
</trkpt>
<trkpt lat="55.626345" lon="12.368481">
<ele>12.1</ele>
<time>2018-05-27T08:49:16Z</time>
<speed>21.9</speed>
</trkpt>
<trkpt lat="55.626413" lon="12.368810">
<ele>13.0</ele>
<time>2018-05-27T08:49:17Z</time>
<speed>21.9</speed>
</trkpt>
<trkpt lat="55.626469" lon="12.369154">
<ele>12.4</ele>
<time>2018-05-27T08:49:18Z</time>
<speed>22.2</speed>
</trkpt>
<trkpt lat="55.626531" lon="12.369483">
<ele>12.5</ele>
<time>2018-05-27T08:49:19Z</time>
<speed>22.2</speed>
</trkpt>
<trkpt lat="55.626592" lon="12.369827">
<ele>12.7</ele>
<time>2018-05-27T08:49:20Z</time>
<speed>22.2</speed>
</trkpt>
<trkpt lat="55.626653" lon="12.370171">
<ele>12.9</ele>
<time>2018-05-27T08:49:21Z</time>
<speed>22.2</speed>
</trkpt>
<trkpt lat="55.626719" lon="12.370515">
<ele>13.9</ele>
<time>2018-05-27T08:49:22Z</time>
<speed>22.8</speed>
</trkpt>
<trkpt lat="55.626775" lon="12.370859">
<ele>13.3</ele>
<time>2018-05-27T08:49:23Z</time>
<speed>23.1</speed>
</trkpt>
<trkpt lat="55.626834" lon="12.371219">
<ele>13.7</ele>
<time>2018-05-27T08:49:24Z</time>
<speed>23.1</speed>
</trkpt>
<trkpt lat="55.626895" lon="12.371563">
<ele>13.9</ele>
<time>2018-05-27T08:49:25Z</time>
<speed>23.1</speed>
</trkpt>
<trkpt lat="55.626950" lon="12.371922">
<ele>13.4</ele>
<time>2018-05-27T08:49:26Z</time>
<speed>23.1</speed>
</trkpt>
<trkpt lat="55.627002" lon="12.372279">
<ele>14.2</ele>
<time>2018-05-27T08:49:27Z</time>
<speed>23.1</speed>
</trkpt>
<trkpt lat="55.627056" lon="12.372638">
<ele>13.7</ele>
<time>2018-05-27T08:49:28Z</time>
<speed>23.1</speed>
</trkpt>
<trkpt lat="55.627115" lon="12.372998">
<ele>14.1</ele>
<time>2018-05-27T08:49:29Z</time>
<speed>23.1</speed>
</trkpt>
<trkpt lat="55.627171" lon="12.373342">
<ele>13.4</ele>
<time>2018-05-27T08:49:30Z</time>
<speed>22.8</speed>
</trkpt>
<trkpt lat="55.627218" lon="12.373698">
<ele>13.5</ele>
<time>2018-05-27T08:49:31Z</time>
<speed>22.8</speed>
</trkpt>
<trkpt lat="55.627272" lon="12.374039">
<ele>14.3</ele>
<time>2018-05-27T08:49:32Z</time>
<speed>22.5</speed>
</trkpt>
<trkpt lat="55.627326" lon="12.374399">
<ele>13.8</ele>
<time>2018-05-27T08:49:33Z</time>
<speed>22.5</speed>
</trkpt>
<trkpt lat="55.627380" lon="12.374740">
<ele>14.5</ele>
<time>2018-05-27T08:49:34Z</time>
<speed>22.8</speed>
</trkpt>
<trkpt lat="55.627427" lon="12.375096">
<ele>14.6</ele>
<time>2018-05-27T08:49:35Z</time>
<speed>23.1</speed>
</trkpt>
<trkpt lat="55.627486" lon="12.375455">
<ele>14.9</ele>
<time>2018-05-27T08:49:36Z</time>
<speed>23.1</speed>
</trkpt>
<trkpt lat="55.627533" lon="12.375812">
<ele>15.0</ele>
<time>2018-05-27T08:49:37Z</time>
<speed>23.3</speed>
</trkpt>
<trkpt lat="55.627579" lon="12.376183">
<ele>15.1</ele>
<time>2018-05-27T08:49:38Z</time>
<speed>23.3</speed>
</trkpt>
<trkpt lat="55.627626" lon="12.376540">
<ele>15.2</ele>
<time>2018-05-27T08:49:39Z</time>
<speed>23.6</speed>
</trkpt>
<trkpt lat="55.627673" lon="12.376915">
<ele>14.0</ele>
<time>2018-05-27T08:49:40Z</time>
<speed>23.6</speed>
</trkpt>
<trkpt lat="55.627719" lon="12.377287">
<ele>14.2</ele>
<time>2018-05-27T08:49:41Z</time>
<speed>23.6</speed>
</trkpt>
<trkpt lat="55.627766" lon="12.377643">
<ele>14.2</ele>
<time>2018-05-27T08:49:42Z</time>
<speed>23.6</speed>
</trkpt>
<trkpt lat="55.627816" lon="12.378015">
<ele>15.2</ele>
<time>2018-05-27T08:49:43Z</time>
<speed>23.6</speed>
</trkpt>
<trkpt lat="55.627857" lon="12.378386">
<ele>14.6</ele>
<time>2018-05-27T08:49:44Z</time>
<speed>23.6</speed>
</trkpt>
<trkpt lat="55.627902" lon="12.378758">
<ele>14.7</ele>
<time>2018-05-27T08:49:45Z</time>
<speed>23.6</speed>
</trkpt>
<trkpt lat="55.627935" lon="12.379127">
<ele>14.6</ele>
<time>2018-05-27T08:49:46Z</time>
<speed>23.6</speed>
</trkpt>
<trkpt lat="55.627981" lon="12.379498">
<ele>14.8</ele>
<time>2018-05-27T08:49:47Z</time>
<speed>23.9</speed>
</trkpt>
<trkpt lat="55.628014" lon="12.379867">
<ele>14.7</ele>
<time>2018-05-27T08:49:48Z</time>
<speed>23.9</speed>
</trkpt>
<trkpt lat="55.628052" lon="12.380254">
<ele>14.2</ele>
<time>2018-05-27T08:49:49Z</time>
<speed>23.9</speed>
</trkpt>
<trkpt lat="55.628085" lon="12.380622">
<ele>14.1</ele>
<time>2018-05-27T08:49:50Z</time>
<speed>23.9</speed>
</trkpt>
<trkpt lat="55.628126" lon="12.380994">
<ele>13.4</ele>
<time>2018-05-27T08:49:51Z</time>
<speed>23.9</speed>
</trkpt>
<trkpt lat="55.628162" lon="12.381378">
<ele>14.3</ele>
<time>2018-05-27T08:49:52Z</time>
<speed>23.9</speed>
</trkpt>
<trkpt lat="55.628195" lon="12.381746">
<ele>14.2</ele>
<time>2018-05-27T08:49:53Z</time>
<speed>24.2</speed>
</trkpt>
<trkpt lat="55.628222" lon="12.382130">
<ele>13.4</ele>
<time>2018-05-27T08:49:54Z</time>
<speed>24.2</speed>
</trkpt>
<trkpt lat="55.628253" lon="12.382514">
<ele>13.4</ele>
<time>2018-05-27T08:49:55Z</time>
<speed>24.4</speed>
</trkpt>
<trkpt lat="55.628278" lon="12.382895">
<ele>14.0</ele>
<time>2018-05-27T08:49:56Z</time>
<speed>24.4</speed>
</trkpt>
<trkpt lat="55.628304" lon="12.383259">
<ele>14.4</ele>
<time>2018-05-27T08:49:57Z</time>
<speed>24.2</speed>
</trkpt>
<trkpt lat="55.628323" lon="12.383640">
<ele>14.2</ele>
<time>2018-05-27T08:49:58Z</time>
<speed>24.4</speed>
</trkpt>
<trkpt lat="55.628353" lon="12.384039">
<ele>14.3</ele>
<time>2018-05-27T08:49:59Z</time>
<speed>24.2</speed>
</trkpt>
<trkpt lat="55.628372" lon="12.384420">
<ele>14.1</ele>
<time>2018-05-27T08:50:00Z</time>
<speed>23.9</speed>
</trkpt>
<trkpt lat="55.628398" lon="12.384785">
<ele>14.5</ele>
<time>2018-05-27T08:50:01Z</time>
<speed>23.9</speed>
</trkpt>
<trkpt lat="55.628418" lon="12.385150">
<ele>14.2</ele>
<time>2018-05-27T08:50:02Z</time>
<speed>23.1</speed>
</trkpt>
<trkpt lat="55.628437" lon="12.385511">
<ele>15.2</ele>
<time>2018-05-27T08:50:03Z</time>
<speed>22.5</speed>
</trkpt>
<trkpt lat="55.628459" lon="12.385861">
<ele>14.7</ele>
<time>2018-05-27T08:50:04Z</time>
<speed>22.2</speed>
</trkpt>
<trkpt lat="55.628480" lon="12.386226">
<ele>14.3</ele>
<time>2018-05-27T08:50:05Z</time>
<speed>22.2</speed>
</trkpt>
<trkpt lat="55.628500" lon="12.386572">
<ele>15.2</ele>
<time>2018-05-27T08:50:06Z</time>
<speed>22.2</speed>
</trkpt>
<trkpt lat="55.628510" lon="12.386918">
<ele>14.4</ele>
<time>2018-05-27T08:50:07Z</time>
<speed>22.2</speed>
</trkpt>
<trkpt lat="55.628524" lon="12.387279">
<ele>14.6</ele>
<time>2018-05-27T08:50:08Z</time>
<speed>22.2</speed>
</trkpt>
<trkpt lat="55.628544" lon="12.387625">
<ele>15.5</ele>
<time>2018-05-27T08:50:09Z</time>
<speed>21.9</speed>
</trkpt>
<trkpt lat="55.628558" lon="12.387987">
<ele>15.7</ele>
<time>2018-05-27T08:50:10Z</time>
<speed>21.9</speed>
</trkpt>
<trkpt lat="55.628580" lon="12.388337">
<ele>15.2</ele>
<time>2018-05-27T08:50:11Z</time>
<speed>21.9</speed>
</trkpt>
<trkpt lat="55.628595" lon="12.388683">
<ele>15.3</ele>
<time>2018-05-27T08:50:12Z</time>
<speed>21.9</speed>
</trkpt>
<trkpt lat="55.628609" lon="12.389044">
<ele>15.4</ele>
<time>2018-05-27T08:50:13Z</time>
<speed>21.9</speed>
</trkpt>
<trkpt lat="55.628631" lon="12.389394">
<ele>15.0</ele>
<time>2018-05-27T08:50:14Z</time>
<speed>21.9</speed>
</trkpt>
<trkpt lat="55.628651" lon="12.389740">
<ele>15.8</ele>
<time>2018-05-27T08:50:15Z</time>
<speed>22.2</speed>
</trkpt>
<trkpt lat="55.628661" lon="12.390086">
<ele>15.1</ele>
<time>2018-05-27T08:50:16Z</time>
<speed>22.2</speed>
</trkpt>
<trkpt lat="55.628687" lon="12.390451">
<ele>15.5</ele>
<time>2018-05-27T08:50:17Z</time>
<speed>22.2</speed>
</trkpt>
<trkpt lat="55.628701" lon="12.390812">
<ele>15.7</ele>
<time>2018-05-27T08:50:18Z</time>
<speed>22.5</speed>
</trkpt>
<trkpt lat="55.628723" lon="12.391162">
<ele>15.2</ele>
<time>2018-05-27T08:50:19Z</time>
<speed>22.5</speed>
</trkpt>
<trkpt lat="55.628749" lon="12.391527">
<ele>15.7</ele>
<time>2018-05-27T08:50:20Z</time>
<speed>22.5</speed>
</trkpt>
<trkpt lat="55.628762" lon="12.391888">
<ele>15.9</ele>
<time>2018-05-27T08:50:21Z</time>
<speed>22.5</speed>
</trkpt>
<trkpt lat="55.628788" lon="12.392253">
<ele>16.3</ele>
<time>2018-05-27T08:50:22Z</time>
<speed>22.8</speed>
</trkpt>
<trkpt lat="55.628802" lon="12.392615">
<ele>16.5</ele>
<time>2018-05-27T08:50:23Z</time>
<speed>22.8</speed>
</trkpt>
<trkpt lat="55.628822" lon="12.392980">
<ele>16.1</ele>
<time>2018-05-27T08:50:24Z</time>
<speed>23.1</speed>
</trkpt>
<trkpt lat="55.628843" lon="12.393345">
<ele>15.8</ele>
<time>2018-05-27T08:50:25Z</time>
<speed>23.1</speed>
</trkpt>
<trkpt lat="55.628862" lon="12.393725">
<ele>15.5</ele>
<time>2018-05-27T08:50:26Z</time>
<speed>23.1</speed>
</trkpt>
<trkpt lat="55.628883" lon="12.394090">
<ele>15.1</ele>
<time>2018-05-27T08:50:27Z</time>
<speed>23.3</speed>
</trkpt>
<trkpt lat="55.628895" lon="12.394467">
<ele>15.4</ele>
<time>2018-05-27T08:50:28Z</time>
<speed>23.6</speed>
</trkpt>
<trkpt lat="55.628921" lon="12.394832">
<ele>15.9</ele>
<time>2018-05-27T08:50:29Z</time>
<speed>23.6</speed>
</trkpt>
<trkpt lat="55.628945" lon="12.395213">
<ele>16.5</ele>
<time>2018-05-27T08:50:30Z</time>
<speed>23.9</speed>
</trkpt>
<trkpt lat="55.628964" lon="12.395593">
<ele>16.2</ele>
<time>2018-05-27T08:50:31Z</time>
<speed>23.9</speed>
</trkpt>
<trkpt lat="55.628983" lon="12.395974">
<ele>16.0</ele>
<time>2018-05-27T08:50:32Z</time>
<speed>23.6</speed>
</trkpt>
<trkpt lat="55.629013" lon="12.396354">
<ele>17.4</ele>
<time>2018-05-27T08:50:33Z</time>
<speed>23.6</speed>
</trkpt>
<trkpt lat="55.629033" lon="12.396719">
<ele>17.0</ele>
<time>2018-05-27T08:50:34Z</time>
<speed>23.3</speed>
</trkpt>
<trkpt lat="55.629060" lon="12.397103">
<ele>16.2</ele>
<time>2018-05-27T08:50:35Z</time>
<speed>23.3</speed>
</trkpt>
<trkpt lat="55.629081" lon="12.397468">
<ele>15.9</ele>
<time>2018-05-27T08:50:36Z</time>
<speed>23.3</speed>
</trkpt>
<trkpt lat="55.629096" lon="12.397833">
<ele>14.7</ele>
<time>2018-05-27T08:50:37Z</time>
<speed>23.1</speed>
</trkpt>
<trkpt lat="55.629117" lon="12.398198">
<ele>14.3</ele>
<time>2018-05-27T08:50:38Z</time>
<speed>22.8</speed>
</trkpt>
<trkpt lat="55.629133" lon="12.398563">
<ele>13.1</ele>
<time>2018-05-27T08:50:39Z</time>
<speed>22.5</speed>
</trkpt>
<trkpt lat="55.629148" lon="12.398909">
<ele>13.2</ele>
<time>2018-05-27T08:50:40Z</time>
<speed>22.2</speed>
</trkpt>
<trkpt lat="55.629168" lon="12.399274">
<ele>12.8</ele>
<time>2018-05-27T08:50:41Z</time>
<speed>22.2</speed>
</trkpt>
<trkpt lat="55.629186" lon="12.399624">
<ele>11.5</ele>
<time>2018-05-27T08:50:42Z</time>
<speed>22.2</speed>
</trkpt>
<trkpt lat="55.629208" lon="12.399973">
<ele>11.0</ele>
<time>2018-05-27T08:50:43Z</time>
<speed>21.9</speed>
</trkpt>
<trkpt lat="55.629221" lon="12.400335">
<ele>11.2</ele>
<time>2018-05-27T08:50:44Z</time>
<speed>22.2</speed>
</trkpt>
<trkpt lat="55.629249" lon="12.400684">
<ele>11.5</ele>
<time>2018-05-27T08:50:45Z</time>
<speed>22.2</speed>
</trkpt>
<trkpt lat="55.629271" lon="12.401034">
<ele>11.0</ele>
<time>2018-05-27T08:50:46Z</time>
<speed>22.2</speed>
</trkpt>
<trkpt lat="55.629294" lon="12.401383">
<ele>10.5</ele>
<time>2018-05-27T08:50:47Z</time>
<speed>22.2</speed>
</trkpt>
<trkpt lat="55.629307" lon="12.401745">
<ele>10.7</ele>
<time>2018-05-27T08:50:48Z</time>
<speed>21.9</speed>
</trkpt>
<trkpt lat="55.629329" lon="12.402094">
<ele>10.2</ele>
<time>2018-05-27T08:50:49Z</time>
<speed>21.9</speed>
</trkpt>
<trkpt lat="55.629344" lon="12.402440">
<ele>10.3</ele>
<time>2018-05-27T08:50:50Z</time>
<speed>21.9</speed>
</trkpt>
<trkpt lat="55.629367" lon="12.402790">
<ele>9.8</ele>
<time>2018-05-27T08:50:51Z</time>
<speed>21.9</speed>
</trkpt>
<trkpt lat="55.629377" lon="12.403136">
<ele>9.1</ele>
<time>2018-05-27T08:50:52Z</time>
<speed>21.9</speed>
</trkpt>
<trkpt lat="55.629399" lon="12.403485">
<ele>8.6</ele>
<time>2018-05-27T08:50:53Z</time>
<speed>21.9</speed>
</trkpt>
<trkpt lat="55.629414" lon="12.403831">
<ele>8.6</ele>
<time>2018-05-27T08:50:54Z</time>
<speed>21.9</speed>
</trkpt>
<trkpt lat="55.629438" lon="12.404165">
<ele>8.0</ele>
<time>2018-05-27T08:50:55Z</time>
<speed>21.7</speed>
</trkpt>
<trkpt lat="55.629448" lon="12.404511">
<ele>7.3</ele>
<time>2018-05-27T08:50:56Z</time>
<speed>21.7</speed>
</trkpt>
<trkpt lat="55.629470" lon="12.404861">
<ele>6.8</ele>
<time>2018-05-27T08:50:57Z</time>
<speed>21.9</speed>
</trkpt>
<trkpt lat="55.629485" lon="12.405207">
<ele>6.8</ele>
<time>2018-05-27T08:50:58Z</time>
<speed>22.2</speed>
</trkpt>
<trkpt lat="55.629499" lon="12.405568">
<ele>7.0</ele>
<time>2018-05-27T08:50:59Z</time>
<speed>21.9</speed>
</trkpt>
<trkpt lat="55.629521" lon="12.405918">
<ele>6.5</ele>
<time>2018-05-27T08:51:00Z</time>
<speed>21.9</speed>
</trkpt>
<trkpt lat="55.629543" lon="12.406267">
<ele>6.0</ele>
<time>2018-05-27T08:51:01Z</time>
<speed>21.9</speed>
</trkpt>
<trkpt lat="55.629559" lon="12.406613">
<ele>6.1</ele>
<time>2018-05-27T08:51:02Z</time>
<speed>22.2</speed>
</trkpt>
<trkpt lat="55.629581" lon="12.406963">
<ele>5.6</ele>
<time>2018-05-27T08:51:03Z</time>
<speed>22.2</speed>
</trkpt>
<trkpt lat="55.629594" lon="12.407325">
<ele>5.8</ele>
<time>2018-05-27T08:51:04Z</time>
<speed>22.5</speed>
</trkpt>
<trkpt lat="55.629615" lon="12.407690">
<ele>5.4</ele>
<time>2018-05-27T08:51:05Z</time>
<speed>22.8</speed>
</trkpt>
<trkpt lat="55.629636" lon="12.408055">
<ele>5.1</ele>
<time>2018-05-27T08:51:06Z</time>
<speed>22.8</speed>
</trkpt>
<trkpt lat="55.629656" lon="12.408420">
<ele>4.7</ele>
<time>2018-05-27T08:51:07Z</time>
<speed>23.6</speed>
</trkpt>
<trkpt lat="55.629676" lon="12.408800">
<ele>4.5</ele>
<time>2018-05-27T08:51:08Z</time>
<speed>23.6</speed>
</trkpt>
<trkpt lat="55.629696" lon="12.409165">
<ele>4.1</ele>
<time>2018-05-27T08:51:09Z</time>
<speed>23.3</speed>
</trkpt>
<trkpt lat="55.629708" lon="12.409542">
<ele>4.4</ele>
<time>2018-05-27T08:51:10Z</time>
<speed>23.1</speed>
</trkpt>
<trkpt lat="55.629729" lon="12.409907">
<ele>4.0</ele>
<time>2018-05-27T08:51:11Z</time>
<speed>23.1</speed>
</trkpt>
<trkpt lat="55.629744" lon="12.410272">
<ele>2.9</ele>
<time>2018-05-27T08:51:12Z</time>
<speed>22.5</speed>
</trkpt>
<trkpt lat="55.629760" lon="12.410618">
<ele>2.9</ele>
<time>2018-05-27T08:51:13Z</time>
<speed>22.2</speed>
</trkpt>
<trkpt lat="55.629782" lon="12.410968">
<ele>2.4</ele>
<time>2018-05-27T08:51:14Z</time>
<speed>22.2</speed>
</trkpt>
<trkpt lat="55.629804" lon="12.411317">
<ele>1.9</ele>
<time>2018-05-27T08:51:15Z</time>
<speed>22.5</speed>
</trkpt>
<trkpt lat="55.629831" lon="12.411667">
<ele>2.3</ele>
<time>2018-05-27T08:51:16Z</time>
<speed>22.5</speed>
</trkpt>
<trkpt lat="55.629850" lon="12.412028">
<ele>3.3</ele>
<time>2018-05-27T08:51:17Z</time>
<speed>22.8</speed>
</trkpt>
<trkpt lat="55.629871" lon="12.412393">
<ele>2.9</ele>
<time>2018-05-27T08:51:18Z</time>
<speed>23.1</speed>
</trkpt>
<trkpt lat="55.629893" lon="12.412743">
<ele>2.5</ele>
<time>2018-05-27T08:51:19Z</time>
<speed>22.8</speed>
</trkpt>
<trkpt lat="55.629914" lon="12.413108">
<ele>2.1</ele>
<time>2018-05-27T08:51:20Z</time>
<speed>22.8</speed>
</trkpt>
<trkpt lat="55.629929" lon="12.413473">
<ele>0.9</ele>
<time>2018-05-27T08:51:21Z</time>
<speed>22.8</speed>
</trkpt>
<trkpt lat="55.629943" lon="12.413834">
<ele>1.1</ele>
<time>2018-05-27T08:51:22Z</time>
<speed>22.5</speed>
</trkpt>
<trkpt lat="55.629965" lon="12.414184">
<ele>0.6</ele>
<time>2018-05-27T08:51:23Z</time>
<speed>22.5</speed>
</trkpt>
<trkpt lat="55.629986" lon="12.414549">
<ele>0.2</ele>
<time>2018-05-27T08:51:24Z</time>
<speed>22.5</speed>
</trkpt>
<trkpt lat="55.630001" lon="12.414895">
<ele>0.3</ele>
<time>2018-05-27T08:51:25Z</time>
<speed>22.2</speed>
</trkpt>
<trkpt lat="55.630023" lon="12.415244">
<ele>-0.2</ele>
<time>2018-05-27T08:51:26Z</time>
<speed>22.2</speed>
</trkpt>
<trkpt lat="55.630037" lon="12.415606">
<ele>0.0</ele>
<time>2018-05-27T08:51:27Z</time>
<speed>22.5</speed>
</trkpt>
<trkpt lat="55.630052" lon="12.415971">
<ele>-1.2</ele>
<time>2018-05-27T08:51:28Z</time>
<speed>22.8</speed>
</trkpt>
<trkpt lat="55.630066" lon="12.416333">
<ele>-1.0</ele>
<time>2018-05-27T08:51:29Z</time>
<speed>23.1</speed>
</trkpt>
<trkpt lat="55.630086" lon="12.416698">
<ele>-1.4</ele>
<time>2018-05-27T08:51:30Z</time>
<speed>23.3</speed>
</trkpt>
<trkpt lat="55.630105" lon="12.417078">
<ele>-1.6</ele>
<time>2018-05-27T08:51:31Z</time>
<speed>23.3</speed>
</trkpt>
<trkpt lat="55.630126" lon="12.417443">
<ele>-2.0</ele>
<time>2018-05-27T08:51:32Z</time>
<speed>23.9</speed>
</trkpt>
<trkpt lat="55.630150" lon="12.417824">
<ele>-1.4</ele>
<time>2018-05-27T08:51:33Z</time>
<speed>23.9</speed>
</trkpt>
<trkpt lat="55.630174" lon="12.418204">
<ele>-0.8</ele>
<time>2018-05-27T08:51:34Z</time>
<speed>23.9</speed>
</trkpt>
<trkpt lat="55.630198" lon="12.418585">
<ele>-0.2</ele>
<time>2018-05-27T08:51:35Z</time>
<speed>24.2</speed>
</trkpt>
<trkpt lat="55.630218" lon="12.418965">
<ele>-0.5</ele>
<time>2018-05-27T08:51:36Z</time>
<speed>24.2</speed>
</trkpt>
<trkpt lat="55.630229" lon="12.419342">
<ele>-0.1</ele>
<time>2018-05-27T08:51:37Z</time>
<speed>23.6</speed>
</trkpt>
<trkpt lat="55.630248" lon="12.419723">
<ele>-0.4</ele>
<time>2018-05-27T08:51:38Z</time>
<speed>23.3</speed>
</trkpt>
<trkpt lat="55.630269" lon="12.420088">
<ele>-0.8</ele>
<time>2018-05-27T08:51:39Z</time>
<speed>22.8</speed>
</trkpt>
<trkpt lat="55.630291" lon="12.420437">
<ele>-1.2</ele>
<time>2018-05-27T08:51:40Z</time>
<speed>22.5</speed>
</trkpt>
<trkpt lat="55.630310" lon="12.420799">
<ele>-0.2</ele>
<time>2018-05-27T08:51:41Z</time>
<speed>22.5</speed>
</trkpt>
<trkpt lat="55.630325" lon="12.421145">
<ele>-0.2</ele>
<time>2018-05-27T08:51:42Z</time>
<speed>22.2</speed>
</trkpt>
<trkpt lat="55.630347" lon="12.421494">
<ele>-0.6</ele>
<time>2018-05-27T08:51:43Z</time>
<speed>21.9</speed>
</trkpt>
<trkpt lat="55.630357" lon="12.421841">
<ele>-1.4</ele>
<time>2018-05-27T08:51:44Z</time>
<speed>21.9</speed>
</trkpt>
<trkpt lat="55.630366" lon="12.422202">
<ele>-2.0</ele>
<time>2018-05-27T08:51:45Z</time>
<speed>21.9</speed>
</trkpt>
<trkpt lat="55.630375" lon="12.422548">
<ele>-2.8</ele>
<time>2018-05-27T08:51:46Z</time>
<speed>21.9</speed>
</trkpt>
<trkpt lat="55.630383" lon="12.422891">
<ele>-2.2</ele>
<time>2018-05-27T08:51:47Z</time>
<speed>21.7</speed>
</trkpt>
<trkpt lat="55.630393" lon="12.423237">
<ele>-2.9</ele>
<time>2018-05-27T08:51:48Z</time>
<speed>21.9</speed>
</trkpt>
<trkpt lat="55.630396" lon="12.423580">
<ele>-3.1</ele>
<time>2018-05-27T08:51:49Z</time>
<speed>21.9</speed>
</trkpt>
<trkpt lat="55.630402" lon="12.423938">
<ele>-2.4</ele>
<time>2018-05-27T08:51:50Z</time>
<speed>21.9</speed>
</trkpt>
<trkpt lat="55.630400" lon="12.424280">
<ele>-3.4</ele>
<time>2018-05-27T08:51:51Z</time>
<speed>21.9</speed>
</trkpt>
<trkpt lat="55.630394" lon="12.424635">
<ele>-3.0</ele>
<time>2018-05-27T08:51:52Z</time>
<speed>21.7</speed>
</trkpt>
<trkpt lat="55.630387" lon="12.424990">
<ele>-2.5</ele>
<time>2018-05-27T08:51:53Z</time>
<speed>22.8</speed>
</trkpt>
<trkpt lat="55.630389" lon="12.425348">
<ele>-2.6</ele>
<time>2018-05-27T08:51:54Z</time>
<speed>22.2</speed>
</trkpt>
<trkpt lat="55.630390" lon="12.425706">
<ele>-2.7</ele>
<time>2018-05-27T08:51:55Z</time>
<speed>22.5</speed>
</trkpt>
<trkpt lat="55.630375" lon="12.426073">
<ele>-1.5</ele>
<time>2018-05-27T08:51:56Z</time>
<speed>22.5</speed>
</trkpt>
<trkpt lat="55.630356" lon="12.426425">
<ele>-1.3</ele>
<time>2018-05-27T08:51:57Z</time>
<speed>23.1</speed>
</trkpt>
<trkpt lat="55.630322" lon="12.426803">
<ele>-1.2</ele>
<time>2018-05-27T08:51:58Z</time>
<speed>23.1</speed>
</trkpt>
<trkpt lat="55.630295" lon="12.427167">
<ele>-0.3</ele>
<time>2018-05-27T08:51:59Z</time>
<speed>23.1</speed>
</trkpt>
<trkpt lat="55.630255" lon="12.427527">
<ele>0.3</ele>
<time>2018-05-27T08:52:00Z</time>
<speed>22.5</speed>
</trkpt>
<trkpt lat="55.630216" lon="12.427887">
<ele>0.9</ele>
<time>2018-05-27T08:52:01Z</time>
<speed>22.5</speed>
</trkpt>
<trkpt lat="55.630158" lon="12.428225">
<ele>1.6</ele>
<time>2018-05-27T08:52:02Z</time>
<speed>21.9</speed>
</trkpt>
<trkpt lat="55.630094" lon="12.428578">
<ele>1.7</ele>
<time>2018-05-27T08:52:03Z</time>
<speed>21.7</speed>
</trkpt>
<trkpt lat="55.630045" lon="12.428903">
<ele>1.8</ele>
<time>2018-05-27T08:52:04Z</time>
<speed>21.4</speed>
</trkpt>
<trkpt lat="55.629984" lon="12.429226">
<ele>1.6</ele>
<time>2018-05-27T08:52:05Z</time>
<speed>21.1</speed>
</trkpt>
<trkpt lat="55.629923" lon="12.429548">
<ele>1.4</ele>
<time>2018-05-27T08:52:06Z</time>
<speed>21.1</speed>
</trkpt>
<trkpt lat="55.629857" lon="12.429851">
<ele>1.6</ele>
<time>2018-05-27T08:52:07Z</time>
<speed>20.8</speed>
</trkpt>
<trkpt lat="55.629797" lon="12.430158">
<ele>1.3</ele>
<time>2018-05-27T08:52:08Z</time>
<speed>20.0</speed>
</trkpt>
<trkpt lat="55.629730" lon="12.430461">
<ele>1.5</ele>
<time>2018-05-27T08:52:09Z</time>
<speed>20.0</speed>
</trkpt>
<trkpt lat="55.629653" lon="12.430745">
<ele>1.3</ele>
<time>2018-05-27T08:52:10Z</time>
<speed>20.0</speed>
</trkpt>
<trkpt lat="55.629556" lon="12.431023">
<ele>1.4</ele>
<time>2018-05-27T08:52:11Z</time>
<speed>20.0</speed>
</trkpt>
<trkpt lat="55.629454" lon="12.431300">
<ele>0.7</ele>
<time>2018-05-27T08:52:12Z</time>
<speed>20.0</speed>
</trkpt>
<trkpt lat="55.629364" lon="12.431581">
<ele>0.3</ele>
<time>2018-05-27T08:52:13Z</time>
<speed>20.0</speed>
</trkpt>
<trkpt lat="55.629255" lon="12.431855">
<ele>0.1</ele>
<time>2018-05-27T08:52:14Z</time>
<speed>20.3</speed>
</trkpt>
<trkpt lat="55.629146" lon="12.432129">
<ele>0.0</ele>
<time>2018-05-27T08:52:15Z</time>
<speed>20.6</speed>
</trkpt>
<trkpt lat="55.629049" lon="12.432407">
<ele>0.1</ele>
<time>2018-05-27T08:52:16Z</time>
<speed>20.6</speed>
</trkpt>
<trkpt lat="55.628940" lon="12.432681">
<ele>-0.1</ele>
<time>2018-05-27T08:52:17Z</time>
<speed>21.1</speed>
</trkpt>
<trkpt lat="55.628829" lon="12.432970">
<ele>-0.1</ele>
<time>2018-05-27T08:52:18Z</time>
<speed>21.4</speed>
</trkpt>
<trkpt lat="55.628720" lon="12.433244">
<ele>-0.3</ele>
<time>2018-05-27T08:52:19Z</time>
<speed>21.4</speed>
</trkpt>
<trkpt lat="55.628603" lon="12.433515">
<ele>0.1</ele>
<time>2018-05-27T08:52:20Z</time>
<speed>21.1</speed>
</trkpt>
<trkpt lat="55.628481" lon="12.433767">
<ele>0.9</ele>
<time>2018-05-27T08:52:21Z</time>
<speed>21.1</speed>
</trkpt>
<trkpt lat="55.628366" lon="12.434022">
<ele>1.2</ele>
<time>2018-05-27T08:52:22Z</time>
<speed>19.7</speed>
</trkpt>
<trkpt lat="55.628254" lon="12.434246">
<ele>1.2</ele>
<time>2018-05-27T08:52:23Z</time>
<speed>18.6</speed>
</trkpt>
<trkpt lat="55.628156" lon="12.434458">
<ele>1.4</ele>
<time>2018-05-27T08:52:24Z</time>
<speed>17.2</speed>
</trkpt>
<trkpt lat="55.628076" lon="12.434627">
<ele>1.5</ele>
<time>2018-05-27T08:52:25Z</time>
<speed>15.3</speed>
</trkpt>
<trkpt lat="55.627970" lon="12.434789">
<ele>1.0</ele>
<time>2018-05-27T08:52:26Z</time>
<speed>15.3</speed>
</trkpt>
<trkpt lat="55.627870" lon="12.434905">
<ele>0.2</ele>
<time>2018-05-27T08:52:27Z</time>
<speed>14.4</speed>
</trkpt>
<trkpt lat="55.627751" lon="12.434998">
<ele>-0.4</ele>
<time>2018-05-27T08:52:28Z</time>
<speed>13.9</speed>
</trkpt>
<trkpt lat="55.627638" lon="12.435045">
<ele>-1.5</ele>
<time>2018-05-27T08:52:29Z</time>
<speed>12.8</speed>
</trkpt>
<trkpt lat="55.627534" lon="12.435045">
<ele>-2.1</ele>
<time>2018-05-27T08:52:30Z</time>
<speed>12.2</speed>
</trkpt>
<trkpt lat="55.627421" lon="12.435011">
<ele>-3.1</ele>
<time>2018-05-27T08:52:31Z</time>
<speed>12.2</speed>
</trkpt>
<trkpt lat="55.627323" lon="12.434949">
<ele>-4.2</ele>
<time>2018-05-27T08:52:32Z</time>
<speed>12.5</speed>
</trkpt>
<trkpt lat="55.627241" lon="12.434860">
<ele>-5.2</ele>
<time>2018-05-27T08:52:33Z</time>
<speed>11.9</speed>
</trkpt>
<trkpt lat="55.627168" lon="12.434739">
<ele>-5.7</ele>
<time>2018-05-27T08:52:34Z</time>
<speed>11.7</speed>
</trkpt>
<trkpt lat="55.627145" lon="12.434570">
<ele>-6.3</ele>
<time>2018-05-27T08:52:35Z</time>
<speed>10.8</speed>
</trkpt>
<trkpt lat="55.627121" lon="12.434383">
<ele>-5.7</ele>
<time>2018-05-27T08:52:36Z</time>
<speed>10.8</speed>
</trkpt>
<trkpt lat="55.627117" lon="12.434202">
<ele>-5.4</ele>
<time>2018-05-27T08:52:37Z</time>
<speed>10.8</speed>
</trkpt>
<trkpt lat="55.627146" lon="12.433997">
<ele>-4.0</ele>
<time>2018-05-27T08:52:38Z</time>
<speed>11.4</speed>
</trkpt>
<trkpt lat="55.627175" lon="12.433811">
<ele>-3.8</ele>
<time>2018-05-27T08:52:39Z</time>
<speed>11.7</speed>
</trkpt>
<trkpt lat="55.627222" lon="12.433647">
<ele>-3.8</ele>
<time>2018-05-27T08:52:40Z</time>
<speed>11.7</speed>
</trkpt>
<trkpt lat="55.627283" lon="12.433472">
<ele>-3.6</ele>
<time>2018-05-27T08:52:41Z</time>
<speed>11.7</speed>
</trkpt>
<trkpt lat="55.627353" lon="12.433330">
<ele>-2.9</ele>
<time>2018-05-27T08:52:42Z</time>
<speed>11.4</speed>
</trkpt>
<trkpt lat="55.627418" lon="12.433170">
<ele>-1.7</ele>
<time>2018-05-27T08:52:43Z</time>
<speed>12.2</speed>
</trkpt>
<trkpt lat="55.627499" lon="12.433001">
<ele>-1.8</ele>
<time>2018-05-27T08:52:44Z</time>
<speed>13.3</speed>
</trkpt>
<trkpt lat="55.627611" lon="12.432823">
<ele>-0.6</ele>
<time>2018-05-27T08:52:45Z</time>
<speed>14.4</speed>
</trkpt>
<trkpt lat="55.627716" lon="12.432642">
<ele>1.1</ele>
<time>2018-05-27T08:52:46Z</time>
<speed>14.4</speed>
</trkpt>
<trkpt lat="55.627841" lon="12.432453">
<ele>2.4</ele>
<time>2018-05-27T08:52:47Z</time>
<speed>16.7</speed>
</trkpt>
<trkpt lat="55.627957" lon="12.432244">
<ele>3.3</ele>
<time>2018-05-27T08:52:48Z</time>
<speed>17.8</speed>
</trkpt>
<trkpt lat="55.628090" lon="12.432058">
<ele>4.1</ele>
<time>2018-05-27T08:52:49Z</time>
<speed>18.3</speed>
</trkpt>
<trkpt lat="55.628237" lon="12.431859">
<ele>5.0</ele>
<time>2018-05-27T08:52:50Z</time>
<speed>19.4</speed>
</trkpt>
<trkpt lat="55.628379" lon="12.431661">
<ele>5.1</ele>
<time>2018-05-27T08:52:51Z</time>
<speed>19.4</speed>
</trkpt>
<trkpt lat="55.628540" lon="12.431470">
<ele>4.9</ele>
<time>2018-05-27T08:52:52Z</time>
<speed>21.1</speed>
</trkpt>
<trkpt lat="55.628695" lon="12.431275">
<ele>5.3</ele>
<time>2018-05-27T08:52:53Z</time>
<speed>21.7</speed>
</trkpt>
<trkpt lat="55.628861" lon="12.431083">
<ele>5.9</ele>
<time>2018-05-27T08:52:54Z</time>
<speed>21.4</speed>
</trkpt>
<trkpt lat="55.629033" lon="12.430910">
<ele>6.1</ele>
<time>2018-05-27T08:52:55Z</time>
<speed>21.4</speed>
</trkpt>
<trkpt lat="55.629201" lon="12.430738">
<ele>5.5</ele>
<time>2018-05-27T08:52:56Z</time>
<speed>21.4</speed>
</trkpt>
<trkpt lat="55.629385" lon="12.430569">
<ele>6.0</ele>
<time>2018-05-27T08:52:57Z</time>
<speed>22.2</speed>
</trkpt>
<trkpt lat="55.629565" lon="12.430399">
<ele>5.6</ele>
<time>2018-05-27T08:52:58Z</time>
<speed>22.5</speed>
</trkpt>
<trkpt lat="55.629749" lon="12.430230">
<ele>6.1</ele>
<time>2018-05-27T08:52:59Z</time>
<speed>22.2</speed>
</trkpt>
<trkpt lat="55.629938" lon="12.430095">
<ele>6.3</ele>
<time>2018-05-27T08:53:00Z</time>
<speed>22.2</speed>
</trkpt>
<trkpt lat="55.630116" lon="12.429942">
<ele>6.1</ele>
<time>2018-05-27T08:53:01Z</time>
<speed>22.2</speed>
</trkpt>
<trkpt lat="55.630303" lon="12.429822">
<ele>6.4</ele>
<time>2018-05-27T08:53:02Z</time>
<speed>22.2</speed>
</trkpt>
<trkpt lat="55.630496" lon="12.429688">
<ele>7.4</ele>
<time>2018-05-27T08:53:03Z</time>
<speed>22.2</speed>
</trkpt>
<trkpt lat="55.630688" lon="12.429568">
<ele>8.5</ele>
<time>2018-05-27T08:53:04Z</time>
<speed>22.2</speed>
</trkpt>
<trkpt lat="55.630879" lon="12.429465">
<ele>9.8</ele>
<time>2018-05-27T08:53:05Z</time>
<speed>22.2</speed>
</trkpt>
<trkpt lat="55.631069" lon="12.429361">
<ele>11.0</ele>
<time>2018-05-27T08:53:06Z</time>
<speed>22.2</speed>
</trkpt>
<trkpt lat="55.631262" lon="12.429260">
<ele>10.9</ele>
<time>2018-05-27T08:53:07Z</time>
<speed>22.2</speed>
</trkpt>
<trkpt lat="55.631452" lon="12.429157">
<ele>12.1</ele>
<time>2018-05-27T08:53:08Z</time>
<speed>22.2</speed>
</trkpt>
<trkpt lat="55.631649" lon="12.429072">
<ele>12.9</ele>
<time>2018-05-27T08:53:09Z</time>
<speed>22.5</speed>
</trkpt>
<trkpt lat="55.631854" lon="12.428975">
<ele>13.1</ele>
<time>2018-05-27T08:53:10Z</time>
<speed>22.8</speed>
</trkpt>
<trkpt lat="55.632057" lon="12.428893">
<ele>13.3</ele>
<time>2018-05-27T08:53:11Z</time>
<speed>22.8</speed>
</trkpt>
<trkpt lat="55.632262" lon="12.428796">
<ele>13.5</ele>
<time>2018-05-27T08:53:12Z</time>
<speed>23.6</speed>
</trkpt>
<trkpt lat="55.632472" lon="12.428718">
<ele>13.2</ele>
<time>2018-05-27T08:53:13Z</time>
<speed>23.9</speed>
</trkpt>
<trkpt lat="55.632676" lon="12.428637">
<ele>13.5</ele>
<time>2018-05-27T08:53:14Z</time>
<speed>23.9</speed>
</trkpt>
<trkpt lat="55.632893" lon="12.428543">
<ele>13.9</ele>
<time>2018-05-27T08:53:15Z</time>
<speed>24.2</speed>
</trkpt>
<trkpt lat="55.633109" lon="12.428465">
<ele>14.4</ele>
<time>2018-05-27T08:53:16Z</time>
<speed>24.2</speed>
</trkpt>
<trkpt lat="55.633321" lon="12.428372">
<ele>14.0</ele>
<time>2018-05-27T08:53:17Z</time>
<speed>23.9</speed>
</trkpt>
<trkpt lat="55.633529" lon="12.428290">
<ele>15.1</ele>
<time>2018-05-27T08:53:18Z</time>
<speed>24.2</speed>
</trkpt>
<trkpt lat="55.633742" lon="12.428197">
<ele>14.7</ele>
<time>2018-05-27T08:53:19Z</time>
<speed>24.2</speed>
</trkpt>
<trkpt lat="55.633952" lon="12.428119">
<ele>14.4</ele>
<time>2018-05-27T08:53:20Z</time>
<speed>24.2</speed>
</trkpt>
<trkpt lat="55.634163" lon="12.428041">
<ele>14.1</ele>
<time>2018-05-27T08:53:21Z</time>
<speed>24.2</speed>
</trkpt>
<trkpt lat="55.634375" lon="12.427947">
<ele>13.7</ele>
<time>2018-05-27T08:53:22Z</time>
<speed>23.6</speed>
</trkpt>
<trkpt lat="55.634578" lon="12.427866">
<ele>14.0</ele>
<time>2018-05-27T08:53:23Z</time>
<speed>23.3</speed>
</trkpt>
<trkpt lat="55.634789" lon="12.427788">
<ele>13.7</ele>
<time>2018-05-27T08:53:24Z</time>
<speed>23.1</speed>
</trkpt>
<trkpt lat="55.634987" lon="12.427706">
<ele>13.2</ele>
<time>2018-05-27T08:53:25Z</time>
<speed>22.8</speed>
</trkpt>
<trkpt lat="55.635191" lon="12.427625">
<ele>13.4</ele>
<time>2018-05-27T08:53:26Z</time>
<speed>22.8</speed>
</trkpt>
<trkpt lat="55.635394" lon="12.427543">
<ele>13.7</ele>
<time>2018-05-27T08:53:27Z</time>
<speed>23.3</speed>
</trkpt>
<trkpt lat="55.635597" lon="12.427462">
<ele>14.0</ele>
<time>2018-05-27T08:53:28Z</time>
<speed>23.3</speed>
</trkpt>
<trkpt lat="55.635801" lon="12.427380">
<ele>14.2</ele>
<time>2018-05-27T08:53:29Z</time>
<speed>23.1</speed>
</trkpt>
<trkpt lat="55.636006" lon="12.427283">
<ele>14.4</ele>
<time>2018-05-27T08:53:30Z</time>
<speed>23.1</speed>
</trkpt>
<trkpt lat="55.636209" lon="12.427202">
<ele>14.6</ele>
<time>2018-05-27T08:53:31Z</time>
<speed>23.1</speed>
</trkpt>
<trkpt lat="55.636400" lon="12.427117">
<ele>14.6</ele>
<time>2018-05-27T08:53:32Z</time>
<speed>22.2</speed>
</trkpt>
<trkpt lat="55.636596" lon="12.427032">
<ele>15.4</ele>
<time>2018-05-27T08:53:33Z</time>
<speed>22.2</speed>
</trkpt>
<trkpt lat="55.636793" lon="12.426966">
<ele>15.0</ele>
<time>2018-05-27T08:53:34Z</time>
<speed>21.9</speed>
</trkpt>
<trkpt lat="55.636984" lon="12.426881">
<ele>15.0</ele>
<time>2018-05-27T08:53:35Z</time>
<speed>21.9</speed>
</trkpt>
<trkpt lat="55.637173" lon="12.426812">
<ele>15.1</ele>
<time>2018-05-27T08:53:36Z</time>
<speed>21.9</speed>
</trkpt>
<trkpt lat="55.637369" lon="12.426727">
<ele>15.9</ele>
<time>2018-05-27T08:53:37Z</time>
<speed>21.9</speed>
</trkpt>
<trkpt lat="55.637560" lon="12.426642">
<ele>15.9</ele>
<time>2018-05-27T08:53:38Z</time>
<speed>21.7</speed>
</trkpt>
<trkpt lat="55.637750" lon="12.426573">
<ele>16.0</ele>
<time>2018-05-27T08:53:39Z</time>
<speed>21.7</speed>
</trkpt>
<trkpt lat="55.637941" lon="12.426488">
<ele>16.0</ele>
<time>2018-05-27T08:53:40Z</time>
<speed>21.7</speed>
</trkpt>
<trkpt lat="55.638132" lon="12.426403">
<ele>16.0</ele>
<time>2018-05-27T08:53:41Z</time>
<speed>21.7</speed>
</trkpt>
<trkpt lat="55.638327" lon="12.426333">
<ele>17.0</ele>
<time>2018-05-27T08:53:42Z</time>
<speed>21.9</speed>
</trkpt>
<trkpt lat="55.638518" lon="12.426249">
<ele>17.0</ele>
<time>2018-05-27T08:53:43Z</time>
<speed>22.2</speed>
</trkpt>
<trkpt lat="55.638721" lon="12.426167">
<ele>17.2</ele>
<time>2018-05-27T08:53:44Z</time>
<speed>22.2</speed>
</trkpt>
<trkpt lat="55.638910" lon="12.426098">
<ele>17.3</ele>
<time>2018-05-27T08:53:45Z</time>
<speed>22.5</speed>
</trkpt>
<trkpt lat="55.639106" lon="12.426013">
<ele>18.2</ele>
<time>2018-05-27T08:53:46Z</time>
<speed>22.5</speed>
</trkpt>
<trkpt lat="55.639305" lon="12.425931">
<ele>17.6</ele>
<time>2018-05-27T08:53:47Z</time>
<speed>22.5</speed>
</trkpt>
<trkpt lat="55.639508" lon="12.425850">
<ele>17.9</ele>
<time>2018-05-27T08:53:48Z</time>
<speed>22.8</speed>
</trkpt>
<trkpt lat="55.639706" lon="12.425749">
<ele>18.6</ele>
<time>2018-05-27T08:53:49Z</time>
<speed>22.8</speed>
</trkpt>
<trkpt lat="55.639909" lon="12.425668">
<ele>18.8</ele>
<time>2018-05-27T08:53:50Z</time>
<speed>22.8</speed>
</trkpt>
<trkpt lat="55.640107" lon="12.425586">
<ele>18.3</ele>
<time>2018-05-27T08:53:51Z</time>
<speed>22.8</speed>
</trkpt>
<trkpt lat="55.640304" lon="12.425502">
<ele>19.1</ele>
<time>2018-05-27T08:53:52Z</time>
<speed>22.2</speed>
</trkpt>
<trkpt lat="55.640500" lon="12.425436">
<ele>18.7</ele>
<time>2018-05-27T08:53:53Z</time>
<speed>21.9</speed>
</trkpt>
<trkpt lat="55.640696" lon="12.425351">
<ele>19.5</ele>
<time>2018-05-27T08:53:54Z</time>
<speed>21.9</speed>
</trkpt>
<trkpt lat="55.640886" lon="12.425281">
<ele>19.6</ele>
<time>2018-05-27T08:53:55Z</time>
<speed>21.9</speed>
</trkpt>
<trkpt lat="55.641077" lon="12.425196">
<ele>19.6</ele>
<time>2018-05-27T08:53:56Z</time>
<speed>21.9</speed>
</trkpt>
<trkpt lat="55.641271" lon="12.425127">
<ele>20.5</ele>
<time>2018-05-27T08:53:57Z</time>
<speed>21.9</speed>
</trkpt>
<trkpt lat="55.641468" lon="12.425061">
<ele>20.1</ele>
<time>2018-05-27T08:53:58Z</time>
<speed>21.9</speed>
</trkpt>
<trkpt lat="55.641658" lon="12.424992">
<ele>20.2</ele>
<time>2018-05-27T08:53:59Z</time>
<speed>22.2</speed>
</trkpt>
<trkpt lat="55.641856" lon="12.424910">
<ele>19.7</ele>
<time>2018-05-27T08:54:00Z</time>
<speed>22.2</speed>
</trkpt>
<trkpt lat="55.642052" lon="12.424844">
<ele>19.2</ele>
<time>2018-05-27T08:54:01Z</time>
<speed>22.2</speed>
</trkpt>
<trkpt lat="55.642249" lon="12.424778">
<ele>18.8</ele>
<time>2018-05-27T08:54:02Z</time>
<speed>22.8</speed>
</trkpt>
<trkpt lat="55.642451" lon="12.424712">
<ele>19.2</ele>
<time>2018-05-27T08:54:03Z</time>
<speed>23.3</speed>
</trkpt>
<trkpt lat="55.642662" lon="12.424634">
<ele>18.9</ele>
<time>2018-05-27T08:54:04Z</time>
<speed>23.9</speed>
</trkpt>
<trkpt lat="55.642871" lon="12.424571">
<ele>18.8</ele>
<time>2018-05-27T08:54:05Z</time>
<speed>24.2</speed>
</trkpt>
<trkpt lat="55.643088" lon="12.424497">
<ele>17.9</ele>
<time>2018-05-27T08:54:06Z</time>
<speed>24.2</speed>
</trkpt>
<trkpt lat="55.643305" lon="12.424438">
<ele>17.2</ele>
<time>2018-05-27T08:54:07Z</time>
<speed>23.9</speed>
</trkpt>
<trkpt lat="55.643519" lon="12.424375">
<ele>17.9</ele>
<time>2018-05-27T08:54:08Z</time>
<speed>23.9</speed>
</trkpt>
<trkpt lat="55.643728" lon="12.424313">
<ele>17.7</ele>
<time>2018-05-27T08:54:09Z</time>
<speed>23.6</speed>
</trkpt>
<trkpt lat="55.643937" lon="12.424250">
<ele>17.6</ele>
<time>2018-05-27T08:54:10Z</time>
<speed>23.3</speed>
</trkpt>
<trkpt lat="55.644144" lon="12.424203">
<ele>17.5</ele>
<time>2018-05-27T08:54:11Z</time>
<speed>23.3</speed>
</trkpt>
<trkpt lat="55.644353" lon="12.424140">
<ele>17.4</ele>
<time>2018-05-27T08:54:12Z</time>
<speed>23.1</speed>
</trkpt>
<trkpt lat="55.644560" lon="12.424093">
<ele>17.3</ele>
<time>2018-05-27T08:54:13Z</time>
<speed>22.5</speed>
</trkpt>
<trkpt lat="55.644762" lon="12.424027">
<ele>17.7</ele>
<time>2018-05-27T08:54:14Z</time>
<speed>22.5</speed>
</trkpt>
<trkpt lat="55.644965" lon="12.423980">
<ele>16.9</ele>
<time>2018-05-27T08:54:15Z</time>
<speed>22.5</speed>
</trkpt>
<trkpt lat="55.645172" lon="12.423933">
<ele>16.8</ele>
<time>2018-05-27T08:54:16Z</time>
<speed>22.5</speed>
</trkpt>
<trkpt lat="55.645374" lon="12.423886">
<ele>16.0</ele>
<time>2018-05-27T08:54:17Z</time>
<speed>23.1</speed>
</trkpt>
<trkpt lat="55.645582" lon="12.423839">
<ele>15.9</ele>
<time>2018-05-27T08:54:18Z</time>
<speed>23.1</speed>
</trkpt>
<trkpt lat="55.645794" lon="12.423792">
<ele>16.7</ele>
<time>2018-05-27T08:54:19Z</time>
<speed>23.3</speed>
</trkpt>
<trkpt lat="55.646007" lon="12.423745">
<ele>17.5</ele>
<time>2018-05-27T08:54:20Z</time>
<speed>23.3</speed>
</trkpt>
<trkpt lat="55.646220" lon="12.423717">
<ele>17.0</ele>
<time>2018-05-27T08:54:21Z</time>
<speed>23.3</speed>
</trkpt>
<trkpt lat="55.646426" lon="12.423685">
<ele>17.1</ele>
<time>2018-05-27T08:54:22Z</time>
<speed>23.9</speed>
</trkpt>
<trkpt lat="55.646644" lon="12.423657">
<ele>17.5</ele>
<time>2018-05-27T08:54:23Z</time>
<speed>24.2</speed>
</trkpt>
<trkpt lat="55.646857" lon="12.423629">
<ele>17.0</ele>
<time>2018-05-27T08:54:24Z</time>
<speed>24.4</speed>
</trkpt>
<trkpt lat="55.647082" lon="12.423604">
<ele>16.8</ele>
<time>2018-05-27T08:54:25Z</time>
<speed>24.7</speed>
</trkpt>
<trkpt lat="55.647299" lon="12.423591">
<ele>17.3</ele>
<time>2018-05-27T08:54:26Z</time>
<speed>24.7</speed>
</trkpt>
<trkpt lat="55.647531" lon="12.423570">
<ele>16.5</ele>
<time>2018-05-27T08:54:27Z</time>
<speed>25.6</speed>
</trkpt>
<trkpt lat="55.647762" lon="12.423545">
<ele>17.2</ele>
<time>2018-05-27T08:54:28Z</time>
<speed>25.3</speed>
</trkpt>
<trkpt lat="55.647985" lon="12.423536">
<ele>17.1</ele>
<time>2018-05-27T08:54:29Z</time>
<speed>25.0</speed>
</trkpt>
<trkpt lat="55.648209" lon="12.423527">
<ele>17.0</ele>
<time>2018-05-27T08:54:30Z</time>
<speed>24.4</speed>
</trkpt>
<trkpt lat="55.648421" lon="12.423514">
<ele>16.7</ele>
<time>2018-05-27T08:54:31Z</time>
<speed>24.4</speed>
</trkpt>
<trkpt lat="55.648643" lon="12.423521">
<ele>16.7</ele>
<time>2018-05-27T08:54:32Z</time>
<speed>23.9</speed>
</trkpt>
<trkpt lat="55.648853" lon="12.423524">
<ele>16.5</ele>
<time>2018-05-27T08:54:33Z</time>
<speed>23.9</speed>
</trkpt>
<trkpt lat="55.649071" lon="12.423514">
<ele>15.6</ele>
<time>2018-05-27T08:54:34Z</time>
<speed>24.4</speed>
</trkpt>
<trkpt lat="55.649286" lon="12.423517">
<ele>16.2</ele>
<time>2018-05-27T08:54:35Z</time>
<speed>24.4</speed>
</trkpt>
<trkpt lat="55.649503" lon="12.423524">
<ele>15.5</ele>
<time>2018-05-27T08:54:36Z</time>
<speed>24.4</speed>
</trkpt>
<trkpt lat="55.649718" lon="12.423526">
<ele>16.1</ele>
<time>2018-05-27T08:54:37Z</time>
<speed>23.9</speed>
</trkpt>
<trkpt lat="55.649937" lon="12.423517">
<ele>15.2</ele>
<time>2018-05-27T08:54:38Z</time>
<speed>23.3</speed>
</trkpt>
<trkpt lat="55.650140" lon="12.423517">
<ele>15.5</ele>
<time>2018-05-27T08:54:39Z</time>
<speed>23.1</speed>
</trkpt>
<trkpt lat="55.650349" lon="12.423520">
<ele>15.3</ele>
<time>2018-05-27T08:54:40Z</time>
<speed>22.8</speed>
</trkpt>
<trkpt lat="55.650547" lon="12.423519">
<ele>14.8</ele>
<time>2018-05-27T08:54:41Z</time>
<speed>22.8</speed>
</trkpt>
<trkpt lat="55.650750" lon="12.423518">
<ele>15.1</ele>
<time>2018-05-27T08:54:42Z</time>
<speed>22.2</speed>
</trkpt>
<trkpt lat="55.650952" lon="12.423518">
<ele>15.4</ele>
<time>2018-05-27T08:54:43Z</time>
<speed>21.9</speed>
</trkpt>
<trkpt lat="55.651150" lon="12.423517">
<ele>14.9</ele>
<time>2018-05-27T08:54:44Z</time>
<speed>22.2</speed>
</trkpt>
<trkpt lat="55.651351" lon="12.423532">
<ele>15.4</ele>
<time>2018-05-27T08:54:45Z</time>
<speed>22.2</speed>
</trkpt>
<trkpt lat="55.651556" lon="12.423535">
<ele>14.3</ele>
<time>2018-05-27T08:54:46Z</time>
<speed>22.2</speed>
</trkpt>
<trkpt lat="55.651758" lon="12.423535">
<ele>14.7</ele>
<time>2018-05-27T08:54:47Z</time>
<speed>22.8</speed>
</trkpt>
<trkpt lat="55.651968" lon="12.423538">
<ele>14.5</ele>
<time>2018-05-27T08:54:48Z</time>
<speed>23.1</speed>
</trkpt>
<trkpt lat="55.652183" lon="12.423540">
<ele>15.1</ele>
<time>2018-05-27T08:54:49Z</time>
<speed>23.3</speed>
</trkpt>
<trkpt lat="55.652393" lon="12.423543">
<ele>14.8</ele>
<time>2018-05-27T08:54:50Z</time>
<speed>23.3</speed>
</trkpt>
<trkpt lat="55.652603" lon="12.423546">
<ele>14.6</ele>
<time>2018-05-27T08:54:51Z</time>
<speed>23.3</speed>
</trkpt>
<trkpt lat="55.652814" lon="12.423534">
<ele>14.3</ele>
<time>2018-05-27T08:54:52Z</time>
<speed>23.1</speed>
</trkpt>
<trkpt lat="55.653024" lon="12.423536">
<ele>14.0</ele>
<time>2018-05-27T08:54:53Z</time>
<speed>22.8</speed>
</trkpt>
<trkpt lat="55.653227" lon="12.423536">
<ele>14.4</ele>
<time>2018-05-27T08:54:54Z</time>
<speed>22.8</speed>
</trkpt>
<trkpt lat="55.653429" lon="12.423535">
<ele>14.7</ele>
<time>2018-05-27T08:54:55Z</time>
<speed>22.5</speed>
</trkpt>
<trkpt lat="55.653625" lon="12.423550">
<ele>14.3</ele>
<time>2018-05-27T08:54:56Z</time>
<speed>22.5</speed>
</trkpt>
<trkpt lat="55.653823" lon="12.423550">
<ele>13.8</ele>
<time>2018-05-27T08:54:57Z</time>
<speed>21.7</speed>
</trkpt>
<trkpt lat="55.654025" lon="12.423549">
<ele>14.2</ele>
<time>2018-05-27T08:54:58Z</time>
<speed>21.9</speed>
</trkpt>
<trkpt lat="55.654217" lon="12.423530">
<ele>14.1</ele>
<time>2018-05-27T08:54:59Z</time>
<speed>22.2</speed>
</trkpt>
<trkpt lat="55.654425" lon="12.423529">
<ele>15.3</ele>
<time>2018-05-27T08:55:00Z</time>
<speed>22.2</speed>
</trkpt>
<trkpt lat="55.654628" lon="12.423529">
<ele>15.6</ele>
<time>2018-05-27T08:55:01Z</time>
<speed>22.2</speed>
</trkpt>
<trkpt lat="55.654825" lon="12.423528">
<ele>15.1</ele>
<time>2018-05-27T08:55:02Z</time>
<speed>22.2</speed>
</trkpt>
<trkpt lat="55.655029" lon="12.423512">
<ele>15.3</ele>
<time>2018-05-27T08:55:03Z</time>
<speed>22.5</speed>
</trkpt>
<trkpt lat="55.655239" lon="12.423515">
<ele>15.1</ele>
<time>2018-05-27T08:55:04Z</time>
<speed>22.8</speed>
</trkpt>
<trkpt lat="55.655442" lon="12.423514">
<ele>15.4</ele>
<time>2018-05-27T08:55:05Z</time>
<speed>22.8</speed>
</trkpt>
<trkpt lat="55.655652" lon="12.423517">
<ele>15.2</ele>
<time>2018-05-27T08:55:06Z</time>
<speed>22.8</speed>
</trkpt>
<trkpt lat="55.655854" lon="12.423517">
<ele>15.5</ele>
<time>2018-05-27T08:55:07Z</time>
<speed>22.5</speed>
</trkpt>
<trkpt lat="55.656064" lon="12.423520">
<ele>15.3</ele>
<time>2018-05-27T08:55:08Z</time>
<speed>22.2</speed>
</trkpt>
<trkpt lat="55.656267" lon="12.423519">
<ele>15.6</ele>
<time>2018-05-27T08:55:09Z</time>
<speed>22.5</speed>
</trkpt>
<trkpt lat="55.656469" lon="12.423519">
<ele>16.0</ele>
<time>2018-05-27T08:55:10Z</time>
<speed>22.5</speed>
</trkpt>
<trkpt lat="55.656672" lon="12.423518">
<ele>16.3</ele>
<time>2018-05-27T08:55:11Z</time>
<speed>22.5</speed>
</trkpt>
<trkpt lat="55.656882" lon="12.423521">
<ele>16.1</ele>
<time>2018-05-27T08:55:12Z</time>
<speed>22.5</speed>
</trkpt>
<trkpt lat="55.657085" lon="12.423520">
<ele>16.4</ele>
<time>2018-05-27T08:55:13Z</time>
<speed>22.8</speed>
</trkpt>
<trkpt lat="55.657287" lon="12.423520">
<ele>16.7</ele>
<time>2018-05-27T08:55:14Z</time>
<speed>22.8</speed>
</trkpt>
<trkpt lat="55.657497" lon="12.423523">
<ele>16.5</ele>
<time>2018-05-27T08:55:15Z</time>
<speed>22.5</speed>
</trkpt>
<trkpt lat="55.657701" lon="12.423507">
<ele>16.7</ele>
<time>2018-05-27T08:55:16Z</time>
<speed>22.5</speed>
</trkpt>
<trkpt lat="55.657904" lon="12.423506">
<ele>17.1</ele>
<time>2018-05-27T08:55:17Z</time>
<speed>23.1</speed>
</trkpt>
<trkpt lat="55.658114" lon="12.423509">
<ele>16.8</ele>
<time>2018-05-27T08:55:18Z</time>
<speed>23.1</speed>
</trkpt>
<trkpt lat="55.658329" lon="12.423512">
<ele>17.5</ele>
<time>2018-05-27T08:55:19Z</time>
<speed>23.1</speed>
</trkpt>
<trkpt lat="55.658531" lon="12.423511">
<ele>17.8</ele>
<time>2018-05-27T08:55:20Z</time>
<speed>23.1</speed>
</trkpt>
<trkpt lat="55.658743" lon="12.423499">
<ele>17.4</ele>
<time>2018-05-27T08:55:21Z</time>
<speed>23.1</speed>
</trkpt>
<trkpt lat="55.658950" lon="12.423498">
<ele>18.6</ele>
<time>2018-05-27T08:55:22Z</time>
<speed>23.1</speed>
</trkpt>
<trkpt lat="55.659160" lon="12.423501">
<ele>18.4</ele>
<time>2018-05-27T08:55:23Z</time>
<speed>23.3</speed>
</trkpt>
<trkpt lat="55.659370" lon="12.423504">
<ele>18.2</ele>
<time>2018-05-27T08:55:24Z</time>
<speed>23.3</speed>
</trkpt>
<trkpt lat="55.659585" lon="12.423507">
<ele>18.8</ele>
<time>2018-05-27T08:55:25Z</time>
<speed>23.3</speed>
</trkpt>
<trkpt lat="55.659795" lon="12.423510">
<ele>18.6</ele>
<time>2018-05-27T08:55:26Z</time>
<speed>23.3</speed>
</trkpt>
<trkpt lat="55.660001" lon="12.423497">
<ele>17.4</ele>
<time>2018-05-27T08:55:27Z</time>
<speed>23.1</speed>
</trkpt>
<trkpt lat="55.660211" lon="12.423500">
<ele>17.2</ele>
<time>2018-05-27T08:55:28Z</time>
<speed>23.1</speed>
</trkpt>
<trkpt lat="55.660414" lon="12.423499">
<ele>17.5</ele>
<time>2018-05-27T08:55:29Z</time>
<speed>22.8</speed>
</trkpt>
<trkpt lat="55.660625" lon="12.423487">
<ele>17.2</ele>
<time>2018-05-27T08:55:30Z</time>
<speed>22.8</speed>
</trkpt>
<trkpt lat="55.660828" lon="12.423486">
<ele>17.5</ele>
<time>2018-05-27T08:55:31Z</time>
<speed>22.8</speed>
</trkpt>
<trkpt lat="55.661032" lon="12.423470">
<ele>17.7</ele>
<time>2018-05-27T08:55:32Z</time>
<speed>22.8</speed>
</trkpt>
<trkpt lat="55.661235" lon="12.423470">
<ele>18.0</ele>
<time>2018-05-27T08:55:33Z</time>
<speed>23.1</speed>
</trkpt>
<trkpt lat="55.661451" lon="12.423457">
<ele>18.5</ele>
<time>2018-05-27T08:55:34Z</time>
<speed>22.8</speed>
</trkpt>
<trkpt lat="55.661655" lon="12.423441">
<ele>18.7</ele>
<time>2018-05-27T08:55:35Z</time>
<speed>22.8</speed>
</trkpt>
<trkpt lat="55.661855" lon="12.423425">
<ele>18.1</ele>
<time>2018-05-27T08:55:36Z</time>
<speed>22.8</speed>
</trkpt>
<trkpt lat="55.662059" lon="12.423409">
<ele>18.3</ele>
<time>2018-05-27T08:55:37Z</time>
<speed>23.1</speed>
</trkpt>
<trkpt lat="55.662265" lon="12.423396">
<ele>17.2</ele>
<time>2018-05-27T08:55:38Z</time>
<speed>23.1</speed>
</trkpt>
<trkpt lat="55.662469" lon="12.423380">
<ele>17.4</ele>
<time>2018-05-27T08:55:39Z</time>
<speed>22.8</speed>
</trkpt>
<trkpt lat="55.662676" lon="12.423368">
<ele>16.2</ele>
<time>2018-05-27T08:55:40Z</time>
<speed>22.8</speed>
</trkpt>
<trkpt lat="55.662873" lon="12.423367">
<ele>15.7</ele>
<time>2018-05-27T08:55:41Z</time>
<speed>22.8</speed>
</trkpt>
<trkpt lat="55.663072" lon="12.423351">
<ele>15.1</ele>
<time>2018-05-27T08:55:42Z</time>
<speed>22.8</speed>
</trkpt>
<trkpt lat="55.663277" lon="12.423335">
<ele>15.3</ele>
<time>2018-05-27T08:55:43Z</time>
<speed>22.5</speed>
</trkpt>
<trkpt lat="55.663477" lon="12.423303">
<ele>14.6</ele>
<time>2018-05-27T08:55:44Z</time>
<speed>22.2</speed>
</trkpt>
<trkpt lat="55.663682" lon="12.423287">
<ele>14.8</ele>
<time>2018-05-27T08:55:45Z</time>
<speed>22.2</speed>
</trkpt>
<trkpt lat="55.663875" lon="12.423252">
<ele>14.6</ele>
<time>2018-05-27T08:55:46Z</time>
<speed>22.2</speed>
</trkpt>
<trkpt lat="55.664079" lon="12.423236">
<ele>14.8</ele>
<time>2018-05-27T08:55:47Z</time>
<speed>21.9</speed>
</trkpt>
<trkpt lat="55.664273" lon="12.423201">
<ele>14.7</ele>
<time>2018-05-27T08:55:48Z</time>
<speed>21.7</speed>
</trkpt>
<trkpt lat="55.664470" lon="12.423182">
<ele>15.4</ele>
<time>2018-05-27T08:55:49Z</time>
<speed>21.4</speed>
</trkpt>
<trkpt lat="55.664663" lon="12.423147">
<ele>15.2</ele>
<time>2018-05-27T08:55:50Z</time>
<speed>21.4</speed>
</trkpt>
<trkpt lat="55.664857" lon="12.423112">
<ele>15.1</ele>
<time>2018-05-27T08:55:51Z</time>
<speed>21.4</speed>
</trkpt>
<trkpt lat="55.665050" lon="12.423077">
<ele>14.9</ele>
<time>2018-05-27T08:55:52Z</time>
<speed>21.1</speed>
</trkpt>
<trkpt lat="55.665235" lon="12.423054">
<ele>15.4</ele>
<time>2018-05-27T08:55:53Z</time>
<speed>20.6</speed>
</trkpt>
<trkpt lat="55.665425" lon="12.423050">
<ele>15.4</ele>
<time>2018-05-27T08:55:54Z</time>
<speed>21.4</speed>
</trkpt>
<trkpt lat="55.665617" lon="12.423030">
<ele>15.4</ele>
<time>2018-05-27T08:55:55Z</time>
<speed>21.7</speed>
</trkpt>
<trkpt lat="55.665823" lon="12.422999">
<ele>15.4</ele>
<time>2018-05-27T08:55:56Z</time>
<speed>21.7</speed>
</trkpt>
<trkpt lat="55.666015" lon="12.422979">
<ele>15.4</ele>
<time>2018-05-27T08:55:57Z</time>
<speed>21.9</speed>
</trkpt>
<trkpt lat="55.666213" lon="12.422944">
<ele>16.0</ele>
<time>2018-05-27T08:55:58Z</time>
<speed>21.9</speed>
</trkpt>
<trkpt lat="55.666414" lon="12.422913">
<ele>15.3</ele>
<time>2018-05-27T08:55:59Z</time>
<speed>22.2</speed>
</trkpt>
<trkpt lat="55.666613" lon="12.422878">
<ele>15.9</ele>
<time>2018-05-27T08:56:00Z</time>
<speed>22.5</speed>
</trkpt>
<trkpt lat="55.666817" lon="12.422862">
<ele>16.2</ele>
<time>2018-05-27T08:56:01Z</time>
<speed>22.5</speed>
</trkpt>
<trkpt lat="55.667015" lon="12.422827">
<ele>16.8</ele>
<time>2018-05-27T08:56:02Z</time>
<speed>22.8</speed>
</trkpt>
<trkpt lat="55.667221" lon="12.422795">
<ele>16.9</ele>
<time>2018-05-27T08:56:03Z</time>
<speed>23.1</speed>
</trkpt>
<trkpt lat="55.667427" lon="12.422764">
<ele>17.0</ele>
<time>2018-05-27T08:56:04Z</time>
<speed>23.3</speed>
</trkpt>
<trkpt lat="55.667645" lon="12.422735">
<ele>17.4</ele>
<time>2018-05-27T08:56:05Z</time>
<speed>23.3</speed>
</trkpt>
<trkpt lat="55.667851" lon="12.422704">
<ele>17.4</ele>
<time>2018-05-27T08:56:06Z</time>
<speed>23.3</speed>
</trkpt>
<trkpt lat="55.668063" lon="12.422657">
<ele>18.2</ele>
<time>2018-05-27T08:56:07Z</time>
<speed>23.3</speed>
</trkpt>
<trkpt lat="55.668277" lon="12.422629">
<ele>17.8</ele>
<time>2018-05-27T08:56:08Z</time>
<speed>23.3</speed>
</trkpt>
<trkpt lat="55.668484" lon="12.422581">
<ele>17.8</ele>
<time>2018-05-27T08:56:09Z</time>
<speed>23.1</speed>
</trkpt>
<trkpt lat="55.668695" lon="12.422550">
<ele>18.7</ele>
<time>2018-05-27T08:56:10Z</time>
<speed>22.8</speed>
</trkpt>
<trkpt lat="55.668887" lon="12.422530">
<ele>18.6</ele>
<time>2018-05-27T08:56:11Z</time>
<speed>22.8</speed>
</trkpt>
<trkpt lat="55.669084" lon="12.422511">
<ele>19.4</ele>
<time>2018-05-27T08:56:12Z</time>
<speed>22.2</speed>
</trkpt>
<trkpt lat="55.669276" lon="12.422491">
<ele>19.3</ele>
<time>2018-05-27T08:56:13Z</time>
<speed>22.2</speed>
</trkpt>
<trkpt lat="55.669480" lon="12.422475">
<ele>19.5</ele>
<time>2018-05-27T08:56:14Z</time>
<speed>21.9</speed>
</trkpt>
<trkpt lat="55.669679" lon="12.422459">
<ele>18.9</ele>
<time>2018-05-27T08:56:15Z</time>
<speed>21.9</speed>
</trkpt>
<trkpt lat="55.669882" lon="12.422459">
<ele>19.3</ele>
<time>2018-05-27T08:56:16Z</time>
<speed>21.9</speed>
</trkpt>
<trkpt lat="55.670086" lon="12.422443">
<ele>19.5</ele>
<time>2018-05-27T08:56:17Z</time>
<speed>21.9</speed>
</trkpt>
<trkpt lat="55.670287" lon="12.422458">
<ele>19.9</ele>
<time>2018-05-27T08:56:18Z</time>
<speed>22.2</speed>
</trkpt>
<trkpt lat="55.670484" lon="12.422457">
<ele>19.4</ele>
<time>2018-05-27T08:56:19Z</time>
<speed>22.2</speed>
</trkpt>
<trkpt lat="55.670693" lon="12.422476">
<ele>19.4</ele>
<time>2018-05-27T08:56:20Z</time>
<speed>22.2</speed>
</trkpt>
<trkpt lat="55.670896" lon="12.422494">
<ele>18.4</ele>
<time>2018-05-27T08:56:21Z</time>
<speed>22.2</speed>
</trkpt>
<trkpt lat="55.671097" lon="12.422509">
<ele>18.9</ele>
<time>2018-05-27T08:56:22Z</time>
<speed>22.5</speed>
</trkpt>
<trkpt lat="55.671304" lon="12.422543">
<ele>18.9</ele>
<time>2018-05-27T08:56:23Z</time>
<speed>22.5</speed>
</trkpt>
<trkpt lat="55.671510" lon="12.422577">
<ele>19.0</ele>
<time>2018-05-27T08:56:24Z</time>
<speed>22.5</speed>
</trkpt>
<trkpt lat="55.671722" lon="12.422611">
<ele>19.8</ele>
<time>2018-05-27T08:56:25Z</time>
<speed>22.8</speed>
</trkpt>
<trkpt lat="55.671926" lon="12.422641">
<ele>21.2</ele>
<time>2018-05-27T08:56:26Z</time>
<speed>22.8</speed>
</trkpt>
<trkpt lat="55.672139" lon="12.422694">
<ele>20.8</ele>
<time>2018-05-27T08:56:27Z</time>
<speed>22.8</speed>
</trkpt>
<trkpt lat="55.672335" lon="12.422756">
<ele>21.6</ele>
<time>2018-05-27T08:56:28Z</time>
<speed>22.8</speed>
</trkpt>
<trkpt lat="55.672543" lon="12.422821">
<ele>22.7</ele>
<time>2018-05-27T08:56:29Z</time>
<speed>22.8</speed>
</trkpt>
<trkpt lat="55.672754" lon="12.422889">
<ele>22.5</ele>
<time>2018-05-27T08:56:30Z</time>
<speed>23.1</speed>
</trkpt>
<trkpt lat="55.672958" lon="12.422954">
<ele>22.7</ele>
<time>2018-05-27T08:56:31Z</time>
<speed>23.1</speed>
</trkpt>
<trkpt lat="55.673160" lon="12.423034">
<ele>23.1</ele>
<time>2018-05-27T08:56:32Z</time>
<speed>23.3</speed>
</trkpt>
<trkpt lat="55.673370" lon="12.423103">
<ele>22.8</ele>
<time>2018-05-27T08:56:33Z</time>
<speed>23.1</speed>
</trkpt>
<trkpt lat="55.673571" lon="12.423199">
<ele>23.4</ele>
<time>2018-05-27T08:56:34Z</time>
<speed>23.1</speed>
</trkpt>
<trkpt lat="55.673772" lon="12.423279">
<ele>23.8</ele>
<time>2018-05-27T08:56:35Z</time>
<speed>23.3</speed>
</trkpt>
<trkpt lat="55.673973" lon="12.423394">
<ele>23.0</ele>
<time>2018-05-27T08:56:36Z</time>
<speed>23.3</speed>
</trkpt>
<trkpt lat="55.674181" lon="12.423494">
<ele>23.0</ele>
<time>2018-05-27T08:56:37Z</time>
<speed>23.3</speed>
</trkpt>
<trkpt lat="55.674382" lon="12.423609">
<ele>22.2</ele>
<time>2018-05-27T08:56:38Z</time>
<speed>23.3</speed>
</trkpt>
<trkpt lat="55.674579" lon="12.423736">
<ele>23.0</ele>
<time>2018-05-27T08:56:39Z</time>
<speed>23.6</speed>
</trkpt>
<trkpt lat="55.674777" lon="12.423847">
<ele>23.6</ele>
<time>2018-05-27T08:56:40Z</time>
<speed>23.6</speed>
</trkpt>
<trkpt lat="55.674977" lon="12.423978">
<ele>23.0</ele>
<time>2018-05-27T08:56:41Z</time>
<speed>23.6</speed>
</trkpt>
<trkpt lat="55.675181" lon="12.424108">
<ele>23.2</ele>
<time>2018-05-27T08:56:42Z</time>
<speed>23.6</speed>
</trkpt>
<trkpt lat="55.675378" lon="12.424235">
<ele>24.0</ele>
<time>2018-05-27T08:56:43Z</time>
<speed>23.6</speed>
</trkpt>
<trkpt lat="55.675574" lon="12.424378">
<ele>24.9</ele>
<time>2018-05-27T08:56:44Z</time>
<speed>23.3</speed>
</trkpt>
<trkpt lat="55.675764" lon="12.424520">
<ele>24.9</ele>
<time>2018-05-27T08:56:45Z</time>
<speed>23.1</speed>
</trkpt>
<trkpt lat="55.675953" lon="12.424678">
<ele>25.1</ele>
<time>2018-05-27T08:56:46Z</time>
<speed>23.1</speed>
</trkpt>
<trkpt lat="55.676138" lon="12.424821">
<ele>24.3</ele>
<time>2018-05-27T08:56:47Z</time>
<speed>22.8</speed>
</trkpt>
<trkpt lat="55.676329" lon="12.424964">
<ele>24.4</ele>
<time>2018-05-27T08:56:48Z</time>
<speed>22.8</speed>
</trkpt>
<trkpt lat="55.676519" lon="12.425106">
<ele>24.4</ele>
<time>2018-05-27T08:56:49Z</time>
<speed>22.8</speed>
</trkpt>
<trkpt lat="55.676705" lon="12.425249">
<ele>23.7</ele>
<time>2018-05-27T08:56:50Z</time>
<speed>22.8</speed>
</trkpt>
<trkpt lat="55.676888" lon="12.425388">
<ele>24.3</ele>
<time>2018-05-27T08:56:51Z</time>
<speed>22.8</speed>
</trkpt>
<trkpt lat="55.677078" lon="12.425531">
<ele>24.3</ele>
<time>2018-05-27T08:56:52Z</time>
<speed>22.5</speed>
</trkpt>
<trkpt lat="55.677264" lon="12.425673">
<ele>23.5</ele>
<time>2018-05-27T08:56:53Z</time>
<speed>22.2</speed>
</trkpt>
<trkpt lat="55.677454" lon="12.425816">
<ele>23.6</ele>
<time>2018-05-27T08:56:54Z</time>
<speed>22.2</speed>
</trkpt>
<trkpt lat="55.677634" lon="12.425939">
<ele>23.3</ele>
<time>2018-05-27T08:56:55Z</time>
<speed>21.9</speed>
</trkpt>
<trkpt lat="55.677812" lon="12.426079">
<ele>23.0</ele>
<time>2018-05-27T08:56:56Z</time>
<speed>21.9</speed>
</trkpt>
<trkpt lat="55.677997" lon="12.426202">
<ele>23.5</ele>
<time>2018-05-27T08:56:57Z</time>
<speed>21.7</speed>
</trkpt>
<trkpt lat="55.678175" lon="12.426341">
<ele>23.3</ele>
<time>2018-05-27T08:56:58Z</time>
<speed>21.7</speed>
</trkpt>
<trkpt lat="55.678354" lon="12.426465">
<ele>23.0</ele>
<time>2018-05-27T08:56:59Z</time>
<speed>21.7</speed>
</trkpt>
<trkpt lat="55.678539" lon="12.426589">
<ele>23.4</ele>
<time>2018-05-27T08:57:00Z</time>
<speed>21.7</speed>
</trkpt>
<trkpt lat="55.678725" lon="12.426731">
<ele>22.7</ele>
<time>2018-05-27T08:57:01Z</time>
<speed>21.7</speed>
</trkpt>
<trkpt lat="55.678909" lon="12.426855">
<ele>23.2</ele>
<time>2018-05-27T08:57:02Z</time>
<speed>22.2</speed>
</trkpt>
<trkpt lat="55.679096" lon="12.426982">
<ele>22.3</ele>
<time>2018-05-27T08:57:03Z</time>
<speed>22.2</speed>
</trkpt>
<trkpt lat="55.679281" lon="12.427106">
<ele>22.8</ele>
<time>2018-05-27T08:57:04Z</time>
<speed>22.2</speed>
</trkpt>
<trkpt lat="55.679475" lon="12.427217">
<ele>22.6</ele>
<time>2018-05-27T08:57:05Z</time>
<speed>22.5</speed>
</trkpt>
<trkpt lat="55.679667" lon="12.427344">
<ele>22.5</ele>
<time>2018-05-27T08:57:06Z</time>
<speed>22.5</speed>
</trkpt>
<trkpt lat="55.679859" lon="12.427472">
<ele>22.4</ele>
<time>2018-05-27T08:57:07Z</time>
<speed>22.5</speed>
</trkpt>
<trkpt lat="55.680052" lon="12.427583">
<ele>22.2</ele>
<time>2018-05-27T08:57:08Z</time>
<speed>22.8</speed>
</trkpt>
<trkpt lat="55.680244" lon="12.427710">
<ele>22.2</ele>
<time>2018-05-27T08:57:09Z</time>
<speed>22.8</speed>
</trkpt>
<trkpt lat="55.680443" lon="12.427822">
<ele>22.8</ele>
<time>2018-05-27T08:57:10Z</time>
<speed>22.8</speed>
</trkpt>
<trkpt lat="55.680637" lon="12.427933">
<ele>22.6</ele>
<time>2018-05-27T08:57:11Z</time>
<speed>22.8</speed>
</trkpt>
<trkpt lat="55.680829" lon="12.428060">
<ele>22.6</ele>
<time>2018-05-27T08:57:12Z</time>
<speed>23.1</speed>
</trkpt>
<trkpt lat="55.681035" lon="12.428175">
<ele>22.7</ele>
<time>2018-05-27T08:57:13Z</time>
<speed>23.1</speed>
</trkpt>
<trkpt lat="55.681228" lon="12.428287">
<ele>22.5</ele>
<time>2018-05-27T08:57:14Z</time>
<speed>23.1</speed>
</trkpt>
<trkpt lat="55.681427" lon="12.428399">
<ele>23.1</ele>
<time>2018-05-27T08:57:15Z</time>
<speed>23.3</speed>
</trkpt>
<trkpt lat="55.681627" lon="12.428495">
<ele>23.6</ele>
<time>2018-05-27T08:57:16Z</time>
<speed>23.3</speed>
</trkpt>
<trkpt lat="55.681828" lon="12.428610">
<ele>22.9</ele>
<time>2018-05-27T08:57:17Z</time>
<speed>23.3</speed>
</trkpt>
<trkpt lat="55.682036" lon="12.428709">
<ele>22.9</ele>
<time>2018-05-27T08:57:18Z</time>
<speed>23.1</speed>
</trkpt>
<trkpt lat="55.682231" lon="12.428805">
<ele>22.6</ele>
<time>2018-05-27T08:57:19Z</time>
<speed>23.1</speed>
</trkpt>
<trkpt lat="55.682438" lon="12.428905">
<ele>22.5</ele>
<time>2018-05-27T08:57:20Z</time>
<speed>23.1</speed>
</trkpt>
<trkpt lat="55.682641" lon="12.429004">
<ele>21.7</ele>
<time>2018-05-27T08:57:21Z</time>
<speed>23.1</speed>
</trkpt>
<trkpt lat="55.682841" lon="12.429100">
<ele>22.2</ele>
<time>2018-05-27T08:57:22Z</time>
<speed>23.1</speed>
</trkpt>
<trkpt lat="55.683041" lon="12.429196">
<ele>22.7</ele>
<time>2018-05-27T08:57:23Z</time>
<speed>23.1</speed>
</trkpt>
<trkpt lat="55.683242" lon="12.429292">
<ele>23.2</ele>
<time>2018-05-27T08:57:24Z</time>
<speed>23.1</speed>
</trkpt>
<trkpt lat="55.683444" lon="12.429392">
<ele>22.4</ele>
<time>2018-05-27T08:57:25Z</time>
<speed>23.3</speed>
</trkpt>
<trkpt lat="55.683652" lon="12.429491">
<ele>22.3</ele>
<time>2018-05-27T08:57:26Z</time>
<speed>23.3</speed>
</trkpt>
<trkpt lat="55.683854" lon="12.429591">
<ele>21.5</ele>
<time>2018-05-27T08:57:27Z</time>
<speed>23.3</speed>
</trkpt>
<trkpt lat="55.684058" lon="12.429675">
<ele>20.5</ele>
<time>2018-05-27T08:57:28Z</time>
<speed>23.6</speed>
</trkpt>
<trkpt lat="55.684273" lon="12.429778">
<ele>19.9</ele>
<time>2018-05-27T08:57:29Z</time>
<speed>23.6</speed>
</trkpt>
<trkpt lat="55.684482" lon="12.429862">
<ele>19.8</ele>
<time>2018-05-27T08:57:30Z</time>
<speed>23.9</speed>
</trkpt>
<trkpt lat="55.684692" lon="12.429965">
<ele>18.4</ele>
<time>2018-05-27T08:57:31Z</time>
<speed>23.9</speed>
</trkpt>
<trkpt lat="55.684901" lon="12.430049">
<ele>18.2</ele>
<time>2018-05-27T08:57:32Z</time>
<speed>23.9</speed>
</trkpt>
<trkpt lat="55.685110" lon="12.430133">
<ele>18.1</ele>
<time>2018-05-27T08:57:33Z</time>
<speed>23.9</speed>
</trkpt>
<trkpt lat="55.685325" lon="12.430235">
<ele>17.5</ele>
<time>2018-05-27T08:57:34Z</time>
<speed>23.9</speed>
</trkpt>
<trkpt lat="55.685534" lon="12.430319">
<ele>17.3</ele>
<time>2018-05-27T08:57:35Z</time>
<speed>23.9</speed>
</trkpt>
<trkpt lat="55.685746" lon="12.430419">
<ele>18.1</ele>
<time>2018-05-27T08:57:36Z</time>
<speed>23.9</speed>
</trkpt>
<trkpt lat="55.685956" lon="12.430503">
<ele>18.0</ele>
<time>2018-05-27T08:57:37Z</time>
<speed>23.6</speed>
</trkpt>
<trkpt lat="55.686163" lon="12.430602">
<ele>17.9</ele>
<time>2018-05-27T08:57:38Z</time>
<speed>23.6</speed>
</trkpt>
<trkpt lat="55.686372" lon="12.430686">
<ele>17.8</ele>
<time>2018-05-27T08:57:39Z</time>
<speed>23.3</speed>
</trkpt>
<trkpt lat="55.686575" lon="12.430786">
<ele>16.9</ele>
<time>2018-05-27T08:57:40Z</time>
<speed>23.1</speed>
</trkpt>
<trkpt lat="55.686777" lon="12.430866">
<ele>17.3</ele>
<time>2018-05-27T08:57:41Z</time>
<speed>23.1</speed>
</trkpt>
<trkpt lat="55.686979" lon="12.430966">
<ele>16.5</ele>
<time>2018-05-27T08:57:42Z</time>
<speed>23.3</speed>
</trkpt>
<trkpt lat="55.687187" lon="12.431065">
<ele>16.4</ele>
<time>2018-05-27T08:57:43Z</time>
<speed>23.3</speed>
</trkpt>
<trkpt lat="55.687385" lon="12.431177">
<ele>17.1</ele>
<time>2018-05-27T08:57:44Z</time>
<speed>23.6</speed>
</trkpt>
<trkpt lat="55.687591" lon="12.431292">
<ele>17.2</ele>
<time>2018-05-27T08:57:45Z</time>
<speed>23.6</speed>
</trkpt>
<trkpt lat="55.687799" lon="12.431392">
<ele>17.1</ele>
<time>2018-05-27T08:57:46Z</time>
<speed>23.6</speed>
</trkpt>
<trkpt lat="55.687991" lon="12.431519">
<ele>17.1</ele>
<time>2018-05-27T08:57:47Z</time>
<speed>22.8</speed>
</trkpt>
<trkpt lat="55.688188" lon="12.431646">
<ele>17.9</ele>
<time>2018-05-27T08:57:48Z</time>
<speed>22.8</speed>
</trkpt>
<trkpt lat="55.688380" lon="12.431773">
<ele>17.8</ele>
<time>2018-05-27T08:57:49Z</time>
<speed>22.5</speed>
</trkpt>
<trkpt lat="55.688565" lon="12.431897">
<ele>18.3</ele>
<time>2018-05-27T08:57:50Z</time>
<speed>22.8</speed>
</trkpt>
<trkpt lat="55.688760" lon="12.432039">
<ele>19.2</ele>
<time>2018-05-27T08:57:51Z</time>
<speed>22.8</speed>
</trkpt>
<trkpt lat="55.688943" lon="12.432179">
<ele>19.8</ele>
<time>2018-05-27T08:57:52Z</time>
<speed>23.1</speed>
</trkpt>
<trkpt lat="55.689134" lon="12.432321">
<ele>19.8</ele>
<time>2018-05-27T08:57:53Z</time>
<speed>23.1</speed>
</trkpt>
<trkpt lat="55.689322" lon="12.432479">
<ele>20.0</ele>
<time>2018-05-27T08:57:54Z</time>
<speed>23.3</speed>
</trkpt>
<trkpt lat="55.689510" lon="12.432653">
<ele>20.3</ele>
<time>2018-05-27T08:57:55Z</time>
<speed>23.3</speed>
</trkpt>
<trkpt lat="55.689702" lon="12.432827">
<ele>21.4</ele>
<time>2018-05-27T08:57:56Z</time>
<speed>23.3</speed>
</trkpt>
<trkpt lat="55.689884" lon="12.433001">
<ele>20.9</ele>
<time>2018-05-27T08:57:57Z</time>
<speed>23.6</speed>
</trkpt>
<trkpt lat="55.690071" lon="12.433174">
<ele>21.2</ele>
<time>2018-05-27T08:57:58Z</time>
<speed>23.6</speed>
</trkpt>
<trkpt lat="55.690257" lon="12.433364">
<ele>21.7</ele>
<time>2018-05-27T08:57:59Z</time>
<speed>23.6</speed>
</trkpt>
<trkpt lat="55.690443" lon="12.433553">
<ele>22.1</ele>
<time>2018-05-27T08:58:00Z</time>
<speed>23.6</speed>
</trkpt>
<trkpt lat="55.690622" lon="12.433758">
<ele>21.8</ele>
<time>2018-05-27T08:58:01Z</time>
<speed>23.6</speed>
</trkpt>
<trkpt lat="55.690808" lon="12.433966">
<ele>21.0</ele>
<time>2018-05-27T08:58:02Z</time>
<speed>23.6</speed>
</trkpt>
<trkpt lat="55.690987" lon="12.434171">
<ele>20.7</ele>
<time>2018-05-27T08:58:03Z</time>
<speed>23.9</speed>
</trkpt>
<trkpt lat="55.691164" lon="12.434391">
<ele>20.5</ele>
<time>2018-05-27T08:58:04Z</time>
<speed>23.6</speed>
</trkpt>
<trkpt lat="55.691329" lon="12.434608">
<ele>20.1</ele>
<time>2018-05-27T08:58:05Z</time>
<speed>23.3</speed>
</trkpt>
<trkpt lat="55.691507" lon="12.434828">
<ele>19.9</ele>
<time>2018-05-27T08:58:06Z</time>
<speed>23.3</speed>
</trkpt>
<trkpt lat="55.691670" lon="12.435061">
<ele>19.6</ele>
<time>2018-05-27T08:58:07Z</time>
<speed>23.1</speed>
</trkpt>
<trkpt lat="55.691828" lon="12.435274">
<ele>19.7</ele>
<time>2018-05-27T08:58:08Z</time>
<speed>23.1</speed>
</trkpt>
<trkpt lat="55.691991" lon="12.435507">
<ele>19.4</ele>
<time>2018-05-27T08:58:09Z</time>
<speed>23.3</speed>
</trkpt>
<trkpt lat="55.692160" lon="12.435739">
<ele>19.9</ele>
<time>2018-05-27T08:58:10Z</time>
<speed>23.3</speed>
</trkpt>
<trkpt lat="55.692322" lon="12.435987">
<ele>19.7</ele>
<time>2018-05-27T08:58:11Z</time>
<speed>23.3</speed>
</trkpt>
<trkpt lat="55.692491" lon="12.436239">
<ele>19.0</ele>
<time>2018-05-27T08:58:12Z</time>
<speed>23.3</speed>
</trkpt>
<trkpt lat="55.692654" lon="12.436471">
<ele>18.7</ele>
<time>2018-05-27T08:58:13Z</time>
<speed>23.3</speed>
</trkpt>
<trkpt lat="55.692811" lon="12.436719">
<ele>17.7</ele>
<time>2018-05-27T08:58:14Z</time>
<speed>23.3</speed>
</trkpt>
<trkpt lat="55.692966" lon="12.436964">
<ele>18.0</ele>
<time>2018-05-27T08:58:15Z</time>
<speed>23.3</speed>
</trkpt>
<trkpt lat="55.693114" lon="12.437224">
<ele>17.7</ele>
<time>2018-05-27T08:58:16Z</time>
<speed>23.3</speed>
</trkpt>
<trkpt lat="55.693276" lon="12.437472">
<ele>17.5</ele>
<time>2018-05-27T08:58:17Z</time>
<speed>23.9</speed>
</trkpt>
<trkpt lat="55.693431" lon="12.437735">
<ele>16.6</ele>
<time>2018-05-27T08:58:18Z</time>
<speed>23.9</speed>
</trkpt>
<trkpt lat="55.693598" lon="12.438002">
<ele>16.0</ele>
<time>2018-05-27T08:58:19Z</time>
<speed>23.9</speed>
</trkpt>
<trkpt lat="55.693755" lon="12.438250">
<ele>15.0</ele>
<time>2018-05-27T08:58:20Z</time>
<speed>23.9</speed>
</trkpt>
<trkpt lat="55.693910" lon="12.438514">
<ele>14.1</ele>
<time>2018-05-27T08:58:21Z</time>
<speed>23.9</speed>
</trkpt>
<trkpt lat="55.694070" lon="12.438777">
<ele>14.0</ele>
<time>2018-05-27T08:58:22Z</time>
<speed>23.9</speed>
</trkpt>
<trkpt lat="55.694227" lon="12.439025">
<ele>13.0</ele>
<time>2018-05-27T08:58:23Z</time>
<speed>23.6</speed>
</trkpt>
<trkpt lat="55.694390" lon="12.439292">
<ele>11.6</ele>
<time>2018-05-27T08:58:24Z</time>
<speed>23.9</speed>
</trkpt>
<trkpt lat="55.694550" lon="12.439556">
<ele>11.5</ele>
<time>2018-05-27T08:58:25Z</time>
<speed>23.9</speed>
</trkpt>
<trkpt lat="55.694710" lon="12.439819">
<ele>11.4</ele>
<time>2018-05-27T08:58:26Z</time>
<speed>23.9</speed>
</trkpt>
<trkpt lat="55.694860" lon="12.440064">
<ele>11.0</ele>
<time>2018-05-27T08:58:27Z</time>
<speed>23.3</speed>
</trkpt>
<trkpt lat="55.695022" lon="12.440312">
<ele>10.8</ele>
<time>2018-05-27T08:58:28Z</time>
<speed>22.8</speed>
</trkpt>
<trkpt lat="55.695170" lon="12.440572">
<ele>10.4</ele>
<time>2018-05-27T08:58:29Z</time>
<speed>22.8</speed>
</trkpt>
<trkpt lat="55.695317" lon="12.440813">
<ele>11.3</ele>
<time>2018-05-27T08:58:30Z</time>
<speed>22.5</speed>
</trkpt>
<trkpt lat="55.695474" lon="12.441061">
<ele>10.3</ele>
<time>2018-05-27T08:58:31Z</time>
<speed>22.5</speed>
</trkpt>
<trkpt lat="55.695623" lon="12.441306">
<ele>9.9</ele>
<time>2018-05-27T08:58:32Z</time>
<speed>22.8</speed>
</trkpt>
<trkpt lat="55.695778" lon="12.441550">
<ele>10.2</ele>
<time>2018-05-27T08:58:33Z</time>
<speed>23.1</speed>
</trkpt>
<trkpt lat="55.695933" lon="12.441795">
<ele>10.6</ele>
<time>2018-05-27T08:58:34Z</time>
<speed>23.1</speed>
</trkpt>
<trkpt lat="55.696092" lon="12.442039">
<ele>11.8</ele>
<time>2018-05-27T08:58:35Z</time>
<speed>23.3</speed>
</trkpt>
<trkpt lat="55.696254" lon="12.442287">
<ele>11.6</ele>
<time>2018-05-27T08:58:36Z</time>
<speed>23.3</speed>
</trkpt>
<trkpt lat="55.696417" lon="12.442520">
<ele>11.3</ele>
<time>2018-05-27T08:58:37Z</time>
<speed>23.9</speed>
</trkpt>
<trkpt lat="55.696592" lon="12.442771">
<ele>11.4</ele>
<time>2018-05-27T08:58:38Z</time>
<speed>23.9</speed>
</trkpt>
<trkpt lat="55.696755" lon="12.443004">
<ele>11.0</ele>
<time>2018-05-27T08:58:39Z</time>
<speed>24.2</speed>
</trkpt>
<trkpt lat="55.696931" lon="12.443240">
<ele>11.0</ele>
<time>2018-05-27T08:58:40Z</time>
<speed>24.2</speed>
</trkpt>
<trkpt lat="55.697107" lon="12.443476">
<ele>11.0</ele>
<time>2018-05-27T08:58:41Z</time>
<speed>24.2</speed>
</trkpt>
<trkpt lat="55.697287" lon="12.443712">
<ele>11.8</ele>
<time>2018-05-27T08:58:42Z</time>
<speed>24.4</speed>
</trkpt>
<trkpt lat="55.697470" lon="12.443932">
<ele>12.4</ele>
<time>2018-05-27T08:58:43Z</time>
<speed>24.7</speed>
</trkpt>
<trkpt lat="55.697659" lon="12.444156">
<ele>12.6</ele>
<time>2018-05-27T08:58:44Z</time>
<speed>24.7</speed>
</trkpt>
<trkpt lat="55.697837" lon="12.444376">
<ele>12.4</ele>
<time>2018-05-27T08:58:45Z</time>
<speed>24.4</speed>
</trkpt>
<trkpt lat="55.698021" lon="12.444581">
<ele>13.0</ele>
<time>2018-05-27T08:58:46Z</time>
<speed>24.4</speed>
</trkpt>
<trkpt lat="55.698212" lon="12.444790">
<ele>13.0</ele>
<time>2018-05-27T08:58:47Z</time>
<speed>23.6</speed>
</trkpt>
<trkpt lat="55.698380" lon="12.444976">
<ele>12.3</ele>
<time>2018-05-27T08:58:48Z</time>
<speed>23.6</speed>
</trkpt>
<trkpt lat="55.698564" lon="12.445180">
<ele>12.8</ele>
<time>2018-05-27T08:58:49Z</time>
<speed>23.9</speed>
</trkpt>
<trkpt lat="55.698752" lon="12.445373">
<ele>11.9</ele>
<time>2018-05-27T08:58:50Z</time>
<speed>24.2</speed>
</trkpt>
<trkpt lat="55.698938" lon="12.445563">
<ele>12.3</ele>
<time>2018-05-27T08:58:51Z</time>
<speed>24.2</speed>
</trkpt>
<trkpt lat="55.699131" lon="12.445755">
<ele>12.2</ele>
<time>2018-05-27T08:58:52Z</time>
<speed>24.4</speed>
</trkpt>
<trkpt lat="55.699330" lon="12.445933">
<ele>12.8</ele>
<time>2018-05-27T08:58:53Z</time>
<speed>24.7</speed>
</trkpt>
<trkpt lat="55.699525" lon="12.446110">
<ele>12.5</ele>
<time>2018-05-27T08:58:54Z</time>
<speed>24.7</speed>
</trkpt>
<trkpt lat="55.699724" lon="12.446287">
<ele>13.1</ele>
<time>2018-05-27T08:58:55Z</time>
<speed>24.4</speed>
</trkpt>
<trkpt lat="55.699924" lon="12.446464">
<ele>13.7</ele>
<time>2018-05-27T08:58:56Z</time>
<speed>24.4</speed>
</trkpt>
<trkpt lat="55.700112" lon="12.446623">
<ele>13.9</ele>
<time>2018-05-27T08:58:57Z</time>
<speed>23.9</speed>
</trkpt>
<trkpt lat="55.700314" lon="12.446784">
<ele>14.3</ele>
<time>2018-05-27T08:58:58Z</time>
<speed>23.6</speed>
</trkpt>
<trkpt lat="55.700507" lon="12.446943">
<ele>15.4</ele>
<time>2018-05-27T08:58:59Z</time>
<speed>23.6</speed>
</trkpt>
<trkpt lat="55.700698" lon="12.447086">
<ele>15.4</ele>
<time>2018-05-27T08:59:00Z</time>
<speed>23.6</speed>
</trkpt>
<trkpt lat="55.700888" lon="12.447228">
<ele>15.5</ele>
<time>2018-05-27T08:59:01Z</time>
<speed>23.6</speed>
</trkpt>
<trkpt lat="55.701091" lon="12.447375">
<ele>15.8</ele>
<time>2018-05-27T08:59:02Z</time>
<speed>23.6</speed>
</trkpt>
<trkpt lat="55.701288" lon="12.447502">
<ele>16.6</ele>
<time>2018-05-27T08:59:03Z</time>
<speed>23.6</speed>
</trkpt>
<trkpt lat="55.701487" lon="12.447633">
<ele>16.0</ele>
<time>2018-05-27T08:59:04Z</time>
<speed>23.6</speed>
</trkpt>
<trkpt lat="55.701692" lon="12.447763">
<ele>16.2</ele>
<time>2018-05-27T08:59:05Z</time>
<speed>23.6</speed>
</trkpt>
<trkpt lat="55.701891" lon="12.447894">
<ele>15.6</ele>
<time>2018-05-27T08:59:06Z</time>
<speed>23.6</speed>
</trkpt>
<trkpt lat="55.702092" lon="12.448009">
<ele>14.9</ele>
<time>2018-05-27T08:59:07Z</time>
<speed>23.1</speed>
</trkpt>
<trkpt lat="55.702287" lon="12.448105">
<ele>14.6</ele>
<time>2018-05-27T08:59:08Z</time>
<speed>22.8</speed>
</trkpt>
<trkpt lat="55.702480" lon="12.448217">
<ele>14.4</ele>
<time>2018-05-27T08:59:09Z</time>
<speed>22.5</speed>
</trkpt>
<trkpt lat="55.702676" lon="12.448313">
<ele>14.1</ele>
<time>2018-05-27T08:59:10Z</time>
<speed>22.5</speed>
</trkpt>
<trkpt lat="55.702871" lon="12.448409">
<ele>13.8</ele>
<time>2018-05-27T08:59:11Z</time>
<speed>22.5</speed>
</trkpt>
<trkpt lat="55.703064" lon="12.448502">
<ele>14.9</ele>
<time>2018-05-27T08:59:12Z</time>
<speed>22.5</speed>
</trkpt>
<trkpt lat="55.703266" lon="12.448602">
<ele>14.0</ele>
<time>2018-05-27T08:59:13Z</time>
<speed>22.8</speed>
</trkpt>
<trkpt lat="55.703463" lon="12.448683">
<ele>13.6</ele>
<time>2018-05-27T08:59:14Z</time>
<speed>23.1</speed>
</trkpt>
<trkpt lat="55.703672" lon="12.448767">
<ele>13.5</ele>
<time>2018-05-27T08:59:15Z</time>
<speed>23.1</speed>
</trkpt>
<trkpt lat="55.703869" lon="12.448847">
<ele>13.1</ele>
<time>2018-05-27T08:59:16Z</time>
<speed>23.1</speed>
</trkpt>
<trkpt lat="55.704072" lon="12.448912">
<ele>13.3</ele>
<time>2018-05-27T08:59:17Z</time>
<speed>22.8</speed>
</trkpt>
<trkpt lat="55.704276" lon="12.448978">
<ele>13.6</ele>
<time>2018-05-27T08:59:18Z</time>
<speed>22.8</speed>
</trkpt>
<trkpt lat="55.704479" lon="12.449043">
<ele>13.9</ele>
<time>2018-05-27T08:59:19Z</time>
<speed>22.8</speed>
</trkpt>
<trkpt lat="55.704683" lon="12.449108">
<ele>14.2</ele>
<time>2018-05-27T08:59:20Z</time>
<speed>22.5</speed>
</trkpt>
<trkpt lat="55.704886" lon="12.449173">
<ele>14.5</ele>
<time>2018-05-27T08:59:21Z</time>
<speed>22.5</speed>
</trkpt>
<trkpt lat="55.705090" lon="12.449238">
<ele>14.8</ele>
<time>2018-05-27T08:59:22Z</time>
<speed>22.8</speed>
</trkpt>
<trkpt lat="55.705291" lon="12.449300">
<ele>16.4</ele>
<time>2018-05-27T08:59:23Z</time>
<speed>22.5</speed>
</trkpt>
<trkpt lat="55.705489" lon="12.449365">
<ele>15.9</ele>
<time>2018-05-27T08:59:24Z</time>
<speed>22.2</speed>
</trkpt>
<trkpt lat="55.705692" lon="12.449411">
<ele>17.4</ele>
<time>2018-05-27T08:59:25Z</time>
<speed>22.2</speed>
</trkpt>
<trkpt lat="55.705889" lon="12.449473">
<ele>18.3</ele>
<time>2018-05-27T08:59:26Z</time>
<speed>22.2</speed>
</trkpt>
<trkpt lat="55.706085" lon="12.449535">
<ele>19.1</ele>
<time>2018-05-27T08:59:27Z</time>
<speed>21.7</speed>
</trkpt>
<trkpt lat="55.706271" lon="12.449596">
<ele>18.3</ele>
<time>2018-05-27T08:59:28Z</time>
<speed>21.4</speed>
</trkpt>
<trkpt lat="55.706464" lon="12.449643">
<ele>18.2</ele>
<time>2018-05-27T08:59:29Z</time>
<speed>21.4</speed>
</trkpt>
<trkpt lat="55.706655" lon="12.449704">
<ele>18.2</ele>
<time>2018-05-27T08:59:30Z</time>
<speed>21.1</speed>
</trkpt>
<trkpt lat="55.706840" lon="12.449747">
<ele>18.6</ele>
<time>2018-05-27T08:59:31Z</time>
<speed>21.1</speed>
</trkpt>
<trkpt lat="55.707031" lon="12.449809">
<ele>18.6</ele>
<time>2018-05-27T08:59:32Z</time>
<speed>21.1</speed>
</trkpt>
<trkpt lat="55.707224" lon="12.449855">
<ele>18.5</ele>
<time>2018-05-27T08:59:33Z</time>
<speed>21.1</speed>
</trkpt>
<trkpt lat="55.707410" lon="12.449898">
<ele>19.0</ele>
<time>2018-05-27T08:59:34Z</time>
<speed>21.1</speed>
</trkpt>
<trkpt lat="55.707602" lon="12.449944">
<ele>18.9</ele>
<time>2018-05-27T08:59:35Z</time>
<speed>21.1</speed>
</trkpt>
<trkpt lat="55.707795" lon="12.449990">
<ele>18.8</ele>
<time>2018-05-27T08:59:36Z</time>
<speed>21.1</speed>
</trkpt>
<trkpt lat="55.707981" lon="12.450033">
<ele>19.2</ele>
<time>2018-05-27T08:59:37Z</time>
<speed>21.1</speed>
</trkpt>
<trkpt lat="55.708172" lon="12.450095">
<ele>19.2</ele>
<time>2018-05-27T08:59:38Z</time>
<speed>21.4</speed>
</trkpt>
<trkpt lat="55.708365" lon="12.450141">
<ele>19.1</ele>
<time>2018-05-27T08:59:39Z</time>
<speed>21.7</speed>
</trkpt>
<trkpt lat="55.708551" lon="12.450203">
<ele>18.3</ele>
<time>2018-05-27T08:59:40Z</time>
<speed>21.7</speed>
</trkpt>
<trkpt lat="55.708747" lon="12.450264">
<ele>19.1</ele>
<time>2018-05-27T08:59:41Z</time>
<speed>21.7</speed>
</trkpt>
<trkpt lat="55.708947" lon="12.450314">
<ele>18.5</ele>
<time>2018-05-27T08:59:42Z</time>
<speed>22.5</speed>
</trkpt>
<trkpt lat="55.709150" lon="12.450379">
<ele>18.7</ele>
<time>2018-05-27T08:59:43Z</time>
<speed>22.8</speed>
</trkpt>
<trkpt lat="55.709354" lon="12.450444">
<ele>19.0</ele>
<time>2018-05-27T08:59:44Z</time>
<speed>23.1</speed>
</trkpt>
<trkpt lat="55.709557" lon="12.450510">
<ele>19.3</ele>
<time>2018-05-27T08:59:45Z</time>
<speed>23.3</speed>
</trkpt>
<trkpt lat="55.709771" lon="12.450594">
<ele>20.0</ele>
<time>2018-05-27T08:59:46Z</time>
<speed>23.3</speed>
</trkpt>
<trkpt lat="55.709972" lon="12.450690">
<ele>20.5</ele>
<time>2018-05-27T08:59:47Z</time>
<speed>23.3</speed>
</trkpt>
<trkpt lat="55.710172" lon="12.450786">
<ele>21.1</ele>
<time>2018-05-27T08:59:48Z</time>
<speed>23.3</speed>
</trkpt>
<trkpt lat="55.710379" lon="12.450886">
<ele>21.1</ele>
<time>2018-05-27T08:59:49Z</time>
<speed>23.3</speed>
</trkpt>
<trkpt lat="55.710580" lon="12.450982">
<ele>21.6</ele>
<time>2018-05-27T08:59:50Z</time>
<speed>23.6</speed>
</trkpt>
<trkpt lat="55.710786" lon="12.451097">
<ele>21.7</ele>
<time>2018-05-27T08:59:51Z</time>
<speed>23.6</speed>
</trkpt>
<trkpt lat="55.710986" lon="12.451193">
<ele>22.2</ele>
<time>2018-05-27T08:59:52Z</time>
<speed>23.1</speed>
</trkpt>
<trkpt lat="55.711191" lon="12.451290">
<ele>23.6</ele>
<time>2018-05-27T08:59:53Z</time>
<speed>23.6</speed>
</trkpt>
<trkpt lat="55.711390" lon="12.451402">
<ele>24.2</ele>
<time>2018-05-27T08:59:54Z</time>
<speed>23.6</speed>
</trkpt>
<trkpt lat="55.711589" lon="12.451513">
<ele>24.9</ele>
<time>2018-05-27T08:59:55Z</time>
<speed>23.9</speed>
</trkpt>
<trkpt lat="55.711799" lon="12.451629">
<ele>25.8</ele>
<time>2018-05-27T08:59:56Z</time>
<speed>23.9</speed>
</trkpt>
<trkpt lat="55.711997" lon="12.451756">
<ele>26.6</ele>
<time>2018-05-27T08:59:57Z</time>
<speed>23.6</speed>
</trkpt>
<trkpt lat="55.712195" lon="12.451868">
<ele>27.2</ele>
<time>2018-05-27T08:59:58Z</time>
<speed>23.9</speed>
</trkpt>
<trkpt lat="55.712400" lon="12.451998">
<ele>27.5</ele>
<time>2018-05-27T08:59:59Z</time>
<speed>23.9</speed>
</trkpt>
<trkpt lat="55.712610" lon="12.452114">
<ele>28.4</ele>
<time>2018-05-27T09:00:00Z</time>
<speed>24.2</speed>
</trkpt>
<trkpt lat="55.712808" lon="12.452241">
<ele>29.2</ele>
<time>2018-05-27T09:00:01Z</time>
<speed>24.2</speed>
</trkpt>
<trkpt lat="55.713013" lon="12.452356">
<ele>29.3</ele>
<time>2018-05-27T09:00:02Z</time>
<speed>23.6</speed>
</trkpt>
<trkpt lat="55.713217" lon="12.452468">
<ele>30.8</ele>
<time>2018-05-27T09:00:03Z</time>
<speed>23.6</speed>
</trkpt>
<trkpt lat="55.713411" lon="12.452580">
<ele>30.6</ele>
<time>2018-05-27T09:00:04Z</time>
<speed>23.6</speed>
</trkpt>
<trkpt lat="55.713604" lon="12.452691">
<ele>30.4</ele>
<time>2018-05-27T09:00:05Z</time>
<speed>23.3</speed>
</trkpt>
<trkpt lat="55.713810" lon="12.452788">
<ele>31.8</ele>
<time>2018-05-27T09:00:06Z</time>
<speed>23.3</speed>
</trkpt>
<trkpt lat="55.714003" lon="12.452900">
<ele>31.6</ele>
<time>2018-05-27T09:00:07Z</time>
<speed>22.5</speed>
</trkpt>
<trkpt lat="55.714193" lon="12.453023">
<ele>32.9</ele>
<time>2018-05-27T09:00:08Z</time>
<speed>22.5</speed>
</trkpt>
<trkpt lat="55.714392" lon="12.453135">
<ele>33.6</ele>
<time>2018-05-27T09:00:09Z</time>
<speed>22.5</speed>
</trkpt>
<trkpt lat="55.714576" lon="12.453259">
<ele>34.1</ele>
<time>2018-05-27T09:00:10Z</time>
<speed>22.5</speed>
</trkpt>
<trkpt lat="55.714770" lon="12.453371">
<ele>33.9</ele>
<time>2018-05-27T09:00:11Z</time>
<speed>22.5</speed>
</trkpt>
<trkpt lat="55.714961" lon="12.453479">
<ele>35.1</ele>
<time>2018-05-27T09:00:12Z</time>
<speed>22.5</speed>
</trkpt>
<trkpt lat="55.715155" lon="12.453591">
<ele>34.9</ele>
<time>2018-05-27T09:00:13Z</time>
<speed>22.5</speed>
</trkpt>
<trkpt lat="55.715355" lon="12.453687">
<ele>35.5</ele>
<time>2018-05-27T09:00:14Z</time>
<speed>22.5</speed>
</trkpt>
<trkpt lat="55.715551" lon="12.453784">
<ele>35.2</ele>
<time>2018-05-27T09:00:15Z</time>
<speed>22.5</speed>
</trkpt>
<trkpt lat="55.715752" lon="12.453864">
<ele>35.6</ele>
<time>2018-05-27T09:00:16Z</time>
<speed>22.5</speed>
</trkpt>
<trkpt lat="55.715940" lon="12.453957">
<ele>35.8</ele>
<time>2018-05-27T09:00:17Z</time>
<speed>22.5</speed>
</trkpt>
<trkpt lat="55.716149" lon="12.454041">
<ele>35.7</ele>
<time>2018-05-27T09:00:18Z</time>
<speed>22.5</speed>
</trkpt>
<trkpt lat="55.716339" lon="12.454119">
<ele>35.8</ele>
<time>2018-05-27T09:00:19Z</time>
<speed>22.2</speed>
</trkpt>
<trkpt lat="55.716541" lon="12.454199">
<ele>36.3</ele>
<time>2018-05-27T09:00:20Z</time>
<speed>22.5</speed>
</trkpt>
<trkpt lat="55.716743" lon="12.454280">
<ele>36.7</ele>
<time>2018-05-27T09:00:21Z</time>
<speed>22.5</speed>
</trkpt>
<trkpt lat="55.716946" lon="12.454345">
<ele>37.0</ele>
<time>2018-05-27T09:00:22Z</time>
<speed>22.5</speed>
</trkpt>
<trkpt lat="55.717148" lon="12.454426">
<ele>37.4</ele>
<time>2018-05-27T09:00:23Z</time>
<speed>22.8</speed>
</trkpt>
<trkpt lat="55.717346" lon="12.454491">
<ele>36.8</ele>
<time>2018-05-27T09:00:24Z</time>
<speed>22.8</speed>
</trkpt>
<trkpt lat="55.717548" lon="12.454572">
<ele>37.2</ele>
<time>2018-05-27T09:00:25Z</time>
<speed>22.8</speed>
</trkpt>
<trkpt lat="55.717745" lon="12.454653">
<ele>36.8</ele>
<time>2018-05-27T09:00:26Z</time>
<speed>22.8</speed>
</trkpt>
<trkpt lat="55.717949" lon="12.454718">
<ele>37.1</ele>
<time>2018-05-27T09:00:27Z</time>
<speed>23.6</speed>
</trkpt>
<trkpt lat="55.718166" lon="12.454771">
<ele>37.6</ele>
<time>2018-05-27T09:00:28Z</time>
<speed>23.9</speed>
</trkpt>
<trkpt lat="55.718382" lon="12.454840">
<ele>38.1</ele>
<time>2018-05-27T09:00:29Z</time>
<speed>24.2</speed>
</trkpt>
<trkpt lat="55.718592" lon="12.454908">
<ele>37.9</ele>
<time>2018-05-27T09:00:30Z</time>
<speed>23.9</speed>
</trkpt>
<trkpt lat="55.718803" lon="12.454977">
<ele>37.6</ele>
<time>2018-05-27T09:00:31Z</time>
<speed>23.9</speed>
</trkpt>
<trkpt lat="55.719014" lon="12.455046">
<ele>37.4</ele>
<time>2018-05-27T09:00:32Z</time>
<speed>23.6</speed>
</trkpt>
<trkpt lat="55.719218" lon="12.455130">
<ele>36.4</ele>
<time>2018-05-27T09:00:33Z</time>
<speed>23.6</speed>
</trkpt>
<trkpt lat="55.719430" lon="12.455183">
<ele>36.0</ele>
<time>2018-05-27T09:00:34Z</time>
<speed>23.6</speed>
</trkpt>
<trkpt lat="55.719634" lon="12.455267">
<ele>35.1</ele>
<time>2018-05-27T09:00:35Z</time>
<speed>23.3</speed>
</trkpt>
<trkpt lat="55.719849" lon="12.455324">
<ele>33.3</ele>
<time>2018-05-27T09:00:36Z</time>
<speed>23.3</speed>
</trkpt>
<trkpt lat="55.720062" lon="12.455396">
<ele>31.7</ele>
<time>2018-05-27T09:00:37Z</time>
<speed>23.6</speed>
</trkpt>
<trkpt lat="55.720259" lon="12.455449">
<ele>28.8</ele>
<time>2018-05-27T09:00:38Z</time>
<speed>23.6</speed>
</trkpt>
<trkpt lat="55.720475" lon="12.455490">
<ele>26.9</ele>
<time>2018-05-27T09:00:39Z</time>
<speed>23.6</speed>
</trkpt>
<trkpt lat="55.720682" lon="12.455543">
<ele>25.7</ele>
<time>2018-05-27T09:00:40Z</time>
<speed>23.6</speed>
</trkpt>
<trkpt lat="55.720898" lon="12.455584">
<ele>23.8</ele>
<time>2018-05-27T09:00:41Z</time>
<speed>23.6</speed>
</trkpt>
<trkpt lat="55.721116" lon="12.455609">
<ele>21.9</ele>
<time>2018-05-27T09:00:42Z</time>
<speed>23.6</speed>
</trkpt>
<trkpt lat="55.721330" lon="12.455647">
<ele>21.4</ele>
<time>2018-05-27T09:00:43Z</time>
<speed>23.6</speed>
</trkpt>
<trkpt lat="55.721545" lon="12.455669">
<ele>20.7</ele>
<time>2018-05-27T09:00:44Z</time>
<speed>23.3</speed>
</trkpt>
<trkpt lat="55.721761" lon="12.455691">
<ele>20.1</ele>
<time>2018-05-27T09:00:45Z</time>
<speed>23.3</speed>
</trkpt>
<trkpt lat="55.721965" lon="12.455694">
<ele>19.1</ele>
<time>2018-05-27T09:00:46Z</time>
<speed>23.3</speed>
</trkpt>
<trkpt lat="55.722181" lon="12.455716">
<ele>18.5</ele>
<time>2018-05-27T09:00:47Z</time>
<speed>23.1</speed>
</trkpt>
<trkpt lat="55.722396" lon="12.455719">
<ele>19.1</ele>
<time>2018-05-27T09:00:48Z</time>
<speed>23.1</speed>
</trkpt>
<trkpt lat="55.722607" lon="12.455707">
<ele>18.8</ele>
<time>2018-05-27T09:00:49Z</time>
<speed>22.8</speed>
</trkpt>
<trkpt lat="55.722817" lon="12.455710">
<ele>18.6</ele>
<time>2018-05-27T09:00:50Z</time>
<speed>22.8</speed>
</trkpt>
<trkpt lat="55.723021" lon="12.455694">
<ele>18.8</ele>
<time>2018-05-27T09:00:51Z</time>
<speed>22.8</speed>
</trkpt>
<trkpt lat="55.723233" lon="12.455681">
<ele>18.5</ele>
<time>2018-05-27T09:00:52Z</time>
<speed>22.5</speed>
</trkpt>
<trkpt lat="55.723437" lon="12.455665">
<ele>18.8</ele>
<time>2018-05-27T09:00:53Z</time>
<speed>23.1</speed>
</trkpt>
<trkpt lat="55.723647" lon="12.455668">
<ele>18.6</ele>
<time>2018-05-27T09:00:54Z</time>
<speed>23.3</speed>
</trkpt>
<trkpt lat="55.723860" lon="12.455640">
<ele>18.1</ele>
<time>2018-05-27T09:00:55Z</time>
<speed>23.6</speed>
</trkpt>
<trkpt lat="55.724078" lon="12.455612">
<ele>18.5</ele>
<time>2018-05-27T09:00:56Z</time>
<speed>23.6</speed>
</trkpt>
<trkpt lat="55.724291" lon="12.455584">
<ele>18.1</ele>
<time>2018-05-27T09:00:57Z</time>
<speed>23.9</speed>
</trkpt>
<trkpt lat="55.724497" lon="12.455553">
<ele>18.2</ele>
<time>2018-05-27T09:00:58Z</time>
<speed>23.6</speed>
</trkpt>
<trkpt lat="55.724705" lon="12.455525">
<ele>16.9</ele>
<time>2018-05-27T09:00:59Z</time>
<speed>23.9</speed>
</trkpt>
<trkpt lat="55.724920" lon="12.455481">
<ele>16.4</ele>
<time>2018-05-27T09:01:00Z</time>
<speed>23.9</speed>
</trkpt>
<trkpt lat="55.725134" lon="12.455438">
<ele>15.8</ele>
<time>2018-05-27T09:01:01Z</time>
<speed>23.9</speed>
</trkpt>
<trkpt lat="55.725335" lon="12.455406">
<ele>15.1</ele>
<time>2018-05-27T09:01:02Z</time>
<speed>23.1</speed>
</trkpt>
<trkpt lat="55.725543" lon="12.455359">
<ele>15.1</ele>
<time>2018-05-27T09:01:03Z</time>
<speed>22.8</speed>
</trkpt>
<trkpt lat="55.725743" lon="12.455328">
<ele>14.4</ele>
<time>2018-05-27T09:01:04Z</time>
<speed>22.8</speed>
</trkpt>
<trkpt lat="55.725937" lon="12.455293">
<ele>14.2</ele>
<time>2018-05-27T09:01:05Z</time>
<speed>22.8</speed>
</trkpt>
<trkpt lat="55.726138" lon="12.455261">
<ele>13.5</ele>
<time>2018-05-27T09:01:06Z</time>
<speed>22.8</speed>
</trkpt>
<trkpt lat="55.726331" lon="12.455227">
<ele>13.4</ele>
<time>2018-05-27T09:01:07Z</time>
<speed>21.9</speed>
</trkpt>
<trkpt lat="55.726525" lon="12.455192">
<ele>13.2</ele>
<time>2018-05-27T09:01:08Z</time>
<speed>21.7</speed>
</trkpt>
<trkpt lat="55.726718" lon="12.455157">
<ele>13.0</ele>
<time>2018-05-27T09:01:09Z</time>
<speed>21.4</speed>
</trkpt>
<trkpt lat="55.726912" lon="12.455122">
<ele>12.9</ele>
<time>2018-05-27T09:01:10Z</time>
<speed>21.7</speed>
</trkpt>
<trkpt lat="55.727105" lon="12.455087">
<ele>12.7</ele>
<time>2018-05-27T09:01:11Z</time>
<speed>21.7</speed>
</trkpt>
<trkpt lat="55.727294" lon="12.455052">
<ele>11.7</ele>
<time>2018-05-27T09:01:12Z</time>
<speed>21.9</speed>
</trkpt>
<trkpt lat="55.727487" lon="12.455017">
<ele>11.6</ele>
<time>2018-05-27T09:01:13Z</time>
<speed>21.9</speed>
</trkpt>
<trkpt lat="55.727686" lon="12.454982">
<ele>12.2</ele>
<time>2018-05-27T09:01:14Z</time>
<speed>22.2</speed>
</trkpt>
<trkpt lat="55.727879" lon="12.454947">
<ele>12.1</ele>
<time>2018-05-27T09:01:15Z</time>
<speed>22.8</speed>
</trkpt>
<trkpt lat="55.728081" lon="12.454900">
<ele>11.2</ele>
<time>2018-05-27T09:01:16Z</time>
<speed>22.8</speed>
</trkpt>
<trkpt lat="55.728287" lon="12.454869">
<ele>11.4</ele>
<time>2018-05-27T09:01:17Z</time>
<speed>23.1</speed>
</trkpt>
<trkpt lat="55.728486" lon="12.454853">
<ele>10.8</ele>
<time>2018-05-27T09:01:18Z</time>
<speed>22.8</speed>
</trkpt>
<trkpt lat="55.728692" lon="12.454822">
<ele>10.9</ele>
<time>2018-05-27T09:01:19Z</time>
<speed>22.5</speed>
</trkpt>
<trkpt lat="55.728894" lon="12.454802">
<ele>12.5</ele>
<time>2018-05-27T09:01:20Z</time>
<speed>21.9</speed>
</trkpt>
<trkpt lat="55.729096" lon="12.454783">
<ele>14.1</ele>
<time>2018-05-27T09:01:21Z</time>
<speed>21.9</speed>
</trkpt>
<trkpt lat="55.729306" lon="12.454767">
<ele>15.2</ele>
<time>2018-05-27T09:01:22Z</time>
<speed>21.9</speed>
</trkpt>
<trkpt lat="55.729501" lon="12.454763">
<ele>16.1</ele>
<time>2018-05-27T09:01:23Z</time>
<speed>21.9</speed>
</trkpt>
<trkpt lat="55.729705" lon="12.454747">
<ele>16.3</ele>
<time>2018-05-27T09:01:24Z</time>
<speed>21.9</speed>
</trkpt>
<trkpt lat="55.729900" lon="12.454743">
<ele>17.2</ele>
<time>2018-05-27T09:01:25Z</time>
<speed>21.7</speed>
</trkpt>
<trkpt lat="55.730096" lon="12.454740">
<ele>18.2</ele>
<time>2018-05-27T09:01:26Z</time>
<speed>21.7</speed>
</trkpt>
<trkpt lat="55.730293" lon="12.454739">
<ele>17.7</ele>
<time>2018-05-27T09:01:27Z</time>
<speed>21.4</speed>
</trkpt>
<trkpt lat="55.730487" lon="12.454751">
<ele>18.7</ele>
<time>2018-05-27T09:01:28Z</time>
<speed>21.4</speed>
</trkpt>
<trkpt lat="55.730688" lon="12.454747">
<ele>20.5</ele>
<time>2018-05-27T09:01:29Z</time>
<speed>21.4</speed>
</trkpt>
<trkpt lat="55.730881" lon="12.454759">
<ele>21.5</ele>
<time>2018-05-27T09:01:30Z</time>
<speed>21.4</speed>
</trkpt>
<trkpt lat="55.731080" lon="12.454771">
<ele>23.3</ele>
<time>2018-05-27T09:01:31Z</time>
<speed>21.4</speed>
</trkpt>
<trkpt lat="55.731283" lon="12.454770">
<ele>23.7</ele>
<time>2018-05-27T09:01:32Z</time>
<speed>21.7</speed>
</trkpt>
<trkpt lat="55.731477" lon="12.454782">
<ele>24.7</ele>
<time>2018-05-27T09:01:33Z</time>
<speed>21.9</speed>
</trkpt>
<trkpt lat="55.731679" lon="12.454782">
<ele>25.1</ele>
<time>2018-05-27T09:01:34Z</time>
<speed>22.5</speed>
</trkpt>
<trkpt lat="55.731885" lon="12.454797">
<ele>26.4</ele>
<time>2018-05-27T09:01:35Z</time>
<speed>22.8</speed>
</trkpt>
<trkpt lat="55.732100" lon="12.454800">
<ele>27.0</ele>
<time>2018-05-27T09:01:36Z</time>
<speed>22.8</speed>
</trkpt>
<trkpt lat="55.732308" lon="12.454799">
<ele>28.2</ele>
<time>2018-05-27T09:01:37Z</time>
<speed>23.1</speed>
</trkpt>
<trkpt lat="55.732523" lon="12.454802">
<ele>28.9</ele>
<time>2018-05-27T09:01:38Z</time>
<speed>23.3</speed>
</trkpt>
<trkpt lat="55.732736" lon="12.454821">
<ele>29.6</ele>
<time>2018-05-27T09:01:39Z</time>
<speed>23.3</speed>
</trkpt>
<trkpt lat="55.732944" lon="12.454821">
<ele>30.8</ele>
<time>2018-05-27T09:01:40Z</time>
<speed>23.3</speed>
</trkpt>
<trkpt lat="55.733159" lon="12.454824">
<ele>31.5</ele>
<time>2018-05-27T09:01:41Z</time>
<speed>23.3</speed>
</trkpt>
<trkpt lat="55.733374" lon="12.454827">
<ele>32.1</ele>
<time>2018-05-27T09:01:42Z</time>
<speed>23.6</speed>
</trkpt>
<trkpt lat="55.733594" lon="12.454849">
<ele>32.3</ele>
<time>2018-05-27T09:01:43Z</time>
<speed>23.6</speed>
</trkpt>
<trkpt lat="55.733809" lon="12.454852">
<ele>32.9</ele>
<time>2018-05-27T09:01:44Z</time>
<speed>23.9</speed>
</trkpt>
<trkpt lat="55.734024" lon="12.454855">
<ele>33.6</ele>
<time>2018-05-27T09:01:45Z</time>
<speed>23.9</speed>
</trkpt>
<trkpt lat="55.734239" lon="12.454858">
<ele>34.2</ele>
<time>2018-05-27T09:01:46Z</time>
<speed>23.9</speed>
</trkpt>
<trkpt lat="55.734454" lon="12.454861">
<ele>34.9</ele>
<time>2018-05-27T09:01:47Z</time>
<speed>23.3</speed>
</trkpt>
<trkpt lat="55.734669" lon="12.454864">
<ele>35.5</ele>
<time>2018-05-27T09:01:48Z</time>
<speed>23.3</speed>
</trkpt>
<trkpt lat="55.734882" lon="12.454883">
<ele>36.3</ele>
<time>2018-05-27T09:01:49Z</time>
<speed>23.3</speed>
</trkpt>
<trkpt lat="55.735097" lon="12.454886">
<ele>36.9</ele>
<time>2018-05-27T09:01:50Z</time>
<speed>23.3</speed>
</trkpt>
<trkpt lat="55.735300" lon="12.454885">
<ele>37.3</ele>
<time>2018-05-27T09:01:51Z</time>
<speed>23.3</speed>
</trkpt>
<trkpt lat="55.735513" lon="12.454904">
<ele>38.0</ele>
<time>2018-05-27T09:01:52Z</time>
<speed>23.3</speed>
</trkpt>
<trkpt lat="55.735728" lon="12.454907">
<ele>38.7</ele>
<time>2018-05-27T09:01:53Z</time>
<speed>23.3</speed>
</trkpt>
<trkpt lat="55.735936" lon="12.454926">
<ele>38.6</ele>
<time>2018-05-27T09:01:54Z</time>
<speed>23.6</speed>
</trkpt>
<trkpt lat="55.736151" lon="12.454929">
<ele>39.2</ele>
<time>2018-05-27T09:01:55Z</time>
<speed>23.6</speed>
</trkpt>
<trkpt lat="55.736364" lon="12.454947">
<ele>40.0</ele>
<time>2018-05-27T09:01:56Z</time>
<speed>23.6</speed>
</trkpt>
<trkpt lat="55.736585" lon="12.454969">
<ele>40.2</ele>
<time>2018-05-27T09:01:57Z</time>
<speed>23.9</speed>
</trkpt>
<trkpt lat="55.736797" lon="12.455003">
<ele>41.1</ele>
<time>2018-05-27T09:01:58Z</time>
<speed>23.9</speed>
</trkpt>
<trkpt lat="55.737017" lon="12.455025">
<ele>41.3</ele>
<time>2018-05-27T09:01:59Z</time>
<speed>24.2</speed>
</trkpt>
<trkpt lat="55.737229" lon="12.455060">
<ele>42.2</ele>
<time>2018-05-27T09:02:00Z</time>
<speed>24.2</speed>
</trkpt>
<trkpt lat="55.737446" lon="12.455113">
<ele>42.6</ele>
<time>2018-05-27T09:02:01Z</time>
<speed>24.2</speed>
</trkpt>
<trkpt lat="55.737663" lon="12.455166">
<ele>43.1</ele>
<time>2018-05-27T09:02:02Z</time>
<speed>23.9</speed>
</trkpt>
<trkpt lat="55.737874" lon="12.455216">
<ele>44.1</ele>
<time>2018-05-27T09:02:03Z</time>
<speed>23.6</speed>
</trkpt>
<trkpt lat="55.738084" lon="12.455284">
<ele>43.8</ele>
<time>2018-05-27T09:02:04Z</time>
<speed>23.3</speed>
</trkpt>
<trkpt lat="55.738293" lon="12.455349">
<ele>45.0</ele>
<time>2018-05-27T09:02:05Z</time>
<speed>23.3</speed>
</trkpt>
<trkpt lat="55.738502" lon="12.455434">
<ele>44.8</ele>
<time>2018-05-27T09:02:06Z</time>
<speed>23.3</speed>
</trkpt>
<trkpt lat="55.738710" lon="12.455499">
<ele>46.0</ele>
<time>2018-05-27T09:02:07Z</time>
<speed>23.1</speed>
</trkpt>
<trkpt lat="55.738907" lon="12.455580">
<ele>45.6</ele>
<time>2018-05-27T09:02:08Z</time>
<speed>23.1</speed>
</trkpt>
<trkpt lat="55.739113" lon="12.455676">
<ele>46.9</ele>
<time>2018-05-27T09:02:09Z</time>
<speed>23.1</speed>
</trkpt>
<trkpt lat="55.739314" lon="12.455757">
<ele>47.4</ele>
<time>2018-05-27T09:02:10Z</time>
<speed>22.8</speed>
</trkpt>
<trkpt lat="55.739525" lon="12.455853">
<ele>49.5</ele>
<time>2018-05-27T09:02:11Z</time>
<speed>22.8</speed>
</trkpt>
<trkpt lat="55.739725" lon="12.455949">
<ele>50.1</ele>
<time>2018-05-27T09:02:12Z</time>
<speed>22.2</speed>
</trkpt>
<trkpt lat="55.739911" lon="12.456058">
<ele>50.5</ele>
<time>2018-05-27T09:02:13Z</time>
<speed>21.7</speed>
</trkpt>
<trkpt lat="55.740089" lon="12.456178">
<ele>51.5</ele>
<time>2018-05-27T09:02:14Z</time>
<speed>21.4</speed>
</trkpt>
<trkpt lat="55.740265" lon="12.456287">
<ele>50.3</ele>
<time>2018-05-27T09:02:15Z</time>
<speed>21.1</speed>
</trkpt>
<trkpt lat="55.740445" lon="12.456411">
<ele>50.0</ele>
<time>2018-05-27T09:02:16Z</time>
<speed>21.1</speed>
</trkpt>
<trkpt lat="55.740617" lon="12.456531">
<ele>50.2</ele>
<time>2018-05-27T09:02:17Z</time>
<speed>21.4</speed>
</trkpt>
<trkpt lat="55.740795" lon="12.456671">
<ele>50.0</ele>
<time>2018-05-27T09:02:18Z</time>
<speed>21.4</speed>
</trkpt>
<trkpt lat="55.740975" lon="12.456795">
<ele>49.7</ele>
<time>2018-05-27T09:02:19Z</time>
<speed>21.4</speed>
</trkpt>
<trkpt lat="55.741144" lon="12.456947">
<ele>50.1</ele>
<time>2018-05-27T09:02:20Z</time>
<speed>21.4</speed>
</trkpt>
<trkpt lat="55.741322" lon="12.457086">
<ele>50.0</ele>
<time>2018-05-27T09:02:21Z</time>
<speed>21.4</speed>
</trkpt>
<trkpt lat="55.741500" lon="12.457226">
<ele>49.8</ele>
<time>2018-05-27T09:02:22Z</time>
<speed>21.4</speed>
</trkpt>
<trkpt lat="55.741665" lon="12.457377">
<ele>49.4</ele>
<time>2018-05-27T09:02:23Z</time>
<speed>21.4</speed>
</trkpt>
<trkpt lat="55.741839" lon="12.457548">
<ele>49.5</ele>
<time>2018-05-27T09:02:24Z</time>
<speed>21.7</speed>
</trkpt>
<trkpt lat="55.742011" lon="12.457703">
<ele>48.6</ele>
<time>2018-05-27T09:02:25Z</time>
<speed>21.9</speed>
</trkpt>
<trkpt lat="55.742186" lon="12.457874">
<ele>48.6</ele>
<time>2018-05-27T09:02:26Z</time>
<speed>21.9</speed>
</trkpt>
<trkpt lat="55.742363" lon="12.458048">
<ele>47.3</ele>
<time>2018-05-27T09:02:27Z</time>
<speed>22.2</speed>
</trkpt>
<trkpt lat="55.742531" lon="12.458234">
<ele>46.6</ele>
<time>2018-05-27T09:02:28Z</time>
<speed>22.2</speed>
</trkpt>
<trkpt lat="55.742699" lon="12.458420">
<ele>46.0</ele>
<time>2018-05-27T09:02:29Z</time>
<speed>22.5</speed>
</trkpt>
<trkpt lat="55.742875" lon="12.458610">
<ele>44.8</ele>
<time>2018-05-27T09:02:30Z</time>
<speed>22.8</speed>
</trkpt>
<trkpt lat="55.743049" lon="12.458815">
<ele>43.7</ele>
<time>2018-05-27T09:02:31Z</time>
<speed>22.8</speed>
</trkpt>
<trkpt lat="55.743222" lon="12.459020">
<ele>42.6</ele>
<time>2018-05-27T09:02:32Z</time>
<speed>23.3</speed>
</trkpt>
<trkpt lat="55.743395" lon="12.459241">
<ele>41.6</ele>
<time>2018-05-27T09:02:33Z</time>
<speed>23.6</speed>
</trkpt>
<trkpt lat="55.743567" lon="12.459462">
<ele>40.7</ele>
<time>2018-05-27T09:02:34Z</time>
<speed>23.9</speed>
</trkpt>
<trkpt lat="55.743744" lon="12.459683">
<ele>40.5</ele>
<time>2018-05-27T09:02:35Z</time>
<speed>24.2</speed>
</trkpt>
<trkpt lat="55.743922" lon="12.459922">
<ele>39.1</ele>
<time>2018-05-27T09:02:36Z</time>
<speed>24.2</speed>
</trkpt>
<trkpt lat="55.744098" lon="12.460159">
<ele>39.1</ele>
<time>2018-05-27T09:02:37Z</time>
<speed>24.2</speed>
</trkpt>
<trkpt lat="55.744267" lon="12.460410">
<ele>38.4</ele>
<time>2018-05-27T09:02:38Z</time>
<speed>24.4</speed>
</trkpt>
<trkpt lat="55.744436" lon="12.460662">
<ele>37.7</ele>
<time>2018-05-27T09:02:39Z</time>
<speed>24.4</speed>
</trkpt>
<trkpt lat="55.744610" lon="12.460914">
<ele>37.8</ele>
<time>2018-05-27T09:02:40Z</time>
<speed>24.7</speed>
</trkpt>
<trkpt lat="55.744778" lon="12.461182">
<ele>37.2</ele>
<time>2018-05-27T09:02:41Z</time>
<speed>24.7</speed>
</trkpt>
<trkpt lat="55.744945" lon="12.461449">
<ele>36.6</ele>
<time>2018-05-27T09:02:42Z</time>
<speed>24.7</speed>
</trkpt>
<trkpt lat="55.745113" lon="12.461716">
<ele>36.0</ele>
<time>2018-05-27T09:02:43Z</time>
<speed>24.7</speed>
</trkpt>
<trkpt lat="55.745280" lon="12.461984">
<ele>35.4</ele>
<time>2018-05-27T09:02:44Z</time>
<speed>24.4</speed>
</trkpt>
<trkpt lat="55.745435" lon="12.462248">
<ele>34.5</ele>
<time>2018-05-27T09:02:45Z</time>
<speed>24.4</speed>
</trkpt>
<trkpt lat="55.745594" lon="12.462527">
<ele>34.6</ele>
<time>2018-05-27T09:02:46Z</time>
<speed>24.4</speed>
</trkpt>
<trkpt lat="55.745747" lon="12.462807">
<ele>33.8</ele>
<time>2018-05-27T09:02:47Z</time>
<speed>24.4</speed>
</trkpt>
<trkpt lat="55.745904" lon="12.463102">
<ele>34.0</ele>
<time>2018-05-27T09:02:48Z</time>
<speed>24.4</speed>
</trkpt>
<trkpt lat="55.746051" lon="12.463378">
<ele>33.8</ele>
<time>2018-05-27T09:02:49Z</time>
<speed>24.7</speed>
</trkpt>
<trkpt lat="55.746203" lon="12.463673">
<ele>33.2</ele>
<time>2018-05-27T09:02:50Z</time>
<speed>24.7</speed>
</trkpt>
<trkpt lat="55.746355" lon="12.463968">
<ele>32.6</ele>
<time>2018-05-27T09:02:51Z</time>
<speed>24.7</speed>
</trkpt>
<trkpt lat="55.746498" lon="12.464275">
<ele>32.6</ele>
<time>2018-05-27T09:02:52Z</time>
<speed>24.7</speed>
</trkpt>
<trkpt lat="55.746645" lon="12.464570">
<ele>31.1</ele>
<time>2018-05-27T09:02:53Z</time>
<speed>24.7</speed>
</trkpt>
<trkpt lat="55.746783" lon="12.464878">
<ele>30.4</ele>
<time>2018-05-27T09:02:54Z</time>
<speed>24.4</speed>
</trkpt>
<trkpt lat="55.746924" lon="12.465200">
<ele>30.5</ele>
<time>2018-05-27T09:02:55Z</time>
<speed>24.4</speed>
</trkpt>
<trkpt lat="55.747055" lon="12.465504">
<ele>30.3</ele>
<time>2018-05-27T09:02:56Z</time>
<speed>24.4</speed>
</trkpt>
<trkpt lat="55.747186" lon="12.465808">
<ele>30.0</ele>
<time>2018-05-27T09:02:57Z</time>
<speed>23.6</speed>
</trkpt>
<trkpt lat="55.747316" lon="12.466112">
<ele>29.8</ele>
<time>2018-05-27T09:02:58Z</time>
<speed>23.6</speed>
</trkpt>
<trkpt lat="55.747446" lon="12.466431">
<ele>29.7</ele>
<time>2018-05-27T09:02:59Z</time>
<speed>23.6</speed>
</trkpt>
<trkpt lat="55.747569" lon="12.466731">
<ele>30.0</ele>
<time>2018-05-27T09:03:00Z</time>
<speed>23.6</speed>
</trkpt>
<trkpt lat="55.747691" lon="12.467047">
<ele>30.4</ele>
<time>2018-05-27T09:03:01Z</time>
<speed>23.6</speed>
</trkpt>
<trkpt lat="55.747813" lon="12.467363">
<ele>30.9</ele>
<time>2018-05-27T09:03:02Z</time>
<speed>23.3</speed>
</trkpt>
<trkpt lat="55.747935" lon="12.467679">
<ele>31.3</ele>
<time>2018-05-27T09:03:03Z</time>
<speed>23.3</speed>
</trkpt>
<trkpt lat="55.748048" lon="12.468007">
<ele>32.4</ele>
<time>2018-05-27T09:03:04Z</time>
<speed>23.3</speed>
</trkpt>
<trkpt lat="55.748163" lon="12.468319">
<ele>33.4</ele>
<time>2018-05-27T09:03:05Z</time>
<speed>23.3</speed>
</trkpt>
<trkpt lat="55.748271" lon="12.468647">
<ele>33.7</ele>
<time>2018-05-27T09:03:06Z</time>
<speed>23.3</speed>
</trkpt>
<trkpt lat="55.748379" lon="12.468975">
<ele>34.0</ele>
<time>2018-05-27T09:03:07Z</time>
<speed>23.1</speed>
</trkpt>
<trkpt lat="55.748474" lon="12.469300">
<ele>34.0</ele>
<time>2018-05-27T09:03:08Z</time>
<speed>23.1</speed>
</trkpt>
<trkpt lat="55.748575" lon="12.469624">
<ele>34.8</ele>
<time>2018-05-27T09:03:09Z</time>
<speed>23.1</speed>
</trkpt>
<trkpt lat="55.748676" lon="12.469949">
<ele>35.6</ele>
<time>2018-05-27T09:03:10Z</time>
<speed>23.1</speed>
</trkpt>
<trkpt lat="55.748777" lon="12.470274">
<ele>36.4</ele>
<time>2018-05-27T09:03:11Z</time>
<speed>23.1</speed>
</trkpt>
<trkpt lat="55.748872" lon="12.470598">
<ele>36.4</ele>
<time>2018-05-27T09:03:12Z</time>
<speed>22.8</speed>
</trkpt>
<trkpt lat="55.748964" lon="12.470935">
<ele>37.9</ele>
<time>2018-05-27T09:03:13Z</time>
<speed>22.8</speed>
</trkpt>
<trkpt lat="55.749060" lon="12.471259">
<ele>38.0</ele>
<time>2018-05-27T09:03:14Z</time>
<speed>22.5</speed>
</trkpt>
<trkpt lat="55.749141" lon="12.471577">
<ele>39.1</ele>
<time>2018-05-27T09:03:15Z</time>
<speed>22.5</speed>
</trkpt>
<trkpt lat="55.749230" lon="12.471898">
<ele>39.6</ele>
<time>2018-05-27T09:03:16Z</time>
<speed>22.5</speed>
</trkpt>
<trkpt lat="55.749318" lon="12.472219">
<ele>40.2</ele>
<time>2018-05-27T09:03:17Z</time>
<speed>22.5</speed>
</trkpt>
<trkpt lat="55.749405" lon="12.472556">
<ele>40.8</ele>
<time>2018-05-27T09:03:18Z</time>
<speed>22.5</speed>
</trkpt>
<trkpt lat="55.749481" lon="12.472874">
<ele>41.1</ele>
<time>2018-05-27T09:03:19Z</time>
<speed>22.2</speed>
</trkpt>
<trkpt lat="55.749556" lon="12.473207">
<ele>41.5</ele>
<time>2018-05-27T09:03:20Z</time>
<speed>21.9</speed>
</trkpt>
<trkpt lat="55.749632" lon="12.473525">
<ele>41.8</ele>
<time>2018-05-27T09:03:21Z</time>
<speed>21.9</speed>
</trkpt>
<trkpt lat="55.749706" lon="12.473858">
<ele>42.2</ele>
<time>2018-05-27T09:03:22Z</time>
<speed>21.9</speed>
</trkpt>
<trkpt lat="55.749781" lon="12.474191">
<ele>42.6</ele>
<time>2018-05-27T09:03:23Z</time>
<speed>21.9</speed>
</trkpt>
<trkpt lat="55.749843" lon="12.474521">
<ele>42.7</ele>
<time>2018-05-27T09:03:24Z</time>
<speed>22.2</speed>
</trkpt>
<trkpt lat="55.749903" lon="12.474854">
<ele>40.6</ele>
<time>2018-05-27T09:03:25Z</time>
<speed>22.2</speed>
</trkpt>
<trkpt lat="55.749953" lon="12.475200">
<ele>39.2</ele>
<time>2018-05-27T09:03:26Z</time>
<speed>22.2</speed>
</trkpt>
<trkpt lat="55.750026" lon="12.475549">
<ele>39.7</ele>
<time>2018-05-27T09:03:27Z</time>
<speed>22.5</speed>
</trkpt>
<trkpt lat="55.750096" lon="12.475882">
<ele>39.3</ele>
<time>2018-05-27T09:03:28Z</time>
<speed>23.1</speed>
</trkpt>
<trkpt lat="55.750156" lon="12.476227">
<ele>39.5</ele>
<time>2018-05-27T09:03:29Z</time>
<speed>23.3</speed>
</trkpt>
<trkpt lat="55.750230" lon="12.476595">
<ele>38.8</ele>
<time>2018-05-27T09:03:30Z</time>
<speed>23.3</speed>
</trkpt>
<trkpt lat="55.750303" lon="12.476944">
<ele>39.3</ele>
<time>2018-05-27T09:03:31Z</time>
<speed>23.3</speed>
</trkpt>
<trkpt lat="55.750370" lon="12.477293">
<ele>39.0</ele>
<time>2018-05-27T09:03:32Z</time>
<speed>23.1</speed>
</trkpt>
<trkpt lat="55.750438" lon="12.477642">
<ele>38.7</ele>
<time>2018-05-27T09:03:33Z</time>
<speed>23.1</speed>
</trkpt>
<trkpt lat="55.750511" lon="12.477990">
<ele>39.2</ele>
<time>2018-05-27T09:03:34Z</time>
<speed>22.8</speed>
</trkpt>
<trkpt lat="55.750579" lon="12.478339">
<ele>38.9</ele>
<time>2018-05-27T09:03:35Z</time>
<speed>22.5</speed>
</trkpt>
<trkpt lat="55.750642" lon="12.478688">
<ele>37.8</ele>
<time>2018-05-27T09:03:36Z</time>
<speed>22.5</speed>
</trkpt>
<trkpt lat="55.750704" lon="12.479018">
<ele>37.9</ele>
<time>2018-05-27T09:03:37Z</time>
<speed>22.2</speed>
</trkpt>
<trkpt lat="55.750774" lon="12.479351">
<ele>37.5</ele>
<time>2018-05-27T09:03:38Z</time>
<speed>21.9</speed>
</trkpt>
<trkpt lat="55.750834" lon="12.479697">
<ele>37.7</ele>
<time>2018-05-27T09:03:39Z</time>
<speed>21.9</speed>
</trkpt>
<trkpt lat="55.750897" lon="12.480026">
<ele>37.9</ele>
<time>2018-05-27T09:03:40Z</time>
<speed>21.7</speed>
</trkpt>
<trkpt lat="55.750968" lon="12.480344">
<ele>37.3</ele>
<time>2018-05-27T09:03:41Z</time>
<speed>21.7</speed>
</trkpt>
<trkpt lat="55.751030" lon="12.480674">
<ele>37.4</ele>
<time>2018-05-27T09:03:42Z</time>
<speed>21.4</speed>
</trkpt>
<trkpt lat="55.751087" lon="12.481004">
<ele>36.7</ele>
<time>2018-05-27T09:03:43Z</time>
<speed>21.4</speed>
</trkpt>
<trkpt lat="55.751149" lon="12.481334">
<ele>36.9</ele>
<time>2018-05-27T09:03:44Z</time>
<speed>21.7</speed>
</trkpt>
<trkpt lat="55.751220" lon="12.481651">
<ele>36.3</ele>
<time>2018-05-27T09:03:45Z</time>
<speed>21.7</speed>
</trkpt>
<trkpt lat="55.751277" lon="12.481981">
<ele>35.6</ele>
<time>2018-05-27T09:03:46Z</time>
<speed>21.7</speed>
</trkpt>
<trkpt lat="55.751340" lon="12.482311">
<ele>35.7</ele>
<time>2018-05-27T09:03:47Z</time>
<speed>21.9</speed>
</trkpt>
<trkpt lat="55.751404" lon="12.482644">
<ele>34.5</ele>
<time>2018-05-27T09:03:48Z</time>
<speed>22.2</speed>
</trkpt>
<trkpt lat="55.751465" lon="12.482990">
<ele>34.7</ele>
<time>2018-05-27T09:03:49Z</time>
<speed>22.5</speed>
</trkpt>
<trkpt lat="55.751534" lon="12.483323">
<ele>34.3</ele>
<time>2018-05-27T09:03:50Z</time>
<speed>22.5</speed>
</trkpt>
<trkpt lat="55.751616" lon="12.483660">
<ele>34.1</ele>
<time>2018-05-27T09:03:51Z</time>
<speed>22.5</speed>
</trkpt>
<trkpt lat="55.751685" lon="12.483993">
<ele>33.7</ele>
<time>2018-05-27T09:03:52Z</time>
<speed>22.8</speed>
</trkpt>
<trkpt lat="55.751766" lon="12.484345">
<ele>33.7</ele>
<time>2018-05-27T09:03:53Z</time>
<speed>23.3</speed>
</trkpt>
<trkpt lat="55.751852" lon="12.484682">
<ele>34.4</ele>
<time>2018-05-27T09:03:54Z</time>
<speed>23.9</speed>
</trkpt>
<trkpt lat="55.751940" lon="12.485038">
<ele>33.8</ele>
<time>2018-05-27T09:03:55Z</time>
<speed>24.2</speed>
</trkpt>
<trkpt lat="55.752032" lon="12.485394">
<ele>34.0</ele>
<time>2018-05-27T09:03:56Z</time>
<speed>24.2</speed>
</trkpt>
<trkpt lat="55.752129" lon="12.485737">
<ele>32.8</ele>
<time>2018-05-27T09:03:57Z</time>
<speed>24.4</speed>
</trkpt>
<trkpt lat="55.752221" lon="12.486093">
<ele>33.0</ele>
<time>2018-05-27T09:03:58Z</time>
<speed>24.2</speed>
</trkpt>
<trkpt lat="55.752315" lon="12.486433">
<ele>33.2</ele>
<time>2018-05-27T09:03:59Z</time>
<speed>24.2</speed>
</trkpt>
<trkpt lat="55.752421" lon="12.486777">
<ele>33.6</ele>
<time>2018-05-27T09:04:00Z</time>
<speed>23.9</speed>
</trkpt>
<trkpt lat="55.752517" lon="12.487101">
<ele>33.6</ele>
<time>2018-05-27T09:04:01Z</time>
<speed>23.9</speed>
</trkpt>
<trkpt lat="55.752618" lon="12.487445">
<ele>33.2</ele>
<time>2018-05-27T09:04:02Z</time>
<speed>23.3</speed>
</trkpt>
<trkpt lat="55.752726" lon="12.487773">
<ele>33.4</ele>
<time>2018-05-27T09:04:03Z</time>
<speed>23.3</speed>
</trkpt>
<trkpt lat="55.752831" lon="12.488086">
<ele>32.8</ele>
<time>2018-05-27T09:04:04Z</time>
<speed>23.1</speed>
</trkpt>
<trkpt lat="55.752935" lon="12.488398">
<ele>32.1</ele>
<time>2018-05-27T09:04:05Z</time>
<speed>22.8</speed>
</trkpt>
<trkpt lat="55.753045" lon="12.488711">
<ele>32.3</ele>
<time>2018-05-27T09:04:06Z</time>
<speed>22.8</speed>
</trkpt>
<trkpt lat="55.753142" lon="12.489020">
<ele>32.2</ele>
<time>2018-05-27T09:04:07Z</time>
<speed>22.2</speed>
</trkpt>
<trkpt lat="55.753248" lon="12.489317">
<ele>31.4</ele>
<time>2018-05-27T09:04:08Z</time>
<speed>21.9</speed>
</trkpt>
<trkpt lat="55.753354" lon="12.489614">
<ele>30.6</ele>
<time>2018-05-27T09:04:09Z</time>
<speed>21.9</speed>
</trkpt>
<trkpt lat="55.753458" lon="12.489908">
<ele>31.2</ele>
<time>2018-05-27T09:04:10Z</time>
<speed>21.9</speed>
</trkpt>
<trkpt lat="55.753565" lon="12.490205">
<ele>30.4</ele>
<time>2018-05-27T09:04:11Z</time>
<speed>21.9</speed>
</trkpt>
<trkpt lat="55.753662" lon="12.490514">
<ele>30.3</ele>
<time>2018-05-27T09:04:12Z</time>
<speed>22.2</speed>
</trkpt>
<trkpt lat="55.753773" lon="12.490811">
<ele>30.3</ele>
<time>2018-05-27T09:04:13Z</time>
<speed>22.2</speed>
</trkpt>
<trkpt lat="55.753883" lon="12.491123">
<ele>30.5</ele>
<time>2018-05-27T09:04:14Z</time>
<speed>22.8</speed>
</trkpt>
<trkpt lat="55.753992" lon="12.491436">
<ele>30.7</ele>
<time>2018-05-27T09:04:15Z</time>
<speed>23.1</speed>
</trkpt>
<trkpt lat="55.754107" lon="12.491748">
<ele>31.6</ele>
<time>2018-05-27T09:04:16Z</time>
<speed>23.1</speed>
</trkpt>
<trkpt lat="55.754223" lon="12.492064">
<ele>31.3</ele>
<time>2018-05-27T09:04:17Z</time>
<speed>23.6</speed>
</trkpt>
<trkpt lat="55.754337" lon="12.492393">
<ele>32.4</ele>
<time>2018-05-27T09:04:18Z</time>
<speed>23.9</speed>
</trkpt>
<trkpt lat="55.754447" lon="12.492724">
<ele>31.3</ele>
<time>2018-05-27T09:04:19Z</time>
<speed>24.2</speed>
</trkpt>
<trkpt lat="55.754562" lon="12.493056">
<ele>31.0</ele>
<time>2018-05-27T09:04:20Z</time>
<speed>24.2</speed>
</trkpt>
<trkpt lat="55.754672" lon="12.493387">
<ele>29.9</ele>
<time>2018-05-27T09:04:21Z</time>
<speed>24.2</speed>
</trkpt>
<trkpt lat="55.754782" lon="12.493719">
<ele>28.8</ele>
<time>2018-05-27T09:04:22Z</time>
<speed>23.9</speed>
</trkpt>
<trkpt lat="55.754890" lon="12.494047">
<ele>29.1</ele>
<time>2018-05-27T09:04:23Z</time>
<speed>23.9</speed>
</trkpt>
<trkpt lat="55.754993" lon="12.494375">
<ele>28.6</ele>
<time>2018-05-27T09:04:24Z</time>
<speed>23.9</speed>
</trkpt>
<trkpt lat="55.755087" lon="12.494715">
<ele>28.7</ele>
<time>2018-05-27T09:04:25Z</time>
<speed>23.6</speed>
</trkpt>
<trkpt lat="55.755176" lon="12.495056">
<ele>28.0</ele>
<time>2018-05-27T09:04:26Z</time>
<speed>23.6</speed>
</trkpt>
<trkpt lat="55.755258" lon="12.495392">
<ele>27.9</ele>
<time>2018-05-27T09:04:27Z</time>
<speed>22.8</speed>
</trkpt>
<trkpt lat="55.755345" lon="12.495729">
<ele>28.5</ele>
<time>2018-05-27T09:04:28Z</time>
<speed>23.6</speed>
</trkpt>
<trkpt lat="55.755425" lon="12.496081">
<ele>28.5</ele>
<time>2018-05-27T09:04:29Z</time>
<speed>23.9</speed>
</trkpt>
<trkpt lat="55.755507" lon="12.496437">
<ele>27.1</ele>
<time>2018-05-27T09:04:30Z</time>
<speed>23.9</speed>
</trkpt>
<trkpt lat="55.755587" lon="12.496790">
<ele>27.1</ele>
<time>2018-05-27T09:04:31Z</time>
<speed>23.9</speed>
</trkpt>
<trkpt lat="55.755666" lon="12.497158">
<ele>27.2</ele>
<time>2018-05-27T09:04:32Z</time>
<speed>23.6</speed>
</trkpt>
<trkpt lat="55.755733" lon="12.497506">
<ele>26.9</ele>
<time>2018-05-27T09:04:33Z</time>
<speed>23.9</speed>
</trkpt>
<trkpt lat="55.755805" lon="12.497871">
<ele>27.5</ele>
<time>2018-05-27T09:04:34Z</time>
<speed>23.9</speed>
</trkpt>
<trkpt lat="55.755864" lon="12.498251">
<ele>26.7</ele>
<time>2018-05-27T09:04:35Z</time>
<speed>23.9</speed>
</trkpt>
<trkpt lat="55.755930" lon="12.498615">
<ele>26.5</ele>
<time>2018-05-27T09:04:36Z</time>
<speed>23.9</speed>
</trkpt>
<trkpt lat="55.755995" lon="12.498995">
<ele>26.4</ele>
<time>2018-05-27T09:04:37Z</time>
<speed>24.2</speed>
</trkpt>
<trkpt lat="55.756042" lon="12.499372">
<ele>25.3</ele>
<time>2018-05-27T09:04:38Z</time>
<speed>24.2</speed>
</trkpt>
<trkpt lat="55.756100" lon="12.499767">
<ele>24.5</ele>
<time>2018-05-27T09:04:39Z</time>
<speed>23.9</speed>
</trkpt>
<trkpt lat="55.756147" lon="12.500125">
<ele>24.6</ele>
<time>2018-05-27T09:04:40Z</time>
<speed>23.9</speed>
</trkpt>
<trkpt lat="55.756194" lon="12.500502">
<ele>23.4</ele>
<time>2018-05-27T09:04:41Z</time>
<speed>23.9</speed>
</trkpt>
<trkpt lat="55.756234" lon="12.500875">
<ele>22.8</ele>
<time>2018-05-27T09:04:42Z</time>
<speed>23.6</speed>
</trkpt>
<trkpt lat="55.756272" lon="12.501244">
<ele>23.6</ele>
<time>2018-05-27T09:04:43Z</time>
<speed>23.6</speed>
</trkpt>
<trkpt lat="55.756312" lon="12.501618">
<ele>23.0</ele>
<time>2018-05-27T09:04:44Z</time>
<speed>23.6</speed>
</trkpt>
<trkpt lat="55.756350" lon="12.501987">
<ele>23.7</ele>
<time>2018-05-27T09:04:45Z</time>
<speed>23.9</speed>
</trkpt>
<trkpt lat="55.756381" lon="12.502372">
<ele>23.8</ele>
<time>2018-05-27T09:04:46Z</time>
<speed>23.9</speed>
</trkpt>
<trkpt lat="55.756409" lon="12.502742">
<ele>22.9</ele>
<time>2018-05-27T09:04:47Z</time>
<speed>23.3</speed>
</trkpt>
<trkpt lat="55.756427" lon="12.503124">
<ele>22.7</ele>
<time>2018-05-27T09:04:48Z</time>
<speed>23.1</speed>
</trkpt>
<trkpt lat="55.756448" lon="12.503490">
<ele>22.4</ele>
<time>2018-05-27T09:04:49Z</time>
<speed>23.1</speed>
</trkpt>
<trkpt lat="55.756468" lon="12.503856">
<ele>22.0</ele>
<time>2018-05-27T09:04:50Z</time>
<speed>23.1</speed>
</trkpt>
<trkpt lat="55.756489" lon="12.504223">
<ele>21.7</ele>
<time>2018-05-27T09:04:51Z</time>
<speed>23.1</speed>
</trkpt>
<trkpt lat="55.756516" lon="12.504592">
<ele>20.8</ele>
<time>2018-05-27T09:04:52Z</time>
<speed>23.1</speed>
</trkpt>
<trkpt lat="55.756542" lon="12.504959">
<ele>21.3</ele>
<time>2018-05-27T09:04:53Z</time>
<speed>23.3</speed>
</trkpt>
<trkpt lat="55.756562" lon="12.505325">
<ele>20.9</ele>
<time>2018-05-27T09:04:54Z</time>
<speed>23.3</speed>
</trkpt>
<trkpt lat="55.756593" lon="12.505710">
<ele>21.0</ele>
<time>2018-05-27T09:04:55Z</time>
<speed>23.6</speed>
</trkpt>
<trkpt lat="55.756614" lon="12.506076">
<ele>20.7</ele>
<time>2018-05-27T09:04:56Z</time>
<speed>23.6</speed>
</trkpt>
<trkpt lat="55.756638" lon="12.506458">
<ele>21.3</ele>
<time>2018-05-27T09:04:57Z</time>
<speed>23.9</speed>
</trkpt>
<trkpt lat="55.756665" lon="12.506828">
<ele>20.4</ele>
<time>2018-05-27T09:04:58Z</time>
<speed>23.9</speed>
</trkpt>
<trkpt lat="55.756689" lon="12.507209">
<ele>21.0</ele>
<time>2018-05-27T09:04:59Z</time>
<speed>23.9</speed>
</trkpt>
<trkpt lat="55.756715" lon="12.507595">
<ele>20.2</ele>
<time>2018-05-27T09:05:00Z</time>
<speed>23.9</speed>
</trkpt>
<trkpt lat="55.756734" lon="12.507976">
<ele>20.0</ele>
<time>2018-05-27T09:05:01Z</time>
<speed>23.9</speed>
</trkpt>
<trkpt lat="55.756754" lon="12.508343">
<ele>19.7</ele>
<time>2018-05-27T09:05:02Z</time>
<speed>23.6</speed>
</trkpt>
<trkpt lat="55.756778" lon="12.508725">
<ele>20.3</ele>
<time>2018-05-27T09:05:03Z</time>
<speed>24.2</speed>
</trkpt>
<trkpt lat="55.756804" lon="12.509110">
<ele>19.5</ele>
<time>2018-05-27T09:05:04Z</time>
<speed>24.2</speed>
</trkpt>
<trkpt lat="55.756841" lon="12.509495">
<ele>20.4</ele>
<time>2018-05-27T09:05:05Z</time>
<speed>23.9</speed>
</trkpt>
<trkpt lat="55.756878" lon="12.509865">
<ele>21.2</ele>
<time>2018-05-27T09:05:06Z</time>
<speed>23.9</speed>
</trkpt>
<trkpt lat="55.756923" lon="12.510238">
<ele>21.4</ele>
<time>2018-05-27T09:05:07Z</time>
<speed>23.6</speed>
</trkpt>
<trkpt lat="55.756977" lon="12.510599">
<ele>20.9</ele>
<time>2018-05-27T09:05:08Z</time>
<speed>23.3</speed>
</trkpt>
<trkpt lat="55.757036" lon="12.510960">
<ele>21.3</ele>
<time>2018-05-27T09:05:09Z</time>
<speed>23.1</speed>
</trkpt>
<trkpt lat="55.757097" lon="12.511305">
<ele>21.6</ele>
<time>2018-05-27T09:05:10Z</time>
<speed>22.8</speed>
</trkpt>
<trkpt lat="55.757157" lon="12.511651">
<ele>21.8</ele>
<time>2018-05-27T09:05:11Z</time>
<speed>22.8</speed>
</trkpt>
<trkpt lat="55.757232" lon="12.511984">
<ele>22.2</ele>
<time>2018-05-27T09:05:12Z</time>
<speed>22.5</speed>
</trkpt>
<trkpt lat="55.757312" lon="12.512337">
<ele>22.2</ele>
<time>2018-05-27T09:05:13Z</time>
<speed>22.5</speed>
</trkpt>
<trkpt lat="55.757388" lon="12.512655">
<ele>22.5</ele>
<time>2018-05-27T09:05:14Z</time>
<speed>22.5</speed>
</trkpt>
<trkpt lat="55.757469" lon="12.512991">
<ele>22.3</ele>
<time>2018-05-27T09:05:15Z</time>
<speed>22.8</speed>
</trkpt>
<trkpt lat="55.757556" lon="12.513328">
<ele>23.0</ele>
<time>2018-05-27T09:05:16Z</time>
<speed>22.8</speed>
</trkpt>
<trkpt lat="55.757653" lon="12.513637">
<ele>22.9</ele>
<time>2018-05-27T09:05:17Z</time>
<speed>22.8</speed>
</trkpt>
<trkpt lat="55.757749" lon="12.513962">
<ele>22.9</ele>
<time>2018-05-27T09:05:18Z</time>
<speed>22.8</speed>
</trkpt>
<trkpt lat="55.757846" lon="12.514271">
<ele>22.8</ele>
<time>2018-05-27T09:05:19Z</time>
<speed>22.8</speed>
</trkpt>
<trkpt lat="55.757968" lon="12.514588">
<ele>23.3</ele>
<time>2018-05-27T09:05:20Z</time>
<speed>22.8</speed>
</trkpt>
<trkpt lat="55.758079" lon="12.514885">
<ele>23.3</ele>
<time>2018-05-27T09:05:21Z</time>
<speed>22.8</speed>
</trkpt>
<trkpt lat="55.758192" lon="12.515166">
<ele>23.2</ele>
<time>2018-05-27T09:05:22Z</time>
<speed>22.2</speed>
</trkpt>
<trkpt lat="55.758317" lon="12.515451">
<ele>23.4</ele>
<time>2018-05-27T09:05:23Z</time>
<speed>22.2</speed>
</trkpt>
<trkpt lat="55.758442" lon="12.515736">
<ele>23.6</ele>
<time>2018-05-27T09:05:24Z</time>
<speed>22.2</speed>
</trkpt>
<trkpt lat="55.758576" lon="12.516009">
<ele>23.2</ele>
<time>2018-05-27T09:05:25Z</time>
<speed>22.5</speed>
</trkpt>
<trkpt lat="55.758710" lon="12.516282">
<ele>22.7</ele>
<time>2018-05-27T09:05:26Z</time>
<speed>22.5</speed>
</trkpt>
<trkpt lat="55.758850" lon="12.516539">
<ele>22.9</ele>
<time>2018-05-27T09:05:27Z</time>
<speed>22.2</speed>
</trkpt>
<trkpt lat="55.758992" lon="12.516781">
<ele>23.1</ele>
<time>2018-05-27T09:05:28Z</time>
<speed>22.2</speed>
</trkpt>
<trkpt lat="55.759140" lon="12.517042">
<ele>22.8</ele>
<time>2018-05-27T09:05:29Z</time>
<speed>21.9</speed>
</trkpt>
<trkpt lat="55.759279" lon="12.517268">
<ele>21.9</ele>
<time>2018-05-27T09:05:30Z</time>
<speed>21.9</speed>
</trkpt>
<trkpt lat="55.759436" lon="12.517483">
<ele>22.1</ele>
<time>2018-05-27T09:05:31Z</time>
<speed>21.9</speed>
</trkpt>
<trkpt lat="55.759607" lon="12.517719">
<ele>21.2</ele>
<time>2018-05-27T09:05:32Z</time>
<speed>23.1</speed>
</trkpt>
<trkpt lat="55.759784" lon="12.517940">
<ele>21.1</ele>
<time>2018-05-27T09:05:33Z</time>
<speed>22.8</speed>
</trkpt>
<trkpt lat="55.759954" lon="12.518158">
<ele>21.5</ele>
<time>2018-05-27T09:05:34Z</time>
<speed>22.8</speed>
</trkpt>
<trkpt lat="55.760121" lon="12.518360">
<ele>21.0</ele>
<time>2018-05-27T09:05:35Z</time>
<speed>22.8</speed>
</trkpt>
<trkpt lat="55.760287" lon="12.518562">
<ele>20.5</ele>
<time>2018-05-27T09:05:36Z</time>
<speed>22.8</speed>
</trkpt>
<trkpt lat="55.760453" lon="12.518745">
<ele>21.2</ele>
<time>2018-05-27T09:05:37Z</time>
<speed>22.5</speed>
</trkpt>
<trkpt lat="55.760614" lon="12.518928">
<ele>21.1</ele>
<time>2018-05-27T09:05:38Z</time>
<speed>22.2</speed>
</trkpt>
<trkpt lat="55.760789" lon="12.519099">
<ele>21.2</ele>
<time>2018-05-27T09:05:39Z</time>
<speed>21.9</speed>
</trkpt>
<trkpt lat="55.760965" lon="12.519236">
<ele>22.4</ele>
<time>2018-05-27T09:05:40Z</time>
<speed>21.4</speed>
</trkpt>
<trkpt lat="55.761143" lon="12.519376">
<ele>22.2</ele>
<time>2018-05-27T09:05:41Z</time>
<speed>21.4</speed>
</trkpt>
<trkpt lat="55.761322" lon="12.519500">
<ele>21.9</ele>
<time>2018-05-27T09:05:42Z</time>
<speed>21.1</speed>
</trkpt>
<trkpt lat="55.761502" lon="12.519624">
<ele>21.6</ele>
<time>2018-05-27T09:05:43Z</time>
<speed>21.1</speed>
</trkpt>
<trkpt lat="55.761688" lon="12.519733">
<ele>22.0</ele>
<time>2018-05-27T09:05:44Z</time>
<speed>21.1</speed>
</trkpt>
<trkpt lat="55.761875" lon="12.519842">
<ele>22.4</ele>
<time>2018-05-27T09:05:45Z</time>
<speed>21.4</speed>
</trkpt>
<trkpt lat="55.762612" lon="12.520327">
<ele>22.2</ele>
<time>2018-05-27T09:05:49Z</time>
<speed>22.2</speed>
</trkpt>
<trkpt lat="55.762832" lon="12.520431">
<ele>22.4</ele>
<time>2018-05-27T09:05:50Z</time>
<speed>22.5</speed>
</trkpt>
<trkpt lat="55.763236" lon="12.520659">
<ele>23.2</ele>
<time>2018-05-27T09:05:51Z</time>
<speed>22.8</speed>
</trkpt>
<trkpt lat="55.763444" lon="12.520759">
<ele>23.2</ele>
<time>2018-05-27T09:05:52Z</time>
<speed>22.8</speed>
</trkpt>
<trkpt lat="55.763641" lon="12.520887">
<ele>24.0</ele>
<time>2018-05-27T09:05:53Z</time>
<speed>23.1</speed>
</trkpt>
<trkpt lat="55.763844" lon="12.520999">
<ele>25.6</ele>
<time>2018-05-27T09:05:54Z</time>
<speed>23.3</speed>
</trkpt>
<trkpt lat="55.764043" lon="12.521112">
<ele>26.2</ele>
<time>2018-05-27T09:05:55Z</time>
<speed>23.3</speed>
</trkpt>
<trkpt lat="55.764247" lon="12.521243">
<ele>26.5</ele>
<time>2018-05-27T09:05:56Z</time>
<speed>23.3</speed>
</trkpt>
<trkpt lat="55.764444" lon="12.521371">
<ele>27.3</ele>
<time>2018-05-27T09:05:57Z</time>
<speed>23.3</speed>
</trkpt>
<trkpt lat="55.764634" lon="12.521495">
<ele>28.6</ele>
<time>2018-05-27T09:05:58Z</time>
<speed>22.8</speed>
</trkpt>
<trkpt lat="55.764815" lon="12.521651">
<ele>29.4</ele>
<time>2018-05-27T09:05:59Z</time>
<speed>22.2</speed>
</trkpt>
<trkpt lat="55.764998" lon="12.521791">
<ele>30.0</ele>
<time>2018-05-27T09:06:00Z</time>
<speed>22.2</speed>
</trkpt>
<trkpt lat="55.765181" lon="12.521930">
<ele>30.7</ele>
<time>2018-05-27T09:06:01Z</time>
<speed>22.5</speed>
</trkpt>
<trkpt lat="55.765363" lon="12.522086">
<ele>31.5</ele>
<time>2018-05-27T09:06:02Z</time>
<speed>22.8</speed>
</trkpt>
<trkpt lat="55.765549" lon="12.522241">
<ele>33.1</ele>
<time>2018-05-27T09:06:03Z</time>
<speed>22.8</speed>
</trkpt>
<trkpt lat="55.765732" lon="12.522381">
<ele>33.7</ele>
<time>2018-05-27T09:06:04Z</time>
<speed>23.1</speed>
</trkpt>
<trkpt lat="55.765921" lon="12.522540">
<ele>33.9</ele>
<time>2018-05-27T09:06:05Z</time>
<speed>23.1</speed>
</trkpt>
<trkpt lat="55.766113" lon="12.522668">
<ele>33.9</ele>
<time>2018-05-27T09:06:06Z</time>
<speed>23.1</speed>
</trkpt>
<trkpt lat="55.766305" lon="12.522796">
<ele>33.9</ele>
<time>2018-05-27T09:06:07Z</time>
<speed>22.5</speed>
</trkpt>
<trkpt lat="55.766493" lon="12.522908">
<ele>32.9</ele>
<time>2018-05-27T09:06:08Z</time>
<speed>22.2</speed>
</trkpt>
<trkpt lat="55.766680" lon="12.523017">
<ele>33.3</ele>
<time>2018-05-27T09:06:09Z</time>
<speed>21.9</speed>
</trkpt>
<trkpt lat="55.766870" lon="12.523114">
<ele>32.2</ele>
<time>2018-05-27T09:06:10Z</time>
<speed>21.9</speed>
</trkpt>
<trkpt lat="55.767067" lon="12.523195">
<ele>31.8</ele>
<time>2018-05-27T09:06:11Z</time>
<speed>22.5</speed>
</trkpt>
<trkpt lat="55.767268" lon="12.523276">
<ele>32.2</ele>
<time>2018-05-27T09:06:12Z</time>
<speed>22.8</speed>
</trkpt>
<trkpt lat="55.767465" lon="12.523357">
<ele>31.8</ele>
<time>2018-05-27T09:06:13Z</time>
<speed>22.8</speed>
</trkpt>
<trkpt lat="55.767670" lon="12.523408">
<ele>32.0</ele>
<time>2018-05-27T09:06:14Z</time>
<speed>23.3</speed>
</trkpt>
<trkpt lat="55.767877" lon="12.523461">
<ele>30.9</ele>
<time>2018-05-27T09:06:15Z</time>
<speed>23.3</speed>
</trkpt>
<trkpt lat="55.768090" lon="12.523515">
<ele>30.5</ele>
<time>2018-05-27T09:06:16Z</time>
<speed>23.3</speed>
</trkpt>
<trkpt lat="55.768304" lon="12.523553">
<ele>30.0</ele>
<time>2018-05-27T09:06:17Z</time>
<speed>23.6</speed>
</trkpt>
<trkpt lat="55.768519" lon="12.523575">
<ele>29.4</ele>
<time>2018-05-27T09:06:18Z</time>
<speed>24.2</speed>
</trkpt>
<trkpt lat="55.768738" lon="12.523585">
<ele>27.3</ele>
<time>2018-05-27T09:06:19Z</time>
<speed>24.2</speed>
</trkpt>
<trkpt lat="55.768955" lon="12.523592">
<ele>26.6</ele>
<time>2018-05-27T09:06:20Z</time>
<speed>24.2</speed>
</trkpt>
<trkpt lat="55.769173" lon="12.523599">
<ele>25.9</ele>
<time>2018-05-27T09:06:21Z</time>
<speed>23.9</speed>
</trkpt>
<trkpt lat="55.769385" lon="12.523606">
<ele>24.3</ele>
<time>2018-05-27T09:06:22Z</time>
<speed>23.9</speed>
</trkpt>
<trkpt lat="55.769594" lon="12.523609">
<ele>24.2</ele>
<time>2018-05-27T09:06:23Z</time>
<speed>23.6</speed>
</trkpt>
<trkpt lat="55.769805" lon="12.523632">
<ele>22.7</ele>
<time>2018-05-27T09:06:24Z</time>
<speed>23.3</speed>
</trkpt>
<trkpt lat="55.770015" lon="12.523635">
<ele>22.5</ele>
<time>2018-05-27T09:06:25Z</time>
<speed>23.3</speed>
</trkpt>
<trkpt lat="55.770223" lon="12.523654">
<ele>22.5</ele>
<time>2018-05-27T09:06:26Z</time>
<speed>23.1</speed>
</trkpt>
<trkpt lat="55.770431" lon="12.523673">
<ele>22.4</ele>
<time>2018-05-27T09:06:27Z</time>
<speed>22.8</speed>
</trkpt>
<trkpt lat="55.770634" lon="12.523692">
<ele>21.6</ele>
<time>2018-05-27T09:06:28Z</time>
<speed>22.5</speed>
</trkpt>
<trkpt lat="55.770834" lon="12.523723">
<ele>22.2</ele>
<time>2018-05-27T09:06:29Z</time>
<speed>22.2</speed>
</trkpt>
<trkpt lat="55.771035" lon="12.523739">
<ele>22.7</ele>
<time>2018-05-27T09:06:30Z</time>
<speed>22.2</speed>
</trkpt>
<trkpt lat="55.771241" lon="12.523773">
<ele>22.8</ele>
<time>2018-05-27T09:06:31Z</time>
<speed>22.5</speed>
</trkpt>
<trkpt lat="55.771441" lon="12.523804">
<ele>23.4</ele>
<time>2018-05-27T09:06:32Z</time>
<speed>22.5</speed>
</trkpt>
<trkpt lat="55.771635" lon="12.523836">
<ele>23.2</ele>
<time>2018-05-27T09:06:33Z</time>
<speed>22.8</speed>
</trkpt>
<trkpt lat="55.771847" lon="12.523870">
<ele>24.1</ele>
<time>2018-05-27T09:06:34Z</time>
<speed>23.1</speed>
</trkpt>
<trkpt lat="55.772055" lon="12.523889">
<ele>24.0</ele>
<time>2018-05-27T09:06:35Z</time>
<speed>23.1</speed>
</trkpt>
<trkpt lat="55.772262" lon="12.523924">
<ele>24.1</ele>
<time>2018-05-27T09:06:36Z</time>
<speed>23.3</speed>
</trkpt>
<trkpt lat="55.772463" lon="12.523958">
<ele>23.3</ele>
<time>2018-05-27T09:06:37Z</time>
<speed>23.3</speed>
</trkpt>
<trkpt lat="55.772676" lon="12.524012">
<ele>23.0</ele>
<time>2018-05-27T09:06:38Z</time>
<speed>23.3</speed>
</trkpt>
<trkpt lat="55.772887" lon="12.524046">
<ele>23.9</ele>
<time>2018-05-27T09:06:39Z</time>
<speed>23.3</speed>
</trkpt>
<trkpt lat="55.773094" lon="12.524081">
<ele>24.0</ele>
<time>2018-05-27T09:06:40Z</time>
<speed>23.3</speed>
</trkpt>
<trkpt lat="55.773302" lon="12.524100">
<ele>23.9</ele>
<time>2018-05-27T09:06:41Z</time>
<speed>23.1</speed>
</trkpt>
<trkpt lat="55.773514" lon="12.524134">
<ele>24.8</ele>
<time>2018-05-27T09:06:42Z</time>
<speed>23.3</speed>
</trkpt>
<trkpt lat="55.773720" lon="12.524169">
<ele>24.9</ele>
<time>2018-05-27T09:06:43Z</time>
<speed>23.3</speed>
</trkpt>
<trkpt lat="55.773927" lon="12.524203">
<ele>24.9</ele>
<time>2018-05-27T09:06:44Z</time>
<speed>23.1</speed>
</trkpt>
<trkpt lat="55.774134" lon="12.524238">
<ele>25.0</ele>
<time>2018-05-27T09:06:45Z</time>
<speed>23.1</speed>
</trkpt>
<trkpt lat="55.774340" lon="12.524272">
<ele>25.1</ele>
<time>2018-05-27T09:06:46Z</time>
<speed>22.5</speed>
</trkpt>
<trkpt lat="55.774538" lon="12.524319">
<ele>25.8</ele>
<time>2018-05-27T09:06:47Z</time>
<speed>22.2</speed>
</trkpt>
<trkpt lat="55.774743" lon="12.524369">
<ele>26.0</ele>
<time>2018-05-27T09:06:48Z</time>
<speed>22.5</speed>
</trkpt>
<trkpt lat="55.774941" lon="12.524416">
<ele>26.8</ele>
<time>2018-05-27T09:06:49Z</time>
<speed>22.2</speed>
</trkpt>
<trkpt lat="55.775144" lon="12.524482">
<ele>27.1</ele>
<time>2018-05-27T09:06:50Z</time>
<speed>22.2</speed>
</trkpt>
<trkpt lat="55.775355" lon="12.524551">
<ele>26.9</ele>
<time>2018-05-27T09:06:51Z</time>
<speed>23.1</speed>
</trkpt>
<trkpt lat="55.775552" lon="12.524632">
<ele>26.5</ele>
<time>2018-05-27T09:06:52Z</time>
<speed>23.1</speed>
</trkpt>
<trkpt lat="55.775759" lon="12.524713">
<ele>27.7</ele>
<time>2018-05-27T09:06:53Z</time>
<speed>23.1</speed>
</trkpt>
<trkpt lat="55.775960" lon="12.524794">
<ele>28.2</ele>
<time>2018-05-27T09:06:54Z</time>
<speed>23.1</speed>
</trkpt>
<trkpt lat="55.776161" lon="12.524891">
<ele>28.7</ele>
<time>2018-05-27T09:06:55Z</time>
<speed>23.1</speed>
</trkpt>
<trkpt lat="55.776362" lon="12.524972">
<ele>29.2</ele>
<time>2018-05-27T09:06:56Z</time>
<speed>22.5</speed>
</trkpt>
<trkpt lat="55.776562" lon="12.525050">
<ele>31.0</ele>
<time>2018-05-27T09:06:57Z</time>
<speed>22.2</speed>
</trkpt>
<trkpt lat="55.776769" lon="12.525131">
<ele>32.3</ele>
<time>2018-05-27T09:06:58Z</time>
<speed>22.2</speed>
</trkpt>
<trkpt lat="55.776966" lon="12.525212">
<ele>31.9</ele>
<time>2018-05-27T09:06:59Z</time>
<speed>22.2</speed>
</trkpt>
<trkpt lat="55.777160" lon="12.525290">
<ele>32.9</ele>
<time>2018-05-27T09:07:00Z</time>
<speed>22.2</speed>
</trkpt>
<trkpt lat="55.777362" lon="12.525371">
<ele>33.3</ele>
<time>2018-05-27T09:07:01Z</time>
<speed>22.8</speed>
</trkpt>
<trkpt lat="55.777569" lon="12.525453">
<ele>34.6</ele>
<time>2018-05-27T09:07:02Z</time>
<speed>23.1</speed>
</trkpt>
<trkpt lat="55.777772" lon="12.525518">
<ele>34.9</ele>
<time>2018-05-27T09:07:03Z</time>
<speed>23.3</speed>
</trkpt>
<trkpt lat="55.777981" lon="12.525603">
<ele>34.8</ele>
<time>2018-05-27T09:07:04Z</time>
<speed>23.6</speed>
</trkpt>
<trkpt lat="55.778195" lon="12.525688">
<ele>35.5</ele>
<time>2018-05-27T09:07:05Z</time>
<speed>23.6</speed>
</trkpt>
<trkpt lat="55.778410" lon="12.525772">
<ele>36.2</ele>
<time>2018-05-27T09:07:06Z</time>
<speed>24.2</speed>
</trkpt>
<trkpt lat="55.778624" lon="12.525857">
<ele>36.9</ele>
<time>2018-05-27T09:07:07Z</time>
<speed>24.2</speed>
</trkpt>
<trkpt lat="55.778838" lon="12.525942">
<ele>37.6</ele>
<time>2018-05-27T09:07:08Z</time>
<speed>24.2</speed>
</trkpt>
<trkpt lat="55.779053" lon="12.526011">
<ele>38.2</ele>
<time>2018-05-27T09:07:09Z</time>
<speed>24.2</speed>
</trkpt>
<trkpt lat="55.779268" lon="12.526096">
<ele>39.0</ele>
<time>2018-05-27T09:07:10Z</time>
<speed>24.2</speed>
</trkpt>
<trkpt lat="55.779482" lon="12.526180">
<ele>39.7</ele>
<time>2018-05-27T09:07:11Z</time>
<speed>24.4</speed>
</trkpt>
<trkpt lat="55.779710" lon="12.526253">
<ele>40.6</ele>
<time>2018-05-27T09:07:12Z</time>
<speed>24.7</speed>
</trkpt>
<trkpt lat="55.779924" lon="12.526338">
<ele>41.3</ele>
<time>2018-05-27T09:07:13Z</time>
<speed>24.7</speed>
</trkpt>
<trkpt lat="55.780145" lon="12.526426">
<ele>41.4</ele>
<time>2018-05-27T09:07:14Z</time>
<speed>24.7</speed>
</trkpt>
<trkpt lat="55.780368" lon="12.526498">
<ele>41.5</ele>
<time>2018-05-27T09:07:15Z</time>
<speed>24.7</speed>
</trkpt>
<trkpt lat="55.780589" lon="12.526586">
<ele>41.7</ele>
<time>2018-05-27T09:07:16Z</time>
<speed>24.4</speed>
</trkpt>
<trkpt lat="55.780805" lon="12.526656">
<ele>42.3</ele>
<time>2018-05-27T09:07:17Z</time>
<speed>23.9</speed>
</trkpt>
<trkpt lat="55.781014" lon="12.526740">
<ele>42.1</ele>
<time>2018-05-27T09:07:18Z</time>
<speed>23.3</speed>
</trkpt>
<trkpt lat="55.781223" lon="12.526825">
<ele>42.0</ele>
<time>2018-05-27T09:07:19Z</time>
<speed>23.1</speed>
</trkpt>
<trkpt lat="55.781427" lon="12.526891">
<ele>42.4</ele>
<time>2018-05-27T09:07:20Z</time>
<speed>23.1</speed>
</trkpt>
<trkpt lat="55.781629" lon="12.526972">
<ele>42.8</ele>
<time>2018-05-27T09:07:21Z</time>
<speed>22.5</speed>
</trkpt>
<trkpt lat="55.781827" lon="12.527038">
<ele>42.3</ele>
<time>2018-05-27T09:07:22Z</time>
<speed>21.9</speed>
</trkpt>
<trkpt lat="55.782030" lon="12.527103">
<ele>42.6</ele>
<time>2018-05-27T09:07:23Z</time>
<speed>21.9</speed>
</trkpt>
<trkpt lat="55.782220" lon="12.527181">
<ele>42.8</ele>
<time>2018-05-27T09:07:24Z</time>
<speed>21.7</speed>
</trkpt>
<trkpt lat="55.782418" lon="12.527247">
<ele>42.3</ele>
<time>2018-05-27T09:07:25Z</time>
<speed>21.7</speed>
</trkpt>
<trkpt lat="55.782609" lon="12.527309">
<ele>42.3</ele>
<time>2018-05-27T09:07:26Z</time>
<speed>21.7</speed>
</trkpt>
<trkpt lat="55.782799" lon="12.527387">
<ele>42.5</ele>
<time>2018-05-27T09:07:27Z</time>
<speed>21.7</speed>
</trkpt>
<trkpt lat="55.782990" lon="12.527449">
<ele>42.5</ele>
<time>2018-05-27T09:07:28Z</time>
<speed>21.7</speed>
</trkpt>
<trkpt lat="55.783181" lon="12.527511">
<ele>42.6</ele>
<time>2018-05-27T09:07:29Z</time>
<speed>21.9</speed>
</trkpt>
<trkpt lat="55.783383" lon="12.527592">
<ele>43.0</ele>
<time>2018-05-27T09:07:30Z</time>
<speed>21.9</speed>
</trkpt>
<trkpt lat="55.783593" lon="12.527662">
<ele>42.8</ele>
<time>2018-05-27T09:07:31Z</time>
<speed>23.1</speed>
</trkpt>
<trkpt lat="55.783804" lon="12.527731">
<ele>42.5</ele>
<time>2018-05-27T09:07:32Z</time>
<speed>23.6</speed>
</trkpt>
<trkpt lat="55.784015" lon="12.527819">
<ele>41.1</ele>
<time>2018-05-27T09:07:33Z</time>
<speed>24.2</speed>
</trkpt>
<trkpt lat="55.784231" lon="12.527888">
<ele>41.7</ele>
<time>2018-05-27T09:07:34Z</time>
<speed>24.7</speed>
</trkpt>
<trkpt lat="55.784447" lon="12.527976">
<ele>41.0</ele>
<time>2018-05-27T09:07:35Z</time>
<speed>24.7</speed>
</trkpt>
<trkpt lat="55.784669" lon="12.528064">
<ele>41.2</ele>
<time>2018-05-27T09:07:36Z</time>
<speed>24.4</speed>
</trkpt>
<trkpt lat="55.784883" lon="12.528149">
<ele>41.9</ele>
<time>2018-05-27T09:07:37Z</time>
<speed>24.4</speed>
</trkpt>
<trkpt lat="55.785106" lon="12.528222">
<ele>41.9</ele>
<time>2018-05-27T09:07:38Z</time>
<speed>24.2</speed>
</trkpt>
<trkpt lat="55.785316" lon="12.528291">
<ele>41.7</ele>
<time>2018-05-27T09:07:39Z</time>
<speed>23.9</speed>
</trkpt>
<trkpt lat="55.785525" lon="12.528375">
<ele>41.6</ele>
<time>2018-05-27T09:07:40Z</time>
<speed>23.9</speed>
</trkpt>
<trkpt lat="55.785736" lon="12.528445">
<ele>41.4</ele>
<time>2018-05-27T09:07:41Z</time>
<speed>23.6</speed>
</trkpt>
<trkpt lat="55.785940" lon="12.528529">
<ele>40.5</ele>
<time>2018-05-27T09:07:42Z</time>
<speed>23.3</speed>
</trkpt>
<trkpt lat="55.786144" lon="12.528595">
<ele>40.8</ele>
<time>2018-05-27T09:07:43Z</time>
<speed>22.8</speed>
</trkpt>
<trkpt lat="55.786337" lon="12.528661">
<ele>39.4</ele>
<time>2018-05-27T09:07:44Z</time>
<speed>22.5</speed>
</trkpt>
<trkpt lat="55.786537" lon="12.528711">
<ele>38.8</ele>
<time>2018-05-27T09:07:45Z</time>
<speed>22.5</speed>
</trkpt>
<trkpt lat="55.786734" lon="12.528792">
<ele>38.4</ele>
<time>2018-05-27T09:07:46Z</time>
<speed>22.2</speed>
</trkpt>
<trkpt lat="55.786928" lon="12.528870">
<ele>39.4</ele>
<time>2018-05-27T09:07:47Z</time>
<speed>21.9</speed>
</trkpt>
<trkpt lat="55.787127" lon="12.528936">
<ele>38.9</ele>
<time>2018-05-27T09:07:48Z</time>
<speed>21.9</speed>
</trkpt>
<trkpt lat="55.787330" lon="12.529001">
<ele>39.2</ele>
<time>2018-05-27T09:07:49Z</time>
<speed>22.2</speed>
</trkpt>
<trkpt lat="55.787527" lon="12.529083">
<ele>38.9</ele>
<time>2018-05-27T09:07:50Z</time>
<speed>22.2</speed>
</trkpt>
<trkpt lat="55.787730" lon="12.529148">
<ele>39.2</ele>
<time>2018-05-27T09:07:51Z</time>
<speed>22.5</speed>
</trkpt>
<trkpt lat="55.787920" lon="12.529226">
<ele>39.3</ele>
<time>2018-05-27T09:07:52Z</time>
<speed>22.2</speed>
</trkpt>
<trkpt lat="55.788124" lon="12.529311">
<ele>38.4</ele>
<time>2018-05-27T09:07:53Z</time>
<speed>23.1</speed>
</trkpt>
<trkpt lat="55.788327" lon="12.529377">
<ele>38.7</ele>
<time>2018-05-27T09:07:54Z</time>
<speed>23.1</speed>
</trkpt>
<trkpt lat="55.788538" lon="12.529446">
<ele>38.5</ele>
<time>2018-05-27T09:07:55Z</time>
<speed>23.1</speed>
</trkpt>
<trkpt lat="55.788741" lon="12.529511">
<ele>38.8</ele>
<time>2018-05-27T09:07:56Z</time>
<speed>23.3</speed>
</trkpt>
<trkpt lat="55.788950" lon="12.529596">
<ele>38.7</ele>
<time>2018-05-27T09:07:57Z</time>
<speed>23.3</speed>
</trkpt>
<trkpt lat="55.789154" lon="12.529662">
<ele>39.0</ele>
<time>2018-05-27T09:07:58Z</time>
<speed>23.6</speed>
</trkpt>
<trkpt lat="55.789368" lon="12.529747">
<ele>39.8</ele>
<time>2018-05-27T09:07:59Z</time>
<speed>23.9</speed>
</trkpt>
<trkpt lat="55.789578" lon="12.529816">
<ele>39.5</ele>
<time>2018-05-27T09:08:00Z</time>
<speed>23.9</speed>
</trkpt>
<trkpt lat="55.789782" lon="12.529900">
<ele>38.6</ele>
<time>2018-05-27T09:08:01Z</time>
<speed>23.9</speed>
</trkpt>
<trkpt lat="55.789983" lon="12.529970">
<ele>36.7</ele>
<time>2018-05-27T09:08:02Z</time>
<speed>23.9</speed>
</trkpt>
<trkpt lat="55.790192" lon="12.530054">
<ele>36.6</ele>
<time>2018-05-27T09:08:03Z</time>
<speed>23.6</speed>
</trkpt>
<trkpt lat="55.790396" lon="12.530139">
<ele>35.7</ele>
<time>2018-05-27T09:08:04Z</time>
<speed>23.6</speed>
</trkpt>
<trkpt lat="55.790607" lon="12.530208">
<ele>35.5</ele>
<time>2018-05-27T09:08:05Z</time>
<speed>23.6</speed>
</trkpt>
<trkpt lat="55.790816" lon="12.530293">
<ele>35.4</ele>
<time>2018-05-27T09:08:06Z</time>
<speed>23.6</speed>
</trkpt>
<trkpt lat="55.791025" lon="12.530378">
<ele>35.3</ele>
<time>2018-05-27T09:08:07Z</time>
<speed>23.3</speed>
</trkpt>
<trkpt lat="55.791228" lon="12.530443">
<ele>35.6</ele>
<time>2018-05-27T09:08:08Z</time>
<speed>23.1</speed>
</trkpt>
<trkpt lat="55.791432" lon="12.530528">
<ele>34.7</ele>
<time>2018-05-27T09:08:09Z</time>
<speed>22.8</speed>
</trkpt>
<trkpt lat="55.791635" lon="12.530594">
<ele>35.0</ele>
<time>2018-05-27T09:08:10Z</time>
<speed>22.8</speed>
</trkpt>
<trkpt lat="55.791837" lon="12.530675">
<ele>35.4</ele>
<time>2018-05-27T09:08:11Z</time>
<speed>22.8</speed>
</trkpt>
<trkpt lat="55.792034" lon="12.530756">
<ele>35.0</ele>
<time>2018-05-27T09:08:12Z</time>
<speed>22.8</speed>
</trkpt>
<trkpt lat="55.792245" lon="12.530826">
<ele>34.8</ele>
<time>2018-05-27T09:08:13Z</time>
<speed>22.8</speed>
</trkpt>
<trkpt lat="55.792446" lon="12.530907">
<ele>35.3</ele>
<time>2018-05-27T09:08:14Z</time>
<speed>23.1</speed>
</trkpt>
<trkpt lat="55.792655" lon="12.530973">
<ele>36.4</ele>
<time>2018-05-27T09:08:15Z</time>
<speed>23.1</speed>
</trkpt>
<trkpt lat="55.792869" lon="12.531057">
<ele>37.1</ele>
<time>2018-05-27T09:08:16Z</time>
<speed>23.9</speed>
</trkpt>
<trkpt lat="55.793078" lon="12.531142">
<ele>37.0</ele>
<time>2018-05-27T09:08:17Z</time>
<speed>23.9</speed>
</trkpt>
<trkpt lat="55.793294" lon="12.531211">
<ele>37.6</ele>
<time>2018-05-27T09:08:18Z</time>
<speed>23.9</speed>
</trkpt>
<trkpt lat="55.793513" lon="12.531296">
<ele>39.2</ele>
<time>2018-05-27T09:08:19Z</time>
<speed>23.9</speed>
</trkpt>
<trkpt lat="55.793734" lon="12.531384">
<ele>39.4</ele>
<time>2018-05-27T09:08:20Z</time>
<speed>23.9</speed>
</trkpt>
<trkpt lat="55.793943" lon="12.531450">
<ele>40.5</ele>
<time>2018-05-27T09:08:21Z</time>
<speed>23.6</speed>
</trkpt>
<trkpt lat="55.794152" lon="12.531535">
<ele>40.4</ele>
<time>2018-05-27T09:08:22Z</time>
<speed>23.3</speed>
</trkpt>
<trkpt lat="55.794361" lon="12.531619">
<ele>40.3</ele>
<time>2018-05-27T09:08:23Z</time>
<speed>23.1</speed>
</trkpt>
<trkpt lat="55.794564" lon="12.531685">
<ele>40.6</ele>
<time>2018-05-27T09:08:24Z</time>
<speed>22.8</speed>
</trkpt>
<trkpt lat="55.794766" lon="12.531766">
<ele>41.1</ele>
<time>2018-05-27T09:08:25Z</time>
<speed>22.8</speed>
</trkpt>
<trkpt lat="55.794969" lon="12.531832">
<ele>41.4</ele>
<time>2018-05-27T09:08:26Z</time>
<speed>22.5</speed>
</trkpt>
<trkpt lat="55.795176" lon="12.531913">
<ele>42.7</ele>
<time>2018-05-27T09:08:27Z</time>
<speed>22.5</speed>
</trkpt>
<trkpt lat="55.795373" lon="12.531995">
<ele>42.3</ele>
<time>2018-05-27T09:08:28Z</time>
<speed>22.2</speed>
</trkpt>
<trkpt lat="55.795569" lon="12.532057">
<ele>43.2</ele>
<time>2018-05-27T09:08:29Z</time>
<speed>22.2</speed>
</trkpt>
<trkpt lat="55.795771" lon="12.532138">
<ele>43.6</ele>
<time>2018-05-27T09:08:30Z</time>
<speed>22.2</speed>
</trkpt>
<trkpt lat="55.795968" lon="12.532220">
<ele>43.2</ele>
<time>2018-05-27T09:08:31Z</time>
<speed>22.5</speed>
</trkpt>
<trkpt lat="55.796170" lon="12.532301">
<ele>43.7</ele>
<time>2018-05-27T09:08:32Z</time>
<speed>22.5</speed>
</trkpt>
<trkpt lat="55.796368" lon="12.532367">
<ele>43.2</ele>
<time>2018-05-27T09:08:33Z</time>
<speed>22.5</speed>
</trkpt>
<trkpt lat="55.796565" lon="12.532448">
<ele>42.8</ele>
<time>2018-05-27T09:08:34Z</time>
<speed>22.8</speed>
</trkpt>
<trkpt lat="55.796766" lon="12.532529">
<ele>43.3</ele>
<time>2018-05-27T09:08:35Z</time>
<speed>22.8</speed>
</trkpt>
<trkpt lat="55.796965" lon="12.532595">
<ele>42.8</ele>
<time>2018-05-27T09:08:36Z</time>
<speed>23.1</speed>
</trkpt>
<trkpt lat="55.797174" lon="12.532680">
<ele>42.7</ele>
<time>2018-05-27T09:08:37Z</time>
<speed>23.1</speed>
</trkpt>
<trkpt lat="55.797372" lon="12.532746">
<ele>42.2</ele>
<time>2018-05-27T09:08:38Z</time>
<speed>23.1</speed>
</trkpt>
<trkpt lat="55.797574" lon="12.532827">
<ele>42.6</ele>
<time>2018-05-27T09:08:39Z</time>
<speed>22.8</speed>
</trkpt>
<trkpt lat="55.797780" lon="12.532896">
<ele>41.6</ele>
<time>2018-05-27T09:08:40Z</time>
<speed>22.8</speed>
</trkpt>
<trkpt lat="55.797976" lon="12.532977">
<ele>41.2</ele>
<time>2018-05-27T09:08:41Z</time>
<speed>23.1</speed>
</trkpt>
<trkpt lat="55.798187" lon="12.533047">
<ele>41.0</ele>
<time>2018-05-27T09:08:42Z</time>
<speed>23.3</speed>
</trkpt>
<trkpt lat="55.798393" lon="12.533116">
<ele>39.9</ele>
<time>2018-05-27T09:08:43Z</time>
<speed>23.3</speed>
</trkpt>
<trkpt lat="55.798597" lon="12.533200">
<ele>39.0</ele>
<time>2018-05-27T09:08:44Z</time>
<speed>23.6</speed>
</trkpt>
<trkpt lat="55.798807" lon="12.533270">
<ele>38.8</ele>
<time>2018-05-27T09:08:45Z</time>
<speed>23.6</speed>
</trkpt>
<trkpt lat="55.799014" lon="12.533323">
<ele>37.6</ele>
<time>2018-05-27T09:08:46Z</time>
<speed>23.9</speed>
</trkpt>
<trkpt lat="55.799234" lon="12.533380">
<ele>36.7</ele>
<time>2018-05-27T09:08:47Z</time>
<speed>24.4</speed>
</trkpt>
<trkpt lat="55.799448" lon="12.533438">
<ele>35.0</ele>
<time>2018-05-27T09:08:48Z</time>
<speed>24.2</speed>
</trkpt>
<trkpt lat="55.799662" lon="12.533476">
<ele>34.5</ele>
<time>2018-05-27T09:08:49Z</time>
<speed>23.9</speed>
</trkpt>
<trkpt lat="55.799884" lon="12.533517">
<ele>33.5</ele>
<time>2018-05-27T09:08:50Z</time>
<speed>23.9</speed>
</trkpt>
<trkpt lat="55.800087" lon="12.533536">
<ele>32.6</ele>
<time>2018-05-27T09:08:51Z</time>
<speed>23.6</speed>
</trkpt>
<trkpt lat="55.800297" lon="12.533559">
<ele>31.2</ele>
<time>2018-05-27T09:08:52Z</time>
<speed>23.3</speed>
</trkpt>
<trkpt lat="55.800505" lon="12.533578">
<ele>31.2</ele>
<time>2018-05-27T09:08:53Z</time>
<speed>23.3</speed>
</trkpt>
<trkpt lat="55.800714" lon="12.533597">
<ele>31.1</ele>
<time>2018-05-27T09:08:54Z</time>
<speed>23.3</speed>
</trkpt>
<trkpt lat="55.800931" lon="12.533604">
<ele>30.4</ele>
<time>2018-05-27T09:08:55Z</time>
<speed>23.3</speed>
</trkpt>
<trkpt lat="55.801141" lon="12.533607">
<ele>30.3</ele>
<time>2018-05-27T09:08:56Z</time>
<speed>23.9</speed>
</trkpt>
<trkpt lat="55.801357" lon="12.533595">
<ele>30.8</ele>
<time>2018-05-27T09:08:57Z</time>
<speed>23.9</speed>
</trkpt>
<trkpt lat="55.801569" lon="12.533583">
<ele>30.5</ele>
<time>2018-05-27T09:08:58Z</time>
<speed>23.6</speed>
</trkpt>
<trkpt lat="55.801787" lon="12.533555">
<ele>30.9</ele>
<time>2018-05-27T09:08:59Z</time>
<speed>23.6</speed>
</trkpt>
<trkpt lat="55.801986" lon="12.533540">
<ele>30.4</ele>
<time>2018-05-27T09:09:00Z</time>
<speed>23.6</speed>
</trkpt>
<trkpt lat="55.802200" lon="12.533531">
<ele>28.7</ele>
<time>2018-05-27T09:09:01Z</time>
<speed>23.3</speed>
</trkpt>
<trkpt lat="55.802408" lon="12.533504">
<ele>27.5</ele>
<time>2018-05-27T09:09:02Z</time>
<speed>23.1</speed>
</trkpt>
<trkpt lat="55.802607" lon="12.533488">
<ele>26.9</ele>
<time>2018-05-27T09:09:03Z</time>
<speed>22.8</speed>
</trkpt>
<trkpt lat="55.802808" lon="12.533457">
<ele>26.3</ele>
<time>2018-05-27T09:09:04Z</time>
<speed>22.5</speed>
</trkpt>
<trkpt lat="55.803012" lon="12.533441">
<ele>26.5</ele>
<time>2018-05-27T09:09:05Z</time>
<speed>22.5</speed>
</trkpt>
<trkpt lat="55.803213" lon="12.533410">
<ele>25.8</ele>
<time>2018-05-27T09:09:06Z</time>
<speed>22.2</speed>
</trkpt>
<trkpt lat="55.803412" lon="12.533395">
<ele>25.3</ele>
<time>2018-05-27T09:09:07Z</time>
<speed>22.2</speed>
</trkpt>
<trkpt lat="55.803616" lon="12.533379">
<ele>25.5</ele>
<time>2018-05-27T09:09:08Z</time>
<speed>22.2</speed>
</trkpt>
<trkpt lat="55.803809" lon="12.533345">
<ele>25.4</ele>
<time>2018-05-27T09:09:09Z</time>
<speed>22.2</speed>
</trkpt>
<trkpt lat="55.804014" lon="12.533329">
<ele>25.7</ele>
<time>2018-05-27T09:09:10Z</time>
<speed>22.2</speed>
</trkpt>
<trkpt lat="55.804218" lon="12.533314">
<ele>25.9</ele>
<time>2018-05-27T09:09:11Z</time>
<speed>22.8</speed>
</trkpt>
<trkpt lat="55.804424" lon="12.533282">
<ele>26.1</ele>
<time>2018-05-27T09:09:12Z</time>
<speed>23.1</speed>
</trkpt>
<trkpt lat="55.804635" lon="12.533270">
<ele>25.8</ele>
<time>2018-05-27T09:09:13Z</time>
<speed>23.1</speed>
</trkpt>
<trkpt lat="55.804841" lon="12.533239">
<ele>26.0</ele>
<time>2018-05-27T09:09:14Z</time>
<speed>23.3</speed>
</trkpt>
<trkpt lat="55.805058" lon="12.533227">
<ele>26.5</ele>
<time>2018-05-27T09:09:15Z</time>
<speed>23.3</speed>
</trkpt>
<trkpt lat="55.805271" lon="12.533199">
<ele>26.1</ele>
<time>2018-05-27T09:09:16Z</time>
<speed>23.3</speed>
</trkpt>
<trkpt lat="55.805482" lon="12.533187">
<ele>25.8</ele>
<time>2018-05-27T09:09:17Z</time>
<speed>23.1</speed>
</trkpt>
<trkpt lat="55.805688" lon="12.533156">
<ele>26.0</ele>
<time>2018-05-27T09:09:18Z</time>
<speed>22.8</speed>
</trkpt>
<trkpt lat="55.805887" lon="12.533141">
<ele>25.4</ele>
<time>2018-05-27T09:09:19Z</time>
<speed>22.5</speed>
</trkpt>
<trkpt lat="55.806081" lon="12.533106">
<ele>25.3</ele>
<time>2018-05-27T09:09:20Z</time>
<speed>22.5</speed>
</trkpt>
<trkpt lat="55.806281" lon="12.533075">
<ele>24.6</ele>
<time>2018-05-27T09:09:21Z</time>
<speed>22.5</speed>
</trkpt>
<trkpt lat="55.806482" lon="12.533044">
<ele>23.9</ele>
<time>2018-05-27T09:09:22Z</time>
<speed>22.5</speed>
</trkpt>
<trkpt lat="55.806677" lon="12.532994">
<ele>23.7</ele>
<time>2018-05-27T09:09:23Z</time>
<speed>22.5</speed>
</trkpt>
<trkpt lat="55.806880" lon="12.532947">
<ele>22.9</ele>
<time>2018-05-27T09:09:24Z</time>
<speed>22.8</speed>
</trkpt>
<trkpt lat="55.807076" lon="12.532881">
<ele>22.5</ele>
<time>2018-05-27T09:09:25Z</time>
<speed>22.8</speed>
</trkpt>
<trkpt lat="55.807285" lon="12.532819">
<ele>22.4</ele>
<time>2018-05-27T09:09:26Z</time>
<speed>23.1</speed>
</trkpt>
<trkpt lat="55.807489" lon="12.532738">
<ele>22.7</ele>
<time>2018-05-27T09:09:27Z</time>
<speed>23.1</speed>
</trkpt>
<trkpt lat="55.807691" lon="12.532672">
<ele>23.2</ele>
<time>2018-05-27T09:09:28Z</time>
<speed>23.1</speed>
</trkpt>
<trkpt lat="55.807889" lon="12.532591">
<ele>22.7</ele>
<time>2018-05-27T09:09:29Z</time>
<speed>22.8</speed>
</trkpt>
<trkpt lat="55.808087" lon="12.532491">
<ele>23.4</ele>
<time>2018-05-27T09:09:30Z</time>
<speed>22.8</speed>
</trkpt>
<trkpt lat="55.808278" lon="12.532406">
<ele>23.5</ele>
<time>2018-05-27T09:09:31Z</time>
<speed>22.5</speed>
</trkpt>
<trkpt lat="55.808469" lon="12.532321">
<ele>23.5</ele>
<time>2018-05-27T09:09:32Z</time>
<speed>22.2</speed>
</trkpt>
<trkpt lat="55.808657" lon="12.532221">
<ele>22.6</ele>
<time>2018-05-27T09:09:33Z</time>
<speed>22.2</speed>
</trkpt>
<trkpt lat="55.808842" lon="12.532117">
<ele>23.1</ele>
<time>2018-05-27T09:09:34Z</time>
<speed>21.9</speed>
</trkpt>
<trkpt lat="55.809030" lon="12.532017">
<ele>22.2</ele>
<time>2018-05-27T09:09:35Z</time>
<speed>21.9</speed>
</trkpt>
<trkpt lat="55.809215" lon="12.531913">
<ele>22.7</ele>
<time>2018-05-27T09:09:36Z</time>
<speed>21.9</speed>
</trkpt>
<trkpt lat="55.809401" lon="12.531809">
<ele>23.2</ele>
<time>2018-05-27T09:09:37Z</time>
<speed>21.7</speed>
</trkpt>
<trkpt lat="55.809594" lon="12.531709">
<ele>23.1</ele>
<time>2018-05-27T09:09:38Z</time>
<speed>21.7</speed>
</trkpt>
<trkpt lat="55.809772" lon="12.531621">
<ele>22.9</ele>
<time>2018-05-27T09:09:39Z</time>
<speed>21.7</speed>
</trkpt>
<trkpt lat="55.809965" lon="12.531520">
<ele>22.8</ele>
<time>2018-05-27T09:09:40Z</time>
<speed>21.7</speed>
</trkpt>
<trkpt lat="55.810151" lon="12.531416">
<ele>23.3</ele>
<time>2018-05-27T09:09:41Z</time>
<speed>21.4</speed>
</trkpt>
<trkpt lat="55.810331" lon="12.531313">
<ele>22.9</ele>
<time>2018-05-27T09:09:42Z</time>
<speed>21.4</speed>
</trkpt>
<trkpt lat="55.810516" lon="12.531209">
<ele>23.4</ele>
<time>2018-05-27T09:09:43Z</time>
<speed>21.4</speed>
</trkpt>
<trkpt lat="55.810704" lon="12.531109">
<ele>22.5</ele>
<time>2018-05-27T09:09:44Z</time>
<speed>21.7</speed>
</trkpt>
<trkpt lat="55.810890" lon="12.531005">
<ele>23.0</ele>
<time>2018-05-27T09:09:45Z</time>
<speed>21.7</speed>
</trkpt>
<trkpt lat="55.811087" lon="12.530904">
<ele>23.7</ele>
<time>2018-05-27T09:09:46Z</time>
<speed>22.5</speed>
</trkpt>
<trkpt lat="55.811280" lon="12.530804">
<ele>23.7</ele>
<time>2018-05-27T09:09:47Z</time>
<speed>22.5</speed>
</trkpt>
<trkpt lat="55.811479" lon="12.530688">
<ele>24.3</ele>
<time>2018-05-27T09:09:48Z</time>
<speed>22.8</speed>
</trkpt>
<trkpt lat="55.811672" lon="12.530588">
<ele>24.2</ele>
<time>2018-05-27T09:09:49Z</time>
<speed>22.5</speed>
</trkpt>
<trkpt lat="55.811865" lon="12.530488">
<ele>24.2</ele>
<time>2018-05-27T09:09:50Z</time>
<speed>22.5</speed>
</trkpt>
<trkpt lat="55.812064" lon="12.530372">
<ele>24.8</ele>
<time>2018-05-27T09:09:51Z</time>
<speed>22.2</speed>
</trkpt>
<trkpt lat="55.812257" lon="12.530271">
<ele>24.7</ele>
<time>2018-05-27T09:09:52Z</time>
<speed>22.2</speed>
</trkpt>
<trkpt lat="55.812450" lon="12.530171">
<ele>24.7</ele>
<time>2018-05-27T09:09:53Z</time>
<speed>22.2</speed>
</trkpt>
<trkpt lat="55.812648" lon="12.530071">
<ele>25.4</ele>
<time>2018-05-27T09:09:54Z</time>
<speed>22.2</speed>
</trkpt>
<trkpt lat="55.812833" lon="12.529967">
<ele>25.9</ele>
<time>2018-05-27T09:09:55Z</time>
<speed>22.2</speed>
</trkpt>
<trkpt lat="55.813026" lon="12.529867">
<ele>25.8</ele>
<time>2018-05-27T09:09:56Z</time>
<speed>22.5</speed>
</trkpt>
<trkpt lat="55.813218" lon="12.529766">
<ele>25.8</ele>
<time>2018-05-27T09:09:57Z</time>
<speed>22.5</speed>
</trkpt>
<trkpt lat="55.813413" lon="12.529650">
<ele>25.6</ele>
<time>2018-05-27T09:09:58Z</time>
<speed>22.5</speed>
</trkpt>
<trkpt lat="55.813611" lon="12.529550">
<ele>26.3</ele>
<time>2018-05-27T09:09:59Z</time>
<speed>22.8</speed>
</trkpt>
<trkpt lat="55.813805" lon="12.529434">
<ele>26.2</ele>
<time>2018-05-27T09:10:00Z</time>
<speed>22.8</speed>
</trkpt>
<trkpt lat="55.813998" lon="12.529334">
<ele>26.1</ele>
<time>2018-05-27T09:10:01Z</time>
<speed>22.8</speed>
</trkpt>
<trkpt lat="55.814203" lon="12.529237">
<ele>26.3</ele>
<time>2018-05-27T09:10:02Z</time>
<speed>22.8</speed>
</trkpt>
<trkpt lat="55.814397" lon="12.529121">
<ele>26.1</ele>
<time>2018-05-27T09:10:03Z</time>
<speed>23.1</speed>
</trkpt>
<trkpt lat="55.814595" lon="12.529021">
<ele>26.9</ele>
<time>2018-05-27T09:10:04Z</time>
<speed>23.1</speed>
</trkpt>
<trkpt lat="55.814800" lon="12.528924">
<ele>27.1</ele>
<time>2018-05-27T09:10:05Z</time>
<speed>23.1</speed>
</trkpt>
<trkpt lat="55.814994" lon="12.528808">
<ele>26.9</ele>
<time>2018-05-27T09:10:06Z</time>
<speed>22.8</speed>
</trkpt>
<trkpt lat="55.815192" lon="12.528707">
<ele>27.6</ele>
<time>2018-05-27T09:10:07Z</time>
<speed>23.1</speed>
</trkpt>
<trkpt lat="55.815386" lon="12.528591">
<ele>27.5</ele>
<time>2018-05-27T09:10:08Z</time>
<speed>23.1</speed>
</trkpt>
<trkpt lat="55.815584" lon="12.528491">
<ele>28.2</ele>
<time>2018-05-27T09:10:09Z</time>
<speed>23.1</speed>
</trkpt>
<trkpt lat="55.815784" lon="12.528394">
<ele>27.6</ele>
<time>2018-05-27T09:10:10Z</time>
<speed>23.1</speed>
</trkpt>
<trkpt lat="55.815978" lon="12.528278">
<ele>27.4</ele>
<time>2018-05-27T09:10:11Z</time>
<speed>23.1</speed>
</trkpt>
<trkpt lat="55.816176" lon="12.528178">
<ele>28.2</ele>
<time>2018-05-27T09:10:12Z</time>
<speed>23.1</speed>
</trkpt>
<trkpt lat="55.816378" lon="12.528065">
<ele>27.4</ele>
<time>2018-05-27T09:10:13Z</time>
<speed>23.1</speed>
</trkpt>
<trkpt lat="55.816575" lon="12.527965">
<ele>28.2</ele>
<time>2018-05-27T09:10:14Z</time>
<speed>23.1</speed>
</trkpt>
<trkpt lat="55.816775" lon="12.527868">
<ele>27.6</ele>
<time>2018-05-27T09:10:15Z</time>
<speed>23.1</speed>
</trkpt>
<trkpt lat="55.816975" lon="12.527752">
<ele>28.2</ele>
<time>2018-05-27T09:10:16Z</time>
<speed>23.3</speed>
</trkpt>
<trkpt lat="55.817180" lon="12.527655">
<ele>28.4</ele>
<time>2018-05-27T09:10:17Z</time>
<speed>23.3</speed>
</trkpt>
<trkpt lat="55.817386" lon="12.527543">
<ele>28.5</ele>
<time>2018-05-27T09:10:18Z</time>
<speed>23.6</speed>
</trkpt>
<trkpt lat="55.817586" lon="12.527427">
<ele>29.2</ele>
<time>2018-05-27T09:10:19Z</time>
<speed>23.6</speed>
</trkpt>
<trkpt lat="55.817791" lon="12.527330">
<ele>29.4</ele>
<time>2018-05-27T09:10:20Z</time>
<speed>23.6</speed>
</trkpt>
<trkpt lat="55.818005" lon="12.527221">
<ele>28.9</ele>
<time>2018-05-27T09:10:21Z</time>
<speed>23.9</speed>
</trkpt>
<trkpt lat="55.818205" lon="12.527124">
<ele>28.3</ele>
<time>2018-05-27T09:10:22Z</time>
<speed>24.2</speed>
</trkpt>
<trkpt lat="55.818419" lon="12.527015">
<ele>27.8</ele>
<time>2018-05-27T09:10:23Z</time>
<speed>24.2</speed>
</trkpt>
<trkpt lat="55.818631" lon="12.526922">
<ele>27.5</ele>
<time>2018-05-27T09:10:24Z</time>
<speed>24.4</speed>
</trkpt>
<trkpt lat="55.818841" lon="12.526844">
<ele>27.3</ele>
<time>2018-05-27T09:10:25Z</time>
<speed>24.4</speed>
</trkpt>
<trkpt lat="55.819059" lon="12.526769">
<ele>26.5</ele>
<time>2018-05-27T09:10:26Z</time>
<speed>25.0</speed>
</trkpt>
<trkpt lat="55.819285" lon="12.526698">
<ele>25.2</ele>
<time>2018-05-27T09:10:27Z</time>
<speed>25.3</speed>
</trkpt>
<trkpt lat="55.819515" lon="12.526627">
<ele>24.7</ele>
<time>2018-05-27T09:10:28Z</time>
<speed>25.3</speed>
</trkpt>
<trkpt lat="55.819738" lon="12.526572">
<ele>23.5</ele>
<time>2018-05-27T09:10:29Z</time>
<speed>25.0</speed>
</trkpt>
<trkpt lat="55.819960" lon="12.526513">
<ele>23.7</ele>
<time>2018-05-27T09:10:30Z</time>
<speed>25.0</speed>
</trkpt>
<trkpt lat="55.820182" lon="12.526473">
<ele>22.7</ele>
<time>2018-05-27T09:10:31Z</time>
<speed>24.7</speed>
</trkpt>
<trkpt lat="55.820404" lon="12.526434">
<ele>21.6</ele>
<time>2018-05-27T09:10:32Z</time>
<speed>24.4</speed>
</trkpt>
<trkpt lat="55.820618" lon="12.526390">
<ele>21.1</ele>
<time>2018-05-27T09:10:33Z</time>
<speed>24.2</speed>
</trkpt>
<trkpt lat="55.820839" lon="12.526366">
<ele>20.1</ele>
<time>2018-05-27T09:10:34Z</time>
<speed>23.9</speed>
</trkpt>
<trkpt lat="55.821052" lon="12.526338">
<ele>19.7</ele>
<time>2018-05-27T09:10:35Z</time>
<speed>23.9</speed>
</trkpt>
<trkpt lat="55.821258" lon="12.526326">
<ele>18.6</ele>
<time>2018-05-27T09:10:36Z</time>
<speed>23.1</speed>
</trkpt>
<trkpt lat="55.821457" lon="12.526311">
<ele>18.1</ele>
<time>2018-05-27T09:10:37Z</time>
<speed>22.5</speed>
</trkpt>
<trkpt lat="55.821669" lon="12.526299">
<ele>17.8</ele>
<time>2018-05-27T09:10:38Z</time>
<speed>22.2</speed>
</trkpt>
<trkpt lat="55.821868" lon="12.526283">
<ele>17.3</ele>
<time>2018-05-27T09:10:39Z</time>
<speed>21.9</speed>
</trkpt>
<trkpt lat="55.822060" lon="12.526264">
<ele>17.2</ele>
<time>2018-05-27T09:10:40Z</time>
<speed>21.9</speed>
</trkpt>
<trkpt lat="55.822257" lon="12.526264">
<ele>16.8</ele>
<time>2018-05-27T09:10:41Z</time>
<speed>21.4</speed>
</trkpt>
<trkpt lat="55.822449" lon="12.526245">
<ele>16.8</ele>
<time>2018-05-27T09:10:42Z</time>
<speed>21.4</speed>
</trkpt>
<trkpt lat="55.822641" lon="12.526226">
<ele>16.8</ele>
<time>2018-05-27T09:10:43Z</time>
<speed>21.1</speed>
</trkpt>
<trkpt lat="55.822831" lon="12.526222">
<ele>16.9</ele>
<time>2018-05-27T09:10:44Z</time>
<speed>21.4</speed>
</trkpt>
<trkpt lat="55.823036" lon="12.526207">
<ele>17.2</ele>
<time>2018-05-27T09:10:45Z</time>
<speed>21.4</speed>
</trkpt>
<trkpt lat="55.823228" lon="12.526188">
<ele>17.2</ele>
<time>2018-05-27T09:10:46Z</time>
<speed>21.4</speed>
</trkpt>
<trkpt lat="55.823425" lon="12.526169">
<ele>18.0</ele>
<time>2018-05-27T09:10:47Z</time>
<speed>21.7</speed>
</trkpt>
<trkpt lat="55.823622" lon="12.526150">
<ele>18.8</ele>
<time>2018-05-27T09:10:48Z</time>
<speed>21.9</speed>
</trkpt>
<trkpt lat="55.823826" lon="12.526134">
<ele>19.1</ele>
<time>2018-05-27T09:10:49Z</time>
<speed>21.9</speed>
</trkpt>
<trkpt lat="55.824023" lon="12.526115">
<ele>19.9</ele>
<time>2018-05-27T09:10:50Z</time>
<speed>21.9</speed>
</trkpt>
<trkpt lat="55.824232" lon="12.526099">
<ele>21.0</ele>
<time>2018-05-27T09:10:51Z</time>
<speed>22.5</speed>
</trkpt>
<trkpt lat="55.824436" lon="12.526084">
<ele>21.3</ele>
<time>2018-05-27T09:10:52Z</time>
<speed>23.1</speed>
</trkpt>
<trkpt lat="55.824640" lon="12.526068">
<ele>21.6</ele>
<time>2018-05-27T09:10:53Z</time>
<speed>23.3</speed>
</trkpt>
<trkpt lat="55.824858" lon="12.526040">
<ele>22.0</ele>
<time>2018-05-27T09:10:54Z</time>
<speed>23.6</speed>
</trkpt>
<trkpt lat="55.825075" lon="12.526028">
<ele>22.6</ele>
<time>2018-05-27T09:10:55Z</time>
<speed>23.6</speed>
</trkpt>
<trkpt lat="55.825292" lon="12.526016">
<ele>23.1</ele>
<time>2018-05-27T09:10:56Z</time>
<speed>24.2</speed>
</trkpt>
<trkpt lat="55.825510" lon="12.525989">
<ele>23.6</ele>
<time>2018-05-27T09:10:57Z</time>
<speed>24.4</speed>
</trkpt>
<trkpt lat="55.825733" lon="12.525980">
<ele>23.6</ele>
<time>2018-05-27T09:10:58Z</time>
<speed>24.7</speed>
</trkpt>
<trkpt lat="55.825957" lon="12.525952">
<ele>24.8</ele>
<time>2018-05-27T09:10:59Z</time>
<speed>24.7</speed>
</trkpt>
<trkpt lat="55.826180" lon="12.525943">
<ele>24.8</ele>
<time>2018-05-27T09:11:00Z</time>
<speed>24.7</speed>
</trkpt>
<trkpt lat="55.826411" lon="12.525919">
<ele>25.6</ele>
<time>2018-05-27T09:11:01Z</time>
<speed>25.0</speed>
</trkpt>
<trkpt lat="55.826635" lon="12.525911">
<ele>25.6</ele>
<time>2018-05-27T09:11:02Z</time>
<speed>25.0</speed>
</trkpt>
<trkpt lat="55.826853" lon="12.525883">
<ele>26.0</ele>
<time>2018-05-27T09:11:03Z</time>
<speed>24.7</speed>
</trkpt>
<trkpt lat="55.827083" lon="12.525859">
<ele>26.7</ele>
<time>2018-05-27T09:11:04Z</time>
<speed>24.4</speed>
</trkpt>
<trkpt lat="55.827300" lon="12.525846">
<ele>27.3</ele>
<time>2018-05-27T09:11:05Z</time>
<speed>24.4</speed>
</trkpt>
<trkpt lat="55.827518" lon="12.525819">
<ele>27.7</ele>
<time>2018-05-27T09:11:06Z</time>
<speed>24.2</speed>
</trkpt>
<trkpt lat="55.827734" lon="12.525807">
<ele>28.3</ele>
<time>2018-05-27T09:11:07Z</time>
<speed>23.3</speed>
</trkpt>
<trkpt lat="55.827945" lon="12.525775">
<ele>29.2</ele>
<time>2018-05-27T09:11:08Z</time>
<speed>23.9</speed>
</trkpt>
<trkpt lat="55.828165" lon="12.525732">
<ele>29.6</ele>
<time>2018-05-27T09:11:09Z</time>
<speed>23.6</speed>
</trkpt>
<trkpt lat="55.828371" lon="12.525701">
<ele>29.7</ele>
<time>2018-05-27T09:11:10Z</time>
<speed>23.6</speed>
</trkpt>
<trkpt lat="55.828592" lon="12.525642">
<ele>29.9</ele>
<time>2018-05-27T09:11:11Z</time>
<speed>23.9</speed>
</trkpt>
<trkpt lat="55.828806" lon="12.525580">
<ele>30.6</ele>
<time>2018-05-27T09:11:12Z</time>
<speed>23.9</speed>
</trkpt>
<trkpt lat="55.829015" lon="12.525517">
<ele>30.5</ele>
<time>2018-05-27T09:11:13Z</time>
<speed>23.9</speed>
</trkpt>
<trkpt lat="55.829226" lon="12.525440">
<ele>30.3</ele>
<time>2018-05-27T09:11:14Z</time>
<speed>23.9</speed>
</trkpt>
<trkpt lat="55.829442" lon="12.525362">
<ele>31.0</ele>
<time>2018-05-27T09:11:15Z</time>
<speed>23.9</speed>
</trkpt>
<trkpt lat="55.829647" lon="12.525265">
<ele>31.2</ele>
<time>2018-05-27T09:11:16Z</time>
<speed>23.6</speed>
</trkpt>
<trkpt lat="55.829859" lon="12.525171">
<ele>30.8</ele>
<time>2018-05-27T09:11:17Z</time>
<speed>23.3</speed>
</trkpt>
<trkpt lat="55.830052" lon="12.525071">
<ele>30.8</ele>
<time>2018-05-27T09:11:18Z</time>
<speed>23.1</speed>
</trkpt>
<trkpt lat="55.830257" lon="12.524974">
<ele>31.0</ele>
<time>2018-05-27T09:11:19Z</time>
<speed>22.8</speed>
</trkpt>
<trkpt lat="55.830456" lon="12.524858">
<ele>31.6</ele>
<time>2018-05-27T09:11:20Z</time>
<speed>22.8</speed>
</trkpt>
<trkpt lat="55.830652" lon="12.524726">
<ele>31.3</ele>
<time>2018-05-27T09:11:21Z</time>
<speed>22.8</speed>
</trkpt>
<trkpt lat="55.830851" lon="12.524610">
<ele>32.0</ele>
<time>2018-05-27T09:11:22Z</time>
<speed>22.5</speed>
</trkpt>
<trkpt lat="55.831040" lon="12.524475">
<ele>32.2</ele>
<time>2018-05-27T09:11:23Z</time>
<speed>22.5</speed>
</trkpt>
<trkpt lat="55.831230" lon="12.524325">
<ele>32.3</ele>
<time>2018-05-27T09:11:24Z</time>
<speed>22.5</speed>
</trkpt>
<trkpt lat="55.831424" lon="12.524190">
<ele>33.4</ele>
<time>2018-05-27T09:11:25Z</time>
<speed>22.5</speed>
</trkpt>
<trkpt lat="55.831613" lon="12.524055">
<ele>33.7</ele>
<time>2018-05-27T09:11:26Z</time>
<speed>22.5</speed>
</trkpt>
<trkpt lat="55.831803" lon="12.523904">
<ele>33.8</ele>
<time>2018-05-27T09:11:27Z</time>
<speed>22.8</speed>
</trkpt>
<trkpt lat="55.831977" lon="12.523734">
<ele>32.7</ele>
<time>2018-05-27T09:11:28Z</time>
<speed>22.5</speed>
</trkpt>
<trkpt lat="55.832164" lon="12.523568">
<ele>31.8</ele>
<time>2018-05-27T09:11:29Z</time>
<speed>22.5</speed>
</trkpt>
<trkpt lat="55.832339" lon="12.523399">
<ele>30.7</ele>
<time>2018-05-27T09:11:30Z</time>
<speed>22.5</speed>
</trkpt>
<trkpt lat="55.832516" lon="12.523225">
<ele>31.8</ele>
<time>2018-05-27T09:11:31Z</time>
<speed>22.8</speed>
</trkpt>
<trkpt lat="55.832698" lon="12.523040">
<ele>31.4</ele>
<time>2018-05-27T09:11:32Z</time>
<speed>22.8</speed>
</trkpt>
<trkpt lat="55.832877" lon="12.522851">
<ele>32.4</ele>
<time>2018-05-27T09:11:33Z</time>
<speed>22.8</speed>
</trkpt>
<trkpt lat="55.833045" lon="12.522663">
<ele>31.7</ele>
<time>2018-05-27T09:11:34Z</time>
<speed>22.5</speed>
</trkpt>
<trkpt lat="55.833228" lon="12.522462">
<ele>31.2</ele>
<time>2018-05-27T09:11:35Z</time>
<speed>22.5</speed>
</trkpt>
<trkpt lat="55.833409" lon="12.522258">
<ele>32.1</ele>
<time>2018-05-27T09:11:36Z</time>
<speed>23.3</speed>
</trkpt>
<trkpt lat="55.833584" lon="12.522053">
<ele>32.1</ele>
<time>2018-05-27T09:11:37Z</time>
<speed>23.1</speed>
</trkpt>
<trkpt lat="55.833753" lon="12.521865">
<ele>31.4</ele>
<time>2018-05-27T09:11:38Z</time>
<speed>22.8</speed>
</trkpt>
<trkpt lat="55.833922" lon="12.521657">
<ele>32.0</ele>
<time>2018-05-27T09:11:39Z</time>
<speed>22.8</speed>
</trkpt>
<trkpt lat="55.834092" lon="12.521453">
<ele>31.2</ele>
<time>2018-05-27T09:11:40Z</time>
<speed>22.8</speed>
</trkpt>
<trkpt lat="55.834266" lon="12.521264">
<ele>31.3</ele>
<time>2018-05-27T09:11:41Z</time>
<speed>22.5</speed>
</trkpt>
<trkpt lat="55.834435" lon="12.521056">
<ele>31.9</ele>
<time>2018-05-27T09:11:42Z</time>
<speed>22.5</speed>
</trkpt>
<trkpt lat="55.834603" lon="12.520867">
<ele>31.2</ele>
<time>2018-05-27T09:11:43Z</time>
<speed>22.5</speed>
</trkpt>
<trkpt lat="55.834779" lon="12.520663">
<ele>31.3</ele>
<time>2018-05-27T09:11:44Z</time>
<speed>22.8</speed>
</trkpt>
<trkpt lat="55.834950" lon="12.520459">
<ele>30.4</ele>
<time>2018-05-27T09:11:45Z</time>
<speed>22.8</speed>
</trkpt>
<trkpt lat="55.835124" lon="12.520270">
<ele>30.6</ele>
<time>2018-05-27T09:11:46Z</time>
<speed>23.3</speed>
</trkpt>
<trkpt lat="55.835299" lon="12.520066">
<ele>30.6</ele>
<time>2018-05-27T09:11:47Z</time>
<speed>23.3</speed>
</trkpt>
<trkpt lat="55.835482" lon="12.519865">
<ele>30.1</ele>
<time>2018-05-27T09:11:48Z</time>
<speed>23.6</speed>
</trkpt>
<trkpt lat="55.835652" lon="12.519661">
<ele>29.3</ele>
<time>2018-05-27T09:11:49Z</time>
<speed>23.3</speed>
</trkpt>
<trkpt lat="55.835835" lon="12.519460">
<ele>28.8</ele>
<time>2018-05-27T09:11:50Z</time>
<speed>23.3</speed>
</trkpt>
<trkpt lat="55.836018" lon="12.519259">
<ele>28.3</ele>
<time>2018-05-27T09:11:51Z</time>
<speed>23.3</speed>
</trkpt>
<trkpt lat="55.836190" lon="12.519039">
<ele>27.3</ele>
<time>2018-05-27T09:11:52Z</time>
<speed>23.1</speed>
</trkpt>
<trkpt lat="55.836371" lon="12.518854">
<ele>26.9</ele>
<time>2018-05-27T09:11:53Z</time>
<speed>23.1</speed>
</trkpt>
<trkpt lat="55.836542" lon="12.518649">
<ele>26.1</ele>
<time>2018-05-27T09:11:54Z</time>
<speed>23.1</speed>
</trkpt>
<trkpt lat="55.836718" lon="12.518445">
<ele>26.2</ele>
<time>2018-05-27T09:11:55Z</time>
<speed>23.1</speed>
</trkpt>
<trkpt lat="55.836895" lon="12.518244">
<ele>24.8</ele>
<time>2018-05-27T09:11:56Z</time>
<speed>22.8</speed>
</trkpt>
<trkpt lat="55.837069" lon="12.518056">
<ele>25.0</ele>
<time>2018-05-27T09:11:57Z</time>
<speed>22.8</speed>
</trkpt>
<trkpt lat="55.837240" lon="12.517851">
<ele>24.2</ele>
<time>2018-05-27T09:11:58Z</time>
<speed>22.8</speed>
</trkpt>
<trkpt lat="55.837409" lon="12.517663">
<ele>23.5</ele>
<time>2018-05-27T09:11:59Z</time>
<speed>22.5</speed>
</trkpt>
<trkpt lat="55.837584" lon="12.517458">
<ele>23.5</ele>
<time>2018-05-27T09:12:00Z</time>
<speed>22.5</speed>
</trkpt>
<trkpt lat="55.837755" lon="12.517254">
<ele>22.7</ele>
<time>2018-05-27T09:12:01Z</time>
<speed>22.5</speed>
</trkpt>
<trkpt lat="55.837916" lon="12.517062">
<ele>22.6</ele>
<time>2018-05-27T09:12:02Z</time>
<speed>22.5</speed>
</trkpt>
<trkpt lat="55.838092" lon="12.516857">
<ele>22.6</ele>
<time>2018-05-27T09:12:03Z</time>
<speed>22.5</speed>
</trkpt>
<trkpt lat="55.838261" lon="12.516669">
<ele>21.9</ele>
<time>2018-05-27T09:12:04Z</time>
<speed>22.5</speed>
</trkpt>
<trkpt lat="55.838436" lon="12.516464">
<ele>22.0</ele>
<time>2018-05-27T09:12:05Z</time>
<speed>22.5</speed>
</trkpt>
<trkpt lat="55.838600" lon="12.516256">
<ele>21.7</ele>
<time>2018-05-27T09:12:06Z</time>
<speed>22.8</speed>
</trkpt>
<trkpt lat="55.838769" lon="12.516068">
<ele>21.0</ele>
<time>2018-05-27T09:12:07Z</time>
<speed>22.5</speed>
</trkpt>
<trkpt lat="55.838944" lon="12.515863">
<ele>21.1</ele>
<time>2018-05-27T09:12:08Z</time>
<speed>22.5</speed>
</trkpt>
<trkpt lat="55.839115" lon="12.515659">
<ele>20.3</ele>
<time>2018-05-27T09:12:09Z</time>
<speed>22.5</speed>
</trkpt>
<trkpt lat="55.839289" lon="12.515470">
<ele>20.4</ele>
<time>2018-05-27T09:12:10Z</time>
<speed>22.5</speed>
</trkpt>
<trkpt lat="55.839459" lon="12.515266">
<ele>19.6</ele>
<time>2018-05-27T09:12:11Z</time>
<speed>22.5</speed>
</trkpt>
<trkpt lat="55.839626" lon="12.515074">
<ele>20.3</ele>
<time>2018-05-27T09:12:12Z</time>
<speed>22.5</speed>
</trkpt>
<trkpt lat="55.839796" lon="12.514869">
<ele>19.5</ele>
<time>2018-05-27T09:12:13Z</time>
<speed>22.5</speed>
</trkpt>
<trkpt lat="55.839965" lon="12.514681">
<ele>18.9</ele>
<time>2018-05-27T09:12:14Z</time>
<speed>22.5</speed>
</trkpt>
<trkpt lat="55.840141" lon="12.514476">
<ele>18.9</ele>
<time>2018-05-27T09:12:15Z</time>
<speed>22.5</speed>
</trkpt>
<trkpt lat="55.840310" lon="12.514287">
<ele>18.2</ele>
<time>2018-05-27T09:12:16Z</time>
<speed>22.5</speed>
</trkpt>
<trkpt lat="55.840485" lon="12.514083">
<ele>18.2</ele>
<time>2018-05-27T09:12:17Z</time>
<speed>22.8</speed>
</trkpt>
<trkpt lat="55.840656" lon="12.513879">
<ele>17.4</ele>
<time>2018-05-27T09:12:18Z</time>
<speed>22.8</speed>
</trkpt>
<trkpt lat="55.840830" lon="12.513690">
<ele>17.6</ele>
<time>2018-05-27T09:12:19Z</time>
<speed>22.8</speed>
</trkpt>
<trkpt lat="55.841000" lon="12.513486">
<ele>16.8</ele>
<time>2018-05-27T09:12:20Z</time>
<speed>22.8</speed>
</trkpt>
<trkpt lat="55.841176" lon="12.513281">
<ele>16.8</ele>
<time>2018-05-27T09:12:21Z</time>
<speed>23.1</speed>
</trkpt>
<trkpt lat="55.841351" lon="12.513077">
<ele>16.8</ele>
<time>2018-05-27T09:12:22Z</time>
<speed>23.3</speed>
</trkpt>
<trkpt lat="55.841527" lon="12.512872">
<ele>16.9</ele>
<time>2018-05-27T09:12:23Z</time>
<speed>23.3</speed>
</trkpt>
<trkpt lat="55.841703" lon="12.512668">
<ele>16.9</ele>
<time>2018-05-27T09:12:24Z</time>
<speed>23.1</speed>
</trkpt>
<trkpt lat="55.841878" lon="12.512464">
<ele>16.9</ele>
<time>2018-05-27T09:12:25Z</time>
<speed>23.1</speed>
</trkpt>
<trkpt lat="55.842049" lon="12.512259">
<ele>16.1</ele>
<time>2018-05-27T09:12:26Z</time>
<speed>22.8</speed>
</trkpt>
<trkpt lat="55.842223" lon="12.512071">
<ele>16.3</ele>
<time>2018-05-27T09:12:27Z</time>
<speed>22.5</speed>
</trkpt>
<trkpt lat="55.842391" lon="12.511863">
<ele>16.9</ele>
<time>2018-05-27T09:12:28Z</time>
<speed>22.5</speed>
</trkpt>
<trkpt lat="55.842565" lon="12.511674">
<ele>17.0</ele>
<time>2018-05-27T09:12:29Z</time>
<speed>22.5</speed>
</trkpt>
<trkpt lat="55.842728" lon="12.511466">
<ele>16.8</ele>
<time>2018-05-27T09:12:30Z</time>
<speed>22.5</speed>
</trkpt>
<trkpt lat="55.842895" lon="12.511274">
<ele>17.5</ele>
<time>2018-05-27T09:12:31Z</time>
<speed>22.2</speed>
</trkpt>
<trkpt lat="55.843063" lon="12.511066">
<ele>18.1</ele>
<time>2018-05-27T09:12:32Z</time>
<speed>21.9</speed>
</trkpt>
<trkpt lat="55.843230" lon="12.510874">
<ele>18.8</ele>
<time>2018-05-27T09:12:33Z</time>
<speed>21.9</speed>
</trkpt>
<trkpt lat="55.843397" lon="12.510681">
<ele>19.5</ele>
<time>2018-05-27T09:12:34Z</time>
<speed>21.9</speed>
</trkpt>
<trkpt lat="55.843563" lon="12.510489">
<ele>20.2</ele>
<time>2018-05-27T09:12:35Z</time>
<speed>21.9</speed>
</trkpt>
<trkpt lat="55.843732" lon="12.510281">
<ele>20.7</ele>
<time>2018-05-27T09:12:36Z</time>
<speed>22.5</speed>
</trkpt>
<trkpt lat="55.843903" lon="12.510089">
<ele>22.3</ele>
<time>2018-05-27T09:12:37Z</time>
<speed>22.8</speed>
</trkpt>
<trkpt lat="55.844077" lon="12.509881">
<ele>23.7</ele>
<time>2018-05-27T09:12:38Z</time>
<speed>23.1</speed>
</trkpt>
<trkpt lat="55.844250" lon="12.509673">
<ele>25.1</ele>
<time>2018-05-27T09:12:39Z</time>
<speed>23.3</speed>
</trkpt>
<trkpt lat="55.844432" lon="12.509453">
<ele>25.8</ele>
<time>2018-05-27T09:12:40Z</time>
<speed>23.3</speed>
</trkpt>
<trkpt lat="55.844600" lon="12.509245">
<ele>26.4</ele>
<time>2018-05-27T09:12:41Z</time>
<speed>23.3</speed>
</trkpt>
<trkpt lat="55.844774" lon="12.509038">
<ele>27.8</ele>
<time>2018-05-27T09:12:42Z</time>
<speed>22.8</speed>
</trkpt>
<trkpt lat="55.844947" lon="12.508830">
<ele>29.2</ele>
<time>2018-05-27T09:12:43Z</time>
<speed>22.5</speed>
</trkpt>
<trkpt lat="55.845114" lon="12.508637">
<ele>29.9</ele>
<time>2018-05-27T09:12:44Z</time>
<speed>22.5</speed>
</trkpt>
<trkpt lat="55.845282" lon="12.508430">
<ele>30.5</ele>
<time>2018-05-27T09:12:45Z</time>
<speed>22.5</speed>
</trkpt>
<trkpt lat="55.845454" lon="12.508237">
<ele>32.0</ele>
<time>2018-05-27T09:12:46Z</time>
<speed>22.8</speed>
</trkpt>
<trkpt lat="55.845622" lon="12.508029">
<ele>32.6</ele>
<time>2018-05-27T09:12:47Z</time>
<speed>22.8</speed>
</trkpt>
<trkpt lat="55.845801" lon="12.507841">
<ele>33.6</ele>
<time>2018-05-27T09:12:48Z</time>
<speed>22.8</speed>
</trkpt>
<trkpt lat="55.845969" lon="12.507633">
<ele>34.2</ele>
<time>2018-05-27T09:12:49Z</time>
<speed>22.8</speed>
</trkpt>
<trkpt lat="55.846143" lon="12.507425">
<ele>35.6</ele>
<time>2018-05-27T09:12:50Z</time>
<speed>22.8</speed>
</trkpt>
<trkpt lat="55.846318" lon="12.507220">
<ele>35.6</ele>
<time>2018-05-27T09:12:51Z</time>
<speed>23.3</speed>
</trkpt>
<trkpt lat="55.846492" lon="12.507013">
<ele>37.0</ele>
<time>2018-05-27T09:12:52Z</time>
<speed>23.6</speed>
</trkpt>
<trkpt lat="55.846674" lon="12.506793">
<ele>37.7</ele>
<time>2018-05-27T09:12:53Z</time>
<speed>23.9</speed>
</trkpt>
<trkpt lat="55.846847" lon="12.506585">
<ele>39.2</ele>
<time>2018-05-27T09:12:54Z</time>
<speed>24.2</speed>
</trkpt>
<trkpt lat="55.847029" lon="12.506365">
<ele>39.9</ele>
<time>2018-05-27T09:12:55Z</time>
<speed>24.2</speed>
</trkpt>
<trkpt lat="55.847203" lon="12.506157">
<ele>41.3</ele>
<time>2018-05-27T09:12:56Z</time>
<speed>23.3</speed>
</trkpt>
<trkpt lat="55.847374" lon="12.505964">
<ele>42.8</ele>
<time>2018-05-27T09:12:57Z</time>
<speed>23.1</speed>
</trkpt>
<trkpt lat="55.847543" lon="12.505757">
<ele>43.4</ele>
<time>2018-05-27T09:12:58Z</time>
<speed>23.1</speed>
</trkpt>
<trkpt lat="55.847716" lon="12.505549">
<ele>44.8</ele>
<time>2018-05-27T09:12:59Z</time>
<speed>22.5</speed>
</trkpt>
<trkpt lat="55.847883" lon="12.505356">
<ele>45.5</ele>
<time>2018-05-27T09:13:00Z</time>
<speed>22.5</speed>
</trkpt>
<trkpt lat="55.848049" lon="12.505164">
<ele>46.2</ele>
<time>2018-05-27T09:13:01Z</time>
<speed>21.9</speed>
</trkpt>
<trkpt lat="55.848216" lon="12.504972">
<ele>46.9</ele>
<time>2018-05-27T09:13:02Z</time>
<speed>21.9</speed>
</trkpt>
<trkpt lat="55.848377" lon="12.504760">
<ele>48.1</ele>
<time>2018-05-27T09:13:03Z</time>
<speed>21.9</speed>
</trkpt>
<trkpt lat="55.848539" lon="12.504568">
<ele>47.9</ele>
<time>2018-05-27T09:13:04Z</time>
<speed>22.2</speed>
</trkpt>
<trkpt lat="55.848705" lon="12.504376">
<ele>48.6</ele>
<time>2018-05-27T09:13:05Z</time>
<speed>22.2</speed>
</trkpt>
<trkpt lat="55.848881" lon="12.504171">
<ele>48.7</ele>
<time>2018-05-27T09:13:06Z</time>
<speed>22.5</speed>
</trkpt>
<trkpt lat="55.849048" lon="12.503979">
<ele>49.4</ele>
<time>2018-05-27T09:13:07Z</time>
<speed>22.8</speed>
</trkpt>
<trkpt lat="55.849216" lon="12.503771">
<ele>50.0</ele>
<time>2018-05-27T09:13:08Z</time>
<speed>22.8</speed>
</trkpt>
<trkpt lat="55.849391" lon="12.503567">
<ele>50.0</ele>
<time>2018-05-27T09:13:09Z</time>
<speed>23.1</speed>
</trkpt>
<trkpt lat="55.849567" lon="12.503362">
<ele>50.0</ele>
<time>2018-05-27T09:13:10Z</time>
<speed>23.1</speed>
</trkpt>
<trkpt lat="55.849734" lon="12.503170">
<ele>50.7</ele>
<time>2018-05-27T09:13:11Z</time>
<speed>22.8</speed>
</trkpt>
<trkpt lat="55.849909" lon="12.502965">
<ele>50.8</ele>
<time>2018-05-27T09:13:12Z</time>
<speed>22.8</speed>
</trkpt>
<trkpt lat="55.850078" lon="12.502758">
<ele>51.3</ele>
<time>2018-05-27T09:13:13Z</time>
<speed>22.8</speed>
</trkpt>
<trkpt lat="55.850251" lon="12.502569">
<ele>51.5</ele>
<time>2018-05-27T09:13:14Z</time>
<speed>23.1</speed>
</trkpt>
<trkpt lat="55.850420" lon="12.502361">
<ele>52.1</ele>
<time>2018-05-27T09:13:15Z</time>
<speed>23.1</speed>
</trkpt>
<trkpt lat="55.850600" lon="12.502156">
<ele>52.9</ele>
<time>2018-05-27T09:13:16Z</time>
<speed>23.1</speed>
</trkpt>
<trkpt lat="55.850774" lon="12.501967">
<ele>53.1</ele>
<time>2018-05-27T09:13:17Z</time>
<speed>22.5</speed>
</trkpt>
<trkpt lat="55.850943" lon="12.501759">
<ele>53.7</ele>
<time>2018-05-27T09:13:18Z</time>
<speed>22.2</speed>
</trkpt>
<trkpt lat="55.851109" lon="12.501567">
<ele>54.4</ele>
<time>2018-05-27T09:13:19Z</time>
<speed>22.2</speed>
</trkpt>
<trkpt lat="55.851276" lon="12.501375">
<ele>55.1</ele>
<time>2018-05-27T09:13:20Z</time>
<speed>22.2</speed>
</trkpt>
<trkpt lat="55.851450" lon="12.501186">
<ele>55.3</ele>
<time>2018-05-27T09:13:21Z</time>
<speed>22.2</speed>
</trkpt>
<trkpt lat="55.851622" lon="12.501013">
<ele>55.5</ele>
<time>2018-05-27T09:13:22Z</time>
<speed>22.5</speed>
</trkpt>
<trkpt lat="55.851796" lon="12.500824">
<ele>55.7</ele>
<time>2018-05-27T09:13:23Z</time>
<speed>22.5</speed>
</trkpt>
<trkpt lat="55.851975" lon="12.500635">
<ele>56.7</ele>
<time>2018-05-27T09:13:24Z</time>
<speed>22.8</speed>
</trkpt>
<trkpt lat="55.852149" lon="12.500446">
<ele>56.8</ele>
<time>2018-05-27T09:13:26Z</time>
<speed>22.8</speed>
</trkpt>
<trkpt lat="55.852330" lon="12.500260">
<ele>56.4</ele>
<time>2018-05-27T09:13:27Z</time>
<speed>23.1</speed>
</trkpt>
<trkpt lat="55.852515" lon="12.500091">
<ele>57.0</ele>
<time>2018-05-27T09:13:28Z</time>
<speed>23.1</speed>
</trkpt>
<trkpt lat="55.852699" lon="12.499921">
<ele>57.6</ele>
<time>2018-05-27T09:13:29Z</time>
<speed>23.3</speed>
</trkpt>
<trkpt lat="55.852884" lon="12.499751">
<ele>58.1</ele>
<time>2018-05-27T09:13:30Z</time>
<speed>23.1</speed>
</trkpt>
<trkpt lat="55.853064" lon="12.499581">
<ele>57.8</ele>
<time>2018-05-27T09:13:31Z</time>
<speed>23.1</speed>
</trkpt>
<trkpt lat="55.853254" lon="12.499430">
<ele>58.0</ele>
<time>2018-05-27T09:13:32Z</time>
<speed>22.5</speed>
</trkpt>
<trkpt lat="55.853437" lon="12.499295">
<ele>57.4</ele>
<time>2018-05-27T09:13:33Z</time>
<speed>22.5</speed>
</trkpt>
<trkpt lat="55.853628" lon="12.499144">
<ele>57.5</ele>
<time>2018-05-27T09:13:34Z</time>
<speed>22.5</speed>
</trkpt>
<trkpt lat="55.853811" lon="12.499009">
<ele>57.0</ele>
<time>2018-05-27T09:13:35Z</time>
<speed>22.5</speed>
</trkpt>
<trkpt lat="55.854000" lon="12.498874">
<ele>57.2</ele>
<time>2018-05-27T09:13:36Z</time>
<speed>22.5</speed>
</trkpt>
<trkpt lat="55.854191" lon="12.498742">
<ele>56.1</ele>
<time>2018-05-27T09:13:37Z</time>
<speed>22.8</speed>
</trkpt>
<trkpt lat="55.854380" lon="12.498607">
<ele>56.3</ele>
<time>2018-05-27T09:13:38Z</time>
<speed>22.8</speed>
</trkpt>
<trkpt lat="55.854572" lon="12.498459">
<ele>55.1</ele>
<time>2018-05-27T09:13:39Z</time>
<speed>22.8</speed>
</trkpt>
<trkpt lat="55.854756" lon="12.498324">
<ele>54.5</ele>
<time>2018-05-27T09:13:40Z</time>
<speed>22.2</speed>
</trkpt>
<trkpt lat="55.854944" lon="12.498189">
<ele>54.8</ele>
<time>2018-05-27T09:13:41Z</time>
<speed>22.2</speed>
</trkpt>
<trkpt lat="55.855126" lon="12.498069">
<ele>54.3</ele>
<time>2018-05-27T09:13:42Z</time>
<speed>22.5</speed>
</trkpt>
<trkpt lat="55.855311" lon="12.497918">
<ele>53.6</ele>
<time>2018-05-27T09:13:43Z</time>
<speed>22.8</speed>
</trkpt>
<trkpt lat="55.855500" lon="12.497783">
<ele>53.9</ele>
<time>2018-05-27T09:13:44Z</time>
<speed>22.8</speed>
</trkpt>
<trkpt lat="55.855696" lon="12.497651">
<ele>53.6</ele>
<time>2018-05-27T09:13:45Z</time>
<speed>23.1</speed>
</trkpt>
<trkpt lat="55.855880" lon="12.497516">
<ele>53.0</ele>
<time>2018-05-27T09:13:46Z</time>
<speed>23.1</speed>
</trkpt>
<trkpt lat="55.856077" lon="12.497369">
<ele>52.6</ele>
<time>2018-05-27T09:13:47Z</time>
<speed>23.3</speed>
</trkpt>
<trkpt lat="55.856280" lon="12.497221">
<ele>53.0</ele>
<time>2018-05-27T09:13:48Z</time>
<speed>23.6</speed>
</trkpt>
<trkpt lat="55.856472" lon="12.497055">
<ele>53.0</ele>
<time>2018-05-27T09:13:49Z</time>
<speed>23.3</speed>
</trkpt>
<trkpt lat="55.856668" lon="12.496923">
<ele>52.7</ele>
<time>2018-05-27T09:13:50Z</time>
<speed>23.3</speed>
</trkpt>
<trkpt lat="55.856858" lon="12.496772">
<ele>52.9</ele>
<time>2018-05-27T09:13:51Z</time>
<speed>23.3</speed>
</trkpt>
<trkpt lat="55.857057" lon="12.496609">
<ele>52.3</ele>
<time>2018-05-27T09:13:52Z</time>
<speed>23.1</speed>
</trkpt>
<trkpt lat="55.857247" lon="12.496459">
<ele>52.5</ele>
<time>2018-05-27T09:13:53Z</time>
<speed>23.1</speed>
</trkpt>
<trkpt lat="55.857437" lon="12.496308">
<ele>52.6</ele>
<time>2018-05-27T09:13:54Z</time>
<speed>23.1</speed>
</trkpt>
<trkpt lat="55.857624" lon="12.496141">
<ele>51.8</ele>
<time>2018-05-27T09:13:55Z</time>
<speed>22.8</speed>
</trkpt>
<trkpt lat="55.857809" lon="12.495971">
<ele>52.3</ele>
<time>2018-05-27T09:13:56Z</time>
<speed>22.8</speed>
</trkpt>
<trkpt lat="55.857993" lon="12.495801">
<ele>52.9</ele>
<time>2018-05-27T09:13:57Z</time>
<speed>22.8</speed>
</trkpt>
<trkpt lat="55.858167" lon="12.495613">
<ele>53.1</ele>
<time>2018-05-27T09:13:58Z</time>
<speed>22.8</speed>
</trkpt>
<trkpt lat="55.858354" lon="12.495427">
<ele>53.5</ele>
<time>2018-05-27T09:13:59Z</time>
<speed>22.8</speed>
</trkpt>
<trkpt lat="55.858874" lon="12.494829">
<ele>52.9</ele>
<time>2018-05-27T09:14:02Z</time>
<speed>22.8</speed>
</trkpt>
<trkpt lat="55.859210" lon="12.494385">
<ele>51.6</ele>
<time>2018-05-27T09:14:03Z</time>
<speed>23.1</speed>
</trkpt>
<trkpt lat="55.859379" lon="12.494150">
<ele>49.8</ele>
<time>2018-05-27T09:14:04Z</time>
<speed>23.3</speed>
</trkpt>
<trkpt lat="55.859546" lon="12.493910">
<ele>49.3</ele>
<time>2018-05-27T09:14:05Z</time>
<speed>23.3</speed>
</trkpt>
<trkpt lat="55.859719" lon="12.493675">
<ele>48.3</ele>
<time>2018-05-27T09:14:06Z</time>
<speed>23.9</speed>
</trkpt>
<trkpt lat="55.859891" lon="12.493435">
<ele>48.6</ele>
<time>2018-05-27T09:14:07Z</time>
<speed>23.9</speed>
</trkpt>
<trkpt lat="55.860064" lon="12.493200">
<ele>47.6</ele>
<time>2018-05-27T09:14:08Z</time>
<speed>23.6</speed>
</trkpt>
<trkpt lat="55.860236" lon="12.492961">
<ele>47.9</ele>
<time>2018-05-27T09:14:09Z</time>
<speed>23.6</speed>
</trkpt>
<trkpt lat="55.860404" lon="12.492706">
<ele>47.3</ele>
<time>2018-05-27T09:14:10Z</time>
<speed>23.6</speed>
</trkpt>
<trkpt lat="55.860568" lon="12.492463">
<ele>48.2</ele>
<time>2018-05-27T09:14:11Z</time>
<speed>23.3</speed>
</trkpt>
<trkpt lat="55.860722" lon="12.492201">
<ele>48.7</ele>
<time>2018-05-27T09:14:12Z</time>
<speed>23.6</speed>
</trkpt>
<trkpt lat="55.860883" lon="12.491943">
<ele>48.6</ele>
<time>2018-05-27T09:14:13Z</time>
<speed>23.1</speed>
</trkpt>
<trkpt lat="55.861036" lon="12.491681">
<ele>49.1</ele>
<time>2018-05-27T09:14:14Z</time>
<speed>22.8</speed>
</trkpt>
<trkpt lat="55.861182" lon="12.491416">
<ele>50.2</ele>
<time>2018-05-27T09:14:15Z</time>
<speed>22.8</speed>
</trkpt>
<trkpt lat="55.861331" lon="12.491155">
<ele>49.8</ele>
<time>2018-05-27T09:14:16Z</time>
<speed>22.8</speed>
</trkpt>
<trkpt lat="55.861472" lon="12.490889">
<ele>50.0</ele>
<time>2018-05-27T09:14:17Z</time>
<speed>22.8</speed>
</trkpt>
<trkpt lat="55.861613" lon="12.490624">
<ele>50.3</ele>
<time>2018-05-27T09:14:18Z</time>
<speed>22.5</speed>
</trkpt>
<trkpt lat="55.861757" lon="12.490362">
<ele>49.1</ele>
<time>2018-05-27T09:14:19Z</time>
<speed>22.5</speed>
</trkpt>
<trkpt lat="55.861900" lon="12.490101">
<ele>47.9</ele>
<time>2018-05-27T09:14:20Z</time>
<speed>22.5</speed>
</trkpt>
<trkpt lat="55.862041" lon="12.489836">
<ele>48.1</ele>
<time>2018-05-27T09:14:21Z</time>
<speed>22.5</speed>
</trkpt>
<trkpt lat="55.862176" lon="12.489586">
<ele>47.6</ele>
<time>2018-05-27T09:14:22Z</time>
<speed>22.8</speed>
</trkpt>
<trkpt lat="55.862317" lon="12.489321">
<ele>47.9</ele>
<time>2018-05-27T09:14:23Z</time>
<speed>22.8</speed>
</trkpt>
<trkpt lat="55.862464" lon="12.489075">
<ele>47.6</ele>
<time>2018-05-27T09:14:24Z</time>
<speed>23.1</speed>
</trkpt>
<trkpt lat="55.862618" lon="12.488813">
<ele>48.1</ele>
<time>2018-05-27T09:14:25Z</time>
<speed>23.1</speed>
</trkpt>
<trkpt lat="55.862770" lon="12.488586">
<ele>47.5</ele>
<time>2018-05-27T09:14:26Z</time>
<speed>22.8</speed>
</trkpt>
<trkpt lat="55.862923" lon="12.488359">
<ele>46.9</ele>
<time>2018-05-27T09:14:27Z</time>
<speed>22.5</speed>
</trkpt>
<trkpt lat="55.863073" lon="12.488128">
<ele>47.6</ele>
<time>2018-05-27T09:14:28Z</time>
<speed>21.9</speed>
</trkpt>
<trkpt lat="55.863226" lon="12.487901">
<ele>46.9</ele>
<time>2018-05-27T09:14:29Z</time>
<speed>21.4</speed>
</trkpt>
<trkpt lat="55.863373" lon="12.487702">
<ele>47.9</ele>
<time>2018-05-27T09:14:30Z</time>
<speed>21.4</speed>
</trkpt>
<trkpt lat="55.863515" lon="12.487502">
<ele>48.1</ele>
<time>2018-05-27T09:14:31Z</time>
<speed>19.4</speed>
</trkpt>
<trkpt lat="55.863648" lon="12.487315">
<ele>48.9</ele>
<time>2018-05-27T09:14:32Z</time>
<speed>17.5</speed>
</trkpt>
<trkpt lat="55.863757" lon="12.487168">
<ele>50.3</ele>
<time>2018-05-27T09:14:33Z</time>
<speed>15.3</speed>
</trkpt>
<trkpt lat="55.863865" lon="12.487055">
<ele>50.7</ele>
<time>2018-05-27T09:14:34Z</time>
<speed>14.4</speed>
</trkpt>
<trkpt lat="55.863965" lon="12.486939">
<ele>51.5</ele>
<time>2018-05-27T09:14:35Z</time>
<speed>14.4</speed>
</trkpt>
<trkpt lat="55.864070" lon="12.486857">
<ele>52.1</ele>
<time>2018-05-27T09:14:36Z</time>
<speed>12.5</speed>
</trkpt>
<trkpt lat="55.864160" lon="12.486788">
<ele>52.5</ele>
<time>2018-05-27T09:14:37Z</time>
<speed>11.4</speed>
</trkpt>
<trkpt lat="55.864315" lon="12.486693">
<ele>51.7</ele>
<time>2018-05-27T09:14:39Z</time>
<speed>8.9</speed>
</trkpt>
<trkpt lat="55.864439" lon="12.486618">
<ele>52.0</ele>
<time>2018-05-27T09:14:41Z</time>
<speed>6.9</speed>
</trkpt>
<trkpt lat="55.864558" lon="12.486543">
<ele>51.5</ele>
<time>2018-05-27T09:14:43Z</time>
<speed>6.4</speed>
</trkpt>
<trkpt lat="55.864654" lon="12.486493">
<ele>51.5</ele>
<time>2018-05-27T09:14:45Z</time>
<speed>6.1</speed>
</trkpt>
<trkpt lat="55.864773" lon="12.486418">
<ele>50.9</ele>
<time>2018-05-27T09:14:48Z</time>
<speed>4.7</speed>
</trkpt>
<trkpt lat="55.864865" lon="12.486368">
<ele>50.1</ele>
<time>2018-05-27T09:14:53Z</time>
<speed>1.4</speed>
</trkpt>
</trkseg>
</trk>
</gpx>
